
Distance (Route):
Temperature : 24.8°C
Humidity : 41.6%
Pressure : 990.5hPa| Receiver | Frames | First received | Last received |
|---|---|---|---|
| BIOWL1-15 | 672 | 2026-08-30 10:56:17 | 2026-08-30 13:11:21 |
| DM0DOS-11 | 409 | 2026-08-30 10:56:06 | 2026-08-30 13:12:09 |
| DL1XH-west | 303 | 2026-08-30 11:32:46 | 2026-08-30 12:52:40 |
| DO2JMG | 280 | 2026-08-30 11:18:18 | 2026-08-30 12:51:57 |
| DL1XH1-15 | 186 | 2026-08-30 11:33:29 | 2026-08-30 12:52:38 |
| AA1-15 | 151 | 2026-08-30 12:01:15 | 2026-08-30 12:43:06 |
| DB0UT-7 | 121 | 2026-08-30 10:38:42 | 2026-08-30 13:18:45 |
| DL1XH-15 | 120 | 2026-08-30 11:52:00 | 2026-08-30 12:45:01 |
| DB0DAN | 109 | 2026-08-30 11:24:25 | 2026-08-30 12:54:10 |
| DL1ZP-14 | 92 | 2026-08-30 10:50:14 | 2026-08-30 13:18:52 |
| DB0UT-9 | 86 | 2026-08-30 10:39:08 | 2026-08-30 13:18:34 |
| DB0ND-19 | 83 | 2026-08-30 10:46:44 | 2026-08-30 13:19:19 |
| DL9SK-14 | 75 | 2026-08-30 10:48:59 | 2026-08-30 13:16:31 |
| DL3AQ-11 | 72 | 2026-08-30 11:35:04 | 2026-08-30 12:51:15 |
| DF7PN | 70 | 2026-08-30 10:49:07 | 2026-08-30 13:18:14 |
| DJ2DS-15 | 67 | 2026-08-30 11:16:31 | 2026-08-30 12:57:44 |
| HSKMA3-T | 61 | 2026-08-30 11:46:02 | 2026-08-30 13:04:38 |
| DM3KS-11 | 60 | 2026-08-30 10:49:47 | 2026-08-30 12:34:50 |
| HEMX73-11 | 55 | 2026-08-30 10:48:17 | 2026-08-30 12:57:21 |
| DD1CC8 | 55 | 2026-08-30 11:12:49 | 2026-08-30 13:09:45 |
| DK5PH-5 | 47 | 2026-08-30 10:51:14 | 2026-08-30 13:15:27 |
| CB1BUN | 46 | 2026-08-30 10:47:14 | 2026-08-30 13:05:40 |
| BIOWL9-15 | 45 | 2026-08-30 10:57:28 | 2026-08-30 13:10:59 |
| DL0LBS | 43 | 2026-08-30 11:49:45 | 2026-08-30 13:14:11 |
| AU51GT2 | 42 | 2026-08-30 11:15:28 | 2026-08-30 12:58:24 |
| DL9PN | 40 | 2026-08-30 10:46:22 | 2026-08-30 13:04:35 |
| DO1YAY-16 | 39 | 2026-08-30 10:59:31 | 2026-08-30 12:49:46 |
| DL8DAS-14 | 39 | 2026-08-30 11:02:59 | 2026-08-30 13:04:30 |
| DF1GD-15 | 33 | 2026-08-30 10:53:46 | 2026-08-30 13:09:19 |
| DJ2KF-10 | 29 | 2026-08-30 11:15:37 | 2026-08-30 12:52:30 |
| DL8OAI-8 | 26 | 2026-08-30 11:41:05 | 2026-08-30 12:51:19 |
| GOEST3-10 | 24 | 2026-08-30 12:14:06 | 2026-08-30 12:39:16 |
| DL8DAS-15 | 22 | 2026-08-30 11:05:28 | 2026-08-30 12:55:25 |
| DC4HF-4 | 20 | 2026-08-30 11:28:57 | 2026-08-30 12:51:56 |
| DL4BBY-15 | 19 | 2026-08-30 11:38:07 | 2026-08-30 12:52:23 |
| IW2NTF | 19 | 2026-08-30 12:11:39 | 2026-08-30 12:28:10 |
| DH7VM-15 | 16 | 2026-08-30 10:55:30 | 2026-08-30 13:06:12 |
| BIOWL7-15 | 15 | 2026-08-30 11:04:44 | 2026-08-30 13:10:38 |
| DB0NH | 15 | 2026-08-30 11:54:07 | 2026-08-30 13:15:41 |
| DF3TZ-5 | 12 | 2026-08-30 11:21:39 | 2026-08-30 12:56:53 |
| DM7RM-13 | 11 | 2026-08-30 12:53:46 | 2026-08-30 13:11:37 |
| NBG1-10 | 10 | 2026-08-30 13:08:16 | 2026-08-30 13:14:05 |
| SFWM-10 | 8 | 2026-08-30 12:04:54 | 2026-08-30 13:06:22 |
| BEGRI65-1 | 7 | 2026-08-30 11:42:06 | 2026-08-30 13:06:15 |
| DL1KLB | 7 | 2026-08-30 12:52:28 | 2026-08-30 13:05:28 |
| DJ3KS | 6 | 2026-08-30 11:15:38 | 2026-08-30 11:37:01 |
| DO2KSM | 6 | 2026-08-30 12:42:57 | 2026-08-30 12:56:16 |
| DJTTGO | 5 | 2026-08-30 11:45:17 | 2026-08-30 12:44:25 |
| KANTATE | 5 | 2026-08-30 11:50:16 | 2026-08-30 12:44:32 |
| HTAHTA | 4 | 2026-08-30 12:16:56 | 2026-08-30 12:44:53 |
| SSTOLZ84 | 3 | 2026-08-30 11:56:13 | 2026-08-30 12:31:56 |
| DK7TD | 3 | 2026-08-30 12:16:35 | 2026-08-30 12:16:59 |
| DO9LL-15 | 2 | 2026-08-30 12:52:45 | 2026-08-30 13:04:28 |
| HEMX73-6 | 1 | 2026-08-30 11:07:13 | 2026-08-30 11:07:13 |
| Receiver | Date | Latitude | Longitude | Direction | Speed | Altitude | Climb | Temperature | Humidity | Pressure | Voltage | Killtimer | Uptime | BKT | XDATA |
|---|---|---|---|---|---|---|---|---|---|---|---|---|---|---|---|
| DB0ND-19 | 2026-08-30 13:19:19 | 50.03211 | 8.84027 | 39° | 22km/h | 240m | -7.1m/s | 24.8°C | 41.6% | 990.5hPa | 2.7V | 00:00:00 | 00:00:00 | 00:00:00 | |
| DL1ZP-14 | 2026-08-30 13:18:52 | 50.03206 | 8.84021 | 40° | 22km/h | 247m | -6.6m/s | 24.7°C | 41.8% | 989.5hPa | 2.7V | 00:00:00 | 00:00:00 | 00:00:00 | |
| DB0UT-7 | 2026-08-30 13:18:45 | 50.03171 | 8.83994 | 29° | 33km/h | 293m | -9.1m/s | 23.7°C | 42.4% | 984.8hPa | 2.6V | 00:00:00 | 00:00:00 | 00:00:00 | |
| DB0UT-7 | 2026-08-30 13:18:40 | 50.03136 | 8.83964 | 31° | 33km/h | 334m | -6.1m/s | 23.3°C | 43.4% | 980.1hPa | 2.6V | 02:28:00 | 02:48:25 | 00:00:00 | |
| DB0UT-7 | 2026-08-30 13:18:35 | 50.03100 | 8.83924 | 41° | 40km/h | 371m | -7.4m/s | 22.7°C | 44.4% | 976.0hPa | 2.7V | 00:00:00 | 00:00:00 | 00:00:00 | |
| DB0UT-9 | 2026-08-30 13:18:34 | 50.03100 | 8.83924 | 41° | 37km/h | 371m | -7.5m/s | 22.8°C | 45.0% | 976.0hPa | 2.7V | 00:00:00 | 00:00:00 | 00:00:00 | |
| DL1ZP-14 | 2026-08-30 13:18:21 | 50.03005 | 8.83793 | 48° | 37km/h | 478m | -9.2m/s | 21.6°C | 48.0% | 964.2hPa | 2.7V | 00:00:00 | 00:00:00 | 00:00:00 | |
| DB0ND-19 | 2026-08-30 13:18:17 | 50.02975 | 8.83731 | 52° | 40km/h | 521m | -8.3m/s | 21.3°C | 48.7% | 959.2hPa | 2.6V | 00:00:00 | 00:00:00 | 00:00:00 | |
| DF7PN | 2026-08-30 13:18:14 | 50.02962 | 8.83705 | 51° | 40km/h | 539m | -8.4m/s | 21.1°C | 49.1% | 957.4hPa | 2.6V | 00:00:00 | 00:00:00 | 00:00:00 | |
| DB0UT-7 | 2026-08-30 13:18:13 | 50.02956 | 8.83693 | 50° | 40km/h | 548m | -9.1m/s | 21.0°C | 48.4% | 956.0hPa | 2.6V | 00:00:00 | 02:47:58 | 00:00:00 | |
| DB0UT-7 | 2026-08-30 13:18:08 | 50.02926 | 8.83630 | 57° | 38km/h | 590m | -9.4m/s | 20.6°C | 49.8% | 951.5hPa | 2.6V | 02:29:00 | 00:00:00 | 00:00:00 | |
| DB0UT-9 | 2026-08-30 13:18:05 | 50.02916 | 8.83603 | 63° | 40km/h | 606m | -7.3m/s | 20.5°C | 51.1% | 949.9hPa | 2.7V | 02:29:00 | 00:00:00 | 00:00:00 | |
| DB0UT-7 | 2026-08-30 13:18:03 | 50.02901 | 8.83562 | 62° | 40km/h | 631m | -7.7m/s | 20.2°C | 51.0% | 947.2hPa | 2.7V | 00:00:00 | 02:47:48 | 00:00:00 | |
| DL1ZP-14 | 2026-08-30 13:17:50 | 50.02841 | 8.83387 | 61° | 40km/h | 727m | -8.4m/s | 19.3°C | 53.8% | 936.4hPa | 2.7V | 00:00:00 | 00:00:00 | 00:00:00 | |
| DB0ND-19 | 2026-08-30 13:17:46 | 50.02818 | 8.83319 | 64° | 38km/h | 770m | -8.7m/s | 18.8°C | 54.6% | 932.1hPa | 2.7V | 00:00:00 | 00:00:00 | 00:00:00 | |
| DF7PN | 2026-08-30 13:17:43 | 50.02810 | 8.83293 | 60° | 35km/h | 788m | -9.0m/s | 18.7°C | 55.5% | 930.0hPa | 2.7V | 00:00:00 | 00:00:00 | 00:00:00 | |
| DB0UT-7 | 2026-08-30 13:17:41 | 50.02801 | 8.83267 | 62° | 37km/h | 806m | -7.2m/s | 18.5°C | 55.4% | 927.8hPa | 2.7V | 00:00:00 | 02:47:26 | 00:00:00 | |
| DB0UT-7 | 2026-08-30 13:17:36 | 50.02780 | 8.83203 | 62° | 35km/h | 844m | -7.3m/s | 18.1°C | 56.4% | 923.7hPa | 2.7V | 02:29:00 | 00:00:00 | 00:00:00 | |
| DB0UT-7 | 2026-08-30 13:17:31 | 50.02761 | 8.83141 | 64° | 37km/h | 885m | -8.2m/s | 17.7°C | 58.0% | 919.6hPa | 2.7V | 00:00:00 | 02:47:16 | 00:00:00 | |
| DB0UT-9 | 2026-08-30 13:17:29 | 50.02757 | 8.83128 | 65° | 35km/h | 893m | -7.2m/s | 17.7°C | 58.7% | 918.4hPa | 2.7V | 02:30:00 | 00:00:00 | 00:00:00 | |
| DB0UT-7 | 2026-08-30 13:17:26 | 50.02740 | 8.83078 | 60° | 37km/h | 924m | -7.1m/s | 17.3°C | 59.0% | 915.1hPa | 2.7V | 00:00:00 | 00:00:00 | 00:00:00 | |
| DB0UT-7 | 2026-08-30 13:17:21 | 50.02717 | 8.83017 | 60° | 35km/h | 959m | -7.7m/s | 16.9°C | 60.1% | 911.0hPa | 2.7V | 02:29:00 | 02:47:06 | 00:00:00 | |
| DL1ZP-14 | 2026-08-30 13:17:19 | 50.02708 | 8.82992 | 62° | 35km/h | 974m | -6.3m/s | 16.9°C | 61.3% | 909.6hPa | 2.6V | 00:00:00 | 00:00:00 | 00:00:00 | |
| DB0UT-7 | 2026-08-30 13:17:16 | 50.02696 | 8.82956 | 64° | 37km/h | 995m | -6.8m/s | 16.6°C | 60.9% | 907.5hPa | 2.7V | 00:00:00 | 00:00:00 | 00:00:00 | |
| DB0ND-19 | 2026-08-30 13:17:15 | 50.02688 | 8.82930 | 63° | 37km/h | 1009m | -6.2m/s | 16.5°C | 60.1% | 905.8hPa | 2.7V | 00:00:00 | 00:00:00 | 00:00:00 | |
| DF7PN | 2026-08-30 13:17:12 | 50.02679 | 8.82904 | 58° | 37km/h | 1022m | -7.3m/s | 16.3°C | 60.6% | 904.5hPa | 2.7V | 00:00:00 | 00:00:00 | 00:00:00 | |
| DB0UT-9 | 2026-08-30 13:17:09 | 50.02669 | 8.82878 | 63° | 37km/h | 1037m | -7.4m/s | 16.2°C | 62.3% | 903.0hPa | 2.7V | 02:30:00 | 00:00:00 | 00:00:00 | |
| DB0UT-7 | 2026-08-30 13:17:09 | 50.02665 | 8.82865 | 64° | 37km/h | 1044m | -6.6m/s | 16.1°C | 62.9% | 902.1hPa | 2.7V | 00:00:00 | 02:46:54 | 00:00:00 | |
| DL1ZP-14 | 2026-08-30 13:16:48 | 50.02572 | 8.82590 | 63° | 38km/h | 1201m | -8.7m/s | 14.6°C | 66.3% | 885.6hPa | 2.7V | 00:00:00 | 00:00:00 | 00:00:00 | |
| DB0ND-19 | 2026-08-30 13:16:44 | 50.02550 | 8.82523 | 60° | 38km/h | 1240m | -7.8m/s | 14.2°C | 67.2% | 881.9hPa | 2.7V | 00:00:00 | 00:00:00 | 00:00:00 | |
| DF7PN | 2026-08-30 13:16:41 | 50.02541 | 8.82495 | 60° | 38km/h | 1256m | -8.3m/s | 14.1°C | 67.6% | 880.0hPa | 2.7V | 00:00:00 | 00:00:00 | 00:00:00 | |
| DB0UT-7 | 2026-08-30 13:16:35 | 50.02516 | 8.82412 | 65° | 37km/h | 1303m | -7.5m/s | 13.6°C | 68.2% | 875.2hPa | 2.7V | 00:00:00 | 00:00:00 | 00:00:00 | |
| DL9SK-14 | 2026-08-30 13:16:31 | 50.02500 | 8.82358 | 66° | 37km/h | 1333m | -6.9m/s | 13.4°C | 69.6% | 872.1hPa | 2.7V | 00:00:00 | 00:00:00 | 00:00:00 | |
| DB0UT-7 | 2026-08-30 13:16:18 | 50.02448 | 8.82183 | 65° | 37km/h | 1440m | -6.9m/s | 12.3°C | 72.4% | 861.0hPa | 2.7V | 02:30:00 | 02:46:03 | 00:00:00 | |
| DL1ZP-14 | 2026-08-30 13:16:17 | 50.02444 | 8.82169 | 67° | 38km/h | 1447m | -8.5m/s | 12.3°C | 72.8% | 860.3hPa | 2.7V | 00:00:00 | 00:00:00 | 00:00:00 | |
| DB0UT-9 | 2026-08-30 13:16:13 | 50.02432 | 8.82129 | 65° | 35km/h | 1473m | -9.0m/s | 12.1°C | 74.5% | 857.7hPa | 2.7V | 02:31:00 | 00:00:00 | 00:00:00 | |
| DB0ND-19 | 2026-08-30 13:16:13 | 50.02424 | 8.82104 | 64° | 37km/h | 1490m | -7.8m/s | 11.9°C | 74.4% | 855.9hPa | 2.7V | 00:00:00 | 00:00:00 | 00:00:00 | |
| DF7PN | 2026-08-30 13:16:10 | 50.02416 | 8.82077 | 65° | 35km/h | 1505m | -7.6m/s | 11.8°C | 74.9% | 854.2hPa | 2.7V | 00:00:00 | 00:00:00 | 00:00:00 | |
| DB0UT-7 | 2026-08-30 13:16:08 | 50.02409 | 8.82051 | 70° | 38km/h | 1522m | -9.0m/s | 11.6°C | 74.9% | 852.6hPa | 2.7V | 00:00:00 | 00:00:00 | 00:00:00 | |
| DL9SK-14 | 2026-08-30 13:16:00 | 50.02375 | 8.81944 | 62° | 38km/h | 1590m | -8.0m/s | 11.0°C | 76.5% | 845.6hPa | 2.7V | 00:00:00 | 00:00:00 | 00:00:00 | |
| DL1ZP-14 | 2026-08-30 13:15:46 | 50.02316 | 8.81749 | 62° | 40km/h | 1702m | -6.8m/s | 10.0°C | 78.2% | 834.3hPa | 2.7V | 00:00:00 | 00:00:00 | 00:00:00 | |
| DB0ND-19 | 2026-08-30 13:15:42 | 50.02294 | 8.81679 | 63° | 38km/h | 1736m | -6.5m/s | 9.6°C | 81.3% | 830.9hPa | 2.6V | 00:00:00 | 00:00:00 | 00:00:00 | |
| DB0NH | 2026-08-30 13:15:41 | 50.02294 | 8.81679 | 64° | 40km/h | 1736m | -6.5m/s | 9.5°C | 81.1% | 830.9hPa | 2.6V | 02:31:00 | 02:45:26 | 00:00:00 | |
| DF7PN | 2026-08-30 13:15:39 | 50.02284 | 8.81650 | 62° | 40km/h | 1751m | -7.9m/s | 9.4°C | 82.5% | 829.7hPa | 2.7V | 00:00:00 | 00:00:00 | 00:00:00 | |
| DB0UT-7 | 2026-08-30 13:15:38 | 50.02279 | 8.81636 | 62° | 40km/h | 1759m | -8.4m/s | 9.3°C | 81.7% | 828.8hPa | 2.7V | 00:00:00 | 02:45:23 | 00:00:00 | |
| DB0UT-9 | 2026-08-30 13:15:31 | 50.02249 | 8.81553 | 61° | 42km/h | 1802m | -7.0m/s | 8.9°C | 84.3% | 824.5hPa | 2.7V | 00:00:00 | 00:00:00 | 00:00:00 | |
| DB0NH | 2026-08-30 13:15:31 | 50.02244 | 8.81539 | 62° | 42km/h | 1810m | -7.9m/s | 8.8°C | 83.4% | 823.7hPa | 2.7V | 00:00:00 | 02:45:16 | 00:00:00 | |
| DL9SK-14 | 2026-08-30 13:15:29 | 50.02234 | 8.81511 | 61° | 42km/h | 1825m | -7.1m/s | 8.8°C | 81.2% | 822.3hPa | 2.7V | 00:00:00 | 00:00:00 | 00:00:00 | |
| DB0UT-7 | 2026-08-30 13:15:28 | 50.02229 | 8.81497 | 59° | 42km/h | 1832m | -5.5m/s | 8.7°C | 78.6% | 821.6hPa | 2.7V | 00:00:00 | 00:00:00 | 00:00:00 | |
| DK5PH-5 | 2026-08-30 13:15:27 | 50.02223 | 8.81482 | 61° | 42km/h | 1838m | -7.1m/s | 8.6°C | 80.0% | 821.0hPa | 2.7V | 00:00:00 | 02:45:12 | 00:00:00 | |
| DB0NH | 2026-08-30 13:15:21 | 50.02192 | 8.81395 | 63° | 42km/h | 1882m | -7.1m/s | 8.3°C | 79.4% | 816.5hPa | 2.7V | 00:00:00 | 02:45:06 | 00:00:00 | |
| DB0UT-7 | 2026-08-30 13:15:18 | 50.02177 | 8.81351 | 61° | 42km/h | 1905m | -8.0m/s | 8.1°C | 80.3% | 814.4hPa | 2.7V | 02:31:00 | 02:45:03 | 00:00:00 | |
| DK5PH-5 | 2026-08-30 13:15:17 | 50.02171 | 8.81336 | 64° | 44km/h | 1913m | -7.7m/s | 8.0°C | 79.7% | 813.5hPa | 2.7V | 02:31:00 | 02:45:02 | 00:00:00 | |
| DL1ZP-14 | 2026-08-30 13:15:15 | 50.02162 | 8.81307 | 59° | 42km/h | 1928m | -7.4m/s | 7.9°C | 81.0% | 812.2hPa | 2.7V | 00:00:00 | 00:00:00 | 00:00:00 | |
| DB0UT-9 | 2026-08-30 13:15:11 | 50.02147 | 8.81263 | 62° | 42km/h | 1950m | -7.1m/s | 7.7°C | 83.1% | 809.9hPa | 2.6V | 00:00:00 | 00:00:00 | 00:00:00 | |
| DB0NH | 2026-08-30 13:15:11 | 50.02142 | 8.81248 | 63° | 44km/h | 1957m | -6.9m/s | 7.6°C | 83.6% | 809.2hPa | 2.6V | 02:31:00 | 02:44:56 | 00:00:00 | |
| DB0ND-19 | 2026-08-30 13:15:11 | 50.02136 | 8.81232 | 63° | 44km/h | 1964m | -7.2m/s | 7.5°C | 83.3% | 808.6hPa | 2.6V | 00:00:00 | 00:00:00 | 00:00:00 | |
| DF7PN | 2026-08-30 13:15:08 | 50.02126 | 8.81201 | 63° | 44km/h | 1979m | -8.0m/s | 7.4°C | 84.2% | 807.1hPa | 2.6V | 00:00:00 | 00:00:00 | 00:00:00 | |
| DB0UT-7 | 2026-08-30 13:15:08 | 50.02126 | 8.81201 | 64° | 46km/h | 1980m | -8.0m/s | 7.3°C | 84.2% | 807.0hPa | 2.6V | 00:00:00 | 00:00:00 | 00:00:00 | |
| DK5PH-5 | 2026-08-30 13:15:07 | 50.02122 | 8.81186 | 65° | 44km/h | 1988m | -7.9m/s | 7.3°C | 84.4% | 806.3hPa | 2.6V | 00:00:00 | 02:44:52 | 00:00:00 | |
| DL9SK-14 | 2026-08-30 13:14:58 | 50.02081 | 8.81044 | 67° | 44km/h | 2059m | -8.0m/s | 6.8°C | 82.3% | 799.3hPa | 2.6V | 00:00:00 | 00:00:00 | 00:00:00 | |
| DK5PH-5 | 2026-08-30 13:14:57 | 50.02076 | 8.81028 | 68° | 46km/h | 2067m | -6.8m/s | 6.7°C | 82.2% | 798.4hPa | 2.6V | 00:00:00 | 02:44:42 | 00:00:00 | |
| DB0UT-9 | 2026-08-30 13:14:50 | 50.02048 | 8.80929 | 69° | 47km/h | 2115m | -8.4m/s | 6.4°C | 81.6% | 793.8hPa | 2.6V | 02:32:00 | 00:00:00 | 00:00:00 | |
| DB0UT-7 | 2026-08-30 13:14:49 | 50.02040 | 8.80893 | 71° | 46km/h | 2131m | -8.0m/s | 6.4°C | 79.3% | 792.2hPa | 2.6V | 00:00:00 | 02:44:34 | 00:00:00 | |
| DL1ZP-14 | 2026-08-30 13:14:44 | 50.02021 | 8.80806 | 71° | 46km/h | 2172m | -8.3m/s | 6.5°C | 72.2% | 788.2hPa | 2.6V | 00:00:00 | 00:00:00 | 00:00:00 | |
| DB0ND-19 | 2026-08-30 13:14:40 | 50.02003 | 8.80720 | 73° | 44km/h | 2212m | -8.4m/s | 6.8°C | 58.2% | 784.3hPa | 2.7V | 00:00:00 | 00:00:00 | 00:00:00 | |
| DK5PH-5 | 2026-08-30 13:14:37 | 50.01996 | 8.80686 | 72° | 44km/h | 2230m | -8.6m/s | 7.3°C | 45.9% | 782.5hPa | 2.7V | 02:32:00 | 02:44:22 | 00:00:00 | |
| DB0UT-9 | 2026-08-30 13:14:30 | 50.01977 | 8.80583 | 75° | 46km/h | 2277m | -8.3m/s | 7.7°C | 36.1% | 778.2hPa | 2.7V | 02:32:00 | 00:00:00 | 00:00:00 | |
| DB0UT-7 | 2026-08-30 13:14:29 | 50.01971 | 8.80550 | 73° | 40km/h | 2292m | -7.9m/s | 7.9°C | 31.3% | 776.5hPa | 2.7V | 02:32:00 | 00:00:00 | 00:00:00 | |
| DL9SK-14 | 2026-08-30 13:14:27 | 50.01965 | 8.80518 | 75° | 40km/h | 2308m | -7.8m/s | 8.1°C | 28.3% | 775.1hPa | 2.7V | 00:00:00 | 00:00:00 | 00:00:00 | |
| DB0NH | 2026-08-30 13:14:20 | 50.01946 | 8.80407 | 75° | 38km/h | 2367m | -8.5m/s | 7.7°C | 27.5% | 769.5hPa | 2.7V | 02:32:00 | 02:44:05 | 00:00:00 | |
| DK5PH-5 | 2026-08-30 13:14:17 | 50.01938 | 8.80361 | 73° | 38km/h | 2392m | -8.3m/s | 7.7°C | 25.4% | 767.2hPa | 2.7V | 00:00:00 | 02:44:02 | 00:00:00 | |
| DL1ZP-14 | 2026-08-30 13:14:14 | 50.01926 | 8.80302 | 74° | 40km/h | 2424m | -8.5m/s | 8.0°C | 20.5% | 764.3hPa | 2.7V | 00:00:00 | 00:00:00 | 00:00:00 | |
| DL0LBS | 2026-08-30 13:14:11 | 50.01924 | 8.80287 | 74° | 38km/h | 2432m | -7.5m/s | 8.0°C | 20.0% | 763.5hPa | 2.7V | 02:33:00 | 00:00:00 | 00:00:00 | |
| DB0UT-7 | 2026-08-30 13:14:09 | 50.01916 | 8.80243 | 75° | 38km/h | 2458m | -8.8m/s | 7.9°C | 18.9% | 761.1hPa | 2.7V | 00:00:00 | 02:43:54 | 00:00:00 | |
| DB0UT-9 | 2026-08-30 13:14:08 | 50.01916 | 8.80243 | 75° | 40km/h | 2458m | -8.9m/s | 8.0°C | 19.0% | 761.2hPa | 2.7V | 02:33:00 | 00:00:00 | 00:00:00 | |
| DF7PN | 2026-08-30 13:14:06 | 50.01908 | 8.80200 | 72° | 37km/h | 2481m | -8.0m/s | 7.9°C | 19.8% | 759.0hPa | 2.7V | 00:00:00 | 00:00:00 | 00:00:00 | |
| NBG1-10 | 2026-08-30 13:14:05 | 50.01905 | 8.80186 | 76° | 38km/h | 2490m | -7.8m/s | 7.7°C | 20.4% | 758.1hPa | 2.7V | 00:00:00 | 02:43:50 | 00:00:00 | |
| DL9SK-14 | 2026-08-30 13:13:56 | 50.01880 | 8.80042 | 74° | 38km/h | 2567m | -7.9m/s | 7.2°C | 24.1% | 751.1hPa | 2.7V | 00:00:00 | 00:00:00 | 00:00:00 | |
| DB0UT-7 | 2026-08-30 13:13:49 | 50.01865 | 8.79954 | 75° | 40km/h | 2617m | -8.8m/s | 6.7°C | 24.0% | 746.6hPa | 2.7V | 00:00:00 | 00:00:00 | 00:00:00 | |
| DL0LBS | 2026-08-30 13:13:48 | 50.01865 | 8.79954 | 76° | 38km/h | 2617m | -8.8m/s | 6.7°C | 24.0% | 746.7hPa | 2.7V | 02:33:00 | 00:00:00 | 00:00:00 | |
| DB0UT-9 | 2026-08-30 13:13:47 | 50.01863 | 8.79940 | 77° | 38km/h | 2626m | -7.6m/s | 6.7°C | 24.2% | 746.1hPa | 2.7V | 02:33:00 | 00:00:00 | 00:00:00 | |
| DL1ZP-14 | 2026-08-30 13:13:42 | 50.01847 | 8.79852 | 74° | 37km/h | 2673m | -8.2m/s | 6.3°C | 24.0% | 741.9hPa | 2.7V | 00:00:00 | 00:00:00 | 00:00:00 | |
| DB0NH | 2026-08-30 13:13:40 | 50.01842 | 8.79822 | 76° | 40km/h | 2689m | -7.8m/s | 6.1°C | 23.8% | 740.3hPa | 2.6V | 00:00:00 | 02:43:25 | 00:00:00 | |
| DK5PH-5 | 2026-08-30 13:13:37 | 50.01834 | 8.79777 | 75° | 40km/h | 2712m | -7.4m/s | 5.9°C | 24.0% | 738.0hPa | 2.6V | 02:33:00 | 02:43:22 | 00:00:00 | |
| DF7PN | 2026-08-30 13:13:35 | 50.01828 | 8.79747 | 71° | 38km/h | 2727m | -7.6m/s | 5.9°C | 24.1% | 736.8hPa | 2.6V | 00:00:00 | 00:00:00 | 00:00:00 | |
| DB0UT-7 | 2026-08-30 13:13:29 | 50.01810 | 8.79656 | 73° | 44km/h | 2773m | -7.2m/s | 5.5°C | 24.1% | 732.6hPa | 2.6V | 02:33:00 | 02:43:14 | 00:00:00 | |
| DL0LBS | 2026-08-30 13:13:27 | 50.01807 | 8.79640 | 73° | 40km/h | 2780m | -7.9m/s | 5.5°C | 24.2% | 732.0hPa | 2.7V | 02:33:00 | 00:00:00 | 00:00:00 | |
| DB0UT-9 | 2026-08-30 13:13:26 | 50.01804 | 8.79625 | 74° | 42km/h | 2788m | -8.2m/s | 5.4°C | 24.3% | 731.1hPa | 2.7V | 02:33:00 | 00:00:00 | 00:00:00 | |
| DL9SK-14 | 2026-08-30 13:13:25 | 50.01795 | 8.79578 | 73° | 40km/h | 2811m | -7.0m/s | 5.2°C | 24.6% | 729.1hPa | 2.7V | 00:00:00 | 00:00:00 | 00:00:00 | |
| NBG1-10 | 2026-08-30 13:13:24 | 50.01795 | 8.79578 | 74° | 44km/h | 2811m | -7.0m/s | 5.1°C | 24.7% | 729.0hPa | 2.7V | 00:00:00 | 02:43:09 | 00:00:00 | |
| DB0NH | 2026-08-30 13:13:20 | 50.01783 | 8.79517 | 72° | 42km/h | 2841m | -7.5m/s | 4.9°C | 24.7% | 726.3hPa | 2.7V | 02:33:00 | 02:43:05 | 00:00:00 | |
| DK5PH-5 | 2026-08-30 13:13:17 | 50.01774 | 8.79471 | 72° | 42km/h | 2863m | -8.1m/s | 4.8°C | 24.3% | 724.5hPa | 2.7V | 00:00:00 | 02:43:02 | 00:00:00 | |
| DL1ZP-14 | 2026-08-30 13:13:11 | 50.01753 | 8.79362 | 75° | 40km/h | 2918m | -6.6m/s | 4.3°C | 24.5% | -1.0hPa | 2.7V | 00:00:00 | 00:00:00 | 00:00:00 | |
| DL0LBS | 2026-08-30 13:13:07 | 50.01748 | 8.79331 | 77° | 42km/h | 2932m | -7.3m/s | 4.3°C | 24.5% | 718.5hPa | 2.7V | 02:34:00 | 00:00:00 | 00:00:00 | |
| DB0ND-19 | 2026-08-30 13:13:06 | 50.01743 | 8.79299 | 73° | 40km/h | 2947m | -7.0m/s | 4.1°C | 24.5% | 717.2hPa | 2.7V | 00:00:00 | 00:00:00 | 00:00:00 | |
| DF7PN | 2026-08-30 13:13:04 | 50.01737 | 8.79267 | 74° | 44km/h | 2963m | -7.9m/s | 4.0°C | 24.4% | 715.9hPa | 2.7V | 00:00:00 | 00:00:00 | 00:00:00 | |
| DB0NH | 2026-08-30 13:13:00 | 50.01725 | 8.79201 | 75° | 46km/h | 2994m | -8.0m/s | 3.7°C | 24.2% | 713.3hPa | 2.7V | 00:00:00 | 02:42:45 | 00:00:00 | |
| DK5PH-5 | 2026-08-30 13:12:57 | 50.01717 | 8.79149 | 77° | 46km/h | 3016m | -7.2m/s | 3.6°C | 24.4% | 711.1hPa | 2.7V | 00:00:00 | 02:42:42 | 00:00:00 | |
| NBG1-10 | 2026-08-30 13:12:54 | 50.01709 | 8.79097 | 78° | 46km/h | 3038m | -7.1m/s | 3.5°C | 23.8% | 709.2hPa | 2.7V | 02:34:00 | 02:42:39 | 00:00:00 | |
| DB0UT-7 | 2026-08-30 13:12:47 | 50.01687 | 8.78978 | 73° | 46km/h | 3085m | -6.7m/s | 3.6°C | 19.0% | 705.0hPa | 2.7V | 00:00:00 | 00:00:00 | 00:00:00 | |
| DL0LBS | 2026-08-30 13:12:46 | 50.01687 | 8.78978 | 74° | 46km/h | 3085m | -6.8m/s | 3.7°C | 19.0% | 705.1hPa | 2.7V | 02:34:00 | 00:00:00 | 00:00:00 | |
| DL1ZP-14 | 2026-08-30 13:12:40 | 50.01661 | 8.78841 | 73° | 46km/h | 3141m | -6.3m/s | 3.8°C | -1.0% | -1.0hPa | 2.7V | 00:00:00 | 00:00:00 | 00:00:00 | |
| DB0ND-19 | 2026-08-30 13:12:35 | 50.01647 | 8.78775 | 69° | 42km/h | 3169m | -7.1m/s | 3.7°C | 13.3% | 697.7hPa | 2.7V | 00:00:00 | 00:00:00 | 00:00:00 | |
| DB0NH | 2026-08-30 13:12:33 | 50.01640 | 8.78743 | 70° | 44km/h | 3184m | -7.6m/s | 3.5°C | 13.1% | 696.5hPa | 2.7V | 00:00:00 | 02:42:18 | 00:00:00 | |
| NBG1-10 | 2026-08-30 13:12:32 | 50.01636 | 8.78726 | 71° | 46km/h | 3192m | -7.1m/s | 3.5°C | 13.1% | 695.9hPa | 2.7V | 00:00:00 | 02:42:17 | 00:00:00 | |
| DK5PH-5 | 2026-08-30 13:12:27 | 50.01616 | 8.78640 | 71° | 44km/h | 3226m | -7.0m/s | 3.3°C | 12.5% | 692.9hPa | 2.7V | 02:34:00 | 02:42:12 | 00:00:00 | |
| DL0LBS | 2026-08-30 13:12:25 | 50.01612 | 8.78623 | 72° | 46km/h | 3233m | -6.7m/s | 3.3°C | 12.1% | 692.4hPa | 2.7V | 02:35:00 | 00:00:00 | 00:00:00 | |
| DL9SK-14 | 2026-08-30 13:12:23 | 50.01598 | 8.78557 | 72° | 44km/h | 3259m | -6.5m/s | 3.2°C | 11.7% | 690.3hPa | 2.7V | 00:00:00 | 00:00:00 | 00:00:00 | |
| DB0UT-7 | 2026-08-30 13:12:17 | 50.01581 | 8.78475 | 72° | 44km/h | 3294m | -7.0m/s | 3.0°C | 11.5% | 687.3hPa | 2.7V | 00:00:00 | 02:42:02 | 00:00:00 | |
| DM0DOS-11 | 2026-08-30 13:12:09 | 50.01503 | 8.78045 | 77° | 44km/h | 3481m | -7.5m/s | 2.9°C | 5.8% | 671.3hPa | 2.7V | 02:35:18 | 02:41:36 | 00:00:00 | |
| DL1ZP-14 | 2026-08-30 13:12:09 | 50.01550 | 8.78324 | 75° | 42km/h | 3352m | -6.1m/s | 3.1°C | 10.4% | 682.1hPa | 2.6V | 00:00:00 | 00:00:00 | 00:00:00 | |
| NBG1-10 | 2026-08-30 13:12:07 | 50.01547 | 8.78308 | 74° | 42km/h | 3359m | -7.1m/s | 3.1°C | 10.0% | 681.6hPa | 2.7V | 00:00:00 | 02:41:52 | 00:00:00 | |
| DB0UT-9 | 2026-08-30 13:12:06 | 50.01547 | 8.78308 | 75° | 42km/h | 3359m | -7.2m/s | 3.2°C | 10.0% | 681.7hPa | 2.7V | 00:00:00 | 00:00:00 | 00:00:00 | |
| DL0LBS | 2026-08-30 13:12:04 | 50.01540 | 8.78276 | 74° | 44km/h | 3372m | -7.6m/s | 3.2°C | 9.7% | 680.5hPa | 2.7V | 02:35:00 | 00:00:00 | 00:00:00 | |
| DB0NH | 2026-08-30 13:12:03 | 50.01534 | 8.78244 | 78° | 44km/h | 3385m | -6.1m/s | 3.2°C | 9.1% | 679.4hPa | 2.7V | 02:35:00 | 02:41:48 | 00:00:00 | |
| DF7PN | 2026-08-30 13:12:02 | 50.01529 | 8.78212 | 76° | 42km/h | 3400m | -9.0m/s | 3.2°C | 8.5% | 678.2hPa | 2.7V | 00:00:00 | 00:00:00 | 00:00:00 | |
| DM0DOS-11 | 2026-08-30 13:11:57 | 50.01490 | 8.77963 | 74° | 42km/h | 3519m | -7.4m/s | 2.7°C | 5.1% | 668.4hPa | 2.7V | 02:35:23 | 02:41:31 | 00:00:00 | |
| DL9SK-14 | 2026-08-30 13:11:52 | 50.01503 | 8.78045 | 77° | 44km/h | 3481m | -7.5m/s | 2.9°C | 5.8% | 671.4hPa | 2.7V | 00:00:00 | 00:00:00 | 00:00:00 | |
| DB0UT-7 | 2026-08-30 13:11:47 | 50.01493 | 8.77979 | 76° | 42km/h | 3511m | -7.7m/s | 2.6°C | 5.7% | 668.9hPa | 2.7V | 02:35:00 | 00:00:00 | 00:00:00 | |
| DM0DOS-11 | 2026-08-30 13:11:45 | 50.01477 | 8.77882 | 75° | 42km/h | 3555m | -7.7m/s | 2.7°C | 11.7% | 665.3hPa | 2.6V | 02:35:28 | 02:41:26 | 00:00:00 | |
| DL0LBS | 2026-08-30 13:11:44 | 50.01488 | 8.77947 | 76° | 44km/h | 3526m | -7.8m/s | 2.7°C | 4.7% | 667.7hPa | 2.7V | 02:35:00 | 00:00:00 | 00:00:00 | |
| DM0DOS-11 | 2026-08-30 13:11:38 | 50.01464 | 8.77800 | 76° | 42km/h | 3593m | -7.3m/s | 2.5°C | 12.6% | 662.2hPa | 2.7V | 02:35:33 | 02:41:21 | 00:00:00 | |
| DM7RM-13 | 2026-08-30 13:11:37 | 50.01469 | 8.77833 | 77° | 42km/h | 3579m | -7.9m/s | 2.6°C | 13.2% | 663.4hPa | 2.6V | 02:36:00 | 00:00:00 | 00:00:00 | |
| NBG1-10 | 2026-08-30 13:11:34 | 50.01459 | 8.77767 | 78° | 44km/h | 3608m | -7.6m/s | 2.4°C | 11.7% | 661.0hPa | 2.6V | 02:35:00 | 02:41:19 | 00:00:00 | |
| DM0DOS-11 | 2026-08-30 13:11:33 | 50.01451 | 8.77718 | 73° | 44km/h | 3630m | -7.3m/s | 2.3°C | 12.8% | 659.3hPa | 2.7V | 02:35:38 | 02:41:16 | 00:00:00 | |
| DB0NH | 2026-08-30 13:11:33 | 50.01457 | 8.77751 | 75° | 44km/h | 3616m | -7.9m/s | 2.4°C | 10.5% | 660.4hPa | 2.7V | 00:00:00 | 02:41:18 | 00:00:00 | |
| DF7PN | 2026-08-30 13:11:31 | 50.01448 | 8.77702 | 72° | 42km/h | 3638m | -8.5m/s | 2.3°C | 12.2% | 658.6hPa | 2.7V | 00:00:00 | 00:00:00 | 00:00:00 | |
| DM0DOS-11 | 2026-08-30 13:11:28 | 50.01435 | 8.77636 | 75° | 44km/h | 3670m | -7.5m/s | 2.1°C | 12.1% | 656.2hPa | 2.7V | 02:35:43 | 02:41:11 | 00:00:00 | |
| DK5PH-5 | 2026-08-30 13:11:27 | 50.01438 | 8.77652 | 75° | 46km/h | 3662m | -7.3m/s | 2.1°C | 11.8% | 656.7hPa | 2.6V | 00:00:00 | 02:41:12 | 00:00:00 | |
| DL0LBS | 2026-08-30 13:11:25 | 50.01432 | 8.77619 | 78° | 42km/h | 3678m | -7.2m/s | 2.1°C | 12.2% | 655.6hPa | 2.6V | 02:36:00 | 00:00:00 | 00:00:00 | |
| DM0DOS-11 | 2026-08-30 13:11:22 | 50.01423 | 8.77553 | 75° | 46km/h | 3708m | -8.6m/s | 2°C | 11.2% | 653.1hPa | 2.6V | 02:35:48 | 02:41:06 | 00:00:00 | |
| BIOWL1-15 | 2026-08-30 13:11:21 | 50.01416 | 8.77518 | 75° | 46km/h | 3724m | -7.2m/s | 2°C | 9.6% | 651.9hPa | 2.7V | 02:36:15 | 02:41:04 | 00:00:00 | |
| DL9SK-14 | 2026-08-30 13:11:21 | 50.01419 | 8.77535 | 74° | 46km/h | 3716m | -8.1m/s | 2.0°C | 9.9% | 652.5hPa | 2.6V | 00:00:00 | 00:00:00 | 00:00:00 | |
| DM0DOS-11 | 2026-08-30 13:11:17 | 50.01407 | 8.77467 | 74° | 47km/h | 3746m | -7.2m/s | 1.9°C | 9.6% | 649.8hPa | 2.6V | 02:35:53 | 02:41:01 | 00:00:00 | |
| DM7RM-13 | 2026-08-30 13:11:15 | 50.01407 | 8.77467 | 75° | 47km/h | 3746m | -7.2m/s | 1.9°C | 9.5% | 649.8hPa | 2.7V | 02:36:00 | 00:00:00 | 00:00:00 | |
| DM0DOS-11 | 2026-08-30 13:11:12 | 50.01393 | 8.77381 | 75° | 44km/h | 3783m | -7.3m/s | 1.9°C | 6.7% | 647hPa | 2.7V | 02:35:58 | 02:40:56 | 00:00:00 | |
| BIOWL1-15 | 2026-08-30 13:11:10 | 50.01390 | 8.77364 | 75° | 46km/h | 3791m | -8m/s | 1.8°C | 5.1% | 646.3hPa | 2.6V | 02:36:15 | 02:40:55 | 00:00:00 | |
| DM0DOS-11 | 2026-08-30 13:11:07 | 50.01379 | 8.77295 | 75° | 46km/h | 3822m | -7.8m/s | 1.8°C | 4.3% | 643.9hPa | 2.7V | 02:36:03 | 02:40:51 | 00:00:00 | |
| DL1ZP-14 | 2026-08-30 13:11:06 | 50.01379 | 8.77295 | 75° | 46km/h | 3821m | -7.8m/s | 1.8°C | 4.3% | 643.9hPa | 2.7V | 00:00:00 | 00:00:00 | 00:00:00 | |
| DB0UT-7 | 2026-08-30 13:11:05 | 50.01376 | 8.77277 | 78° | 47km/h | 3830m | -8.0m/s | 1.7°C | 4.4% | 643.2hPa | 2.7V | 00:00:00 | 02:40:50 | 00:00:00 | |
| DL0LBS | 2026-08-30 13:11:04 | 50.01376 | 8.77277 | 78° | 47km/h | 3830m | -8.0m/s | 1.8°C | 4.4% | 643.3hPa | 2.7V | 02:36:00 | 00:00:00 | 00:00:00 | |
| DM0DOS-11 | 2026-08-30 13:11:01 | 50.01366 | 8.77207 | 76° | 46km/h | 3861m | -8m/s | 1.6°C | 6.6% | 640.7hPa | 2.7V | 02:36:08 | 02:40:46 | 00:00:00 | |
| DM0DOS-11 | 2026-08-30 13:11:01 | 50.01352 | 8.77118 | 74° | 46km/h | 3899m | -6.3m/s | 1.3°C | 7% | 637.6hPa | 2.6V | 02:36:13 | 02:40:41 | 00:00:00 | |
| BIOWL1-15 | 2026-08-30 13:10:59 | 50.01360 | 8.77172 | 77° | 46km/h | 3876m | -7.8m/s | 1.4°C | 6.3% | 639.6hPa | 2.7V | 02:36:15 | 02:40:44 | 00:00:00 | |
| BIOWL9-15 | 2026-08-30 13:10:59 | 50.01357 | 8.77153 | 76° | 47km/h | 3884m | -8.4m/s | 1.4°C | 7.3% | 638.7hPa | 2.6V | 00:00:00 | 00:00:00 | 00:00:00 | |
| DK5PH-5 | 2026-08-30 13:10:57 | 50.01354 | 8.77136 | 75° | 49km/h | 3892m | -7.6m/s | 1.3°C | 7.3% | 638.2hPa | 2.6V | 02:36:00 | 02:40:42 | 00:00:00 | |
| DM0DOS-11 | 2026-08-30 13:10:55 | 50.01337 | 8.77029 | 76° | 47km/h | 3936m | -7.6m/s | 1.1°C | 5.9% | 634.6hPa | 2.6V | 02:36:18 | 02:40:36 | 00:00:00 | |
| BIOWL1-15 | 2026-08-30 13:10:48 | 50.01328 | 8.76973 | 75° | 49km/h | 3959m | -7m/s | 0.9°C | 4.7% | 632.9hPa | 2.7V | 02:37:06 | 02:40:33 | 00:00:00 | |
| DM0DOS-11 | 2026-08-30 13:10:47 | 50.01322 | 8.76937 | 76° | 47km/h | 3973m | -6.6m/s | 0.8°C | 8.2% | 631.9hPa | 2.7V | 02:36:23 | 02:40:31 | 00:00:00 | |
| DL0LBS | 2026-08-30 13:10:43 | 50.01316 | 8.76899 | 76° | 47km/h | 3987m | -6.8m/s | 0.7°C | 9.1% | 630.7hPa | 2.7V | 02:37:00 | 00:00:00 | 00:00:00 | |
| DB0UT-9 | 2026-08-30 13:10:42 | 50.01312 | 8.76880 | 76° | 51km/h | 3994m | -7.6m/s | 0.6°C | 8.9% | 630.1hPa | 2.7V | 02:37:00 | 00:00:00 | 00:00:00 | |
| DM0DOS-11 | 2026-08-30 13:10:41 | 50.01303 | 8.76824 | 76° | 49km/h | 4016m | -7.6m/s | 0.5°C | 7.8% | 628.3hPa | 2.7V | 02:36:29 | 02:40:25 | 00:00:00 | |
| BIOWL1-15 | 2026-08-30 13:10:40 | 50.01298 | 8.76787 | 76° | 47km/h | 4031m | -7.9m/s | 0.4°C | 9.4% | 627.1hPa | 2.6V | 02:37:06 | 02:40:23 | 00:00:00 | |
| BIOWL7-15 | 2026-08-30 13:10:38 | 50.01300 | 8.76805 | 79° | 47km/h | 4024m | -7.4m/s | 0.4°C | 8.9% | 627.7hPa | 2.6V | 00:00:00 | 00:00:00 | 00:00:00 | |
| DB0UT-7 | 2026-08-30 13:10:35 | 50.01289 | 8.76730 | 78° | 49km/h | 4055m | -7.7m/s | 0.2°C | 7.2% | 625.1hPa | 2.6V | 00:00:00 | 00:00:00 | 00:00:00 | |
| DM7RM-13 | 2026-08-30 13:10:34 | 50.01289 | 8.76730 | 79° | 49km/h | 4055m | -7.7m/s | 0.3°C | 7.1% | 625.2hPa | 2.6V | 02:37:00 | 00:00:00 | 00:00:00 | |
| DB0NH | 2026-08-30 13:10:33 | 50.01284 | 8.76692 | 78° | 49km/h | 4070m | -8.4m/s | 0.1°C | 7.1% | 624.0hPa | 2.6V | 02:36:00 | 02:40:18 | 00:00:00 | |
| DB0ND-19 | 2026-08-30 13:10:31 | 50.01279 | 8.76654 | 78° | 47km/h | 4086m | -7.3m/s | 0.1°C | 7.2% | 622.8hPa | 2.7V | 00:00:00 | 00:00:00 | 00:00:00 | |
| DM0DOS-11 | 2026-08-30 13:10:28 | 50.01261 | 8.76545 | 74° | 47km/h | 4134m | -7.9m/s | -0.2°C | 6.7% | 619hPa | 2.7V | 02:36:44 | 02:40:10 | 00:00:00 | |
| BIOWL1-15 | 2026-08-30 13:10:27 | 50.01247 | 8.76452 | 77° | 47km/h | 4175m | -8.8m/s | -0.4°C | 6.8% | 616hPa | 2.6V | 02:37:06 | 02:40:05 | 00:00:00 | |
| DK5PH-5 | 2026-08-30 13:10:27 | 50.01267 | 8.76582 | 76° | 49km/h | 4117m | -8.4m/s | -0.0°C | 5.9% | 620.4hPa | 2.6V | 00:00:00 | 02:40:12 | 00:00:00 | |
| DL0LBS | 2026-08-30 13:10:22 | 50.01255 | 8.76508 | 77° | 49km/h | 4150m | -8.4m/s | -0.3°C | 7.0% | 617.9hPa | 2.6V | 02:37:00 | 00:00:00 | 00:00:00 | |
| DM0DOS-11 | 2026-08-30 13:10:21 | 50.01247 | 8.76452 | 77° | 47km/h | 4175m | -8.8m/s | -0.4°C | 7.3% | 616hPa | 2.6V | 02:36:49 | 02:40:05 | 00:00:00 | |
| BIOWL1-15 | 2026-08-30 13:10:17 | 50.01232 | 8.76360 | 78° | 47km/h | 4217m | -8.3m/s | -0.7°C | 8.5% | 612.7hPa | 2.6V | 02:37:06 | 02:40:00 | 00:00:00 | |
| DM0DOS-11 | 2026-08-30 13:10:15 | 50.01232 | 8.76360 | 78° | 47km/h | 4217m | -8.3m/s | -0.7°C | 8.4% | 612.7hPa | 2.6V | 02:36:54 | 02:40:00 | 00:00:00 | |
| DM0DOS-11 | 2026-08-30 13:10:15 | 50.01219 | 8.76268 | 76° | 49km/h | 4259m | -8.8m/s | -1°C | 12.5% | 609.4hPa | 2.6V | 02:36:59 | 02:39:55 | 00:00:00 | |
| DM7RM-13 | 2026-08-30 13:10:13 | 50.01230 | 8.76341 | 78° | 49km/h | 4225m | -7.4m/s | -0.8°C | 8.8% | 612.1hPa | 2.6V | 02:37:00 | 00:00:00 | 00:00:00 | |
| DM0DOS-11 | 2026-08-30 13:10:10 | 50.01206 | 8.76174 | 80° | 47km/h | 4298m | -7.2m/s | -1.2°C | 11.1% | 606.5hPa | 2.6V | 02:37:04 | 02:39:50 | 00:00:00 | |
| DM0DOS-11 | 2026-08-30 13:10:05 | 50.01194 | 8.76079 | 78° | 49km/h | 4337m | -8.8m/s | -1.6°C | 10.4% | 603.5hPa | 2.7V | 02:37:09 | 02:39:45 | 00:00:00 | |
| BIOWL1-15 | 2026-08-30 13:10:04 | 50.01204 | 8.76156 | 79° | 49km/h | 4306m | -8.3m/s | -1.3°C | 12.1% | 605.9hPa | 2.6V | 02:37:06 | 02:39:49 | 00:00:00 | |
| DB0NH | 2026-08-30 13:10:03 | 50.01201 | 8.76137 | 80° | 51km/h | 4314m | -7.5m/s | -1.3°C | 11.0% | 605.1hPa | 2.7V | 00:00:00 | 02:39:48 | 00:00:00 | |
| DL0LBS | 2026-08-30 13:10:02 | 50.01201 | 8.76137 | 80° | 49km/h | 4314m | -7.6m/s | -1.4°C | 10.8% | 605.2hPa | 2.7V | 02:37:00 | 00:00:00 | 00:00:00 | |
| DB0ND-19 | 2026-08-30 13:10:01 | 50.01194 | 8.76079 | 78° | 47km/h | 4337m | -8.9m/s | -1.6°C | 10.2% | 603.5hPa | 2.7V | 00:00:00 | 00:00:00 | 00:00:00 | |
| DM0DOS-11 | 2026-08-30 13:09:57 | 50.01182 | 8.75983 | 79° | 51km/h | 4379m | -8.4m/s | -1.8°C | 9.3% | 600.2hPa | 2.7V | 02:37:14 | 02:39:40 | 00:00:00 | |
| BIOWL1-15 | 2026-08-30 13:09:57 | 50.01177 | 8.75944 | 79° | 53km/h | 4394m | -7m/s | -1.9°C | 10% | 599.1hPa | 2.6V | 02:37:57 | 02:39:38 | 00:00:00 | |
| BIOWL9-15 | 2026-08-30 13:09:56 | 50.01185 | 8.76003 | 79° | 49km/h | 4370m | -8.5m/s | -1.8°C | 9.0% | 600.9hPa | 2.7V | 00:00:00 | 00:00:00 | 00:00:00 | |
| NBG1-10 | 2026-08-30 13:09:55 | 50.01182 | 8.75983 | 80° | 53km/h | 4379m | -8.4m/s | -1.8°C | 9.3% | 0hPa | 2.7V | 02:37:00 | 02:39:40 | 00:00:00 | |
| DM7RM-13 | 2026-08-30 13:09:53 | 50.01180 | 8.75964 | 78° | 51km/h | 4386m | -7.2m/s | -1.9°C | 9.2% | 599.7hPa | 2.7V | 02:37:00 | 00:00:00 | 00:00:00 | |
| DM0DOS-11 | 2026-08-30 13:09:51 | 50.01169 | 8.75883 | 79° | 53km/h | 4417m | -7.4m/s | -2°C | 10.1% | 597.4hPa | 2.7V | 02:37:19 | 02:39:35 | 00:00:00 | |
| DL9SK-14 | 2026-08-30 13:09:47 | 50.01161 | 8.75822 | 77° | 51km/h | 4440m | -8.2m/s | -2.2°C | 10.7% | 595.6hPa | 2.7V | 00:00:00 | 00:00:00 | 00:00:00 | |
| DM0DOS-11 | 2026-08-30 13:09:45 | 50.01155 | 8.75782 | 78° | 53km/h | 4457m | -9m/s | -2.3°C | 10.9% | 594.4hPa | 2.7V | 02:37:24 | 02:39:30 | 00:00:00 | |
| DD1CC8 | 2026-08-30 13:09:45 | 50.01155 | 8.75782 | 78° | 53km/h | 4457m | -9.0m/s | -2.3°C | 10.7% | 594.4hPa | 2.7V | 00:00:00 | 00:00:00 | 00:00:00 | |
| BIOWL1-15 | 2026-08-30 13:09:43 | 50.01150 | 8.75741 | 78° | 53km/h | 4475m | -7.9m/s | -2.4°C | 12.2% | 593hPa | 2.7V | 02:37:57 | 02:39:28 | 00:00:00 | |
| DM0DOS-11 | 2026-08-30 13:09:40 | 50.01141 | 8.75682 | 77° | 53km/h | 4502m | -9.6m/s | -2.6°C | 11.2% | 591.1hPa | 2.6V | 02:37:29 | 02:39:25 | 00:00:00 | |
| DM0DOS-11 | 2026-08-30 13:09:40 | 50.01126 | 8.75582 | 76° | 51km/h | 4544m | -8.2m/s | -2.6°C | 6.5% | 587.9hPa | 2.6V | 02:37:34 | 02:39:20 | 00:00:00 | |
| BIOWL1-15 | 2026-08-30 13:09:32 | 50.01116 | 8.75524 | 76° | 51km/h | 4570m | -8.9m/s | -2.7°C | 5.2% | 586.1hPa | 2.7V | 02:37:57 | 02:39:17 | 00:00:00 | |
| DM0DOS-11 | 2026-08-30 13:09:30 | 50.01110 | 8.75484 | 75° | 51km/h | 4586m | -8.6m/s | -2.8°C | 5.9% | 584.8hPa | 2.6V | 02:37:39 | 02:39:15 | 00:00:00 | |
| DB0UT-7 | 2026-08-30 13:09:29 | 50.01107 | 8.75465 | 76° | 53km/h | 4594m | -6.8m/s | -2.8°C | 6.1% | 584.1hPa | 2.6V | 00:00:00 | 00:00:00 | 00:00:00 | |
| DK5PH-5 | 2026-08-30 13:09:27 | 50.01101 | 8.75426 | 78° | 53km/h | 4609m | -7.9m/s | -2.9°C | 6.2% | 583.1hPa | 2.6V | 02:37:00 | 02:39:12 | 00:00:00 | |
| BIOWL9-15 | 2026-08-30 13:09:26 | 50.01094 | 8.75387 | 75° | 51km/h | 4624m | -7.6m/s | -3.0°C | 6.1% | 582.0hPa | 2.6V | 00:00:00 | 00:00:00 | 00:00:00 | |
| NBG1-10 | 2026-08-30 13:09:22 | 50.01084 | 8.75327 | 76° | 55km/h | 4648m | -7.6m/s | 0°C | 0% | 0hPa | 2.6V | 00:00:00 | 02:39:07 | 00:00:00 | |
| DM0DOS-11 | 2026-08-30 13:09:21 | 50.01076 | 8.75270 | 79° | 49km/h | 4671m | -6.9m/s | -3.3°C | 5.9% | 578.5hPa | 2.6V | 02:37:50 | 02:39:04 | 00:00:00 | |
| BIOWL1-15 | 2026-08-30 13:09:21 | 50.01081 | 8.75308 | 76° | 49km/h | 4655m | -7.5m/s | -3.1°C | 4.8% | 579.8hPa | 2.6V | 02:37:57 | 02:39:06 | 00:00:00 | |
| DB0UT-9 | 2026-08-30 13:09:20 | 50.01081 | 8.75308 | 77° | 49km/h | 4656m | -7.5m/s | -3.1°C | 5.7% | 579.8hPa | 2.6V | 02:37:00 | 00:00:00 | 00:00:00 | |
| DF1GD-15 | 2026-08-30 13:09:19 | 50.01078 | 8.75289 | 79° | 49km/h | 4663m | -8.3m/s | -3.2°C | 5.7% | 579.2hPa | 2.6V | 00:00:00 | 00:00:00 | 00:00:00 | |
| DM0DOS-11 | 2026-08-30 13:09:15 | 50.01064 | 8.75172 | 78° | 53km/h | 4711m | -8.4m/s | -3.5°C | 5.4% | 575.7hPa | 2.6V | 02:37:55 | 02:38:59 | 00:00:00 | |
| BIOWL1-15 | 2026-08-30 13:09:10 | 50.01053 | 8.75091 | 78° | 53km/h | 4745m | -7.8m/s | -3.5°C | 2.2% | 573.4hPa | 2.6V | 02:38:48 | 02:38:55 | 00:00:00 | |
| DM0DOS-11 | 2026-08-30 13:09:09 | 50.01051 | 8.75070 | 78° | 53km/h | 4752m | -8m/s | -3.5°C | 4.2% | 572.8hPa | 2.6V | 02:38:00 | 02:38:54 | 00:00:00 | |
| DM0DOS-11 | 2026-08-30 13:09:09 | 50.01038 | 8.74967 | 78° | 53km/h | 4791m | -7.5m/s | -3.8°C | 4.1% | 569.9hPa | 2.6V | 02:38:05 | 02:38:49 | 00:00:00 | |
| DB0NH | 2026-08-30 13:09:03 | 50.01035 | 8.74946 | 80° | 57km/h | 4798m | -7.4m/s | -3.8°C | 4.1% | 569.5hPa | 2.6V | 02:38:00 | 02:38:48 | 00:00:00 | |
| DL1ZP-14 | 2026-08-30 13:09:02 | 50.01032 | 8.74925 | 80° | 55km/h | 4806m | -7.9m/s | 0°C | -1.0% | -1.0hPa | 2.6V | 00:00:00 | 00:00:00 | 00:00:00 | |
| DM0DOS-11 | 2026-08-30 13:09:01 | 50.01022 | 8.74839 | 78° | 57km/h | 4837m | -8.1m/s | -4°C | 4.4% | 566.7hPa | 2.6V | 02:38:11 | 02:38:43 | 00:00:00 | |
| BIOWL1-15 | 2026-08-30 13:08:59 | 50.01022 | 8.74839 | 78° | 57km/h | 4837m | -8.1m/s | -4°C | 2.6% | 566.7hPa | 2.6V | 02:38:48 | 02:38:43 | 00:00:00 | |
| DB0ND-19 | 2026-08-30 13:08:58 | 50.01022 | 8.74839 | 78° | 55km/h | 4837m | -8.1m/s | -4.0°C | 4.2% | 566.7hPa | 2.6V | 00:00:00 | 00:00:00 | 00:00:00 | |
| DF7PN | 2026-08-30 13:08:55 | 50.01013 | 8.74773 | 78° | 58km/h | 4859m | -7.3m/s | -4.1°C | 4.4% | 565.1hPa | 2.6V | 00:00:00 | 00:00:00 | 00:00:00 | |
| BIOWL9-15 | 2026-08-30 13:08:54 | 50.01010 | 8.74750 | 79° | 58km/h | 4867m | -7.7m/s | -4.2°C | 4.4% | 564.5hPa | 2.6V | 00:00:00 | 00:00:00 | 00:00:00 | |
| DM0DOS-11 | 2026-08-30 13:08:53 | 50.00991 | 8.74618 | 76° | 57km/h | 4915m | -7.7m/s | -4.5°C | 5.5% | 561.1hPa | 2.6V | 02:38:21 | 02:38:33 | 00:00:00 | |
| DM7RM-13 | 2026-08-30 13:08:51 | 50.01004 | 8.74705 | 78° | 57km/h | 4883m | -7.6m/s | -4.3°C | 4.8% | 563.4hPa | 2.6V | 02:38:00 | 00:00:00 | 00:00:00 | |
| NBG1-10 | 2026-08-30 13:08:49 | 50.00995 | 8.74640 | 78° | 58km/h | 4907m | -8.2m/s | 0°C | 0% | 0hPa | 2.6V | 00:00:00 | 02:38:34 | 00:00:00 | |
| DM0DOS-11 | 2026-08-30 13:08:48 | 50.00976 | 8.74509 | 78° | 58km/h | 4955m | -9.2m/s | -4.8°C | 6.3% | 558.2hPa | 2.6V | 02:38:26 | 02:38:28 | 00:00:00 | |
| BIOWL1-15 | 2026-08-30 13:08:48 | 50.00992 | 8.74618 | 76° | 57km/h | 4915m | -7.7m/s | -4.5°C | 4.4% | 561.1hPa | 2.6V | 02:38:48 | 02:38:33 | 00:00:00 | |
| DL9SK-14 | 2026-08-30 13:08:45 | 50.00982 | 8.74553 | 76° | 55km/h | 4937m | -8.3m/s | -4.7°C | 6.0% | 559.4hPa | 2.6V | 00:00:00 | 00:00:00 | 00:00:00 | |
| DD1CC8 | 2026-08-30 13:08:43 | 50.00976 | 8.74509 | 78° | 58km/h | 4955m | -9.2m/s | -4.9°C | 6.1% | 558.2hPa | 2.6V | 00:00:00 | 00:00:00 | 00:00:00 | |
| DM0DOS-11 | 2026-08-30 13:08:41 | 50.00961 | 8.74397 | 78° | 60km/h | 4995m | -8.2m/s | -5.2°C | 5.8% | 555.3hPa | 2.6V | 02:38:31 | 02:38:23 | 00:00:00 | |
| BIOWL1-15 | 2026-08-30 13:08:40 | 50.00961 | 8.74397 | 79° | 60km/h | 4995m | -8.2m/s | -5.2°C | 5% | 555.3hPa | 2.6V | 02:38:48 | 02:38:23 | 00:00:00 | |
| DB0UT-9 | 2026-08-30 13:08:39 | 50.00967 | 8.74442 | 79° | 58km/h | 4980m | -7.6m/s | -5.1°C | 5.7% | 556.4hPa | 2.6V | 02:38:00 | 00:00:00 | 00:00:00 | |
| DF1GD-15 | 2026-08-30 13:08:36 | 50.00958 | 8.74374 | 78° | 58km/h | 5003m | -8.3m/s | -5.3°C | 5.5% | 554.7hPa | 2.6V | 02:38:00 | 00:00:00 | 00:00:00 | |
| DM0DOS-11 | 2026-08-30 13:08:31 | 50.00941 | 8.74238 | 79° | 57km/h | 5052m | -7.5m/s | -5.7°C | 5.2% | 551.2hPa | 2.6V | 02:38:38 | 02:38:16 | 00:00:00 | |
| DB0UT-7 | 2026-08-30 13:08:29 | 50.00935 | 8.74193 | 78° | 58km/h | 5068m | -8.5m/s | -5.8°C | 4.7% | 550.1hPa | 2.6V | 02:38:00 | 00:00:00 | 00:00:00 | |
| DK5PH-5 | 2026-08-30 13:08:27 | 50.00929 | 8.74149 | 79° | 58km/h | 5086m | -8.2m/s | -5.9°C | 4.9% | 549.0hPa | 2.6V | 00:00:00 | 02:38:12 | 00:00:00 | |
| DM0DOS-11 | 2026-08-30 13:08:26 | 50.00912 | 8.74016 | 77° | 57km/h | 5136m | -7.7m/s | -6.4°C | 8.6% | 545.5hPa | 2.6V | 02:38:48 | 02:38:06 | 00:00:00 | |
| BIOWL1-15 | 2026-08-30 13:08:21 | 50.00907 | 8.73971 | 79° | 58km/h | 5151m | -7.7m/s | -6.6°C | 9.6% | 544.5hPa | 2.6V | 02:39:39 | 02:38:04 | 00:00:00 | |
| DL0LBS | 2026-08-30 13:08:19 | 50.00909 | 8.73993 | 82° | 57km/h | 5144m | -7.7m/s | -6.5°C | 8.5% | 545.0hPa | 2.6V | 02:39:00 | 00:00:00 | 00:00:00 | |
| DB0UT-9 | 2026-08-30 13:08:18 | 50.00907 | 8.73971 | 80° | 58km/h | 5151m | -7.7m/s | -6.6°C | 8.6% | 544.5hPa | 2.6V | 02:39:00 | 00:00:00 | 00:00:00 | |
| NBG1-10 | 2026-08-30 13:08:16 | 50.00899 | 8.73903 | 81° | 58km/h | 5176m | -8.2m/s | 0°C | 0% | 0hPa | 2.6V | 00:00:00 | 02:38:01 | 00:00:00 | |
| DF1GD-15 | 2026-08-30 13:08:15 | 50.00899 | 8.73903 | 81° | 60km/h | 5176m | -8.2m/s | -6.8°C | 8.8% | 542.7hPa | 2.6V | 02:39:00 | 00:00:00 | 00:00:00 | |
| DL9SK-14 | 2026-08-30 13:08:14 | 50.00894 | 8.73858 | 81° | 57km/h | 5193m | -10.7m/s | -6.9°C | 8.9% | 541.6hPa | 2.6V | 00:00:00 | 00:00:00 | 00:00:00 | |
| DM0DOS-11 | 2026-08-30 13:08:11 | 50.00887 | 8.73791 | 79° | 57km/h | 5219m | -7.7m/s | -7.2°C | 9.8% | 539.8hPa | 2.6V | 02:38:58 | 02:37:56 | 00:00:00 | |
| BIOWL1-15 | 2026-08-30 13:08:09 | 50.00848 | 8.73437 | 80° | 57km/h | 5347m | -8.4m/s | -8.4°C | 9.5% | 530.9hPa | 2.6V | 02:39:39 | 02:37:40 | 00:00:00 | |
| DM0DOS-11 | 2026-08-30 13:08:01 | 50.00862 | 8.73570 | 79° | 57km/h | 5301m | -8.2m/s | -8°C | 9.3% | 534hPa | 2.6V | 02:39:08 | 02:37:46 | 00:00:00 | |
| DL1ZP-14 | 2026-08-30 13:08:00 | 50.00859 | 8.73548 | 80° | 57km/h | 5309m | -6.9m/s | -8.0°C | 8.8% | 533.5hPa | 2.6V | 00:00:00 | 00:00:00 | 00:00:00 | |
| DB0UT-7 | 2026-08-30 13:07:59 | 50.00857 | 8.73526 | 82° | 58km/h | 5316m | -7.5m/s | -8.0°C | 9.0% | 533.0hPa | 2.5V | 00:00:00 | 02:37:44 | 00:00:00 | |
| DL0LBS | 2026-08-30 13:07:58 | 50.00857 | 8.73526 | 82° | 58km/h | 5316m | -7.6m/s | -8.1°C | 8.6% | 533.0hPa | 2.5V | 02:39:00 | 00:00:00 | 00:00:00 | |
| DK5PH-5 | 2026-08-30 13:07:57 | 50.00853 | 8.73481 | 82° | 58km/h | 5331m | -8.0m/s | -8.2°C | 8.8% | 531.8hPa | 2.5V | 02:39:00 | 02:37:42 | 00:00:00 | |
| DM0DOS-11 | 2026-08-30 13:07:56 | 50.00840 | 8.73349 | 80° | 57km/h | 5380m | -9m/s | -8.6°C | 9.1% | 528.6hPa | 2.5V | 02:39:18 | 02:37:36 | 00:00:00 | |
| DF7PN | 2026-08-30 13:07:53 | 50.00844 | 8.73393 | 81° | 57km/h | 5363m | -8.2m/s | -8.5°C | 8.4% | 529.8hPa | 2.5V | 00:00:00 | 00:00:00 | 00:00:00 | |
| BIOWL9-15 | 2026-08-30 13:07:52 | 50.00842 | 8.73371 | 81° | 57km/h | 5371m | -8.1m/s | -8.6°C | 8.4% | 529.2hPa | 2.5V | 00:00:00 | 00:00:00 | 00:00:00 | |
| BIOWL1-15 | 2026-08-30 13:07:44 | 50.00823 | 8.73191 | 80° | 60km/h | 5437m | -8.6m/s | -9.1°C | 15.3% | 524.8hPa | 2.5V | 02:39:39 | 02:37:29 | 00:00:00 | |
| DM0DOS-11 | 2026-08-30 13:07:41 | 50.00815 | 8.73122 | 79° | 60km/h | 5462m | -8m/s | -9.3°C | 13.2% | 523.1hPa | 2.6V | 02:39:28 | 02:37:26 | 00:00:00 | |
| BIOWL1-15 | 2026-08-30 13:07:36 | 50.00794 | 8.72962 | 78° | 62km/h | 5532m | -11.4m/s | -9.9°C | 16.9% | 518.6hPa | 2.6V | 02:39:39 | 02:37:19 | 00:00:00 | |
| DF1GD-15 | 2026-08-30 13:07:34 | 50.00797 | 8.72985 | 78° | 58km/h | 5521m | -10.7m/s | -9.9°C | 13.4% | 519.3hPa | 2.5V | 02:39:00 | 00:00:00 | 00:00:00 | |
| DM0DOS-11 | 2026-08-30 13:07:31 | 50.00785 | 8.72892 | 78° | 62km/h | 5562m | -9.2m/s | -10.2°C | 15.1% | 516.4hPa | 2.5V | 02:39:38 | 02:37:16 | 00:00:00 | |
| BIOWL1-15 | 2026-08-30 13:07:22 | 50.00735 | 8.72560 | 75° | 64km/h | 5678m | -7.3m/s | -11.3°C | 18.5% | 508.6hPa | 2.5V | 02:40:30 | 02:37:02 | 00:00:00 | |
| DM0DOS-11 | 2026-08-30 13:07:21 | 50.00750 | 8.72655 | 76° | 64km/h | 5646m | -9.1m/s | -11°C | 16.2% | 510.8hPa | 2.6V | 02:39:48 | 02:37:06 | 00:00:00 | |
| BIOWL1-15 | 2026-08-30 13:07:13 | 50.00703 | 8.72364 | 76° | 66km/h | 5743m | -8.3m/s | -11.8°C | 20.5% | 504.3hPa | 2.5V | 02:40:30 | 02:36:54 | 00:00:00 | |
| DM0DOS-11 | 2026-08-30 13:07:11 | 50.00711 | 8.72413 | 74° | 64km/h | 5727m | -7.7m/s | -11.7°C | 17.4% | 505.4hPa | 2.5V | 02:39:58 | 02:36:56 | 00:00:00 | |
| DD1CC8 | 2026-08-30 13:07:10 | 50.00707 | 8.72389 | 75° | 64km/h | 5735m | -7.9m/s | -11.8°C | 16.7% | 504.9hPa | 2.6V | 00:00:00 | 00:00:00 | 00:00:00 | |
| DB0UT-9 | 2026-08-30 13:07:09 | 50.00707 | 8.72389 | 76° | 64km/h | 5735m | -7.9m/s | -11.8°C | 16.7% | 504.9hPa | 2.6V | 02:40:00 | 00:00:00 | 00:00:00 | |
| DM7RM-13 | 2026-08-30 13:07:08 | 50.00703 | 8.72364 | 77° | 66km/h | 5743m | -8.3m/s | -11.8°C | 16.8% | 504.3hPa | 2.6V | 02:40:00 | 00:00:00 | 00:00:00 | |
| DM0DOS-11 | 2026-08-30 13:07:01 | 50.00669 | 8.72169 | 75° | 66km/h | 5807m | -8.6m/s | -12.4°C | 18.2% | 500.1hPa | 2.6V | 02:40:08 | 02:36:46 | 00:00:00 | |
| BIOWL1-15 | 2026-08-30 13:06:59 | 50.00661 | 8.72119 | 77° | 64km/h | 5823m | -8m/s | -12.5°C | 21.1% | 499hPa | 2.6V | 02:40:30 | 02:36:44 | 00:00:00 | |
| DL1ZP-14 | 2026-08-30 13:06:58 | 50.00653 | 8.72071 | 76° | 64km/h | 5838m | -8.2m/s | -12.7°C | 16.8% | 498.0hPa | 2.5V | 00:00:00 | 00:00:00 | 00:00:00 | |
| DB0ND-19 | 2026-08-30 13:06:54 | 50.00642 | 8.71996 | 76° | 66km/h | 5864m | -8.1m/s | -12.9°C | 16.6% | 496.4hPa | 2.6V | 00:00:00 | 00:00:00 | 00:00:00 | |
| DM0DOS-11 | 2026-08-30 13:06:51 | 50.00630 | 8.71921 | 76° | 66km/h | 5888m | -8.1m/s | -13.1°C | 17.9% | 494.7hPa | 2.6V | 02:40:18 | 02:36:36 | 00:00:00 | |
| BIOWL1-15 | 2026-08-30 13:06:50 | 50.00618 | 8.71846 | 76° | 68km/h | 5912m | -8.3m/s | -13.3°C | 21.2% | 493.2hPa | 2.5V | 02:40:30 | 02:36:33 | 00:00:00 | |
| BIOWL1-15 | 2026-08-30 13:06:39 | 50.00576 | 8.71562 | 77° | 68km/h | 6004m | -7.7m/s | -14°C | 19.1% | 487.2hPa | 2.5V | 02:41:21 | 02:36:22 | 00:00:00 | |
| BIOWL1-15 | 2026-08-30 13:06:26 | 50.00530 | 8.71278 | 76° | 68km/h | 6088m | -8.2m/s | -14.8°C | 18.4% | 481.8hPa | 2.5V | 02:41:21 | 02:36:11 | 00:00:00 | |
| DB0ND-19 | 2026-08-30 13:06:23 | 50.00517 | 8.71200 | 76° | 68km/h | 6113m | -8.9m/s | -14.9°C | 13.7% | 480.3hPa | 2.5V | 00:00:00 | 00:00:00 | 00:00:00 | |
| SFWM-10 | 2026-08-30 13:06:22 | 50.00517 | 8.71200 | 77° | 69km/h | 6113m | -8.9m/s | -14.9°C | 13.7% | 480.3hPa | 2.5V | 02:41:00 | 00:00:00 | 00:00:00 | |
| DM0DOS-11 | 2026-08-30 13:06:20 | 50.00500 | 8.71096 | 76° | 69km/h | 6147m | -8.1m/s | -15.1°C | 13.5% | 478.1hPa | 2.5V | 02:40:50 | 02:36:04 | 00:00:00 | |
| BIOWL1-15 | 2026-08-30 13:06:18 | 50.00488 | 8.71019 | 76° | 69km/h | 6173m | -8.3m/s | -15.3°C | 14.4% | 476.4hPa | 2.6V | 02:41:21 | 02:36:01 | 00:00:00 | |
| DL0LBS | 2026-08-30 13:06:16 | 50.00492 | 8.71045 | 76° | 68km/h | 6165m | -9.1m/s | -15.2°C | 12.0% | 477.0hPa | 2.5V | 02:41:00 | 00:00:00 | 00:00:00 | |
| BEGRI65-1 | 2026-08-30 13:06:15 | 50.00488 | 8.71019 | 77° | 69km/h | 6173m | -8.3m/s | -15.3°C | 11.9% | 476.4hPa | 2.5V | 02:41:00 | 00:00:00 | 00:00:00 | |
| DH7VM-15 | 2026-08-30 13:06:12 | 50.00475 | 8.70938 | 77° | 71km/h | 6201m | -9.6m/s | -15.5°C | 11.7% | 474.8hPa | 2.5V | 00:00:00 | 00:00:00 | 00:00:00 | |
| DF1GD-15 | 2026-08-30 13:06:11 | 50.00471 | 8.70910 | 78° | 69km/h | 6212m | -10.4m/s | -15.6°C | 11.8% | 474.2hPa | 2.5V | 02:41:00 | 00:00:00 | 00:00:00 | |
| DM0DOS-11 | 2026-08-30 13:06:10 | 50.00458 | 8.70830 | 76° | 71km/h | 6240m | -8.9m/s | -15.9°C | 12.6% | 472.3hPa | 2.5V | 02:41:00 | 02:35:54 | 00:00:00 | |
| BIOWL1-15 | 2026-08-30 13:06:06 | 50.00445 | 8.70750 | 76° | 71km/h | 6268m | -10m/s | -16°C | 14% | 470.6hPa | 2.6V | 02:41:21 | 02:35:51 | 00:00:00 | |
| BIOWL7-15 | 2026-08-30 13:06:02 | 50.00433 | 8.70668 | 78° | 71km/h | 6295m | -8.5m/s | -16.2°C | 12.1% | 468.9hPa | 2.5V | 00:00:00 | 00:00:00 | 00:00:00 | |
| DM0DOS-11 | 2026-08-30 13:05:59 | 50.00417 | 8.70559 | 77° | 71km/h | 6329m | -8.2m/s | -16.4°C | 14.3% | 466.8hPa | 2.5V | 02:41:10 | 02:35:44 | 00:00:00 | |
| BIOWL1-15 | 2026-08-30 13:05:57 | 50.00402 | 8.70450 | 78° | 69km/h | 6362m | -7.7m/s | -16.7°C | 17.2% | 464.6hPa | 2.6V | 02:41:21 | 02:35:40 | 00:00:00 | |
| DL1ZP-14 | 2026-08-30 13:05:56 | 50.00402 | 8.70450 | 78° | 69km/h | 6362m | -7.7m/s | -16.7°C | 14.3% | 464.6hPa | 2.6V | 00:00:00 | 00:00:00 | 00:00:00 | |
| DL0LBS | 2026-08-30 13:05:55 | 50.00406 | 8.70477 | 80° | 69km/h | 6354m | -8.4m/s | -16.6°C | 14.5% | 465.2hPa | 2.5V | 02:41:00 | 00:00:00 | 00:00:00 | |
| DM0DOS-11 | 2026-08-30 13:05:54 | 50.00382 | 8.70288 | 78° | 71km/h | 6408m | -7.8m/s | -16.7°C | 6.1% | 461.9hPa | 2.5V | 02:41:20 | 02:35:34 | 00:00:00 | |
| DB0ND-19 | 2026-08-30 13:05:52 | 50.00392 | 8.70369 | 78° | 69km/h | 6386m | -7.6m/s | -16.7°C | 6.9% | 463.3hPa | 2.5V | 00:00:00 | 00:00:00 | 00:00:00 | |
| BIOWL9-15 | 2026-08-30 13:05:48 | 50.00379 | 8.70260 | 79° | 69km/h | 6415m | -7.5m/s | -16.7°C | 5.1% | 461.3hPa | 2.5V | 00:00:00 | 00:00:00 | 00:00:00 | |
| BIOWL1-15 | 2026-08-30 13:05:44 | 50.00343 | 8.69984 | 78° | 73km/h | 6497m | -9m/s | -17.3°C | 6.6% | 456.4hPa | 2.5V | 02:42:12 | 02:35:23 | 00:00:00 | |
| DM0DOS-11 | 2026-08-30 13:05:44 | 50.00346 | 8.70012 | 79° | 73km/h | 6488m | -9.1m/s | -17.2°C | 6.7% | 456.9hPa | 2.6V | 02:41:30 | 02:35:24 | 00:00:00 | |
| CB1BUN | 2026-08-30 13:05:40 | 50.00353 | 8.70068 | 80° | 73km/h | 6471m | -8.0m/s | -17.1°C | 5.9% | 457.9hPa | 2.6V | 02:42:00 | 00:00:00 | 00:00:00 | |
| DL9SK-14 | 2026-08-30 13:05:39 | 50.00343 | 8.69984 | 78° | 71km/h | 6497m | -9.0m/s | -17.3°C | 6.2% | 456.4hPa | 2.6V | 00:00:00 | 00:00:00 | 00:00:00 | |
| DD1CC8 | 2026-08-30 13:05:37 | 50.00336 | 8.69927 | 79° | 71km/h | 6514m | -8.2m/s | -17.5°C | 6.3% | 455.3hPa | 2.6V | 00:00:00 | 00:00:00 | 00:00:00 | |
| DB0UT-9 | 2026-08-30 13:05:35 | 50.00336 | 8.69927 | 81° | 73km/h | 6514m | -8.2m/s | -17.5°C | 6.3% | 455.3hPa | 2.6V | 02:42:00 | 00:00:00 | 00:00:00 | |
| DM0DOS-11 | 2026-08-30 13:05:34 | 50.00309 | 8.69727 | 79° | 75km/h | 6577m | -9.1m/s | -17.8°C | 6.6% | 451.5hPa | 2.6V | 02:41:40 | 02:35:14 | 00:00:00 | |
| BIOWL1-15 | 2026-08-30 13:05:32 | 50.00313 | 8.69756 | 79° | 75km/h | 6568m | -9.6m/s | -17.8°C | 6.5% | 452.1hPa | 2.6V | 02:42:12 | 02:35:15 | 00:00:00 | |
| DF1GD-15 | 2026-08-30 13:05:30 | 50.00317 | 8.69784 | 79° | 75km/h | 6559m | -8.6m/s | -17.7°C | 6.1% | 452.6hPa | 2.6V | 00:00:00 | 00:00:00 | 00:00:00 | |
| DL1KLB | 2026-08-30 13:05:28 | 50.00309 | 8.69727 | 80° | 75km/h | 6577m | -9.1m/s | -17.8°C | 6.0% | 451.5hPa | 2.6V | 02:42:00 | 00:00:00 | 00:00:00 | |
| DK5PH-5 | 2026-08-30 13:05:27 | 50.00302 | 8.69667 | 79° | 80km/h | 6597m | -9.9m/s | -17.9°C | 6.5% | 450.3hPa | 2.6V | 00:00:00 | 02:35:12 | 00:00:00 | |
| DL1ZP-14 | 2026-08-30 13:05:25 | 50.00290 | 8.69578 | 77° | 77km/h | 6625m | -8.6m/s | -18.1°C | 6.0% | 448.6hPa | 2.6V | 00:00:00 | 00:00:00 | 00:00:00 | |
| DM0DOS-11 | 2026-08-30 13:05:24 | 50.00267 | 8.69429 | 76° | 78km/h | 6670m | -9.7m/s | -18.5°C | 6.6% | 445.8hPa | 2.6V | 02:41:50 | 02:35:04 | 00:00:00 | |
| BIOWL1-15 | 2026-08-30 13:05:22 | 50.00272 | 8.69459 | 76° | 77km/h | 6661m | -8.9m/s | -18.4°C | 6.6% | 446.4hPa | 2.5V | 02:42:12 | 02:35:05 | 00:00:00 | |
| DB0ND-19 | 2026-08-30 13:05:21 | 50.00277 | 8.69489 | 77° | 77km/h | 6652m | -8.8m/s | -18.4°C | 6.0% | 446.9hPa | 2.6V | 00:00:00 | 00:00:00 | 00:00:00 | |
| SFWM-10 | 2026-08-30 13:05:19 | 50.00272 | 8.69459 | 77° | 77km/h | 6661m | -8.9m/s | -18.4°C | 6.0% | 446.4hPa | 2.6V | 00:00:00 | 00:00:00 | 00:00:00 | |
| DF7PN | 2026-08-30 13:05:18 | 50.00263 | 8.69399 | 76° | 78km/h | 6679m | -9.7m/s | -18.6°C | 6.0% | 445.3hPa | 2.6V | 00:00:00 | 00:00:00 | 00:00:00 | |
| BIOWL9-15 | 2026-08-30 13:05:17 | 50.00258 | 8.69369 | 76° | 77km/h | 6689m | -9.6m/s | -18.6°C | 6.0% | 444.7hPa | 2.6V | 00:00:00 | 00:00:00 | 00:00:00 | |
| DM0DOS-11 | 2026-08-30 13:05:14 | 50.00220 | 8.69127 | 74° | 78km/h | 6760m | -9.6m/s | -19.1°C | 7.4% | 440.6hPa | 2.6V | 02:42:00 | 02:34:54 | 00:00:00 | |
| BIOWL1-15 | 2026-08-30 13:05:09 | 50.00220 | 8.69127 | 75° | 78km/h | 6760m | -9.6m/s | -19.1°C | 7.7% | 440.6hPa | 2.6V | 02:42:12 | 02:34:54 | 00:00:00 | |
| DL9SK-14 | 2026-08-30 13:05:08 | 50.00215 | 8.69096 | 76° | 80km/h | 6768m | -8.0m/s | -19.2°C | 6.7% | 440.0hPa | 2.6V | 00:00:00 | 00:00:00 | 00:00:00 | |
| DD1CC8 | 2026-08-30 13:05:06 | 50.00200 | 8.69005 | 75° | 80km/h | 6795m | -8.3m/s | -19.4°C | 6.6% | 438.5hPa | 2.6V | 00:00:00 | 00:00:00 | 00:00:00 | |
| DM0DOS-11 | 2026-08-30 13:05:01 | 50.00164 | 8.68788 | 73° | 80km/h | 6858m | -9.7m/s | -19.9°C | 6.8% | 434.9hPa | 2.6V | 02:42:11 | 02:34:43 | 00:00:00 | |
| BIOWL1-15 | 2026-08-30 13:05:00 | 50.00164 | 8.68788 | 74° | 80km/h | 6858m | -9.7m/s | -19.9°C | 6.7% | 434.9hPa | 2.6V | 02:42:12 | 02:34:43 | 00:00:00 | |
| BIOWL1-15 | 2026-08-30 13:04:53 | 50.00099 | 8.68386 | 76° | 84km/h | 6968m | -7.7m/s | -20.8°C | 7% | 428.4hPa | 2.5V | 02:43:03 | 02:34:30 | 00:00:00 | |
| DB0ND-19 | 2026-08-30 13:04:50 | 50.00124 | 8.68543 | 77° | 80km/h | 6926m | -8.1m/s | -20.5°C | 6.1% | 430.8hPa | 2.6V | 00:00:00 | 00:00:00 | 00:00:00 | |
| DM0DOS-11 | 2026-08-30 13:04:49 | 50.00114 | 8.68480 | 76° | 84km/h | 6942m | -9.4m/s | -20.6°C | 6.8% | 429.9hPa | 2.6V | 02:42:21 | 02:34:33 | 00:00:00 | |
| DF7PN | 2026-08-30 13:04:47 | 50.00104 | 8.68417 | 76° | 80km/h | 6960m | -7.8m/s | -20.8°C | 6.3% | 428.8hPa | 2.6V | 00:00:00 | 00:00:00 | 00:00:00 | |
| BIOWL9-15 | 2026-08-30 13:04:46 | 50.00104 | 8.68417 | 76° | 80km/h | 6960m | -7.8m/s | -20.8°C | 6.3% | 428.8hPa | 2.6V | 00:00:00 | 00:00:00 | 00:00:00 | |
| HSKMA3-T | 2026-08-30 13:04:38 | 50.00060 | 8.68170 | 74° | 80km/h | 7027m | -7.9m/s | -21.3°C | 7.1% | 424.9hPa | 2.6V | 02:43:03 | 02:34:23 | 00:00:00 | |
| BIOWL1-15 | 2026-08-30 13:04:37 | 50.00043 | 8.68077 | 75° | 80km/h | 7052m | -7.8m/s | -21.5°C | 7.3% | 423.5hPa | 2.5V | 02:43:03 | 02:34:20 | 00:00:00 | |
| DM0DOS-11 | 2026-08-30 13:04:36 | 50.00019 | 8.67955 | 73° | 80km/h | 7086m | -8.3m/s | -21.8°C | 7.4% | 421.6hPa | 2.6V | 02:42:38 | 02:34:16 | 00:00:00 | |
| DL9PN | 2026-08-30 13:04:35 | 50.00043 | 8.68077 | 74° | 80km/h | 7052m | -7.8m/s | -21.5°C | 6.5% | 423.5hPa | 2.5V | 00:00:00 | 00:00:00 | 00:00:00 | |
| DD1CC8 | 2026-08-30 13:04:34 | 50.00037 | 8.68047 | 73° | 80km/h | 7060m | -8.9m/s | -21.6°C | 6.5% | 423.1hPa | 2.5V | 00:00:00 | 00:00:00 | 00:00:00 | |
| DB0UT-9 | 2026-08-30 13:04:33 | 50.00037 | 8.68047 | 74° | 80km/h | 7060m | -8.9m/s | -21.6°C | 6.5% | 423.1hPa | 2.5V | 00:00:00 | 00:00:00 | 00:00:00 | |
| BEGRI65-1 | 2026-08-30 13:04:32 | 50.00031 | 8.68016 | 74° | 82km/h | 7069m | -8.9m/s | -21.6°C | 6.6% | 422.5hPa | 2.5V | 02:43:00 | 00:00:00 | 00:00:00 | |
| DL8DAS-14 | 2026-08-30 13:04:30 | 50.00014 | 8.67924 | 72° | 80km/h | 7094m | -9.2m/s | -21.9°C | 6.6% | 421.1hPa | 2.5V | 00:00:00 | 00:00:00 | 00:00:00 | |
| DO9LL-15 | 2026-08-30 13:04:28 | 50.00001 | 8.67862 | 73° | 99km/h | 7113m | -9.2m/s | -22.0°C | 7.5% | 420.0hPa | 2.5V | 00:00:00 | 02:34:13 | 00:00:00 | |
| DK5PH-5 | 2026-08-30 13:04:27 | 49.99995 | 8.67832 | 73° | 84km/h | 7121m | -8.7m/s | -22.0°C | 7.8% | 419.5hPa | 2.5V | 00:00:00 | 02:34:12 | 00:00:00 | |
| DB0UT-7 | 2026-08-30 13:04:26 | 49.99989 | 8.67801 | 73° | 84km/h | 7130m | -9.6m/s | -22.1°C | 7.8% | 419.0hPa | 2.5V | 00:00:00 | 00:00:00 | 00:00:00 | |
| DM0DOS-11 | 2026-08-30 13:04:25 | 49.99954 | 8.67648 | 69° | 82km/h | 7173m | -7.7m/s | -22.4°C | 7.9% | 416.6hPa | 2.5V | 02:42:48 | 02:34:06 | 00:00:00 | |
| HSKMA3-T | 2026-08-30 13:04:25 | 49.99982 | 8.67770 | 71° | 82km/h | 7139m | -8.5m/s | -22.2°C | 8% | 418.5hPa | 2.6V | 02:43:03 | 02:34:10 | 00:00:00 | |
| BIOWL1-15 | 2026-08-30 13:04:14 | 49.99906 | 8.67432 | 70° | 82km/h | 7235m | -7.4m/s | -22.8°C | 7.4% | 413.2hPa | 2.6V | 02:43:03 | 02:33:59 | 00:00:00 | |
| HSKMA3-T | 2026-08-30 13:04:11 | 49.99886 | 8.67339 | 71° | 84km/h | 7261m | -9.5m/s | -23°C | 7.5% | 411.8hPa | 2.5V | 02:43:03 | 02:33:56 | 00:00:00 | |
| DM0DOS-11 | 2026-08-30 13:04:11 | 49.99879 | 8.67308 | 71° | 84km/h | 7270m | -8.4m/s | -23.1°C | 7.3% | 411.2hPa | 2.5V | 02:42:59 | 02:33:55 | 00:00:00 | |
| DL1KLB | 2026-08-30 13:04:07 | 49.99864 | 8.67246 | 71° | 84km/h | 7287m | -9.1m/s | -23.3°C | 6.6% | 410.3hPa | 2.6V | 02:43:00 | 00:00:00 | 00:00:00 | |
| DL9SK-14 | 2026-08-30 13:04:06 | 49.99842 | 8.67153 | 68° | 82km/h | 7312m | -9.3m/s | -23.5°C | 6.8% | 408.9hPa | 2.6V | 00:00:00 | 00:00:00 | 00:00:00 | |
| DM0DOS-11 | 2026-08-30 13:04:05 | 49.99804 | 8.66997 | 69° | 82km/h | 7355m | -8.1m/s | -23.8°C | 7.8% | 406.4hPa | 2.6V | 02:43:09 | 02:33:45 | 00:00:00 | |
| BIOWL1-15 | 2026-08-30 13:04:03 | 49.99796 | 8.66967 | 69° | 84km/h | 7364m | -10.4m/s | -23.9°C | 8.3% | 406.1hPa | 2.5V | 02:43:54 | 02:33:44 | 00:00:00 | |
| HSKMA3-T | 2026-08-30 13:03:57 | 49.99781 | 8.66904 | 69° | 84km/h | 7383m | -9m/s | -24°C | 8.1% | 404.9hPa | 2.5V | 03:00:54 | 02:33:42 | 00:00:00 | |
| DK5PH-5 | 2026-08-30 13:03:57 | 49.99781 | 8.66904 | 70° | 84km/h | 7383m | -8.9m/s | -24.0°C | 7.8% | 404.9hPa | 2.6V | 00:00:00 | 02:33:42 | 00:00:00 | |
| DB0UT-7 | 2026-08-30 13:03:56 | 49.99773 | 8.66873 | 71° | 84km/h | 7392m | -9.4m/s | -24.0°C | 7.8% | 404.4hPa | 2.6V | 02:43:00 | 02:33:41 | 00:00:00 | |
| DB0UT-9 | 2026-08-30 13:03:52 | 49.99751 | 8.66779 | 71° | 84km/h | 7418m | -9.2m/s | -24.2°C | 6.8% | 403.1hPa | 2.6V | 02:43:00 | 00:00:00 | 00:00:00 | |
| DM0DOS-11 | 2026-08-30 13:03:51 | 49.99729 | 8.66683 | 70° | 88km/h | 7444m | -10.2m/s | -24.4°C | 7.5% | 401.6hPa | 2.6V | 02:43:19 | 02:33:35 | 00:00:00 | |
| BIOWL1-15 | 2026-08-30 13:03:48 | 49.99714 | 8.66618 | 71° | 86km/h | 7462m | -9m/s | -24.5°C | 7.9% | 400.6hPa | 2.6V | 02:43:54 | 02:33:33 | 00:00:00 | |
| DB0ND-19 | 2026-08-30 13:03:48 | 49.99714 | 8.66618 | 70° | 84km/h | 7462m | -9.0m/s | -24.5°C | 6.6% | 400.6hPa | 2.5V | 00:00:00 | 00:00:00 | 00:00:00 | |
| DF1GD-15 | 2026-08-30 13:03:46 | 49.99706 | 8.66587 | 72° | 86km/h | 7471m | -8.5m/s | -24.6°C | 6.7% | 400.0hPa | 2.5V | 02:43:00 | 00:00:00 | 00:00:00 | |
| DM0DOS-11 | 2026-08-30 13:03:45 | 49.99658 | 8.66365 | 72° | 84km/h | 7528m | -9.1m/s | -25°C | 7.9% | 396.8hPa | 2.5V | 02:43:29 | 02:33:25 | 00:00:00 | |
| BIOWL1-15 | 2026-08-30 13:03:38 | 49.99619 | 8.66176 | 72° | 82km/h | 7578m | -7m/s | -25.4°C | 9.2% | 394.1hPa | 2.5V | 02:43:54 | 02:33:19 | 00:00:00 | |
| BIOWL1-15 | 2026-08-30 13:03:26 | 49.99568 | 8.65928 | 71° | 84km/h | 7645m | -9m/s | -25.8°C | 10.3% | 390.4hPa | 2.5V | 02:43:54 | 02:33:11 | 00:00:00 | |
| DB0UT-7 | 2026-08-30 13:03:26 | 49.99568 | 8.65928 | 71° | 84km/h | 7645m | -8.9m/s | -25.8°C | 9.4% | 390.3hPa | 2.5V | 00:00:00 | 00:00:00 | 00:00:00 | |
| DM0DOS-11 | 2026-08-30 13:03:25 | 49.99526 | 8.65746 | 69° | 84km/h | 7697m | -9.3m/s | -26.2°C | 10.8% | 387.5hPa | 2.5V | 02:43:49 | 02:33:05 | 00:00:00 | |
| HSKMA3-T | 2026-08-30 13:03:23 | 49.99547 | 8.65837 | 71° | 80km/h | 7672m | -9m/s | -26°C | 11.2% | 388.8hPa | 2.6V | 03:00:54 | 02:33:08 | 00:00:00 | |
| BIOWL1-15 | 2026-08-30 13:03:15 | 49.99488 | 8.65593 | 68° | 84km/h | 7746m | -8.3m/s | -26.6°C | 13.7% | 384.9hPa | 2.5V | 02:43:54 | 02:33:00 | 00:00:00 | |
| HSKMA3-T | 2026-08-30 13:03:12 | 49.99465 | 8.65502 | 67° | 82km/h | 7773m | -9.1m/s | -26.8°C | 14.7% | 383.5hPa | 2.6V | 03:00:54 | 02:32:57 | 00:00:00 | |
| DM0DOS-11 | 2026-08-30 13:03:11 | 49.99424 | 8.65355 | 67° | 82km/h | 7813m | -7.5m/s | -27.1°C | 14.1% | 381.4hPa | 2.6V | 02:44:02 | 02:32:52 | 00:00:00 | |
| BIOWL1-15 | 2026-08-30 13:03:04 | 49.99399 | 8.65265 | 67° | 84km/h | 7836m | -7.4m/s | -27.3°C | 16.7% | 380.2hPa | 2.5V | 02:44:45 | 02:32:49 | 00:00:00 | |
| DL9PN | 2026-08-30 13:03:02 | 49.99383 | 8.65204 | 68° | 84km/h | 7850m | -7.8m/s | -27.4°C | 13.1% | 379.5hPa | 2.6V | 00:00:00 | 00:00:00 | 00:00:00 | |
| DD1CC8 | 2026-08-30 13:03:01 | 49.99375 | 8.65174 | 66° | 82km/h | 7859m | -9.6m/s | -27.5°C | 13.2% | 379.1hPa | 2.6V | 00:00:00 | 00:00:00 | 00:00:00 | |
| DM0DOS-11 | 2026-08-30 13:02:59 | 49.99334 | 8.65023 | 67° | 84km/h | 7899m | -6.7m/s | -27.8°C | 15.2% | 376.8hPa | 2.6V | 02:44:13 | 02:32:41 | 00:00:00 | |
| BIOWL1-15 | 2026-08-30 13:02:54 | 49.99318 | 8.64963 | 68° | 86km/h | 7912m | -6.3m/s | -27.9°C | 17.9% | 376.1hPa | 2.5V | 02:44:45 | 02:32:39 | 00:00:00 | |
| DL1ZP-14 | 2026-08-30 13:02:49 | 49.99278 | 8.64807 | 69° | 86km/h | 7947m | -7.1m/s | -28.2°C | 14.9% | 374.4hPa | 2.5V | 00:00:00 | 00:00:00 | 00:00:00 | |
| DM0DOS-11 | 2026-08-30 13:02:48 | 49.99232 | 8.64618 | 70° | 84km/h | 7995m | -6.1m/s | -28.6°C | 31.6% | 372hPa | 2.5V | 02:44:26 | 02:32:28 | 00:00:00 | |
| DB0ND-19 | 2026-08-30 13:02:46 | 49.99255 | 8.64713 | 69° | 84km/h | 7969m | -7.3m/s | -28.4°C | 17.3% | 373.3hPa | 2.5V | 00:00:00 | 00:00:00 | 00:00:00 | |
| BIOWL1-15 | 2026-08-30 13:02:44 | 49.99240 | 8.64650 | 70° | 86km/h | 7987m | -8.6m/s | -28.6°C | 28.3% | 372.4hPa | 2.5V | 02:44:45 | 02:32:29 | 00:00:00 | |
| BIOWL1-15 | 2026-08-30 13:02:35 | 49.99161 | 8.64308 | 70° | 84km/h | 8073m | -9m/s | -29.5°C | 46.2% | 368hPa | 2.5V | 02:44:45 | 02:32:18 | 00:00:00 | |
| BIOWL1-15 | 2026-08-30 13:02:22 | 49.99080 | 8.63961 | 71° | 86km/h | 8165m | -8.7m/s | -30.4°C | 51.8% | 363.3hPa | 2.6V | 02:45:36 | 02:32:07 | 00:00:00 | |
| BIOWL1-15 | 2026-08-30 13:02:14 | 49.99007 | 8.63633 | 72° | 91km/h | 8245m | -8.6m/s | -30.8°C | 76.5% | 359.2hPa | 2.5V | 02:45:36 | 02:31:57 | 00:00:00 | |
| DF7PN | 2026-08-30 13:02:12 | 49.99000 | 8.63599 | 71° | 91km/h | 8253m | -8.2m/s | -30.9°C | 72.7% | 358.8hPa | 2.6V | 00:00:00 | 00:00:00 | 00:00:00 | |
| BIOWL9-15 | 2026-08-30 13:02:11 | 49.98993 | 8.63565 | 71° | 89km/h | 8262m | -8.3m/s | -30.9°C | 73.0% | 358.4hPa | 2.6V | 00:00:00 | 00:00:00 | 00:00:00 | |
| DM0DOS-11 | 2026-08-30 13:02:10 | 49.98949 | 8.63362 | 71° | 93km/h | 8308m | -9.5m/s | -31.2°C | 78.4% | 356hPa | 2.6V | 02:45:05 | 02:31:49 | 00:00:00 | |
| BIOWL1-15 | 2026-08-30 13:02:01 | 49.98926 | 8.63259 | 71° | 91km/h | 8335m | -9m/s | -31.5°C | 76.6% | 354.7hPa | 2.5V | 02:45:36 | 02:31:46 | 00:00:00 | |
| BIOWL1-15 | 2026-08-30 13:01:52 | 49.98846 | 8.62885 | 72° | 89km/h | 8415m | -7m/s | -32°C | 76% | 350.6hPa | 2.5V | 02:45:36 | 02:31:35 | 00:00:00 | |
| DM0DOS-11 | 2026-08-30 13:01:49 | 49.98804 | 8.62683 | 72° | 89km/h | 8456m | -7.7m/s | -31.8°C | 79.5% | 348.6hPa | 2.5V | 02:45:25 | 02:31:29 | 00:00:00 | |
| DL1ZP-14 | 2026-08-30 13:01:47 | 49.98825 | 8.62784 | 72° | 89km/h | 8435m | -6.6m/s | -31.9°C | 73.9% | 349.5hPa | 2.6V | 00:00:00 | 00:00:00 | 00:00:00 | |
| BIOWL1-15 | 2026-08-30 13:01:39 | 49.98772 | 8.62517 | 73° | 88km/h | 8492m | -7.1m/s | -31.9°C | 78.3% | 346.7hPa | 2.5V | 02:45:36 | 02:31:24 | 00:00:00 | |
| DM0DOS-11 | 2026-08-30 13:01:37 | 49.98727 | 8.62292 | 72° | 84km/h | 8542m | -7m/s | -32.2°C | 80.7% | 344.4hPa | 2.5V | 02:45:37 | 02:31:17 | 00:00:00 | |
| HSKMA3-T | 2026-08-30 13:01:36 | 49.98753 | 8.62419 | 73° | 86km/h | 8514m | -7.4m/s | -32°C | 78.9% | 345.7hPa | 2.6V | 03:00:54 | 02:31:21 | 00:00:00 | |
| BIOWL1-15 | 2026-08-30 13:01:28 | 49.98701 | 8.62166 | 73° | 84km/h | 8575m | -8.2m/s | -32.4°C | 80.2% | 342.8hPa | 2.5V | 02:46:27 | 02:31:13 | 00:00:00 | |
| DM0DOS-11 | 2026-08-30 13:01:27 | 49.98667 | 8.61980 | 73° | 80km/h | 8620m | -7.2m/s | -32.6°C | 81.3% | 340.6hPa | 2.5V | 02:45:47 | 02:31:07 | 00:00:00 | |
| BIOWL1-15 | 2026-08-30 13:01:18 | 49.98615 | 8.61706 | 74° | 82km/h | 8688m | -7.6m/s | -33°C | 80.9% | 337.3hPa | 2.6V | 02:46:27 | 02:30:58 | 00:00:00 | |
| DM0DOS-11 | 2026-08-30 13:01:17 | 49.98610 | 8.61675 | 75° | 80km/h | 8696m | -7.4m/s | -33°C | 81.8% | 337hPa | 2.6V | 02:45:57 | 02:30:57 | 00:00:00 | |
| BIOWL1-15 | 2026-08-30 13:01:08 | 49.98566 | 8.61430 | 75° | 82km/h | 8754m | -7.3m/s | -33.5°C | 81.1% | 334.1hPa | 2.5V | 02:46:27 | 02:30:49 | 00:00:00 | |
| DM0DOS-11 | 2026-08-30 13:01:07 | 49.98555 | 8.61367 | 75° | 84km/h | 8770m | -8.4m/s | -33.6°C | 80.2% | 333.5hPa | 2.6V | 02:46:07 | 02:30:47 | 00:00:00 | |
| DB0UT-9 | 2026-08-30 13:01:06 | 49.98583 | 8.61522 | 75° | 82km/h | 8732m | -6.7m/s | -33.3°C | 75.9% | 335.2hPa | 2.5V | 02:46:00 | 00:00:00 | 00:00:00 | |
| DL0LBS | 2026-08-30 13:01:05 | 49.98577 | 8.61491 | 75° | 82km/h | 8738m | -6.9m/s | -33.4°C | 75.4% | 334.9hPa | 2.5V | 02:46:00 | 00:00:00 | 00:00:00 | |
| BIOWL7-15 | 2026-08-30 13:01:02 | 49.98560 | 8.61399 | 76° | 84km/h | 8762m | -7.8m/s | -33.6°C | 74.6% | 333.9hPa | 2.5V | 00:00:00 | 00:00:00 | 00:00:00 | |
| DL9SK-14 | 2026-08-30 13:00:59 | 49.98539 | 8.61272 | 75° | 84km/h | 8795m | -8.1m/s | -33.8°C | 75.2% | 332.2hPa | 2.5V | 00:00:00 | 00:00:00 | 00:00:00 | |
| DL9PN | 2026-08-30 13:00:58 | 49.98528 | 8.61208 | 75° | 84km/h | 8810m | -7.6m/s | -33.9°C | 75.4% | 331.5hPa | 2.5V | 00:00:00 | 00:00:00 | 00:00:00 | |
| DK5PH-5 | 2026-08-30 13:00:57 | 49.98528 | 8.61208 | 76° | 89km/h | 8810m | -7.6m/s | -33.9°C | 81.2% | 331.5hPa | 2.5V | 00:00:00 | 02:30:42 | 00:00:00 | |
| DB0UT-7 | 2026-08-30 13:00:56 | 49.98523 | 8.61177 | 75° | 91km/h | 8818m | -7.5m/s | -33.9°C | 81.3% | 331.1hPa | 2.5V | 02:46:00 | 02:30:41 | 00:00:00 | |
| DM0DOS-11 | 2026-08-30 13:00:55 | 49.98495 | 8.61017 | 76° | 86km/h | 8856m | -7.9m/s | -34.2°C | 81% | 329.4hPa | 2.5V | 02:46:18 | 02:30:36 | 00:00:00 | |
| BIOWL1-15 | 2026-08-30 13:00:54 | 49.98512 | 8.61114 | 75° | 84km/h | 8833m | -7.4m/s | -34.1°C | 80.3% | 330.5hPa | 2.6V | 02:46:27 | 02:30:39 | 00:00:00 | |
| HSKMA3-T | 2026-08-30 13:00:45 | 49.98465 | 8.60818 | 76° | 89km/h | 8901m | -7.2m/s | -34.5°C | 80.5% | 327.3hPa | 2.5V | 03:00:54 | 02:30:30 | 00:00:00 | |
| BIOWL1-15 | 2026-08-30 13:00:44 | 49.98459 | 8.60784 | 75° | 89km/h | 8908m | -7.3m/s | -34.6°C | 80.6% | 326.9hPa | 2.5V | 02:46:27 | 02:30:29 | 00:00:00 | |
| DM0DOS-11 | 2026-08-30 13:00:41 | 49.98441 | 8.60681 | 74° | 91km/h | 8930m | -7.5m/s | -34.7°C | 81.9% | 325.9hPa | 2.6V | 02:46:28 | 02:30:26 | 00:00:00 | |
| BIOWL9-15 | 2026-08-30 13:00:38 | 49.98416 | 8.60541 | 76° | 91km/h | 8959m | -6.9m/s | -34.9°C | 76.3% | 324.6hPa | 2.5V | 00:00:00 | 00:00:00 | 00:00:00 | |
| DM0DOS-11 | 2026-08-30 13:00:36 | 49.98386 | 8.60326 | 77° | 97km/h | 9002m | -7.5m/s | -35.1°C | 81.5% | 322.6hPa | 2.5V | 02:46:38 | 02:30:16 | 00:00:00 | |
| BIOWL1-15 | 2026-08-30 13:00:33 | 49.98395 | 8.60398 | 78° | 93km/h | 8988m | -7m/s | -35.1°C | 81.8% | 323.2hPa | 2.6V | 02:47:18 | 02:30:18 | 00:00:00 | |
| BIOWL1-15 | 2026-08-30 13:00:25 | 49.98344 | 8.60028 | 78° | 97km/h | 9061m | -6.9m/s | -35.4°C | 80.2% | 319.8hPa | 2.5V | 02:47:18 | 02:30:08 | 00:00:00 | |
| DL0LBS | 2026-08-30 13:00:24 | 49.98354 | 8.60103 | 78° | 99km/h | 9047m | -7.3m/s | -35.3°C | 74.7% | 320.4hPa | 2.5V | 02:47:00 | 00:00:00 | 00:00:00 | |
| CB1BUN | 2026-08-30 13:00:23 | 49.98349 | 8.60066 | 78° | 99km/h | 9054m | -7.0m/s | -35.4°C | 74.6% | 320.1hPa | 2.5V | 00:00:00 | 00:00:00 | 00:00:00 | |
| DL8DAS-14 | 2026-08-30 13:00:22 | 49.98338 | 8.59991 | 77° | 97km/h | 9068m | -7.0m/s | -35.5°C | 75.2% | 319.5hPa | 2.5V | 00:00:00 | 00:00:00 | 00:00:00 | |
| DF1GD-15 | 2026-08-30 13:00:20 | 49.98333 | 8.59953 | 79° | 99km/h | 9075m | -7.5m/s | -35.5°C | 75.6% | 319.2hPa | 2.5V | 02:47:00 | 00:00:00 | 00:00:00 | |
| DM0DOS-11 | 2026-08-30 13:00:19 | 49.98317 | 8.59842 | 77° | 97km/h | 9096m | -6.9m/s | -35.7°C | 81.8% | 318.2hPa | 2.5V | 02:46:51 | 02:30:03 | 00:00:00 | |
| BIOWL1-15 | 2026-08-30 13:00:12 | 49.98288 | 8.59617 | 78° | 97km/h | 9139m | -7.9m/s | -36°C | 80.9% | 316.2hPa | 2.5V | 02:47:18 | 02:29:57 | 00:00:00 | |
| DM0DOS-11 | 2026-08-30 13:00:11 | 49.98264 | 8.59431 | 79° | 95km/h | 9181m | -8.2m/s | -36.3°C | 80% | 314.4hPa | 2.6V | 02:47:02 | 02:29:52 | 00:00:00 | |
| BIOWL1-15 | 2026-08-30 13:00:01 | 49.98236 | 8.59210 | 80° | 97km/h | 9230m | -8.2m/s | -36.7°C | 80.1% | 312.2hPa | 2.6V | 02:47:18 | 02:29:46 | 00:00:00 | |
| DL1KLB | 2026-08-30 13:00:00 | 49.98236 | 8.59210 | 81° | 97km/h | 9230m | -8.2m/s | -36.7°C | 73.2% | 312.2hPa | 2.5V | 02:47:00 | 00:00:00 | 00:00:00 | |
| DM0DOS-11 | 2026-08-30 12:59:59 | 49.98219 | 8.59064 | 79° | 95km/h | 9263m | -8m/s | -36.9°C | 80.4% | 310.7hPa | 2.5V | 02:47:12 | 02:29:42 | 00:00:00 | |
| DL9SK-14 | 2026-08-30 12:59:57 | 49.98219 | 8.59064 | 79° | 95km/h | 9263m | -8.0m/s | -36.9°C | 73.9% | 310.7hPa | 2.6V | 00:00:00 | 00:00:00 | 00:00:00 | |
| DL9PN | 2026-08-30 12:59:56 | 49.98210 | 8.58991 | 79° | 95km/h | 9279m | -9.2m/s | -37.1°C | 73.9% | 309.9hPa | 2.6V | 00:00:00 | 00:00:00 | 00:00:00 | |
| DD1CC8 | 2026-08-30 12:59:55 | 49.98210 | 8.58991 | 79° | 95km/h | 9279m | -9.2m/s | -37.1°C | 73.9% | 309.9hPa | 2.6V | 00:00:00 | 00:00:00 | 00:00:00 | |
| DM7RM-13 | 2026-08-30 12:59:53 | 49.98205 | 8.58954 | 80° | 95km/h | 9288m | -8.4m/s | -37.2°C | 73.8% | 309.5hPa | 2.6V | 02:47:00 | 00:00:00 | 00:00:00 | |
| DM0DOS-11 | 2026-08-30 12:59:51 | 49.98175 | 8.58695 | 79° | 97km/h | 9347m | -8.9m/s | -37.7°C | 81.6% | 306.9hPa | 2.6V | 02:47:22 | 02:29:32 | 00:00:00 | |
| BIOWL1-15 | 2026-08-30 12:59:51 | 49.98192 | 8.58843 | 79° | 95km/h | 9313m | -8m/s | -37.4°C | 81.3% | 308.4hPa | 2.5V | 02:47:18 | 02:29:36 | 00:00:00 | |
| BIOWL1-15 | 2026-08-30 12:59:44 | 49.98145 | 8.58438 | 80° | 95km/h | 9407m | -8.8m/s | -38.2°C | 82.7% | 304.2hPa | 2.5V | 02:48:09 | 02:29:25 | 00:00:00 | |
| DL1ZP-14 | 2026-08-30 12:59:43 | 49.98157 | 8.58548 | 80° | 93km/h | 9381m | -8.1m/s | -38.0°C | 75.6% | 305.4hPa | 2.6V | 00:00:00 | 00:00:00 | 00:00:00 | |
| SFWM-10 | 2026-08-30 12:59:42 | 49.98158 | 8.58548 | 81° | 93km/h | 9381m | -8.1m/s | -38.0°C | 75.6% | 305.4hPa | 2.6V | 02:48:00 | 00:00:00 | 00:00:00 | |
| DM0DOS-11 | 2026-08-30 12:59:39 | 49.98133 | 8.58328 | 79° | 93km/h | 9432m | -8.5m/s | -38.5°C | 82.1% | 303.2hPa | 2.6V | 02:47:32 | 02:29:22 | 00:00:00 | |
| DF1GD-15 | 2026-08-30 12:59:38 | 49.98141 | 8.58401 | 81° | 95km/h | 9416m | -7.6m/s | -38.3°C | 76.3% | 303.9hPa | 2.5V | 02:48:00 | 00:00:00 | 00:00:00 | |
| DF7PN | 2026-08-30 12:59:36 | 49.98128 | 8.58292 | 80° | 93km/h | 9440m | -8.9m/s | -38.5°C | 74.8% | 302.9hPa | 2.5V | 00:00:00 | 00:00:00 | 00:00:00 | |
| BIOWL9-15 | 2026-08-30 12:59:35 | 49.98124 | 8.58256 | 79° | 93km/h | 9449m | -9.0m/s | -38.6°C | 74.8% | 302.5hPa | 2.5V | 00:00:00 | 00:00:00 | 00:00:00 | |
| DM7RM-13 | 2026-08-30 12:59:32 | 49.98116 | 8.58182 | 81° | 95km/h | 9466m | -7.6m/s | -38.8°C | 74.6% | 301.7hPa | 2.5V | 02:48:00 | 00:00:00 | 00:00:00 | |
| DM0DOS-11 | 2026-08-30 12:59:31 | 49.98089 | 8.57962 | 79° | 95km/h | 9516m | -7.4m/s | -39.2°C | 80.7% | 299.5hPa | 2.5V | 02:47:42 | 02:29:12 | 00:00:00 | |
| BIOWL1-15 | 2026-08-30 12:59:29 | 49.98098 | 8.58035 | 79° | 95km/h | 9500m | -8.8m/s | -39.1°C | 80.1% | 300.2hPa | 2.5V | 02:48:09 | 02:29:14 | 00:00:00 | |
| HSKMA3-T | 2026-08-30 12:59:20 | 49.98061 | 8.57705 | 80° | 95km/h | 9571m | -7.3m/s | -39.7°C | 78.5% | 297.1hPa | 2.6V | 03:00:54 | 02:29:05 | 00:00:00 | |
| BIOWL1-15 | 2026-08-30 12:59:20 | 49.98052 | 8.57631 | 79° | 95km/h | 9588m | -8.4m/s | -39.8°C | 78.1% | 296.3hPa | 2.5V | 02:48:09 | 02:29:03 | 00:00:00 | |
| DM0DOS-11 | 2026-08-30 12:59:19 | 49.98047 | 8.57594 | 77° | 95km/h | 9597m | -8.6m/s | -39.9°C | 78.5% | 295.9hPa | 2.5V | 02:47:52 | 02:29:02 | 00:00:00 | |
| DF1GD-15 | 2026-08-30 12:59:17 | 49.98052 | 8.57631 | 79° | 95km/h | 9588m | -8.4m/s | -39.8°C | 71.4% | 296.3hPa | 2.6V | 02:48:00 | 00:00:00 | 00:00:00 | |
| DL1ZP-14 | 2026-08-30 12:59:12 | 49.98014 | 8.57373 | 77° | 99km/h | 9645m | -8.0m/s | -40.3°C | 71.0% | 293.9hPa | 2.6V | 00:00:00 | 00:00:00 | 00:00:00 | |
| DM0DOS-11 | 2026-08-30 12:59:11 | 49.97993 | 8.57219 | 78° | 102km/h | 9676m | -7.5m/s | -40.5°C | 78% | 292.6hPa | 2.5V | 02:48:02 | 02:28:52 | 00:00:00 | |
| BIOWL1-15 | 2026-08-30 12:59:07 | 49.97993 | 8.57219 | 78° | 102km/h | 9676m | -7.5m/s | -40.6°C | 77.4% | 292.6hPa | 2.5V | 02:48:09 | 02:28:52 | 00:00:00 | |
| BIOWL9-15 | 2026-08-30 12:59:05 | 49.97978 | 8.57101 | 79° | 100km/h | 9698m | -9.2m/s | -40.7°C | 71.0% | 291.6hPa | 2.5V | 00:00:00 | 00:00:00 | 00:00:00 | |
| DL0LBS | 2026-08-30 12:59:02 | 49.97973 | 8.57061 | 81° | 102km/h | 9707m | -8.3m/s | -40.8°C | 71.9% | 291.2hPa | 2.5V | 02:48:00 | 00:00:00 | 00:00:00 | |
| CB1BUN | 2026-08-30 12:59:00 | 49.97964 | 8.56982 | 80° | 102km/h | 9723m | -7.3m/s | -41.0°C | 72.7% | 290.5hPa | 2.5V | 00:00:00 | 00:00:00 | 00:00:00 | |
| DM0DOS-11 | 2026-08-30 12:58:59 | 49.97947 | 8.56825 | 80° | 102km/h | 9755m | -8.5m/s | -41.2°C | 82% | 289.2hPa | 2.5V | 02:48:12 | 02:28:42 | 00:00:00 | |
| BIOWL1-15 | 2026-08-30 12:58:56 | 49.97938 | 8.56746 | 80° | 102km/h | 9774m | -9.4m/s | -41.4°C | 81.8% | 288.4hPa | 2.6V | 02:49:00 | 02:28:40 | 00:00:00 | |
| DL9SK-14 | 2026-08-30 12:58:55 | 49.97938 | 8.56746 | 80° | 102km/h | 9773m | -9.4m/s | -41.4°C | 75.6% | 288.4hPa | 2.5V | 00:00:00 | 00:00:00 | 00:00:00 | |
| DD1CC8 | 2026-08-30 12:58:53 | 49.97929 | 8.56666 | 80° | 102km/h | 9790m | -8.1m/s | -41.5°C | 75.7% | 287.7hPa | 2.5V | 00:00:00 | 00:00:00 | 00:00:00 | |
| DM0DOS-11 | 2026-08-30 12:58:51 | 49.97906 | 8.56427 | 82° | 102km/h | 9845m | -9.8m/s | -42°C | 83.1% | 285.4hPa | 2.5V | 02:48:22 | 02:28:32 | 00:00:00 | |
| BIOWL1-15 | 2026-08-30 12:58:47 | 49.97899 | 8.56347 | 82° | 104km/h | 9863m | -9.6m/s | -42.2°C | 83.8% | 284.6hPa | 2.6V | 02:49:00 | 02:28:30 | 00:00:00 | |
| DL1ZP-14 | 2026-08-30 12:58:41 | 49.97880 | 8.56147 | 81° | 104km/h | 9908m | -8.7m/s | -42.5°C | 75.4% | 282.7hPa | 2.6V | 00:00:00 | 00:00:00 | 00:00:00 | |
| DM0DOS-11 | 2026-08-30 12:58:39 | 49.97868 | 8.56026 | 81° | 104km/h | 9933m | -8.7m/s | -42.7°C | 82.6% | 281.6hPa | 2.5V | 02:48:32 | 02:28:22 | 00:00:00 | |
| BIOWL1-15 | 2026-08-30 12:58:34 | 49.97857 | 8.55905 | 82° | 104km/h | 9959m | -8.6m/s | -42.9°C | 82% | 280.6hPa | 2.5V | 02:49:00 | 02:28:19 | 00:00:00 | |
| BIOWL1-15 | 2026-08-30 12:58:25 | 49.97819 | 8.55460 | 84° | 104km/h | 10054m | -8.5m/s | -43.7°C | 78.7% | 276.6hPa | 2.5V | 02:49:00 | 02:28:08 | 00:00:00 | |
| AU51GT2 | 2026-08-30 12:58:24 | 49.97816 | 8.55420 | 83° | 104km/h | 10062m | -8.5m/s | 0°C | -1.0% | -1.0hPa | 2.5V | 00:00:00 | 00:00:00 | 00:00:00 | |
| DL0LBS | 2026-08-30 12:58:22 | 49.97816 | 8.55419 | 85° | 104km/h | 10062m | -8.5m/s | -43.7°C | 71.1% | 276.3hPa | 2.5V | 02:49:00 | 00:00:00 | 00:00:00 | |
| DM0DOS-11 | 2026-08-30 12:58:19 | 49.97802 | 8.55218 | 84° | 104km/h | 10105m | -9.8m/s | -44.1°C | 77.3% | 274.5hPa | 2.5V | 02:48:52 | 02:28:02 | 00:00:00 | |
| BIOWL1-15 | 2026-08-30 12:58:12 | 49.97789 | 8.55014 | 85° | 106km/h | 10154m | -8.5m/s | -44.5°C | 77.2% | 272.6hPa | 2.5V | 02:49:00 | 02:27:57 | 00:00:00 | |
| DM0DOS-11 | 2026-08-30 12:58:11 | 49.97775 | 8.54806 | 84° | 108km/h | 10201m | -8.8m/s | -44.9°C | 77.7% | 270.6hPa | 2.5V | 02:49:02 | 02:27:52 | 00:00:00 | |
| BIOWL1-15 | 2026-08-30 12:58:02 | 49.97757 | 8.54549 | 84° | 111km/h | 10259m | -10.3m/s | -45.3°C | 78.7% | 268.4hPa | 2.6V | 02:49:51 | 02:27:46 | 00:00:00 | |
| DL9SK-14 | 2026-08-30 12:57:53 | 49.97726 | 8.54196 | 82° | 115km/h | 10337m | -10.0m/s | -45.9°C | 69.5% | 265.2hPa | 2.5V | 00:00:00 | 00:00:00 | 00:00:00 | |
| BEGRI65-1 | 2026-08-30 12:57:52 | 49.97726 | 8.54195 | 83° | 115km/h | 10338m | -10.0m/s | -45.9°C | 69.5% | 265.2hPa | 2.5V | 02:49:00 | 00:00:00 | 00:00:00 | |
| DM0DOS-11 | 2026-08-30 12:57:51 | 49.97699 | 8.53875 | 82° | 120km/h | 10397m | -6.4m/s | -46.3°C | 82.6% | 262.8hPa | 2.5V | 02:49:23 | 02:27:31 | 00:00:00 | |
| BIOWL1-15 | 2026-08-30 12:57:51 | 49.97682 | 8.53688 | 82° | 119km/h | 10425m | -7.6m/s | -46.6°C | 80.4% | 261.6hPa | 2.6V | 02:49:51 | 02:27:27 | 00:00:00 | |
| DL8DAS-14 | 2026-08-30 12:57:47 | 49.97699 | 8.53875 | 82° | 120km/h | 10397m | -6.4m/s | -46.3°C | 73.8% | 262.8hPa | 2.5V | 00:00:00 | 00:00:00 | 00:00:00 | |
| SFWM-10 | 2026-08-30 12:57:45 | 49.97699 | 8.53875 | 83° | 120km/h | 10397m | -6.4m/s | -46.3°C | 73.8% | 262.8hPa | 2.5V | 00:00:00 | 00:00:00 | 00:00:00 | |
| DJ2DS-15 | 2026-08-30 12:57:44 | 49.97691 | 8.53781 | 81° | 120km/h | 10411m | -7.0m/s | -46.5°C | 73.2% | 262.3hPa | 2.5V | 00:00:00 | 00:00:00 | 00:00:00 | |
| CB1BUN | 2026-08-30 12:57:41 | 49.97682 | 8.53688 | 83° | 119km/h | 10425m | -7.6m/s | -46.6°C | 72.0% | 261.6hPa | 2.5V | 00:00:00 | 00:00:00 | 00:00:00 | |
| DL0LBS | 2026-08-30 12:57:40 | 49.97678 | 8.53642 | 82° | 117km/h | 10434m | -9.0m/s | -46.7°C | 71.4% | 261.3hPa | 2.5V | 02:49:00 | 00:00:00 | 00:00:00 | |
| DM0DOS-11 | 2026-08-30 12:57:39 | 49.97655 | 8.53415 | 81° | 119km/h | 10480m | -8.2m/s | -47°C | 81.1% | 259.5hPa | 2.5V | 02:49:33 | 02:27:21 | 00:00:00 | |
| BIOWL1-15 | 2026-08-30 12:57:37 | 49.97660 | 8.53461 | 81° | 117km/h | 10471m | -9.3m/s | -47°C | 79.8% | 259.9hPa | 2.6V | 02:49:51 | 02:27:22 | 00:00:00 | |
| DL1KLB | 2026-08-30 12:57:36 | 49.97660 | 8.53461 | 82° | 117km/h | 10472m | -9.3m/s | -47.0°C | 72.2% | 259.9hPa | 2.5V | 02:49:00 | 00:00:00 | 00:00:00 | |
| DB0UT-9 | 2026-08-30 12:57:35 | 49.97655 | 8.53415 | 82° | 119km/h | 10481m | -8.2m/s | -47.0°C | 72.2% | 259.5hPa | 2.5V | 02:49:00 | 00:00:00 | 00:00:00 | |
| DF1GD-15 | 2026-08-30 12:57:33 | 49.97647 | 8.53321 | 83° | 122km/h | 10497m | -8.4m/s | -47.1°C | 71.1% | 258.9hPa | 2.5V | 02:49:00 | 00:00:00 | 00:00:00 | |
| DF7PN | 2026-08-30 12:57:32 | 49.97639 | 8.53225 | 83° | 124km/h | 10515m | -9.3m/s | -47.3°C | 70.4% | 258.2hPa | 2.5V | 00:00:00 | 00:00:00 | 00:00:00 | |
| DM0DOS-11 | 2026-08-30 12:57:31 | 49.97615 | 8.52928 | 82° | 130km/h | 10570m | -8.9m/s | -47.6°C | 77.6% | 256hPa | 2.5V | 02:49:43 | 02:27:11 | 00:00:00 | |
| BIOWL1-15 | 2026-08-30 12:57:26 | 49.97600 | 8.52778 | 81° | 128km/h | 10597m | -8.6m/s | -47.8°C | 79.1% | 255hPa | 2.6V | 02:49:51 | 02:27:08 | 00:00:00 | |
| DB0UT-7 | 2026-08-30 12:57:26 | 49.97614 | 8.52927 | 83° | 126km/h | 10570m | -8.9m/s | -47.6°C | 77.6% | 256.0hPa | 2.5V | 00:00:00 | 00:00:00 | 00:00:00 | |
| BIOWL7-15 | 2026-08-30 12:57:23 | 49.97605 | 8.52827 | 82° | 130km/h | 10589m | -8.1m/s | -47.8°C | 69.4% | 255.3hPa | 2.5V | 00:00:00 | 00:00:00 | 00:00:00 | |
| DL9SK-14 | 2026-08-30 12:57:22 | 49.97595 | 8.52728 | 81° | 126km/h | 10606m | -9.0m/s | -47.9°C | 69.0% | 254.7hPa | 2.5V | 00:00:00 | 00:00:00 | 00:00:00 | |
| HEMX73-11 | 2026-08-30 12:57:21 | 49.97595 | 8.52728 | 82° | 126km/h | 10606m | -9.0m/s | -47.9°C | 69.0% | 254.7hPa | 2.5V | 02:49:00 | 00:00:00 | 00:00:00 | |
| DD1CC8 | 2026-08-30 12:57:20 | 49.97586 | 8.52630 | 81° | 126km/h | 10623m | -8.7m/s | -48.0°C | 68.2% | 253.9hPa | 2.5V | 00:00:00 | 00:00:00 | 00:00:00 | |
| DM0DOS-11 | 2026-08-30 12:57:19 | 49.97567 | 8.52434 | 81° | 126km/h | 10661m | -10.6m/s | -48.3°C | 75.1% | 252.6hPa | 2.5V | 02:49:53 | 02:27:01 | 00:00:00 | |
| BIOWL1-15 | 2026-08-30 12:57:13 | 49.97555 | 8.52287 | 83° | 126km/h | 10692m | -8.6m/s | -48.5°C | 76.5% | 251.3hPa | 2.5V | 02:50:42 | 02:26:58 | 00:00:00 | |
| DF1GD-15 | 2026-08-30 12:57:12 | 49.97555 | 8.52287 | 84° | 126km/h | 10692m | -8.6m/s | -48.5°C | 67.6% | 251.4hPa | 2.6V | 02:50:00 | 00:00:00 | 00:00:00 | |
| DM0DOS-11 | 2026-08-30 12:57:11 | 49.97521 | 8.51895 | 82° | 126km/h | 10764m | -10.2m/s | -49°C | 75% | 248.6hPa | 2.6V | 02:50:04 | 02:26:50 | 00:00:00 | |
| HSKMA3-T | 2026-08-30 12:57:09 | 49.97537 | 8.52090 | 82° | 126km/h | 10726m | -9.2m/s | -48.7°C | 76.1% | 250.1hPa | 2.5V | 03:00:54 | 02:26:54 | 00:00:00 | |
| BIOWL1-15 | 2026-08-30 12:57:05 | 49.97513 | 8.51799 | 83° | 122km/h | 10784m | -10.4m/s | -49.2°C | 76.5% | 247.9hPa | 2.5V | 02:50:42 | 02:26:48 | 00:00:00 | |
| DB0ND-19 | 2026-08-30 12:57:04 | 49.97517 | 8.51847 | 82° | 122km/h | 10774m | -9.7m/s | -49.1°C | 66.0% | 248.2hPa | 2.6V | 00:00:00 | 00:00:00 | 00:00:00 | |
| DF7PN | 2026-08-30 12:57:01 | 49.97504 | 8.51702 | 82° | 124km/h | 10805m | -10.0m/s | -49.4°C | 65.3% | 247.1hPa | 2.6V | 00:00:00 | 00:00:00 | 00:00:00 | |
| DM0DOS-11 | 2026-08-30 12:57:00 | 49.97483 | 8.51410 | 84° | 126km/h | 10868m | -8.9m/s | -49.9°C | 74.1% | 244.7hPa | 2.6V | 02:50:14 | 02:26:40 | 00:00:00 | |
| BIOWL1-15 | 2026-08-30 12:56:56 | 49.97473 | 8.51263 | 84° | 126km/h | 10896m | -9.6m/s | -50.1°C | 74.9% | 243.7hPa | 2.5V | 02:50:42 | 02:26:37 | 00:00:00 | |
| DF3TZ-5 | 2026-08-30 12:56:53 | 49.97473 | 8.51263 | 84° | 126km/h | 10896m | -9.6m/s | 0°C | -1.0% | -1.0hPa | 2.6V | 00:00:00 | 00:00:00 | 00:00:00 | |
| DL9SK-14 | 2026-08-30 12:56:51 | 49.97469 | 8.51214 | 83° | 124km/h | 10905m | -9.0m/s | -50.2°C | 63.4% | 243.3hPa | 2.6V | 00:00:00 | 00:00:00 | 00:00:00 | |
| DM0DOS-11 | 2026-08-30 12:56:50 | 49.97449 | 8.50921 | 83° | 126km/h | 10969m | -11.2m/s | -50.8°C | 71.3% | 241hPa | 2.6V | 02:50:24 | 02:26:30 | 00:00:00 | |
| DD1CC8 | 2026-08-30 12:56:49 | 49.97463 | 8.51116 | 84° | 124km/h | 10926m | -10.5m/s | -50.4°C | 62.9% | 242.6hPa | 2.5V | 00:00:00 | 00:00:00 | 00:00:00 | |
| DL8DAS-14 | 2026-08-30 12:56:45 | 49.97449 | 8.50921 | 83° | 126km/h | 10969m | -11.2m/s | -50.8°C | 62.1% | 241.0hPa | 2.5V | 00:00:00 | 00:00:00 | 00:00:00 | |
| BIOWL1-15 | 2026-08-30 12:56:42 | 49.97437 | 8.50776 | 82° | 124km/h | 11001m | -10.1m/s | -51°C | 72.4% | 239.8hPa | 2.5V | 02:50:42 | 02:26:27 | 00:00:00 | |
| BIOWL1-15 | 2026-08-30 12:56:31 | 49.97397 | 8.50246 | 82° | 124km/h | 11109m | -9.4m/s | -51.9°C | 70.8% | 235.8hPa | 2.6V | 02:50:42 | 02:26:16 | 00:00:00 | |
| DF7PN | 2026-08-30 12:56:30 | 49.97392 | 8.50198 | 82° | 122km/h | 11119m | -10.4m/s | -52.0°C | 60.7% | 235.5hPa | 2.5V | 00:00:00 | 00:00:00 | 00:00:00 | |
| DM0DOS-11 | 2026-08-30 12:56:29 | 49.97371 | 8.49955 | 81° | 124km/h | 11170m | -10.1m/s | -52.4°C | 67.6% | 233.6hPa | 2.5V | 02:50:44 | 02:26:10 | 00:00:00 | |
| BIOWL1-15 | 2026-08-30 12:56:22 | 49.97352 | 8.49709 | 83° | 126km/h | 11225m | -10.2m/s | -52.9°C | 70% | 231.6hPa | 2.5V | 02:51:33 | 02:26:05 | 00:00:00 | |
| BIOWL7-15 | 2026-08-30 12:56:21 | 49.97359 | 8.49807 | 84° | 128km/h | 11203m | -11.8m/s | -52.7°C | 58.3% | 232.5hPa | 2.5V | 02:51:00 | 00:00:00 | 00:00:00 | |
| DM0DOS-11 | 2026-08-30 12:56:20 | 49.97331 | 8.49460 | 81° | 128km/h | 11272m | -10m/s | -53.2°C | 71.9% | 229.8hPa | 2.5V | 02:50:54 | 02:26:00 | 00:00:00 | |
| DL9SK-14 | 2026-08-30 12:56:20 | 49.97348 | 8.49659 | 83° | 128km/h | 11236m | -10.7m/s | -53.0°C | 61.0% | 231.2hPa | 2.5V | 00:00:00 | 00:00:00 | 00:00:00 | |
| DD1CC8 | 2026-08-30 12:56:18 | 49.97344 | 8.49609 | 82° | 126km/h | 11245m | -8.5m/s | -53.0°C | 62.0% | 230.8hPa | 2.5V | 00:00:00 | 00:00:00 | 00:00:00 | |
| BEGRI65-1 | 2026-08-30 12:56:17 | 49.97344 | 8.49609 | 84° | 128km/h | 11245m | -8.5m/s | -53.0°C | 62.0% | 230.8hPa | 2.5V | 02:51:00 | 00:00:00 | 00:00:00 | |
| DO2KSM | 2026-08-30 12:56:16 | 49.97340 | 8.49560 | 83° | 128km/h | 11254m | -8.3m/s | -53.1°C | 62.2% | 230.5hPa | 2.5V | 02:51:00 | 00:00:00 | 00:00:00 | |
| DL1KLB | 2026-08-30 12:56:13 | 49.97327 | 8.49410 | 83° | 130km/h | 11282m | -9.5m/s | -53.3°C | 61.6% | 229.5hPa | 2.5V | 02:51:00 | 00:00:00 | 00:00:00 | |
| SFWM-10 | 2026-08-30 12:56:12 | 49.97322 | 8.49360 | 83° | 130km/h | 11291m | -8.5m/s | -53.3°C | 61.1% | 229.2hPa | 2.5V | 00:00:00 | 00:00:00 | 00:00:00 | |
| DF1GD-15 | 2026-08-30 12:56:10 | 49.97313 | 8.49259 | 83° | 128km/h | 11310m | -10.2m/s | -53.4°C | 59.5% | 228.6hPa | 2.5V | 02:51:00 | 00:00:00 | 00:00:00 | |
| DM0DOS-11 | 2026-08-30 12:56:09 | 49.97287 | 8.48956 | 82° | 130km/h | 11377m | -10.6m/s | -53.9°C | 67.2% | 226.2hPa | 2.5V | 02:51:04 | 02:25:50 | 00:00:00 | |
| BIOWL1-15 | 2026-08-30 12:56:09 | 49.97300 | 8.49108 | 83° | 130km/h | 11344m | -11.1m/s | -53.7°C | 69.8% | 227.3hPa | 2.5V | 02:51:33 | 02:25:53 | 00:00:00 | |
| BIOWL1-15 | 2026-08-30 12:55:58 | 49.97259 | 8.48601 | 83° | 130km/h | 11447m | -8.8m/s | -54.4°C | 67.6% | 223.7hPa | 2.5V | 02:51:33 | 02:25:43 | 00:00:00 | |
| DF3TZ-5 | 2026-08-30 12:55:51 | 49.97220 | 8.48150 | 82° | 130km/h | 11533m | -9.4m/s | 0°C | -1.0% | -1.0hPa | 2.5V | 00:00:00 | 00:00:00 | 00:00:00 | |
| DM0DOS-11 | 2026-08-30 12:55:50 | 49.97202 | 8.47948 | 81° | 130km/h | 11570m | -11.1m/s | -55.5°C | 63.3% | 219.5hPa | 2.5V | 02:51:24 | 02:25:30 | 00:00:00 | |
| BIOWL1-15 | 2026-08-30 12:55:47 | 49.97207 | 8.47999 | 82° | 130km/h | 11560m | -9.4m/s | -55.4°C | 64.5% | 219.8hPa | 2.6V | 02:51:33 | 02:25:31 | 00:00:00 | |
| DD1CC8 | 2026-08-30 12:55:47 | 49.97207 | 8.47999 | 81° | 130km/h | 11560m | -9.4m/s | -55.4°C | 54.0% | 219.8hPa | 2.5V | 00:00:00 | 00:00:00 | 00:00:00 | |
| DB0UT-9 | 2026-08-30 12:55:46 | 49.97211 | 8.48049 | 83° | 130km/h | 11551m | -8.7m/s | -55.3°C | 55.0% | 220.1hPa | 2.5V | 02:51:00 | 00:00:00 | 00:00:00 | |
| DL8DAS-14 | 2026-08-30 12:55:43 | 49.97192 | 8.47847 | 82° | 130km/h | 11592m | -11.2m/s | -55.7°C | 53.0% | 218.8hPa | 2.5V | 00:00:00 | 00:00:00 | 00:00:00 | |
| DM0DOS-11 | 2026-08-30 12:55:40 | 49.97152 | 8.47440 | 80° | 133km/h | 11677m | -9.7m/s | -56.2°C | 61.1% | 215.8hPa | 2.5V | 02:51:34 | 02:25:20 | 00:00:00 | |
| HSKMA3-T | 2026-08-30 12:55:40 | 49.97179 | 8.47695 | 82° | 131km/h | 11624m | -11.7m/s | -55.9°C | 62.3% | 217.7hPa | 2.5V | 03:00:54 | 02:25:25 | 00:00:00 | |
| BIOWL1-15 | 2026-08-30 12:55:39 | 49.97163 | 8.47542 | 80° | 131km/h | 11658m | -10.8m/s | -56.1°C | 61.2% | 216.5hPa | 2.6V | 02:51:33 | 02:25:22 | 00:00:00 | |
| DL0LBS | 2026-08-30 12:55:38 | 49.97174 | 8.47644 | 82° | 131km/h | 11636m | -11.0m/s | -56.0°C | 51.9% | 217.2hPa | 2.5V | 02:51:00 | 00:00:00 | 00:00:00 | |
| CB1BUN | 2026-08-30 12:55:37 | 49.97168 | 8.47593 | 82° | 131km/h | 11647m | -10.8m/s | -56.0°C | 51.6% | 216.9hPa | 2.5V | 02:51:00 | 00:00:00 | 00:00:00 | |
| SFWM-10 | 2026-08-30 12:55:36 | 49.97163 | 8.47542 | 81° | 131km/h | 11658m | -10.8m/s | -56.1°C | 51.5% | 216.5hPa | 2.5V | 00:00:00 | 00:00:00 | 00:00:00 | |
| BEGRI65-1 | 2026-08-30 12:55:35 | 49.97158 | 8.47491 | 82° | 131km/h | 11668m | -9.6m/s | -56.1°C | 51.5% | 216.1hPa | 2.5V | 02:51:00 | 00:00:00 | 00:00:00 | |
| DL1ZP-14 | 2026-08-30 12:55:34 | 49.97146 | 8.47389 | 79° | 131km/h | 11687m | -9.1m/s | -56.3°C | 51.1% | 215.4hPa | 2.5V | 00:00:00 | 00:00:00 | 00:00:00 | |
| DL1KLB | 2026-08-30 12:55:32 | 49.97139 | 8.47338 | 80° | 131km/h | 11696m | -9.5m/s | -56.3°C | 50.6% | 215.1hPa | 2.5V | 02:52:00 | 00:00:00 | 00:00:00 | |
| DF1GD-15 | 2026-08-30 12:55:30 | 49.97127 | 8.47238 | 80° | 130km/h | 11715m | -9.6m/s | -56.5°C | 49.9% | 214.5hPa | 2.5V | 02:52:00 | 00:00:00 | 00:00:00 | |
| DM0DOS-11 | 2026-08-30 12:55:29 | 49.97092 | 8.46934 | 79° | 130km/h | 11779m | -11.8m/s | -56.9°C | 56.3% | 212.4hPa | 2.5V | 02:51:44 | 02:25:10 | 00:00:00 | |
| BIOWL1-15 | 2026-08-30 12:55:26 | 49.97098 | 8.46984 | 80° | 131km/h | 11767m | -11.3m/s | -56.8°C | 57.8% | 212.8hPa | 2.6V | 02:52:24 | 02:25:11 | 00:00:00 | |
| DB0UT-7 | 2026-08-30 12:55:26 | 49.97098 | 8.46984 | 80° | 135km/h | 11767m | -11.2m/s | -56.8°C | 56.9% | 212.7hPa | 2.5V | 00:00:00 | 00:00:00 | 00:00:00 | |
| DL8DAS-15 | 2026-08-30 12:55:25 | 49.97098 | 8.46984 | 81° | 131km/h | 11767m | -11.3m/s | -56.8°C | 47.3% | 212.8hPa | 2.5V | 00:00:00 | 00:00:00 | 00:00:00 | |
| DH7VM-15 | 2026-08-30 12:55:21 | 49.97075 | 8.46781 | 82° | 131km/h | 11813m | -10.8m/s | -57.2°C | 46.3% | 211.3hPa | 2.5V | 00:00:00 | 00:00:00 | 00:00:00 | |
| BIOWL7-15 | 2026-08-30 12:55:18 | 49.97059 | 8.46627 | 82° | 133km/h | 11846m | -9.8m/s | -57.4°C | 46.6% | 210.1hPa | 2.5V | 00:00:00 | 00:00:00 | 00:00:00 | |
| DL0LBS | 2026-08-30 12:55:17 | 49.97054 | 8.46575 | 82° | 133km/h | 11856m | -9.4m/s | -57.4°C | 46.1% | 209.7hPa | 2.5V | 02:52:00 | 00:00:00 | 00:00:00 | |
| DM0DOS-11 | 2026-08-30 12:55:15 | 49.97040 | 8.46420 | 82° | 133km/h | 11885m | -9.7m/s | -57.7°C | 54.1% | 208.8hPa | 2.5V | 02:51:54 | 02:25:00 | 00:00:00 | |
| BIOWL1-15 | 2026-08-30 12:55:15 | 49.97040 | 8.46420 | 82° | 133km/h | 11885m | -9.7m/s | -57.7°C | 53.4% | 208.8hPa | 2.5V | 02:52:24 | 02:25:00 | 00:00:00 | |
| BEGRI65-1 | 2026-08-30 12:55:14 | 49.97040 | 8.46420 | 83° | 133km/h | 11886m | -9.7m/s | -57.7°C | 44.5% | 208.8hPa | 2.5V | 00:00:00 | 00:00:00 | 00:00:00 | |
| SFWM-10 | 2026-08-30 12:55:13 | 49.97036 | 8.46367 | 84° | 135km/h | 11896m | -11.4m/s | -57.8°C | 43.7% | 208.5hPa | 2.5V | 02:52:00 | 00:00:00 | 00:00:00 | |
| DL8DAS-14 | 2026-08-30 12:55:12 | 49.97022 | 8.46210 | 82° | 133km/h | 11930m | -11.3m/s | -57.8°C | 41.8% | 207.4hPa | 2.5V | 00:00:00 | 00:00:00 | 00:00:00 | |
| DM0DOS-11 | 2026-08-30 12:55:09 | 49.96998 | 8.45894 | 84° | 137km/h | 11996m | -10.8m/s | -58.2°C | 46.7% | 205.2hPa | 2.5V | 02:52:04 | 02:24:50 | 00:00:00 | |
| BIOWL1-15 | 2026-08-30 12:55:05 | 49.96992 | 8.45788 | 85° | 137km/h | 12017m | -9.3m/s | -58.4°C | 43.6% | 204.4hPa | 2.5V | 02:52:24 | 02:24:48 | 00:00:00 | |
| BIOWL1-15 | 2026-08-30 12:54:55 | 49.96963 | 8.45210 | 86° | 130km/h | 12132m | -9m/s | -59.2°C | 34% | 200.8hPa | 2.6V | 02:52:24 | 02:24:37 | 00:00:00 | |
| DM0DOS-11 | 2026-08-30 12:54:53 | 49.96958 | 8.45109 | 86° | 128km/h | 12152m | -10.5m/s | -59.3°C | 37% | 200.2hPa | 2.5V | 02:52:19 | 02:24:35 | 00:00:00 | |
| DF3TZ-5 | 2026-08-30 12:54:49 | 49.96950 | 8.44960 | 85° | 122km/h | 12184m | -11.8m/s | 0°C | -1.0% | -1.0hPa | 2.5V | 00:00:00 | 00:00:00 | 00:00:00 | |
| DL9SK-14 | 2026-08-30 12:54:47 | 49.96948 | 8.44912 | 84° | 122km/h | 12195m | -10.7m/s | -59.4°C | 22.6% | 198.8hPa | 2.5V | 00:00:00 | 00:00:00 | 00:00:00 | |
| DD1CC8 | 2026-08-30 12:54:45 | 49.96941 | 8.44818 | 83° | 119km/h | 12218m | -11.4m/s | -59.3°C | 19.0% | 198.1hPa | 2.5V | 00:00:00 | 00:00:00 | 00:00:00 | |
| DM0DOS-11 | 2026-08-30 12:54:43 | 49.96926 | 8.44636 | 81° | 115km/h | 12264m | -11.9m/s | -58.7°C | 18.5% | 196.6hPa | 2.5V | 02:52:29 | 02:24:25 | 00:00:00 | |
| BIOWL1-15 | 2026-08-30 12:54:43 | 49.96938 | 8.44772 | 83° | 119km/h | 12229m | -12m/s | -59.2°C | 20.4% | 197.7hPa | 2.5V | 02:53:15 | 02:24:28 | 00:00:00 | |
| DO2KSM | 2026-08-30 12:54:40 | 49.96931 | 8.44681 | 83° | 115km/h | 12253m | -11.3m/s | -59.0°C | 14.2% | 197.0hPa | 2.5V | 02:53:00 | 00:00:00 | 00:00:00 | |
| DM0DOS-11 | 2026-08-30 12:54:33 | 49.96870 | 8.44196 | 77° | 119km/h | 12372m | -12.2m/s | -57.3°C | 11.7% | 193.3hPa | 2.5V | 02:52:39 | 02:24:15 | 00:00:00 | |
| BIOWL1-15 | 2026-08-30 12:54:33 | 49.96889 | 8.44330 | 78° | 115km/h | 12340m | -10.7m/s | -57.2°C | 10.3% | 194.3hPa | 2.5V | 02:53:15 | 02:24:18 | 00:00:00 | |
| BIOWL1-15 | 2026-08-30 12:54:24 | 49.96813 | 8.43832 | 76° | 119km/h | 12467m | -11.1m/s | -56.3°C | 7.2% | 190.4hPa | 2.6V | 02:53:15 | 02:24:07 | 00:00:00 | |
| DM0DOS-11 | 2026-08-30 12:54:23 | 49.96798 | 8.43741 | 75° | 120km/h | 12489m | -10.8m/s | -56.3°C | 9.5% | 189.7hPa | 2.5V | 02:52:49 | 02:24:05 | 00:00:00 | |
| DO2KSM | 2026-08-30 12:54:19 | 49.96797 | 8.43741 | 76° | 120km/h | 12489m | -10.8m/s | -56.3°C | 5.7% | 189.7hPa | 2.5V | 02:53:00 | 00:00:00 | 00:00:00 | |
| DF3TZ-5 | 2026-08-30 12:54:18 | 49.96775 | 8.43605 | 75° | 119km/h | 12523m | -11.8m/s | 0°C | -1.0% | -1.0hPa | 2.5V | 00:00:00 | 00:00:00 | 00:00:00 | |
| AU51GT2 | 2026-08-30 12:54:16 | 49.96767 | 8.43560 | 77° | 119km/h | 12534m | -11.6m/s | -56.3°C | 5.2% | 188.3hPa | 2.5V | 00:00:00 | 00:00:00 | 00:00:00 | |
| DL0LBS | 2026-08-30 12:54:15 | 49.96767 | 8.43560 | 78° | 119km/h | 12535m | -11.6m/s | -56.3°C | 5.2% | 188.4hPa | 2.5V | 02:53:00 | 00:00:00 | 00:00:00 | |
| DL8DAS-15 | 2026-08-30 12:54:14 | 49.96761 | 8.43514 | 78° | 120km/h | 12547m | -13.2m/s | -56.3°C | 5.1% | 188.0hPa | 2.5V | 00:00:00 | 00:00:00 | 00:00:00 | |
| DH7VM-15 | 2026-08-30 12:54:13 | 49.96754 | 8.43468 | 78° | 120km/h | 12560m | -12.9m/s | -56.3°C | 5.1% | 187.6hPa | 2.5V | 00:00:00 | 00:00:00 | 00:00:00 | |
| DM0DOS-11 | 2026-08-30 12:54:11 | 49.96729 | 8.43284 | 79° | 119km/h | 12608m | -10.4m/s | -55.7°C | 8.4% | 186.1hPa | 2.5V | 02:52:59 | 02:23:55 | 00:00:00 | |
| BIOWL1-15 | 2026-08-30 12:54:11 | 49.96735 | 8.43329 | 78° | 119km/h | 12597m | -11.6m/s | -55.8°C | 5.7% | 186.6hPa | 2.6V | 02:53:15 | 02:23:56 | 00:00:00 | |
| DB0DAN | 2026-08-30 12:54:10 | 49.96729 | 8.43284 | 79° | 113km/h | 12608m | -10.4m/s | -55.7°C | 4.8% | 186.14hPa | 2.5V | 00:00:00 | 00:00:00 | 00:00:00 | |
| DM7RM-13 | 2026-08-30 12:54:08 | 49.96718 | 8.43193 | 81° | 117km/h | 12629m | -11.3m/s | -55.5°C | 4.6% | 185.6hPa | 2.6V | 02:53:00 | 00:00:00 | 00:00:00 | |
| DJ2DS-15 | 2026-08-30 12:54:07 | 49.96713 | 8.43148 | 80° | 113km/h | 12640m | -10.1m/s | -55.4°C | 7.9% | 185.2hPa | 2.6V | 02:53:00 | 02:23:52 | 00:00:00 | |
| DM0DOS-11 | 2026-08-30 12:54:05 | 49.96675 | 8.42841 | 78° | 111km/h | 12721m | -11.8m/s | -55.2°C | 7.4% | 183hPa | 2.5V | 02:53:09 | 02:23:45 | 00:00:00 | |
| HSKMA3-T | 2026-08-30 12:54:03 | 49.96691 | 8.42971 | 80° | 113km/h | 12685m | -11.4m/s | 0°C | 0% | 184hPa | 2.5V | 03:00:54 | 02:23:48 | 00:00:00 | |
| BIOWL1-15 | 2026-08-30 12:54:00 | 49.96675 | 8.42841 | 79° | 111km/h | 12721m | -11.9m/s | -55.2°C | 4.9% | 183hPa | 2.5V | 02:53:15 | 02:23:45 | 00:00:00 | |
| DB0ND-19 | 2026-08-30 12:53:58 | 49.96664 | 8.42755 | 78° | 110km/h | 12746m | -12.1m/s | -55.1°C | 4.0% | 182.3hPa | 2.5V | 00:00:00 | 00:00:00 | 00:00:00 | |
| DB0DAN | 2026-08-30 12:53:55 | 49.96646 | 8.42628 | 77° | 106km/h | 12780m | -11.8m/s | -54.9°C | 3.9% | 181.28hPa | 2.5V | 00:00:00 | 00:00:00 | 00:00:00 | |
| BIOWL9-15 | 2026-08-30 12:53:54 | 49.96640 | 8.42586 | 77° | 111km/h | 12792m | -11.6m/s | -54.8°C | 3.9% | 181.0hPa | 2.5V | 00:00:00 | 00:00:00 | 00:00:00 | |
| DM0DOS-11 | 2026-08-30 12:53:51 | 49.96613 | 8.42412 | 76° | 117km/h | 12837m | -11.5m/s | -55.1°C | 7.2% | 179.7hPa | 2.5V | 02:53:19 | 02:23:35 | 00:00:00 | |
| BIOWL1-15 | 2026-08-30 12:53:49 | 49.96606 | 8.42368 | 78° | 117km/h | 12849m | -12.2m/s | -55.1°C | 4.6% | 179.4hPa | 2.5V | 02:54:06 | 02:23:34 | 00:00:00 | |
| DJ2DS-15 | 2026-08-30 12:53:47 | 49.96594 | 8.42277 | 78° | 111km/h | 12871m | -9.2m/s | -54.9°C | 7.1% | 178.7hPa | 2.6V | 00:00:00 | 02:23:32 | 00:00:00 | |
| DM7RM-13 | 2026-08-30 12:53:46 | 49.96594 | 8.42277 | 79° | 119km/h | 12871m | -9.3m/s | -55.0°C | 3.9% | 178.7hPa | 2.6V | 02:54:00 | 00:00:00 | 00:00:00 | |
| DM0DOS-11 | 2026-08-30 12:53:45 | 49.96556 | 8.41973 | 78° | 110km/h | 12948m | -10.9m/s | -55.3°C | 7.2% | 176.6hPa | 2.6V | 02:53:29 | 02:23:25 | 00:00:00 | |
| BIOWL1-15 | 2026-08-30 12:53:42 | 49.96544 | 8.41889 | 78° | 110km/h | 12971m | -12.8m/s | -55.3°C | 4.5% | 176hPa | 2.5V | 02:54:06 | 02:23:23 | 00:00:00 | |
| HSKMA3-T | 2026-08-30 12:53:40 | 49.96556 | 8.41973 | 78° | 110km/h | 12948m | -10.9m/s | 0°C | 0% | 176.6hPa | 2.6V | 03:00:54 | 02:23:25 | 00:00:00 | |
| BIOWL1-15 | 2026-08-30 12:53:29 | 49.96474 | 8.41426 | 77° | 108km/h | 13102m | -11.5m/s | -55.4°C | 4% | 172.4hPa | 2.5V | 02:54:06 | 02:23:12 | 00:00:00 | |
| HSKMA3-T | 2026-08-30 12:53:28 | 49.96480 | 8.41468 | 78° | 110km/h | 13090m | -11.2m/s | 0°C | 0% | 172.7hPa | 2.5V | 03:00:54 | 02:23:13 | 00:00:00 | |
| BIOWL1-15 | 2026-08-30 12:53:16 | 49.96407 | 8.40937 | 79° | 100km/h | 13242m | -11.2m/s | -54.3°C | 2.8% | 168.6hPa | 2.6V | 02:54:06 | 02:23:00 | 00:00:00 | |
| BIOWL1-15 | 2026-08-30 12:53:09 | 49.96359 | 8.40579 | 78° | 89km/h | 13363m | -11m/s | -54.2°C | 2.4% | 165.4hPa | 2.5V | 02:54:06 | 02:22:50 | 00:00:00 | |
| HSKMA3-T | 2026-08-30 12:53:08 | 49.96375 | 8.40682 | 78° | 91km/h | 13328m | -11.7m/s | 0°C | 0% | 166.3hPa | 2.5V | 03:00:54 | 02:22:53 | 00:00:00 | |
| BIOWL1-15 | 2026-08-30 12:52:54 | 49.96305 | 8.40205 | 73° | 88km/h | 13491m | -11.5m/s | -54.3°C | 2.2% | 162.2hPa | 2.5V | 02:54:57 | 02:22:39 | 00:00:00 | |
| HSKMA3-T | 2026-08-30 12:52:48 | 49.96266 | 8.40008 | 74° | 86km/h | 13564m | -12.6m/s | 0°C | 0% | 160.4hPa | 2.6V | 03:00:54 | 02:22:33 | 00:00:00 | |
| DJ2DS-15 | 2026-08-30 12:52:47 | 49.96259 | 8.39975 | 73° | 89km/h | 13577m | -12.9m/s | -54.4°C | 5.3% | 160.0hPa | 2.5V | 00:00:00 | 02:22:32 | 00:00:00 | |
| DF1GD-15 | 2026-08-30 12:52:46 | 49.96259 | 8.39975 | 73° | 88km/h | 13577m | -13.0m/s | -54.4°C | 2.4% | 160.0hPa | 2.5V | 02:54:00 | 00:00:00 | 00:00:00 | |
| DO9LL-15 | 2026-08-30 12:52:45 | 49.96246 | 8.39910 | 73° | 78km/h | 13604m | -14.0m/s | 0°C | 0% | 0hPa | 2.5V | 00:00:00 | 02:22:30 | 00:00:00 | |
| DM0DOS-11 | 2026-08-30 12:52:44 | 49.96205 | 8.39715 | 72° | 89km/h | 13677m | -10m/s | -53.6°C | 5% | 157.5hPa | 2.5V | 02:54:30 | 02:22:24 | 00:00:00 | |
| BIOWL1-15 | 2026-08-30 12:52:44 | 49.96239 | 8.39878 | 72° | 88km/h | 13617m | -13.1m/s | -54.1°C | 2.1% | 159.1hPa | 2.5V | 02:54:57 | 02:22:29 | 00:00:00 | |
| BIOWL7-15 | 2026-08-30 12:52:43 | 49.96239 | 8.39878 | 73° | 88km/h | 13617m | -13.1m/s | -54.1°C | 2.3% | 159.1hPa | 2.6V | 00:00:00 | 00:00:00 | 00:00:00 | |
| DL8DAS-15 | 2026-08-30 12:52:42 | 49.96232 | 8.39845 | 73° | 86km/h | 13630m | -12.4m/s | -54.0°C | 2.3% | 158.8hPa | 2.6V | 00:00:00 | 00:00:00 | 00:00:00 | |
| DB0DAN | 2026-08-30 12:52:40 | 49.96212 | 8.39748 | 73° | 84km/h | 13666m | -10.5m/s | -53.7°C | 2.2% | 157.77hPa | 2.6V | 00:00:00 | 00:00:00 | 00:00:00 | |
| DL1XH-west | 2026-08-30 12:52:40 | 49.96212 | 8.39748 | 73° | 89km/h | 13666m | -10.5m/s | -53.7°C | 2% | 157.8hPa | 2.6V | 02:54:57 | 02:22:25 | 00:00:00 | |
| DL1XH1-15 | 2026-08-30 12:52:38 | 49.96157 | 8.39485 | 70° | 88km/h | 13759m | -12.9m/s | -53.9°C | 5% | 155.5hPa | 2.5V | 02:54:37 | 02:22:17 | 00:00:00 | |
| BIOWL1-15 | 2026-08-30 12:52:36 | 49.96172 | 8.39550 | 72° | 88km/h | 13734m | -11.9m/s | -53.9°C | 2% | 156.2hPa | 2.5V | 02:54:57 | 02:22:19 | 00:00:00 | |
| DO2KSM | 2026-08-30 12:52:36 | 49.96185 | 8.39616 | 74° | 88km/h | 13709m | -12.4m/s | -53.8°C | 2.2% | 156.7hPa | 2.5V | 02:54:00 | 00:00:00 | 00:00:00 | |
| DM0DOS-11 | 2026-08-30 12:52:33 | 49.96133 | 8.39386 | 69° | 91km/h | 13798m | -12.6m/s | -54°C | 5.1% | 154.6hPa | 2.5V | 02:54:40 | 02:22:14 | 00:00:00 | |
| DL1XH-west | 2026-08-30 12:52:30 | 49.96141 | 8.39419 | 68° | 89km/h | 13785m | -13m/s | -54°C | 1.9% | 154.9hPa | 2.6V | 02:54:57 | 02:22:15 | 00:00:00 | |
| DJ2KF-10 | 2026-08-30 12:52:30 | 49.96141 | 8.39419 | 69° | 89km/h | 13785m | -12.9m/s | -54.0°C | 5.1% | 154.9hPa | 2.6V | 02:54:00 | 02:22:15 | 00:00:00 | |
| DL1ZP-14 | 2026-08-30 12:52:29 | 49.96124 | 8.39352 | 69° | 93km/h | 13810m | -12.3m/s | -54.0°C | 2.2% | 154.3hPa | 2.5V | 00:00:00 | 00:00:00 | 00:00:00 | |
| DL1KLB | 2026-08-30 12:52:28 | 49.96124 | 8.39352 | 70° | 95km/h | 13810m | -12.3m/s | -54.0°C | 2.2% | 154.3hPa | 2.6V | 02:54:00 | 00:00:00 | 00:00:00 | |
| DB0DAN | 2026-08-30 12:52:25 | 49.96098 | 8.39248 | 70° | 89km/h | 13847m | -12.3m/s | -54.2°C | 2.1% | 153.41hPa | 2.6V | 00:00:00 | 00:00:00 | 00:00:00 | |
| BIOWL1-15 | 2026-08-30 12:52:23 | 49.96031 | 8.38935 | 74° | 89km/h | 13959m | -13m/s | -54.5°C | 1.7% | 150.7hPa | 2.5V | 02:54:57 | 02:22:01 | 00:00:00 | |
| DL4BBY-15 | 2026-08-30 12:52:23 | 49.96082 | 8.39178 | 71° | 86km/h | 13873m | -12.1m/s | -55.5°C | 0% | 0hPa | 2.6V | 00:00:00 | 00:00:00 | 00:00:00 | |
| DM0DOS-11 | 2026-08-30 12:52:21 | 49.96051 | 8.39039 | 72° | 93km/h | 13920m | -12.8m/s | -54.6°C | 5.1% | 151.7hPa | 2.6V | 02:54:50 | 02:22:04 | 00:00:00 | |
| DL1XH-west | 2026-08-30 12:52:19 | 49.96051 | 8.39039 | 73° | 93km/h | 13920m | -12.8m/s | -54.6°C | 1.8% | 151.7hPa | 2.6V | 02:54:57 | 02:22:04 | 00:00:00 | |
| DL1XH1-15 | 2026-08-30 12:52:18 | 49.96031 | 8.38935 | 73° | 89km/h | 13959m | -12.9m/s | -54.5°C | 5% | 150.7hPa | 2.5V | 02:54:53 | 02:22:01 | 00:00:00 | |
| HSKMA3-T | 2026-08-30 12:52:15 | 49.96025 | 8.38902 | 74° | 88km/h | 13971m | -12.2m/s | 0°C | 0% | 150.4hPa | 2.5V | 03:00:54 | 02:22:00 | 00:00:00 | |
| DM0DOS-11 | 2026-08-30 12:52:14 | 49.95990 | 8.38705 | 75° | 89km/h | 14043m | -13.6m/s | -54.4°C | 5% | 148.7hPa | 2.5V | 02:55:00 | 02:21:54 | 00:00:00 | |
| BIOWL1-15 | 2026-08-30 12:52:12 | 49.96008 | 8.38805 | 73° | 88km/h | 14006m | -11.3m/s | -54.4°C | 1.7% | 149.6hPa | 2.5V | 02:54:57 | 02:21:57 | 00:00:00 | |
| DL1XH-west | 2026-08-30 12:52:09 | 49.95990 | 8.38705 | 75° | 89km/h | 14043m | -13.6m/s | -54.4°C | 1.6% | 148.7hPa | 2.5V | 02:55:48 | 02:21:54 | 00:00:00 | |
| HSKMA3-T | 2026-08-30 12:52:03 | 49.95960 | 8.38507 | 78° | 84km/h | 14122m | -13.5m/s | 0°C | 0% | 147hPa | 2.5V | 03:00:54 | 02:21:48 | 00:00:00 | |
| DM0DOS-11 | 2026-08-30 12:52:02 | 49.95944 | 8.38387 | 76° | 77km/h | 14177m | -12.2m/s | -54.3°C | 4.8% | 145.7hPa | 2.5V | 02:55:10 | 02:21:44 | 00:00:00 | |
| DO2JMG | 2026-08-30 12:51:57 | 49.95935 | 8.38330 | 77° | 73km/h | 14200m | -11.4m/s | -54.1°C | 1.5% | 145.2hPa | 2.5V | 02:55:48 | 02:21:42 | 00:00:00 | |
| DC4HF-4 | 2026-08-30 12:51:56 | 49.95926 | 8.38275 | 76° | 71km/h | 14225m | -11.2m/s | -54.1°C | 1.9% | 144.6hPa | 2.6V | 00:00:00 | 00:00:00 | 00:00:00 | |
| DB0DAN | 2026-08-30 12:51:55 | 49.95926 | 8.38275 | 76° | 69km/h | 14225m | -11.2m/s | -54.1°C | 1.9% | 144.6hPa | 2.6V | 00:00:00 | 00:00:00 | 00:00:00 | |
| HSKMA3-T | 2026-08-30 12:51:53 | 49.95917 | 8.38220 | 74° | 73km/h | 14248m | -11.2m/s | 0°C | 0% | 144.1hPa | 2.5V | 03:00:54 | 02:21:38 | 00:00:00 | |
| DL4BBY-15 | 2026-08-30 12:51:53 | 49.95917 | 8.38220 | 75° | 69km/h | 14248m | -11.2m/s | -55.2°C | 0% | 0hPa | 2.6V | 00:00:00 | 00:00:00 | 00:00:00 | |
| DM0DOS-11 | 2026-08-30 12:51:52 | 49.95896 | 8.38106 | 74° | 78km/h | 14295m | -14.4m/s | -54.2°C | 4.7% | 143hPa | 2.6V | 02:55:20 | 02:21:34 | 00:00:00 | |
| DL1XH-west | 2026-08-30 12:51:52 | 49.95912 | 8.38192 | 75° | 75km/h | 14260m | -11.9m/s | -54.1°C | 1.5% | 143.8hPa | 2.5V | 02:55:48 | 02:21:37 | 00:00:00 | |
| BIOWL1-15 | 2026-08-30 12:51:49 | 49.95896 | 8.38106 | 75° | 78km/h | 14295m | -14.4m/s | -54.2°C | 1.4% | 143hPa | 2.6V | 02:55:48 | 02:21:34 | 00:00:00 | |
| DO2JMG | 2026-08-30 12:51:47 | 49.95885 | 8.38048 | 73° | 77km/h | 14324m | -13.5m/s | -54.3°C | 1.5% | 142.4hPa | 2.5V | 02:55:48 | 02:21:32 | 00:00:00 | |
| HSKMA3-T | 2026-08-30 12:51:42 | 49.95859 | 8.37904 | 76° | 75km/h | 14387m | -13.2m/s | 0°C | 0% | 141hPa | 2.6V | 03:00:54 | 02:21:27 | 00:00:00 | |
| DM0DOS-11 | 2026-08-30 12:51:41 | 49.95845 | 8.37817 | 77° | 75km/h | 14423m | -13.1m/s | -54.9°C | 5% | 140.2hPa | 2.5V | 02:55:30 | 02:21:24 | 00:00:00 | |
| DL1XH-west | 2026-08-30 12:51:41 | 49.95854 | 8.37875 | 76° | 75km/h | 14399m | -11m/s | -54.8°C | 1.7% | 140.7hPa | 2.5V | 02:55:48 | 02:21:26 | 00:00:00 | |
| DB0DAN | 2026-08-30 12:51:40 | 49.95850 | 8.37846 | 76° | 73km/h | 14411m | -12.6m/s | -54.9°C | 2% | 140.46hPa | 2.5V | 00:00:00 | 00:00:00 | 00:00:00 | |
| DL1XH1-15 | 2026-08-30 12:51:38 | 49.95837 | 8.37762 | 76° | 71km/h | 14450m | -13.5m/s | -54.7°C | 4.9% | 139.6hPa | 2.6V | 02:55:32 | 02:21:22 | 00:00:00 | |
| BIOWL1-15 | 2026-08-30 12:51:38 | 49.95841 | 8.37789 | 78° | 73km/h | 14437m | -13.1m/s | -54.8°C | 1.6% | 139.9hPa | 2.6V | 02:55:48 | 02:21:23 | 00:00:00 | |
| DO2JMG | 2026-08-30 12:51:36 | 49.95833 | 8.37735 | 78° | 68km/h | 14464m | -14.2m/s | -54.7°C | 1.6% | 139.3hPa | 2.5V | 02:55:48 | 02:21:21 | 00:00:00 | |
| DL8DAS-14 | 2026-08-30 12:51:35 | 49.95826 | 8.37684 | 74° | 64km/h | 14494m | -14.1m/s | -54.6°C | 1.9% | 138.7hPa | 2.5V | 00:00:00 | 00:00:00 | 00:00:00 | |
| DL1XH1-15 | 2026-08-30 12:51:32 | 49.95792 | 8.37522 | 67° | 62km/h | 14583m | -11.1m/s | -54.1°C | 4.8% | 136.7hPa | 2.5V | 02:55:42 | 02:21:12 | 00:00:00 | |
| DL1XH-west | 2026-08-30 12:51:30 | 49.95803 | 8.37567 | 70° | 60km/h | 14559m | -13.2m/s | -54.3°C | 1.6% | 137.3hPa | 2.5V | 02:55:48 | 02:21:14 | 00:00:00 | |
| BIOWL1-15 | 2026-08-30 12:51:29 | 49.95792 | 8.37522 | 68° | 62km/h | 14583m | -11.1m/s | -54.1°C | 1.6% | 136.7hPa | 2.5V | 02:55:48 | 02:21:12 | 00:00:00 | |
| DO2JMG | 2026-08-30 12:51:26 | 49.95786 | 8.37500 | 66° | 62km/h | 14594m | -11.8m/s | -54.1°C | 1.6% | 136.5hPa | 2.6V | 02:55:48 | 02:21:11 | 00:00:00 | |
| DL1XH-west | 2026-08-30 12:51:20 | 49.95744 | 8.37359 | 67° | 68km/h | 14668m | -12.1m/s | -54.2°C | 1.7% | 134.9hPa | 2.6V | 02:56:39 | 02:21:05 | 00:00:00 | |
| DL8OAI-8 | 2026-08-30 12:51:19 | 49.95744 | 8.37359 | 67° | 68km/h | 14668m | -12.1m/s | -54.2°C | 2.0% | 134.9hPa | 2.5V | 02:56:00 | 00:00:00 | 00:00:00 | |
| DL1XH1-15 | 2026-08-30 12:51:18 | 49.95723 | 8.37286 | 66° | 69km/h | 14704m | -13.2m/s | -54.4°C | 5% | 134.2hPa | 2.5V | 02:55:52 | 02:21:02 | 00:00:00 | |
| BIOWL1-15 | 2026-08-30 12:51:17 | 49.95700 | 8.37211 | 62° | 71km/h | 14741m | -12.5m/s | -54.5°C | 1.7% | 133.4hPa | 2.5V | 02:56:39 | 02:20:59 | 00:00:00 | |
| DO2JMG | 2026-08-30 12:51:16 | 49.95716 | 8.37261 | 65° | 71km/h | 14717m | -12.8m/s | -54.5°C | 1.7% | 133.9hPa | 2.5V | 02:56:39 | 02:21:01 | 00:00:00 | |
| HSKMA3-T | 2026-08-30 12:51:15 | 49.95708 | 8.37236 | 64° | 71km/h | 14729m | -12.1m/s | 0°C | 0% | 133.6hPa | 2.5V | 03:00:54 | 02:21:00 | 00:00:00 | |
| DL3AQ-11 | 2026-08-30 12:51:15 | 49.95708 | 8.37236 | 63° | 71km/h | 14729m | -12.1m/s | -54.5°C | 2.0% | 133.6hPa | 2.6V | 00:00:00 | 00:00:00 | 00:00:00 | |
| DM0DOS-11 | 2026-08-30 12:51:12 | 49.95683 | 8.37162 | 62° | 71km/h | 14767m | -13.7m/s | -54.4°C | 4.9% | 132.9hPa | 2.6V | 02:55:57 | 02:20:57 | 00:00:00 | |
| DL1XH1-15 | 2026-08-30 12:51:12 | 49.95638 | 8.37039 | 60° | 73km/h | 14831m | -15.2m/s | -54.5°C | 4.9% | 131.6hPa | 2.6V | 02:56:02 | 02:20:52 | 00:00:00 | |
| DL1XH-west | 2026-08-30 12:51:09 | 49.95656 | 8.37088 | 58° | 73km/h | 14805m | -10.8m/s | -54.6°C | 1.7% | 132hPa | 2.5V | 02:56:39 | 02:20:54 | 00:00:00 | |
| BIOWL1-15 | 2026-08-30 12:51:05 | 49.95620 | 8.36990 | 60° | 71km/h | 14859m | -13.5m/s | -54.6°C | 1.7% | 131hPa | 2.5V | 02:56:39 | 02:20:50 | 00:00:00 | |
| DL1XH-west | 2026-08-30 12:50:59 | 49.95568 | 8.36834 | 68° | 77km/h | 14943m | -14.1m/s | -55°C | 1.8% | 129.3hPa | 2.6V | 02:56:39 | 02:20:44 | 00:00:00 | |
| DL1XH1-15 | 2026-08-30 12:50:58 | 49.95554 | 8.36777 | 70° | 80km/h | 14969m | -12.8m/s | -54.9°C | 5.2% | 128.7hPa | 2.5V | 02:56:12 | 02:20:42 | 00:00:00 | |
| DB0UT-9 | 2026-08-30 12:50:57 | 49.95561 | 8.36806 | 70° | 78km/h | 14957m | -12.7m/s | -54.9°C | 2.1% | 129.0hPa | 2.5V | 02:56:00 | 00:00:00 | 00:00:00 | |
| DB0DAN | 2026-08-30 12:50:55 | 49.95542 | 8.36717 | 72° | 75km/h | 14995m | -13.7m/s | -54.9°C | 2% | 128.19hPa | 2.5V | 00:00:00 | 00:00:00 | 00:00:00 | |
| DO2JMG | 2026-08-30 12:50:55 | 49.95542 | 8.36717 | 73° | 78km/h | 14995m | -13.7m/s | -54.9°C | 1.8% | 128.2hPa | 2.5V | 02:56:39 | 02:20:40 | 00:00:00 | |
| BIOWL1-15 | 2026-08-30 12:50:55 | 49.95531 | 8.36659 | 76° | 78km/h | 15024m | -14.9m/s | -54.9°C | 1.7% | 127.7hPa | 2.6V | 02:56:39 | 02:20:38 | 00:00:00 | |
| DL4BBY-15 | 2026-08-30 12:50:53 | 49.95531 | 8.36659 | 77° | 62km/h | 15024m | -14.9m/s | -56.1°C | 0% | 0hPa | 2.6V | 00:00:00 | 00:00:00 | 00:00:00 | |
| DL1XH1-15 | 2026-08-30 12:50:52 | 49.95511 | 8.36485 | 83° | 73km/h | 15103m | -11.7m/s | -54.9°C | 5.2% | 126hPa | 2.6V | 02:56:22 | 02:20:32 | 00:00:00 | |
| HSKMA3-T | 2026-08-30 12:50:51 | 49.95523 | 8.36600 | 78° | 75km/h | 15053m | -14.4m/s | 0°C | 0% | 0hPa | 2.5V | 03:00:54 | 02:20:36 | 00:00:00 | |
| DL1XH-west | 2026-08-30 12:50:48 | 49.95514 | 8.36514 | 82° | 73km/h | 15092m | -11.3m/s | -55°C | 1.7% | 126.3hPa | 2.6V | 02:56:39 | 02:20:33 | 00:00:00 | |
| DO2JMG | 2026-08-30 12:50:45 | 49.95507 | 8.36427 | 85° | 75km/h | 15128m | -13m/s | -54.7°C | 1.6% | 125.6hPa | 2.5V | 02:56:39 | 02:20:30 | 00:00:00 | |
| BIOWL1-15 | 2026-08-30 12:50:43 | 49.95505 | 8.36213 | 93° | 62km/h | 15233m | -14m/s | -54.1°C | 1.2% | 123.5hPa | 2.5V | 02:56:39 | 02:20:22 | 00:00:00 | |
| DB0DAN | 2026-08-30 12:50:40 | 49.95502 | 8.36288 | 90° | 64km/h | 15194m | -12.1m/s | -54°C | 1.7% | 124.27hPa | 2.6V | 00:00:00 | 00:00:00 | 00:00:00 | |
| DL1XH-west | 2026-08-30 12:50:38 | 49.95504 | 8.36237 | 93° | 62km/h | 15220m | -13.4m/s | -54°C | 1.2% | 123.8hPa | 2.5V | 02:56:39 | 02:20:23 | 00:00:00 | |
| DO2JMG | 2026-08-30 12:50:35 | 49.95507 | 8.36166 | 94° | 58km/h | 15260m | -13.1m/s | -54.2°C | 1.1% | 123hPa | 2.6V | 02:56:39 | 02:20:20 | 00:00:00 | |
| DL3AQ-11 | 2026-08-30 12:50:35 | 49.95508 | 8.36144 | 96° | 55km/h | 15273m | -12.5m/s | -54.2°C | 1.6% | 122.8hPa | 2.6V | 00:00:00 | 00:00:00 | 00:00:00 | |
| DL8DAS-14 | 2026-08-30 12:50:33 | 49.95512 | 8.36101 | 95° | 51km/h | 15298m | -12.1m/s | -54.0°C | 1.6% | 122.3hPa | 2.6V | 00:00:00 | 00:00:00 | 00:00:00 | |
| DL1XH1-15 | 2026-08-30 12:50:32 | 49.95515 | 8.36007 | 90° | 46km/h | 15362m | -12.6m/s | -53.3°C | 4.1% | 121.1hPa | 2.6V | 02:56:42 | 02:20:12 | 00:00:00 | |
| BIOWL1-15 | 2026-08-30 12:50:31 | 49.95514 | 8.36062 | 95° | 47km/h | 15324m | -12.6m/s | -53.7°C | 0.9% | 121.8hPa | 2.5V | 02:56:39 | 02:20:15 | 00:00:00 | |
| DL1XH-west | 2026-08-30 12:50:28 | 49.95515 | 8.36025 | 92° | 47km/h | 15349m | -13.5m/s | -53.5°C | 0.8% | 121.3hPa | 2.6V | 02:57:30 | 02:20:13 | 00:00:00 | |
| DM0DOS-11 | 2026-08-30 12:50:27 | 49.95515 | 8.35958 | 85° | 42km/h | 15402m | -15m/s | -53.3°C | 4% | 120.3hPa | 2.5V | 02:56:45 | 02:20:09 | 00:00:00 | |
| DO2JMG | 2026-08-30 12:50:24 | 49.95515 | 8.35958 | 85° | 42km/h | 15403m | -15m/s | -53.3°C | 0.7% | 120.3hPa | 2.5V | 02:57:30 | 02:20:09 | 00:00:00 | |
| HSKMA3-T | 2026-08-30 12:50:22 | 49.95512 | 8.35927 | 80° | 40km/h | 15432m | -15.9m/s | 0°C | 0% | 0hPa | 2.5V | 03:00:54 | 02:20:07 | 00:00:00 | |
| BIOWL1-15 | 2026-08-30 12:50:21 | 49.95505 | 8.35884 | 73° | 35km/h | 15477m | -15.1m/s | -53.5°C | 0.7% | 119hPa | 2.6V | 02:57:30 | 02:20:04 | 00:00:00 | |
| DB0ND-19 | 2026-08-30 12:50:21 | 49.95510 | 8.35912 | 76° | 37km/h | 15448m | -14.7m/s | -53.4°C | 1.4% | 119.5hPa | 2.5V | 00:00:00 | 00:00:00 | 00:00:00 | |
| DB0UT-7 | 2026-08-30 12:50:18 | 49.95502 | 8.35871 | 69° | 44km/h | 15492m | -14.3m/s | -53.5°C | 4.1% | 118.6hPa | 2.5V | 02:56:00 | 00:00:00 | 00:00:00 | |
| DM0DOS-11 | 2026-08-30 12:50:17 | 49.95487 | 8.35817 | 64° | 38km/h | 15547m | -13.9m/s | -53.9°C | 4.2% | 117.6hPa | 2.6V | 02:56:55 | 02:19:59 | 00:00:00 | |
| DL1XH-west | 2026-08-30 12:50:17 | 49.95499 | 8.35858 | 66° | 37km/h | 15506m | -14.8m/s | -53.6°C | 0.7% | 118.3hPa | 2.5V | 02:57:30 | 02:20:02 | 00:00:00 | |
| DO2JMG | 2026-08-30 12:50:13 | 49.95483 | 8.35804 | 60° | 40km/h | 15561m | -12.9m/s | -53.9°C | 0.7% | 117.3hPa | 2.6V | 02:57:30 | 02:19:58 | 00:00:00 | |
| HSKMA3-T | 2026-08-30 12:50:08 | 49.95457 | 8.35734 | 59° | 44km/h | 15630m | -13.3m/s | 0°C | 0% | 0hPa | 2.5V | 03:00:54 | 02:19:53 | 00:00:00 | |
| DL1XH-west | 2026-08-30 12:50:06 | 49.95445 | 8.35705 | 54° | 44km/h | 15657m | -14.5m/s | -54.6°C | 0.9% | 115.7hPa | 2.6V | 02:57:30 | 02:19:51 | 00:00:00 | |
| DO2JMG | 2026-08-30 12:50:02 | 49.95419 | 8.35652 | 52° | 42km/h | 15712m | -12.6m/s | -55°C | 0.9% | 114.6hPa | 2.5V | 02:57:30 | 02:19:47 | 00:00:00 | |
| BIOWL1-15 | 2026-08-30 12:50:00 | 49.95406 | 8.35625 | 55° | 46km/h | 15738m | -13.9m/s | -54.9°C | 0.9% | 114.1hPa | 2.6V | 02:57:30 | 02:19:45 | 00:00:00 | |
| DL1XH1-15 | 2026-08-30 12:49:58 | 49.95385 | 8.35582 | 52° | 44km/h | 15782m | -16.2m/s | 0°C | 0% | 0hPa | 2.5V | 02:57:12 | 02:19:42 | 00:00:00 | |
| DM0DOS-11 | 2026-08-30 12:49:57 | 49.95362 | 8.35539 | 51° | 49km/h | 15826m | -14.9m/s | -54.4°C | 4.3% | 112.6hPa | 2.5V | 02:57:15 | 02:19:39 | 00:00:00 | |
| DL1XH-west | 2026-08-30 12:49:55 | 49.95370 | 8.35553 | 52° | 49km/h | 15812m | -13.4m/s | -54.4°C | 0.7% | 112.8hPa | 2.5V | 02:57:30 | 02:19:40 | 00:00:00 | |
| DL3AQ-11 | 2026-08-30 12:49:55 | 49.95362 | 8.35539 | 51° | 47km/h | 15826m | -14.9m/s | -54.4°C | 1.4% | 112.6hPa | 2.5V | 00:00:00 | 00:00:00 | 00:00:00 | |
| DL4BBY-15 | 2026-08-30 12:49:53 | 49.95354 | 8.35523 | 53° | 57km/h | 15842m | -14.3m/s | -55.6°C | 0% | 0hPa | 2.5V | 00:00:00 | 00:00:00 | 00:00:00 | |
| DL1XH1-15 | 2026-08-30 12:49:52 | 49.95301 | 8.35430 | 45° | 57km/h | 15933m | -15.4m/s | -54.4°C | 4.2% | 110.7hPa | 2.5V | 02:57:22 | 02:19:32 | 00:00:00 | |
| DO2JMG | 2026-08-30 12:49:52 | 49.95347 | 8.35508 | 50° | 49km/h | 15856m | -15.5m/s | -54.4°C | 0.7% | 112.1hPa | 2.6V | 02:57:30 | 02:19:37 | 00:00:00 | |
| BIOWL1-15 | 2026-08-30 12:49:49 | 49.95321 | 8.35462 | 48° | 53km/h | 15903m | -16.2m/s | -54.3°C | 0.7% | 111.3hPa | 2.5V | 02:57:30 | 02:19:34 | 00:00:00 | |
| DO1YAY-16 | 2026-08-30 12:49:46 | 49.95281 | 8.35397 | 45° | 60km/h | 15963m | -14.4m/s | -54.6°C | 1.4% | 110.2hPa | 2.6V | 00:00:00 | 00:00:00 | 00:00:00 | |
| DL1XH-west | 2026-08-30 12:49:44 | 49.95270 | 8.35380 | 47° | 62km/h | 15977m | -13.3m/s | -54.7°C | 0.7% | 110hPa | 2.6V | 02:57:30 | 02:19:29 | 00:00:00 | |
| DO2JMG | 2026-08-30 12:49:41 | 49.95238 | 8.35323 | 52° | 66km/h | 16017m | -14m/s | -54.8°C | 0.7% | 109.3hPa | 2.5V | 02:57:30 | 02:19:26 | 00:00:00 | |
| DB0DAN | 2026-08-30 12:49:40 | 49.95227 | 8.35303 | 52° | 60km/h | 16031m | -14.6m/s | -54.8°C | 1.4% | 109.06hPa | 2.5V | 00:00:00 | 00:00:00 | 00:00:00 | |
| BIOWL1-15 | 2026-08-30 12:49:38 | 49.95197 | 8.35242 | 55° | 66km/h | 16074m | -15.5m/s | -54.9°C | 0.7% | 108.3hPa | 2.6V | 02:58:21 | 02:19:22 | 00:00:00 | |
| DL1XH-west | 2026-08-30 12:49:33 | 49.95162 | 8.35161 | 59° | 60km/h | 16136m | -16.3m/s | -54.5°C | 0.6% | 107.3hPa | 2.5V | 02:58:21 | 02:19:18 | 00:00:00 | |
| DL1XH1-15 | 2026-08-30 12:49:32 | 49.95121 | 8.35054 | 60° | 51km/h | 16222m | -13m/s | -54.7°C | 4.3% | 105.9hPa | 2.5V | 02:57:42 | 02:19:12 | 00:00:00 | |
| DO2JMG | 2026-08-30 12:49:30 | 49.95140 | 8.35105 | 59° | 51km/h | 16181m | -15.2m/s | -54.6°C | 0.7% | 106.6hPa | 2.6V | 02:58:21 | 02:19:15 | 00:00:00 | |
| BIOWL1-15 | 2026-08-30 12:49:26 | 49.95115 | 8.35037 | 62° | 47km/h | 16236m | -15.1m/s | -54.7°C | 0.6% | 105.7hPa | 2.5V | 02:58:21 | 02:19:11 | 00:00:00 | |
| DB0DAN | 2026-08-30 12:49:25 | 49.95109 | 8.35020 | 65° | 49km/h | 16251m | -15.9m/s | -54.7°C | 1.3% | 105.42hPa | 2.6V | 00:00:00 | 00:00:00 | 00:00:00 | |
| DL1XH-west | 2026-08-30 12:49:22 | 49.95094 | 8.34968 | 71° | 47km/h | 16300m | -17.3m/s | -54.8°C | 0.6% | 104.7hPa | 2.5V | 02:58:21 | 02:19:07 | 00:00:00 | |
| DO2JMG | 2026-08-30 12:49:19 | 49.95083 | 8.34915 | 73° | 46km/h | 16349m | -15.5m/s | -54.4°C | 0.5% | 103.8hPa | 2.5V | 02:58:21 | 02:19:04 | 00:00:00 | |
| DL1XH1-15 | 2026-08-30 12:49:18 | 49.95076 | 8.34881 | 73° | 46km/h | 16379m | -14m/s | -54.4°C | 4.2% | 103.3hPa | 2.6V | 02:57:52 | 02:19:02 | 00:00:00 | |
| DB0UT-7 | 2026-08-30 12:49:18 | 49.95079 | 8.34898 | 71° | 44km/h | 16364m | -15.7m/s | -54.4°C | 4.2% | 103.6hPa | 2.5V | 00:00:00 | 00:00:00 | 00:00:00 | |
| DB0UT-9 | 2026-08-30 12:49:16 | 49.95075 | 8.34881 | 74° | 46km/h | 16379m | -14.0m/s | -54.4°C | 1.3% | 103.3hPa | 2.5V | 02:58:00 | 00:00:00 | 00:00:00 | |
| CB1BUN | 2026-08-30 12:49:15 | 49.95068 | 8.34848 | 73° | 42km/h | 16407m | -12.0m/s | -54.4°C | 1.3% | 102.8hPa | 2.5V | 02:58:00 | 00:00:00 | 00:00:00 | |
| DO1YAY-16 | 2026-08-30 12:49:14 | 49.95065 | 8.34832 | 69° | 42km/h | 16420m | -13.1m/s | -54.3°C | 1.3% | 102.7hPa | 2.5V | 00:00:00 | 00:00:00 | 00:00:00 | |
| DL8DAS-15 | 2026-08-30 12:49:13 | 49.95064 | 8.34832 | 70° | 44km/h | 16420m | -13.1m/s | -54.3°C | 1.3% | 102.7hPa | 2.5V | 00:00:00 | 00:00:00 | 00:00:00 | |
| DL1XH1-15 | 2026-08-30 12:49:12 | 49.95033 | 8.34726 | 58° | 44km/h | 16514m | -12.9m/s | -54.1°C | 4.2% | 101.2hPa | 2.5V | 02:58:02 | 02:18:52 | 00:00:00 | |
| DL1XH-west | 2026-08-30 12:49:11 | 49.95053 | 8.34787 | 67° | 42km/h | 16460m | -12.2m/s | -54.1°C | 0.6% | 102hPa | 2.6V | 02:58:21 | 02:18:56 | 00:00:00 | |
| DO2JMG | 2026-08-30 12:49:08 | 49.95038 | 8.34741 | 62° | 46km/h | 16501m | -13.6m/s | -54.1°C | 0.5% | 101.4hPa | 2.5V | 02:58:21 | 02:18:53 | 00:00:00 | |
| DM0DOS-11 | 2026-08-30 12:49:07 | 49.95010 | 8.34670 | 53° | 44km/h | 16574m | -16m/s | -54.1°C | 4.1% | 100.3hPa | 2.5V | 02:58:06 | 02:18:48 | 00:00:00 | |
| BIOWL1-15 | 2026-08-30 12:49:05 | 49.95021 | 8.34697 | 56° | 44km/h | 16542m | -15.2m/s | -54.2°C | 0.5% | 100.8hPa | 2.6V | 02:58:21 | 02:18:50 | 00:00:00 | |
| DL1XH-west | 2026-08-30 12:49:01 | 49.94997 | 8.34644 | 54° | 40km/h | 16605m | -15.8m/s | -54°C | 0.5% | 99.8hPa | 2.5V | 02:58:21 | 02:18:46 | 00:00:00 | |
| BIOWL1-15 | 2026-08-30 12:48:59 | 49.94958 | 8.34561 | 53° | 42km/h | 16697m | -15.2m/s | -53.4°C | 0.3% | 98.4hPa | 2.6V | 02:58:21 | 02:18:40 | 00:00:00 | |
| DL1XH1-15 | 2026-08-30 12:48:58 | 49.94971 | 8.34588 | 55° | 44km/h | 16668m | -14.7m/s | -53.6°C | 4% | 98.8hPa | 2.5V | 02:58:12 | 02:18:42 | 00:00:00 | |
| DO2JMG | 2026-08-30 12:48:58 | 49.94977 | 8.34603 | 55° | 46km/h | 16652m | -16m/s | -54°C | 0.4% | 99hPa | 2.5V | 02:58:21 | 02:18:43 | 00:00:00 | |
| DM0DOS-11 | 2026-08-30 12:48:57 | 49.94938 | 8.34523 | 48° | 40km/h | 16744m | -14.4m/s | -53.2°C | 3.8% | 97.6hPa | 2.5V | 02:58:17 | 02:18:37 | 00:00:00 | |
| DC4HF-4 | 2026-08-30 12:48:55 | 49.94958 | 8.34561 | 53° | 40km/h | 16697m | -15.2m/s | -53.4°C | 1.1% | 98.4hPa | 2.6V | 00:00:00 | 00:00:00 | 00:00:00 | |
| CB1BUN | 2026-08-30 12:48:54 | 49.94951 | 8.34548 | 50° | 42km/h | 16713m | -15.4m/s | -53.2°C | 1.1% | 98.1hPa | 2.6V | 02:58:00 | 00:00:00 | 00:00:00 | |
| DL4BBY-15 | 2026-08-30 12:48:53 | 49.94944 | 8.34535 | 51° | 44km/h | 16729m | -15.4m/s | -54.4°C | 0% | 0hPa | 2.6V | 00:00:00 | 00:00:00 | 00:00:00 | |
| DL1XH1-15 | 2026-08-30 12:48:52 | 49.94899 | 8.34462 | 41° | 44km/h | 16816m | -13.6m/s | -53.2°C | 3.8% | 96.5hPa | 2.6V | 02:58:22 | 02:18:32 | 00:00:00 | |
| DL1XH-west | 2026-08-30 12:48:50 | 49.94922 | 8.34498 | 44° | 44km/h | 16774m | -15.1m/s | -53.3°C | 0.3% | 97.2hPa | 2.5V | 02:58:21 | 02:18:35 | 00:00:00 | |
| DO2JMG | 2026-08-30 12:48:47 | 49.94898 | 8.34462 | 41° | 44km/h | 16816m | -13.6m/s | -53.2°C | 0.3% | 96.6hPa | 2.6V | 02:59:12 | 02:18:32 | 00:00:00 | |
| BIOWL1-15 | 2026-08-30 12:48:44 | 49.94874 | 8.34428 | 39° | 44km/h | 16856m | -13.4m/s | -53.2°C | 0.2% | 96hPa | 2.5V | 02:59:12 | 02:18:29 | 00:00:00 | |
| DL1XH-west | 2026-08-30 12:48:40 | 49.94839 | 8.34387 | 35° | 42km/h | 16912m | -14.1m/s | -53.4°C | 0.2% | 95.1hPa | 2.6V | 02:59:12 | 02:18:25 | 00:00:00 | |
| DF1GD-15 | 2026-08-30 12:48:39 | 49.94839 | 8.34386 | 36° | 42km/h | 16912m | -14.1m/s | -53.4°C | 1.1% | 95.1hPa | 2.5V | 02:59:00 | 00:00:00 | 00:00:00 | |
| DL1XH1-15 | 2026-08-30 12:48:38 | 49.94814 | 8.34360 | 35° | 38km/h | 16953m | -13.4m/s | -53.7°C | 3.8% | 94.5hPa | 2.5V | 02:58:32 | 02:18:22 | 00:00:00 | |
| DO2JMG | 2026-08-30 12:48:36 | 49.94806 | 8.34351 | 36° | 38km/h | 16967m | -14.1m/s | -53.8°C | 0.3% | 94.3hPa | 2.5V | 02:59:12 | 02:18:21 | 00:00:00 | |
| BIOWL1-15 | 2026-08-30 12:48:34 | 49.94790 | 8.34331 | 42° | 42km/h | 16998m | -16.5m/s | -54.1°C | 0.4% | 93.9hPa | 2.6V | 02:59:12 | 02:18:19 | 00:00:00 | |
| DL1XH1-15 | 2026-08-30 12:48:32 | 49.94735 | 8.34245 | 51° | 47km/h | 17104m | -13.7m/s | -54.8°C | 4.2% | 92.3hPa | 2.6V | 02:58:42 | 02:18:12 | 00:00:00 | |
| DL1XH-west | 2026-08-30 12:48:30 | 49.94758 | 8.34286 | 46° | 46km/h | 17058m | -14.5m/s | -54.5°C | 0.4% | 92.9hPa | 2.5V | 02:59:12 | 02:18:15 | 00:00:00 | |
| DO2JMG | 2026-08-30 12:48:26 | 49.94727 | 8.34230 | 54° | 47km/h | 17118m | -13.5m/s | -54.8°C | 0.5% | 92hPa | 2.5V | 02:59:12 | 02:18:11 | 00:00:00 | |
| BIOWL1-15 | 2026-08-30 12:48:24 | 49.94712 | 8.34198 | 54° | 53km/h | 17148m | -16.5m/s | -54.7°C | 0.4% | 91.6hPa | 2.5V | 02:59:12 | 02:18:09 | 00:00:00 | |
| DL1XH-west | 2026-08-30 12:48:20 | 49.94680 | 8.34130 | 55° | 57km/h | 17212m | -14.7m/s | -54.8°C | 0.5% | 90.8hPa | 2.5V | 02:59:12 | 02:18:05 | 00:00:00 | |
| DL8DAS-15 | 2026-08-30 12:48:19 | 49.94680 | 8.34130 | 56° | 57km/h | 17213m | -14.7m/s | -54.8°C | 1.2% | 90.7hPa | 2.6V | 00:00:00 | 00:00:00 | 00:00:00 | |
| DL1XH1-15 | 2026-08-30 12:48:18 | 49.94656 | 8.34075 | 57° | 57km/h | 17255m | -15.6m/s | -54.7°C | 4.2% | 90.1hPa | 2.6V | 02:58:52 | 02:18:02 | 00:00:00 | |
| DB0UT-7 | 2026-08-30 12:48:18 | 49.94664 | 8.34093 | 55° | 42km/h | 17241m | -13.6m/s | -54.6°C | 4.2% | 90.3hPa | 2.5V | 00:00:00 | 00:00:00 | 00:00:00 | |
| DB0ND-19 | 2026-08-30 12:48:17 | 49.94656 | 8.34075 | 57° | 57km/h | 17255m | -15.6m/s | -54.7°C | 1.2% | 90.1hPa | 2.5V | 00:00:00 | 00:00:00 | 00:00:00 | |
| DM0DOS-11 | 2026-08-30 12:48:15 | 49.94621 | 8.33982 | 64° | 53km/h | 17327m | -15.8m/s | -55°C | 4.5% | 89.1hPa | 2.5V | 02:58:57 | 02:17:57 | 00:00:00 | |
| DO2JMG | 2026-08-30 12:48:15 | 49.94641 | 8.34038 | 60° | 55km/h | 17284m | -12.8m/s | -54.8°C | 0.6% | 89.7hPa | 2.5V | 02:59:12 | 02:18:00 | 00:00:00 | |
| HSKMA3-T | 2026-08-30 12:48:14 | 49.94634 | 8.34020 | 61° | 57km/h | 17297m | -13.9m/s | 0°C | 0% | 0hPa | 2.5V | 03:00:54 | 02:17:59 | 00:00:00 | |
| DF7PN | 2026-08-30 12:48:13 | 49.94621 | 8.33982 | 64° | 53km/h | 17327m | -15.8m/s | -55.0°C | 1.2% | 89.1hPa | 2.5V | 00:00:00 | 00:00:00 | 00:00:00 | |
| DL1XH1-15 | 2026-08-30 12:48:12 | 49.94595 | 8.33889 | 67° | 47km/h | 17400m | -14.8m/s | -54.7°C | 4.5% | 88.1hPa | 2.5V | 02:59:02 | 02:17:52 | 00:00:00 | |
| DB0DAN | 2026-08-30 12:48:10 | 49.94610 | 8.33944 | 66° | 51km/h | 17358m | -13.9m/s | -55°C | 1.3% | 88.66hPa | 2.6V | 00:00:00 | 00:00:00 | 00:00:00 | |
| DL1XH-west | 2026-08-30 12:48:09 | 49.94605 | 8.33925 | 68° | 51km/h | 17372m | -13.1m/s | -54.9°C | 0.7% | 88.5hPa | 2.6V | 02:59:12 | 02:17:54 | 00:00:00 | |
| DO2JMG | 2026-08-30 12:48:05 | 49.94588 | 8.33855 | 70° | 46km/h | 17430m | -15.8m/s | -54.5°C | 0.6% | 87.7hPa | 2.5V | 02:59:12 | 02:17:50 | 00:00:00 | |
| DL1XH-west | 2026-08-30 12:47:59 | 49.94566 | 8.33770 | 62° | 33km/h | 17519m | -15.3m/s | -54°C | 0.5% | 86.5hPa | 2.5V | 02:59:12 | 02:17:44 | 00:00:00 | |
| DL1XH1-15 | 2026-08-30 12:47:58 | 49.94558 | 8.33749 | 58° | 31km/h | 17548m | -14.2m/s | -53.7°C | 4.2% | 86.1hPa | 2.6V | 02:59:12 | 02:17:42 | 00:00:00 | |
| DO2JMG | 2026-08-30 12:47:55 | 49.94548 | 8.33729 | 53° | 29km/h | 17578m | -15.1m/s | -53.1°C | 0.4% | 85.7hPa | 2.6V | 03:00:03 | 02:17:40 | 00:00:00 | |
| DL3AQ-11 | 2026-08-30 12:47:55 | 49.94543 | 8.33720 | 45° | 31km/h | 17592m | -13.1m/s | -52.6°C | 1.0% | 85.5hPa | 2.6V | 00:00:00 | 00:00:00 | 00:00:00 | |
| DL4BBY-15 | 2026-08-30 12:47:53 | 49.94538 | 8.33711 | 49° | 38km/h | 17606m | -15.0m/s | -53.5°C | 0% | 0hPa | 2.6V | 00:00:00 | 00:00:00 | 00:00:00 | |
| DL1XH1-15 | 2026-08-30 12:47:52 | 49.94501 | 8.33663 | 38° | 33km/h | 17696m | -17.3m/s | -51.8°C | 3.4% | 84.2hPa | 2.6V | 02:59:22 | 02:17:32 | 00:00:00 | |
| DL1XH-west | 2026-08-30 12:47:49 | 49.94514 | 8.33679 | 41° | 33km/h | 17663m | -15.6m/s | -51.7°C | 0% | 84.6hPa | 2.5V | 03:00:03 | 02:17:34 | 00:00:00 | |
| DO2JMG | 2026-08-30 12:47:45 | 49.94488 | 8.33649 | 31° | 35km/h | 17727m | -13.2m/s | -51.9°C | 0% | 0hPa | 2.7V | 03:00:03 | 02:17:30 | 00:00:00 | |
| DL3AQ-11 | 2026-08-30 12:47:44 | 49.94472 | 8.33635 | 29° | 35km/h | 17756m | -14.7m/s | -52.1°C | 1.0% | 83.4hPa | 2.6V | 00:00:00 | 00:00:00 | 00:00:00 | |
| DC4HF-4 | 2026-08-30 12:47:43 | 49.94472 | 8.33635 | 29° | 35km/h | 17756m | -14.7m/s | -52.1°C | 1.0% | 83.4hPa | 2.6V | 00:00:00 | 00:00:00 | 00:00:00 | |
| DB0DAN | 2026-08-30 12:47:40 | 49.94447 | 8.33613 | 27° | 37km/h | 17797m | -13.5m/s | -52.4°C | 1% | 82.86hPa | 2.6V | 00:00:00 | 00:00:00 | 00:00:00 | |
| DL1XH1-15 | 2026-08-30 12:47:38 | 49.94420 | 8.33590 | 29° | 40km/h | 17840m | -14m/s | -52.8°C | 3.7% | 82.3hPa | 2.6V | 02:59:32 | 02:17:22 | 00:00:00 | |
| DL1XH-west | 2026-08-30 12:47:38 | 49.94429 | 8.33598 | 31° | 40km/h | 17826m | -15m/s | -52.7°C | 0.2% | 82.5hPa | 2.7V | 03:00:03 | 02:17:23 | 00:00:00 | |
| DF1GD-15 | 2026-08-30 12:47:37 | 49.94429 | 8.33598 | 32° | 40km/h | 17826m | -15.0m/s | -52.7°C | 1.0% | 82.5hPa | 2.6V | 03:00:00 | 00:00:00 | 00:00:00 | |
| DM0DOS-11 | 2026-08-30 12:47:35 | 49.94402 | 8.33575 | 29° | 40km/h | 17868m | -15.3m/s | -52.9°C | 3.7% | 82hPa | 2.6V | 02:59:34 | 02:17:20 | 00:00:00 | |
| DO2JMG | 2026-08-30 12:47:35 | 49.94402 | 8.33575 | 29° | 40km/h | 17868m | -15.3m/s | -52.9°C | 0.2% | 0hPa | 2.6V | 03:00:03 | 02:17:20 | 00:00:00 | |
| DL1XH1-15 | 2026-08-30 12:47:32 | 49.94324 | 8.33503 | 35° | 44km/h | 17997m | -15.8m/s | -54°C | 4.1% | 80.3hPa | 2.6V | 02:59:42 | 02:17:12 | 00:00:00 | |
| CB1BUN | 2026-08-30 12:47:32 | 49.94373 | 8.33550 | 30° | 46km/h | 17915m | -15.7m/s | -53.3°C | 1.1% | 81.4hPa | 2.5V | 03:00:00 | 00:00:00 | 00:00:00 | |
| DK5PH-5 | 2026-08-30 12:47:31 | 49.94363 | 8.33541 | 32° | 38km/h | 17930m | -15.5m/s | -53.4°C | 3.9% | 81.1hPa | 2.5V | 00:00:00 | 02:17:16 | 00:00:00 | |
| DD1CC8 | 2026-08-30 12:47:30 | 49.94354 | 8.33532 | 29° | 46km/h | 17947m | -17.7m/s | -53.6°C | 1.1% | 81.0hPa | 2.5V | 00:00:00 | 00:00:00 | 00:00:00 | |
| DM0DOS-11 | 2026-08-30 12:47:29 | 49.94306 | 8.33480 | 42° | 46km/h | 18029m | -19m/s | -54.2°C | 4.2% | 79.9hPa | 2.5V | 02:59:44 | 02:17:10 | 00:00:00 | |
| DL1XH-west | 2026-08-30 12:47:28 | 49.94334 | 8.33513 | 33° | 47km/h | 17981m | -16.3m/s | -53.8°C | 0.4% | 80.5hPa | 2.6V | 03:00:03 | 02:17:13 | 00:00:00 | |
| BIOWL1-15 | 2026-08-30 12:47:27 | 49.94315 | 8.33492 | 38° | 47km/h | 18012m | -15.4m/s | -54.1°C | 0.4% | 80.1hPa | 2.6V | 03:00:03 | 02:17:11 | 00:00:00 | |
| DB0DAN | 2026-08-30 12:47:25 | 49.94306 | 8.33480 | 42° | 44km/h | 18029m | -19m/s | -54.2°C | 1.2% | 79.94hPa | 2.5V | 00:00:00 | 00:00:00 | 00:00:00 | |
| DO2JMG | 2026-08-30 12:47:24 | 49.94297 | 8.33468 | 44° | 46km/h | 18047m | -17.4m/s | -54.3°C | 0.5% | 0hPa | 2.5V | 03:00:03 | 02:17:09 | 00:00:00 | |
| DL4BBY-15 | 2026-08-30 12:47:23 | 49.94288 | 8.33456 | 46° | 29km/h | 18065m | -18.8m/s | -55.5°C | 0% | 0hPa | 2.6V | 00:00:00 | 00:00:00 | 00:00:00 | |
| HEMX73-11 | 2026-08-30 12:47:20 | 49.94274 | 8.33432 | 48° | 38km/h | 18102m | -18.8m/s | -53.9°C | 1.1% | 79.1hPa | 2.6V | 03:00:00 | 00:00:00 | 00:00:00 | |
| DL8DAS-15 | 2026-08-30 12:47:19 | 49.94268 | 8.33421 | 47° | 37km/h | 18120m | -19.0m/s | -53.6°C | 1.2% | 78.8hPa | 2.6V | 00:00:00 | 00:00:00 | 00:00:00 | |
| DM0DOS-11 | 2026-08-30 12:47:18 | 49.94231 | 8.33350 | 57° | 33km/h | 18246m | -18.2m/s | -53.5°C | 4.1% | 77.3hPa | 2.6V | 02:59:56 | 02:16:58 | 00:00:00 | |
| DL1XH1-15 | 2026-08-30 12:47:18 | 49.94251 | 8.33390 | 50° | 31km/h | 18174m | -16.7m/s | -53.3°C | 4% | 78.2hPa | 2.5V | 02:59:52 | 02:17:02 | 00:00:00 | |
| DL1XH-west | 2026-08-30 12:47:17 | 49.94251 | 8.33390 | 50° | 31km/h | 18174m | -16.7m/s | -53.3°C | 0.4% | 78.2hPa | 2.5V | 03:00:03 | 02:17:02 | 00:00:00 | |
| BIOWL1-15 | 2026-08-30 12:47:16 | 49.94246 | 8.33381 | 50° | 31km/h | 18191m | -18.5m/s | -53.4°C | 0.4% | 78hPa | 2.5V | 03:00:03 | 02:17:01 | 00:00:00 | |
| DO2JMG | 2026-08-30 12:47:13 | 49.94231 | 8.33350 | 58° | 33km/h | 18246m | -18.2m/s | -53.5°C | 0% | 0hPa | 2.6V | 03:00:03 | 02:16:58 | 00:00:00 | |
| DL1XH-west | 2026-08-30 12:47:06 | 49.94195 | 8.33272 | 53° | 37km/h | 18360m | -17.4m/s | -52.2°C | 0.3% | 75.9hPa | 2.5V | 03:00:03 | 02:16:51 | 00:00:00 | |
| BIOWL1-15 | 2026-08-30 12:47:06 | 49.94167 | 8.33217 | 55° | 24km/h | 18453m | -14.7m/s | -52.4°C | 0.3% | 74.8hPa | 2.5V | 03:00:54 | 02:16:45 | 00:00:00 | |
| DM0DOS-11 | 2026-08-30 12:47:05 | 49.94180 | 8.33243 | 53° | 29km/h | 18405m | -14.2m/s | -52.4°C | 3.7% | 75.3hPa | 2.7V | 03:00:06 | 02:16:48 | 00:00:00 | |
| DO2JMG | 2026-08-30 12:47:03 | 49.94180 | 8.33243 | 54° | 29km/h | 18405m | -14.2m/s | 0°C | 0% | 0hPa | 2.7V | 18:12:15 | 02:16:48 | 00:00:00 | |
| DL0LBS | 2026-08-30 12:47:02 | 49.94180 | 8.33243 | 55° | 29km/h | 18405m | -14.2m/s | -52.4°C | 1.0% | 75.4hPa | 2.6V | 03:00:00 | 00:00:00 | 00:00:00 | |
| DL9SK-14 | 2026-08-30 12:47:01 | 49.94167 | 8.33217 | 54° | 24km/h | 18453m | -14.7m/s | -52.4°C | 1.0% | 74.8hPa | 2.6V | 00:00:00 | 00:00:00 | 00:00:00 | |
| DD1CC8 | 2026-08-30 12:46:59 | 49.94164 | 8.33210 | 49° | 20km/h | 18468m | -14.9m/s | -52.4°C | 1.0% | 74.6hPa | 2.6V | 00:00:00 | 00:00:00 | 00:00:00 | |
| DL1XH1-15 | 2026-08-30 12:46:58 | 49.94158 | 8.33198 | 51° | 18km/h | 18500m | -14.9m/s | -52.1°C | 3.6% | 74.3hPa | 2.6V | 03:00:12 | 02:16:42 | 00:00:00 | |
| BIOWL1-15 | 2026-08-30 12:46:56 | 49.94150 | 8.33188 | 15° | 11km/h | 18549m | -17.8m/s | -52°C | 0.1% | 73.8hPa | 2.6V | 03:00:54 | 02:16:39 | 00:00:00 | |
| DM0DOS-11 | 2026-08-30 12:46:55 | 49.94145 | 8.33185 | 357° | 11km/h | 18583m | -16.1m/s | -51.9°C | 3.5% | 73.4hPa | 2.6V | 03:00:17 | 02:16:37 | 00:00:00 | |
| DL1XH-west | 2026-08-30 12:46:55 | 49.94153 | 8.33190 | 39° | 13km/h | 18532m | -16.1m/s | -52.1°C | 0.2% | 73.9hPa | 2.7V | 03:00:54 | 02:16:40 | 00:00:00 | |
| DJ2DS-15 | 2026-08-30 12:46:55 | 49.94153 | 8.33190 | 39° | 13km/h | 18532m | -16.1m/s | -52.1°C | 1.0% | 73.9hPa | 2.6V | 00:00:00 | 00:00:00 | 00:00:00 | |
| DL4BBY-15 | 2026-08-30 12:46:53 | 49.94148 | 8.33186 | 25° | 11km/h | 18566m | -16.3m/s | -53.1°C | 0% | 0hPa | 2.6V | 00:00:00 | 00:00:00 | 00:00:00 | |
| DL1XH1-15 | 2026-08-30 12:46:52 | 49.94131 | 8.33189 | 0° | 11km/h | 18684m | -18.1m/s | -52.1°C | 3.5% | 72.2hPa | 2.6V | 03:00:23 | 02:16:31 | 00:00:00 | |
| DO2JMG | 2026-08-30 12:46:52 | 49.94145 | 8.33185 | 358° | 11km/h | 18583m | -16.2m/s | 0°C | 0% | 0hPa | 2.6V | 18:12:15 | 02:16:37 | 00:00:00 | |
| HSKMA3-T | 2026-08-30 12:46:47 | 49.94134 | 8.33188 | 342° | 11km/h | 18667m | -18.1m/s | 0°C | 0% | 0hPa | 2.6V | 03:00:54 | 02:16:32 | 00:00:00 | |
| DL1ZP-14 | 2026-08-30 12:46:47 | 49.94131 | 8.33189 | 0° | 11km/h | 18684m | -18.1m/s | -52.1°C | 0.9% | 72.2hPa | 2.6V | 00:00:00 | 00:00:00 | 00:00:00 | |
| DJ2DS-15 | 2026-08-30 12:46:46 | 49.94131 | 8.33189 | 1° | 9km/h | 18685m | -18.0m/s | -52.1°C | 3.5% | 72.1hPa | 2.6V | 03:00:00 | 02:16:31 | 00:00:00 | |
| DM0DOS-11 | 2026-08-30 12:46:45 | 49.94118 | 8.33192 | 349° | 13km/h | 18754m | -16.6m/s | -52.5°C | 3.6% | 71.4hPa | 2.6V | 03:00:27 | 02:16:27 | 00:00:00 | |
| DL1XH-west | 2026-08-30 12:46:44 | 49.94125 | 8.33190 | 360° | 13km/h | 18719m | -17.5m/s | -52.2°C | 0.1% | 71.8hPa | 2.7V | 03:00:54 | 02:16:29 | 00:00:00 | |
| DL1XH1-15 | 2026-08-30 12:46:41 | 49.94098 | 8.33195 | 11° | 11km/h | 18847m | -14.6m/s | -53°C | 3.7% | 70.4hPa | 2.6V | 03:00:33 | 02:16:21 | 00:00:00 | |
| DO2JMG | 2026-08-30 12:46:41 | 49.94115 | 8.33193 | 350° | 15km/h | 18771m | -16.3m/s | 0°C | 0% | 0hPa | 2.6V | 18:12:15 | 02:16:26 | 00:00:00 | |
| DB0DAN | 2026-08-30 12:46:40 | 49.94111 | 8.33193 | 352° | 13km/h | 18787m | -16.4m/s | -52.7°C | 1% | 71.04hPa | 2.6V | 00:00:00 | 00:00:00 | 00:00:00 | |
| HSKMA3-T | 2026-08-30 12:46:36 | 49.94098 | 8.33195 | 11° | 11km/h | 18847m | -14.6m/s | 0°C | 0% | 0hPa | 2.6V | 03:00:54 | 02:16:21 | 00:00:00 | |
| DM0DOS-11 | 2026-08-30 12:46:35 | 49.94089 | 8.33193 | 350° | 5km/h | 18926m | -15.1m/s | -53.2°C | 3.7% | 69.5hPa | 2.7V | 03:00:38 | 02:16:16 | 00:00:00 | |
| DL1XH-west | 2026-08-30 12:46:34 | 49.94093 | 8.33193 | 16° | 7km/h | 18879m | -16.9m/s | -53.2°C | 0.2% | 70.1hPa | 2.6V | 03:00:54 | 02:16:19 | 00:00:00 | |
| BIOWL1-15 | 2026-08-30 12:46:31 | 49.94077 | 8.33195 | 360° | 13km/h | 19023m | -17.1m/s | -53.9°C | 0.2% | 68.5hPa | 2.6V | 03:00:54 | 02:16:10 | 00:00:00 | |
| DL1XH1-15 | 2026-08-30 12:46:31 | 49.94079 | 8.33195 | 358° | 9km/h | 19005m | -18.8m/s | -53.8°C | 3.8% | 68.7hPa | 2.7V | 03:00:43 | 02:16:11 | 00:00:00 | |
| DO2JMG | 2026-08-30 12:46:30 | 49.94087 | 8.33193 | 349° | 5km/h | 18942m | -16.2m/s | 0°C | 0% | 0hPa | 2.6V | 18:12:15 | 02:16:15 | 00:00:00 | |
| DB0UT-9 | 2026-08-30 12:46:29 | 49.94087 | 8.33193 | 350° | 5km/h | 18942m | -16.2m/s | -53.3°C | 1.0% | 69.4hPa | 2.6V | 03:00:00 | 00:00:00 | 00:00:00 | |
| DD1CC8 | 2026-08-30 12:46:28 | 49.94084 | 8.33194 | 349° | 7km/h | 18973m | -15.9m/s | -53.6°C | 1.0% | 69.0hPa | 2.6V | 00:00:00 | 00:00:00 | 00:00:00 | |
| DB0DAN | 2026-08-30 12:46:25 | 49.94077 | 8.33195 | 360° | 11km/h | 19023m | -17.1m/s | -53.9°C | 1% | 68.5hPa | 2.6V | 00:00:00 | 00:00:00 | 00:00:00 | |
| DL1XH-west | 2026-08-30 12:46:23 | 49.94070 | 8.33196 | 357° | 13km/h | 19056m | -16.3m/s | -54°C | 0.3% | 68.1hPa | 2.6V | 03:00:54 | 02:16:08 | 00:00:00 | |
| HSKMA3-T | 2026-08-30 12:46:20 | 49.94061 | 8.33196 | 357° | 11km/h | 19104m | -15.8m/s | 0°C | 0% | 0hPa | 2.7V | 03:00:54 | 02:16:05 | 00:00:00 | |
| DO2JMG | 2026-08-30 12:46:17 | 49.94052 | 8.33196 | 7° | 13km/h | 19152m | -16.3m/s | 0°C | 0% | 0hPa | 2.6V | 18:12:15 | 02:16:02 | 00:00:00 | |
| DM0DOS-11 | 2026-08-30 12:46:15 | 49.94030 | 8.33181 | 26° | 18km/h | 19246m | -15.9m/s | -55.3°C | 4.4% | 66.1hPa | 2.6V | 03:00:58 | 02:15:56 | 00:00:00 | |
| BIOWL1-15 | 2026-08-30 12:46:14 | 49.94038 | 8.33189 | 28° | 18km/h | 19214m | -16.5m/s | -55.2°C | 0.6% | 66.5hPa | 2.6V | 03:01:45 | 02:15:58 | 00:00:00 | |
| DL1XH-west | 2026-08-30 12:46:12 | 49.94034 | 8.33185 | 27° | 20km/h | 19230m | -14.8m/s | -55.3°C | 0.6% | 66.3hPa | 2.6V | 03:01:45 | 02:15:57 | 00:00:00 | |
| DL1XH1-15 | 2026-08-30 12:46:11 | 49.94006 | 8.33157 | 45° | 24km/h | 19320m | -15.1m/s | -55.1°C | 4.3% | 65.3hPa | 2.6V | 03:01:03 | 02:15:51 | 00:00:00 | |
| HSKMA3-T | 2026-08-30 12:46:10 | 49.94020 | 8.33174 | 27° | 24km/h | 19276m | -14.3m/s | 0°C | 0% | 0hPa | 2.7V | 18:12:15 | 02:15:54 | 00:00:00 | |
| DO2JMG | 2026-08-30 12:46:06 | 49.94006 | 8.33157 | 45° | 24km/h | 19320m | -15.1m/s | 0°C | 0% | 0hPa | 2.6V | 18:12:15 | 02:15:51 | 00:00:00 | |
| DJ2DS-15 | 2026-08-30 12:46:06 | 49.94006 | 8.33157 | 46° | 18km/h | 19321m | -15.0m/s | -55.0°C | 4.3% | 65.3hPa | 2.6V | 00:00:00 | 02:15:51 | 00:00:00 | |
| DM0DOS-11 | 2026-08-30 12:46:02 | 49.93984 | 8.33117 | 49° | 22km/h | 19417m | -16.6m/s | -55.3°C | 4.3% | 64.4hPa | 2.6V | 03:01:09 | 02:15:45 | 00:00:00 | |
| DL1XH-west | 2026-08-30 12:46:01 | 49.93987 | 8.33123 | 52° | 22km/h | 19400m | -17.7m/s | -55.3°C | 0.5% | 64.5hPa | 2.6V | 03:01:45 | 02:15:46 | 00:00:00 | |
| DL9SK-14 | 2026-08-30 12:45:59 | 49.93977 | 8.33105 | 43° | 18km/h | 19449m | -14.8m/s | -55.2°C | 1.2% | 64.1hPa | 2.6V | 00:00:00 | 00:00:00 | 00:00:00 | |
| DD1CC8 | 2026-08-30 12:45:57 | 49.93970 | 8.33098 | 27° | 15km/h | 19483m | -15.7m/s | -54.8°C | 1.1% | 63.7hPa | 2.6V | 00:00:00 | 00:00:00 | 00:00:00 | |
| DM0DOS-11 | 2026-08-30 12:45:55 | 49.93952 | 8.33080 | 27° | 15km/h | 19581m | -16.8m/s | -54.5°C | 4.1% | 62.7hPa | 2.6V | 03:01:19 | 02:15:35 | 00:00:00 | |
| DB0DAN | 2026-08-30 12:45:55 | 49.93967 | 8.33095 | 26° | 15km/h | 19498m | -14.4m/s | -54.5°C | 1.1% | 63.56hPa | 2.6V | 00:00:00 | 00:00:00 | 00:00:00 | |
| DO2JMG | 2026-08-30 12:45:55 | 49.93967 | 8.33095 | 26° | 15km/h | 19498m | -14.4m/s | 0°C | 0% | 0hPa | 2.6V | 18:12:15 | 02:15:40 | 00:00:00 | |
| BIOWL1-15 | 2026-08-30 12:45:54 | 49.93963 | 8.33093 | 25° | 15km/h | 19514m | -18.5m/s | -54.4°C | 0.5% | 63.5hPa | 2.6V | 03:01:45 | 02:15:39 | 00:00:00 | |
| DL1XH-west | 2026-08-30 12:45:50 | 49.93952 | 8.33080 | 27° | 15km/h | 19581m | -16.8m/s | -54.5°C | 0.4% | 62.8hPa | 2.6V | 03:01:45 | 02:15:35 | 00:00:00 | |
| DB0UT-7 | 2026-08-30 12:45:48 | 49.93946 | 8.33075 | 28° | 27km/h | 19612m | -14.4m/s | -54.5°C | 4.1% | 62.4hPa | 2.6V | 00:00:00 | 02:15:33 | 00:00:00 | |
| CB1BUN | 2026-08-30 12:45:47 | 49.93942 | 8.33072 | 20° | 16km/h | 19626m | -13.7m/s | -54.7°C | 1.1% | 62.3hPa | 2.7V | 00:00:00 | 00:00:00 | 00:00:00 | |
| DJ2DS-15 | 2026-08-30 12:45:46 | 49.93938 | 8.33070 | 19° | 27km/h | 19641m | -15.0m/s | -54.8°C | 4.1% | 62.1hPa | 2.7V | 00:00:00 | 02:15:31 | 00:00:00 | |
| DL3AQ-11 | 2026-08-30 12:45:44 | 49.93924 | 8.33064 | 20° | 18km/h | 19686m | -17.1m/s | -55.2°C | 1.1% | 61.7hPa | 2.7V | 00:00:00 | 00:00:00 | 00:00:00 | |
| DM0DOS-11 | 2026-08-30 12:45:43 | 49.93909 | 8.33057 | 13° | 24km/h | 19736m | -17.1m/s | -55.4°C | 4.3% | 61.3hPa | 2.7V | 03:01:29 | 02:15:25 | 00:00:00 | |
| DO2JMG | 2026-08-30 12:45:41 | 49.93914 | 8.33060 | 16° | 18km/h | 19720m | -15.4m/s | 0°C | 0% | 0hPa | 2.7V | 18:12:15 | 02:15:26 | 00:00:00 | |
| DL1XH-west | 2026-08-30 12:45:40 | 49.93909 | 8.33058 | 13° | 24km/h | 19736m | -17.1m/s | -55.4°C | 0.6% | 61.3hPa | 2.7V | 03:01:45 | 02:15:25 | 00:00:00 | |
| DL1XH1-15 | 2026-08-30 12:45:39 | 49.93884 | 8.33046 | 15° | 29km/h | 19805m | -15.4m/s | -55°C | 4.2% | 60.6hPa | 2.7V | 03:01:33 | 02:15:21 | 00:00:00 | |
| DO1YAY-16 | 2026-08-30 12:45:37 | 49.93891 | 8.33049 | 15° | 27km/h | 19789m | -16.7m/s | -55.1°C | 1.1% | 60.7hPa | 2.7V | 00:00:00 | 00:00:00 | 00:00:00 | |
| DM0DOS-11 | 2026-08-30 12:45:35 | 49.93839 | 8.33017 | 26° | 35km/h | 19901m | -16.5m/s | -55.4°C | 4.3% | 59.6hPa | 2.7V | 03:01:39 | 02:15:15 | 00:00:00 | |
| BIOWL1-15 | 2026-08-30 12:45:33 | 49.93846 | 8.33023 | 24° | 35km/h | 19885m | -14.3m/s | -55.3°C | 0.6% | 59.8hPa | 2.6V | 03:01:45 | 02:15:16 | 00:00:00 | |
| DO2JMG | 2026-08-30 12:45:30 | 49.93839 | 8.33017 | 27° | 35km/h | 19901m | -16.5m/s | 0°C | 0% | 0hPa | 2.7V | 18:12:15 | 02:15:15 | 00:00:00 | |
| DL1XH-west | 2026-08-30 12:45:29 | 49.93831 | 8.33010 | 33° | 35km/h | 19917m | -16.7m/s | -55.5°C | 0.6% | 59.5hPa | 2.7V | 03:01:45 | 02:15:14 | 00:00:00 | |
| DL1XH1-15 | 2026-08-30 12:45:27 | 49.93811 | 8.32988 | 34° | 33km/h | 19968m | -17.1m/s | -55.7°C | 4.5% | 59hPa | 2.6V | 03:01:43 | 02:15:11 | 00:00:00 | |
| DM0DOS-11 | 2026-08-30 12:45:26 | 49.93776 | 8.32937 | 50° | 27km/h | 20070m | -16.3m/s | -55.4°C | 4.5% | 58.1hPa | 2.6V | 03:01:49 | 02:15:05 | 00:00:00 | |
| BIOWL1-15 | 2026-08-30 12:45:22 | 49.93776 | 8.32937 | 51° | 27km/h | 20070m | -16.3m/s | -55.4°C | 0.7% | 58.1hPa | 2.6V | 03:02:36 | 02:15:05 | 00:00:00 | |
| DO2KSM | 2026-08-30 12:45:20 | 49.93781 | 8.32946 | 51° | 29km/h | 20054m | -16.4m/s | -55.5°C | 1.2% | 58.2hPa | 2.6V | 03:02:00 | 00:00:00 | 00:00:00 | |
| DL1XH1-15 | 2026-08-30 12:45:19 | 49.93764 | 8.32907 | 67° | 20km/h | 20135m | -17.3m/s | -55.5°C | 4.6% | 57.5hPa | 2.6V | 03:01:53 | 02:15:01 | 00:00:00 | |
| DL1XH-west | 2026-08-30 12:45:18 | 49.93766 | 8.32914 | 61° | 18km/h | 20118m | -17.9m/s | -55.5°C | 0.7% | 57.6hPa | 2.6V | 03:02:36 | 02:15:02 | 00:00:00 | |
| DL3AQ-11 | 2026-08-30 12:45:15 | 49.93761 | 8.32894 | 70° | 16km/h | 20166m | -14.6m/s | -55.4°C | 1.2% | 57.2hPa | 2.6V | 00:00:00 | 00:00:00 | 00:00:00 | |
| DM0DOS-11 | 2026-08-30 12:45:12 | 49.93759 | 8.32872 | 98° | 11km/h | 20230m | -16.2m/s | -54.9°C | 4.4% | 56.6hPa | 2.6V | 03:01:59 | 02:14:55 | 00:00:00 | |
| BIOWL1-15 | 2026-08-30 12:45:10 | 49.93759 | 8.32872 | 98° | 11km/h | 20230m | -16.2m/s | -54.9°C | 0.6% | 56.6hPa | 2.6V | 03:02:36 | 02:14:55 | 00:00:00 | |
| DL1XH-west | 2026-08-30 12:45:08 | 49.93761 | 8.32863 | 122° | 11km/h | 20262m | -16.5m/s | -54.8°C | 0.6% | 56.4hPa | 2.7V | 03:02:36 | 02:14:53 | 00:00:00 | |
| DL1XH1-15 | 2026-08-30 12:45:06 | 49.93763 | 8.32857 | 128° | 11km/h | 20295m | -16.6m/s | -54.8°C | 4.4% | 56.1hPa | 2.6V | 03:02:03 | 02:14:51 | 00:00:00 | |
| DJ2DS-15 | 2026-08-30 12:45:06 | 49.93763 | 8.32857 | 129° | 11km/h | 20295m | -16.6m/s | -54.8°C | 4.4% | 56.0hPa | 2.6V | 00:00:00 | 02:14:51 | 00:00:00 | |
| DM0DOS-11 | 2026-08-30 12:45:05 | 49.93771 | 8.32846 | 95° | 5km/h | 20391m | -16m/s | -54.1°C | 4.2% | 55.2hPa | 2.6V | 03:02:09 | 02:14:45 | 00:00:00 | |
| BIOWL1-15 | 2026-08-30 12:45:02 | 49.93771 | 8.32846 | 96° | 5km/h | 20391m | -16m/s | -54.1°C | 0.5% | 55.2hPa | 2.6V | 03:02:36 | 02:14:45 | 00:00:00 | |
| DL1XH-15 | 2026-08-30 12:45:01 | 49.93769 | 8.32839 | 38° | 11km/h | 20439m | -17.9m/s | -54°C | 4.1% | 54.8hPa | 2.7V | 03:02:12 | 02:14:42 | 00:00:00 | |
| DL1XH1-15 | 2026-08-30 12:45:01 | 49.93766 | 8.32836 | 53° | 13km/h | 20456m | -17.2m/s | -54°C | 4.2% | 54.6hPa | 2.7V | 03:02:13 | 02:14:41 | 00:00:00 | |
| DL1XH-west | 2026-08-30 12:44:58 | 49.93770 | 8.32842 | 53° | 5km/h | 20422m | -16m/s | -54°C | 0.5% | 55hPa | 2.6V | 03:02:36 | 02:14:43 | 00:00:00 | |
| DL9SK-14 | 2026-08-30 12:44:57 | 49.93767 | 8.32836 | 53° | 11km/h | 20456m | -17.2m/s | -54.0°C | 1.1% | 54.6hPa | 2.7V | 00:00:00 | 00:00:00 | 00:00:00 | |
| DD1CC8 | 2026-08-30 12:44:55 | 49.93762 | 8.32828 | 50° | 16km/h | 20491m | -17.7m/s | -53.9°C | 1.1% | 54.4hPa | 2.7V | 00:00:00 | 00:00:00 | 00:00:00 | |
| DB0DAN | 2026-08-30 12:44:55 | 49.93765 | 8.32832 | 49° | 11km/h | 20474m | -17.5m/s | -54°C | 1.1% | 54.52hPa | 2.6V | 00:00:00 | 00:00:00 | 00:00:00 | |
| DM0DOS-11 | 2026-08-30 12:44:54 | 49.93753 | 8.32806 | 63° | 15km/h | 20555m | -15.4m/s | -53.8°C | 4.1% | 53.8hPa | 2.7V | 03:02:19 | 02:14:35 | 00:00:00 | |
| HTAHTA | 2026-08-30 12:44:53 | 49.93757 | 8.32818 | 50° | 16km/h | 20524m | -15.9m/s | -53.8°C | -1.0% | -1.0hPa | 2.7V | 00:00:00 | 00:00:00 | 00:00:00 | |
| DL8DAS-14 | 2026-08-30 12:44:51 | 49.93755 | 8.32812 | 60° | 16km/h | 20540m | -16.0m/s | -53.8°C | 1.1% | 53.8hPa | 2.7V | 00:00:00 | 00:00:00 | 00:00:00 | |
| DF1GD-15 | 2026-08-30 12:44:50 | 49.93755 | 8.32812 | 61° | 18km/h | 20540m | -16.0m/s | -53.8°C | 1.1% | 53.8hPa | 2.7V | 03:02:00 | 00:00:00 | 00:00:00 | |
| DL1XH1-15 | 2026-08-30 12:44:49 | 49.93747 | 8.32787 | 85° | 13km/h | 20621m | -15.7m/s | -53.5°C | 3.9% | 53.2hPa | 2.7V | 03:02:23 | 02:14:31 | 00:00:00 | |
| BIOWL1-15 | 2026-08-30 12:44:49 | 49.93751 | 8.32801 | 58° | 16km/h | 20571m | -15.3m/s | -53.7°C | 0.5% | 53.7hPa | 2.6V | 03:02:36 | 02:14:34 | 00:00:00 | |
| DL1XH-west | 2026-08-30 12:44:47 | 49.93748 | 8.32791 | 69° | 13km/h | 20604m | -17.6m/s | -53.5°C | 0.5% | 53.4hPa | 2.6V | 03:02:36 | 02:14:32 | 00:00:00 | |
| DB0UT-7 | 2026-08-30 12:44:47 | 49.93748 | 8.32791 | 69° | 9km/h | 20605m | -17.5m/s | -53.5°C | 4.0% | 53.4hPa | 2.6V | 03:02:00 | 02:14:32 | 00:00:00 | |
| DJ2DS-15 | 2026-08-30 12:44:46 | 49.93747 | 8.32787 | 86° | 9km/h | 20621m | -15.7m/s | -53.4°C | 3.9% | 53.2hPa | 2.6V | 00:00:00 | 02:14:31 | 00:00:00 | |
| CB1BUN | 2026-08-30 12:44:45 | 49.93747 | 8.32782 | 104° | 11km/h | 20636m | -15.7m/s | -53.4°C | 1.0% | 53.1hPa | 2.6V | 03:02:00 | 00:00:00 | 00:00:00 | |
| DM0DOS-11 | 2026-08-30 12:44:44 | 49.93758 | 8.32775 | 191° | 11km/h | 20718m | -15.3m/s | -53.5°C | 3.9% | 52.5hPa | 2.6V | 03:02:29 | 02:14:25 | 00:00:00 | |
| BIOWL1-15 | 2026-08-30 12:44:39 | 49.93761 | 8.32777 | 208° | 11km/h | 20733m | -15.9m/s | -53.6°C | 0.4% | 52.4hPa | 2.6V | 03:02:36 | 02:14:24 | 00:00:00 | |
| DL1XH-west | 2026-08-30 12:44:37 | 49.93767 | 8.32782 | 206° | 15km/h | 20768m | -16m/s | -53.6°C | 0.4% | 52hPa | 2.7V | 03:02:36 | 02:14:22 | 00:00:00 | |
| DL1XH1-15 | 2026-08-30 12:44:36 | 49.93769 | 8.32784 | 201° | 9km/h | 20785m | -16m/s | -53.6°C | 3.9% | 51.9hPa | 2.7V | 03:02:33 | 02:14:21 | 00:00:00 | |
| DL3AQ-11 | 2026-08-30 12:44:35 | 49.93773 | 8.32785 | 206° | 7km/h | 20819m | -18.0m/s | -53.6°C | 1.0% | 51.6hPa | 2.7V | 00:00:00 | 00:00:00 | 00:00:00 | |
| DM0DOS-11 | 2026-08-30 12:44:34 | 49.93778 | 8.32783 | 121° | 4km/h | 20892m | -17.7m/s | -53.7°C | 4% | 51.1hPa | 2.7V | 03:02:39 | 02:14:15 | 00:00:00 | |
| KANTATE | 2026-08-30 12:44:32 | 49.93775 | 8.32786 | 181° | 7km/h | 20838m | -19.3m/s | -53.6°C | 1.0% | 51.5hPa | 2.7V | 03:02:00 | 00:00:00 | 00:00:00 | |
| DJ2DS-15 | 2026-08-30 12:44:31 | 49.93778 | 8.32783 | 121° | 2km/h | 20892m | -17.7m/s | -53.7°C | 1.0% | 51.1hPa | 2.7V | 00:00:00 | 00:00:00 | 00:00:00 | |
| DL1XH1-15 | 2026-08-30 12:44:29 | 49.93779 | 8.32775 | 93° | 5km/h | 20960m | -15.8m/s | -53.9°C | 4% | 50.5hPa | 2.7V | 03:02:43 | 02:14:11 | 00:00:00 | |
| BIOWL1-15 | 2026-08-30 12:44:28 | 49.93779 | 8.32780 | 96° | 5km/h | 20929m | -17.5m/s | -53.7°C | 0.5% | 50.8hPa | 2.6V | 03:03:27 | 02:14:13 | 00:00:00 | |
| DL1XH-west | 2026-08-30 12:44:27 | 49.93779 | 8.32777 | 99° | 7km/h | 20945m | -15.1m/s | -53.8°C | 0.5% | 50.6hPa | 2.6V | 03:03:27 | 02:14:12 | 00:00:00 | |
| DJ2DS-15 | 2026-08-30 12:44:26 | 49.93779 | 8.32775 | 94° | 5km/h | 20961m | -15.7m/s | -53.8°C | 4.0% | 50.5hPa | 2.7V | 00:00:00 | 02:14:11 | 00:00:00 | |
| DJTTGO | 2026-08-30 12:44:25 | 49.93779 | 8.32775 | 94° | 5km/h | 20961m | -15.8m/s | 0°C | 0% | 50.5hPa | 2.7V | 00:00:00 | 00:00:00 | 00:00:00 | |
| DM0DOS-11 | 2026-08-30 12:44:24 | 49.93770 | 8.32767 | 4° | 11km/h | 21058m | -15.7m/s | -54.1°C | 4% | 49.8hPa | 2.7V | 03:02:49 | 02:14:05 | 00:00:00 | |
| DB0UT-9 | 2026-08-30 12:44:24 | 49.93778 | 8.32770 | 60° | 4km/h | 20996m | -17.7m/s | -53.9°C | 1.1% | 50.3hPa | 2.6V | 03:03:00 | 00:00:00 | 00:00:00 | |
| CB1BUN | 2026-08-30 12:44:23 | 49.93777 | 8.32769 | 20° | 5km/h | 21013m | -15.7m/s | -53.9°C | 1.0% | 50.1hPa | 2.6V | 00:00:00 | 00:00:00 | 00:00:00 | |
| DL1XH-15 | 2026-08-30 12:44:19 | 49.93765 | 8.32767 | 353° | 7km/h | 21092m | -17.8m/s | -54°C | 4.1% | 49.5hPa | 2.6V | 03:02:51 | 02:14:03 | 00:00:00 | |
| DL1XH-west | 2026-08-30 12:44:17 | 49.93763 | 8.32767 | 349° | 7km/h | 21109m | -15.7m/s | -54.1°C | 0.5% | 49.4hPa | 2.6V | 03:03:27 | 02:14:02 | 00:00:00 | |
| DL1XH1-15 | 2026-08-30 12:44:16 | 49.93761 | 8.32767 | 347° | 5km/h | 21125m | -17.1m/s | -54.1°C | 4.1% | 49.2hPa | 2.7V | 03:02:53 | 02:14:01 | 00:00:00 | |
| DL1XH-15 | 2026-08-30 12:44:13 | 49.93763 | 8.32776 | 218° | 7km/h | 21259m | -16.5m/s | -54.1°C | 4.2% | 48.2hPa | 2.6V | 03:03:01 | 02:13:53 | 00:00:00 | |
| DL1ZP-14 | 2026-08-30 12:44:10 | 49.93760 | 8.32772 | 224° | 5km/h | 21224m | -16.0m/s | -54.1°C | 1.1% | 48.5hPa | 2.7V | 00:00:00 | 00:00:00 | 00:00:00 | |
| DL1XH1-15 | 2026-08-30 12:44:09 | 49.93766 | 8.32781 | 233° | 9km/h | 21294m | -16.7m/s | -54.2°C | 4.2% | 48hPa | 2.6V | 03:03:03 | 02:13:51 | 00:00:00 | |
| BIOWL1-15 | 2026-08-30 12:44:07 | 49.93765 | 8.32778 | 227° | 9km/h | 21276m | -19m/s | -54.2°C | 0.6% | 48.1hPa | 2.6V | 03:03:27 | 02:13:52 | 00:00:00 | |
| DL1XH-west | 2026-08-30 12:44:06 | 49.93766 | 8.32781 | 234° | 11km/h | 21294m | -16.7m/s | -54.3°C | 0.5% | 48hPa | 2.6V | 03:03:27 | 02:13:51 | 00:00:00 | |
| DJ2DS-15 | 2026-08-30 12:44:06 | 49.93766 | 8.32780 | 234° | 24km/h | 21295m | -16.6m/s | -54.2°C | 4.2% | 47.9hPa | 2.6V | 03:03:00 | 02:13:51 | 00:00:00 | |
| DO1YAY-16 | 2026-08-30 12:44:04 | 49.93771 | 8.32794 | 255° | 13km/h | 21347m | -16.9m/s | -54.4°C | 1.1% | 47.6hPa | 2.6V | 00:00:00 | 00:00:00 | 00:00:00 | |
| DB0UT-9 | 2026-08-30 12:44:02 | 49.93771 | 8.32793 | 256° | 13km/h | 21347m | -16.9m/s | -54.4°C | 1.2% | 47.6hPa | 2.6V | 03:03:00 | 00:00:00 | 00:00:00 | |
| DL1XH-15 | 2026-08-30 12:44:01 | 49.93770 | 8.32834 | 288° | 26km/h | 21439m | -16.6m/s | -53.4°C | 3.9% | 46.9hPa | 2.6V | 03:03:11 | 02:13:43 | 00:00:00 | |
| CB1BUN | 2026-08-30 12:44:00 | 49.93772 | 8.32807 | 270° | 18km/h | 21382m | -17.9m/s | -54.0°C | 1.1% | 47.3hPa | 2.7V | 00:00:00 | 00:00:00 | 00:00:00 | |
| DL8DAS-15 | 2026-08-30 12:43:58 | 49.93771 | 8.32824 | 283° | 26km/h | 21421m | -19.5m/s | -53.4°C | 1.0% | 47.1hPa | 2.7V | 00:00:00 | 00:00:00 | 00:00:00 | |
| DL1XH1-15 | 2026-08-30 12:43:56 | 49.93764 | 8.32854 | 297° | 31km/h | 21475m | -17.6m/s | -53.4°C | 3.9% | 46.6hPa | 2.7V | 03:03:13 | 02:13:41 | 00:00:00 | |
| BIOWL1-15 | 2026-08-30 12:43:56 | 49.93764 | 8.32854 | 297° | 31km/h | 21475m | -17.6m/s | -53.4°C | 0.4% | 46.6hPa | 2.7V | 03:03:27 | 02:13:41 | 00:00:00 | |
| DL1XH-west | 2026-08-30 12:43:55 | 49.93760 | 8.32864 | 302° | 29km/h | 21494m | -19.1m/s | -53.5°C | 0.4% | 46.5hPa | 2.7V | 03:03:27 | 02:13:40 | 00:00:00 | |
| DJ2DS-15 | 2026-08-30 12:43:55 | 49.93756 | 8.32873 | 310° | 29km/h | 21512m | -18.2m/s | -53.5°C | 1.0% | 46.4hPa | 2.7V | 00:00:00 | 00:00:00 | 00:00:00 | |
| DM0DOS-11 | 2026-08-30 12:43:54 | 49.93736 | 8.32905 | 313° | 26km/h | 21581m | -16.9m/s | -53.8°C | 4.1% | 45.9hPa | 2.7V | 03:03:19 | 02:13:35 | 00:00:00 | |
| DD1CC8 | 2026-08-30 12:43:53 | 49.93746 | 8.32890 | 314° | 29km/h | 21548m | -14.9m/s | -53.7°C | 1.0% | 46.1hPa | 2.6V | 00:00:00 | 00:00:00 | 00:00:00 | |
| HTAHTA | 2026-08-30 12:43:51 | 49.93736 | 8.32905 | 313° | 26km/h | 21582m | -16.9m/s | -53.8°C | -1.0% | -1.0hPa | 2.6V | 00:00:00 | 00:00:00 | 00:00:00 | |
| DL1XH-15 | 2026-08-30 12:43:49 | 49.93728 | 8.32918 | 317° | 22km/h | 21614m | -16.3m/s | -53.9°C | 4.1% | 45.6hPa | 2.6V | 03:03:21 | 02:13:33 | 00:00:00 | |
| DL1XH1-15 | 2026-08-30 12:43:49 | 49.93718 | 8.32928 | 329° | 27km/h | 21647m | -18.2m/s | -53.7°C | 4% | 45.4hPa | 2.7V | 03:03:23 | 02:13:31 | 00:00:00 | |
| BIOWL1-15 | 2026-08-30 12:43:45 | 49.93712 | 8.32933 | 329° | 27km/h | 21666m | -20.7m/s | -53.6°C | 0.5% | 45.3hPa | 2.7V | 03:03:27 | 02:13:30 | 00:00:00 | |
| DM0DOS-11 | 2026-08-30 12:43:44 | 49.93679 | 8.32955 | 343° | 29km/h | 21753m | -18.6m/s | -53.4°C | 3.9% | 44.6hPa | 2.7V | 03:03:29 | 02:13:25 | 00:00:00 | |
| DL1XH-west | 2026-08-30 12:43:44 | 49.93706 | 8.32939 | 331° | 27km/h | 21685m | -18m/s | -53.6°C | 0.5% | 45.1hPa | 2.6V | 03:03:27 | 02:13:29 | 00:00:00 | |
| DL3AQ-11 | 2026-08-30 12:43:44 | 49.93700 | 8.32943 | 333° | 26km/h | 21702m | -15.9m/s | -53.6°C | 1.0% | 45.0hPa | 2.6V | 00:00:00 | 00:00:00 | 00:00:00 | |
| DL1XH-15 | 2026-08-30 12:43:43 | 49.93665 | 8.32961 | 347° | 31km/h | 21790m | -20m/s | -53°C | 3.8% | 44.4hPa | 2.6V | 03:03:31 | 02:13:23 | 00:00:00 | |
| DB0UT-9 | 2026-08-30 12:43:40 | 49.93686 | 8.32951 | 341° | 29km/h | 21736m | -17.1m/s | -53.6°C | 1.0% | 44.8hPa | 2.7V | 03:04:00 | 00:00:00 | 00:00:00 | |
| DL1ZP-14 | 2026-08-30 12:43:39 | 49.93672 | 8.32958 | 346° | 29km/h | 21771m | -18.0m/s | -53.1°C | 1.0% | 44.5hPa | 2.7V | 00:00:00 | 00:00:00 | 00:00:00 | |
| KANTATE | 2026-08-30 12:43:38 | 49.93672 | 8.32958 | 347° | 31km/h | 21771m | -18.0m/s | -53.1°C | 1.0% | 44.5hPa | 2.6V | 03:04:00 | 00:00:00 | 00:00:00 | |
| DL1XH1-15 | 2026-08-30 12:43:36 | 49.93648 | 8.32965 | 350° | 35km/h | 21829m | -19.9m/s | -53°C | 3.8% | 44.1hPa | 2.6V | 03:03:33 | 02:13:21 | 00:00:00 | |
| HEMX73-11 | 2026-08-30 12:43:35 | 49.93648 | 8.32965 | 352° | 35km/h | 21829m | -19.9m/s | -53.0°C | 0.9% | 44.1hPa | 2.7V | 03:04:00 | 00:00:00 | 00:00:00 | |
| DM0DOS-11 | 2026-08-30 12:43:34 | 49.93600 | 8.32977 | 355° | 26km/h | 21933m | -17.3m/s | -53.6°C | 3.9% | 43.4hPa | 2.7V | 03:03:39 | 02:13:15 | 00:00:00 | |
| DL1XH-west | 2026-08-30 12:43:34 | 49.93630 | 8.32970 | 348° | 35km/h | 21867m | -19.3m/s | -53.3°C | 0.3% | 43.9hPa | 2.7V | 03:04:18 | 02:13:19 | 00:00:00 | |
| DJ2KF-10 | 2026-08-30 12:43:33 | 49.93622 | 8.32973 | 350° | 15km/h | 21885m | -16.4m/s | -53.3°C | 3.9% | 43.7hPa | 2.7V | 00:00:00 | 02:13:18 | 00:00:00 | |
| DL1XH1-15 | 2026-08-30 12:43:31 | 49.93577 | 8.32977 | 358° | 20km/h | 22009m | -16.4m/s | -53.9°C | 4.1% | 42.9hPa | 2.7V | 03:03:43 | 02:13:11 | 00:00:00 | |
| DL1XH-west | 2026-08-30 12:43:24 | 49.93568 | 8.32977 | 355° | 15km/h | 22045m | -20.5m/s | -53.9°C | 0.5% | 42.7hPa | 2.7V | 03:04:18 | 02:13:09 | 00:00:00 | |
| BIOWL1-15 | 2026-08-30 12:43:23 | 49.93545 | 8.32981 | 350° | 16km/h | 22155m | -16.1m/s | -53.7°C | 0.5% | 41.9hPa | 2.6V | 03:04:18 | 02:13:03 | 00:00:00 | |
| DL4BBY-15 | 2026-08-30 12:43:23 | 49.93564 | 8.32978 | 356° | 13km/h | 22066m | -20.1m/s | -55.0°C | 0% | 0hPa | 2.7V | 00:00:00 | 00:00:00 | 00:00:00 | |
| DM0DOS-11 | 2026-08-30 12:43:22 | 49.93553 | 8.32978 | 347° | 15km/h | 22121m | -17.8m/s | -53.8°C | 4.1% | 42.1hPa | 2.7V | 03:03:49 | 02:13:05 | 00:00:00 | |
| DD1CC8 | 2026-08-30 12:43:22 | 49.93557 | 8.32978 | 356° | 15km/h | 22103m | -17.5m/s | -53.8°C | 1.0% | 42.2hPa | 2.6V | 00:00:00 | 00:00:00 | 00:00:00 | |
| DB0UT-9 | 2026-08-30 12:43:20 | 49.93556 | 8.32978 | 357° | 15km/h | 22103m | -17.5m/s | -53.8°C | 1.1% | 42.2hPa | 2.6V | 03:04:00 | 00:00:00 | 00:00:00 | |
| DL1XH-15 | 2026-08-30 12:43:19 | 49.93530 | 8.32982 | 13° | 11km/h | 22220m | -19.7m/s | -53.5°C | 4% | 41.5hPa | 2.6V | 03:03:55 | 02:12:59 | 00:00:00 | |
| DL1XH1-15 | 2026-08-30 12:43:19 | 49.93537 | 8.32983 | 351° | 15km/h | 22186m | -14.8m/s | -53.6°C | 4% | 41.7hPa | 2.7V | 03:03:53 | 02:13:01 | 00:00:00 | |
| DL1XH-west | 2026-08-30 12:43:13 | 49.93527 | 8.32981 | 14° | 11km/h | 22239m | -18.6m/s | -53.4°C | 0.4% | 41.4hPa | 2.6V | 03:04:18 | 02:12:58 | 00:00:00 | |
| DM0DOS-11 | 2026-08-30 12:43:11 | 49.93520 | 8.32979 | 356° | 11km/h | 22294m | -17.2m/s | -53.4°C | 4% | 41hPa | 2.7V | 03:03:59 | 02:12:55 | 00:00:00 | |
| DB0DAN | 2026-08-30 12:43:10 | 49.93520 | 8.32979 | 356° | 9km/h | 22294m | -17.2m/s | -53.4°C | 1% | 41.02hPa | 2.7V | 00:00:00 | 00:00:00 | 00:00:00 | |
| BIOWL1-15 | 2026-08-30 12:43:08 | 49.93514 | 8.32981 | 344° | 11km/h | 22329m | -18.8m/s | -53.5°C | 0.4% | 40.8hPa | 2.6V | 03:04:18 | 02:12:53 | 00:00:00 | |
| DL1XH-15 | 2026-08-30 12:43:07 | 49.93496 | 8.32990 | 329° | 13km/h | 22436m | -17.8m/s | -53.5°C | 3.9% | 40.1hPa | 2.6V | 03:04:07 | 02:12:47 | 00:00:00 | |
| DL1XH1-15 | 2026-08-30 12:43:06 | 49.93509 | 8.32983 | 344° | 13km/h | 22365m | -17m/s | -53.5°C | 3.9% | 40.5hPa | 2.6V | 03:04:03 | 02:12:51 | 00:00:00 | |
| AA1-15 | 2026-08-30 12:43:06 | 49.93502 | 8.32986 | 340° | 15km/h | 22400m | -18.4m/s | -53.5°C | 0.4% | 40.3hPa | 2.7V | 03:06:00 | 02:12:49 | 00:00:00 | |
| DL1XH-west | 2026-08-30 12:43:02 | 49.93496 | 8.32990 | 329° | 13km/h | 22437m | -17.8m/s | -53.5°C | 0.4% | 40.1hPa | 2.6V | 03:04:18 | 02:12:47 | 00:00:00 | |
| DM0DOS-11 | 2026-08-30 12:43:00 | 49.93491 | 8.32996 | 314° | 11km/h | 22474m | -19m/s | -53.6°C | 4% | 39.8hPa | 2.6V | 03:04:09 | 02:12:45 | 00:00:00 | |
| BIOWL1-15 | 2026-08-30 12:42:59 | 49.93488 | 8.33006 | 285° | 11km/h | 22523m | -13.9m/s | -53.7°C | 0.5% | 39.5hPa | 2.6V | 03:04:18 | 02:12:42 | 00:00:00 | |
| DO2KSM | 2026-08-30 12:42:57 | 49.93489 | 8.33002 | 283° | 9km/h | 22509m | -14.8m/s | -53.7°C | 0% | 39.6hPa | 2.6V | 03:04:00 | 00:00:00 | 00:00:00 | |
| DL8OAI-8 | 2026-08-30 12:42:56 | 49.93488 | 8.33006 | 286° | 11km/h | 22523m | -13.9m/s | -53.7°C | 1.1% | 39.5hPa | 2.6V | 03:04:00 | 00:00:00 | 00:00:00 | |
| DL1XH-15 | 2026-08-30 12:42:55 | 49.93479 | 8.33029 | 306° | 16km/h | 22601m | -14.4m/s | -53.6°C | 4.1% | 39hPa | 2.6V | 03:04:17 | 02:12:37 | 00:00:00 | |
| DL1XH-west | 2026-08-30 12:42:52 | 49.93479 | 8.33029 | 307° | 16km/h | 22601m | -14.5m/s | -53.6°C | 0.5% | 39hPa | 2.6V | 03:04:18 | 02:12:37 | 00:00:00 | |
| DD1CC8 | 2026-08-30 12:42:50 | 49.93472 | 8.33039 | 323° | 18km/h | 22634m | -19.8m/s | -53.6°C | 1.0% | 38.9hPa | 2.7V | 00:00:00 | 00:00:00 | 00:00:00 | |
| DM0DOS-11 | 2026-08-30 12:42:48 | 49.93464 | 8.33048 | 324° | 22km/h | 22675m | -21.6m/s | -53.6°C | 4.1% | 38.7hPa | 2.7V | 03:04:21 | 02:12:33 | 00:00:00 | |
| DL3AQ-11 | 2026-08-30 12:42:48 | 49.93459 | 8.33053 | 323° | 18km/h | 22697m | -21.9m/s | -53.7°C | 1.0% | 38.5hPa | 2.6V | 00:00:00 | 00:00:00 | 00:00:00 | |
| DB0UT-7 | 2026-08-30 12:42:47 | 49.93459 | 8.33053 | 324° | 15km/h | 22697m | -21.8m/s | -53.6°C | 4.1% | 38.5hPa | 2.6V | 03:04:00 | 02:12:32 | 00:00:00 | |
| DL1XH1-15 | 2026-08-30 12:42:46 | 49.93443 | 8.33064 | 354° | 16km/h | 22772m | -17m/s | -53.7°C | 4.1% | 38hPa | 2.7V | 03:04:26 | 02:12:28 | 00:00:00 | |
| BIOWL1-15 | 2026-08-30 12:42:46 | 49.93455 | 8.33057 | 328° | 18km/h | 22718m | -20.7m/s | -53.7°C | 0.5% | 38.4hPa | 2.6V | 03:05:09 | 02:12:31 | 00:00:00 | |
| DJ2DS-15 | 2026-08-30 12:42:46 | 49.93455 | 8.33057 | 328° | 15km/h | 22718m | -20.6m/s | -53.6°C | 4.1% | 38.3hPa | 2.7V | 03:04:00 | 02:12:31 | 00:00:00 | |
| DF1GD-15 | 2026-08-30 12:42:45 | 49.93451 | 8.33060 | 337° | 16km/h | 22737m | -18.5m/s | -53.7°C | 1.0% | 38.3hPa | 2.7V | 00:00:00 | 00:00:00 | 00:00:00 | |
| DM0DOS-11 | 2026-08-30 12:42:43 | 49.93417 | 8.33058 | 13° | 24km/h | 22868m | -18.8m/s | -53.2°C | 4% | 37.5hPa | 2.7V | 03:04:31 | 02:12:23 | 00:00:00 | |
| DL1XH-15 | 2026-08-30 12:42:43 | 49.93438 | 8.33064 | 4° | 18km/h | 22790m | -17.7m/s | -53.7°C | 4.1% | 37.9hPa | 2.7V | 03:04:27 | 02:12:27 | 00:00:00 | |
| DL1XH-west | 2026-08-30 12:42:41 | 49.93434 | 8.33063 | 10° | 20km/h | 22808m | -18.2m/s | -53.6°C | 0.5% | 37.8hPa | 2.6V | 03:05:09 | 02:12:26 | 00:00:00 | |
| AA1-15 | 2026-08-30 12:42:40 | 49.93428 | 8.33061 | 10° | 22km/h | 22827m | -21.3m/s | -53.5°C | 0.5% | 37.8hPa | 2.6V | 03:06:00 | 02:12:25 | 00:00:00 | |
| DB0UT-9 | 2026-08-30 12:42:38 | 49.93423 | 8.33060 | 11° | 24km/h | 22849m | -20.6m/s | -53.3°C | 1.0% | 37.6hPa | 2.6V | 03:05:00 | 00:00:00 | 00:00:00 | |
| DL1XH-15 | 2026-08-30 12:42:37 | 49.93392 | 8.33050 | 13° | 7km/h | 22977m | -17.2m/s | -53°C | 3.9% | 36.8hPa | 2.6V | 03:04:37 | 02:12:17 | 00:00:00 | |
| BIOWL1-15 | 2026-08-30 12:42:35 | 49.93402 | 8.33052 | 11° | 18km/h | 22925m | -18.2m/s | -53.1°C | 0.4% | 37.1hPa | 2.6V | 03:05:09 | 02:12:20 | 00:00:00 | |
| DL1XH-west | 2026-08-30 12:42:30 | 49.93389 | 8.33048 | 41° | 5km/h | 23011m | -16.7m/s | -52.9°C | 0.3% | 36.6hPa | 2.7V | 03:05:09 | 02:12:15 | 00:00:00 | |
| BIOWL1-15 | 2026-08-30 12:42:24 | 49.93381 | 8.33043 | 358° | 9km/h | 23124m | -18.4m/s | -53°C | 0.3% | 36hPa | 2.7V | 03:05:09 | 02:12:09 | 00:00:00 | |
| DL1XH-west | 2026-08-30 12:42:20 | 49.93369 | 8.33048 | 345° | 15km/h | 23199m | -18m/s | -53.1°C | 0.4% | 35.6hPa | 2.6V | 03:05:09 | 02:12:05 | 00:00:00 | |
| AA1-15 | 2026-08-30 12:42:19 | 49.93365 | 8.33049 | 348° | 18km/h | 23219m | -20.4m/s | -53.1°C | 0.4% | 35.5hPa | 2.7V | 03:06:00 | 02:12:04 | 00:00:00 | |
| BIOWL1-15 | 2026-08-30 12:42:13 | 49.93336 | 8.33058 | 353° | 20km/h | 23334m | -17.4m/s | -53°C | 0.4% | 34.8hPa | 2.7V | 03:05:09 | 02:11:58 | 00:00:00 | |
| HEMX73-11 | 2026-08-30 12:42:12 | 49.93336 | 8.33058 | 354° | 20km/h | 23335m | -17.4m/s | -53.0°C | 0.9% | 34.8hPa | 2.7V | 03:05:00 | 00:00:00 | 00:00:00 | |
| DL8DAS-15 | 2026-08-30 12:42:10 | 49.93326 | 8.33060 | 357° | 18km/h | 23370m | -16.1m/s | -53.1°C | 1.0% | 34.7hPa | 2.7V | 00:00:00 | 00:00:00 | 00:00:00 | |
| DM0DOS-11 | 2026-08-30 12:42:09 | 49.93316 | 8.33059 | 13° | 9km/h | 23425m | -20.1m/s | -53.2°C | 4% | 34.4hPa | 2.7V | 03:05:01 | 02:11:53 | 00:00:00 | |
| AA1-15 | 2026-08-30 12:42:09 | 49.93319 | 8.33060 | 8° | 11km/h | 23405m | -20.1m/s | -53.2°C | 0.4% | 34.5hPa | 2.7V | 03:06:00 | 02:11:54 | 00:00:00 | |
| DL3AQ-11 | 2026-08-30 12:42:08 | 49.93314 | 8.33058 | 14° | 5km/h | 23445m | -20.0m/s | -53.2°C | 0.9% | 34.3hPa | 2.6V | 00:00:00 | 00:00:00 | 00:00:00 | |
| DJ2DS-15 | 2026-08-30 12:42:06 | 49.93312 | 8.33057 | 11° | 7km/h | 23465m | -19.9m/s | -53.2°C | 3.9% | 34.1hPa | 2.6V | 00:00:00 | 02:11:51 | 00:00:00 | |
| DB0ND-19 | 2026-08-30 12:42:04 | 49.93309 | 8.33055 | 54° | 5km/h | 23504m | -20.7m/s | -53.2°C | 1.0% | 34.0hPa | 2.7V | 00:00:00 | 00:00:00 | 00:00:00 | |
| DM0DOS-11 | 2026-08-30 12:42:03 | 49.93307 | 8.33037 | 93° | 9km/h | 23617m | -20.3m/s | -52.8°C | 3.9% | 33.4hPa | 2.7V | 03:05:11 | 02:11:43 | 00:00:00 | |
| BIOWL1-15 | 2026-08-30 12:42:03 | 49.93309 | 8.33052 | 70° | 7km/h | 23524m | -19.9m/s | -53.1°C | 0.4% | 33.8hPa | 2.6V | 03:05:09 | 02:11:48 | 00:00:00 | |
| DL1XH-west | 2026-08-30 12:41:59 | 49.93307 | 8.33041 | 89° | 9km/h | 23597m | -20.3m/s | -52.8°C | 0.3% | 33.5hPa | 2.7V | 03:06:00 | 02:11:44 | 00:00:00 | |
| AA1-15 | 2026-08-30 12:41:57 | 49.93307 | 8.33033 | 103° | 9km/h | 23638m | -20.7m/s | -52.8°C | 0.3% | 33.3hPa | 2.6V | 03:06:00 | 02:11:42 | 00:00:00 | |
| DB0DAN | 2026-08-30 12:41:55 | 49.93308 | 8.33027 | 110° | 7km/h | 23676m | -18.3m/s | -52.8°C | 0.9% | 33.06hPa | 2.6V | 00:00:00 | 00:00:00 | 00:00:00 | |
| BIOWL1-15 | 2026-08-30 12:41:54 | 49.93312 | 8.33021 | 148° | 5km/h | 23731m | -20.5m/s | -52.9°C | 0.4% | 32.8hPa | 2.7V | 03:06:00 | 02:11:37 | 00:00:00 | |
| DM0DOS-11 | 2026-08-30 12:41:53 | 49.93316 | 8.33016 | 158° | 5km/h | 23801m | -16.2m/s | -53°C | 3.9% | 32.4hPa | 2.7V | 03:05:21 | 02:11:33 | 00:00:00 | |
| DL1XH-west | 2026-08-30 12:41:48 | 49.93316 | 8.33016 | 158° | 5km/h | 23801m | -16.2m/s | -53°C | 0.4% | 32.4hPa | 2.7V | 03:06:00 | 02:11:33 | 00:00:00 | |
| DJ2DS-15 | 2026-08-30 12:41:46 | 49.93319 | 8.33015 | 168° | 11km/h | 23836m | -19.0m/s | -52.9°C | 3.9% | 32.2hPa | 2.7V | 00:00:00 | 02:11:31 | 00:00:00 | |
| DB0UT-7 | 2026-08-30 12:41:45 | 49.93321 | 8.33014 | 172° | 11km/h | 23855m | -18.1m/s | -52.9°C | 3.9% | 32.1hPa | 2.7V | 00:00:00 | 02:11:30 | 00:00:00 | |
| BIOWL7-15 | 2026-08-30 12:41:44 | 49.93325 | 8.33013 | 171° | 15km/h | 23874m | -20.1m/s | -52.9°C | 0.9% | 32.1hPa | 2.7V | 00:00:00 | 00:00:00 | 00:00:00 | |
| DM0DOS-11 | 2026-08-30 12:41:43 | 49.93347 | 8.33011 | 188° | 15km/h | 23985m | -19m/s | -52.7°C | 3.9% | 31.5hPa | 2.7V | 03:05:31 | 02:11:23 | 00:00:00 | |
| BIOWL1-15 | 2026-08-30 12:41:42 | 49.93332 | 8.33012 | 177° | 15km/h | 23916m | -20.2m/s | -52.8°C | 0.4% | 31.9hPa | 2.7V | 03:06:00 | 02:11:27 | 00:00:00 | |
| DB0DAN | 2026-08-30 12:41:40 | 49.93340 | 8.33011 | 175° | 15km/h | 23952m | -16.3m/s | -52.7°C | 1% | 31.62hPa | 2.6V | 00:00:00 | 00:00:00 | 00:00:00 | |
| AA1-15 | 2026-08-30 12:41:40 | 49.93344 | 8.33011 | 184° | 15km/h | 23968m | -14.9m/s | -52.6°C | 0.4% | 31.5hPa | 2.6V | 03:06:00 | 02:11:24 | 00:00:00 | |
| DL1XH-west | 2026-08-30 12:41:38 | 49.93347 | 8.33011 | 188° | 15km/h | 23985m | -19m/s | -52.7°C | 0.4% | 0hPa | 2.7V | 03:06:00 | 02:11:23 | 00:00:00 | |
| BIOWL1-15 | 2026-08-30 12:41:34 | 49.93355 | 8.33027 | 301° | 11km/h | 24102m | -21.2m/s | -52.8°C | 0.5% | 30.9hPa | 2.6V | 03:06:00 | 02:11:17 | 00:00:00 | |
| DB0ND-19 | 2026-08-30 12:41:34 | 49.93356 | 8.33023 | 279° | 11km/h | 24081m | -22.4m/s | -52.8°C | 1.0% | 31.0hPa | 2.6V | 00:00:00 | 00:00:00 | 00:00:00 | |
| DL0LBS | 2026-08-30 12:41:33 | 49.93356 | 8.33023 | 280° | 11km/h | 24081m | -22.4m/s | -52.8°C | 1.0% | 31.0hPa | 2.6V | 03:06:00 | 00:00:00 | 00:00:00 | |
| DM0DOS-11 | 2026-08-30 12:41:32 | 49.93349 | 8.33045 | 283° | 4km/h | 24199m | -24.4m/s | -52.6°C | 4% | 30.5hPa | 2.6V | 03:05:42 | 02:11:12 | 00:00:00 | |
| AA1-15 | 2026-08-30 12:41:29 | 49.93350 | 8.33043 | 308° | 5km/h | 24177m | -20.1m/s | -52.7°C | 0.4% | 30.6hPa | 2.6V | 03:06:00 | 02:11:13 | 00:00:00 | |
| DL1XH-west | 2026-08-30 12:41:27 | 49.93349 | 8.33045 | 284° | 4km/h | 24199m | -24.4m/s | -52.6°C | 0.5% | 0hPa | 2.6V | 03:06:00 | 02:11:12 | 00:00:00 | |
| BIOWL1-15 | 2026-08-30 12:41:21 | 49.93356 | 8.33043 | 179° | 7km/h | 24333m | -19m/s | -52°C | 0.4% | 29.8hPa | 2.6V | 03:06:00 | 02:11:06 | 00:00:00 | |
| AA1-15 | 2026-08-30 12:41:19 | 49.93362 | 8.33049 | 243° | 11km/h | 24396m | -22.2m/s | -51.9°C | 0.3% | 29.6hPa | 2.7V | 03:06:00 | 02:11:03 | 00:00:00 | |
| DM0DOS-11 | 2026-08-30 12:41:18 | 49.93364 | 8.33053 | 263° | 13km/h | 24419m | -22.1m/s | -51.9°C | 3.8% | 29.4hPa | 2.7V | 03:05:52 | 02:11:02 | 00:00:00 | |
| DL1XH-west | 2026-08-30 12:41:16 | 49.93364 | 8.33058 | 272° | 13km/h | 24441m | -20m/s | -51.8°C | 0.4% | 0hPa | 2.6V | 03:06:00 | 02:11:01 | 00:00:00 | |
| BIOWL1-15 | 2026-08-30 12:41:11 | 49.93332 | 8.33135 | 319° | 16km/h | 24712m | -20.9m/s | -51.3°C | 0.2% | 28.1hPa | 2.6V | 03:06:51 | 02:10:48 | 00:00:00 | |
| AA1-15 | 2026-08-30 12:41:08 | 49.93343 | 8.33115 | 315° | 16km/h | 24625m | -22.8m/s | -51.4°C | 0.2% | 28.5hPa | 2.7V | 03:06:51 | 02:10:52 | 00:00:00 | |
| DL1XH-west | 2026-08-30 12:41:05 | 49.93337 | 8.33125 | 306° | 16km/h | 24669m | -22.6m/s | 0°C | 0% | 0hPa | 2.7V | 18:12:15 | 02:10:50 | 00:00:00 | |
| BIOWL1-15 | 2026-08-30 12:41:00 | 49.93315 | 8.33155 | 330° | 26km/h | 24794m | -20.3m/s | -51.3°C | 0.2% | 27.8hPa | 2.6V | 03:06:51 | 02:10:44 | 00:00:00 | |
| BIOWL9-15 | 2026-08-30 12:40:58 | 49.93304 | 8.33162 | 345° | 24km/h | 24835m | -19.5m/s | -51.2°C | 0.8% | 27.6hPa | 2.7V | 00:00:00 | 00:00:00 | 00:00:00 | |
| DJ2KF-10 | 2026-08-30 12:40:57 | 49.93304 | 8.33162 | 346° | 18km/h | 24835m | -19.5m/s | -51.2°C | 3.6% | 27.5hPa | 2.7V | 00:00:00 | 02:10:42 | 00:00:00 | |
| BIOWL7-15 | 2026-08-30 12:40:56 | 49.93298 | 8.33165 | 348° | 27km/h | 24856m | -21.6m/s | -51.1°C | 0.8% | 27.5hPa | 2.6V | 00:00:00 | 00:00:00 | 00:00:00 | |
| DM0DOS-11 | 2026-08-30 12:40:55 | 49.93267 | 8.33170 | 7° | 24km/h | 24947m | -21.4m/s | -51.1°C | 3.5% | 27.1hPa | 2.6V | 03:06:18 | 02:10:36 | 00:00:00 | |
| DL1XH-west | 2026-08-30 12:40:55 | 49.93291 | 8.33167 | 350° | 27km/h | 24876m | -18.5m/s | 0°C | 0% | 0hPa | 2.6V | 18:12:15 | 02:10:40 | 00:00:00 | |
| BIOWL1-15 | 2026-08-30 12:40:50 | 49.93262 | 8.33170 | 4° | 20km/h | 24968m | -21.1m/s | -51.1°C | 0.2% | 27hPa | 2.6V | 03:06:51 | 02:10:35 | 00:00:00 | |
| AU51GT2 | 2026-08-30 12:40:49 | 49.93257 | 8.33169 | 12° | 18km/h | 24990m | -22.1m/s | -51.1°C | 0.8% | 26.9hPa | 2.7V | 00:00:00 | 00:00:00 | 00:00:00 | |
| DL9SK-14 | 2026-08-30 12:40:48 | 49.93252 | 8.33167 | 17° | 18km/h | 25012m | -23.4m/s | -51.1°C | 0.8% | 26.8hPa | 2.7V | 00:00:00 | 00:00:00 | 00:00:00 | |
| DL3AQ-11 | 2026-08-30 12:40:47 | 49.93247 | 8.33165 | 18° | 18km/h | 25035m | -21.7m/s | -51.2°C | 0.8% | 26.7hPa | 2.7V | 00:00:00 | 00:00:00 | 00:00:00 | |
| DJ2DS-15 | 2026-08-30 12:40:46 | 49.93243 | 8.33163 | 16° | 9km/h | 25056m | -21.0m/s | -51.1°C | 3.6% | 26.6hPa | 2.7V | 00:00:00 | 02:10:31 | 00:00:00 | |
| DM0DOS-11 | 2026-08-30 12:40:45 | 49.93221 | 8.33150 | 32° | 11km/h | 25179m | -22.2m/s | -51.1°C | 3.6% | 26.1hPa | 2.7V | 03:06:29 | 02:10:25 | 00:00:00 | |
| AA1-15 | 2026-08-30 12:40:44 | 49.93235 | 8.33159 | 24° | 16km/h | 25098m | -21.6m/s | -51.1°C | 0.3% | 26.5hPa | 2.7V | 03:06:51 | 02:10:29 | 00:00:00 | |
| BIOWL1-15 | 2026-08-30 12:40:39 | 49.93219 | 8.33149 | 6° | 7km/h | 25200m | -20.2m/s | -51.1°C | 0.2% | 26hPa | 2.7V | 03:06:51 | 02:10:24 | 00:00:00 | |
| DL1XH-west | 2026-08-30 12:40:34 | 49.93220 | 8.33151 | 204° | 5km/h | 25311m | -19.6m/s | 0°C | 0% | 0hPa | 2.7V | 18:12:15 | 02:10:19 | 00:00:00 | |
| AA1-15 | 2026-08-30 12:40:33 | 49.93221 | 8.33153 | 224° | 4km/h | 25332m | -21.4m/s | -50.9°C | 0.2% | 25.5hPa | 2.7V | 03:06:51 | 02:10:18 | 00:00:00 | |
| BIOWL1-15 | 2026-08-30 12:40:30 | 49.93220 | 8.33165 | 301° | 9km/h | 25430m | -19.2m/s | -51.1°C | 0.3% | 25.1hPa | 2.7V | 03:06:51 | 02:10:13 | 00:00:00 | |
| DL1XH-west | 2026-08-30 12:40:24 | 49.93216 | 8.33185 | 284° | 16km/h | 25504m | -18.2m/s | 0°C | 0% | 0hPa | 2.6V | 18:12:15 | 02:10:09 | 00:00:00 | |
| AA1-15 | 2026-08-30 12:40:22 | 49.93214 | 8.33199 | 288° | 20km/h | 25545m | -22.2m/s | -50.7°C | 0.3% | 24.7hPa | 2.7V | 03:06:51 | 02:10:07 | 00:00:00 | |
| BIOWL1-15 | 2026-08-30 12:40:20 | 49.93204 | 8.33227 | 317° | 20km/h | 25628m | -20.5m/s | -50.5°C | 0.2% | 24.4hPa | 2.6V | 03:06:51 | 02:10:03 | 00:00:00 | |
| AA1-15 | 2026-08-30 12:40:12 | 49.93183 | 8.33246 | 328° | 9km/h | 25754m | -22.7m/s | -50.1°C | 0.1% | 23.9hPa | 2.6V | 03:07:42 | 02:09:57 | 00:00:00 | |
| DB0DAN | 2026-08-30 12:40:10 | 49.93180 | 8.33251 | 296° | 7km/h | 25798m | -22.7m/s | -50°C | 0.8% | 23.73hPa | 2.7V | 00:00:00 | 00:00:00 | 00:00:00 | |
| BIOWL1-15 | 2026-08-30 12:40:08 | 49.93179 | 8.33259 | 285° | 11km/h | 25840m | -19.6m/s | -49.9°C | 0% | 23.6hPa | 2.7V | 03:07:42 | 02:09:53 | 00:00:00 | |
| AA1-15 | 2026-08-30 12:40:02 | 49.93169 | 8.33290 | 304° | 11km/h | 25988m | -21.6m/s | -49.6°C | 0.1% | 23.1hPa | 2.6V | 03:07:42 | 02:09:46 | 00:00:00 | |
| BIOWL1-15 | 2026-08-30 12:39:57 | 49.93157 | 8.33308 | 334° | 13km/h | 26092m | -18.8m/s | -49.9°C | 0.1% | 22.7hPa | 2.7V | 03:07:42 | 02:09:41 | 00:00:00 | |
| AA1-15 | 2026-08-30 12:39:51 | 49.93142 | 8.33312 | 13° | 9km/h | 26202m | -23.1m/s | -50.1°C | 0.1% | 22.3hPa | 2.7V | 03:07:42 | 02:09:36 | 00:00:00 | |
| DL1XH-west | 2026-08-30 12:39:47 | 49.93137 | 8.33303 | 81° | 7km/h | 26290m | -19.4m/s | 0°C | 0% | 0hPa | 2.6V | 18:12:15 | 02:09:32 | 00:00:00 | |
| BIOWL1-15 | 2026-08-30 12:39:45 | 49.93137 | 8.33300 | 144° | 5km/h | 26332m | -22.5m/s | -50°C | 0.1% | 21.9hPa | 2.7V | 03:07:42 | 02:09:30 | 00:00:00 | |
| AA1-15 | 2026-08-30 12:39:40 | 49.93139 | 8.33299 | 319° | 4km/h | 26446m | -21.9m/s | -49.8°C | 0.1% | 21.5hPa | 2.7V | 03:07:42 | 02:09:25 | 00:00:00 | |
| AA1-15 | 2026-08-30 12:39:30 | 49.93127 | 8.33352 | 289° | 22km/h | 26657m | -19.7m/s | 0°C | 0% | 20.8hPa | 2.6V | 03:07:42 | 02:09:15 | 00:00:00 | |
| BIOWL1-15 | 2026-08-30 12:39:24 | 49.93110 | 8.33392 | 313° | 26km/h | 26807m | -22.4m/s | -49.9°C | 0.2% | 20.3hPa | 2.6V | 03:08:33 | 02:09:09 | 00:00:00 | |
| AA1-15 | 2026-08-30 12:39:18 | 49.93083 | 8.33433 | 322° | 27km/h | 26950m | -20.7m/s | 0°C | 0% | 19.9hPa | 2.6V | 18:12:15 | 02:09:03 | 00:00:00 | |
| BIOWL1-15 | 2026-08-30 12:39:17 | 49.93054 | 8.33462 | 329° | 24km/h | 27058m | -23m/s | -49.2°C | 0.1% | 19.5hPa | 2.6V | 03:08:33 | 02:08:58 | 00:00:00 | |
| GOEST3-10 | 2026-08-30 12:39:16 | 49.93072 | 8.33446 | 327° | 24km/h | 26992m | -21.8m/s | -49.4°C | 3.4% | 19.7hPa | 2.6V | 00:00:00 | 02:09:01 | 00:00:00 | |
| DL3AQ-11 | 2026-08-30 12:39:15 | 49.93060 | 8.33456 | 331° | 27km/h | 27036m | -21.4m/s | -49.3°C | 0.8% | 19.6hPa | 2.6V | 00:00:00 | 00:00:00 | 00:00:00 | |
| DM0DOS-11 | 2026-08-30 12:39:13 | 49.93044 | 8.33470 | 338° | 22km/h | 27107m | -23.2m/s | -49.2°C | 3.4% | 19.4hPa | 2.6V | 03:07:58 | 02:08:56 | 00:00:00 | |
| DB0DAN | 2026-08-30 12:39:10 | 49.93039 | 8.33472 | 347° | 20km/h | 27129m | -21.9m/s | -49.3°C | 0.8% | 19.31hPa | 2.7V | 00:00:00 | 00:00:00 | 00:00:00 | |
| AA1-15 | 2026-08-30 12:39:07 | 49.93023 | 8.33475 | 359° | 22km/h | 27190m | -17.9m/s | 0°C | 0% | 0hPa | 2.6V | 18:12:15 | 02:08:52 | 00:00:00 | |
| BIOWL1-15 | 2026-08-30 12:39:03 | 49.93006 | 8.33471 | 25° | 13km/h | 27281m | -24.7m/s | -49.4°C | 0.1% | 18.9hPa | 2.7V | 03:08:33 | 02:08:48 | 00:00:00 | |
| DL1ZP-14 | 2026-08-30 12:39:00 | 49.92998 | 8.33465 | 32° | 11km/h | 27354m | -27.2m/s | -48.6°C | 0.7% | 18.7hPa | 2.6V | 00:00:00 | 00:00:00 | 00:00:00 | |
| DM0DOS-11 | 2026-08-30 12:38:59 | 49.92995 | 8.33462 | 40° | 16km/h | 27380m | -25.6m/s | -48.5°C | 3.2% | 18.6hPa | 2.6V | 03:08:10 | 02:08:44 | 00:00:00 | |
| BIOWL1-15 | 2026-08-30 12:38:57 | 49.92979 | 8.33439 | 50° | 7km/h | 27519m | -24.1m/s | -48.6°C | 0% | 18.2hPa | 2.6V | 03:08:33 | 02:08:38 | 00:00:00 | |
| BIOWL9-15 | 2026-08-30 12:38:54 | 49.92979 | 8.33439 | 49° | 7km/h | 27520m | -24.1m/s | -48.6°C | 0.7% | 18.2hPa | 2.6V | 00:00:00 | 00:00:00 | 00:00:00 | |
| DM0DOS-11 | 2026-08-30 12:38:53 | 49.92974 | 8.33437 | 313° | 5km/h | 27622m | -23.5m/s | -49°C | 3.3% | 17.9hPa | 2.6V | 03:08:20 | 02:08:34 | 00:00:00 | |
| AA1-15 | 2026-08-30 12:38:51 | 49.92975 | 8.33436 | 351° | 5km/h | 27598m | -24.1m/s | 0°C | 0% | 0hPa | 2.7V | 18:12:15 | 02:08:35 | 00:00:00 | |
| DL3AQ-11 | 2026-08-30 12:38:48 | 49.92972 | 8.33440 | 328° | 7km/h | 27668m | -22.3m/s | -49.1°C | 0.8% | 17.8hPa | 2.6V | 00:00:00 | 00:00:00 | 00:00:00 | |
| AU51GT2 | 2026-08-30 12:38:45 | 49.92969 | 8.33443 | 344° | 7km/h | 27714m | -24.3m/s | -49.1°C | 0.8% | 17.7hPa | 2.6V | 00:00:00 | 00:00:00 | 00:00:00 | |
| BIOWL1-15 | 2026-08-30 12:38:44 | 49.92961 | 8.33449 | 338° | 15km/h | 27786m | -26.5m/s | -48.7°C | 0% | 17.5hPa | 2.6V | 03:08:33 | 02:08:27 | 00:00:00 | |
| BIOWL1-15 | 2026-08-30 12:38:33 | 49.92921 | 8.33468 | 24° | 5km/h | 28066m | -23.7m/s | -48.3°C | 0% | 16.7hPa | 2.6V | 03:09:24 | 02:08:16 | 00:00:00 | |
| AA1-15 | 2026-08-30 12:38:33 | 49.92925 | 8.33469 | 348° | 9km/h | 28017m | -24.1m/s | 0°C | 0% | 0hPa | 2.7V | 18:12:15 | 02:08:18 | 00:00:00 | |
| DO2JMG | 2026-08-30 12:38:30 | 49.92919 | 8.33468 | 1° | 5km/h | 28089m | -22.8m/s | -48.4°C | 0% | 16.6hPa | 2.6V | 03:09:24 | 02:08:15 | 00:00:00 | |
| AA1-15 | 2026-08-30 12:38:22 | 49.92901 | 8.33462 | 7° | 16km/h | 28285m | -22.5m/s | 0°C | 0% | 0hPa | 2.7V | 18:12:15 | 02:08:07 | 00:00:00 | |
| BIOWL1-15 | 2026-08-30 12:38:22 | 49.92893 | 8.33461 | 358° | 15km/h | 28330m | -23.8m/s | -48.2°C | 0% | 16hPa | 2.7V | 03:09:24 | 02:08:05 | 00:00:00 | |
| GOEST3-10 | 2026-08-30 12:38:20 | 49.92892 | 8.33461 | 359° | 9km/h | 28330m | -23.7m/s | -48.2°C | 3.2% | 16.0hPa | 2.7V | 03:08:00 | 00:00:00 | 00:00:00 | |
| GOEST3-10 | 2026-08-30 12:38:14 | 49.92880 | 8.33467 | 280° | 15km/h | 28468m | -21.9m/s | -48.3°C | 3.3% | 15.6hPa | 2.7V | 00:00:00 | 02:07:59 | 00:00:00 | |
| DM0DOS-11 | 2026-08-30 12:38:13 | 49.92878 | 8.33494 | 298° | 18km/h | 28581m | -21.5m/s | -48°C | 3.3% | 15.4hPa | 2.7V | 03:09:00 | 02:07:54 | 00:00:00 | |
| DO2JMG | 2026-08-30 12:38:12 | 49.92880 | 8.33476 | 272° | 13km/h | 28515m | -23.8m/s | -48.3°C | 0.1% | 15.6hPa | 2.6V | 03:09:24 | 02:07:57 | 00:00:00 | |
| AA1-15 | 2026-08-30 12:38:11 | 49.92880 | 8.33481 | 276° | 15km/h | 28538m | -22m/s | 0°C | 0% | 0hPa | 2.6V | 18:12:15 | 02:07:56 | 00:00:00 | |
| BIOWL1-15 | 2026-08-30 12:38:09 | 49.92878 | 8.33494 | 299° | 18km/h | 28581m | -21.5m/s | -48°C | 0.1% | 15.4hPa | 2.7V | 03:09:24 | 02:07:54 | 00:00:00 | |
| HSKMA3-T | 2026-08-30 12:38:03 | 49.92850 | 8.33521 | 354° | 24km/h | 28721m | -24.8m/s | -47.5°C | 0% | 15.1hPa | 2.7V | 03:09:24 | 02:07:48 | 00:00:00 | |
| DO2JMG | 2026-08-30 12:38:01 | 49.92839 | 8.33519 | 12° | 18km/h | 28773m | -25.5m/s | -47.3°C | 0% | 15hPa | 2.6V | 03:09:24 | 02:07:46 | 00:00:00 | |
| BIOWL1-15 | 2026-08-30 12:38:00 | 49.92826 | 8.33511 | 29° | 20km/h | 28842m | -22m/s | -47.2°C | 0% | 14.8hPa | 2.7V | 03:09:24 | 02:07:43 | 00:00:00 | |
| DO2JMG | 2026-08-30 12:37:51 | 49.92792 | 8.33488 | 36° | 18km/h | 29005m | -24.8m/s | -47.2°C | 0% | 14.4hPa | 2.7V | 03:09:24 | 02:07:36 | 00:00:00 | |
| AA1-15 | 2026-08-30 12:37:50 | 49.92788 | 8.33483 | 35° | 18km/h | 29030m | -24.9m/s | 0°C | 0% | 0hPa | 2.7V | 18:12:15 | 02:07:35 | 00:00:00 | |
| BIOWL1-15 | 2026-08-30 12:37:47 | 49.92779 | 8.33465 | 58° | 22km/h | 29105m | -23.9m/s | -47.1°C | 0% | 14.2hPa | 2.6V | 03:09:24 | 02:07:32 | 00:00:00 | |
| DO2JMG | 2026-08-30 12:37:41 | 49.92768 | 8.33433 | 29° | 7km/h | 29249m | -26.3m/s | -46.9°C | 0% | 13.9hPa | 2.6V | 03:10:15 | 02:07:26 | 00:00:00 | |
| HSKMA3-T | 2026-08-30 12:37:40 | 49.92766 | 8.33431 | 34° | 9km/h | 29273m | -23.5m/s | -46.7°C | 0% | 13.8hPa | 2.7V | 03:10:15 | 02:07:25 | 00:00:00 | |
| DO2JMG | 2026-08-30 12:37:31 | 49.92762 | 8.33432 | 160° | 5km/h | 29502m | -22.2m/s | -45.9°C | 0% | 13.3hPa | 2.6V | 03:10:15 | 02:07:16 | 00:00:00 | |
| DM0DOS-11 | 2026-08-30 12:37:30 | 49.92763 | 8.33433 | 302° | 4km/h | 29554m | -28.5m/s | -45.8°C | 2.9% | 13.3hPa | 2.6V | 03:09:40 | 02:07:14 | 00:00:00 | |
| HSKMA3-T | 2026-08-30 12:37:30 | 49.92763 | 8.33432 | 208° | 4km/h | 29527m | -27.8m/s | -45.8°C | 0% | 13.3hPa | 2.6V | 03:10:15 | 02:07:15 | 00:00:00 | |
| AA1-15 | 2026-08-30 12:37:29 | 49.92763 | 8.33433 | 302° | 4km/h | 29554m | -28.5m/s | 0°C | 0% | 0hPa | 2.6V | 18:12:15 | 02:07:14 | 00:00:00 | |
| BIOWL1-15 | 2026-08-30 12:37:25 | 49.92759 | 8.33436 | 347° | 9km/h | 29668m | -29.7m/s | -45.7°C | 0% | 13hPa | 2.6V | 03:10:15 | 02:07:10 | 00:00:00 | |
| DO2JMG | 2026-08-30 12:37:20 | 49.92742 | 8.33430 | 17° | 15km/h | 29805m | -27.5m/s | -45.5°C | 0% | 12.8hPa | 2.7V | 03:10:15 | 02:07:05 | 00:00:00 | |
| HSKMA3-T | 2026-08-30 12:37:19 | 49.92738 | 8.33428 | 21° | 16km/h | 29833m | -28.4m/s | -45.5°C | 0% | 12.7hPa | 2.6V | 03:10:15 | 02:07:04 | 00:00:00 | |
| BIOWL1-15 | 2026-08-30 12:37:17 | 49.92724 | 8.33422 | 5° | 13km/h | 29943m | -26.9m/s | -45.4°C | 0% | 12.5hPa | 2.7V | 03:10:15 | 02:07:00 | 00:00:00 | |
| AA1-15 | 2026-08-30 12:37:11 | 49.92717 | 8.33422 | 308° | 2km/h | 30065m | -32m/s | 0°C | 0% | 0hPa | 2.6V | 18:12:15 | 02:06:56 | 00:00:00 | |
| DO2JMG | 2026-08-30 12:37:09 | 49.92717 | 8.33426 | 246° | 9km/h | 30127m | -31.2m/s | -44.6°C | 0% | 12.2hPa | 2.7V | 03:10:15 | 02:06:54 | 00:00:00 | |
| BIOWL1-15 | 2026-08-30 12:37:04 | 49.92720 | 8.33442 | 297° | 11km/h | 30282m | -30.8m/s | -43.2°C | 0% | 11.9hPa | 2.7V | 03:10:15 | 02:06:49 | 00:00:00 | |
| HSKMA3-T | 2026-08-30 12:36:59 | 49.92699 | 8.33453 | 351° | 26km/h | 30429m | -28.3m/s | -42.8°C | 0% | 11.6hPa | 2.6V | 03:10:15 | 02:06:44 | 00:00:00 | |
| DO2JMG | 2026-08-30 12:36:58 | 49.92692 | 8.33455 | 352° | 31km/h | 30457m | -28.1m/s | -42.7°C | 0% | 11.5hPa | 2.7V | 03:10:15 | 02:06:43 | 00:00:00 | |
| BIOWL1-15 | 2026-08-30 12:36:53 | 49.92664 | 8.33456 | 14° | 13km/h | 30601m | -30.9m/s | -42.4°C | 0% | 11.3hPa | 2.6V | 03:11:06 | 02:06:38 | 00:00:00 | |
| DO2JMG | 2026-08-30 12:36:48 | 49.92654 | 8.33445 | 44° | 15km/h | 30740m | -29.5m/s | -42.1°C | 0% | 11hPa | 2.6V | 03:11:06 | 02:06:33 | 00:00:00 | |
| DL3AQ-11 | 2026-08-30 12:36:48 | 49.92652 | 8.33441 | 47° | 11km/h | 30769m | -28.1m/s | -42.0°C | 0.5% | 11.0hPa | 2.6V | 00:00:00 | 00:00:00 | 00:00:00 | |
| BIOWL1-15 | 2026-08-30 12:36:42 | 49.92637 | 8.33418 | 56° | 15km/h | 30928m | -34.4m/s | -41.4°C | 0% | 10.8hPa | 2.6V | 03:11:06 | 02:06:27 | 00:00:00 | |
| HSKMA3-T | 2026-08-30 12:36:38 | 49.92630 | 8.33403 | 53° | 9km/h | 31052m | -32m/s | -41.5°C | 0% | 10.6hPa | 2.7V | 03:11:06 | 02:06:23 | 00:00:00 | |
| DO2JMG | 2026-08-30 12:36:37 | 49.92629 | 8.33400 | 52° | 7km/h | 31085m | -33.5m/s | -41.5°C | 0% | 10.5hPa | 2.6V | 03:11:06 | 02:06:22 | 00:00:00 | |
| BIOWL1-15 | 2026-08-30 12:36:32 | 49.92621 | 8.33391 | 5° | 9km/h | 31244m | -31.2m/s | -41.7°C | 0% | 10.2hPa | 2.7V | 03:11:06 | 02:06:17 | 00:00:00 | |
| AA1-15 | 2026-08-30 12:36:30 | 49.92612 | 8.33389 | 14° | 11km/h | 31338m | -30.5m/s | 0°C | 0% | 0hPa | 2.6V | 18:12:15 | 02:06:14 | 00:00:00 | |
| DO2JMG | 2026-08-30 12:36:27 | 49.92605 | 8.33384 | 14° | 15km/h | 31400m | -31.4m/s | -42.1°C | 0% | 10hPa | 2.7V | 03:11:06 | 02:06:12 | 00:00:00 | |
| BIOWL1-15 | 2026-08-30 12:36:21 | 49.92571 | 8.33327 | 87° | 20km/h | 31891m | -29.2m/s | -41.4°C | 0% | 9.3hPa | 2.6V | 03:11:06 | 02:05:58 | 00:00:00 | |
| DO2JMG | 2026-08-30 12:36:17 | 49.92573 | 8.33357 | 72° | 18km/h | 31753m | -35.6m/s | -41.6°C | 0% | 9.5hPa | 2.6V | 03:11:06 | 02:06:02 | 00:00:00 | |
| BIOWL1-15 | 2026-08-30 12:36:07 | 49.92578 | 8.33294 | 129° | 7km/h | 32091m | -32.4m/s | -41°C | 0% | 9hPa | 2.6V | 03:11:06 | 02:05:52 | 00:00:00 | |
| BIOWL1-15 | 2026-08-30 12:36:01 | 49.92570 | 8.33233 | 63° | 20km/h | 32406m | -29.5m/s | -41.3°C | 0% | 8.6hPa | 2.7V | 03:11:57 | 02:05:42 | 00:00:00 | |
| DO2JMG | 2026-08-30 12:35:56 | 49.92567 | 8.33226 | 53° | 24km/h | 32435m | -28m/s | -41.3°C | 0% | 8.5hPa | 2.7V | 03:11:57 | 02:05:41 | 00:00:00 | |
| DO2JMG | 2026-08-30 12:35:46 | 49.92526 | 8.33174 | 53° | 22km/h | 32740m | -34.2m/s | -41.6°C | 0% | 8.2hPa | 2.7V | 03:11:57 | 02:05:31 | 00:00:00 | |
| HSKMA3-T | 2026-08-30 12:35:46 | 49.92523 | 8.33167 | 54° | 26km/h | 32773m | -31.2m/s | -41.5°C | 0% | 8.1hPa | 2.7V | 03:11:57 | 02:05:30 | 00:00:00 | |
| DJ2DS-15 | 2026-08-30 12:35:44 | 49.92519 | 8.33158 | 67° | 26km/h | 32806m | -34.2m/s | -41.3°C | 2.4% | 8.0hPa | 2.7V | 00:00:00 | 02:05:29 | 00:00:00 | |
| HEMX73-11 | 2026-08-30 12:35:43 | 49.92519 | 8.33158 | 67° | 26km/h | 32806m | -34.2m/s | -41.4°C | 0.5% | 8.1hPa | 2.7V | 03:11:00 | 00:00:00 | 00:00:00 | |
| DL8OAI-8 | 2026-08-30 12:35:42 | 49.92517 | 8.33148 | 83° | 27km/h | 32841m | -36.0m/s | -41.4°C | 0.5% | 8.0hPa | 2.7V | 00:00:00 | 00:00:00 | 00:00:00 | |
| DB0DAN | 2026-08-30 12:35:40 | 49.92520 | 8.33115 | 108° | 31km/h | 32947m | -33.7m/s | -41.2°C | 0.5% | 7.88hPa | 2.7V | 00:00:00 | 00:00:00 | 00:00:00 | |
| BIOWL1-15 | 2026-08-30 12:35:36 | 49.92529 | 8.33053 | 75° | 9km/h | 33234m | -35.7m/s | -40.6°C | 0% | 7.5hPa | 2.7V | 03:11:57 | 02:05:17 | 00:00:00 | |
| HSKMA3-T | 2026-08-30 12:35:36 | 49.92529 | 8.33067 | 99° | 16km/h | 33130m | -33.4m/s | -41°C | 0% | 7.7hPa | 2.6V | 03:11:57 | 02:05:20 | 00:00:00 | |
| DO2JMG | 2026-08-30 12:35:34 | 49.92529 | 8.33061 | 97° | 13km/h | 33164m | -35.4m/s | -41°C | 0% | 7.6hPa | 2.7V | 03:11:57 | 02:05:19 | 00:00:00 | |
| BIOWL1-15 | 2026-08-30 12:35:24 | 49.92538 | 8.32975 | 91° | 20km/h | 33625m | -29.5m/s | -39.3°C | 0% | 7.1hPa | 2.7V | 03:11:57 | 02:05:07 | 00:00:00 | |
| DO2JMG | 2026-08-30 12:35:24 | 49.92536 | 8.32993 | 104° | 29km/h | 33560m | -34.2m/s | -39.6°C | 0% | 7.2hPa | 2.6V | 03:11:57 | 02:05:09 | 00:00:00 | |
| HSKMA3-T | 2026-08-30 12:35:14 | 49.92501 | 8.32991 | 359° | 29km/h | 33815m | -22.9m/s | -38.7°C | 0% | 6.8hPa | 2.7V | 03:11:57 | 02:04:59 | 00:00:00 | |
| BIOWL1-15 | 2026-08-30 12:35:14 | 49.92483 | 8.32966 | 67° | 42km/h | 33877m | -15.8m/s | -38.6°C | 0% | 6.8hPa | 2.6V | 03:12:48 | 02:04:56 | 00:00:00 | |
| DO2JMG | 2026-08-30 12:35:13 | 49.92494 | 8.32988 | 31° | 29km/h | 33837m | -22m/s | -38.6°C | 0% | 6.8hPa | 2.6V | 03:11:57 | 02:04:58 | 00:00:00 | |
| DO2JMG | 2026-08-30 12:35:03 | 49.92483 | 8.32842 | 297° | 20km/h | 34079m | -22.2m/s | -38.4°C | 0% | 6.6hPa | 2.7V | 03:12:48 | 02:04:48 | 00:00:00 | |
| BIOWL1-15 | 2026-08-30 12:35:01 | 49.92477 | 8.32864 | 293° | 35km/h | 34109m | -7m/s | -38.4°C | 0% | 6.5hPa | 2.6V | 03:12:48 | 02:04:46 | 00:00:00 | |
| DL0LBS | 2026-08-30 12:35:00 | 49.92477 | 8.32864 | 294° | 35km/h | 34110m | -7.0m/s | -38.4°C | 0.4% | 6.5hPa | 2.6V | 03:12:00 | 00:00:00 | 00:00:00 | |
| DL8OAI-8 | 2026-08-30 12:34:59 | 49.92473 | 8.32877 | 295° | 37km/h | 34112m | 2.0m/s | -38.3°C | 0.4% | 6.5hPa | 2.6V | 00:00:00 | 00:00:00 | 00:00:00 | |
| DB0DAN | 2026-08-30 12:34:55 | 49.92430 | 8.32873 | 51° | 57km/h | 34092m | 6.1m/s | -38.5°C | 0.4% | 6.56hPa | 2.6V | 00:00:00 | 00:00:00 | 00:00:00 | |
| DO2JMG | 2026-08-30 12:34:51 | 49.92421 | 8.32790 | 115° | 42km/h | 34075m | 4.1m/s | -38.5°C | 0% | 6.6hPa | 2.7V | 03:12:48 | 02:04:36 | 00:00:00 | |
| DM3KS-11 | 2026-08-30 12:34:50 | 49.92441 | 8.32789 | 260° | 31km/h | 34053m | 5.1m/s | -38.3°C | 0.4% | 6.6hPa | 2.6V | 00:00:00 | 00:00:00 | 00:00:00 | |
| DL3AQ-11 | 2026-08-30 12:34:48 | 49.92441 | 8.32789 | 260° | 31km/h | 34053m | 5.1m/s | -38.3°C | 0.4% | 6.6hPa | 2.6V | 00:00:00 | 00:00:00 | 00:00:00 | |
| DO1YAY-16 | 2026-08-30 12:34:45 | 49.92435 | 8.32813 | 320° | 38km/h | 34045m | 3.6m/s | -38.1°C | 0.4% | 6.6hPa | 2.6V | 00:00:00 | 00:00:00 | 00:00:00 | |
| DO2JMG | 2026-08-30 12:34:41 | 49.92388 | 8.32798 | 46° | 66km/h | 34022m | 5.8m/s | -38.4°C | 0% | 6.6hPa | 2.6V | 03:12:48 | 02:04:26 | 00:00:00 | |
| DB0DAN | 2026-08-30 12:34:40 | 49.92378 | 8.32777 | 60° | 64km/h | 34017m | 4.5m/s | -38.2°C | 0.4% | 6.63hPa | 2.7V | 00:00:00 | 00:00:00 | 00:00:00 | |
| BIOWL1-15 | 2026-08-30 12:34:40 | 49.92378 | 8.32777 | 60° | 68km/h | 34017m | 4.5m/s | -38.2°C | 0% | 6.6hPa | 2.7V | 03:12:48 | 02:04:25 | 00:00:00 | |
| DO2JMG | 2026-08-30 12:34:31 | 49.92378 | 8.32733 | 332° | 35km/h | 33974m | 3.4m/s | -38.2°C | 0% | 6.7hPa | 2.6V | 03:12:48 | 02:04:16 | 00:00:00 | |
| HSKMA3-T | 2026-08-30 12:34:30 | 49.92368 | 8.32737 | 358° | 44km/h | 33970m | 4.9m/s | -38.2°C | 0% | 6.7hPa | 2.6V | 03:12:48 | 02:04:15 | 00:00:00 | |
| BIOWL1-15 | 2026-08-30 12:34:30 | 49.92313 | 8.32660 | 71° | 64km/h | 33943m | 3.3m/s | -38.5°C | 0% | 6.7hPa | 2.6V | 03:12:48 | 02:04:10 | 00:00:00 | |
| DB0DAN | 2026-08-30 12:34:25 | 49.92313 | 8.32660 | 71° | 62km/h | 33943m | 3.3m/s | -38.5°C | 0.4% | 6.71hPa | 2.6V | 00:00:00 | 00:00:00 | 00:00:00 | |
| DO2JMG | 2026-08-30 12:34:21 | 49.92316 | 8.32607 | 184° | 15km/h | 33922m | 7.2m/s | -38.7°C | 0% | 6.7hPa | 2.7V | 03:12:48 | 02:04:06 | 00:00:00 | |
| HSKMA3-T | 2026-08-30 12:34:20 | 49.92319 | 8.32611 | 242° | 20km/h | 33915m | 6.2m/s | -38.7°C | 0% | 6.7hPa | 2.7V | 03:13:39 | 02:04:05 | 00:00:00 | |
| BIOWL1-15 | 2026-08-30 12:34:19 | 49.92320 | 8.32620 | 275° | 27km/h | 33910m | 4.3m/s | -38.8°C | 0% | 6.7hPa | 2.6V | 03:13:39 | 02:04:04 | 00:00:00 | |
| DO2JMG | 2026-08-30 12:34:10 | 49.92242 | 8.32555 | 82° | 46km/h | 33867m | 3.2m/s | -38.6°C | 0% | 6.8hPa | 2.7V | 03:13:39 | 02:03:55 | 00:00:00 | |
| HSKMA3-T | 2026-08-30 12:34:09 | 49.92242 | 8.32540 | 97° | 33km/h | 33863m | 4.7m/s | -38.7°C | 0% | 6.8hPa | 2.7V | 03:13:39 | 02:03:54 | 00:00:00 | |
| BIOWL1-15 | 2026-08-30 12:34:08 | 49.92244 | 8.32531 | 128° | 18km/h | 33857m | 6.6m/s | -38.8°C | 0% | 6.8hPa | 2.7V | 03:13:39 | 02:03:53 | 00:00:00 | |
| DO2JMG | 2026-08-30 12:34:00 | 49.92227 | 8.32556 | 43° | 42km/h | 33813m | 7.4m/s | -38.8°C | 0% | 6.8hPa | 2.6V | 03:13:39 | 02:03:45 | 00:00:00 | |
| HSKMA3-T | 2026-08-30 12:33:58 | 49.92213 | 8.32523 | 68° | 57km/h | 33799m | 6m/s | -38.7°C | 0% | 6.9hPa | 2.7V | 03:13:39 | 02:03:43 | 00:00:00 | |
| BIOWL1-15 | 2026-08-30 12:33:57 | 49.92209 | 8.32502 | 77° | 55km/h | 33793m | 4.2m/s | -38.7°C | 0% | 6.9hPa | 2.7V | 03:13:39 | 02:03:42 | 00:00:00 | |
| DL3AQ-11 | 2026-08-30 12:33:55 | 49.92207 | 8.32455 | 106° | 22km/h | 33782m | 5.2m/s | -38.5°C | 0.4% | 6.9hPa | 2.6V | 00:00:00 | 00:00:00 | 00:00:00 | |
| DC4HF-4 | 2026-08-30 12:33:53 | 49.92208 | 8.32477 | 354° | 13km/h | 33741m | 5.0m/s | -38.9°C | 0.4% | 6.9hPa | 2.6V | 00:00:00 | 00:00:00 | 00:00:00 | |
| DL4BBY-15 | 2026-08-30 12:33:52 | 49.92211 | 8.32449 | 221° | 15km/h | 33769m | 7.2m/s | -39.8°C | 0% | 0hPa | 2.6V | 00:00:00 | 00:00:00 | 00:00:00 | |
| DL1XH-15 | 2026-08-30 12:33:51 | 49.92208 | 8.32477 | 354° | 15km/h | 33740m | 5m/s | -38.9°C | 2.1% | 6.9hPa | 2.6V | 03:13:22 | 02:03:32 | 00:00:00 | |
| BIOWL1-15 | 2026-08-30 12:33:51 | 49.92208 | 8.32477 | 355° | 15km/h | 33740m | 5m/s | -38.9°C | 0% | 6.9hPa | 2.6V | 03:13:39 | 02:03:32 | 00:00:00 | |
| DO2JMG | 2026-08-30 12:33:49 | 49.92213 | 8.32469 | 286° | 18km/h | 33750m | 4.9m/s | -38.8°C | 0% | 6.9hPa | 2.6V | 03:13:39 | 02:03:34 | 00:00:00 | |
| HSKMA3-T | 2026-08-30 12:33:48 | 49.92211 | 8.32474 | 314° | 15km/h | 33745m | 4.6m/s | -38.9°C | 0% | 6.9hPa | 2.6V | 03:13:39 | 02:03:33 | 00:00:00 | |
| DM3KS-11 | 2026-08-30 12:33:48 | 49.92208 | 8.32477 | 354° | 13km/h | 33741m | 5.0m/s | -38.9°C | 0.4% | 6.9hPa | 2.7V | 00:00:00 | 00:00:00 | 00:00:00 | |
| DO2JMG | 2026-08-30 12:33:39 | 49.92189 | 8.32412 | 107° | 13km/h | 33696m | 4.9m/s | -39.1°C | 0% | 7hPa | 2.7V | 03:13:39 | 02:03:24 | 00:00:00 | |
| HSKMA3-T | 2026-08-30 12:33:35 | 49.92191 | 8.32412 | 292° | 5km/h | 33673m | 6m/s | 0°C | 0% | 7hPa | 2.6V | 03:13:39 | 02:03:20 | 00:00:00 | |
| AU51GT2 | 2026-08-30 12:33:35 | 49.92190 | 8.32414 | 311° | 5km/h | 33668m | 5.4m/s | -39.4°C | 0.4% | 7.0hPa | 2.7V | 00:00:00 | 00:00:00 | 00:00:00 | |
| GOEST3-10 | 2026-08-30 12:33:34 | 49.92189 | 8.32415 | 326° | 5km/h | 33663m | 4.9m/s | -39.4°C | 2.2% | 6.9hPa | 2.7V | 00:00:00 | 00:00:00 | 00:00:00 | |
| DD1CC8 | 2026-08-30 12:33:32 | 49.92187 | 8.32417 | 11° | 0km/h | 33652m | 5.6m/s | -39.5°C | 0.4% | 7.0hPa | 2.7V | 00:00:00 | 00:00:00 | 00:00:00 | |
| DL1XH-15 | 2026-08-30 12:33:31 | 49.92191 | 8.32410 | 122° | 9km/h | 33629m | 5m/s | -39.4°C | 2.2% | 7hPa | 2.7V | 03:13:42 | 02:03:12 | 00:00:00 | |
| DO2JMG | 2026-08-30 12:33:28 | 49.92189 | 8.32413 | 136° | 9km/h | 33634m | 5.6m/s | -39.4°C | 0% | 7hPa | 2.7V | 03:14:30 | 02:03:13 | 00:00:00 | |
| HSKMA3-T | 2026-08-30 12:33:25 | 49.92191 | 8.32403 | 78° | 13km/h | 33619m | 5.4m/s | 0°C | 0% | 7.1hPa | 2.6V | 03:14:30 | 02:03:10 | 00:00:00 | |
| BIOWL1-15 | 2026-08-30 12:33:24 | 49.92190 | 8.32398 | 61° | 15km/h | 33613m | 6.1m/s | -39.5°C | 0% | 7.1hPa | 2.6V | 03:14:30 | 02:03:09 | 00:00:00 | |
| DO2JMG | 2026-08-30 12:33:18 | 49.92175 | 8.32375 | 164° | 5km/h | 33580m | 6.5m/s | -40.1°C | 0% | 7.1hPa | 2.6V | 03:14:30 | 02:03:03 | 00:00:00 | |
| HSKMA3-T | 2026-08-30 12:33:15 | 49.92189 | 8.32372 | 166° | 26km/h | 33562m | 4.2m/s | 0°C | 0% | 0hPa | 2.7V | 03:14:30 | 02:03:00 | 00:00:00 | |
| BIOWL1-15 | 2026-08-30 12:33:13 | 49.92199 | 8.32362 | 127° | 27km/h | 33554m | 5.3m/s | -40.4°C | 0% | 7.1hPa | 2.6V | 03:14:30 | 02:02:58 | 00:00:00 | |
| DO2JMG | 2026-08-30 12:33:07 | 49.92187 | 8.32293 | 44° | 24km/h | 33519m | 5.8m/s | -40.5°C | 0% | 7.2hPa | 2.6V | 03:14:30 | 02:02:52 | 00:00:00 | |
| HSKMA3-T | 2026-08-30 12:33:04 | 49.92182 | 8.32286 | 191° | 5km/h | 33501m | 6m/s | 0°C | 0% | 0hPa | 2.7V | 03:14:30 | 02:02:49 | 00:00:00 | |
| BIOWL1-15 | 2026-08-30 12:33:02 | 49.92187 | 8.32285 | 158° | 16km/h | 33489m | 5.6m/s | -40.4°C | 0% | 7.2hPa | 2.7V | 03:14:30 | 02:02:47 | 00:00:00 | |
| AA1-15 | 2026-08-30 12:32:57 | 49.92203 | 8.32239 | 99° | 35km/h | 33462m | 5.6m/s | -40.9°C | 0% | 7.2hPa | 2.7V | 03:16:12 | 02:02:42 | 00:00:00 | |
| DO2JMG | 2026-08-30 12:32:56 | 49.92204 | 8.32226 | 93° | 31km/h | 33456m | 5.7m/s | -40.9°C | 0% | 7.2hPa | 2.7V | 03:14:30 | 02:02:41 | 00:00:00 | |
| HSKMA3-T | 2026-08-30 12:32:54 | 49.92202 | 8.32206 | 71° | 22km/h | 33445m | 5.3m/s | 0°C | 0% | 0hPa | 2.6V | 03:14:30 | 02:02:39 | 00:00:00 | |
| BIOWL1-15 | 2026-08-30 12:32:51 | 49.92193 | 8.32191 | 27° | 18km/h | 33429m | 5.6m/s | -40.8°C | 0% | 7.3hPa | 2.7V | 03:14:30 | 02:02:36 | 00:00:00 | |
| DO2JMG | 2026-08-30 12:32:45 | 49.92180 | 8.32163 | 119° | 16km/h | 33396m | 5.8m/s | -40.6°C | 0% | 7.3hPa | 2.7V | 03:14:30 | 02:02:30 | 00:00:00 | |
| BIOWL1-15 | 2026-08-30 12:32:42 | 49.92198 | 8.32139 | 114° | 18km/h | 33369m | 4.1m/s | -40.4°C | 0% | 7.3hPa | 2.7V | 03:14:30 | 02:02:25 | 00:00:00 | |
| DB0DAN | 2026-08-30 12:32:40 | 49.92198 | 8.32139 | 114° | 16km/h | 33369m | 4.1m/s | -40.4°C | 0.5% | 7.34hPa | 2.7V | 00:00:00 | 00:00:00 | 00:00:00 | |
| HSKMA3-T | 2026-08-30 12:32:39 | 49.92198 | 8.32132 | 88° | 20km/h | 33364m | 5.7m/s | 0°C | 0% | 0hPa | 2.7V | 03:14:30 | 02:02:24 | 00:00:00 | |
| DO2JMG | 2026-08-30 12:32:35 | 49.92184 | 8.32093 | 45° | 31km/h | 33339m | 3.9m/s | -40.5°C | 0% | 7.3hPa | 2.6V | 03:15:21 | 02:02:20 | 00:00:00 | |
| BIOWL1-15 | 2026-08-30 12:32:29 | 49.92187 | 8.32089 | 195° | 27km/h | 33306m | 3.6m/s | -40.7°C | 0% | 7.4hPa | 2.6V | 03:15:21 | 02:02:14 | 00:00:00 | |
| AA1-15 | 2026-08-30 12:32:28 | 49.92193 | 8.32090 | 181° | 26km/h | 33303m | 3.1m/s | -40.7°C | 0% | 7.4hPa | 2.7V | 03:16:12 | 02:02:13 | 00:00:00 | |
| GOEST3-10 | 2026-08-30 12:32:28 | 49.92193 | 8.32090 | 181° | 27km/h | 33304m | 3.1m/s | -40.7°C | 2.4% | 7.4hPa | 2.7V | 00:00:00 | 02:02:13 | 00:00:00 | |
| DB0UT-9 | 2026-08-30 12:32:27 | 49.92193 | 8.32090 | 182° | 26km/h | 33304m | 3.1m/s | -40.7°C | 0.5% | 7.4hPa | 2.6V | 03:15:00 | 00:00:00 | 00:00:00 | |
| DB0DAN | 2026-08-30 12:32:25 | 49.92205 | 8.32074 | 92° | 26km/h | 33287m | 7.4m/s | -40.8°C | 0.5% | 7.43hPa | 2.6V | 00:00:00 | 00:00:00 | 00:00:00 | |
| DO2JMG | 2026-08-30 12:32:24 | 49.92204 | 8.32063 | 74° | 35km/h | 33280m | 7m/s | -40.8°C | 0% | 7.4hPa | 2.6V | 03:15:21 | 02:02:09 | 00:00:00 | |
| BIOWL1-15 | 2026-08-30 12:32:19 | 49.92204 | 8.32013 | 171° | 29km/h | 33232m | 5.1m/s | -41°C | 0% | 7.5hPa | 2.7V | 03:15:21 | 02:02:00 | 00:00:00 | |
| HSKMA3-T | 2026-08-30 12:32:14 | 49.92211 | 8.32009 | 153° | 29km/h | 33227m | 5.3m/s | 0°C | 0% | 0hPa | 2.7V | 03:15:21 | 02:01:59 | 00:00:00 | |
| DO2JMG | 2026-08-30 12:32:13 | 49.92217 | 8.32002 | 130° | 29km/h | 33221m | 5.5m/s | -41.2°C | 0% | 7.5hPa | 2.6V | 03:15:21 | 02:01:58 | 00:00:00 | |
| AA1-15 | 2026-08-30 12:32:06 | 49.92210 | 8.31924 | 53° | 15km/h | 33182m | 5.3m/s | -41.1°C | 0% | 7.5hPa | 2.6V | 03:16:12 | 02:01:51 | 00:00:00 | |
| DO2JMG | 2026-08-30 12:32:03 | 49.92211 | 8.31918 | 153° | 11km/h | 33167m | 5.1m/s | -41°C | 0% | 7.6hPa | 2.7V | 03:15:21 | 02:01:48 | 00:00:00 | |
| HSKMA3-T | 2026-08-30 12:31:58 | 49.92227 | 8.31879 | 103° | 33km/h | 33138m | 4.9m/s | 0°C | 0% | 0hPa | 2.7V | 03:15:21 | 02:01:43 | 00:00:00 | |
| AA1-15 | 2026-08-30 12:31:56 | 49.92228 | 8.31856 | 86° | 26km/h | 33127m | 6m/s | -41°C | 0% | 7.6hPa | 2.7V | 03:16:12 | 02:01:41 | 00:00:00 | |
| SSTOLZ84 | 2026-08-30 12:31:56 | 49.92221 | 8.31799 | 101° | 37km/h | 33085m | 7.1m/s | -41.3°C | 0.5% | 7.7hPa | 2.6V | 00:00:00 | 00:00:00 | 00:00:00 | |
| DB0DAN | 2026-08-30 12:31:55 | 49.92228 | 8.31847 | 74° | 20km/h | 33121m | 6.4m/s | -41.1°C | 0.5% | 7.6hPa | 2.6V | 00:00:00 | 00:00:00 | 00:00:00 | |
| DO2JMG | 2026-08-30 12:31:52 | 49.92221 | 8.31833 | 49° | 13km/h | 33104m | 4.2m/s | -41.3°C | 0% | 7.6hPa | 2.7V | 03:15:21 | 02:01:37 | 00:00:00 | |
| HSKMA3-T | 2026-08-30 12:31:48 | 49.92221 | 8.31799 | 101° | 38km/h | 33085m | 7.1m/s | 0°C | 0% | 0hPa | 2.6V | 03:15:21 | 02:01:33 | 00:00:00 | |
| BIOWL1-15 | 2026-08-30 12:31:46 | 49.92231 | 8.31745 | 109° | 53km/h | 33067m | 4.1m/s | -41.4°C | 0% | 7.7hPa | 2.7V | 03:16:12 | 02:01:30 | 00:00:00 | |
| DO2JMG | 2026-08-30 12:31:42 | 49.92241 | 8.31700 | 111° | 26km/h | 33055m | 6.1m/s | -41.3°C | 0% | 7.7hPa | 2.6V | 03:16:12 | 02:01:27 | 00:00:00 | |
| DB0DAN | 2026-08-30 12:31:40 | 49.92242 | 8.31691 | 21° | 5km/h | 33041m | 6.7m/s | -41.2°C | 0.5% | 7.72hPa | 2.7V | 00:00:00 | 00:00:00 | 00:00:00 | |
| HSKMA3-T | 2026-08-30 12:31:38 | 49.92236 | 8.31690 | 11° | 20km/h | 33031m | 3.4m/s | 0°C | 0% | 0hPa | 2.7V | 18:12:15 | 02:01:23 | 00:00:00 | |
| BIOWL1-15 | 2026-08-30 12:31:34 | 49.92215 | 8.31629 | 90° | 55km/h | 33005m | 4.7m/s | -41.4°C | 0% | 7.8hPa | 2.7V | 03:16:12 | 02:01:18 | 00:00:00 | |
| DO2JMG | 2026-08-30 12:31:32 | 49.92216 | 8.31607 | 99° | 55km/h | 33000m | 4.3m/s | -41.2°C | 0% | 7.8hPa | 2.7V | 03:16:12 | 02:01:17 | 00:00:00 | |
| HSKMA3-T | 2026-08-30 12:31:26 | 49.92234 | 8.31555 | 338° | 7km/h | 32969m | 5.3m/s | 0°C | 0% | 0hPa | 2.7V | 18:12:15 | 02:01:11 | 00:00:00 | |
| BIOWL1-15 | 2026-08-30 12:31:24 | 49.92214 | 8.31538 | 54° | 38km/h | 32949m | 5.1m/s | -41.4°C | 0% | 7.8hPa | 2.7V | 03:16:12 | 02:01:07 | 00:00:00 | |
| DO2JMG | 2026-08-30 12:31:21 | 49.92209 | 8.31524 | 67° | 44km/h | 32943m | 5.2m/s | -41.5°C | 0% | 7.8hPa | 2.7V | 03:16:12 | 02:01:06 | 00:00:00 | |
| AA1-15 | 2026-08-30 12:31:20 | 49.92204 | 8.31490 | 88° | 44km/h | 32933m | 5.1m/s | -41.5°C | 0% | 7.8hPa | 2.6V | 03:16:12 | 02:01:04 | 00:00:00 | |
| HSKMA3-T | 2026-08-30 12:31:16 | 49.92209 | 8.31450 | 115° | 24km/h | 32917m | 5.2m/s | 0°C | 0% | 0hPa | 2.7V | 18:12:15 | 02:01:01 | 00:00:00 | |
| BIOWL1-15 | 2026-08-30 12:31:11 | 49.92164 | 8.31338 | 59° | 26km/h | 32827m | 5.4m/s | -41.4°C | 0% | 8hPa | 2.6V | 03:16:12 | 02:00:44 | 00:00:00 | |
| DO2JMG | 2026-08-30 12:31:11 | 49.92206 | 8.31434 | 26° | 18km/h | 32891m | 5.1m/s | -41.3°C | 0% | 7.9hPa | 2.6V | 03:16:12 | 02:00:56 | 00:00:00 | |
| AA1-15 | 2026-08-30 12:31:08 | 49.92187 | 8.31406 | 56° | 29km/h | 32871m | 5.6m/s | -41.6°C | 0% | 7.9hPa | 2.6V | 03:16:12 | 02:00:52 | 00:00:00 | |
| DO2JMG | 2026-08-30 12:31:01 | 49.92170 | 8.31355 | 62° | 24km/h | 32838m | 5.3m/s | -41.4°C | 0% | 8hPa | 2.7V | 03:16:12 | 02:00:46 | 00:00:00 | |
| DB0UT-7 | 2026-08-30 12:30:58 | 49.92160 | 8.31329 | 57° | 27km/h | 32822m | 4.8m/s | -41.4°C | 2.4% | 7.9hPa | 2.7V | 00:00:00 | 00:00:00 | 00:00:00 | |
| DJ2DS-15 | 2026-08-30 12:30:57 | 49.92156 | 8.31321 | 52° | 24km/h | 32817m | 4.4m/s | -41.5°C | 2.4% | 7.9hPa | 2.7V | 00:00:00 | 02:00:42 | 00:00:00 | |
| DL1XH-15 | 2026-08-30 12:30:56 | 49.92131 | 8.31302 | 4° | 16km/h | 32785m | 4.5m/s | -41.7°C | 2.5% | 8hPa | 2.6V | 03:16:18 | 02:00:36 | 00:00:00 | |
| BIOWL1-15 | 2026-08-30 12:30:54 | 49.92143 | 8.31304 | 22° | 18km/h | 32803m | 6m/s | -41.8°C | 0% | 8hPa | 2.7V | 03:17:03 | 02:00:39 | 00:00:00 | |
| AA1-15 | 2026-08-30 12:30:51 | 49.92131 | 8.31302 | 4° | 16km/h | 32785m | 4.5m/s | -41.7°C | 0% | 8hPa | 2.6V | 03:17:03 | 02:00:36 | 00:00:00 | |
| DO2JMG | 2026-08-30 12:30:50 | 49.92126 | 8.31300 | 18° | 20km/h | 32781m | 4.2m/s | -41.7°C | 0% | 8.1hPa | 2.6V | 03:17:03 | 02:00:35 | 00:00:00 | |
| DL3AQ-11 | 2026-08-30 12:30:48 | 49.92109 | 8.31280 | 48° | 38km/h | 32765m | 6.7m/s | -41.8°C | 0.5% | 8.0hPa | 2.7V | 00:00:00 | 00:00:00 | 00:00:00 | |
| BIOWL1-15 | 2026-08-30 12:30:43 | 49.92087 | 8.31231 | 56° | 24km/h | 32747m | 4.3m/s | -42.1°C | 0% | 8.1hPa | 2.7V | 03:17:03 | 02:00:28 | 00:00:00 | |
| DO2JMG | 2026-08-30 12:30:40 | 49.92081 | 8.31229 | 288° | 16km/h | 32730m | 5.6m/s | -42.1°C | 0% | 8.1hPa | 2.6V | 03:17:03 | 02:00:25 | 00:00:00 | |
| BIOWL1-15 | 2026-08-30 12:30:32 | 49.92036 | 8.31220 | 58° | 46km/h | 32691m | 4.4m/s | -42.3°C | 0% | 8.2hPa | 2.6V | 03:17:03 | 02:00:17 | 00:00:00 | |
| DO2JMG | 2026-08-30 12:30:29 | 49.92027 | 8.31181 | 90° | 22km/h | 32676m | 5.5m/s | -42°C | 0% | 8.2hPa | 2.7V | 03:17:03 | 02:00:14 | 00:00:00 | |
| BIOWL1-15 | 2026-08-30 12:30:21 | 49.91999 | 8.31172 | 28° | 44km/h | 32635m | 5.2m/s | -41.5°C | 0% | 8.2hPa | 2.6V | 03:17:03 | 02:00:06 | 00:00:00 | |
| AA1-15 | 2026-08-30 12:30:19 | 49.91981 | 8.31152 | 47° | 42km/h | 32625m | 5m/s | -41.4°C | 0% | 8.2hPa | 2.7V | 03:17:03 | 02:00:04 | 00:00:00 | |
| DO2JMG | 2026-08-30 12:30:18 | 49.91975 | 8.31139 | 57° | 37km/h | 32620m | 5.3m/s | -41.4°C | 0% | 8.2hPa | 2.7V | 03:17:03 | 02:00:03 | 00:00:00 | |
| BIOWL1-15 | 2026-08-30 12:30:13 | 49.91961 | 8.31092 | 26° | 20km/h | 32584m | 5.3m/s | -41.4°C | 0% | 8.3hPa | 2.7V | 03:17:03 | 01:59:56 | 00:00:00 | |
| DB0DAN | 2026-08-30 12:30:10 | 49.91956 | 8.31088 | 24° | 24km/h | 32579m | 5.1m/s | -41.5°C | 0.5% | 8.29hPa | 2.6V | 00:00:00 | 00:00:00 | 00:00:00 | |
| DO2JMG | 2026-08-30 12:30:08 | 49.91943 | 8.31078 | 31° | 29km/h | 32568m | 5.2m/s | -41.4°C | 0% | 8.3hPa | 2.6V | 03:17:03 | 01:59:53 | 00:00:00 | |
| DL3AQ-11 | 2026-08-30 12:30:08 | 49.91937 | 8.31072 | 38° | 27km/h | 32563m | 5.5m/s | -41.3°C | 0.5% | 8.3hPa | 2.7V | 00:00:00 | 00:00:00 | 00:00:00 | |
| GOEST3-10 | 2026-08-30 12:30:07 | 49.91937 | 8.31072 | 39° | 27km/h | 32564m | 5.5m/s | -41.2°C | 2.5% | 8.3hPa | 2.7V | 00:00:00 | 01:59:52 | 00:00:00 | |
| BIOWL7-15 | 2026-08-30 12:30:06 | 49.91932 | 8.31064 | 47° | 27km/h | 32558m | 5.3m/s | -41.3°C | 0.5% | 8.3hPa | 2.6V | 03:17:00 | 00:00:00 | 00:00:00 | |
| DF7PN | 2026-08-30 12:30:05 | 49.91927 | 8.31056 | 52° | 26km/h | 32553m | 4.6m/s | -41.4°C | 0.5% | 8.3hPa | 2.6V | 00:00:00 | 00:00:00 | 00:00:00 | |
| DL1XH-15 | 2026-08-30 12:30:02 | 49.91891 | 8.31001 | 49° | 18km/h | 32512m | 5.6m/s | -41.4°C | 2.4% | 8.4hPa | 2.6V | 03:17:12 | 01:59:42 | 00:00:00 | |
| BIOWL1-15 | 2026-08-30 12:30:01 | 49.91910 | 8.31025 | 41° | 27km/h | 32532m | 6.1m/s | -41.2°C | 0% | 8.4hPa | 2.6V | 03:17:54 | 01:59:46 | 00:00:00 | |
| AA1-15 | 2026-08-30 12:29:58 | 49.91895 | 8.31006 | 40° | 22km/h | 32517m | 4.5m/s | -41.3°C | 0% | 8.4hPa | 2.7V | 03:17:54 | 01:59:43 | 00:00:00 | |
| DO2JMG | 2026-08-30 12:29:57 | 49.91891 | 8.31001 | 50° | 18km/h | 32512m | 5.6m/s | -41.4°C | 0% | 8.4hPa | 2.6V | 03:17:54 | 01:59:42 | 00:00:00 | |
| BIOWL1-15 | 2026-08-30 12:29:52 | 49.91878 | 8.30944 | 49° | 35km/h | 32474m | 6.7m/s | -41.7°C | 0% | 8.4hPa | 2.7V | 03:17:54 | 01:59:35 | 00:00:00 | |
| AA1-15 | 2026-08-30 12:29:47 | 49.91857 | 8.30916 | 36° | 35km/h | 32459m | 4.1m/s | -41.6°C | 0% | 8.4hPa | 2.6V | 03:17:54 | 01:59:32 | 00:00:00 | |
| DO2JMG | 2026-08-30 12:29:46 | 49.91851 | 8.30908 | 39° | 27km/h | 32454m | 5.3m/s | -41.6°C | 0% | 8.4hPa | 2.6V | 03:17:54 | 01:59:31 | 00:00:00 | |
| HSKMA3-T | 2026-08-30 12:29:45 | 49.91847 | 8.30903 | 50° | 18km/h | 32449m | 6m/s | 0°C | 0% | 0hPa | 2.6V | 18:12:15 | 01:59:30 | 00:00:00 | |
| DL3AQ-11 | 2026-08-30 12:29:43 | 49.91846 | 8.30894 | 117° | 9km/h | 32438m | 5.4m/s | -41.7°C | 0.5% | 8.5hPa | 2.6V | 00:00:00 | 00:00:00 | 00:00:00 | |
| DB0DAN | 2026-08-30 12:29:40 | 49.91849 | 8.30883 | 94° | 11km/h | 32422m | 5.6m/s | -41.6°C | 0.5% | 8.48hPa | 2.6V | 00:00:00 | 00:00:00 | 00:00:00 | |
| BIOWL1-15 | 2026-08-30 12:29:39 | 49.91847 | 8.30871 | 58° | 20km/h | 32411m | 5.3m/s | -41.7°C | 0% | 8.5hPa | 2.7V | 03:17:54 | 01:59:23 | 00:00:00 | |
| DO2JMG | 2026-08-30 12:29:36 | 49.91840 | 8.30856 | 56° | 26km/h | 32400m | 5.7m/s | -41.7°C | 0% | 8.5hPa | 2.7V | 03:17:54 | 01:59:21 | 00:00:00 | |
| BIOWL1-15 | 2026-08-30 12:29:27 | 49.91821 | 8.30800 | 116° | 7km/h | 32340m | 6.3m/s | -41.8°C | 0% | 8.6hPa | 2.7V | 03:17:54 | 01:59:10 | 00:00:00 | |
| DO2JMG | 2026-08-30 12:29:26 | 49.91821 | 8.30802 | 68° | 4km/h | 32346m | 4.8m/s | -41.9°C | 0% | 8.6hPa | 2.7V | 03:17:54 | 01:59:11 | 00:00:00 | |
| DO2JMG | 2026-08-30 12:29:16 | 49.91815 | 8.30738 | 41° | 20km/h | 32291m | 4.4m/s | -41.8°C | 0% | 8.7hPa | 2.6V | 03:17:54 | 01:59:01 | 00:00:00 | |
| AA1-15 | 2026-08-30 12:29:15 | 49.91812 | 8.30733 | 52° | 15km/h | 32286m | 5.4m/s | -41.8°C | 0% | 8.7hPa | 2.6V | 03:17:54 | 01:59:00 | 00:00:00 | |
| BIOWL1-15 | 2026-08-30 12:29:15 | 49.91818 | 8.30674 | 85° | 22km/h | 32218m | 6m/s | -41.6°C | 0% | 8.8hPa | 2.7V | 03:18:45 | 01:58:48 | 00:00:00 | |
| DO2JMG | 2026-08-30 12:29:05 | 49.91821 | 8.30690 | 65° | 20km/h | 32230m | 5.2m/s | -41.5°C | 0% | 8.8hPa | 2.6V | 03:18:45 | 01:58:50 | 00:00:00 | |
| BIOWL1-15 | 2026-08-30 12:29:01 | 49.91819 | 8.30658 | 109° | 20km/h | 32207m | 5.2m/s | -41.5°C | 0% | 8.8hPa | 2.7V | 03:18:45 | 01:58:46 | 00:00:00 | |
| DO2JMG | 2026-08-30 12:28:56 | 49.91824 | 8.30636 | 76° | 7km/h | 32174m | 4.8m/s | -41.4°C | 0% | 8.8hPa | 2.7V | 03:18:45 | 01:58:40 | 00:00:00 | |
| BIOWL1-15 | 2026-08-30 12:28:51 | 49.91828 | 8.30613 | 114° | 26km/h | 32151m | 5.6m/s | -41.3°C | 0% | 8.9hPa | 2.7V | 03:18:45 | 01:58:36 | 00:00:00 | |
| HTAHTA | 2026-08-30 12:28:50 | 49.91831 | 8.30603 | 110° | 27km/h | 32146m | 5.0m/s | -41.2°C | 0.5% | 8.9hPa | 2.6V | 00:00:00 | 00:00:00 | 00:00:00 | |
| DL8DAS-14 | 2026-08-30 12:28:49 | 49.91833 | 8.30592 | 103° | 27km/h | 32141m | 5.5m/s | -41.3°C | 0.5% | 8.9hPa | 2.6V | 00:00:00 | 00:00:00 | 00:00:00 | |
| DL3AQ-11 | 2026-08-30 12:28:48 | 49.91834 | 8.30573 | 81° | 22km/h | 32128m | 6.4m/s | -41.4°C | 0.5% | 8.9hPa | 2.6V | 00:00:00 | 00:00:00 | 00:00:00 | |
| DO2JMG | 2026-08-30 12:28:44 | 49.91829 | 8.30549 | 73° | 20km/h | 32110m | 5.7m/s | -41.5°C | 0% | 8.9hPa | 2.6V | 03:18:45 | 01:58:29 | 00:00:00 | |
| AA1-15 | 2026-08-30 12:28:36 | 49.91833 | 8.30485 | 88° | 24km/h | 32063m | 5.6m/s | -41.6°C | 0% | 9hPa | 2.7V | 03:22:09 | 01:58:21 | 00:00:00 | |
| DO2JMG | 2026-08-30 12:28:33 | 49.91834 | 8.30454 | 97° | 29km/h | 32045m | 6.2m/s | -41.7°C | 0% | 9hPa | 2.6V | 03:18:45 | 01:58:18 | 00:00:00 | |
| BIOWL1-15 | 2026-08-30 12:28:29 | 49.91835 | 8.30416 | 72° | 18km/h | 32024m | 6.9m/s | -41.7°C | 0% | 9hPa | 2.6V | 03:18:45 | 01:58:14 | 00:00:00 | |
| DO2JMG | 2026-08-30 12:28:22 | 49.91828 | 8.30381 | 118° | 26km/h | 31981m | 6.1m/s | -42°C | 0% | 9.1hPa | 2.6V | 03:19:36 | 01:58:07 | 00:00:00 | |
| AA1-15 | 2026-08-30 12:28:16 | 49.91831 | 8.30322 | 58° | 26km/h | 31945m | 6m/s | -42.1°C | 0% | 9.1hPa | 2.7V | 03:22:09 | 01:58:01 | 00:00:00 | |
| DO2JMG | 2026-08-30 12:28:12 | 49.91816 | 8.30297 | 30° | 18km/h | 31921m | 5.4m/s | -41.9°C | 0% | 9.2hPa | 2.7V | 03:19:36 | 01:57:57 | 00:00:00 | |
| GOEST3-10 | 2026-08-30 12:28:12 | 49.91816 | 8.30297 | 31° | 16km/h | 31921m | 5.4m/s | -41.8°C | 2.5% | 9.1hPa | 2.7V | 03:18:00 | 00:00:00 | 00:00:00 | |
| IW2NTF | 2026-08-30 12:28:10 | 49.91797 | 8.30289 | 37° | 15km/h | 31891m | 5.3m/s | -41.9°C | 0% | 9.2hPa | 2.7V | 03:19:02 | 01:57:52 | 00:00:00 | |
| BIOWL1-15 | 2026-08-30 12:28:08 | 49.91801 | 8.30291 | 14° | 15km/h | 31896m | 5.3m/s | -41.9°C | 0% | 9.2hPa | 2.6V | 03:19:36 | 01:57:53 | 00:00:00 | |
| DO2JMG | 2026-08-30 12:28:01 | 49.91788 | 8.30236 | 59° | 26km/h | 31856m | 6.2m/s | -42.1°C | 0% | 9.2hPa | 2.7V | 03:19:36 | 01:57:46 | 00:00:00 | |
| BIOWL1-15 | 2026-08-30 12:27:57 | 49.91766 | 8.30223 | 358° | 24km/h | 31830m | 5.3m/s | -42.1°C | 0% | 9.3hPa | 2.6V | 03:19:36 | 01:57:42 | 00:00:00 | |
| DO2JMG | 2026-08-30 12:27:51 | 49.91748 | 8.30203 | 65° | 16km/h | 31794m | 6.4m/s | -42.3°C | 0% | 9.3hPa | 2.6V | 03:19:36 | 01:57:36 | 00:00:00 | |
| DD1CC8 | 2026-08-30 12:27:50 | 49.91745 | 8.30197 | 53° | 16km/h | 31788m | 6.7m/s | -42.2°C | 0.6% | 9.3hPa | 2.6V | 00:00:00 | 00:00:00 | 00:00:00 | |
| DL0LBS | 2026-08-30 12:27:49 | 49.91742 | 8.30192 | 42° | 18km/h | 31781m | 5.9m/s | -42.1°C | 0.6% | 9.4hPa | 2.6V | 03:19:00 | 00:00:00 | 00:00:00 | |
| DL1XH-15 | 2026-08-30 12:27:48 | 49.91718 | 8.30170 | 22° | 15km/h | 31745m | 5.1m/s | -42.2°C | 2.5% | 9.4hPa | 2.6V | 03:19:26 | 01:57:28 | 00:00:00 | |
| BIOWL1-15 | 2026-08-30 12:27:47 | 49.91734 | 8.30184 | 28° | 20km/h | 31769m | 5.7m/s | -42.1°C | 0% | 9.4hPa | 2.6V | 03:19:36 | 01:57:32 | 00:00:00 | |
| DO2JMG | 2026-08-30 12:27:40 | 49.91708 | 8.30170 | 339° | 15km/h | 31727m | 7m/s | -42.2°C | 0% | 9.4hPa | 2.7V | 03:19:36 | 01:57:25 | 00:00:00 | |
| AA1-15 | 2026-08-30 12:27:37 | 49.91700 | 8.30174 | 28° | 7km/h | 31710m | 5.5m/s | -42°C | 0% | 9.5hPa | 2.6V | 03:22:09 | 01:57:22 | 00:00:00 | |
| BIOWL1-15 | 2026-08-30 12:27:36 | 49.91699 | 8.30171 | 72° | 11km/h | 31703m | 6.9m/s | -42°C | 0% | 9.5hPa | 2.7V | 03:19:36 | 01:57:21 | 00:00:00 | |
| IW2NTF | 2026-08-30 12:27:35 | 49.91688 | 8.30126 | 23° | 24km/h | 31668m | 6.5m/s | -42.2°C | 0% | 9.5hPa | 2.7V | 03:19:39 | 01:57:15 | 00:00:00 | |
| DO2JMG | 2026-08-30 12:27:30 | 49.91688 | 8.30126 | 24° | 24km/h | 31668m | 6.5m/s | -42.2°C | 0% | 9.5hPa | 2.7V | 03:20:27 | 01:57:15 | 00:00:00 | |
| BIOWL1-15 | 2026-08-30 12:27:25 | 49.91654 | 8.30125 | 22° | 11km/h | 31632m | 6.2m/s | -42.5°C | 0% | 9.6hPa | 2.7V | 03:20:27 | 01:57:09 | 00:00:00 | |
| AA1-15 | 2026-08-30 12:27:22 | 49.91650 | 8.30120 | 56° | 9km/h | 31621m | 5.6m/s | -42.5°C | 0% | 9.6hPa | 2.6V | 03:22:09 | 01:57:07 | 00:00:00 | |
| GOEST3-10 | 2026-08-30 12:27:22 | 49.91650 | 8.30120 | 57° | 15km/h | 31621m | 5.6m/s | -42.4°C | 2.6% | 9.5hPa | 2.6V | 00:00:00 | 00:00:00 | 00:00:00 | |
| DL9SK-14 | 2026-08-30 12:27:21 | 49.91646 | 8.30114 | 27° | 11km/h | 31609m | 6.2m/s | -42.5°C | 0.6% | 9.6hPa | 2.6V | 00:00:00 | 00:00:00 | 00:00:00 | |
| IW2NTF | 2026-08-30 12:27:20 | 49.91612 | 8.30107 | 18° | 24km/h | 31573m | 6.4m/s | -42.4°C | 0% | 9.7hPa | 2.6V | 03:19:55 | 01:56:59 | 00:00:00 | |
| DO2JMG | 2026-08-30 12:27:19 | 49.91643 | 8.30112 | 11° | 16km/h | 31603m | 6.3m/s | -42.5°C | 0% | 9.6hPa | 2.7V | 03:20:27 | 01:57:04 | 00:00:00 | |
| BIOWL1-15 | 2026-08-30 12:27:15 | 49.91612 | 8.30107 | 19° | 24km/h | 31573m | 6.4m/s | -42.4°C | 0% | 9.7hPa | 2.6V | 03:20:27 | 01:56:59 | 00:00:00 | |
| AA1-15 | 2026-08-30 12:27:12 | 49.91602 | 8.30099 | 39° | 22km/h | 31561m | 5.4m/s | -42.4°C | 0% | 9.7hPa | 2.6V | 03:22:09 | 01:56:57 | 00:00:00 | |
| DO2JMG | 2026-08-30 12:27:08 | 49.91586 | 8.30083 | 13° | 18km/h | 31538m | 6.2m/s | -42.4°C | 0% | 9.7hPa | 2.6V | 03:20:27 | 01:56:53 | 00:00:00 | |
| BIOWL1-15 | 2026-08-30 12:27:03 | 49.91571 | 8.30081 | 15° | 7km/h | 31508m | 5.5m/s | -42.4°C | 0% | 9.8hPa | 2.7V | 03:20:27 | 01:56:48 | 00:00:00 | |
| AA1-15 | 2026-08-30 12:27:02 | 49.91569 | 8.30080 | 7° | 9km/h | 31503m | 5m/s | -42.4°C | 0% | 9.8hPa | 2.6V | 03:22:09 | 01:56:47 | 00:00:00 | |
| DO2JMG | 2026-08-30 12:26:57 | 49.91548 | 8.30084 | 354° | 18km/h | 31473m | 5.2m/s | -42.3°C | 0% | 9.8hPa | 2.6V | 03:20:27 | 01:56:42 | 00:00:00 | |
| BIOWL1-15 | 2026-08-30 12:26:52 | 49.91537 | 8.30082 | 8° | 7km/h | 31444m | 6.4m/s | -42.3°C | 0% | 9.9hPa | 2.6V | 03:20:27 | 01:56:37 | 00:00:00 | |
| AA1-15 | 2026-08-30 12:26:50 | 49.91529 | 8.30082 | 1° | 11km/h | 31426m | 5.2m/s | -42.2°C | 0% | 9.9hPa | 2.7V | 03:22:09 | 01:56:34 | 00:00:00 | |
| DO2JMG | 2026-08-30 12:26:46 | 49.91523 | 8.30080 | 27° | 5km/h | 31408m | 5.9m/s | -42.1°C | 0% | 9.9hPa | 2.6V | 03:20:27 | 01:56:31 | 00:00:00 | |
| DL8DAS-14 | 2026-08-30 12:26:45 | 49.91522 | 8.30079 | 17° | 4km/h | 31403m | 5.2m/s | -42.1°C | 0.5% | 9.9hPa | 2.7V | 00:00:00 | 00:00:00 | 00:00:00 | |
| BIOWL1-15 | 2026-08-30 12:26:42 | 49.91515 | 8.30082 | 329° | 15km/h | 31386m | 6.4m/s | -42.1°C | 0% | 9.9hPa | 2.7V | 03:20:27 | 01:56:27 | 00:00:00 | |
| GOEST3-10 | 2026-08-30 12:26:42 | 49.91515 | 8.30082 | 330° | 13km/h | 31386m | 6.4m/s | -42.0°C | 2.5% | 9.9hPa | 2.7V | 00:00:00 | 00:00:00 | 00:00:00 | |
| DL1XH-15 | 2026-08-30 12:26:40 | 49.91503 | 8.30089 | 82° | 7km/h | 31358m | 6.3m/s | -42°C | 2.5% | 10hPa | 2.7V | 03:20:32 | 01:56:22 | 00:00:00 | |
| AA1-15 | 2026-08-30 12:26:39 | 49.91506 | 8.30090 | 340° | 11km/h | 31370m | 5m/s | -42°C | 0% | 10hPa | 2.6V | 03:22:09 | 01:56:24 | 00:00:00 | |
| DO2JMG | 2026-08-30 12:26:35 | 49.91503 | 8.30080 | 92° | 15km/h | 31347m | 5.3m/s | -41.9°C | 0% | 10hPa | 2.6V | 03:21:18 | 01:56:20 | 00:00:00 | |
| BIOWL1-15 | 2026-08-30 12:26:32 | 49.91500 | 8.30064 | 45° | 15km/h | 31329m | 5.7m/s | -42°C | 0% | 10hPa | 2.6V | 03:21:18 | 01:56:17 | 00:00:00 | |
| GOEST3-10 | 2026-08-30 12:26:32 | 49.91500 | 8.30064 | 46° | 9km/h | 31329m | 5.6m/s | -41.9°C | 2.5% | 10.0hPa | 2.7V | 03:20:00 | 00:00:00 | 00:00:00 | |
| DL1XH-15 | 2026-08-30 12:26:30 | 49.91492 | 8.30059 | 230° | 4km/h | 31301m | 5.7m/s | -41.8°C | 2.4% | 10.1hPa | 2.7V | 03:20:42 | 01:56:12 | 00:00:00 | |
| AA1-15 | 2026-08-30 12:26:28 | 49.91492 | 8.30059 | 231° | 4km/h | 31301m | 5.7m/s | -41.8°C | 0% | 10.1hPa | 2.7V | 03:22:09 | 01:56:12 | 00:00:00 | |
| DO2JMG | 2026-08-30 12:26:25 | 49.91493 | 8.30061 | 239° | 4km/h | 31290m | 5.2m/s | -41.7°C | 0% | 10.1hPa | 2.6V | 03:21:18 | 01:56:10 | 00:00:00 | |
| BIOWL1-15 | 2026-08-30 12:26:21 | 49.91493 | 8.30012 | 32° | 11km/h | 31230m | 6.4m/s | -41.6°C | 0% | 10.2hPa | 2.6V | 03:21:18 | 01:55:59 | 00:00:00 | |
| AA1-15 | 2026-08-30 12:26:16 | 49.91495 | 8.30022 | 89° | 18km/h | 31241m | 4.7m/s | -41.7°C | 0% | 10.2hPa | 2.7V | 03:22:09 | 01:56:01 | 00:00:00 | |
| GOEST3-10 | 2026-08-30 12:26:16 | 49.91495 | 8.30022 | 89° | 15km/h | 31242m | 4.7m/s | -41.7°C | 2.4% | 10.1hPa | 2.7V | 00:00:00 | 01:56:01 | 00:00:00 | |
| DL1XH-15 | 2026-08-30 12:26:15 | 49.91487 | 8.30012 | 340° | 13km/h | 31219m | 4.8m/s | -41.6°C | 2.4% | 10.2hPa | 2.7V | 03:20:57 | 01:55:57 | 00:00:00 | |
| DO2JMG | 2026-08-30 12:26:15 | 49.91495 | 8.30016 | 69° | 15km/h | 31236m | 6.4m/s | -41.8°C | 0% | 10.2hPa | 2.6V | 03:21:18 | 01:56:00 | 00:00:00 | |
| DL8DAS-14 | 2026-08-30 12:26:15 | 49.91493 | 8.30012 | 32° | 11km/h | 31230m | 6.4m/s | -41.6°C | 0.5% | 10.2hPa | 2.6V | 00:00:00 | 00:00:00 | 00:00:00 | |
| DB0UT-9 | 2026-08-30 12:26:13 | 49.91493 | 8.30012 | 33° | 11km/h | 31230m | 6.4m/s | -41.6°C | 0.5% | 10.2hPa | 2.6V | 03:21:00 | 00:00:00 | 00:00:00 | |
| DB0DAN | 2026-08-30 12:26:10 | 49.91483 | 8.30016 | 305° | 4km/h | 31208m | 5.9m/s | -41.8°C | 0.5% | 10.23hPa | 2.6V | 00:00:00 | 00:00:00 | 00:00:00 | |
| BIOWL1-15 | 2026-08-30 12:26:08 | 49.91485 | 8.30015 | 143° | 11km/h | 31197m | 4.9m/s | -41.6°C | 0% | 10.3hPa | 2.7V | 03:21:18 | 01:55:53 | 00:00:00 | |
| DO2JMG | 2026-08-30 12:26:04 | 49.91491 | 8.29992 | 77° | 18km/h | 31177m | 6.1m/s | -41.5°C | 0% | 10.3hPa | 2.6V | 03:21:18 | 01:55:49 | 00:00:00 | |
| DL1ZP-14 | 2026-08-30 12:26:03 | 49.91489 | 8.29985 | 59° | 18km/h | 31171m | 5.8m/s | -41.5°C | 0.5% | 10.3hPa | 2.6V | 00:00:00 | 00:00:00 | 00:00:00 | |
| BIOWL1-15 | 2026-08-30 12:26:02 | 49.91464 | 8.29928 | 27° | 20km/h | 31068m | 6m/s | -41.4°C | 0% | 10.5hPa | 2.6V | 03:22:09 | 01:55:29 | 00:00:00 | |
| GOEST3-10 | 2026-08-30 12:26:01 | 49.91483 | 8.29974 | 42° | 7km/h | 31161m | 4.7m/s | -41.6°C | 2.4% | 10.3hPa | 2.7V | 00:00:00 | 00:00:00 | 00:00:00 | |
| DL1XH-15 | 2026-08-30 12:26:00 | 49.91478 | 8.29965 | 43° | 2km/h | 31128m | 6m/s | -41.5°C | 2.4% | 10.4hPa | 2.7V | 03:21:14 | 01:55:40 | 00:00:00 | |
| BIOWL9-15 | 2026-08-30 12:25:59 | 49.91478 | 8.29966 | 145° | 0km/h | 31139m | 5.1m/s | -41.6°C | 0.5% | 10.3hPa | 2.7V | 00:00:00 | 00:00:00 | 00:00:00 | |
| DF7PN | 2026-08-30 12:25:57 | 49.91478 | 8.29965 | 43° | 0km/h | 31128m | 6.0m/s | -41.5°C | 0.5% | 10.4hPa | 2.7V | 00:00:00 | 00:00:00 | 00:00:00 | |
| DB0DAN | 2026-08-30 12:25:55 | 49.91478 | 8.29965 | 43° | 2km/h | 31128m | 6m/s | -41.5°C | 0.5% | 10.37hPa | 2.7V | 00:00:00 | 00:00:00 | 00:00:00 | |
| DO2JMG | 2026-08-30 12:25:53 | 49.91477 | 8.29963 | 36° | 7km/h | 31117m | 5m/s | -41.6°C | 0% | 10.4hPa | 2.6V | 03:21:18 | 01:55:38 | 00:00:00 | |
| DJ2DS-15 | 2026-08-30 12:25:52 | 49.91475 | 8.29961 | 47° | 9km/h | 31112m | 4.8m/s | -41.6°C | 0.6% | 10.4hPa | 2.6V | 00:00:00 | 00:00:00 | 00:00:00 | |
| AU51GT2 | 2026-08-30 12:25:49 | 49.91472 | 8.29950 | 90° | 11km/h | 31095m | 5.5m/s | -41.4°C | 0.5% | 10.4hPa | 2.6V | 00:00:00 | 00:00:00 | 00:00:00 | |
| BIOWL1-15 | 2026-08-30 12:25:48 | 49.91460 | 8.29925 | 24° | 20km/h | 31062m | 5m/s | -41.3°C | 0% | 10.5hPa | 2.6V | 03:22:09 | 01:55:28 | 00:00:00 | |
| DL9SK-14 | 2026-08-30 12:25:47 | 49.91472 | 8.29941 | 76° | 11km/h | 31085m | 4.3m/s | -41.5°C | 0.5% | 10.4hPa | 2.7V | 00:00:00 | 00:00:00 | 00:00:00 | |
| DD1CC8 | 2026-08-30 12:25:46 | 49.91468 | 8.29932 | 38° | 15km/h | 31075m | 6.6m/s | -41.5°C | 0.5% | 10.5hPa | 2.7V | 00:00:00 | 00:00:00 | 00:00:00 | |
| GOEST3-10 | 2026-08-30 12:25:45 | 49.91468 | 8.29932 | 39° | 16km/h | 31075m | 6.6m/s | -41.5°C | 2.4% | 10.4hPa | 2.7V | 00:00:00 | 01:55:30 | 00:00:00 | |
| DL1XH-15 | 2026-08-30 12:25:44 | 49.91452 | 8.29919 | 34° | 13km/h | 31052m | 6m/s | -41.4°C | 2.3% | 10.5hPa | 2.7V | 03:21:28 | 01:55:26 | 00:00:00 | |
| DO2JMG | 2026-08-30 12:25:42 | 49.91455 | 8.29922 | 26° | 18km/h | 31058m | 4.7m/s | -41.4°C | 0% | 10.5hPa | 2.6V | 03:22:09 | 01:55:27 | 00:00:00 | |
| AA1-15 | 2026-08-30 12:25:41 | 49.91452 | 8.29919 | 34° | 13km/h | 31052m | 6m/s | -41.4°C | 0% | 10.5hPa | 2.7V | 03:22:09 | 01:55:26 | 00:00:00 | |
| BIOWL1-15 | 2026-08-30 12:25:35 | 49.91411 | 8.29849 | 28° | 22km/h | 30967m | 4.3m/s | -41.4°C | 0% | 10.6hPa | 2.7V | 03:22:09 | 01:55:10 | 00:00:00 | |
| DO2JMG | 2026-08-30 12:25:32 | 49.91439 | 8.29882 | 58° | 16km/h | 31004m | 5.8m/s | -41.4°C | 0% | 10.6hPa | 2.6V | 03:22:09 | 01:55:17 | 00:00:00 | |
| DM3KS-11 | 2026-08-30 12:25:31 | 49.91437 | 8.29877 | 59° | 15km/h | 30998m | 4.9m/s | -41.4°C | 0.5% | 10.6hPa | 2.6V | 00:00:00 | 00:00:00 | 00:00:00 | |
| DL1XH-15 | 2026-08-30 12:25:29 | 49.91422 | 8.29857 | 26° | 24km/h | 30977m | 6m/s | -41.5°C | 2.4% | 10.6hPa | 2.6V | 03:21:42 | 01:55:12 | 00:00:00 | |
| AA1-15 | 2026-08-30 12:25:23 | 49.91404 | 8.29841 | 53° | 15km/h | 30956m | 6.1m/s | -41.5°C | 0% | 10.6hPa | 2.6V | 03:22:09 | 01:55:08 | 00:00:00 | |
| BIOWL1-15 | 2026-08-30 12:25:23 | 49.91402 | 8.29836 | 71° | 15km/h | 30950m | 5.3m/s | -41.5°C | 0% | 10.7hPa | 2.6V | 03:22:09 | 01:55:07 | 00:00:00 | |
| DO2JMG | 2026-08-30 12:25:21 | 49.91401 | 8.29830 | 75° | 15km/h | 30945m | 4.7m/s | -41.5°C | 0% | 10.7hPa | 2.6V | 03:22:09 | 01:55:06 | 00:00:00 | |
| GOEST3-10 | 2026-08-30 12:25:20 | 49.91400 | 8.29824 | 69° | 22km/h | 30941m | 4.9m/s | -41.5°C | 2.4% | 10.6hPa | 2.6V | 00:00:00 | 00:00:00 | 00:00:00 | |
| DB0UT-7 | 2026-08-30 12:25:19 | 49.91397 | 8.29818 | 57° | 13km/h | 30935m | 6.0m/s | -41.6°C | 2.3% | 10.6hPa | 2.6V | 00:00:00 | 01:55:04 | 00:00:00 | |
| AU51GT2 | 2026-08-30 12:25:18 | 49.91394 | 8.29811 | 44° | 22km/h | 30929m | 5.6m/s | -41.7°C | 0.5% | 10.7hPa | 2.6V | 00:00:00 | 00:00:00 | 00:00:00 | |
| IW2NTF | 2026-08-30 12:25:17 | 49.91368 | 8.29787 | 24° | 7km/h | 30893m | 5.3m/s | -41.8°C | 0% | 10.7hPa | 2.6V | 03:21:58 | 01:54:56 | 00:00:00 | |
| HSKMA3-T | 2026-08-30 12:25:12 | 49.91368 | 8.29787 | 25° | 9km/h | 30893m | 5.3m/s | 0°C | 0% | 0hPa | 2.6V | 18:12:15 | 01:54:56 | 00:00:00 | |
| DO2JMG | 2026-08-30 12:25:10 | 49.91366 | 8.29785 | 24° | 9km/h | 30887m | 6.1m/s | -41.8°C | 0% | 10.7hPa | 2.6V | 03:22:09 | 01:54:55 | 00:00:00 | |
| AA1-15 | 2026-08-30 12:25:06 | 49.91359 | 8.29767 | 92° | 15km/h | 30860m | 5.7m/s | -41.7°C | 0% | 10.8hPa | 2.6V | 03:22:09 | 01:54:50 | 00:00:00 | |
| DL8OAI-8 | 2026-08-30 12:25:06 | 49.91360 | 8.29773 | 83° | 13km/h | 30867m | 6.1m/s | -41.7°C | 0.6% | 10.8hPa | 2.7V | 03:22:00 | 00:00:00 | 00:00:00 | |
| DL0LBS | 2026-08-30 12:25:05 | 49.91359 | 8.29767 | 93° | 15km/h | 30861m | 5.7m/s | -41.7°C | 0.6% | 10.8hPa | 2.7V | 03:22:00 | 00:00:00 | 00:00:00 | |
| IW2NTF | 2026-08-30 12:25:03 | 49.91354 | 8.29746 | 28° | 18km/h | 30841m | 6.3m/s | -42.1°C | 0% | 10.8hPa | 2.7V | 03:22:08 | 01:54:46 | 00:00:00 | |
| BIOWL1-15 | 2026-08-30 12:25:01 | 49.91333 | 8.29743 | 352° | 15km/h | 30820m | 5.8m/s | -42.1°C | 0% | 10.8hPa | 2.7V | 03:23:00 | 01:54:42 | 00:00:00 | |
| DO2JMG | 2026-08-30 12:25:00 | 49.91349 | 8.29743 | 11° | 22km/h | 30835m | 5.6m/s | -42.2°C | 0% | 10.8hPa | 2.6V | 03:22:09 | 01:54:45 | 00:00:00 | |
| AA1-15 | 2026-08-30 12:24:53 | 49.91329 | 8.29738 | 78° | 11km/h | 30794m | 5.8m/s | -42.4°C | 0% | 10.9hPa | 2.7V | 03:23:51 | 01:54:37 | 00:00:00 | |
| BIOWL1-15 | 2026-08-30 12:24:51 | 49.91314 | 8.29703 | 25° | 11km/h | 30758m | 4.3m/s | -42.4°C | 0% | 10.9hPa | 2.6V | 03:23:00 | 01:54:30 | 00:00:00 | |
| DO2JMG | 2026-08-30 12:24:49 | 49.91324 | 8.29722 | 59° | 18km/h | 30778m | 4.8m/s | -42.3°C | 0% | 10.9hPa | 2.6V | 03:23:00 | 01:54:34 | 00:00:00 | |
| AU51GT2 | 2026-08-30 12:24:47 | 49.91319 | 8.29710 | 58° | 15km/h | 30768m | 5.5m/s | -42.3°C | 0.5% | 10.9hPa | 2.6V | 00:00:00 | 00:00:00 | 00:00:00 | |
| DL9SK-14 | 2026-08-30 12:24:45 | 49.91314 | 8.29703 | 24° | 11km/h | 30758m | 4.3m/s | -42.4°C | 0.5% | 10.9hPa | 2.6V | 00:00:00 | 00:00:00 | 00:00:00 | |
| AA1-15 | 2026-08-30 12:24:43 | 49.91307 | 8.29703 | 349° | 22km/h | 30748m | 6.3m/s | -42.4°C | 0% | 11hPa | 2.6V | 03:23:51 | 01:54:28 | 00:00:00 | |
| IW2NTF | 2026-08-30 12:24:42 | 49.91293 | 8.29708 | 341° | 31km/h | 30736m | 5.2m/s | -42.3°C | 0% | 0hPa | 2.7V | 03:22:28 | 01:54:26 | 00:00:00 | |
| DO2JMG | 2026-08-30 12:24:38 | 49.91273 | 8.29717 | 351° | 20km/h | 30722m | 5.8m/s | -42.4°C | 0% | 11hPa | 2.6V | 03:23:00 | 01:54:23 | 00:00:00 | |
| IW2NTF | 2026-08-30 12:24:37 | 49.91250 | 8.29687 | 22° | 29km/h | 30685m | 4.7m/s | -42.6°C | 0% | 0hPa | 2.7V | 03:22:38 | 01:54:16 | 00:00:00 | |
| BIOWL1-15 | 2026-08-30 12:24:36 | 49.91267 | 8.29715 | 51° | 11km/h | 30710m | 5.1m/s | -42.4°C | 0% | 11hPa | 2.7V | 03:23:00 | 01:54:21 | 00:00:00 | |
| AA1-15 | 2026-08-30 12:24:33 | 49.91261 | 8.29699 | 51° | 22km/h | 30695m | 5.8m/s | -42.6°C | 0% | 11.1hPa | 2.6V | 03:23:51 | 01:54:18 | 00:00:00 | |
| DO2JMG | 2026-08-30 12:24:27 | 49.91221 | 8.29686 | 342° | 26km/h | 30665m | 5.9m/s | -42.5°C | 0% | 11.1hPa | 2.6V | 03:23:00 | 01:54:12 | 00:00:00 | |
| BIOWL1-15 | 2026-08-30 12:24:25 | 49.91211 | 8.29692 | 334° | 18km/h | 30654m | 4.7m/s | -42.6°C | 0% | 11.1hPa | 2.7V | 03:23:00 | 01:54:10 | 00:00:00 | |
| AA1-15 | 2026-08-30 12:24:22 | 49.91198 | 8.29695 | 12° | 22km/h | 30638m | 6.1m/s | -42.8°C | 0% | 11.2hPa | 2.6V | 03:23:51 | 01:54:07 | 00:00:00 | |
| GOEST3-10 | 2026-08-30 12:24:22 | 49.91198 | 8.29695 | 12° | 24km/h | 30638m | 6.0m/s | -42.8°C | 2.5% | 11.1hPa | 2.6V | 00:00:00 | 01:54:07 | 00:00:00 | |
| IW2NTF | 2026-08-30 12:24:20 | 49.91180 | 8.29687 | 14° | 26km/h | 30622m | 4.4m/s | -42.7°C | 0% | 0hPa | 2.7V | 03:22:50 | 01:54:04 | 00:00:00 | |
| DO2JMG | 2026-08-30 12:24:17 | 49.91168 | 8.29685 | 355° | 20km/h | 30612m | 6.1m/s | -42.6°C | 0% | 11.2hPa | 2.6V | 03:23:00 | 01:54:02 | 00:00:00 | |
| BIOWL1-15 | 2026-08-30 12:24:16 | 49.91153 | 8.29695 | 330° | 27km/h | 30595m | 5.4m/s | -42.9°C | 0% | 11.2hPa | 2.7V | 03:23:00 | 01:53:59 | 00:00:00 | |
| AA1-15 | 2026-08-30 12:24:08 | 49.91113 | 8.29714 | 359° | 16km/h | 30562m | 6.1m/s | -42.6°C | 0% | 11.3hPa | 2.7V | 03:23:51 | 01:53:53 | 00:00:00 | |
| DO2JMG | 2026-08-30 12:24:07 | 49.91109 | 8.29714 | 7° | 13km/h | 30557m | 5.7m/s | -42.6°C | 0% | 11.3hPa | 2.7V | 03:23:51 | 01:53:52 | 00:00:00 | |
| BIOWL1-15 | 2026-08-30 12:24:03 | 49.91096 | 8.29708 | 10° | 20km/h | 30535m | 6.2m/s | -42.8°C | 0% | 11.3hPa | 2.6V | 03:23:51 | 01:53:48 | 00:00:00 | |
| DL0LBS | 2026-08-30 12:24:03 | 49.91096 | 8.29708 | 11° | 20km/h | 30535m | 6.2m/s | -42.7°C | 0.6% | 11.3hPa | 2.6V | 03:23:00 | 00:00:00 | 00:00:00 | |
| DL1XH-15 | 2026-08-30 12:24:01 | 49.91077 | 8.29712 | 336° | 26km/h | 30519m | 5.3m/s | -43°C | 2.5% | 11.4hPa | 2.6V | 03:23:09 | 01:53:45 | 00:00:00 | |
| DO2JMG | 2026-08-30 12:23:57 | 49.91065 | 8.29731 | 295° | 22km/h | 30501m | 5.1m/s | -43.3°C | 0% | 11.4hPa | 2.7V | 03:23:51 | 01:53:42 | 00:00:00 | |
| DL3AQ-11 | 2026-08-30 12:23:55 | 49.91059 | 8.29749 | 317° | 13km/h | 30486m | 6.1m/s | -43.5°C | 0.6% | 11.4hPa | 2.7V | 00:00:00 | 00:00:00 | 00:00:00 | |
| DO1YAY-16 | 2026-08-30 12:23:53 | 49.91053 | 8.29752 | 3° | 13km/h | 30475m | 5.0m/s | -43.4°C | 0.6% | 11.4hPa | 2.7V | 00:00:00 | 00:00:00 | 00:00:00 | |
| DF7PN | 2026-08-30 12:23:52 | 49.91053 | 8.29752 | 3° | 13km/h | 30475m | 5.0m/s | -43.4°C | 0.6% | 11.4hPa | 2.7V | 00:00:00 | 00:00:00 | 00:00:00 | |
| DL1XH-15 | 2026-08-30 12:23:51 | 49.91044 | 8.29751 | 345° | 7km/h | 30459m | 6.1m/s | -43.4°C | 2.6% | 11.5hPa | 2.7V | 03:23:20 | 01:53:34 | 00:00:00 | |
| DO2JMG | 2026-08-30 12:23:46 | 49.91040 | 8.29759 | 294° | 13km/h | 30442m | 5.2m/s | -43.3°C | 0% | 11.5hPa | 2.6V | 03:23:51 | 01:53:31 | 00:00:00 | |
| AU51GT2 | 2026-08-30 12:23:45 | 49.91039 | 8.29764 | 301° | 13km/h | 30437m | 6.4m/s | -43.4°C | 0.5% | 11.5hPa | 2.6V | 00:00:00 | 00:00:00 | 00:00:00 | |
| BIOWL1-15 | 2026-08-30 12:23:42 | 49.91032 | 8.29778 | 301° | 15km/h | 30420m | 4.7m/s | -43.5°C | 0% | 11.5hPa | 2.6V | 03:23:51 | 01:53:27 | 00:00:00 | |
| DO2JMG | 2026-08-30 12:23:35 | 49.91035 | 8.29803 | 19° | 2km/h | 30381m | 6.1m/s | -43.4°C | 0% | 11.6hPa | 2.7V | 03:23:51 | 01:53:20 | 00:00:00 | |
| BIOWL1-15 | 2026-08-30 12:23:32 | 49.91032 | 8.29801 | 13° | 2km/h | 30366m | 5.2m/s | -43.5°C | 0% | 11.6hPa | 2.6V | 03:23:51 | 01:53:17 | 00:00:00 | |
| AA1-15 | 2026-08-30 12:23:30 | 49.91033 | 8.29803 | 225° | 11km/h | 30354m | 6m/s | -43.4°C | 0% | 11.7hPa | 2.7V | 03:23:51 | 01:53:15 | 00:00:00 | |
| DO2JMG | 2026-08-30 12:23:25 | 49.91043 | 8.29828 | 264° | 13km/h | 30325m | 5.8m/s | -43.5°C | 0% | 11.7hPa | 2.7V | 03:23:51 | 01:53:10 | 00:00:00 | |
| BIOWL1-15 | 2026-08-30 12:23:21 | 49.91045 | 8.29844 | 233° | 11km/h | 30302m | 6.1m/s | -43.8°C | 0% | 11.7hPa | 2.7V | 03:23:51 | 01:53:06 | 00:00:00 | |
| AA1-15 | 2026-08-30 12:23:20 | 49.91047 | 8.29848 | 222° | 13km/h | 30297m | 5.1m/s | -43.9°C | 0% | 11.8hPa | 2.7V | 03:23:51 | 01:53:05 | 00:00:00 | |
| DO2JMG | 2026-08-30 12:23:14 | 49.91051 | 8.29854 | 336° | 4km/h | 30264m | 5.1m/s | -44.5°C | 0% | 11.8hPa | 2.7V | 03:24:42 | 01:52:59 | 00:00:00 | |
| BIOWL1-15 | 2026-08-30 12:23:10 | 49.91054 | 8.29863 | 231° | 13km/h | 30241m | 4.7m/s | -44.6°C | 0% | 11.9hPa | 2.7V | 03:24:42 | 01:52:55 | 00:00:00 | |
| DL1XH-15 | 2026-08-30 12:23:10 | 49.91059 | 8.29873 | 106° | 4km/h | 30214m | 5.3m/s | -44.9°C | 2.8% | 11.9hPa | 2.7V | 03:24:04 | 01:52:50 | 00:00:00 | |
| AA1-15 | 2026-08-30 12:23:09 | 49.91056 | 8.29867 | 235° | 13km/h | 30236m | 5.3m/s | -44.7°C | 0% | 11.9hPa | 2.6V | 03:24:42 | 01:52:54 | 00:00:00 | |
| DO2JMG | 2026-08-30 12:23:04 | 49.91059 | 8.29871 | 122° | 7km/h | 30208m | 5.6m/s | -44.9°C | 0% | 11.9hPa | 2.7V | 03:24:42 | 01:52:49 | 00:00:00 | |
| BIOWL1-15 | 2026-08-30 12:22:59 | 49.91069 | 8.29855 | 111° | 7km/h | 30181m | 5.9m/s | -44.9°C | 0% | 12hPa | 2.7V | 03:24:42 | 01:52:44 | 00:00:00 | |
| DO2JMG | 2026-08-30 12:22:53 | 49.91059 | 8.29857 | 280° | 9km/h | 30147m | 6.3m/s | -45°C | 0% | 12hPa | 2.6V | 03:24:42 | 01:52:38 | 00:00:00 | |
| BIOWL1-15 | 2026-08-30 12:22:49 | 49.91062 | 8.29857 | 76° | 11km/h | 30119m | 6.5m/s | -45°C | 0% | 12.1hPa | 2.6V | 03:24:42 | 01:52:33 | 00:00:00 | |
| DL1XH-15 | 2026-08-30 12:22:48 | 49.91050 | 8.29845 | 316° | 13km/h | 30091m | 6.3m/s | -45.3°C | 2.8% | 12.1hPa | 2.6V | 03:24:26 | 01:52:28 | 00:00:00 | |
| AA1-15 | 2026-08-30 12:22:48 | 49.91061 | 8.29852 | 58° | 15km/h | 30113m | 5.3m/s | -45°C | 0% | 12.1hPa | 2.6V | 03:24:42 | 01:52:32 | 00:00:00 | |
| DL3AQ-11 | 2026-08-30 12:22:48 | 49.91061 | 8.29852 | 57° | 15km/h | 30113m | 5.3m/s | -45.0°C | 0.6% | 12.1hPa | 2.6V | 00:00:00 | 00:00:00 | 00:00:00 | |
| DO2JMG | 2026-08-30 12:22:43 | 49.91050 | 8.29845 | 317° | 13km/h | 30091m | 6.3m/s | -45.3°C | 0% | 12.1hPa | 2.6V | 03:24:42 | 01:52:28 | 00:00:00 | |
| BIOWL1-15 | 2026-08-30 12:22:37 | 49.91035 | 8.29853 | 74° | 15km/h | 30040m | 6.4m/s | -45.6°C | 0% | 12.2hPa | 2.7V | 03:24:42 | 01:52:19 | 00:00:00 | |
| AA1-15 | 2026-08-30 12:22:37 | 49.91040 | 8.29868 | 41° | 11km/h | 30058m | 6.2m/s | -45.5°C | 0% | 12.2hPa | 2.6V | 03:24:42 | 01:52:22 | 00:00:00 | |
| DO2JMG | 2026-08-30 12:22:33 | 49.91034 | 8.29848 | 81° | 11km/h | 30034m | 5.9m/s | -45.7°C | 0% | 12.2hPa | 2.6V | 03:24:42 | 01:52:18 | 00:00:00 | |
| BIOWL1-15 | 2026-08-30 12:22:27 | 49.91021 | 8.29845 | 340° | 13km/h | 29989m | 6.4m/s | -46°C | 0% | 12.3hPa | 2.7V | 03:25:33 | 01:52:10 | 00:00:00 | |
| AA1-15 | 2026-08-30 12:22:26 | 49.91025 | 8.29844 | 345° | 13km/h | 29995m | 5.4m/s | -46.1°C | 0% | 12.3hPa | 2.7V | 03:25:33 | 01:52:11 | 00:00:00 | |
| DO2JMG | 2026-08-30 12:22:22 | 49.91011 | 8.29845 | 29° | 16km/h | 29974m | 5.1m/s | -46°C | 0% | 12.4hPa | 2.6V | 03:25:33 | 01:52:07 | 00:00:00 | |
| AA1-15 | 2026-08-30 12:22:15 | 49.90982 | 8.29800 | 13° | 13km/h | 29933m | 5.8m/s | -45.9°C | 0% | 12.4hPa | 2.7V | 03:25:33 | 01:52:00 | 00:00:00 | |
| BIOWL1-15 | 2026-08-30 12:22:14 | 49.90964 | 8.29803 | 5° | 16km/h | 29905m | 4.9m/s | -45.8°C | 0% | 12.5hPa | 2.7V | 03:25:33 | 01:51:55 | 00:00:00 | |
| DO2JMG | 2026-08-30 12:22:11 | 49.90968 | 8.29803 | 357° | 16km/h | 29910m | 5.4m/s | -45.8°C | 0% | 12.5hPa | 2.7V | 03:25:33 | 01:51:56 | 00:00:00 | |
| AA1-15 | 2026-08-30 12:22:05 | 49.90947 | 8.29794 | 45° | 13km/h | 29874m | 4.7m/s | -45.9°C | 0% | 12.6hPa | 2.7V | 03:25:33 | 01:51:49 | 00:00:00 | |
| BIOWL1-15 | 2026-08-30 12:22:01 | 49.90939 | 8.29779 | 47° | 20km/h | 29857m | 4.8m/s | -46.1°C | 0% | 12.6hPa | 2.6V | 03:25:33 | 01:51:46 | 00:00:00 | |
| DO2JMG | 2026-08-30 12:22:00 | 49.90935 | 8.29775 | 38° | 16km/h | 29852m | 4.3m/s | -46.1°C | 0% | 12.6hPa | 2.7V | 03:25:33 | 01:51:45 | 00:00:00 | |
| AA1-15 | 2026-08-30 12:21:54 | 49.90929 | 8.29789 | 263° | 7km/h | 29820m | 5.4m/s | -46.1°C | 0% | 12.7hPa | 2.6V | 03:25:33 | 01:51:39 | 00:00:00 | |
| BIOWL1-15 | 2026-08-30 12:21:50 | 49.90924 | 8.29782 | 46° | 16km/h | 29798m | 4.7m/s | -46°C | 0% | 12.7hPa | 2.7V | 03:25:33 | 01:51:35 | 00:00:00 | |
| DO2JMG | 2026-08-30 12:21:49 | 49.90921 | 8.29778 | 37° | 16km/h | 29793m | 5.6m/s | -46.1°C | 0% | 12.7hPa | 2.7V | 03:25:33 | 01:51:34 | 00:00:00 | |
| DO1YAY-16 | 2026-08-30 12:21:49 | 49.90918 | 8.29775 | 22° | 11km/h | 29788m | 5.8m/s | -46.1°C | 0.7% | 12.7hPa | 2.6V | 00:00:00 | 00:00:00 | 00:00:00 | |
| GOEST3-10 | 2026-08-30 12:21:48 | 49.90918 | 8.29775 | 23° | 9km/h | 29788m | 5.8m/s | -46.1°C | 2.9% | 12.7hPa | 2.6V | 00:00:00 | 00:00:00 | 00:00:00 | |
| DL1XH-15 | 2026-08-30 12:21:46 | 49.90911 | 8.29783 | 172° | 4km/h | 29755m | 6.1m/s | -46.2°C | 2.9% | 12.8hPa | 2.6V | 03:25:27 | 01:51:27 | 00:00:00 | |
| AA1-15 | 2026-08-30 12:21:44 | 49.90910 | 8.29782 | 244° | 4km/h | 29761m | 6.1m/s | -46.3°C | 0% | 12.8hPa | 2.6V | 03:25:33 | 01:51:28 | 00:00:00 | |
| BIOWL1-15 | 2026-08-30 12:21:39 | 49.90914 | 8.29777 | 351° | 4km/h | 29727m | 5.8m/s | -46.4°C | 0% | 12.9hPa | 2.6V | 03:25:33 | 01:51:22 | 00:00:00 | |
| DO2JMG | 2026-08-30 12:21:39 | 49.90915 | 8.29778 | 121° | 5km/h | 29738m | 5.1m/s | -46.3°C | 0% | 12.8hPa | 2.6V | 03:25:33 | 01:51:24 | 00:00:00 | |
| AA1-15 | 2026-08-30 12:21:32 | 49.90905 | 8.29771 | 60° | 11km/h | 29700m | 5.3m/s | -46.4°C | 0% | 12.9hPa | 2.6V | 03:26:24 | 01:51:17 | 00:00:00 | |
| DL1XH-15 | 2026-08-30 12:21:31 | 49.90903 | 8.29763 | 68° | 2km/h | 29685m | 6.3m/s | -46.3°C | 3% | 12.9hPa | 2.7V | 03:25:40 | 01:51:14 | 00:00:00 | |
| BIOWL1-15 | 2026-08-30 12:21:28 | 49.90911 | 8.29757 | 353° | 5km/h | 29626m | 5m/s | -46.2°C | 0% | 13.1hPa | 2.6V | 03:26:24 | 01:51:03 | 00:00:00 | |
| DO2JMG | 2026-08-30 12:21:28 | 49.90903 | 8.29763 | 244° | 4km/h | 29679m | 5.9m/s | -46.2°C | 0% | 12.9hPa | 2.6V | 03:26:24 | 01:51:13 | 00:00:00 | |
| AA1-15 | 2026-08-30 12:21:22 | 49.90912 | 8.29763 | 127° | 11km/h | 29648m | 4.2m/s | -46.3°C | 0% | 13hPa | 2.6V | 03:26:24 | 01:51:07 | 00:00:00 | |
| DO2JMG | 2026-08-30 12:21:17 | 49.90910 | 8.29757 | 353° | 5km/h | 29621m | 5m/s | -46.2°C | 0% | 13.1hPa | 2.6V | 03:26:24 | 01:51:02 | 00:00:00 | |
| AA1-15 | 2026-08-30 12:21:11 | 49.90905 | 8.29755 | 356° | 7km/h | 29588m | 5.4m/s | -46.4°C | 0% | 13.1hPa | 2.7V | 03:26:24 | 01:50:56 | 00:00:00 | |
| IW2NTF | 2026-08-30 12:21:10 | 49.90902 | 8.29755 | 4° | 5km/h | 29578m | 4.4m/s | -46.3°C | 0% | 0hPa | 2.6V | 03:26:00 | 01:50:54 | 00:00:00 | |
| AU51GT2 | 2026-08-30 12:21:10 | 49.90901 | 8.29755 | 4° | 5km/h | 29579m | 4.4m/s | -46.3°C | 0.7% | 13.2hPa | 2.6V | 00:00:00 | 00:00:00 | 00:00:00 | |
| DJ2KF-10 | 2026-08-30 12:21:09 | 49.90901 | 8.29755 | 5° | 9km/h | 29579m | 4.4m/s | -46.2°C | 3.0% | 13.1hPa | 2.6V | 00:00:00 | 01:50:54 | 00:00:00 | |
| GOEST3-10 | 2026-08-30 12:21:08 | 49.90900 | 8.29754 | 43° | 5km/h | 29574m | 6.0m/s | -46.2°C | 2.9% | 13.1hPa | 2.6V | 00:00:00 | 00:00:00 | 00:00:00 | |
| DL1XH-15 | 2026-08-30 12:21:07 | 49.90903 | 8.29751 | 298° | 11km/h | 29541m | 6.1m/s | -46.3°C | 2.9% | 13.2hPa | 2.6V | 03:26:07 | 01:50:47 | 00:00:00 | |
| DO2JMG | 2026-08-30 12:21:07 | 49.90900 | 8.29753 | 105° | 5km/h | 29567m | 6.4m/s | -46.2°C | 0% | 13.2hPa | 2.6V | 03:26:24 | 01:50:52 | 00:00:00 | |
| AA1-15 | 2026-08-30 12:21:01 | 49.90901 | 8.29755 | 303° | 16km/h | 29535m | 5.3m/s | -46.4°C | 0% | 13.2hPa | 2.6V | 03:26:24 | 01:50:46 | 00:00:00 | |
| HEMX73-11 | 2026-08-30 12:21:00 | 49.90901 | 8.29755 | 304° | 16km/h | 29535m | 5.3m/s | -46.4°C | 0.7% | 13.2hPa | 2.6V | 03:26:00 | 00:00:00 | 00:00:00 | |
| IW2NTF | 2026-08-30 12:20:59 | 49.90895 | 8.29770 | 209° | 0km/h | 29515m | 5.9m/s | -46.4°C | 0% | 0hPa | 2.6V | 03:26:12 | 01:50:42 | 00:00:00 | |
| BIOWL1-15 | 2026-08-30 12:20:58 | 49.90895 | 8.29769 | 299° | 7km/h | 29521m | 5.7m/s | -46.5°C | 0% | 13.2hPa | 2.6V | 03:26:24 | 01:50:43 | 00:00:00 | |
| DO2JMG | 2026-08-30 12:20:57 | 49.90895 | 8.29770 | 210° | 0km/h | 29515m | 5.9m/s | -46.4°C | 0% | 13.3hPa | 2.6V | 03:26:24 | 01:50:42 | 00:00:00 | |
| DJ2DS-15 | 2026-08-30 12:20:57 | 49.90895 | 8.29770 | 210° | 13km/h | 29515m | 5.9m/s | -46.3°C | 2.9% | 13.2hPa | 2.6V | 00:00:00 | 01:50:42 | 00:00:00 | |
| DL0LBS | 2026-08-30 12:20:56 | 49.90895 | 8.29770 | 0° | 0km/h | 29515m | 5.9m/s | -46.4°C | 0.7% | 13.3hPa | 2.6V | 03:26:00 | 00:00:00 | 00:00:00 | |
| DL1XH-15 | 2026-08-30 12:20:53 | 49.90897 | 8.29755 | 75° | 5km/h | 29487m | 4.9m/s | -46.4°C | 2.9% | 13.3hPa | 2.6V | 03:26:17 | 01:50:37 | 00:00:00 | |
| DL1ZP-14 | 2026-08-30 12:20:53 | 49.90897 | 8.29755 | 75° | 5km/h | 29487m | 4.9m/s | -46.4°C | 0.7% | 13.3hPa | 2.6V | 00:00:00 | 00:00:00 | 00:00:00 | |
| DM3KS-11 | 2026-08-30 12:20:52 | 49.90897 | 8.29753 | 35° | 2km/h | 29482m | 5.0m/s | -46.4°C | 0.7% | 13.3hPa | 2.6V | 00:00:00 | 00:00:00 | 00:00:00 | |
| IW2NTF | 2026-08-30 12:20:51 | 49.90899 | 8.29767 | 266° | 13km/h | 29454m | 5.2m/s | -46.7°C | 0% | 0hPa | 2.6V | 03:26:23 | 01:50:31 | 00:00:00 | |
| AA1-15 | 2026-08-30 12:20:50 | 49.90896 | 8.29753 | 282° | 2km/h | 29477m | 5.4m/s | -46.5°C | 0% | 13.3hPa | 2.7V | 03:26:24 | 01:50:35 | 00:00:00 | |
| BIOWL1-15 | 2026-08-30 12:20:47 | 49.90899 | 8.29772 | 286° | 13km/h | 29449m | 5.8m/s | -46.6°C | 0% | 13.4hPa | 2.7V | 03:26:24 | 01:50:30 | 00:00:00 | |
| DL1XH-15 | 2026-08-30 12:20:47 | 49.90892 | 8.29777 | 34° | 11km/h | 29435m | 4.3m/s | -46.8°C | 3% | 13.4hPa | 2.6V | 03:26:27 | 01:50:27 | 00:00:00 | |
| DO2JMG | 2026-08-30 12:20:46 | 49.90899 | 8.29767 | 267° | 13km/h | 29454m | 5.2m/s | -46.7°C | 0% | 13.4hPa | 2.6V | 03:26:24 | 01:50:31 | 00:00:00 | |
| AA1-15 | 2026-08-30 12:20:40 | 49.90890 | 8.29766 | 87° | 22km/h | 29423m | 7.1m/s | -47°C | 0% | 13.4hPa | 2.7V | 03:27:15 | 01:50:25 | 00:00:00 | |
| DC4HF-4 | 2026-08-30 12:20:40 | 49.90890 | 8.29757 | 95° | 26km/h | 29416m | 5.8m/s | -46.9°C | 0.7% | 13.5hPa | 2.6V | 00:00:00 | 00:00:00 | 00:00:00 | |
| DJ2KF-10 | 2026-08-30 12:20:39 | 49.90890 | 8.29757 | 96° | 16km/h | 29417m | 5.8m/s | -46.9°C | 3.1% | 13.4hPa | 2.6V | 00:00:00 | 01:50:24 | 00:00:00 | |
| IW2NTF | 2026-08-30 12:20:37 | 49.90891 | 8.29729 | 80° | 16km/h | 29401m | 5.5m/s | -47°C | 0% | 0hPa | 2.6V | 03:26:33 | 01:50:21 | 00:00:00 | |
| DL8OAI-8 | 2026-08-30 12:20:37 | 49.90891 | 8.29737 | 93° | 24km/h | 29407m | 4.5m/s | -47.0°C | 0.8% | 13.5hPa | 2.6V | 03:27:00 | 00:00:00 | 00:00:00 | |
| DL1XH-15 | 2026-08-30 12:20:35 | 49.90883 | 8.29726 | 321° | 11km/h | 29378m | 5.8m/s | -47.1°C | 3.2% | 13.6hPa | 2.6V | 03:26:37 | 01:50:17 | 00:00:00 | |
| DO2JMG | 2026-08-30 12:20:35 | 49.90890 | 8.29724 | 50° | 11km/h | 29396m | 5.8m/s | -47.1°C | 0% | 13.5hPa | 2.6V | 03:27:15 | 01:50:20 | 00:00:00 | |
| BIOWL1-15 | 2026-08-30 12:20:34 | 49.90885 | 8.29723 | 334° | 9km/h | 29384m | 6.3m/s | -47.1°C | 0.1% | 13.5hPa | 2.7V | 03:27:15 | 01:50:18 | 00:00:00 | |
| GOEST3-10 | 2026-08-30 12:20:33 | 49.90885 | 8.29723 | 335° | 9km/h | 29384m | 6.3m/s | -47.1°C | 3.2% | 13.5hPa | 2.6V | 00:00:00 | 01:50:18 | 00:00:00 | |
| SSTOLZ84 | 2026-08-30 12:20:32 | 49.90879 | 8.29729 | 346° | 9km/h | 29368m | 4.4m/s | 0°C | -1.0% | -1.0hPa | 2.6V | 00:00:00 | 00:00:00 | 00:00:00 | |
| IW2NTF | 2026-08-30 12:20:31 | 49.90865 | 8.29720 | 45° | 20km/h | 29347m | 4.6m/s | -47°C | 0% | 0hPa | 2.6V | 03:26:43 | 01:50:11 | 00:00:00 | |
| AA1-15 | 2026-08-30 12:20:29 | 49.90876 | 8.29730 | 9° | 11km/h | 29363m | 5.1m/s | -47°C | 0% | 13.6hPa | 2.7V | 03:27:15 | 01:50:14 | 00:00:00 | |
| DO2JMG | 2026-08-30 12:20:24 | 49.90860 | 8.29707 | 73° | 20km/h | 29336m | 6.1m/s | -47.3°C | 0% | 13.7hPa | 2.7V | 03:27:15 | 01:50:09 | 00:00:00 | |
| DL1XH-15 | 2026-08-30 12:20:23 | 49.90860 | 8.29693 | 99° | 16km/h | 29325m | 5.2m/s | -47.4°C | 3.2% | 13.7hPa | 2.6V | 03:26:47 | 01:50:07 | 00:00:00 | |
| AA1-15 | 2026-08-30 12:20:19 | 49.90859 | 8.29679 | 45° | 13km/h | 29310m | 6m/s | -47.5°C | 0.1% | 13.7hPa | 2.7V | 03:27:15 | 01:50:04 | 00:00:00 | |
| IW2NTF | 2026-08-30 12:20:17 | 49.90845 | 8.29669 | 19° | 24km/h | 29294m | 4.2m/s | -47.4°C | 0% | 0hPa | 2.6V | 03:26:53 | 01:50:01 | 00:00:00 | |
| DL8OAI-8 | 2026-08-30 12:20:17 | 49.90851 | 8.29672 | 21° | 24km/h | 29299m | 4.5m/s | -47.4°C | 0.8% | 13.7hPa | 2.7V | 03:27:00 | 00:00:00 | 00:00:00 | |
| DF7PN | 2026-08-30 12:20:16 | 49.90840 | 8.29665 | 24° | 22km/h | 29290m | 5.4m/s | -47.4°C | 0.7% | 13.7hPa | 2.7V | 00:00:00 | 00:00:00 | 00:00:00 | |
| DL0LBS | 2026-08-30 12:20:14 | 49.90840 | 8.29665 | 25° | 22km/h | 29290m | 5.4m/s | -47.4°C | 0.8% | 13.7hPa | 2.7V | 03:27:00 | 00:00:00 | 00:00:00 | |
| DL1XH-15 | 2026-08-30 12:20:13 | 49.90831 | 8.29654 | 65° | 11km/h | 29273m | 5m/s | -47.4°C | 3.2% | 13.8hPa | 2.7V | 03:26:57 | 01:49:57 | 00:00:00 | |
| DO2JMG | 2026-08-30 12:20:13 | 49.90832 | 8.29658 | 49° | 15km/h | 29278m | 5.6m/s | -47.4°C | 0.1% | 13.8hPa | 2.7V | 03:27:15 | 01:49:58 | 00:00:00 | |
| AA1-15 | 2026-08-30 12:20:09 | 49.90827 | 8.29642 | 46° | 13km/h | 29257m | 5.9m/s | -47.3°C | 0.1% | 13.8hPa | 2.6V | 03:27:15 | 01:49:54 | 00:00:00 | |
| DJ2KF-10 | 2026-08-30 12:20:09 | 49.90827 | 8.29642 | 46° | 24km/h | 29257m | 5.9m/s | -47.3°C | 3.2% | 13.8hPa | 2.6V | 00:00:00 | 01:49:54 | 00:00:00 | |
| DL3AQ-11 | 2026-08-30 12:20:08 | 49.90819 | 8.29634 | 25° | 20km/h | 29246m | 4.8m/s | -47.4°C | 0.8% | 13.8hPa | 2.6V | 00:00:00 | 00:00:00 | 00:00:00 | |
| DL1XH-15 | 2026-08-30 12:20:07 | 49.90799 | 8.29612 | 56° | 18km/h | 29220m | 5.2m/s | -47.3°C | 3.2% | 13.9hPa | 2.6V | 03:27:07 | 01:49:47 | 00:00:00 | |
| DO2JMG | 2026-08-30 12:20:02 | 49.90799 | 8.29612 | 56° | 18km/h | 29220m | 5.2m/s | -47.3°C | 0.1% | 13.9hPa | 2.6V | 03:27:15 | 01:49:47 | 00:00:00 | |
| BIOWL1-15 | 2026-08-30 12:20:02 | 49.90793 | 8.29599 | 55° | 22km/h | 29210m | 5.4m/s | -47.3°C | 0.1% | 13.9hPa | 2.6V | 03:27:15 | 01:49:45 | 00:00:00 | |
| AA1-15 | 2026-08-30 12:19:59 | 49.90790 | 8.29592 | 50° | 26km/h | 29204m | 6.2m/s | -47.3°C | 0.1% | 13.9hPa | 2.7V | 03:27:15 | 01:49:44 | 00:00:00 | |
| GOEST3-10 | 2026-08-30 12:19:58 | 49.90785 | 8.29584 | 43° | 26km/h | 29199m | 5.3m/s | -47.3°C | 3.2% | 13.9hPa | 2.7V | 03:27:00 | 00:00:00 | 00:00:00 | |
| DL1XH-15 | 2026-08-30 12:19:57 | 49.90757 | 8.29548 | 37° | 20km/h | 29167m | 4.9m/s | -47.2°C | 3.2% | 14hPa | 2.7V | 03:27:17 | 01:49:37 | 00:00:00 | |
| DB0DAN | 2026-08-30 12:19:55 | 49.90769 | 8.29564 | 40° | 24km/h | 29183m | 5.9m/s | -47.2°C | 0.7% | 13.98hPa | 2.6V | 00:00:00 | 00:00:00 | 00:00:00 | |
| DO2JMG | 2026-08-30 12:19:51 | 49.90753 | 8.29543 | 30° | 22km/h | 29162m | 5.6m/s | -47.2°C | 0.1% | 14hPa | 2.6V | 03:28:06 | 01:49:36 | 00:00:00 | |
| BIOWL1-15 | 2026-08-30 12:19:51 | 49.90741 | 8.29535 | 20° | 29km/h | 29150m | 5.6m/s | -47°C | 0% | 14hPa | 2.6V | 03:28:06 | 01:49:34 | 00:00:00 | |
| AA1-15 | 2026-08-30 12:19:48 | 49.90734 | 8.29531 | 20° | 29km/h | 29144m | 4.9m/s | -47°C | 0% | 14.1hPa | 2.7V | 03:28:06 | 01:49:33 | 00:00:00 | |
| BIOWL1-15 | 2026-08-30 12:19:41 | 49.90680 | 8.29486 | 28° | 31km/h | 29095m | 4.7m/s | -47.1°C | 0.1% | 14.2hPa | 2.6V | 03:28:06 | 01:49:24 | 00:00:00 | |
| DO2JMG | 2026-08-30 12:19:41 | 49.90694 | 8.29498 | 28° | 31km/h | 29105m | 6m/s | -47°C | 0.1% | 14.2hPa | 2.7V | 03:28:06 | 01:49:26 | 00:00:00 | |
| AA1-15 | 2026-08-30 12:19:38 | 49.90673 | 8.29481 | 31° | 27km/h | 29090m | 6.2m/s | -47.1°C | 0.1% | 14.2hPa | 2.7V | 03:28:06 | 01:49:23 | 00:00:00 | |
| IW2NTF | 2026-08-30 12:19:37 | 49.90663 | 8.29470 | 35° | 22km/h | 29077m | 5.5m/s | 0°C | 0% | 0hPa | 2.6V | 00:00:00 | 01:49:21 | 00:00:00 | |
| AU51GT2 | 2026-08-30 12:19:37 | 49.90663 | 8.29470 | 35° | 20km/h | 29078m | 5.6m/s | -47.0°C | 0.7% | 14.2hPa | 2.7V | 00:00:00 | 00:00:00 | 00:00:00 | |
| DL9SK-14 | 2026-08-30 12:19:35 | 49.90654 | 8.29461 | 29° | 22km/h | 29067m | 6.0m/s | -47.1°C | 0.8% | 14.2hPa | 2.7V | 00:00:00 | 00:00:00 | 00:00:00 | |
| GOEST3-10 | 2026-08-30 12:19:33 | 49.90649 | 8.29457 | 26° | 22km/h | 29061m | 6.2m/s | -47.0°C | 3.2% | 14.2hPa | 2.7V | 00:00:00 | 01:49:18 | 00:00:00 | |
| IW2NTF | 2026-08-30 12:19:32 | 49.90615 | 8.29440 | 16° | 20km/h | 29021m | 6.2m/s | 0°C | 0% | 0hPa | 2.7V | 00:00:00 | 01:49:11 | 00:00:00 | |
| DO2JMG | 2026-08-30 12:19:31 | 49.90637 | 8.29450 | 19° | 24km/h | 29050m | 5.1m/s | -47.1°C | 0.1% | 14.3hPa | 2.7V | 03:28:06 | 01:49:16 | 00:00:00 | |
| AA1-15 | 2026-08-30 12:19:27 | 49.90619 | 8.29442 | 16° | 16km/h | 29026m | 4.8m/s | -47°C | 0% | 14.3hPa | 2.7V | 03:28:06 | 01:49:12 | 00:00:00 | |
| GOEST3-10 | 2026-08-30 12:19:23 | 49.90597 | 8.29431 | 19° | 24km/h | 29004m | 4.8m/s | -47.1°C | 3.2% | 14.3hPa | 2.7V | 00:00:00 | 01:49:08 | 00:00:00 | |
| IW2NTF | 2026-08-30 12:19:21 | 49.90558 | 8.29405 | 20° | 27km/h | 28963m | 5.8m/s | 0°C | 0% | 0hPa | 2.7V | 00:00:00 | 01:49:01 | 00:00:00 | |
| DO2JMG | 2026-08-30 12:19:20 | 49.90579 | 8.29420 | 26° | 20km/h | 28986m | 5.7m/s | -46.7°C | 0% | 14.4hPa | 2.7V | 03:28:06 | 01:49:05 | 00:00:00 | |
| BIOWL1-15 | 2026-08-30 12:19:17 | 49.90564 | 8.29409 | 23° | 26km/h | 28969m | 6.6m/s | -46.6°C | 0% | 14.4hPa | 2.6V | 03:28:06 | 01:49:02 | 00:00:00 | |
| DJ2DS-15 | 2026-08-30 12:19:17 | 49.90564 | 8.29409 | 24° | 26km/h | 28970m | 6.5m/s | -46.6°C | 3.1% | 14.4hPa | 2.7V | 00:00:00 | 01:49:02 | 00:00:00 | |
| DJ2DS-15 | 2026-08-30 12:19:16 | 49.90552 | 8.29402 | 18° | 27km/h | 28958m | 4.9m/s | -46.5°C | 0.7% | 14.5hPa | 2.7V | 00:00:00 | 00:00:00 | 00:00:00 | |
| DL8OAI-8 | 2026-08-30 12:19:14 | 49.90552 | 8.29402 | 20° | 27km/h | 28958m | 4.9m/s | -46.5°C | 0.7% | 14.5hPa | 2.7V | 03:28:00 | 00:00:00 | 00:00:00 | |
| DL1XH-15 | 2026-08-30 12:19:13 | 49.90529 | 8.29391 | 12° | 20km/h | 28935m | 5m/s | -46.5°C | 3% | 14.5hPa | 2.7V | 03:27:58 | 01:48:56 | 00:00:00 | |
| BIOWL1-15 | 2026-08-30 12:19:11 | 49.90503 | 8.29384 | 8° | 33km/h | 28912m | 5.6m/s | -46.6°C | 0% | 14.6hPa | 2.6V | 03:28:06 | 01:48:52 | 00:00:00 | |
| DO2JMG | 2026-08-30 12:19:10 | 49.90524 | 8.29389 | 11° | 22km/h | 28930m | 5.1m/s | -46.5°C | 0% | 14.5hPa | 2.7V | 03:28:06 | 01:48:55 | 00:00:00 | |
| AA1-15 | 2026-08-30 12:19:06 | 49.90495 | 8.29382 | 8° | 33km/h | 28907m | 5.2m/s | -46.7°C | 0% | 14.6hPa | 2.6V | 03:28:06 | 01:48:51 | 00:00:00 | |
| DO2JMG | 2026-08-30 12:19:00 | 49.90461 | 8.29373 | 19° | 24km/h | 28872m | 6.2m/s | -46.6°C | 0% | 14.7hPa | 2.7V | 03:28:57 | 01:48:45 | 00:00:00 | |
| DL8DAS-14 | 2026-08-30 12:19:00 | 49.90455 | 8.29370 | 17° | 24km/h | 28866m | 5.2m/s | -46.6°C | 0.7% | 14.7hPa | 2.6V | 00:00:00 | 00:00:00 | 00:00:00 | |
| DL1XH-15 | 2026-08-30 12:18:58 | 49.90449 | 8.29367 | 11° | 26km/h | 28861m | 4.9m/s | -46.6°C | 3.1% | 14.7hPa | 2.6V | 03:28:11 | 01:48:43 | 00:00:00 | |
| BIOWL1-15 | 2026-08-30 12:18:58 | 49.90391 | 8.29381 | 355° | 35km/h | 28815m | 5.1m/s | -46.6°C | 0% | 14.8hPa | 2.7V | 03:28:57 | 01:48:35 | 00:00:00 | |
| AA1-15 | 2026-08-30 12:18:55 | 49.90424 | 8.29371 | 342° | 29km/h | 28838m | 5.1m/s | -46.5°C | 0% | 14.8hPa | 2.7V | 03:28:57 | 01:48:39 | 00:00:00 | |
| DC4HF-4 | 2026-08-30 12:18:52 | 49.90400 | 8.29379 | 352° | 37km/h | 28820m | 5.3m/s | -46.6°C | 0.7% | 14.8hPa | 2.6V | 00:00:00 | 00:00:00 | 00:00:00 | |
| DL1XH-15 | 2026-08-30 12:18:51 | 49.90376 | 8.29382 | 358° | 24km/h | 28803m | 6.6m/s | -46.7°C | 3% | 14.8hPa | 2.6V | 03:28:21 | 01:48:33 | 00:00:00 | |
| DO2JMG | 2026-08-30 12:18:49 | 49.90383 | 8.29382 | 357° | 31km/h | 28809m | 6.4m/s | -46.7°C | 0% | 14.8hPa | 2.7V | 03:28:57 | 01:48:34 | 00:00:00 | |
| AA1-15 | 2026-08-30 12:18:45 | 49.90360 | 8.29381 | 10° | 20km/h | 28786m | 6m/s | -46.6°C | 0% | 14.8hPa | 2.7V | 03:28:57 | 01:48:30 | 00:00:00 | |
| DO2JMG | 2026-08-30 12:18:38 | 49.90314 | 8.29398 | 322° | 33km/h | 28745m | 5.6m/s | -46.6°C | 0% | 14.9hPa | 2.7V | 03:28:57 | 01:48:23 | 00:00:00 | |
| BIOWL1-15 | 2026-08-30 12:18:34 | 49.90286 | 8.29423 | 341° | 29km/h | 28722m | 4.7m/s | -46.7°C | 0% | 15hPa | 2.7V | 03:28:57 | 01:48:19 | 00:00:00 | |
| DL1XH-15 | 2026-08-30 12:18:33 | 49.90263 | 8.29439 | 324° | 18km/h | 28694m | 4.8m/s | -47.3°C | 3.1% | 15.1hPa | 2.6V | 03:28:40 | 01:48:14 | 00:00:00 | |
| DO2JMG | 2026-08-30 12:18:28 | 49.90259 | 8.29443 | 330° | 22km/h | 28688m | 6.4m/s | -47.4°C | 0% | 15.1hPa | 2.7V | 03:28:57 | 01:48:13 | 00:00:00 | |
| BIOWL1-15 | 2026-08-30 12:18:23 | 49.90219 | 8.29493 | 304° | 27km/h | 28647m | 5m/s | -47.1°C | 0% | 15.2hPa | 2.7V | 03:28:57 | 01:48:06 | 00:00:00 | |
| AA1-15 | 2026-08-30 12:18:23 | 49.90228 | 8.29475 | 313° | 31km/h | 28659m | 6.6m/s | -47.2°C | 0% | 15.2hPa | 2.7V | 03:28:57 | 01:48:08 | 00:00:00 | |
| DL1XH-15 | 2026-08-30 12:18:23 | 49.90208 | 8.29514 | 323° | 18km/h | 28630m | 5.5m/s | -47.1°C | 3% | 15.2hPa | 2.6V | 03:28:51 | 01:48:03 | 00:00:00 | |
| DO2JMG | 2026-08-30 12:18:17 | 49.90204 | 8.29518 | 328° | 15km/h | 28624m | 5.1m/s | -46.9°C | 0% | 15.3hPa | 2.7V | 03:28:57 | 01:48:02 | 00:00:00 | |
| AA1-15 | 2026-08-30 12:18:13 | 49.90198 | 8.29531 | 288° | 13km/h | 28600m | 5.2m/s | -47.1°C | 0% | 15.3hPa | 2.6V | 03:28:57 | 01:47:58 | 00:00:00 | |
| BIOWL1-15 | 2026-08-30 12:18:11 | 49.90191 | 8.29546 | 322° | 22km/h | 28582m | 6m/s | -47.1°C | 0% | 15.3hPa | 2.7V | 03:29:48 | 01:47:55 | 00:00:00 | |
| DB0DAN | 2026-08-30 12:18:10 | 49.90191 | 8.29546 | 322° | 20km/h | 28582m | 6m/s | -47.1°C | 0.7% | 15.34hPa | 2.7V | 00:00:00 | 00:00:00 | 00:00:00 | |
| DO2JMG | 2026-08-30 12:18:06 | 49.90171 | 8.29573 | 304° | 26km/h | 28559m | 5.7m/s | -47.4°C | 0% | 15.4hPa | 2.7V | 03:29:48 | 01:47:51 | 00:00:00 | |
| AA1-15 | 2026-08-30 12:18:02 | 49.90162 | 8.29596 | 318° | 9km/h | 28536m | 6.7m/s | -47.3°C | 0% | 15.4hPa | 2.6V | 03:29:48 | 01:47:47 | 00:00:00 | |
| BIOWL1-15 | 2026-08-30 12:18:00 | 49.90159 | 8.29600 | 322° | 5km/h | 28524m | 5.5m/s | -47.4°C | 0% | 15.5hPa | 2.7V | 03:29:48 | 01:47:45 | 00:00:00 | |
| DO2JMG | 2026-08-30 12:17:55 | 49.90156 | 8.29618 | 297° | 13km/h | 28495m | 6.3m/s | -47.5°C | 0% | 15.6hPa | 2.7V | 03:29:48 | 01:47:40 | 00:00:00 | |
| DB0DAN | 2026-08-30 12:17:55 | 49.90156 | 8.29618 | 297° | 13km/h | 28495m | 6.3m/s | -47.5°C | 0.7% | 15.55hPa | 2.7V | 00:00:00 | 00:00:00 | 00:00:00 | |
| AA1-15 | 2026-08-30 12:17:51 | 49.90148 | 8.29629 | 308° | 7km/h | 28472m | 5.5m/s | -47.6°C | 0% | 15.6hPa | 2.6V | 03:29:48 | 01:47:36 | 00:00:00 | |
| BIOWL1-15 | 2026-08-30 12:17:50 | 49.90147 | 8.29632 | 278° | 7km/h | 28466m | 7m/s | -47.6°C | 0% | 15.6hPa | 2.7V | 03:29:48 | 01:47:35 | 00:00:00 | |
| DL1XH-15 | 2026-08-30 12:17:49 | 49.90140 | 8.29658 | 333° | 20km/h | 28426m | 5.1m/s | -47.6°C | 3.1% | 15.7hPa | 2.7V | 03:29:26 | 01:47:28 | 00:00:00 | |
| DM3KS-11 | 2026-08-30 12:17:46 | 49.90147 | 8.29651 | 318° | 11km/h | 28437m | 6.0m/s | -47.6°C | 0.7% | 15.7hPa | 2.6V | 00:00:00 | 00:00:00 | 00:00:00 | |
| DM0DOS-11 | 2026-08-30 12:17:45 | 49.90135 | 8.29662 | 329° | 22km/h | 28420m | 6.1m/s | -47.6°C | 3.1% | 15.7hPa | 2.6V | 03:29:27 | 01:47:27 | 00:00:00 | |
| DO2JMG | 2026-08-30 12:17:45 | 49.90147 | 8.29651 | 319° | 13km/h | 28436m | 6m/s | -47.6°C | 0% | 15.7hPa | 2.6V | 03:29:48 | 01:47:30 | 00:00:00 | |
| DL1XH-west | 2026-08-30 12:17:43 | 49.90140 | 8.29658 | 333° | 20km/h | 28426m | 5.1m/s | -47.6°C | 0% | 15.7hPa | 2.7V | 03:30:39 | 01:47:28 | 00:00:00 | |
| AA1-15 | 2026-08-30 12:17:42 | 49.90131 | 8.29666 | 324° | 22km/h | 28414m | 6.2m/s | -47.7°C | 0% | 15.7hPa | 2.6V | 03:29:48 | 01:47:26 | 00:00:00 | |
| BIOWL1-15 | 2026-08-30 12:17:41 | 49.90106 | 8.29669 | 1° | 7km/h | 28364m | 6.1m/s | -47.5°C | 0% | 15.9hPa | 2.7V | 03:29:48 | 01:47:17 | 00:00:00 | |
| DB0DAN | 2026-08-30 12:17:40 | 49.90126 | 8.29671 | 320° | 20km/h | 28408m | 5.3m/s | -47.7°C | 0.7% | 15.76hPa | 2.6V | 00:00:00 | 00:00:00 | 00:00:00 | |
| DF7PN | 2026-08-30 12:17:40 | 49.90123 | 8.29676 | 319° | 16km/h | 28403m | 4.6m/s | -47.6°C | 0.8% | 15.8hPa | 2.7V | 00:00:00 | 00:00:00 | 00:00:00 | |
| DJ2KF-10 | 2026-08-30 12:17:39 | 49.90123 | 8.29676 | 320° | 15km/h | 28403m | 4.6m/s | -47.6°C | 3.2% | 15.7hPa | 2.7V | 03:29:00 | 01:47:24 | 00:00:00 | |
| DL1XH-15 | 2026-08-30 12:17:38 | 49.90108 | 8.29670 | 42° | 9km/h | 28369m | 4.9m/s | -47.5°C | 3.1% | 15.8hPa | 2.7V | 03:29:36 | 01:47:18 | 00:00:00 | |
| DO2JMG | 2026-08-30 12:17:35 | 49.90112 | 8.29677 | 49° | 13km/h | 28380m | 5.8m/s | -47.4°C | 0% | 15.8hPa | 2.6V | 03:29:48 | 01:47:20 | 00:00:00 | |
| AA1-15 | 2026-08-30 12:17:31 | 49.90102 | 8.29674 | 304° | 18km/h | 28351m | 5.6m/s | -47.3°C | 0% | 15.9hPa | 2.6V | 03:29:48 | 01:47:15 | 00:00:00 | |
| DL0LBS | 2026-08-30 12:17:31 | 49.90105 | 8.29670 | 316° | 11km/h | 28358m | 6.6m/s | -47.4°C | 0.8% | 15.9hPa | 2.6V | 03:29:00 | 00:00:00 | 00:00:00 | |
| DD1CC8 | 2026-08-30 12:17:29 | 49.90099 | 8.29681 | 308° | 22km/h | 28346m | 4.9m/s | -47.3°C | 0.7% | 15.9hPa | 2.6V | 00:00:00 | 00:00:00 | 00:00:00 | |
| DL1XH-15 | 2026-08-30 12:17:28 | 49.90071 | 8.29689 | 39° | 18km/h | 28312m | 5.9m/s | -47.5°C | 3.1% | 16hPa | 2.6V | 03:29:46 | 01:47:08 | 00:00:00 | |
| BIOWL1-15 | 2026-08-30 12:17:27 | 49.90071 | 8.29689 | 40° | 18km/h | 28312m | 5.9m/s | -47.5°C | 0% | 16hPa | 2.6V | 03:29:48 | 01:47:08 | 00:00:00 | |
| DB0DAN | 2026-08-30 12:17:25 | 49.90080 | 8.29695 | 10° | 20km/h | 28324m | 5.5m/s | -47.2°C | 0.7% | 15.96hPa | 2.6V | 00:00:00 | 00:00:00 | 00:00:00 | |
| DO2JMG | 2026-08-30 12:17:24 | 49.90075 | 8.29693 | 27° | 20km/h | 28318m | 5.6m/s | -47.4°C | 0% | 16hPa | 2.6V | 03:29:48 | 01:47:09 | 00:00:00 | |
| AA1-15 | 2026-08-30 12:17:20 | 49.90062 | 8.29675 | 31° | 11km/h | 28289m | 5.8m/s | -47.6°C | 0% | 16.1hPa | 2.6V | 03:30:39 | 01:47:04 | 00:00:00 | |
| DO2JMG | 2026-08-30 12:17:13 | 49.90046 | 8.29678 | 305° | 11km/h | 28255m | 6.1m/s | -47.7°C | 0% | 16.1hPa | 2.6V | 03:30:39 | 01:46:58 | 00:00:00 | |
| BIOWL1-15 | 2026-08-30 12:17:13 | 49.90029 | 8.29679 | 26° | 9km/h | 28214m | 6.4m/s | -47.8°C | 0% | 16.2hPa | 2.7V | 03:30:39 | 01:46:51 | 00:00:00 | |
| DL1XH-15 | 2026-08-30 12:17:11 | 49.90030 | 8.29679 | 25° | 9km/h | 28214m | 6.4m/s | -47.8°C | 3.1% | 16.2hPa | 2.7V | 03:30:03 | 01:46:51 | 00:00:00 | |
| AA1-15 | 2026-08-30 12:17:09 | 49.90038 | 8.29685 | 12° | 13km/h | 28231m | 5.6m/s | -47.6°C | 0% | 16.2hPa | 2.6V | 03:30:39 | 01:46:54 | 00:00:00 | |
| DO2JMG | 2026-08-30 12:17:03 | 49.90025 | 8.29678 | 3° | 5km/h | 28197m | 5.2m/s | -47.8°C | 0% | 16.3hPa | 2.6V | 03:30:39 | 01:46:48 | 00:00:00 | |
| DK7TD | 2026-08-30 12:16:59 | 49.90015 | 8.29678 | 343° | 11km/h | 28174m | 5.4m/s | 0°C | 0% | 0hPa | 2.7V | 18:12:15 | 01:46:44 | 00:00:00 | |
| DL1XH-west | 2026-08-30 12:16:58 | 49.90013 | 8.29680 | 325° | 9km/h | 28168m | 6.7m/s | -48°C | 0.1% | 16.4hPa | 2.6V | 03:30:39 | 01:46:43 | 00:00:00 | |
| HTAHTA | 2026-08-30 12:16:56 | 49.90008 | 8.29684 | 20° | 7km/h | 28145m | 6.5m/s | 0°C | -1.0% | -1.0hPa | 2.7V | 00:00:00 | 00:00:00 | 00:00:00 | |
| DB0DAN | 2026-08-30 12:16:55 | 49.90010 | 8.29685 | 348° | 5km/h | 28151m | 5.5m/s | -47.9°C | 0.8% | 16.41hPa | 2.7V | 00:00:00 | 00:00:00 | 00:00:00 | |
| DO2JMG | 2026-08-30 12:16:53 | 49.90006 | 8.29682 | 30° | 13km/h | 28139m | 5.6m/s | -47.9°C | 0.1% | 16.4hPa | 2.7V | 03:30:39 | 01:46:38 | 00:00:00 | |
| AA1-15 | 2026-08-30 12:16:49 | 49.89993 | 8.29674 | 340° | 7km/h | 28110m | 5.9m/s | -47.8°C | 0% | 16.5hPa | 2.7V | 03:30:39 | 01:46:33 | 00:00:00 | |
| BIOWL1-15 | 2026-08-30 12:16:47 | 49.89990 | 8.29676 | 340° | 7km/h | 28099m | 6.2m/s | -47.9°C | 0.1% | 16.5hPa | 2.6V | 03:30:39 | 01:46:31 | 00:00:00 | |
| DK7TD | 2026-08-30 12:16:45 | 49.89987 | 8.29677 | 352° | 9km/h | 28093m | 6.3m/s | 0°C | 0% | 0hPa | 2.6V | 18:12:15 | 01:46:30 | 00:00:00 | |
| GOEST3-10 | 2026-08-30 12:16:44 | 49.89985 | 8.29677 | 359° | 5km/h | 28088m | 5.0m/s | -47.9°C | 3.2% | 16.5hPa | 2.6V | 00:00:00 | 00:00:00 | 00:00:00 | |
| DL1XH-15 | 2026-08-30 12:16:43 | 49.89980 | 8.29678 | 333° | 4km/h | 28071m | 6.3m/s | -47.9°C | 3.2% | 16.6hPa | 2.6V | 03:30:28 | 01:46:26 | 00:00:00 | |
| DO2JMG | 2026-08-30 12:16:42 | 49.89981 | 8.29677 | 353° | 5km/h | 28077m | 6m/s | -47.9°C | 0.1% | 16.6hPa | 2.7V | 03:30:39 | 01:46:27 | 00:00:00 | |
| DL1XH-west | 2026-08-30 12:16:41 | 49.89979 | 8.29678 | 333° | 4km/h | 28071m | 6.3m/s | -47.9°C | 0.1% | 16.6hPa | 2.6V | 03:30:39 | 01:46:26 | 00:00:00 | |
| AA1-15 | 2026-08-30 12:16:38 | 49.89974 | 8.29678 | 15° | 13km/h | 28049m | 6.4m/s | -47.9°C | 0% | 16.6hPa | 2.7V | 03:30:39 | 01:46:22 | 00:00:00 | |
| DK7TD | 2026-08-30 12:16:35 | 49.89967 | 8.29676 | 1° | 18km/h | 28037m | 5m/s | 0°C | 0% | 0hPa | 2.6V | 18:12:15 | 01:46:20 | 00:00:00 | |
| DO2JMG | 2026-08-30 12:16:32 | 49.89954 | 8.29683 | 318° | 18km/h | 28020m | 5.4m/s | -47.9°C | 0% | 16.7hPa | 2.7V | 03:30:39 | 01:46:17 | 00:00:00 | |
| DL8OAI-8 | 2026-08-30 12:16:31 | 49.89954 | 8.29683 | 319° | 18km/h | 28020m | 5.4m/s | -47.9°C | 0.8% | 16.7hPa | 2.6V | 03:30:00 | 00:00:00 | 00:00:00 | |
| DL1XH-15 | 2026-08-30 12:16:30 | 49.89935 | 8.29704 | 312° | 5km/h | 27979m | 6.1m/s | -47.8°C | 3.2% | 16.8hPa | 2.6V | 03:30:44 | 01:46:10 | 00:00:00 | |
| DL1XH-west | 2026-08-30 12:16:30 | 49.89947 | 8.29693 | 318° | 18km/h | 28009m | 5.9m/s | -48°C | 0.1% | 16.8hPa | 2.6V | 03:30:39 | 01:46:15 | 00:00:00 | |
| AA1-15 | 2026-08-30 12:16:27 | 49.89938 | 8.29701 | 339° | 9km/h | 27992m | 5.2m/s | -47.9°C | 0% | 16.8hPa | 2.7V | 03:31:30 | 01:46:12 | 00:00:00 | |
| BIOWL1-15 | 2026-08-30 12:16:24 | 49.89934 | 8.29706 | 316° | 7km/h | 27974m | 5.1m/s | -47.7°C | 0% | 16.9hPa | 2.6V | 03:31:30 | 01:46:09 | 00:00:00 | |
| DO2JMG | 2026-08-30 12:16:22 | 49.89929 | 8.29710 | 347° | 15km/h | 27964m | 6.5m/s | -47.6°C | 0% | 16.9hPa | 2.7V | 03:31:30 | 01:46:07 | 00:00:00 | |
| DL1XH-west | 2026-08-30 12:16:20 | 49.89920 | 8.29712 | 350° | 22km/h | 27951m | 5.1m/s | -47.5°C | 0% | 16.9hPa | 2.7V | 03:31:30 | 01:46:05 | 00:00:00 | |
| AA1-15 | 2026-08-30 12:16:16 | 49.89900 | 8.29727 | 313° | 20km/h | 27929m | 5.2m/s | -47.6°C | 0% | 17hPa | 2.7V | 03:31:30 | 01:46:01 | 00:00:00 | |
| BIOWL1-15 | 2026-08-30 12:16:13 | 49.89892 | 8.29741 | 325° | 13km/h | 27912m | 6.3m/s | -47.8°C | 0% | 17hPa | 2.6V | 03:31:30 | 01:45:58 | 00:00:00 | |
| DO2JMG | 2026-08-30 12:16:11 | 49.89887 | 8.29745 | 331° | 9km/h | 27901m | 5.1m/s | -48°C | 0.1% | 17hPa | 2.7V | 03:31:30 | 01:45:56 | 00:00:00 | |
| DL1XH-west | 2026-08-30 12:16:09 | 49.89884 | 8.29749 | 292° | 9km/h | 27889m | 5.9m/s | -48.1°C | 0.1% | 17.1hPa | 2.7V | 03:31:30 | 01:45:54 | 00:00:00 | |
| AA1-15 | 2026-08-30 12:16:06 | 49.89876 | 8.29765 | 335° | 20km/h | 27867m | 6.4m/s | -48.4°C | 0.1% | 17.1hPa | 2.6V | 03:31:30 | 01:45:50 | 00:00:00 | |
| BIOWL1-15 | 2026-08-30 12:16:03 | 49.89848 | 8.29787 | 321° | 13km/h | 27833m | 5.3m/s | -48.3°C | 0.1% | 17.2hPa | 2.6V | 03:31:30 | 01:45:44 | 00:00:00 | |
| DO2JMG | 2026-08-30 12:16:00 | 49.89851 | 8.29783 | 321° | 16km/h | 27839m | 5.6m/s | -48.2°C | 0.1% | 17.2hPa | 2.6V | 03:31:30 | 01:45:45 | 00:00:00 | |
| DL1XH-west | 2026-08-30 12:15:56 | 49.89841 | 8.29791 | 8° | 7km/h | 27815m | 5.1m/s | -48.2°C | 0.1% | 17.3hPa | 2.6V | 03:31:30 | 01:45:41 | 00:00:00 | |
| AA1-15 | 2026-08-30 12:15:54 | 49.89838 | 8.29790 | 315° | 2km/h | 27798m | 5.4m/s | -48.4°C | 0.1% | 17.3hPa | 2.7V | 03:31:30 | 01:45:38 | 00:00:00 | |
| BIOWL1-15 | 2026-08-30 12:15:51 | 49.89823 | 8.29799 | 343° | 22km/h | 27771m | 4.7m/s | -48.6°C | 0.1% | 17.4hPa | 2.7V | 03:31:30 | 01:45:33 | 00:00:00 | |
| DO2JMG | 2026-08-30 12:15:50 | 49.89833 | 8.29795 | 342° | 15km/h | 27783m | 6.6m/s | -48.5°C | 0.1% | 17.4hPa | 2.6V | 03:31:30 | 01:45:35 | 00:00:00 | |
| AA1-15 | 2026-08-30 12:15:44 | 49.89809 | 8.29814 | 293° | 11km/h | 27750m | 4.5m/s | -48.5°C | 0.1% | 17.5hPa | 2.6V | 03:31:30 | 01:45:29 | 00:00:00 | |
| DL1XH-west | 2026-08-30 12:15:43 | 49.89808 | 8.29817 | 285° | 9km/h | 27745m | 4.8m/s | -48.6°C | 0.1% | 17.5hPa | 2.6V | 03:31:30 | 01:45:28 | 00:00:00 | |
| BIOWL1-15 | 2026-08-30 12:15:41 | 49.89807 | 8.29822 | 329° | 7km/h | 27734m | 6m/s | -48.7°C | 0.1% | 17.5hPa | 2.7V | 03:31:30 | 01:45:26 | 00:00:00 | |
| DL1XH-15 | 2026-08-30 12:15:40 | 49.89793 | 8.29836 | 279° | 13km/h | 27700m | 5.8m/s | -48.8°C | 3.4% | 17.6hPa | 2.7V | 03:31:34 | 01:45:20 | 00:00:00 | |
| DO2JMG | 2026-08-30 12:15:40 | 49.89805 | 8.29823 | 346° | 9km/h | 27729m | 5.7m/s | -48.8°C | 0.1% | 17.5hPa | 2.7V | 03:31:30 | 01:45:25 | 00:00:00 | |
| AA1-15 | 2026-08-30 12:15:34 | 49.89792 | 8.29845 | 268° | 9km/h | 27690m | 4.6m/s | -48.8°C | 0.2% | 17.6hPa | 2.6V | 03:32:21 | 01:45:18 | 00:00:00 | |
| BIOWL1-15 | 2026-08-30 12:15:32 | 49.89789 | 8.29847 | 34° | 11km/h | 27673m | 5.7m/s | -48.6°C | 0.2% | 17.7hPa | 2.7V | 03:32:21 | 01:45:15 | 00:00:00 | |
| DL1XH-west | 2026-08-30 12:15:31 | 49.89791 | 8.29848 | 2° | 5km/h | 27679m | 6.5m/s | -48.7°C | 0.2% | 17.6hPa | 2.7V | 03:34:03 | 01:45:16 | 00:00:00 | |
| DO2JMG | 2026-08-30 12:15:29 | 49.89787 | 8.29844 | 46° | 15km/h | 27668m | 5m/s | -48.6°C | 0.2% | 17.7hPa | 2.7V | 03:32:21 | 01:45:14 | 00:00:00 | |
| AU51GT2 | 2026-08-30 12:15:28 | 49.89785 | 8.29840 | 53° | 15km/h | 27663m | 5.9m/s | -48.6°C | 0.8% | 17.7hPa | 2.7V | 00:00:00 | 00:00:00 | 00:00:00 | |
| DB0DAN | 2026-08-30 12:15:25 | 49.89780 | 8.29827 | 61° | 9km/h | 27646m | 4.8m/s | -48.7°C | 0.8% | 17.75hPa | 2.7V | 00:00:00 | 00:00:00 | 00:00:00 | |
| AA1-15 | 2026-08-30 12:15:23 | 49.89775 | 8.29821 | 14° | 9km/h | 27629m | 5m/s | -48.5°C | 0.1% | 17.8hPa | 2.6V | 03:32:21 | 01:45:07 | 00:00:00 | |
| BIOWL1-15 | 2026-08-30 12:15:20 | 49.89772 | 8.29830 | 256° | 5km/h | 27602m | 4.2m/s | -48.4°C | 0.1% | 17.9hPa | 2.6V | 03:32:21 | 01:45:02 | 00:00:00 | |
| DO2JMG | 2026-08-30 12:15:19 | 49.89771 | 8.29824 | 271° | 7km/h | 27612m | 6.4m/s | -48.6°C | 0.1% | 17.8hPa | 2.7V | 03:32:21 | 01:45:04 | 00:00:00 | |
| DL1XH-west | 2026-08-30 12:15:16 | 49.89772 | 8.29832 | 312° | 2km/h | 27598m | 5.1m/s | -48.4°C | 0.1% | 17.9hPa | 2.6V | 03:34:03 | 01:45:01 | 00:00:00 | |
| AA1-15 | 2026-08-30 12:15:11 | 49.89759 | 8.29815 | 45° | 16km/h | 27569m | 5.7m/s | -48.3°C | 0.1% | 18hPa | 2.6V | 03:32:21 | 01:44:56 | 00:00:00 | |
| DB0DAN | 2026-08-30 12:15:10 | 49.89756 | 8.29811 | 47° | 11km/h | 27563m | 5.7m/s | -48.4°C | 0.8% | 17.97hPa | 2.6V | 00:00:00 | 00:00:00 | 00:00:00 | |
| DO2JMG | 2026-08-30 12:15:08 | 49.89753 | 8.29806 | 38° | 4km/h | 27553m | 4.6m/s | -48.4°C | 0.2% | 18hPa | 2.7V | 03:32:21 | 01:44:53 | 00:00:00 | |
| AA1-15 | 2026-08-30 12:15:01 | 49.89742 | 8.29807 | 33° | 4km/h | 27509m | 5m/s | -48.4°C | 0.1% | 18.1hPa | 2.7V | 03:32:21 | 01:44:45 | 00:00:00 | |
| DO2JMG | 2026-08-30 12:14:58 | 49.89739 | 8.29801 | 55° | 15km/h | 27498m | 6.3m/s | -48.1°C | 0% | 18.1hPa | 2.6V | 03:32:21 | 01:44:43 | 00:00:00 | |
| BIOWL1-15 | 2026-08-30 12:14:58 | 49.89737 | 8.29796 | 55° | 20km/h | 27492m | 5m/s | -48°C | 0.1% | 18.2hPa | 2.6V | 03:32:21 | 01:44:42 | 00:00:00 | |
| AU51GT2 | 2026-08-30 12:14:57 | 49.89737 | 8.29796 | 55° | 20km/h | 27492m | 5.0m/s | -48.0°C | 0.8% | 18.2hPa | 2.7V | 00:00:00 | 00:00:00 | 00:00:00 | |
| DB0DAN | 2026-08-30 12:14:55 | 49.89730 | 8.29783 | 51° | 18km/h | 27483m | 5m/s | -48.1°C | 0.8% | 18.2hPa | 2.7V | 00:00:00 | 00:00:00 | 00:00:00 | |
| AA1-15 | 2026-08-30 12:14:49 | 49.89718 | 8.29772 | 14° | 11km/h | 27450m | 6.1m/s | -48.1°C | 0.1% | 18.3hPa | 2.7V | 03:32:21 | 01:44:34 | 00:00:00 | |
| DO2JMG | 2026-08-30 12:14:48 | 49.89715 | 8.29770 | 19° | 13km/h | 27444m | 5.1m/s | -48.1°C | 0.1% | 18.3hPa | 2.6V | 03:32:21 | 01:44:33 | 00:00:00 | |
| DL3AQ-11 | 2026-08-30 12:14:47 | 49.89712 | 8.29768 | 20° | 13km/h | 27439m | 5.0m/s | -48.2°C | 0.8% | 18.3hPa | 2.7V | 00:00:00 | 00:00:00 | 00:00:00 | |
| BIOWL1-15 | 2026-08-30 12:14:46 | 49.89695 | 8.29750 | 49° | 18km/h | 27401m | 5.3m/s | -48.3°C | 0.1% | 18.4hPa | 2.7V | 03:33:12 | 01:44:25 | 00:00:00 | |
| AA1-15 | 2026-08-30 12:14:39 | 49.89689 | 8.29741 | 39° | 15km/h | 27392m | 4.8m/s | -48.5°C | 0.1% | 18.4hPa | 2.7V | 03:34:03 | 01:44:23 | 00:00:00 | |
| DO2JMG | 2026-08-30 12:14:37 | 49.89687 | 8.29739 | 24° | 9km/h | 27386m | 6.4m/s | -48.5°C | 0.1% | 18.5hPa | 2.6V | 03:33:12 | 01:44:22 | 00:00:00 | |
| BIOWL1-15 | 2026-08-30 12:14:34 | 49.89678 | 8.29741 | 356° | 13km/h | 27364m | 5.7m/s | -48.4°C | 0.1% | 18.5hPa | 2.7V | 03:33:12 | 01:44:18 | 00:00:00 | |
| AA1-15 | 2026-08-30 12:14:28 | 49.89663 | 8.29731 | 50° | 11km/h | 27338m | 5.4m/s | -48.5°C | 0% | 18.6hPa | 2.6V | 03:34:03 | 01:44:13 | 00:00:00 | |
| DO2JMG | 2026-08-30 12:14:26 | 49.89660 | 8.29724 | 53° | 13km/h | 27327m | 5m/s | -48.7°C | 0.1% | 18.7hPa | 2.7V | 03:33:12 | 01:44:11 | 00:00:00 | |
| GOEST3-10 | 2026-08-30 12:14:26 | 49.89660 | 8.29724 | 54° | 16km/h | 27328m | 5.0m/s | -48.6°C | 3.2% | 18.6hPa | 2.7V | 00:00:00 | 01:44:11 | 00:00:00 | |
| DL1XH-15 | 2026-08-30 12:14:25 | 49.89639 | 8.29710 | 331° | 15km/h | 27296m | 6.4m/s | -49.1°C | 3.3% | 18.7hPa | 2.7V | 03:32:49 | 01:44:05 | 00:00:00 | |
| DB0DAN | 2026-08-30 12:14:25 | 49.89657 | 8.29720 | 48° | 15km/h | 27322m | 5.9m/s | -48.7°C | 0.8% | 18.64hPa | 2.6V | 00:00:00 | 00:00:00 | 00:00:00 | |
| BIOWL1-15 | 2026-08-30 12:14:25 | 49.89651 | 8.29711 | 30° | 18km/h | 27312m | 4.1m/s | -48.7°C | 0% | 18.7hPa | 2.6V | 03:33:12 | 01:44:08 | 00:00:00 | |
| DO2JMG | 2026-08-30 12:14:16 | 49.89624 | 8.29726 | 340° | 20km/h | 27275m | 6.1m/s | -49.1°C | 0.2% | 18.8hPa | 2.7V | 03:33:12 | 01:44:01 | 00:00:00 | |
| BIOWL1-15 | 2026-08-30 12:14:12 | 49.89603 | 8.29724 | 17° | 20km/h | 27254m | 6m/s | -49.2°C | 0.1% | 18.8hPa | 2.6V | 03:33:12 | 01:43:57 | 00:00:00 | |
| DB0DAN | 2026-08-30 12:14:10 | 49.89594 | 8.29720 | 16° | 15km/h | 27243m | 4.7m/s | -49.1°C | 0.8% | 18.88hPa | 2.7V | 00:00:00 | 00:00:00 | 00:00:00 | |
| DL1XH-west | 2026-08-30 12:14:08 | 49.89587 | 8.29718 | 11° | 16km/h | 27233m | 5.7m/s | -49.2°C | 0.2% | 18.9hPa | 2.6V | 03:34:03 | 01:43:53 | 00:00:00 | |
| DO2JMG | 2026-08-30 12:14:06 | 49.89578 | 8.29715 | 7° | 16km/h | 27223m | 4.8m/s | -49.2°C | 0.1% | 18.9hPa | 2.6V | 03:33:12 | 01:43:51 | 00:00:00 | |
| GOEST3-10 | 2026-08-30 12:14:06 | 49.89578 | 8.29715 | 8° | 13km/h | 27223m | 4.8m/s | -49.2°C | 3.3% | 18.9hPa | 2.6V | 00:00:00 | 01:43:51 | 00:00:00 | |
| DL1XH-15 | 2026-08-30 12:14:05 | 49.89566 | 8.29718 | 317° | 9km/h | 27201m | 4.4m/s | -49.3°C | 3.4% | 19hPa | 2.7V | 03:33:07 | 01:43:47 | 00:00:00 | |
| BIOWL1-15 | 2026-08-30 12:14:02 | 49.89566 | 8.29718 | 318° | 9km/h | 27201m | 4.4m/s | -49.3°C | 0.2% | 19hPa | 2.7V | 03:33:12 | 01:43:47 | 00:00:00 | |
| DO2JMG | 2026-08-30 12:13:56 | 49.89541 | 8.29730 | 351° | 22km/h | 27170m | 4.9m/s | -49.2°C | 0.2% | 19.1hPa | 2.6V | 03:34:03 | 01:43:41 | 00:00:00 | |
| DL3AQ-11 | 2026-08-30 12:13:55 | 49.89531 | 8.29734 | 334° | 16km/h | 27160m | 5.4m/s | -49.1°C | 0.8% | 19.1hPa | 2.7V | 00:00:00 | 00:00:00 | 00:00:00 | |
| DB0UT-9 | 2026-08-30 12:13:54 | 49.89536 | 8.29732 | 347° | 20km/h | 27165m | 6.0m/s | -49.2°C | 0.9% | 19.1hPa | 2.7V | 00:00:00 | 00:00:00 | 00:00:00 | |
| DL1XH-15 | 2026-08-30 12:13:53 | 49.89524 | 8.29741 | 324° | 18km/h | 27149m | 5.1m/s | -49.2°C | 3.4% | 19.2hPa | 2.7V | 03:33:17 | 01:43:37 | 00:00:00 | |
| BIOWL1-15 | 2026-08-30 12:13:52 | 49.89524 | 8.29741 | 324° | 18km/h | 27149m | 5.1m/s | -49.2°C | 0.2% | 19.2hPa | 2.7V | 03:34:03 | 01:43:37 | 00:00:00 | |
| DL1XH-west | 2026-08-30 12:13:46 | 49.89497 | 8.29767 | 319° | 18km/h | 27117m | 6.2m/s | -49.2°C | 0.2% | 19.2hPa | 2.7V | 03:34:03 | 01:43:31 | 00:00:00 | |
| DO2JMG | 2026-08-30 12:13:45 | 49.89494 | 8.29772 | 317° | 16km/h | 27111m | 4.9m/s | -49.2°C | 0.2% | 19.3hPa | 2.6V | 03:34:03 | 01:43:30 | 00:00:00 | |
| BIOWL1-15 | 2026-08-30 12:13:41 | 49.89471 | 8.29789 | 337° | 26km/h | 27086m | 4.1m/s | -49.3°C | 0.2% | 19.4hPa | 2.7V | 03:34:03 | 01:43:25 | 00:00:00 | |
| AA1-15 | 2026-08-30 12:13:35 | 49.89448 | 8.29826 | 303° | 31km/h | 27059m | 6m/s | -49.3°C | 0.2% | 19.4hPa | 2.7V | 03:34:03 | 01:43:20 | 00:00:00 | |
| DO2JMG | 2026-08-30 12:13:34 | 49.89444 | 8.29836 | 306° | 31km/h | 27053m | 5.5m/s | -49.3°C | 0.2% | 19.4hPa | 2.7V | 03:34:03 | 01:43:19 | 00:00:00 | |
| BIOWL1-15 | 2026-08-30 12:13:31 | 49.89430 | 8.29868 | 294° | 18km/h | 27032m | 5.9m/s | -49.4°C | 0.2% | 19.5hPa | 2.6V | 03:34:03 | 01:43:15 | 00:00:00 | |
| DO2JMG | 2026-08-30 12:13:24 | 49.89411 | 8.29901 | 326° | 26km/h | 27001m | 5m/s | -49.4°C | 0.1% | 19.6hPa | 2.7V | 03:34:03 | 01:43:09 | 00:00:00 | |
| BIOWL1-15 | 2026-08-30 12:13:19 | 49.89391 | 8.29949 | 293° | 26km/h | 26969m | 6.3m/s | -49.7°C | 0.2% | 19.7hPa | 2.6V | 03:34:03 | 01:43:03 | 00:00:00 | |
| DL1XH-west | 2026-08-30 12:13:17 | 49.89388 | 8.29958 | 300° | 26km/h | 26963m | 5.7m/s | -49.7°C | 0.2% | 19.7hPa | 2.7V | 03:34:03 | 01:43:02 | 00:00:00 | |
| DO2JMG | 2026-08-30 12:13:14 | 49.89379 | 8.29980 | 302° | 18km/h | 26947m | 6.3m/s | -49.7°C | 0.2% | 19.8hPa | 2.6V | 03:34:03 | 01:42:59 | 00:00:00 | |
| AA1-15 | 2026-08-30 12:13:13 | 49.89374 | 8.29991 | 309° | 16km/h | 26937m | 4.1m/s | -49.8°C | 0.2% | 19.8hPa | 2.6V | 03:34:03 | 01:42:57 | 00:00:00 | |
| BIOWL1-15 | 2026-08-30 12:13:10 | 49.89357 | 8.30015 | 318° | 27km/h | 26915m | 4.8m/s | -50°C | 0.2% | 19.9hPa | 2.6V | 03:34:03 | 01:42:53 | 00:00:00 | |
| DL1XH-west | 2026-08-30 12:13:07 | 49.89352 | 8.30022 | 313° | 27km/h | 26910m | 5.9m/s | -50.1°C | 0.2% | 19.9hPa | 2.6V | 03:34:03 | 01:42:52 | 00:00:00 | |
| DO2JMG | 2026-08-30 12:13:03 | 49.89338 | 8.30051 | 309° | 20km/h | 26889m | 6m/s | -50°C | 0.2% | 19.9hPa | 2.6V | 03:34:54 | 01:42:48 | 00:00:00 | |
| AA1-15 | 2026-08-30 12:13:02 | 49.89331 | 8.30061 | 324° | 20km/h | 26878m | 5m/s | -50.1°C | 0.2% | 20hPa | 2.6V | 03:34:54 | 01:42:46 | 00:00:00 | |
| BIOWL1-15 | 2026-08-30 12:13:01 | 49.89319 | 8.30082 | 289° | 18km/h | 26857m | 5.7m/s | -49.9°C | 0.2% | 20.1hPa | 2.7V | 03:34:54 | 01:42:42 | 00:00:00 | |
| DL1XH-west | 2026-08-30 12:12:56 | 49.89317 | 8.30089 | 285° | 20km/h | 26852m | 4.6m/s | -50°C | 0.2% | 20.1hPa | 2.6V | 03:34:54 | 01:42:41 | 00:00:00 | |
| DO2JMG | 2026-08-30 12:12:53 | 49.89311 | 8.30112 | 308° | 22km/h | 26837m | 5.7m/s | -50.1°C | 0.3% | 20.1hPa | 2.7V | 03:34:54 | 01:42:38 | 00:00:00 | |
| AA1-15 | 2026-08-30 12:12:51 | 49.89304 | 8.30124 | 315° | 18km/h | 26827m | 4.4m/s | -50.1°C | 0.3% | 20.2hPa | 2.6V | 03:34:54 | 01:42:36 | 00:00:00 | |
| BIOWL1-15 | 2026-08-30 12:12:49 | 49.89299 | 8.30144 | 267° | 15km/h | 26805m | 4.7m/s | -50.3°C | 0.3% | 20.2hPa | 2.7V | 03:34:54 | 01:42:32 | 00:00:00 | |
| DL1XH-west | 2026-08-30 12:12:46 | 49.89299 | 8.30150 | 272° | 16km/h | 26800m | 6m/s | -50.4°C | 0.3% | 20.2hPa | 2.7V | 03:34:54 | 01:42:31 | 00:00:00 | |
| DO2JMG | 2026-08-30 12:12:42 | 49.89296 | 8.30185 | 273° | 31km/h | 26777m | 6.4m/s | -50.2°C | 0.2% | 20.3hPa | 2.6V | 03:34:54 | 01:42:27 | 00:00:00 | |
| AA1-15 | 2026-08-30 12:12:40 | 49.89296 | 8.30210 | 271° | 33km/h | 26766m | 4.8m/s | -50.1°C | 0.2% | 20.3hPa | 2.7V | 03:34:54 | 01:42:25 | 00:00:00 | |
| BIOWL1-15 | 2026-08-30 12:12:40 | 49.89291 | 8.30251 | 282° | 20km/h | 26745m | 4.5m/s | -50°C | 0.2% | 20.4hPa | 2.6V | 03:34:54 | 01:42:21 | 00:00:00 | |
| DL1XH-west | 2026-08-30 12:12:35 | 49.89291 | 8.30259 | 271° | 20km/h | 26740m | 5.1m/s | -50.1°C | 0.3% | 20.4hPa | 2.7V | 03:34:54 | 01:42:20 | 00:00:00 | |
| DO2JMG | 2026-08-30 12:12:32 | 49.89296 | 8.30284 | 243° | 27km/h | 26724m | 4.3m/s | -50°C | 0.3% | 20.5hPa | 2.6V | 03:34:54 | 01:42:17 | 00:00:00 | |
| DL8DAS-15 | 2026-08-30 12:12:31 | 49.89296 | 8.30284 | 244° | 27km/h | 26724m | 4.3m/s | -50.0°C | 0.9% | 20.5hPa | 2.6V | 00:00:00 | 00:00:00 | 00:00:00 | |
| DO1YAY-16 | 2026-08-30 12:12:30 | 49.89303 | 8.30314 | 266° | 26km/h | 26709m | 5.8m/s | -50.0°C | 0.9% | 20.5hPa | 2.6V | 00:00:00 | 00:00:00 | 00:00:00 | |
| DL1XH1-15 | 2026-08-30 12:12:29 | 49.89299 | 8.30353 | 276° | 24km/h | 26687m | 6m/s | -50°C | 3.5% | 20.6hPa | 2.6V | 03:34:44 | 01:42:10 | 00:00:00 | |
| AA1-15 | 2026-08-30 12:12:29 | 49.89303 | 8.30314 | 266° | 26km/h | 26709m | 5.8m/s | -50°C | 0.3% | 20.5hPa | 2.7V | 03:34:54 | 01:42:14 | 00:00:00 | |
| DF7PN | 2026-08-30 12:12:29 | 49.89302 | 8.30324 | 278° | 26km/h | 26703m | 5.3m/s | -50.0°C | 0.9% | 20.5hPa | 2.6V | 00:00:00 | 00:00:00 | 00:00:00 | |
| DB0UT-7 | 2026-08-30 12:12:27 | 49.89301 | 8.30334 | 284° | 15km/h | 26698m | 5.0m/s | -49.9°C | 3.5% | 20.5hPa | 2.6V | 00:00:00 | 01:42:12 | 00:00:00 | |
| DL1XH-15 | 2026-08-30 12:12:26 | 49.89298 | 8.30361 | 268° | 22km/h | 26682m | 5.3m/s | -50°C | 3.4% | 20.6hPa | 2.6V | 03:34:45 | 01:42:09 | 00:00:00 | |
| BIOWL1-15 | 2026-08-30 12:12:25 | 49.89299 | 8.30353 | 277° | 24km/h | 26687m | 6m/s | -50°C | 0.2% | 20.6hPa | 2.6V | 03:34:54 | 01:42:10 | 00:00:00 | |
| DL1XH-west | 2026-08-30 12:12:23 | 49.89299 | 8.30369 | 262° | 20km/h | 26677m | 4.7m/s | -50.1°C | 0.2% | 20.6hPa | 2.7V | 03:34:54 | 01:42:08 | 00:00:00 | |
| DO2JMG | 2026-08-30 12:12:22 | 49.89299 | 8.30376 | 262° | 16km/h | 26672m | 5m/s | -50°C | 0.3% | 20.6hPa | 2.7V | 03:34:54 | 01:42:07 | 00:00:00 | |
| AA1-15 | 2026-08-30 12:12:18 | 49.89299 | 8.30395 | 273° | 9km/h | 26650m | 5m/s | -49.9°C | 0.3% | 20.7hPa | 2.6V | 03:34:54 | 01:42:03 | 00:00:00 | |
| DL1XH-15 | 2026-08-30 12:12:18 | 49.89302 | 8.30417 | 264° | 16km/h | 26628m | 4.6m/s | -50°C | 3.5% | 20.8hPa | 2.6V | 03:34:55 | 01:41:59 | 00:00:00 | |
| BIOWL1-15 | 2026-08-30 12:12:14 | 49.89302 | 8.30417 | 264° | 16km/h | 26628m | 4.6m/s | -50.1°C | 0.2% | 20.8hPa | 2.6V | 03:35:45 | 01:41:59 | 00:00:00 | |
| DL1XH-west | 2026-08-30 12:12:13 | 49.89301 | 8.30423 | 277° | 16km/h | 26623m | 6.2m/s | -50.1°C | 0.3% | 20.8hPa | 2.6V | 03:35:45 | 01:41:58 | 00:00:00 | |
| DO2JMG | 2026-08-30 12:12:11 | 49.89298 | 8.30436 | 300° | 18km/h | 26611m | 5.2m/s | -50.1°C | 0.2% | 20.8hPa | 2.7V | 03:35:45 | 01:41:56 | 00:00:00 | |
| DL1XH1-15 | 2026-08-30 12:12:09 | 49.89294 | 8.30448 | 292° | 15km/h | 26600m | 5.7m/s | -50°C | 3.4% | 20.9hPa | 2.6V | 03:35:00 | 01:41:54 | 00:00:00 | |
| AA1-15 | 2026-08-30 12:12:07 | 49.89293 | 8.30456 | 273° | 7km/h | 26591m | 4.2m/s | -49.9°C | 0.2% | 20.9hPa | 2.6V | 03:37:27 | 01:41:52 | 00:00:00 | |
| BIOWL1-15 | 2026-08-30 12:12:04 | 49.89293 | 8.30461 | 285° | 2km/h | 26575m | 5.3m/s | -49.9°C | 0.3% | 20.9hPa | 2.7V | 03:35:45 | 01:41:49 | 00:00:00 | |
| DL1XH-west | 2026-08-30 12:12:02 | 49.89294 | 8.30463 | 241° | 7km/h | 26565m | 5.2m/s | -49.9°C | 0.3% | 21hPa | 2.6V | 03:35:45 | 01:41:47 | 00:00:00 | |
| DL1XH1-15 | 2026-08-30 12:12:01 | 49.89299 | 8.30484 | 264° | 15km/h | 26544m | 4.9m/s | -50.1°C | 3.5% | 21hPa | 2.7V | 03:35:11 | 01:41:43 | 00:00:00 | |
| DO2JMG | 2026-08-30 12:12:00 | 49.89297 | 8.30472 | 245° | 16km/h | 26553m | 5.3m/s | -50°C | 0.3% | 21hPa | 2.6V | 03:35:45 | 01:41:45 | 00:00:00 | |
| AA1-15 | 2026-08-30 12:11:56 | 49.89297 | 8.30493 | 323° | 9km/h | 26533m | 5.3m/s | -50.3°C | 0.2% | 21.1hPa | 2.6V | 03:37:27 | 01:41:41 | 00:00:00 | |
| DB0DAN | 2026-08-30 12:11:55 | 49.89295 | 8.30494 | 4° | 7km/h | 26528m | 4.7m/s | -50.3°C | 0.9% | 21.12hPa | 2.6V | 00:00:00 | 00:00:00 | 00:00:00 | |
| BIOWL1-15 | 2026-08-30 12:11:54 | 49.89292 | 8.30488 | 111° | 7km/h | 26512m | 5.8m/s | -50.1°C | 0.3% | 21.2hPa | 2.7V | 03:35:45 | 01:41:37 | 00:00:00 | |
| DL1XH-15 | 2026-08-30 12:11:51 | 49.89298 | 8.30484 | 186° | 7km/h | 26497m | 4.7m/s | -50.2°C | 3.5% | 21.2hPa | 2.6V | 03:35:20 | 01:41:34 | 00:00:00 | |
| DL1XH-west | 2026-08-30 12:11:51 | 49.89294 | 8.30485 | 149° | 9km/h | 26507m | 5.4m/s | -50.1°C | 0.3% | 21.2hPa | 2.6V | 03:35:45 | 01:41:36 | 00:00:00 | |
| DO2JMG | 2026-08-30 12:11:50 | 49.89296 | 8.30484 | 170° | 9km/h | 26502m | 4.7m/s | -50.1°C | 0.3% | 21.2hPa | 2.6V | 03:35:45 | 01:41:35 | 00:00:00 | |
| IW2NTF | 2026-08-30 12:11:49 | 49.89301 | 8.30486 | 263° | 5km/h | 26486m | 5.6m/s | 0°C | 0% | 0hPa | 2.7V | 00:00:00 | 01:41:32 | 00:00:00 | |
| AA1-15 | 2026-08-30 12:11:46 | 49.89300 | 8.30489 | 290° | 7km/h | 26481m | 4.7m/s | -50.2°C | 0.3% | 21.2hPa | 2.7V | 03:37:27 | 01:41:31 | 00:00:00 | |
| DL8DAS-14 | 2026-08-30 12:11:45 | 49.89299 | 8.30491 | 293° | 7km/h | 26476m | 4.7m/s | -50.2°C | 0.8% | 21.3hPa | 2.6V | 00:00:00 | 00:00:00 | 00:00:00 | |
| DL1XH-15 | 2026-08-30 12:11:44 | 49.89299 | 8.30493 | 63° | 11km/h | 26443m | 5.8m/s | -50.4°C | 3.6% | 21.4hPa | 2.6V | 03:35:30 | 01:41:24 | 00:00:00 | |
| BIOWL1-15 | 2026-08-30 12:11:42 | 49.89299 | 8.30498 | 220° | 2km/h | 26460m | 4.7m/s | -50.2°C | 0.2% | 21.3hPa | 2.6V | 03:35:45 | 01:41:27 | 00:00:00 | |
| DB0DAN | 2026-08-30 12:11:40 | 49.89299 | 8.30496 | 71° | 5km/h | 26449m | 6.5m/s | -50.4°C | 0.9% | 21.37hPa | 2.7V | 00:00:00 | 00:00:00 | 00:00:00 | |
| DL1XH-west | 2026-08-30 12:11:40 | 49.89299 | 8.30496 | 71° | 5km/h | 26449m | 6.5m/s | -50.4°C | 0.3% | 21.4hPa | 2.7V | 03:35:45 | 01:41:25 | 00:00:00 | |
| IW2NTF | 2026-08-30 12:11:39 | 49.89296 | 8.30485 | 76° | 9km/h | 26432m | 5.6m/s | 0°C | 0% | 0hPa | 2.6V | 00:00:00 | 01:41:22 | 00:00:00 | |
| DO2JMG | 2026-08-30 12:11:39 | 49.89299 | 8.30493 | 64° | 11km/h | 26443m | 5.8m/s | -50.4°C | 0.3% | 21.4hPa | 2.6V | 03:35:45 | 01:41:24 | 00:00:00 | |
| AA1-15 | 2026-08-30 12:11:33 | 49.89296 | 8.30477 | 9° | 4km/h | 26411m | 6.2m/s | -50.5°C | 0.3% | 21.5hPa | 2.6V | 03:37:27 | 01:41:18 | 00:00:00 | |
| DL1XH-15 | 2026-08-30 12:11:31 | 49.89286 | 8.30486 | 311° | 9km/h | 26384m | 5m/s | -50.4°C | 3.6% | 21.6hPa | 2.7V | 03:35:41 | 01:41:13 | 00:00:00 | |
| DL1XH-west | 2026-08-30 12:11:30 | 49.89290 | 8.30481 | 326° | 11km/h | 26395m | 5.1m/s | -50.5°C | 0.3% | 21.5hPa | 2.6V | 03:35:45 | 01:41:15 | 00:00:00 | |
| DO2JMG | 2026-08-30 12:11:29 | 49.89288 | 8.30483 | 315° | 11km/h | 26389m | 6.3m/s | -50.5°C | 0.3% | 21.6hPa | 2.7V | 03:35:45 | 01:41:14 | 00:00:00 | |
| BIOWL1-15 | 2026-08-30 12:11:21 | 49.89272 | 8.30478 | 73° | 7km/h | 26345m | 5.4m/s | -50.2°C | 0.3% | 21.7hPa | 2.6V | 03:36:36 | 01:41:06 | 00:00:00 | |
| AA1-15 | 2026-08-30 12:11:20 | 49.89271 | 8.30476 | 63° | 5km/h | 26341m | 4.4m/s | -50.2°C | 0.3% | 21.7hPa | 2.6V | 03:37:27 | 01:41:05 | 00:00:00 | |
| DL1XH-west | 2026-08-30 12:11:19 | 49.89270 | 8.30474 | 25° | 5km/h | 26336m | 5.1m/s | -50.2°C | 0.3% | 21.7hPa | 2.6V | 03:36:36 | 01:41:04 | 00:00:00 | |
| DO2JMG | 2026-08-30 12:11:18 | 49.89268 | 8.30474 | 1° | 9km/h | 26330m | 6.1m/s | -50.2°C | 0.3% | 21.8hPa | 2.7V | 03:36:36 | 01:41:03 | 00:00:00 | |
| AA1-15 | 2026-08-30 12:11:10 | 49.89248 | 8.30491 | 355° | 9km/h | 26289m | 4.9m/s | -50.3°C | 0.3% | 21.9hPa | 2.7V | 03:37:27 | 01:40:55 | 00:00:00 | |
| DB0DAN | 2026-08-30 12:11:10 | 49.89248 | 8.30491 | 355° | 7km/h | 26289m | 4.9m/s | -50.3°C | 0.9% | 21.9hPa | 2.7V | 00:00:00 | 00:00:00 | 00:00:00 | |
| DL1XH-west | 2026-08-30 12:11:09 | 49.89245 | 8.30491 | 12° | 13km/h | 26283m | 6.1m/s | -50.3°C | 0.3% | 21.9hPa | 2.7V | 03:36:36 | 01:40:54 | 00:00:00 | |
| DO2JMG | 2026-08-30 12:11:08 | 49.89242 | 8.30489 | 19° | 18km/h | 26277m | 5.5m/s | -50.4°C | 0.3% | 21.9hPa | 2.6V | 03:36:36 | 01:40:53 | 00:00:00 | |
| BIOWL1-15 | 2026-08-30 12:11:00 | 49.89217 | 8.30473 | 356° | 13km/h | 26236m | 5.3m/s | -50.5°C | 0.4% | 22.1hPa | 2.7V | 03:36:36 | 01:40:45 | 00:00:00 | |
| DO2JMG | 2026-08-30 12:10:57 | 49.89208 | 8.30478 | 318° | 11km/h | 26220m | 6.3m/s | -50.4°C | 0.3% | 22.1hPa | 2.6V | 03:36:36 | 01:40:42 | 00:00:00 | |
| BIOWL9-15 | 2026-08-30 12:10:57 | 49.89206 | 8.30481 | 308° | 9km/h | 26215m | 5.3m/s | -50.4°C | 0.9% | 22.2hPa | 2.6V | 00:00:00 | 00:00:00 | 00:00:00 | |
| DO1YAY-16 | 2026-08-30 12:10:56 | 49.89206 | 8.30481 | 308° | 9km/h | 26215m | 5.3m/s | -50.4°C | 0.9% | 22.2hPa | 2.6V | 00:00:00 | 00:00:00 | 00:00:00 | |
| DB0DAN | 2026-08-30 12:10:55 | 49.89204 | 8.30485 | 312° | 11km/h | 26209m | 4.9m/s | -50.5°C | 0.9% | 22.18hPa | 2.6V | 00:00:00 | 00:00:00 | 00:00:00 | |
| AA1-15 | 2026-08-30 12:10:55 | 49.89204 | 8.30485 | 312° | 13km/h | 26209m | 4.9m/s | -50.5°C | 0.4% | 22.2hPa | 2.6V | 03:37:27 | 01:40:40 | 00:00:00 | |
| BIOWL1-15 | 2026-08-30 12:10:50 | 49.89187 | 8.30495 | 353° | 13km/h | 26183m | 6.5m/s | -50.1°C | 0.3% | 22.3hPa | 2.6V | 03:36:36 | 01:40:35 | 00:00:00 | |
| DO2JMG | 2026-08-30 12:10:46 | 49.89178 | 8.30500 | 329° | 13km/h | 26161m | 6.2m/s | -50.2°C | 0.3% | 22.4hPa | 2.7V | 03:36:36 | 01:40:31 | 00:00:00 | |
| DD1CC8 | 2026-08-30 12:10:46 | 49.89175 | 8.30503 | 324° | 16km/h | 26156m | 5.4m/s | -50.2°C | 0.9% | 22.4hPa | 2.6V | 00:00:00 | 00:00:00 | 00:00:00 | |
| BIOWL1-15 | 2026-08-30 12:10:43 | 49.89159 | 8.30533 | 309° | 15km/h | 26123m | 5.3m/s | -50°C | 0.2% | 22.5hPa | 2.6V | 03:36:36 | 01:40:24 | 00:00:00 | |
| DL1XH-west | 2026-08-30 12:10:41 | 49.89163 | 8.30524 | 296° | 15km/h | 26134m | 5.5m/s | -50°C | 0.3% | 22.4hPa | 2.7V | 03:36:36 | 01:40:26 | 00:00:00 | |
| DB0DAN | 2026-08-30 12:10:40 | 49.89161 | 8.30529 | 299° | 13km/h | 26128m | 4.7m/s | -50°C | 0.8% | 22.47hPa | 2.7V | 00:00:00 | 00:00:00 | 00:00:00 | |
| DO2JMG | 2026-08-30 12:10:36 | 49.89150 | 8.30544 | 336° | 15km/h | 26107m | 4.6m/s | -49.9°C | 0.3% | 22.5hPa | 2.6V | 03:36:36 | 01:40:21 | 00:00:00 | |
| DL1XH-west | 2026-08-30 12:10:30 | 49.89138 | 8.30562 | 302° | 18km/h | 26075m | 5.4m/s | -50.1°C | 0.3% | 22.6hPa | 2.6V | 03:37:27 | 01:40:15 | 00:00:00 | |
| BIOWL1-15 | 2026-08-30 12:10:28 | 49.89134 | 8.30576 | 289° | 22km/h | 26065m | 4.7m/s | -50°C | 0.2% | 22.7hPa | 2.7V | 03:37:27 | 01:40:13 | 00:00:00 | |
| DO2JMG | 2026-08-30 12:10:26 | 49.89132 | 8.30591 | 271° | 18km/h | 26054m | 5.2m/s | -50°C | 0.2% | 22.7hPa | 2.6V | 18:12:15 | 01:40:11 | 00:00:00 | |
| DL1XH-west | 2026-08-30 12:10:19 | 49.89124 | 8.30625 | 277° | 7km/h | 26014m | 5.4m/s | -49.8°C | 0.3% | 22.8hPa | 2.6V | 03:37:27 | 01:40:03 | 00:00:00 | |
| BIOWL1-15 | 2026-08-30 12:10:17 | 49.89123 | 8.30631 | 286° | 9km/h | 26004m | 5.1m/s | -49.9°C | 0.2% | 22.9hPa | 2.7V | 03:37:27 | 01:40:01 | 00:00:00 | |
| DO2JMG | 2026-08-30 12:10:16 | 49.89123 | 8.30635 | 298° | 11km/h | 25999m | 6.1m/s | -49.9°C | 0.2% | 0hPa | 2.7V | 18:12:15 | 01:40:00 | 00:00:00 | |
| DL1XH-west | 2026-08-30 12:10:08 | 49.89121 | 8.30686 | 261° | 18km/h | 25962m | 5.3m/s | -49.9°C | 0.2% | 23hPa | 2.6V | 03:37:27 | 01:39:53 | 00:00:00 | |
| AA1-15 | 2026-08-30 12:10:07 | 49.89121 | 8.30692 | 273° | 15km/h | 25957m | 5.9m/s | -49.8°C | 0.3% | 23.1hPa | 2.6V | 03:37:27 | 01:39:52 | 00:00:00 | |
| BIOWL1-15 | 2026-08-30 12:10:05 | 49.89119 | 8.30700 | 311° | 9km/h | 25946m | 4.4m/s | -49.8°C | 0.2% | 23.1hPa | 2.7V | 03:37:27 | 01:39:50 | 00:00:00 | |
| DJ2KF-10 | 2026-08-30 12:10:04 | 49.89118 | 8.30703 | 311° | 16km/h | 25942m | 5.4m/s | -49.8°C | 3.5% | 23.1hPa | 2.6V | 00:00:00 | 01:39:49 | 00:00:00 | |
| DM0DOS-11 | 2026-08-30 12:10:01 | 49.89115 | 8.30717 | 293° | 13km/h | 25920m | 5.5m/s | -49.9°C | 3.5% | 23.2hPa | 2.6V | 03:37:09 | 01:39:45 | 00:00:00 | |
| DL1XH-west | 2026-08-30 12:09:56 | 49.89106 | 8.30741 | 291° | 22km/h | 25899m | 6.3m/s | -50.2°C | 0.3% | 23.3hPa | 2.6V | 03:37:27 | 01:39:41 | 00:00:00 | |
| BIOWL1-15 | 2026-08-30 12:09:55 | 49.89101 | 8.30763 | 292° | 18km/h | 25882m | 5.1m/s | -50.1°C | 0.2% | 23.3hPa | 2.7V | 03:37:27 | 01:39:38 | 00:00:00 | |
| DO2JMG | 2026-08-30 12:09:54 | 49.89103 | 8.30756 | 284° | 20km/h | 25887m | 4.6m/s | -50.1°C | 0.3% | 0hPa | 2.6V | 18:12:15 | 01:39:39 | 00:00:00 | |
| DL1XH-west | 2026-08-30 12:09:46 | 49.89083 | 8.30778 | 352° | 11km/h | 25845m | 4.8m/s | -50.1°C | 0.3% | 23.5hPa | 2.7V | 03:37:27 | 01:39:31 | 00:00:00 | |
| DL1XH-15 | 2026-08-30 12:09:44 | 49.89056 | 8.30806 | 303° | 22km/h | 25808m | 4.1m/s | -50°C | 3.5% | 23.6hPa | 2.7V | 03:37:30 | 01:39:24 | 00:00:00 | |
| DO2JMG | 2026-08-30 12:09:43 | 49.89071 | 8.30783 | 336° | 22km/h | 25829m | 4.8m/s | -50°C | 0.3% | 0hPa | 2.6V | 18:12:15 | 01:39:28 | 00:00:00 | |
| BIOWL1-15 | 2026-08-30 12:09:42 | 49.89066 | 8.30788 | 325° | 22km/h | 25824m | 5.3m/s | -50°C | 0.3% | 23.6hPa | 2.6V | 03:37:27 | 01:39:27 | 00:00:00 | |
| DL1XH-west | 2026-08-30 12:09:35 | 49.89040 | 8.30827 | 339° | 20km/h | 25788m | 4.1m/s | -50.1°C | 0.2% | 23.7hPa | 2.7V | 03:38:18 | 01:39:20 | 00:00:00 | |
| AA1-15 | 2026-08-30 12:09:32 | 49.89030 | 8.30833 | 323° | 9km/h | 25772m | 5.7m/s | -50.2°C | 0.2% | 23.7hPa | 2.6V | 03:38:18 | 01:39:17 | 00:00:00 | |
| DO2JMG | 2026-08-30 12:09:30 | 49.89028 | 8.30838 | 298° | 9km/h | 25762m | 4.4m/s | -50.3°C | 0.2% | 0hPa | 2.7V | 18:12:15 | 01:39:15 | 00:00:00 | |
| DL1XH-west | 2026-08-30 12:09:25 | 49.89010 | 8.30866 | 311° | 29km/h | 25736m | 5.3m/s | -50.3°C | 0.3% | 23.9hPa | 2.6V | 03:38:18 | 01:39:10 | 00:00:00 | |
| BIOWL1-15 | 2026-08-30 12:09:21 | 49.88989 | 8.30920 | 314° | 15km/h | 25700m | 4.7m/s | -50.6°C | 0.3% | 24hPa | 2.6V | 03:38:18 | 01:39:03 | 00:00:00 | |
| AA1-15 | 2026-08-30 12:09:21 | 49.88996 | 8.30903 | 294° | 22km/h | 25716m | 4.5m/s | -50.5°C | 0.3% | 23.9hPa | 2.7V | 03:38:18 | 01:39:06 | 00:00:00 | |
| DO2JMG | 2026-08-30 12:09:20 | 49.88994 | 8.30911 | 299° | 18km/h | 25710m | 5.8m/s | -50.5°C | 0.3% | 0hPa | 2.6V | 18:12:15 | 01:39:05 | 00:00:00 | |
| DL8OAI-8 | 2026-08-30 12:09:19 | 49.88994 | 8.30910 | 300° | 18km/h | 25711m | 5.8m/s | -50.5°C | 0.9% | 24.0hPa | 2.7V | 03:38:00 | 00:00:00 | 00:00:00 | |
| DL0LBS | 2026-08-30 12:09:17 | 49.88989 | 8.30920 | 315° | 15km/h | 25700m | 4.7m/s | -50.6°C | 0.9% | 24.0hPa | 2.7V | 03:38:00 | 00:00:00 | 00:00:00 | |
| DL1XH-15 | 2026-08-30 12:09:16 | 49.88978 | 8.30972 | 287° | 20km/h | 25664m | 6m/s | -50.4°C | 3.5% | 24.1hPa | 2.7V | 03:37:58 | 01:38:56 | 00:00:00 | |
| DL1XH-west | 2026-08-30 12:09:15 | 49.88983 | 8.30937 | 288° | 22km/h | 25685m | 5.8m/s | -50.6°C | 0.3% | 24.1hPa | 2.6V | 03:38:18 | 01:39:00 | 00:00:00 | |
| DO2JMG | 2026-08-30 12:09:10 | 49.88976 | 8.30978 | 296° | 18km/h | 25659m | 5.2m/s | -50.4°C | 0.3% | 0hPa | 2.7V | 18:12:15 | 01:38:55 | 00:00:00 | |
| DL1XH-west | 2026-08-30 12:09:05 | 49.88967 | 8.31013 | 281° | 20km/h | 25632m | 4.1m/s | -50.3°C | 0.2% | 24.2hPa | 2.7V | 03:38:18 | 01:38:50 | 00:00:00 | |
| BIOWL1-15 | 2026-08-30 12:09:01 | 49.88966 | 8.31038 | 267° | 13km/h | 25611m | 4.9m/s | -50.4°C | 0.3% | 24.3hPa | 2.6V | 03:38:18 | 01:38:46 | 00:00:00 | |
| DO2JMG | 2026-08-30 12:08:59 | 49.88966 | 8.31051 | 276° | 20km/h | 25601m | 6.2m/s | -50.4°C | 0.3% | 0hPa | 2.7V | 18:12:15 | 01:38:44 | 00:00:00 | |
| AA1-15 | 2026-08-30 12:08:58 | 49.88965 | 8.31059 | 283° | 24km/h | 25595m | 5m/s | -50.5°C | 0.3% | 24.4hPa | 2.7V | 03:38:18 | 01:38:43 | 00:00:00 | |
| DL1XH-west | 2026-08-30 12:08:54 | 49.88953 | 8.31094 | 312° | 26km/h | 25574m | 4.9m/s | -50.6°C | 0.2% | 24.5hPa | 2.7V | 03:38:18 | 01:38:39 | 00:00:00 | |
| BIOWL1-15 | 2026-08-30 12:08:53 | 49.88939 | 8.31119 | 305° | 27km/h | 25558m | 4.8m/s | -50.3°C | 0.2% | 24.6hPa | 2.6V | 03:38:18 | 01:38:36 | 00:00:00 | |
| DO1YAY-16 | 2026-08-30 12:08:52 | 49.88943 | 8.31110 | 308° | 27km/h | 25564m | 6.3m/s | -50.4°C | 0.9% | 24.5hPa | 2.7V | 00:00:00 | 00:00:00 | 00:00:00 | |
| DL4BBY-15 | 2026-08-30 12:08:51 | 49.88939 | 8.31119 | 306° | 16km/h | 25559m | 4.8m/s | -51.4°C | 0% | 0hPa | 2.7V | 00:00:00 | 00:00:00 | 00:00:00 | |
| DL1XH-15 | 2026-08-30 12:08:49 | 49.88931 | 8.31143 | 286° | 9km/h | 25537m | 5.6m/s | -50.2°C | 3.5% | 24.6hPa | 2.7V | 03:38:22 | 01:38:32 | 00:00:00 | |
| AA1-15 | 2026-08-30 12:08:47 | 49.88930 | 8.31143 | 286° | 9km/h | 25537m | 5.6m/s | -50.2°C | 0.2% | 24.6hPa | 2.7V | 03:39:09 | 01:38:32 | 00:00:00 | |
| DO2JMG | 2026-08-30 12:08:46 | 49.88930 | 8.31146 | 276° | 9km/h | 25532m | 5.1m/s | -50.3°C | 0% | 0hPa | 2.7V | 18:12:15 | 01:38:31 | 00:00:00 | |
| DM0DOS-11 | 2026-08-30 12:08:45 | 49.88927 | 8.31162 | 291° | 18km/h | 25515m | 4.4m/s | -50.6°C | 3.6% | 24.7hPa | 2.6V | 03:38:26 | 01:38:28 | 00:00:00 | |
| DL1XH-west | 2026-08-30 12:08:44 | 49.88929 | 8.31155 | 286° | 16km/h | 25520m | 5.4m/s | -50.5°C | 0.3% | 24.7hPa | 2.6V | 03:39:09 | 01:38:29 | 00:00:00 | |
| BIOWL1-15 | 2026-08-30 12:08:40 | 49.88919 | 8.31183 | 309° | 22km/h | 25499m | 5.2m/s | -50.7°C | 0.3% | 24.8hPa | 2.7V | 03:39:09 | 01:38:25 | 00:00:00 | |
| AA1-15 | 2026-08-30 12:08:36 | 49.88909 | 8.31214 | 277° | 26km/h | 25479m | 5.8m/s | -50.8°C | 0.4% | 24.9hPa | 2.7V | 03:39:09 | 01:38:21 | 00:00:00 | |
| DO2JMG | 2026-08-30 12:08:33 | 49.88912 | 8.31240 | 249° | 16km/h | 25465m | 5.6m/s | -50.9°C | 0% | 0hPa | 2.6V | 18:12:15 | 01:38:18 | 00:00:00 | |
| BIOWL1-15 | 2026-08-30 12:08:30 | 49.88914 | 8.31249 | 268° | 4km/h | 25449m | 4.2m/s | -51°C | 0.3% | 25hPa | 2.6V | 03:39:09 | 01:38:15 | 00:00:00 | |
| AA1-15 | 2026-08-30 12:08:25 | 49.88914 | 8.31269 | 259° | 15km/h | 25423m | 5.6m/s | -50.9°C | 0.4% | 25.1hPa | 2.6V | 03:39:09 | 01:38:10 | 00:00:00 | |
| DO2JMG | 2026-08-30 12:08:22 | 49.88917 | 8.31282 | 244° | 9km/h | 25408m | 4.5m/s | -50.8°C | 0% | 0hPa | 2.7V | 18:12:15 | 01:38:07 | 00:00:00 | |
| BIOWL1-15 | 2026-08-30 12:08:20 | 49.88918 | 8.31287 | 280° | 7km/h | 25397m | 5.8m/s | -50.8°C | 0.3% | 25.2hPa | 2.6V | 03:39:09 | 01:38:05 | 00:00:00 | |
| AA1-15 | 2026-08-30 12:08:15 | 49.88918 | 8.31301 | 199° | 7km/h | 25370m | 5.5m/s | -50.7°C | 0.3% | 25.3hPa | 2.6V | 03:39:09 | 01:38:00 | 00:00:00 | |
| DL1XH-west | 2026-08-30 12:08:11 | 49.88924 | 8.31305 | 278° | 5km/h | 25351m | 5.8m/s | -50.7°C | 0.4% | 25.3hPa | 2.7V | 03:39:09 | 01:37:56 | 00:00:00 | |
| BIOWL1-15 | 2026-08-30 12:08:09 | 49.88912 | 8.31316 | 3° | 9km/h | 25304m | 6.3m/s | -50.7°C | 0.3% | 25.5hPa | 2.6V | 03:39:09 | 01:37:47 | 00:00:00 | |
| DL1XH-15 | 2026-08-30 12:08:08 | 49.88917 | 8.31318 | 333° | 4km/h | 25324m | 5.5m/s | -50.8°C | 3.6% | 25.4hPa | 2.6V | 03:39:03 | 01:37:51 | 00:00:00 | |
| DO2JMG | 2026-08-30 12:08:04 | 49.88916 | 8.31317 | 31° | 4km/h | 25315m | 4.8m/s | 0°C | 0% | 0hPa | 2.7V | 18:12:15 | 01:37:49 | 00:00:00 | |
| DL1XH-west | 2026-08-30 12:08:01 | 49.88907 | 8.31317 | 349° | 11km/h | 25293m | 4.7m/s | -50.7°C | 0.3% | 25.6hPa | 2.7V | 03:39:09 | 01:37:45 | 00:00:00 | |
| BIOWL1-15 | 2026-08-30 12:07:58 | 49.88903 | 8.31318 | 354° | 5km/h | 25282m | 6m/s | -50.7°C | 0.3% | 25.6hPa | 2.7V | 03:40:00 | 01:37:43 | 00:00:00 | |
| DB0ND-19 | 2026-08-30 12:07:56 | 49.88901 | 8.31318 | 10° | 2km/h | 25272m | 4.4m/s | -50.8°C | 0.9% | 25.6hPa | 2.6V | 00:00:00 | 00:00:00 | 00:00:00 | |
| DB0DAN | 2026-08-30 12:07:55 | 49.88900 | 8.31318 | 359° | 5km/h | 25266m | 5.7m/s | -50.8°C | 0.9% | 25.67hPa | 2.6V | 00:00:00 | 00:00:00 | 00:00:00 | |
| AA1-15 | 2026-08-30 12:07:53 | 49.88896 | 8.31318 | 353° | 9km/h | 25255m | 4.8m/s | -50.8°C | 0.3% | 25.7hPa | 2.7V | 03:40:00 | 01:37:38 | 00:00:00 | |
| DO2JMG | 2026-08-30 12:07:52 | 49.88894 | 8.31319 | 357° | 7km/h | 25250m | 4.9m/s | 0°C | 0% | 0hPa | 2.7V | 18:12:15 | 01:37:37 | 00:00:00 | |
| DL1XH-west | 2026-08-30 12:07:49 | 49.88890 | 8.31316 | 43° | 7km/h | 25234m | 4.7m/s | -50.8°C | 0.3% | 25.8hPa | 2.6V | 03:40:00 | 01:37:34 | 00:00:00 | |
| BIOWL1-15 | 2026-08-30 12:07:47 | 49.88879 | 8.31306 | 26° | 16km/h | 25212m | 4.9m/s | -50.8°C | 0.4% | 25.9hPa | 2.6V | 03:40:00 | 01:37:30 | 00:00:00 | |
| AA1-15 | 2026-08-30 12:07:42 | 49.88869 | 8.31299 | 13° | 13km/h | 25197m | 4.5m/s | -50.9°C | 0.4% | 25.9hPa | 2.7V | 03:40:00 | 01:37:27 | 00:00:00 | |
| DO2JMG | 2026-08-30 12:07:41 | 49.88866 | 8.31299 | 1° | 15km/h | 25192m | 4.8m/s | 0°C | 0% | 0hPa | 2.7V | 18:12:15 | 01:37:26 | 00:00:00 | |
| DB0DAN | 2026-08-30 12:07:40 | 49.88862 | 8.31299 | 356° | 16km/h | 25187m | 6.5m/s | -50.8°C | 0.9% | 26.01hPa | 2.7V | 00:00:00 | 00:00:00 | 00:00:00 | |
| DM0DOS-11 | 2026-08-30 12:07:40 | 49.88839 | 8.31298 | 46° | 9km/h | 25155m | 4.4m/s | -51°C | 3.6% | 26.1hPa | 2.7V | 03:39:35 | 01:37:19 | 00:00:00 | |
| DD1CC8 | 2026-08-30 12:07:39 | 49.88857 | 8.31300 | 354° | 20km/h | 25181m | 5.6m/s | -50.8°C | 0.9% | 26.0hPa | 2.7V | 00:00:00 | 00:00:00 | 00:00:00 | |
| DL1XH-15 | 2026-08-30 12:07:38 | 49.88837 | 8.31295 | 48° | 11km/h | 25150m | 5.1m/s | -51°C | 3.7% | 26.1hPa | 2.7V | 03:39:36 | 01:37:18 | 00:00:00 | |
| DL1XH-west | 2026-08-30 12:07:38 | 49.88852 | 8.31301 | 354° | 20km/h | 25175m | 4.7m/s | -50.9°C | 0.3% | 26.1hPa | 2.6V | 03:40:00 | 01:37:23 | 00:00:00 | |
| BIOWL1-15 | 2026-08-30 12:07:37 | 49.88840 | 8.31300 | 25° | 9km/h | 25159m | 5m/s | -51°C | 0.4% | 26.1hPa | 2.7V | 03:40:00 | 01:37:20 | 00:00:00 | |
| AA1-15 | 2026-08-30 12:07:31 | 49.88831 | 8.31288 | 30° | 18km/h | 25139m | 5.6m/s | -51°C | 0.4% | 26.2hPa | 2.6V | 03:40:00 | 01:37:16 | 00:00:00 | |
| DL1XH-west | 2026-08-30 12:07:28 | 49.88817 | 8.31283 | 358° | 20km/h | 25123m | 5.9m/s | -51°C | 0.5% | 26.2hPa | 2.7V | 03:40:00 | 01:37:13 | 00:00:00 | |
| BIOWL1-15 | 2026-08-30 12:07:25 | 49.88802 | 8.31289 | 338° | 24km/h | 25108m | 5.1m/s | -51.1°C | 0.4% | 26.3hPa | 2.6V | 03:40:00 | 01:37:10 | 00:00:00 | |
| DL1XH1-15 | 2026-08-30 12:07:24 | 49.88783 | 8.31300 | 344° | 27km/h | 25091m | 4.9m/s | -51°C | 3.6% | 26.4hPa | 2.7V | 03:39:47 | 01:37:07 | 00:00:00 | |
| AA1-15 | 2026-08-30 12:07:20 | 49.88771 | 8.31303 | 357° | 20km/h | 25080m | 5.7m/s | -51°C | 0.3% | 26.4hPa | 2.6V | 03:40:00 | 01:37:05 | 00:00:00 | |
| DL1XH-west | 2026-08-30 12:07:17 | 49.88757 | 8.31299 | 18° | 24km/h | 25065m | 6.2m/s | -51°C | 0.4% | 26.5hPa | 2.7V | 03:40:00 | 01:37:02 | 00:00:00 | |
| BIOWL1-15 | 2026-08-30 12:07:16 | 49.88737 | 8.31290 | 12° | 27km/h | 25048m | 5.2m/s | -50.8°C | 0.3% | 26.6hPa | 2.6V | 03:40:00 | 01:36:59 | 00:00:00 | |
| DJ2DS-15 | 2026-08-30 12:07:16 | 49.88751 | 8.31296 | 17° | 27km/h | 25059m | 5.8m/s | -50.9°C | 3.6% | 26.5hPa | 2.7V | 00:00:00 | 01:37:01 | 00:00:00 | |
| DL3AQ-11 | 2026-08-30 12:07:15 | 49.88737 | 8.31290 | 11° | 26km/h | 25049m | 5.2m/s | -50.8°C | 0.9% | 26.6hPa | 2.7V | 00:00:00 | 00:00:00 | 00:00:00 | |
| DM0DOS-11 | 2026-08-30 12:07:14 | 49.88712 | 8.31293 | 342° | 31km/h | 25028m | 5.8m/s | -50.8°C | 3.7% | 26.6hPa | 2.7V | 03:39:59 | 01:36:55 | 00:00:00 | |
| DL0LBS | 2026-08-30 12:07:14 | 49.88737 | 8.31290 | 13° | 27km/h | 25049m | 5.2m/s | -50.8°C | 0.9% | 26.6hPa | 2.7V | 03:40:00 | 00:00:00 | 00:00:00 | |
| DB0DAN | 2026-08-30 12:07:10 | 49.88712 | 8.31293 | 343° | 29km/h | 25028m | 5.8m/s | -50.8°C | 0.9% | 26.65hPa | 2.7V | 00:00:00 | 00:00:00 | 00:00:00 | |
| AA1-15 | 2026-08-30 12:07:09 | 49.88704 | 8.31297 | 340° | 35km/h | 25022m | 5.9m/s | -50.8°C | 0.4% | 26.6hPa | 2.7V | 03:40:00 | 01:36:54 | 00:00:00 | |
| DD1CC8 | 2026-08-30 12:07:08 | 49.88696 | 8.31301 | 340° | 35km/h | 25017m | 4.4m/s | -50.9°C | 0.9% | 26.7hPa | 2.6V | 00:00:00 | 00:00:00 | 00:00:00 | |
| DL8DAS-14 | 2026-08-30 12:07:06 | 49.88673 | 8.31311 | 353° | 22km/h | 25003m | 6.0m/s | -50.9°C | 0.9% | 26.7hPa | 2.6V | 00:00:00 | 00:00:00 | 00:00:00 | |
| DL1XH-west | 2026-08-30 12:07:06 | 49.88679 | 8.31309 | 346° | 29km/h | 25008m | 5.1m/s | -50.8°C | 0.4% | 26.7hPa | 2.6V | 03:40:51 | 01:36:51 | 00:00:00 | |
| DL1XH1-15 | 2026-08-30 12:07:04 | 49.88654 | 8.31303 | 23° | 24km/h | 24983m | 5.5m/s | -50.6°C | 3.5% | 26.8hPa | 2.6V | 03:40:08 | 01:36:46 | 00:00:00 | |
| BIOWL1-15 | 2026-08-30 12:07:03 | 49.88663 | 8.31309 | 20° | 18km/h | 24992m | 4.3m/s | -50.7°C | 0.3% | 26.8hPa | 2.7V | 03:40:51 | 01:36:48 | 00:00:00 | |
| DJ2KF-10 | 2026-08-30 12:07:02 | 49.88658 | 8.31306 | 25° | 29km/h | 24988m | 4.7m/s | -50.6°C | 3.6% | 26.8hPa | 2.7V | 00:00:00 | 01:36:47 | 00:00:00 | |
| DM0DOS-11 | 2026-08-30 12:07:01 | 49.88631 | 8.31296 | 1° | 35km/h | 24968m | 4.5m/s | -50.8°C | 3.5% | 26.9hPa | 2.7V | 03:40:11 | 01:36:43 | 00:00:00 | |
| AA1-15 | 2026-08-30 12:06:58 | 49.88631 | 8.31296 | 1° | 35km/h | 24968m | 4.5m/s | -50.8°C | 0.2% | 26.9hPa | 2.7V | 03:42:33 | 01:36:43 | 00:00:00 | |
| DL1XH-15 | 2026-08-30 12:06:56 | 49.88575 | 8.31327 | 333° | 35km/h | 24931m | 4.5m/s | -50.7°C | 3.6% | 27.1hPa | 2.7V | 03:40:18 | 01:36:36 | 00:00:00 | |
| DL1XH-west | 2026-08-30 12:06:56 | 49.88614 | 8.31299 | 347° | 33km/h | 24957m | 5.3m/s | -50.8°C | 0.3% | 26.9hPa | 2.6V | 03:40:51 | 01:36:41 | 00:00:00 | |
| DB0DAN | 2026-08-30 12:06:55 | 49.88606 | 8.31302 | 338° | 31km/h | 24952m | 5.1m/s | -50.6°C | 0.9% | 26.98hPa | 2.6V | 00:00:00 | 00:00:00 | 00:00:00 | |
| AA1-15 | 2026-08-30 12:06:48 | 49.88556 | 8.31340 | 342° | 20km/h | 24915m | 5.7m/s | -50.7°C | 0.2% | 27.1hPa | 2.6V | 03:42:33 | 01:36:33 | 00:00:00 | |
| DL3AQ-11 | 2026-08-30 12:06:48 | 49.88551 | 8.31342 | 351° | 18km/h | 24909m | 4.8m/s | -50.7°C | 0.9% | 27.1hPa | 2.6V | 00:00:00 | 00:00:00 | 00:00:00 | |
| DM0DOS-11 | 2026-08-30 12:06:47 | 49.88551 | 8.31342 | 351° | 18km/h | 24909m | 4.8m/s | -50.7°C | 3.5% | 27.1hPa | 2.6V | 03:40:22 | 01:36:32 | 00:00:00 | |
| DL1XH-west | 2026-08-30 12:06:45 | 49.88540 | 8.31344 | 356° | 26km/h | 24899m | 5.7m/s | -50.8°C | 0.3% | 27.2hPa | 2.7V | 03:40:51 | 01:36:30 | 00:00:00 | |
| BIOWL1-15 | 2026-08-30 12:06:38 | 49.88491 | 8.31381 | 324° | 37km/h | 24862m | 5.6m/s | -51.1°C | 0.4% | 27.3hPa | 2.6V | 03:40:51 | 01:36:23 | 00:00:00 | |
| DL1XH-15 | 2026-08-30 12:06:36 | 49.88456 | 8.31411 | 336° | 20km/h | 24826m | 5.8m/s | -51.3°C | 3.7% | 27.5hPa | 2.6V | 03:40:38 | 01:36:16 | 00:00:00 | |
| DL1XH-west | 2026-08-30 12:06:35 | 49.88472 | 8.31400 | 331° | 24km/h | 24846m | 6.4m/s | -51.2°C | 0.4% | 27.4hPa | 2.6V | 03:40:51 | 01:36:20 | 00:00:00 | |
| AA1-15 | 2026-08-30 12:06:34 | 49.88467 | 8.31404 | 335° | 16km/h | 24840m | 5.5m/s | -51.2°C | 0.3% | 27.4hPa | 2.7V | 03:42:33 | 01:36:19 | 00:00:00 | |
| BIOWL1-15 | 2026-08-30 12:06:28 | 49.88430 | 8.31448 | 301° | 31km/h | 24800m | 5.2m/s | -51.4°C | 0.4% | 27.6hPa | 2.7V | 03:40:51 | 01:36:11 | 00:00:00 | |
| DM0DOS-11 | 2026-08-30 12:06:27 | 49.88423 | 8.31468 | 297° | 27km/h | 24791m | 4.2m/s | -51.3°C | 3.8% | 27.6hPa | 2.6V | 03:40:45 | 01:36:09 | 00:00:00 | |
| AA1-15 | 2026-08-30 12:06:24 | 49.88423 | 8.31468 | 297° | 27km/h | 24791m | 4.2m/s | -51.3°C | 0.5% | 27.6hPa | 2.6V | 03:42:33 | 01:36:09 | 00:00:00 | |
| DL1XH-15 | 2026-08-30 12:06:22 | 49.88412 | 8.31489 | 326° | 18km/h | 24776m | 4.7m/s | -51.1°C | 3.7% | 27.7hPa | 2.7V | 03:40:48 | 01:36:06 | 00:00:00 | |
| BIOWL1-15 | 2026-08-30 12:06:18 | 49.88404 | 8.31494 | 351° | 7km/h | 24761m | 5.5m/s | -51.3°C | 0.4% | 27.8hPa | 2.6V | 03:40:51 | 01:36:03 | 00:00:00 | |
| DO1YAY-16 | 2026-08-30 12:06:17 | 49.88401 | 8.31495 | 344° | 7km/h | 24752m | 4.6m/s | -51.4°C | 0.9% | 27.8hPa | 2.6V | 00:00:00 | 00:00:00 | 00:00:00 | |
| DL1XH-15 | 2026-08-30 12:06:16 | 49.88382 | 8.31513 | 314° | 22km/h | 24725m | 5.6m/s | -51.2°C | 3.6% | 27.9hPa | 2.6V | 03:40:58 | 01:35:56 | 00:00:00 | |
| DL1XH-west | 2026-08-30 12:06:14 | 49.88395 | 8.31498 | 333° | 16km/h | 24741m | 5.8m/s | -51.3°C | 0.4% | 27.9hPa | 2.7V | 03:41:42 | 01:35:59 | 00:00:00 | |
| DC4HF-4 | 2026-08-30 12:06:14 | 49.88391 | 8.31502 | 327° | 20km/h | 24735m | 5.1m/s | -51.2°C | 0.9% | 27.9hPa | 2.7V | 00:00:00 | 00:00:00 | 00:00:00 | |
| DL1XH1-15 | 2026-08-30 12:06:12 | 49.88376 | 8.31526 | 301° | 20km/h | 24715m | 4.3m/s | -51.3°C | 3.6% | 28hPa | 2.7V | 03:41:00 | 01:35:54 | 00:00:00 | |
| BIOWL1-15 | 2026-08-30 12:06:07 | 49.88363 | 8.31551 | 318° | 20km/h | 24694m | 4.7m/s | -51.5°C | 0.4% | 28.1hPa | 2.6V | 03:41:42 | 01:35:50 | 00:00:00 | |
| DM0DOS-11 | 2026-08-30 12:06:06 | 49.88354 | 8.31567 | 305° | 18km/h | 24679m | 4.3m/s | -51.3°C | 3.7% | 28.2hPa | 2.7V | 03:41:07 | 01:35:47 | 00:00:00 | |
| DL1XH-15 | 2026-08-30 12:06:06 | 49.88351 | 8.31573 | 306° | 20km/h | 24674m | 4m/s | -51.4°C | 3.8% | 28.2hPa | 2.6V | 03:41:08 | 01:35:46 | 00:00:00 | |
| AA1-15 | 2026-08-30 12:06:04 | 49.88360 | 8.31556 | 315° | 18km/h | 24689m | 5.2m/s | -51.4°C | 0.4% | 28.1hPa | 2.6V | 03:42:33 | 01:35:49 | 00:00:00 | |
| DL1XH-west | 2026-08-30 12:06:03 | 49.88356 | 8.31562 | 310° | 18km/h | 24684m | 5.7m/s | -51.3°C | 0.4% | 28.1hPa | 2.7V | 03:41:42 | 01:35:48 | 00:00:00 | |
| BIOWL1-15 | 2026-08-30 12:05:57 | 49.88334 | 8.31605 | 306° | 31km/h | 24654m | 4.1m/s | -51.6°C | 0.4% | 28.2hPa | 2.7V | 03:41:42 | 01:35:42 | 00:00:00 | |
| DL1XH-15 | 2026-08-30 12:05:56 | 49.88317 | 8.31663 | 298° | 24km/h | 24623m | 5.1m/s | -51.6°C | 3.7% | 28.4hPa | 2.7V | 03:41:18 | 01:35:36 | 00:00:00 | |
| DL1XH-west | 2026-08-30 12:05:53 | 49.88322 | 8.31645 | 289° | 27km/h | 24634m | 4.9m/s | -51.6°C | 0.4% | 28.3hPa | 2.6V | 03:41:42 | 01:35:38 | 00:00:00 | |
| DL1XH1-15 | 2026-08-30 12:05:52 | 49.88312 | 8.31678 | 295° | 18km/h | 24614m | 5.3m/s | -51.6°C | 3.8% | 28.4hPa | 2.7V | 03:41:20 | 01:35:34 | 00:00:00 | |
| DB0ND-19 | 2026-08-30 12:05:52 | 49.88320 | 8.31655 | 293° | 26km/h | 24629m | 6.0m/s | -51.6°C | 0.9% | 28.3hPa | 2.7V | 00:00:00 | 00:00:00 | 00:00:00 | |
| DL1ZP-14 | 2026-08-30 12:05:51 | 49.88317 | 8.31663 | 298° | 22km/h | 24623m | 5.1m/s | -51.6°C | 0.9% | 28.4hPa | 2.7V | 00:00:00 | 00:00:00 | 00:00:00 | |
| BIOWL1-15 | 2026-08-30 12:05:46 | 49.88306 | 8.31712 | 290° | 24km/h | 24589m | 5.1m/s | -51.5°C | 0.4% | 28.6hPa | 2.7V | 03:41:42 | 01:35:29 | 00:00:00 | |
| DO1YAY-16 | 2026-08-30 12:05:46 | 49.88308 | 8.31704 | 286° | 20km/h | 24594m | 5.6m/s | -51.5°C | 0.9% | 28.5hPa | 2.7V | 00:00:00 | 00:00:00 | 00:00:00 | |
| DF7PN | 2026-08-30 12:05:45 | 49.88308 | 8.31704 | 286° | 20km/h | 24594m | 5.6m/s | -51.5°C | 0.9% | 28.5hPa | 2.7V | 00:00:00 | 00:00:00 | 00:00:00 | |
| DL1XH1-15 | 2026-08-30 12:05:44 | 49.88303 | 8.31764 | 255° | 20km/h | 24560m | 4.2m/s | -51.5°C | 3.6% | 28.7hPa | 2.7V | 03:41:31 | 01:35:23 | 00:00:00 | |
| DL1XH-west | 2026-08-30 12:05:42 | 49.88302 | 8.31729 | 285° | 26km/h | 24580m | 4.2m/s | -51.6°C | 0.4% | 28.6hPa | 2.7V | 03:41:42 | 01:35:27 | 00:00:00 | |
| DL1XH-15 | 2026-08-30 12:05:41 | 49.88301 | 8.31739 | 276° | 24km/h | 24575m | 5.7m/s | -51.5°C | 3.7% | 28.6hPa | 2.6V | 03:41:28 | 01:35:26 | 00:00:00 | |
| BIOWL1-15 | 2026-08-30 12:05:33 | 49.88306 | 8.31816 | 258° | 16km/h | 24516m | 5.2m/s | -51.6°C | 0.4% | 28.9hPa | 2.6V | 03:41:42 | 01:35:14 | 00:00:00 | |
| DL8DAS-14 | 2026-08-30 12:05:33 | 49.88303 | 8.31802 | 258° | 9km/h | 24530m | 5.3m/s | -51.5°C | 0.9% | 28.8hPa | 2.6V | 00:00:00 | 00:00:00 | 00:00:00 | |
| DL1XH1-15 | 2026-08-30 12:05:32 | 49.88306 | 8.31816 | 258° | 16km/h | 24516m | 5.2m/s | -51.6°C | 3.7% | 28.9hPa | 2.6V | 03:41:40 | 01:35:14 | 00:00:00 | |
| DM0DOS-11 | 2026-08-30 12:05:31 | 49.88304 | 8.31806 | 248° | 11km/h | 24525m | 4.4m/s | -51.5°C | 3.7% | 28.8hPa | 2.7V | 03:41:38 | 01:35:16 | 00:00:00 | |
| DL1XH-west | 2026-08-30 12:05:31 | 49.88304 | 8.31806 | 248° | 11km/h | 24525m | 4.4m/s | -51.6°C | 0.4% | 28.8hPa | 2.7V | 03:41:42 | 01:35:16 | 00:00:00 | |
| DJ2KF-10 | 2026-08-30 12:05:31 | 49.88304 | 8.31806 | 249° | 13km/h | 24525m | 4.3m/s | -51.5°C | 3.7% | 28.8hPa | 2.7V | 03:41:00 | 01:35:16 | 00:00:00 | |
| DL0LBS | 2026-08-30 12:05:30 | 49.88304 | 8.31806 | 249° | 11km/h | 24525m | 4.4m/s | -51.6°C | 1.0% | 28.8hPa | 2.7V | 03:41:00 | 00:00:00 | 00:00:00 | |
| DL3AQ-11 | 2026-08-30 12:05:28 | 49.88307 | 8.31823 | 263° | 18km/h | 24511m | 5.6m/s | -51.6°C | 0.9% | 28.9hPa | 2.7V | 00:00:00 | 00:00:00 | 00:00:00 | |
| DJ2DS-15 | 2026-08-30 12:05:26 | 49.88310 | 8.31848 | 250° | 22km/h | 24496m | 5.8m/s | -51.9°C | 0.9% | 29.0hPa | 2.7V | 00:00:00 | 00:00:00 | 00:00:00 | |
| DL1XH1-15 | 2026-08-30 12:05:24 | 49.88322 | 8.31878 | 239° | 5km/h | 24465m | 4.8m/s | -52.1°C | 3.8% | 29.1hPa | 2.7V | 03:41:50 | 01:35:04 | 00:00:00 | |
| DB0UT-7 | 2026-08-30 12:05:22 | 49.88318 | 8.31868 | 231° | 9km/h | 24482m | 4.5m/s | -51.8°C | 3.8% | 29.0hPa | 2.6V | 03:41:00 | 01:35:07 | 00:00:00 | |
| DM0DOS-11 | 2026-08-30 12:05:21 | 49.88324 | 8.31879 | 166° | 5km/h | 24454m | 5.5m/s | -51.9°C | 3.8% | 29.1hPa | 2.6V | 03:41:52 | 01:35:02 | 00:00:00 | |
| BIOWL1-15 | 2026-08-30 12:05:21 | 49.88323 | 8.31879 | 200° | 4km/h | 24460m | 5.9m/s | -52.1°C | 0.5% | 29.1hPa | 2.6V | 03:42:33 | 01:35:03 | 00:00:00 | |
| DL1XH-west | 2026-08-30 12:05:20 | 49.88321 | 8.31876 | 243° | 9km/h | 24471m | 5.1m/s | -52°C | 0.4% | 29.1hPa | 2.7V | 03:42:33 | 01:35:05 | 00:00:00 | |
| DL1XH-15 | 2026-08-30 12:05:16 | 49.88332 | 8.31890 | 229° | 15km/h | 24426m | 4.8m/s | -52°C | 3.8% | 29.2hPa | 2.6V | 03:41:58 | 01:34:56 | 00:00:00 | |
| DJ2DS-15 | 2026-08-30 12:05:16 | 49.88325 | 8.31879 | 166° | 9km/h | 24450m | 4.1m/s | -51.8°C | 3.8% | 29.1hPa | 2.7V | 03:41:00 | 01:35:01 | 00:00:00 | |
| DO1YAY-16 | 2026-08-30 12:05:15 | 49.88328 | 8.31879 | 226° | 5km/h | 24441m | 5.7m/s | -52.0°C | 0.9% | 29.2hPa | 2.7V | 00:00:00 | 00:00:00 | 00:00:00 | |
| DF7PN | 2026-08-30 12:05:14 | 49.88329 | 8.31882 | 245° | 9km/h | 24436m | 5.3m/s | -52.0°C | 1.0% | 29.2hPa | 2.7V | 00:00:00 | 00:00:00 | 00:00:00 | |
| DL1XH1-15 | 2026-08-30 12:05:12 | 49.88342 | 8.31899 | 193° | 15km/h | 24411m | 4.3m/s | -52.2°C | 3.9% | 29.3hPa | 2.7V | 03:42:01 | 01:34:53 | 00:00:00 | |
| DM0DOS-11 | 2026-08-30 12:05:11 | 49.88345 | 8.31900 | 188° | 11km/h | 24406m | 5.8m/s | -52.2°C | 3.9% | 29.4hPa | 2.7V | 03:42:02 | 01:34:52 | 00:00:00 | |
| DB0DAN | 2026-08-30 12:05:10 | 49.88335 | 8.31894 | 216° | 15km/h | 24421m | 5.6m/s | -52.1°C | 1% | 29.29hPa | 2.6V | 00:00:00 | 00:00:00 | 00:00:00 | |
| DL1XH-west | 2026-08-30 12:05:10 | 49.88335 | 8.31894 | 216° | 16km/h | 24420m | 5.6m/s | -52.1°C | 0.5% | 29.3hPa | 2.6V | 03:42:33 | 01:34:55 | 00:00:00 | |
| BIOWL1-15 | 2026-08-30 12:05:09 | 49.88347 | 8.31901 | 180° | 7km/h | 24400m | 5.8m/s | -52.2°C | 0.5% | 29.4hPa | 2.7V | 03:42:33 | 01:34:51 | 00:00:00 | |
| BIOWL7-15 | 2026-08-30 12:05:09 | 49.88334 | 8.31894 | 217° | 16km/h | 24421m | 5.6m/s | -52.1°C | 1.0% | 29.3hPa | 2.6V | 00:00:00 | 00:00:00 | 00:00:00 | |
| AU51GT2 | 2026-08-30 12:05:07 | 49.88345 | 8.31900 | 188° | 11km/h | 24406m | 5.8m/s | -52.2°C | 1.0% | 29.4hPa | 2.6V | 00:00:00 | 00:00:00 | 00:00:00 | |
| DL9SK-14 | 2026-08-30 12:05:05 | 49.88349 | 8.31900 | 135° | 4km/h | 24395m | 4.9m/s | -52.2°C | 1.0% | 29.4hPa | 2.6V | 00:00:00 | 00:00:00 | 00:00:00 | |
| DL3AQ-11 | 2026-08-30 12:05:04 | 49.88349 | 8.31896 | 102° | 5km/h | 24385m | 5.8m/s | -52.1°C | 1.0% | 29.5hPa | 2.6V | 00:00:00 | 00:00:00 | 00:00:00 | |
| DC4HF-4 | 2026-08-30 12:05:02 | 49.88350 | 8.31893 | 136° | 2km/h | 24376m | 4.0m/s | -52.2°C | 0.9% | 29.5hPa | 2.6V | 00:00:00 | 00:00:00 | 00:00:00 | |
| DM0DOS-11 | 2026-08-30 12:05:01 | 49.88352 | 8.31910 | 241° | 15km/h | 24349m | 5.8m/s | -52.1°C | 3.8% | 29.6hPa | 2.6V | 03:42:13 | 01:34:41 | 00:00:00 | |
| DL1XH-15 | 2026-08-30 12:05:01 | 49.88350 | 8.31893 | 136° | 2km/h | 24375m | 4m/s | -52.2°C | 3.8% | 29.5hPa | 2.7V | 03:42:08 | 01:34:46 | 00:00:00 | |
| DL1XH-west | 2026-08-30 12:04:59 | 49.88350 | 8.31896 | 276° | 9km/h | 24364m | 6.1m/s | -52.3°C | 0.5% | 29.6hPa | 2.7V | 03:42:33 | 01:34:44 | 00:00:00 | |
| DL1XH1-15 | 2026-08-30 12:04:58 | 49.88350 | 8.31900 | 267° | 13km/h | 24359m | 5.1m/s | -52.2°C | 3.9% | 29.6hPa | 2.6V | 03:42:11 | 01:34:43 | 00:00:00 | |
| DJ2DS-15 | 2026-08-30 12:04:56 | 49.88352 | 8.31910 | 242° | 11km/h | 24349m | 5.7m/s | -52.1°C | 3.8% | 29.6hPa | 2.6V | 00:00:00 | 01:34:41 | 00:00:00 | |
| DL1XH-15 | 2026-08-30 12:04:55 | 49.88358 | 8.31918 | 73° | 7km/h | 24318m | 5.3m/s | -52.3°C | 3.9% | 29.8hPa | 2.7V | 03:42:19 | 01:34:35 | 00:00:00 | |
| DB0DAN | 2026-08-30 12:04:55 | 49.88354 | 8.31915 | 227° | 13km/h | 24343m | 4.5m/s | -52.2°C | 1% | 29.66hPa | 2.7V | 00:00:00 | 00:00:00 | 00:00:00 | |
| BIOWL1-15 | 2026-08-30 12:04:55 | 49.88354 | 8.31915 | 227° | 13km/h | 24343m | 4.5m/s | -52.2°C | 0.4% | 29.7hPa | 2.7V | 03:42:33 | 01:34:40 | 00:00:00 | |
| SFWM-10 | 2026-08-30 12:04:54 | 49.88354 | 8.31914 | 228° | 13km/h | 24344m | 4.5m/s | 0°C | 0% | 0hPa | 2.7V | 03:42:00 | 00:00:00 | 00:00:00 | |
| DL8OAI-8 | 2026-08-30 12:04:53 | 49.88356 | 8.31918 | 220° | 9km/h | 24339m | 4.1m/s | -52.2°C | 1.0% | 29.7hPa | 2.7V | 03:42:00 | 00:00:00 | 00:00:00 | |
| DL1XH1-15 | 2026-08-30 12:04:52 | 49.88358 | 8.31913 | 74° | 4km/h | 24308m | 3.5m/s | -52.1°C | 3.9% | 29.8hPa | 2.7V | 03:42:21 | 01:34:33 | 00:00:00 | |
| DL1XH-west | 2026-08-30 12:04:49 | 49.88358 | 8.31915 | 81° | 7km/h | 24313m | 5.3m/s | -52.2°C | 0.5% | 29.8hPa | 2.7V | 03:42:33 | 01:34:34 | 00:00:00 | |
| BIOWL1-15 | 2026-08-30 12:04:45 | 49.88356 | 8.31918 | 284° | 15km/h | 24294m | 6.1m/s | -52.2°C | 0.5% | 29.9hPa | 2.6V | 03:42:33 | 01:34:30 | 00:00:00 | |
| DO1YAY-16 | 2026-08-30 12:04:44 | 49.88355 | 8.31933 | 273° | 22km/h | 24284m | 4.2m/s | -52.3°C | 1.0% | 29.9hPa | 2.6V | 00:00:00 | 00:00:00 | 00:00:00 | |
| DL1XH-15 | 2026-08-30 12:04:41 | 49.88358 | 8.31955 | 238° | 15km/h | 24268m | 4.8m/s | -52.1°C | 3.7% | 30hPa | 2.6V | 03:42:29 | 01:34:25 | 00:00:00 | |
| DB0DAN | 2026-08-30 12:04:40 | 49.88357 | 8.31955 | 239° | 15km/h | 24268m | 4.8m/s | -52.2°C | 0.9% | 30.01hPa | 2.6V | 00:00:00 | 00:00:00 | 00:00:00 | |
| DL1XH1-15 | 2026-08-30 12:04:38 | 49.88361 | 8.31962 | 238° | 7km/h | 24258m | 6m/s | -52.2°C | 3.7% | 30.1hPa | 2.6V | 03:42:31 | 01:34:23 | 00:00:00 | |
| DL1XH-west | 2026-08-30 12:04:38 | 49.88360 | 8.31962 | 238° | 7km/h | 24258m | 6m/s | -52.2°C | 0.4% | 30.1hPa | 2.6V | 03:42:33 | 01:34:23 | 00:00:00 | |
| AA1-15 | 2026-08-30 12:04:37 | 49.88361 | 8.31964 | 261° | 4km/h | 24252m | 5.3m/s | -52.2°C | 0.4% | 30.1hPa | 2.7V | 03:42:33 | 01:34:22 | 00:00:00 | |
| AU51GT2 | 2026-08-30 12:04:37 | 49.88361 | 8.31965 | 311° | 2km/h | 24248m | 4.2m/s | -52.2°C | 1.0% | 30.1hPa | 2.6V | 00:00:00 | 00:00:00 | 00:00:00 | |
| DL1XH-15 | 2026-08-30 12:04:36 | 49.88353 | 8.31981 | 300° | 24km/h | 24216m | 5.3m/s | -52.4°C | 3.9% | 30.3hPa | 2.6V | 03:42:39 | 01:34:15 | 00:00:00 | |
| BIOWL1-15 | 2026-08-30 12:04:34 | 49.88360 | 8.31966 | 325° | 2km/h | 24237m | 5.2m/s | -52.2°C | 0.5% | 30.2hPa | 2.6V | 03:43:24 | 01:34:19 | 00:00:00 | |
| DD1CC8 | 2026-08-30 12:04:33 | 49.88359 | 8.31967 | 309° | 5km/h | 24233m | 4.5m/s | -52.3°C | 1.0% | 30.2hPa | 2.6V | 00:00:00 | 00:00:00 | 00:00:00 | |
| HEMX73-11 | 2026-08-30 12:04:31 | 49.88356 | 8.31975 | 305° | 18km/h | 24222m | 6.3m/s | -52.4°C | 1.0% | 30.2hPa | 2.6V | 03:43:00 | 00:00:00 | 00:00:00 | |
| DM0DOS-11 | 2026-08-30 12:04:29 | 49.88349 | 8.32025 | 249° | 15km/h | 24186m | 5.3m/s | -52.7°C | 4.1% | 30.4hPa | 2.6V | 03:42:45 | 01:34:09 | 00:00:00 | |
| DL1XH-west | 2026-08-30 12:04:28 | 49.88348 | 8.31998 | 288° | 24km/h | 24207m | 5.5m/s | -52.6°C | 0.5% | 30.3hPa | 2.7V | 03:43:24 | 01:34:13 | 00:00:00 | |
| AA1-15 | 2026-08-30 12:04:26 | 49.88347 | 8.32014 | 260° | 18km/h | 24196m | 4.8m/s | -52.7°C | 0.5% | 30.3hPa | 2.6V | 03:45:06 | 01:34:11 | 00:00:00 | |
| DB0DAN | 2026-08-30 12:04:25 | 49.88348 | 8.32020 | 250° | 15km/h | 24191m | 4.3m/s | -52.7°C | 1% | 30.38hPa | 2.6V | 00:00:00 | 00:00:00 | 00:00:00 | |
| BIOWL1-15 | 2026-08-30 12:04:23 | 49.88350 | 8.32034 | 277° | 11km/h | 24176m | 4.8m/s | -52.7°C | 0.6% | 30.4hPa | 2.7V | 03:43:24 | 01:34:07 | 00:00:00 | |
| DL1XH-15 | 2026-08-30 12:04:21 | 49.88348 | 8.32041 | 310° | 9km/h | 24166m | 4.9m/s | -52.7°C | 4% | 30.5hPa | 2.6V | 03:42:49 | 01:34:05 | 00:00:00 | |
| DL1XH-west | 2026-08-30 12:04:18 | 49.88346 | 8.32045 | 318° | 7km/h | 24156m | 5.4m/s | -52.6°C | 0.6% | 30.5hPa | 2.7V | 03:43:24 | 01:34:03 | 00:00:00 | |
| DJ2DS-15 | 2026-08-30 12:04:16 | 49.88343 | 8.32050 | 301° | 16km/h | 24147m | 4.5m/s | -52.5°C | 3.9% | 30.5hPa | 2.7V | 00:00:00 | 01:34:01 | 00:00:00 | |
| DL1XH-15 | 2026-08-30 12:04:15 | 49.88340 | 8.32093 | 234° | 15km/h | 24117m | 5.7m/s | -52.2°C | 3.8% | 30.7hPa | 2.7V | 03:42:59 | 01:33:55 | 00:00:00 | |
| DM0DOS-11 | 2026-08-30 12:04:15 | 49.88340 | 8.32062 | 288° | 22km/h | 24135m | 5.5m/s | -52.4°C | 3.8% | 30.6hPa | 2.6V | 03:42:55 | 01:33:59 | 00:00:00 | |
| BIOWL1-15 | 2026-08-30 12:04:12 | 49.88338 | 8.32080 | 271° | 22km/h | 24127m | 3.8m/s | -52.3°C | 0.5% | 30.7hPa | 2.6V | 03:43:24 | 01:33:57 | 00:00:00 | |
| DB0DAN | 2026-08-30 12:04:10 | 49.88340 | 8.32093 | 234° | 13km/h | 24117m | 5.7m/s | -52.2°C | 1% | 30.73hPa | 2.7V | 00:00:00 | 00:00:00 | 00:00:00 | |
| DM0DOS-11 | 2026-08-30 12:04:09 | 49.88348 | 8.32097 | 275° | 11km/h | 24088m | 4.8m/s | -52.2°C | 3.9% | 30.9hPa | 2.7V | 03:43:05 | 01:33:49 | 00:00:00 | |
| DL1XH-west | 2026-08-30 12:04:08 | 49.88344 | 8.32096 | 168° | 11km/h | 24106m | 4.9m/s | -52.1°C | 0.5% | 30.8hPa | 2.6V | 03:43:24 | 01:33:53 | 00:00:00 | |
| BIOWL1-15 | 2026-08-30 12:04:02 | 49.88348 | 8.32110 | 264° | 24km/h | 24077m | 6.1m/s | -52.2°C | 0.4% | 30.9hPa | 2.6V | 03:43:24 | 01:33:47 | 00:00:00 | |
| DL1XH-15 | 2026-08-30 12:04:00 | 49.88351 | 8.32131 | 257° | 29km/h | 24066m | 4.5m/s | -52.2°C | 3.8% | 30.9hPa | 2.7V | 03:43:09 | 01:33:45 | 00:00:00 | |
| DL1XH-west | 2026-08-30 12:03:57 | 49.88354 | 8.32160 | 264° | 20km/h | 24052m | 4.8m/s | -52.3°C | 0.4% | 31.1hPa | 2.6V | 03:43:24 | 01:33:42 | 00:00:00 | |
| DM0DOS-11 | 2026-08-30 12:03:56 | 49.88357 | 8.32175 | 217° | 11km/h | 24037m | 5.5m/s | -52.3°C | 3.9% | 31.1hPa | 2.6V | 03:43:15 | 01:33:39 | 00:00:00 | |
| DB0DAN | 2026-08-30 12:03:55 | 49.88355 | 8.32172 | 245° | 11km/h | 24043m | 4.9m/s | -52.3°C | 1% | 31.1hPa | 2.6V | 00:00:00 | 00:00:00 | 00:00:00 | |
| DL3AQ-11 | 2026-08-30 12:03:55 | 49.88357 | 8.32175 | 217° | 9km/h | 24037m | 5.5m/s | -52.3°C | 1.0% | 31.1hPa | 2.7V | 00:00:00 | 00:00:00 | 00:00:00 | |
| DL1XH1-15 | 2026-08-30 12:03:52 | 49.88367 | 8.32180 | 194° | 15km/h | 24022m | 4.6m/s | -52.4°C | 3.9% | 31.2hPa | 2.7V | 03:43:18 | 01:33:36 | 00:00:00 | |
| BIOWL1-15 | 2026-08-30 12:03:51 | 49.88367 | 8.32180 | 195° | 15km/h | 24022m | 4.6m/s | -52.4°C | 0.5% | 31.2hPa | 2.7V | 03:43:24 | 01:33:36 | 00:00:00 | |
| DL1XH-west | 2026-08-30 12:03:47 | 49.88375 | 8.32190 | 245° | 13km/h | 24001m | 5m/s | -52.5°C | 0.6% | 31.3hPa | 2.6V | 03:43:24 | 01:33:32 | 00:00:00 | |
| AA1-15 | 2026-08-30 12:03:46 | 49.88377 | 8.32195 | 245° | 16km/h | 23995m | 6.1m/s | -52.4°C | 0.6% | 31.3hPa | 2.7V | 03:45:06 | 01:33:31 | 00:00:00 | |
| DM0DOS-11 | 2026-08-30 12:03:45 | 49.88381 | 8.32207 | 238° | 16km/h | 23985m | 4.1m/s | -52.5°C | 4% | 31.4hPa | 2.7V | 03:43:25 | 01:33:29 | 00:00:00 | |
| BIOWL1-15 | 2026-08-30 12:03:45 | 49.88387 | 8.32216 | 170° | 9km/h | 23969m | 5.7m/s | -52.6°C | 0.5% | 31.4hPa | 2.6V | 03:44:15 | 01:33:26 | 00:00:00 | |
| DL3AQ-11 | 2026-08-30 12:03:44 | 49.88383 | 8.32212 | 231° | 13km/h | 23981m | 4.9m/s | -52.6°C | 1.0% | 31.4hPa | 2.7V | 00:00:00 | 00:00:00 | 00:00:00 | |
| DL1XH-15 | 2026-08-30 12:03:40 | 49.88390 | 8.32215 | 147° | 13km/h | 23964m | 5.5m/s | -52.5°C | 4% | 31.4hPa | 2.7V | 03:43:29 | 01:33:25 | 00:00:00 | |
| DM0DOS-11 | 2026-08-30 12:03:40 | 49.88412 | 8.32198 | 164° | 9km/h | 23932m | 5.4m/s | -52.2°C | 3.8% | 31.7hPa | 2.7V | 03:43:35 | 01:33:19 | 00:00:00 | |
| DL1XH-west | 2026-08-30 12:03:37 | 49.88401 | 8.32205 | 155° | 20km/h | 23948m | 4.2m/s | -52.3°C | 0.5% | 31.6hPa | 2.6V | 03:44:15 | 01:33:22 | 00:00:00 | |
| AA1-15 | 2026-08-30 12:03:35 | 49.88409 | 8.32199 | 155° | 13km/h | 23937m | 6.1m/s | -52.2°C | 0.5% | 31.6hPa | 2.7V | 03:45:06 | 01:33:20 | 00:00:00 | |
| DL1XH-15 | 2026-08-30 12:03:35 | 49.88419 | 8.32201 | 198° | 7km/h | 23911m | 4.2m/s | -52°C | 3.8% | 31.7hPa | 2.6V | 03:43:39 | 01:33:15 | 00:00:00 | |
| BIOWL1-15 | 2026-08-30 12:03:30 | 49.88419 | 8.32201 | 198° | 7km/h | 23911m | 4.2m/s | -52°C | 0.5% | 31.7hPa | 2.6V | 03:44:15 | 01:33:15 | 00:00:00 | |
| DL1XH-west | 2026-08-30 12:03:26 | 49.88421 | 8.32194 | 94° | 11km/h | 23891m | 4.2m/s | -51.9°C | 0.4% | 31.8hPa | 2.7V | 03:44:15 | 01:33:11 | 00:00:00 | |
| AA1-15 | 2026-08-30 12:03:24 | 49.88423 | 8.32186 | 133° | 13km/h | 23882m | 5.7m/s | -51.9°C | 0.5% | 0hPa | 2.6V | 03:45:06 | 01:33:09 | 00:00:00 | |
| DL1XH1-15 | 2026-08-30 12:03:24 | 49.88433 | 8.32183 | 193° | 13km/h | 23866m | 4.9m/s | -52°C | 3.8% | 31.9hPa | 2.7V | 03:43:48 | 01:33:06 | 00:00:00 | |
| BIOWL1-15 | 2026-08-30 12:03:22 | 49.88436 | 8.32184 | 203° | 11km/h | 23862m | 5.2m/s | -52°C | 0.4% | 32hPa | 2.7V | 03:44:15 | 01:33:05 | 00:00:00 | |
| DL1XH-west | 2026-08-30 12:03:16 | 49.88442 | 8.32185 | 140° | 7km/h | 23842m | 5.3m/s | -51.9°C | 0.4% | 32.1hPa | 2.6V | 03:44:15 | 01:33:01 | 00:00:00 | |
| DJ2DS-15 | 2026-08-30 12:03:16 | 49.88442 | 8.32185 | 141° | 9km/h | 23842m | 5.2m/s | -51.8°C | 3.8% | 32.1hPa | 2.6V | 00:00:00 | 01:33:01 | 00:00:00 | |
| BIOWL7-15 | 2026-08-30 12:03:14 | 49.88443 | 8.32183 | 141° | 7km/h | 23837m | 4.7m/s | -51.9°C | 1.0% | 32.1hPa | 2.6V | 00:00:00 | 00:00:00 | 00:00:00 | |
| DL1XH1-15 | 2026-08-30 12:03:12 | 49.88446 | 8.32178 | 30° | 4km/h | 23817m | 4.8m/s | -52.2°C | 3.8% | 32.2hPa | 2.6V | 03:43:58 | 01:32:56 | 00:00:00 | |
| AA1-15 | 2026-08-30 12:03:12 | 49.88446 | 8.32178 | 30° | 4km/h | 23817m | 4.8m/s | -52.2°C | 0.5% | 0hPa | 2.6V | 03:45:06 | 01:32:56 | 00:00:00 | |
| BIOWL1-15 | 2026-08-30 12:03:09 | 49.88444 | 8.32176 | 76° | 5km/h | 23808m | 4.7m/s | -52.2°C | 0.5% | 32.2hPa | 2.7V | 03:44:15 | 01:32:54 | 00:00:00 | |
| DL1XH-15 | 2026-08-30 12:03:08 | 49.88449 | 8.32168 | 156° | 15km/h | 23792m | 5m/s | -52.3°C | 3.9% | 32.3hPa | 2.6V | 03:44:03 | 01:32:51 | 00:00:00 | |
| DL0LBS | 2026-08-30 12:03:07 | 49.88445 | 8.32173 | 111° | 7km/h | 23803m | 5.4m/s | -52.3°C | 1.0% | 32.3hPa | 2.7V | 03:44:00 | 00:00:00 | 00:00:00 | |
| DL1XH1-15 | 2026-08-30 12:03:06 | 49.88462 | 8.32176 | 273° | 9km/h | 23768m | 5m/s | -52.3°C | 4% | 32.4hPa | 2.7V | 03:44:08 | 01:32:46 | 00:00:00 | |
| DL1XH-west | 2026-08-30 12:03:05 | 49.88452 | 8.32166 | 176° | 16km/h | 23788m | 4.6m/s | -52.3°C | 0.5% | 32.4hPa | 2.6V | 03:44:15 | 01:32:50 | 00:00:00 | |
| DL3AQ-11 | 2026-08-30 12:03:04 | 49.88459 | 8.32169 | 218° | 13km/h | 23778m | 4.8m/s | -52.4°C | 1.0% | 32.4hPa | 2.6V | 00:00:00 | 00:00:00 | 00:00:00 | |
| AU51GT2 | 2026-08-30 12:03:03 | 49.88459 | 8.32169 | 218° | 13km/h | 23778m | 4.8m/s | -52.4°C | 1.0% | 32.4hPa | 2.6V | 00:00:00 | 00:00:00 | 00:00:00 | |
| DM0DOS-11 | 2026-08-30 12:03:01 | 49.88461 | 8.32179 | 310° | 5km/h | 23763m | 5.5m/s | -52.3°C | 3.9% | 32.5hPa | 2.6V | 03:44:09 | 01:32:45 | 00:00:00 | |
| BIOWL1-15 | 2026-08-30 12:03:01 | 49.88458 | 8.32176 | 69° | 7km/h | 23748m | 4.4m/s | -52.3°C | 0.5% | 32.5hPa | 2.6V | 03:44:15 | 01:32:42 | 00:00:00 | |
| AA1-15 | 2026-08-30 12:02:55 | 49.88458 | 8.32173 | 155° | 5km/h | 23738m | 5.5m/s | 0°C | 0% | 0hPa | 2.7V | 03:45:06 | 01:32:40 | 00:00:00 | |
| DL1XH1-15 | 2026-08-30 12:02:54 | 49.88465 | 8.32177 | 144° | 0km/h | 23711m | 5.5m/s | -52.2°C | 3.9% | 32.7hPa | 2.7V | 03:44:19 | 01:32:35 | 00:00:00 | |
| DL1XH-west | 2026-08-30 12:02:54 | 49.88460 | 8.32173 | 194° | 7km/h | 23733m | 5.2m/s | -52.3°C | 0.6% | 32.6hPa | 2.7V | 03:44:15 | 01:32:39 | 00:00:00 | |
| BIOWL1-15 | 2026-08-30 12:02:49 | 49.88463 | 8.32175 | 31° | 4km/h | 23696m | 5.8m/s | -52.1°C | 0.5% | 32.8hPa | 2.6V | 03:45:06 | 01:32:32 | 00:00:00 | |
| DL3AQ-11 | 2026-08-30 12:02:48 | 49.88463 | 8.32175 | 31° | 4km/h | 23696m | 5.8m/s | -52.1°C | 1.0% | 32.8hPa | 2.7V | 00:00:00 | 00:00:00 | 00:00:00 | |
| DB0ND-19 | 2026-08-30 12:02:46 | 49.88462 | 8.32175 | 48° | 2km/h | 23691m | 5.0m/s | -52.2°C | 1.0% | 32.8hPa | 2.7V | 00:00:00 | 00:00:00 | 00:00:00 | |
| DM3KS-11 | 2026-08-30 12:02:45 | 49.88462 | 8.32173 | 66° | 4km/h | 23686m | 4.5m/s | -52.2°C | 1.0% | 32.9hPa | 2.7V | 00:00:00 | 00:00:00 | 00:00:00 | |
| AA1-15 | 2026-08-30 12:02:44 | 49.88461 | 8.32171 | 72° | 7km/h | 23681m | 5.7m/s | 0°C | 0% | 0hPa | 2.7V | 03:45:06 | 01:32:29 | 00:00:00 | |
| DL1XH-west | 2026-08-30 12:02:43 | 49.88461 | 8.32167 | 73° | 11km/h | 23675m | 5.4m/s | -52.2°C | 0.5% | 32.9hPa | 2.7V | 03:45:06 | 01:32:28 | 00:00:00 | |
| DL1XH1-15 | 2026-08-30 12:02:41 | 49.88459 | 8.32158 | 85° | 4km/h | 23662m | 5.9m/s | -52.1°C | 3.9% | 33hPa | 2.6V | 03:44:29 | 01:32:25 | 00:00:00 | |
| DM0DOS-11 | 2026-08-30 12:02:40 | 49.88459 | 8.32157 | 155° | 2km/h | 23656m | 5.2m/s | -52.1°C | 3.9% | 33hPa | 2.6V | 03:44:30 | 01:32:24 | 00:00:00 | |
| BIOWL1-15 | 2026-08-30 12:02:36 | 49.88461 | 8.32155 | 105° | 5km/h | 23642m | 5.8m/s | -52.1°C | 0.5% | 33.1hPa | 2.7V | 03:45:06 | 01:32:21 | 00:00:00 | |
| DL1XH-west | 2026-08-30 12:02:33 | 49.88459 | 8.32141 | 65° | 16km/h | 23626m | 4.8m/s | -52.2°C | 0.5% | 33.2hPa | 2.6V | 03:45:06 | 01:32:18 | 00:00:00 | |
| AU51GT2 | 2026-08-30 12:02:32 | 49.88457 | 8.32136 | 55° | 15km/h | 23621m | 5.2m/s | -52.1°C | 1.0% | 33.2hPa | 2.6V | 00:00:00 | 00:00:00 | 00:00:00 | |
| DL8OAI-8 | 2026-08-30 12:02:31 | 49.88457 | 8.32136 | 56° | 15km/h | 23621m | 5.2m/s | -52.1°C | 1.1% | 33.2hPa | 2.6V | 03:45:00 | 00:00:00 | 00:00:00 | |
| DM0DOS-11 | 2026-08-30 12:02:30 | 49.88448 | 8.32125 | 30° | 9km/h | 23600m | 5.7m/s | -52°C | 3.8% | 33.3hPa | 2.6V | 03:44:41 | 01:32:13 | 00:00:00 | |
| DD1CC8 | 2026-08-30 12:02:30 | 49.88447 | 8.32125 | 30° | 9km/h | 23600m | 5.7m/s | -52.0°C | 1.0% | 33.3hPa | 2.6V | 00:00:00 | 00:00:00 | 00:00:00 | |
| DL1XH-15 | 2026-08-30 12:02:27 | 49.88445 | 8.32120 | 246° | 2km/h | 23569m | 4.4m/s | -52°C | 3.8% | 33.5hPa | 2.6V | 03:44:47 | 01:32:07 | 00:00:00 | |
| BIOWL1-15 | 2026-08-30 12:02:26 | 49.88444 | 8.32121 | 53° | 5km/h | 23589m | 4.5m/s | -52.1°C | 0.4% | 33.4hPa | 2.6V | 03:45:06 | 01:32:11 | 00:00:00 | |
| DL1XH-west | 2026-08-30 12:02:23 | 49.88444 | 8.32120 | 233° | 4km/h | 23574m | 4.9m/s | -52°C | 0.4% | 33.4hPa | 2.6V | 03:45:06 | 01:32:08 | 00:00:00 | |
| AA1-15 | 2026-08-30 12:02:22 | 49.88445 | 8.32120 | 246° | 2km/h | 23569m | 4.4m/s | 0°C | 0% | 0hPa | 2.6V | 03:45:06 | 01:32:07 | 00:00:00 | |
| DL1XH1-15 | 2026-08-30 12:02:21 | 49.88443 | 8.32119 | 39° | 9km/h | 23559m | 5.7m/s | -51.9°C | 3.8% | 33.5hPa | 2.7V | 03:44:49 | 01:32:05 | 00:00:00 | |
| BIOWL1-15 | 2026-08-30 12:02:15 | 49.88426 | 8.32107 | 17° | 18km/h | 23533m | 4m/s | -52.1°C | 0.5% | 33.6hPa | 2.6V | 03:45:06 | 01:32:00 | 00:00:00 | |
| DL1XH1-15 | 2026-08-30 12:02:14 | 49.88414 | 8.32095 | 20° | 0km/h | 23508m | 6.2m/s | -52.4°C | 3.8% | 33.8hPa | 2.6V | 03:44:59 | 01:31:55 | 00:00:00 | |
| DL1XH-west | 2026-08-30 12:02:12 | 49.88416 | 8.32098 | 41° | 11km/h | 23518m | 4.5m/s | -52.2°C | 0.4% | 33.7hPa | 2.7V | 03:45:06 | 01:31:57 | 00:00:00 | |
| AA1-15 | 2026-08-30 12:02:10 | 49.88414 | 8.32095 | 21° | 0km/h | 23508m | 6.2m/s | 0°C | 0% | 0hPa | 2.6V | 03:45:06 | 01:31:55 | 00:00:00 | |
| DM0DOS-11 | 2026-08-30 12:02:10 | 49.88414 | 8.32096 | 238° | 4km/h | 23503m | 5.3m/s | -52.4°C | 3.8% | 33.8hPa | 2.6V | 03:45:00 | 01:31:54 | 00:00:00 | |
| BIOWL1-15 | 2026-08-30 12:02:04 | 49.88412 | 8.32098 | 13° | 13km/h | 23479m | 4.8m/s | -52.5°C | 0.5% | 34hPa | 2.7V | 03:45:06 | 01:31:49 | 00:00:00 | |
| DL1XH-west | 2026-08-30 12:02:01 | 49.88398 | 8.32096 | 3° | 24km/h | 23463m | 4.6m/s | -52.5°C | 0.5% | 34hPa | 2.6V | 03:45:57 | 01:31:46 | 00:00:00 | |
| DL1XH-15 | 2026-08-30 12:02:00 | 49.88386 | 8.32094 | 14° | 22km/h | 23453m | 5.4m/s | -52.4°C | 3.9% | 34.1hPa | 2.7V | 03:45:10 | 01:31:44 | 00:00:00 | |
| DM0DOS-11 | 2026-08-30 12:02:00 | 49.88377 | 8.32089 | 15° | 16km/h | 23444m | 4.1m/s | -52.5°C | 4% | 34.1hPa | 2.6V | 03:45:12 | 01:31:42 | 00:00:00 | |
| AA1-15 | 2026-08-30 12:02:00 | 49.88392 | 8.32095 | 8° | 24km/h | 23458m | 4.9m/s | 0°C | 0% | 0hPa | 2.7V | 18:12:15 | 01:31:45 | 00:00:00 | |
| DL9SK-14 | 2026-08-30 12:01:59 | 49.88381 | 8.32091 | 18° | 18km/h | 23449m | 4.4m/s | -52.5°C | 1.0% | 34.1hPa | 2.6V | 00:00:00 | 00:00:00 | 00:00:00 | |
| DD1CC8 | 2026-08-30 12:01:58 | 49.88377 | 8.32089 | 15° | 16km/h | 23444m | 4.1m/s | -52.5°C | 1.0% | 34.1hPa | 2.6V | 00:00:00 | 00:00:00 | 00:00:00 | |
| DL8DAS-14 | 2026-08-30 12:01:55 | 49.88369 | 8.32089 | 346° | 13km/h | 23434m | 5.7m/s | -52.5°C | 1.0% | 34.2hPa | 2.6V | 00:00:00 | 00:00:00 | 00:00:00 | |
| DL1XH-15 | 2026-08-30 12:01:54 | 49.88348 | 8.32094 | 357° | 18km/h | 23403m | 5.6m/s | -52.6°C | 3.9% | 34.4hPa | 2.6V | 03:45:20 | 01:31:34 | 00:00:00 | |
| BIOWL1-15 | 2026-08-30 12:01:53 | 49.88362 | 8.32092 | 340° | 15km/h | 23424m | 4.7m/s | -52.5°C | 0.5% | 34.2hPa | 2.7V | 03:45:57 | 01:31:38 | 00:00:00 | |
| DL1XH-west | 2026-08-30 12:01:51 | 49.88356 | 8.32094 | 0° | 13km/h | 23413m | 4.9m/s | -52.5°C | 0.5% | 34.3hPa | 2.6V | 03:45:57 | 01:31:36 | 00:00:00 | |
| DL4BBY-15 | 2026-08-30 12:01:51 | 49.88356 | 8.32094 | 1° | 20km/h | 23413m | 4.8m/s | -53.7°C | 0% | 0hPa | 2.7V | 00:00:00 | 00:00:00 | 00:00:00 | |
| DM0DOS-11 | 2026-08-30 12:01:50 | 49.88338 | 8.32096 | 353° | 22km/h | 23393m | 4.6m/s | -52.6°C | 3.9% | 34.4hPa | 2.7V | 03:45:22 | 01:31:32 | 00:00:00 | |
| AA1-15 | 2026-08-30 12:01:48 | 49.88343 | 8.32095 | 353° | 22km/h | 23398m | 5.1m/s | 0°C | 0% | 0hPa | 2.7V | 18:12:15 | 01:31:33 | 00:00:00 | |
| BIOWL1-15 | 2026-08-30 12:01:43 | 49.88316 | 8.32098 | 352° | 22km/h | 23374m | 3.9m/s | -52.6°C | 0.5% | 34.5hPa | 2.6V | 03:45:57 | 01:31:28 | 00:00:00 | |
| DL1XH-west | 2026-08-30 12:01:40 | 49.88300 | 8.32107 | 333° | 26km/h | 23358m | 4.8m/s | -52.6°C | 0.5% | 34.6hPa | 2.6V | 03:45:57 | 01:31:25 | 00:00:00 | |
| DM0DOS-11 | 2026-08-30 12:01:38 | 49.88272 | 8.32124 | 332° | 16km/h | 23325m | 5.2m/s | -52.6°C | 3.9% | 34.8hPa | 2.7V | 03:45:36 | 01:31:18 | 00:00:00 | |
| DL1XH-15 | 2026-08-30 12:01:38 | 49.88275 | 8.32122 | 342° | 15km/h | 23329m | 4.8m/s | -52.5°C | 3.9% | 34.8hPa | 2.6V | 03:45:35 | 01:31:19 | 00:00:00 | |
| AA1-15 | 2026-08-30 12:01:37 | 49.88285 | 8.32118 | 341° | 16km/h | 23344m | 5.6m/s | 0°C | 0% | 0hPa | 2.7V | 18:12:15 | 01:31:22 | 00:00:00 | |
| DO1YAY-16 | 2026-08-30 12:01:37 | 49.88285 | 8.32118 | 340° | 15km/h | 23344m | 5.6m/s | -52.5°C | 1.0% | 34.7hPa | 2.7V | 00:00:00 | 00:00:00 | 00:00:00 | |
| DJ2DS-15 | 2026-08-30 12:01:36 | 49.88282 | 8.32119 | 348° | 20km/h | 23339m | 4.7m/s | -52.5°C | 3.9% | 34.6hPa | 2.7V | 00:00:00 | 01:31:21 | 00:00:00 | |
| DL1XH1-15 | 2026-08-30 12:01:32 | 49.88268 | 8.32127 | 325° | 18km/h | 23320m | 4.6m/s | -52.6°C | 3.9% | 34.8hPa | 2.7V | 03:45:37 | 01:31:17 | 00:00:00 | |
| DL1XH-west | 2026-08-30 12:01:30 | 49.88260 | 8.32136 | 327° | 20km/h | 23311m | 4.6m/s | -52.6°C | 0.5% | 34.9hPa | 2.6V | 03:45:57 | 01:31:15 | 00:00:00 | |
| AA1-15 | 2026-08-30 12:01:27 | 49.88246 | 8.32144 | 353° | 20km/h | 23296m | 4.9m/s | 0°C | 0% | 0hPa | 2.7V | 18:12:15 | 01:31:12 | 00:00:00 | |
| DB0DAN | 2026-08-30 12:01:25 | 49.88235 | 8.32147 | 345° | 24km/h | 23286m | 5.6m/s | -52.7°C | 1% | 34.99hPa | 2.6V | 00:00:00 | 00:00:00 | 00:00:00 | |
| BIOWL1-15 | 2026-08-30 12:01:22 | 49.88157 | 8.32207 | 339° | 16km/h | 23203m | 4.6m/s | -52.9°C | 0.5% | 35.5hPa | 2.7V | 03:46:48 | 01:30:53 | 00:00:00 | |
| DL1XH-west | 2026-08-30 12:01:20 | 49.88207 | 8.32171 | 321° | 22km/h | 23261m | 4.7m/s | -52.9°C | 0.6% | 35.1hPa | 2.6V | 03:45:57 | 01:31:05 | 00:00:00 | |
| BIOWL1-15 | 2026-08-30 12:01:19 | 49.88154 | 8.32209 | 340° | 15km/h | 23198m | 5.8m/s | -53°C | 0.5% | 35.5hPa | 2.7V | 03:46:48 | 01:30:52 | 00:00:00 | |
| DB0UT-7 | 2026-08-30 12:01:19 | 49.88203 | 8.32177 | 315° | 15km/h | 23256m | 4.8m/s | -52.8°C | 4.0% | 35.1hPa | 2.6V | 03:45:00 | 01:31:04 | 00:00:00 | |
| DL1XH1-15 | 2026-08-30 12:01:17 | 49.88176 | 8.32202 | 2° | 18km/h | 23222m | 5.2m/s | -53°C | 4% | 35.4hPa | 2.6V | 03:45:57 | 01:30:57 | 00:00:00 | |
| AA1-15 | 2026-08-30 12:01:15 | 49.88188 | 8.32200 | 332° | 16km/h | 23236m | 6m/s | 0°C | 0% | 0hPa | 2.7V | 18:12:15 | 01:31:00 | 00:00:00 | |
| DL3AQ-11 | 2026-08-30 12:01:15 | 49.88184 | 8.32201 | 351° | 15km/h | 23231m | 5.1m/s | -53.0°C | 1.0% | 35.3hPa | 2.6V | 00:00:00 | 00:00:00 | 00:00:00 | |
| DB0ND-19 | 2026-08-30 12:01:13 | 49.88180 | 8.32202 | 1° | 16km/h | 23226m | 4.0m/s | -52.9°C | 1.0% | 35.3hPa | 2.6V | 00:00:00 | 00:00:00 | 00:00:00 | |
| DB0DAN | 2026-08-30 12:01:10 | 49.88166 | 8.32203 | 348° | 18km/h | 23212m | 4.4m/s | -52.9°C | 1.1% | 35.41hPa | 2.6V | 00:00:00 | 00:00:00 | 00:00:00 | |
| DL1XH-west | 2026-08-30 12:01:09 | 49.88162 | 8.32205 | 342° | 20km/h | 23207m | 3.8m/s | -53°C | 0.6% | 35.4hPa | 2.7V | 03:46:48 | 01:30:54 | 00:00:00 | |
| DJ2KF-10 | 2026-08-30 12:01:09 | 49.88162 | 8.32205 | 342° | 13km/h | 23208m | 3.8m/s | -53.0°C | 4.0% | 35.3hPa | 2.7V | 03:46:00 | 01:30:54 | 00:00:00 | |
| BIOWL9-15 | 2026-08-30 12:01:07 | 49.88151 | 8.32211 | 339° | 11km/h | 23193m | 5.1m/s | -53.0°C | 1.0% | 35.5hPa | 2.7V | 00:00:00 | 00:00:00 | 00:00:00 | |
| DO1YAY-16 | 2026-08-30 12:01:06 | 49.88151 | 8.32211 | 339° | 11km/h | 23193m | 5.1m/s | -53.0°C | 1.0% | 35.5hPa | 2.7V | 00:00:00 | 00:00:00 | 00:00:00 | |
| DF7PN | 2026-08-30 12:01:05 | 49.88148 | 8.32213 | 335° | 9km/h | 23188m | 4.4m/s | -52.9°C | 1.0% | 35.5hPa | 2.7V | 00:00:00 | 00:00:00 | 00:00:00 | |
| DL0LBS | 2026-08-30 12:01:03 | 49.88146 | 8.32214 | 331° | 11km/h | 23184m | 4.4m/s | -53.0°C | 1.1% | 35.6hPa | 2.7V | 03:46:00 | 00:00:00 | 00:00:00 | |
| DM0DOS-11 | 2026-08-30 12:01:01 | 49.88126 | 8.32239 | 323° | 9km/h | 23143m | 5.7m/s | -53°C | 4% | 35.8hPa | 2.7V | 03:46:13 | 01:30:41 | 00:00:00 | |
| DL1XH-west | 2026-08-30 12:00:59 | 49.88131 | 8.32233 | 319° | 11km/h | 23158m | 5.8m/s | -52.9°C | 0.5% | 35.7hPa | 2.6V | 03:46:48 | 01:30:44 | 00:00:00 | |
| BIOWL1-15 | 2026-08-30 12:00:59 | 49.88126 | 8.32239 | 323° | 9km/h | 23143m | 5.7m/s | -53°C | 0.6% | 35.8hPa | 2.7V | 03:46:48 | 01:30:41 | 00:00:00 | |
| DD1CC8 | 2026-08-30 12:00:56 | 49.88124 | 8.32241 | 331° | 7km/h | 23138m | 4.2m/s | -52.9°C | 1.0% | 35.8hPa | 2.7V | 00:00:00 | 00:00:00 | 00:00:00 | |
| DL8DAS-14 | 2026-08-30 12:00:54 | 49.88120 | 8.32242 | 24° | 5km/h | 23129m | 6.1m/s | -53.0°C | 1.0% | 35.9hPa | 2.7V | 00:00:00 | 00:00:00 | 00:00:00 | |
| DH7VM-15 | 2026-08-30 12:00:52 | 49.88120 | 8.32242 | 26° | 7km/h | 23129m | 6.1m/s | -53.0°C | 1.0% | 35.9hPa | 2.7V | 00:00:00 | 00:00:00 | 00:00:00 | |
| DL1XH1-15 | 2026-08-30 12:00:51 | 49.88116 | 8.32236 | 32° | 7km/h | 23113m | 5m/s | -52.9°C | 3.9% | 35.9hPa | 2.7V | 03:46:19 | 01:30:35 | 00:00:00 | |
| DL1XH-west | 2026-08-30 12:00:49 | 49.88115 | 8.32235 | 359° | 7km/h | 23108m | 5.5m/s | -52.9°C | 0.5% | 36hPa | 2.7V | 03:46:48 | 01:30:34 | 00:00:00 | |
| DL1XH-15 | 2026-08-30 12:00:48 | 49.88102 | 8.32244 | 347° | 13km/h | 23079m | 5m/s | -52.9°C | 4% | 36.1hPa | 2.6V | 03:46:26 | 01:30:28 | 00:00:00 | |
| BIOWL1-15 | 2026-08-30 12:00:47 | 49.88107 | 8.32241 | 333° | 7km/h | 23089m | 5.1m/s | -52.8°C | 0.6% | 36.1hPa | 2.7V | 03:46:48 | 01:30:30 | 00:00:00 | |
| DL1XH1-15 | 2026-08-30 12:00:45 | 49.88091 | 8.32247 | 350° | 16km/h | 23064m | 4m/s | -53°C | 4% | 36.2hPa | 2.7V | 03:46:29 | 01:30:25 | 00:00:00 | |
| DL1XH-west | 2026-08-30 12:00:38 | 49.88084 | 8.32248 | 359° | 9km/h | 23054m | 5.5m/s | -53°C | 0.5% | 36.3hPa | 2.6V | 03:46:48 | 01:30:23 | 00:00:00 | |
| BIOWL1-15 | 2026-08-30 12:00:36 | 49.88071 | 8.32255 | 344° | 11km/h | 23020m | 5.9m/s | -53.2°C | 0.6% | 36.5hPa | 2.7V | 03:46:48 | 01:30:16 | 00:00:00 | |
| BIOWL9-15 | 2026-08-30 12:00:36 | 49.88079 | 8.32249 | 334° | 5km/h | 23040m | 5.0m/s | -53.1°C | 1.0% | 36.4hPa | 2.6V | 00:00:00 | 00:00:00 | 00:00:00 | |
| DL3AQ-11 | 2026-08-30 12:00:35 | 49.88078 | 8.32250 | 330° | 7km/h | 23035m | 5.1m/s | -53.1°C | 1.0% | 36.4hPa | 2.6V | 00:00:00 | 00:00:00 | 00:00:00 | |
| DF7PN | 2026-08-30 12:00:34 | 49.88078 | 8.32250 | 330° | 7km/h | 23035m | 5.1m/s | -53.1°C | 1.0% | 36.4hPa | 2.6V | 00:00:00 | 00:00:00 | 00:00:00 | |
| DH7VM-15 | 2026-08-30 12:00:31 | 49.88073 | 8.32254 | 337° | 11km/h | 23026m | 4.4m/s | -53.2°C | 1.1% | 36.5hPa | 2.6V | 00:00:00 | 00:00:00 | 00:00:00 | |
| DL8OAI-8 | 2026-08-30 12:00:28 | 49.88061 | 8.32254 | 13° | 20km/h | 23006m | 5.1m/s | -53.2°C | 1.1% | 36.5hPa | 2.6V | 03:46:00 | 00:00:00 | 00:00:00 | |
| DJTTGO | 2026-08-30 12:00:27 | 49.88061 | 8.32254 | 13° | 20km/h | 23006m | 5.1m/s | -53.2°C | 1.1% | 36.5hPa | 2.6V | 00:00:00 | 00:00:00 | 00:00:00 | |
| DL1XH-west | 2026-08-30 12:00:27 | 49.88055 | 8.32252 | 13° | 24km/h | 23000m | 5.7m/s | -53.1°C | 0.6% | 36.6hPa | 2.6V | 03:46:48 | 01:30:12 | 00:00:00 | |
| DL1XH1-15 | 2026-08-30 12:00:26 | 49.88020 | 8.32236 | 347° | 15km/h | 22966m | 5.6m/s | -53.4°C | 4% | 36.8hPa | 2.6V | 03:46:49 | 01:30:05 | 00:00:00 | |
| BIOWL1-15 | 2026-08-30 12:00:26 | 49.88036 | 8.32243 | 22° | 26km/h | 22985m | 5.5m/s | -53.3°C | 0.6% | 36.7hPa | 2.7V | 03:46:48 | 01:30:09 | 00:00:00 | |
| DB0DAN | 2026-08-30 12:00:25 | 49.88043 | 8.32247 | 19° | 26km/h | 22990m | 4.7m/s | -53.3°C | 1.1% | 36.63hPa | 2.7V | 00:00:00 | 00:00:00 | 00:00:00 | |
| DL1XH-west | 2026-08-30 12:00:17 | 49.88011 | 8.32241 | 349° | 9km/h | 22951m | 5.7m/s | -53.5°C | 0.6% | 36.9hPa | 2.7V | 03:47:39 | 01:30:02 | 00:00:00 | |
| BIOWL1-15 | 2026-08-30 12:00:17 | 49.88006 | 8.32240 | 17° | 15km/h | 22942m | 4m/s | -53.4°C | 0.6% | 36.9hPa | 2.6V | 03:47:39 | 01:30:00 | 00:00:00 | |
| DL1XH1-15 | 2026-08-30 12:00:15 | 49.87978 | 8.32235 | 0° | 24km/h | 22917m | 5.6m/s | -53.4°C | 4.1% | 37.1hPa | 2.6V | 03:46:59 | 01:29:55 | 00:00:00 | |
| BIOWL1-15 | 2026-08-30 12:00:10 | 49.87954 | 8.32253 | 314° | 15km/h | 22887m | 4.3m/s | -53.6°C | 0.6% | 37.2hPa | 2.7V | 03:47:39 | 01:29:49 | 00:00:00 | |
| DL1XH-west | 2026-08-30 12:00:06 | 49.87960 | 8.32244 | 317° | 18km/h | 22897m | 5.9m/s | -53.5°C | 0.6% | 37.2hPa | 2.6V | 03:47:39 | 01:29:51 | 00:00:00 | |
| DL1XH-west | 2026-08-30 11:59:56 | 49.87919 | 8.32256 | 357° | 26km/h | 22848m | 5m/s | -53.7°C | 0.6% | 37.5hPa | 2.6V | 03:47:39 | 01:29:41 | 00:00:00 | |
| DJ2DS-15 | 2026-08-30 11:59:56 | 49.87919 | 8.32256 | 357° | 20km/h | 22849m | 4.9m/s | -53.6°C | 4.2% | 37.4hPa | 2.6V | 03:47:00 | 01:29:41 | 00:00:00 | |
| DL1XH1-15 | 2026-08-30 11:59:55 | 49.87882 | 8.32284 | 311° | 22km/h | 22815m | 4.8m/s | -53.8°C | 4.1% | 37.7hPa | 2.6V | 03:47:20 | 01:29:34 | 00:00:00 | |
| BIOWL1-15 | 2026-08-30 11:59:54 | 49.87907 | 8.32258 | 347° | 24km/h | 22839m | 4.6m/s | -53.7°C | 0.7% | 37.5hPa | 2.7V | 03:47:39 | 01:29:39 | 00:00:00 | |
| DD1CC8 | 2026-08-30 11:59:53 | 49.87902 | 8.32261 | 337° | 22km/h | 22834m | 4.7m/s | -53.8°C | 1.1% | 37.6hPa | 2.6V | 00:00:00 | 00:00:00 | 00:00:00 | |
| DL8DAS-14 | 2026-08-30 11:59:51 | 49.87891 | 8.32271 | 321° | 26km/h | 22824m | 4.8m/s | -53.9°C | 1.1% | 37.6hPa | 2.6V | 00:00:00 | 00:00:00 | 00:00:00 | |
| BIOWL1-15 | 2026-08-30 11:59:45 | 49.87865 | 8.32306 | 335° | 20km/h | 22785m | 4.5m/s | -53.7°C | 0.7% | 37.9hPa | 2.6V | 03:47:39 | 01:29:28 | 00:00:00 | |
| DL1XH-west | 2026-08-30 11:59:45 | 49.87872 | 8.32299 | 328° | 13km/h | 22795m | 5.4m/s | -53.8°C | 0.7% | 37.8hPa | 2.7V | 03:47:39 | 01:29:30 | 00:00:00 | |
| DL1XH1-15 | 2026-08-30 11:59:44 | 49.87845 | 8.32318 | 333° | 20km/h | 22765m | 4.7m/s | -53.6°C | 4.2% | 38hPa | 2.6V | 03:47:30 | 01:29:24 | 00:00:00 | |
| HEMX73-11 | 2026-08-30 11:59:43 | 49.87869 | 8.32302 | 333° | 16km/h | 22790m | 5.2m/s | -53.8°C | 1.1% | 37.8hPa | 2.6V | 03:47:00 | 00:00:00 | 00:00:00 | |
| DL0LBS | 2026-08-30 11:59:41 | 49.87860 | 8.32309 | 339° | 22km/h | 22781m | 4.1m/s | -53.6°C | 1.1% | 37.9hPa | 2.6V | 03:47:00 | 00:00:00 | 00:00:00 | |
| DB0ND-19 | 2026-08-30 11:59:40 | 49.87850 | 8.32315 | 338° | 20km/h | 22771m | 5.5m/s | -53.6°C | 1.1% | 37.9hPa | 2.6V | 00:00:00 | 00:00:00 | 00:00:00 | |
| DM3KS-11 | 2026-08-30 11:59:39 | 49.87841 | 8.32322 | 325° | 20km/h | 22761m | 4.6m/s | -53.7°C | 1.1% | 38.0hPa | 2.6V | 00:00:00 | 00:00:00 | 00:00:00 | |
| DL1ZP-14 | 2026-08-30 11:59:38 | 49.87841 | 8.32322 | 325° | 20km/h | 22761m | 4.6m/s | -53.7°C | 1.1% | 38.0hPa | 2.6V | 00:00:00 | 00:00:00 | 00:00:00 | |
| DC4HF-4 | 2026-08-30 11:59:37 | 49.87836 | 8.32327 | 318° | 22km/h | 22756m | 5.9m/s | -53.8°C | 1.1% | 38.0hPa | 2.7V | 00:00:00 | 00:00:00 | 00:00:00 | |
| DL1XH-15 | 2026-08-30 11:59:36 | 49.87819 | 8.32364 | 303° | 15km/h | 22724m | 4.6m/s | -53.7°C | 4.2% | 38.2hPa | 2.7V | 03:47:38 | 01:29:16 | 00:00:00 | |
| BIOWL1-15 | 2026-08-30 11:59:35 | 49.87823 | 8.32354 | 302° | 16km/h | 22734m | 5.8m/s | -53.7°C | 0.6% | 38.1hPa | 2.6V | 03:47:39 | 01:29:18 | 00:00:00 | |
| DL1XH-west | 2026-08-30 11:59:34 | 49.87826 | 8.32348 | 302° | 20km/h | 22740m | 5.5m/s | -53.7°C | 0.6% | 38.1hPa | 2.6V | 03:47:39 | 01:29:19 | 00:00:00 | |
| BIOWL9-15 | 2026-08-30 11:59:34 | 49.87823 | 8.32354 | 302° | 15km/h | 22734m | 5.8m/s | -53.7°C | 1.1% | 38.1hPa | 2.6V | 00:00:00 | 00:00:00 | 00:00:00 | |
| DO1YAY-16 | 2026-08-30 11:59:33 | 49.87823 | 8.32354 | 302° | 15km/h | 22734m | 5.8m/s | -53.7°C | 1.1% | 38.1hPa | 2.6V | 00:00:00 | 00:00:00 | 00:00:00 | |
| DF7PN | 2026-08-30 11:59:32 | 49.87821 | 8.32359 | 302° | 13km/h | 22729m | 4.8m/s | -53.7°C | 1.1% | 38.2hPa | 2.6V | 00:00:00 | 00:00:00 | 00:00:00 | |
| DL8DAS-15 | 2026-08-30 11:59:28 | 49.87815 | 8.32373 | 310° | 16km/h | 22714m | 4.7m/s | -53.7°C | 1.1% | 38.3hPa | 2.6V | 03:48:00 | 00:00:00 | 00:00:00 | |
| DL3AQ-11 | 2026-08-30 11:59:27 | 49.87809 | 8.32382 | 323° | 13km/h | 22704m | 5.9m/s | -53.7°C | 1.1% | 38.3hPa | 2.6V | 00:00:00 | 00:00:00 | 00:00:00 | |
| AU51GT2 | 2026-08-30 11:59:26 | 49.87807 | 8.32385 | 331° | 11km/h | 22699m | 5.2m/s | -53.6°C | 1.1% | 38.4hPa | 2.6V | 00:00:00 | 00:00:00 | 00:00:00 | |
| DL1XH1-15 | 2026-08-30 11:59:24 | 49.87799 | 8.32394 | 307° | 15km/h | 22684m | 5.8m/s | -53.7°C | 4.3% | 38.4hPa | 2.6V | 03:47:46 | 01:29:08 | 00:00:00 | |
| DL1XH-west | 2026-08-30 11:59:23 | 49.87799 | 8.32394 | 308° | 15km/h | 22684m | 5.8m/s | -53.7°C | 0.7% | 38.5hPa | 2.6V | 03:48:30 | 01:29:08 | 00:00:00 | |
| BIOWL1-15 | 2026-08-30 11:59:22 | 49.87793 | 8.32413 | 284° | 18km/h | 22670m | 4.5m/s | -53.6°C | 0.7% | 38.5hPa | 2.7V | 03:48:30 | 01:29:05 | 00:00:00 | |
| HSKMA3-T | 2026-08-30 11:59:18 | 49.87792 | 8.32426 | 272° | 15km/h | 22660m | 5m/s | 0°C | 0% | 0hPa | 2.6V | 18:12:15 | 01:29:03 | 00:00:00 | |
| DB0UT-7 | 2026-08-30 11:59:18 | 49.87792 | 8.32426 | 272° | 13km/h | 22660m | 4.9m/s | -53.5°C | 4.2% | 38.6hPa | 2.6V | 03:47:00 | 01:29:03 | 00:00:00 | |
| DJ2DS-15 | 2026-08-30 11:59:16 | 49.87792 | 8.32437 | 267° | 15km/h | 22651m | 4.9m/s | -53.5°C | 4.1% | 38.6hPa | 2.7V | 00:00:00 | 01:29:01 | 00:00:00 | |
| DL1XH1-15 | 2026-08-30 11:59:14 | 49.87791 | 8.32455 | 285° | 15km/h | 22635m | 5.1m/s | -53.5°C | 4.1% | 38.7hPa | 2.7V | 03:47:56 | 01:28:58 | 00:00:00 | |
| BIOWL1-15 | 2026-08-30 11:59:13 | 49.87789 | 8.32464 | 304° | 11km/h | 22624m | 4.9m/s | -53.3°C | 0.5% | 38.8hPa | 2.6V | 03:48:30 | 01:28:56 | 00:00:00 | |
| DL1XH-west | 2026-08-30 11:59:12 | 49.87790 | 8.32460 | 296° | 13km/h | 22630m | 6m/s | -53.4°C | 0.6% | 38.8hPa | 2.6V | 03:48:30 | 01:28:57 | 00:00:00 | |
| DB0ND-19 | 2026-08-30 11:59:09 | 49.87785 | 8.32477 | 276° | 15km/h | 22611m | 5.1m/s | -53.4°C | 1.1% | 38.9hPa | 2.6V | 00:00:00 | 00:00:00 | 00:00:00 | |
| DM3KS-11 | 2026-08-30 11:59:08 | 49.87786 | 8.32484 | 261° | 18km/h | 22606m | 4.4m/s | -53.4°C | 0% | 38.9hPa | 2.6V | 00:00:00 | 00:00:00 | 00:00:00 | |
| DM0DOS-11 | 2026-08-30 11:59:07 | 49.87796 | 8.32513 | 233° | 9km/h | 22583m | 4.3m/s | -53.4°C | 4.1% | 39.1hPa | 2.6V | 03:48:07 | 01:28:47 | 00:00:00 | |
| DL1ZP-14 | 2026-08-30 11:59:07 | 49.87786 | 8.32484 | 261° | 18km/h | 22606m | 4.4m/s | -53.4°C | 0% | 38.9hPa | 2.6V | 00:00:00 | 00:00:00 | 00:00:00 | |
| DL1XH1-15 | 2026-08-30 11:59:04 | 49.87794 | 8.32509 | 225° | 13km/h | 22587m | 4.5m/s | -53.4°C | 4.1% | 39hPa | 2.7V | 03:48:06 | 01:28:48 | 00:00:00 | |
| DL3AQ-11 | 2026-08-30 11:59:04 | 49.87795 | 8.32509 | 225° | 13km/h | 22587m | 4.5m/s | -53.4°C | 1.1% | 39.0hPa | 2.6V | 00:00:00 | 00:00:00 | 00:00:00 | |
| DL1XH-15 | 2026-08-30 11:59:03 | 49.87793 | 8.32530 | 304° | 18km/h | 22562m | 4.3m/s | -53.5°C | 4.2% | 39.2hPa | 2.6V | 03:48:11 | 01:28:43 | 00:00:00 | |
| DL1XH-west | 2026-08-30 11:59:01 | 49.87797 | 8.32516 | 263° | 9km/h | 22578m | 5.2m/s | -53.4°C | 0.6% | 39.1hPa | 2.6V | 03:48:30 | 01:28:46 | 00:00:00 | |
| DJTTGO | 2026-08-30 11:58:59 | 49.87797 | 8.32520 | 290° | 11km/h | 22573m | 5.7m/s | -53.5°C | 1.1% | 39.1hPa | 2.6V | 00:00:00 | 00:00:00 | 00:00:00 | |
| DL1XH1-15 | 2026-08-30 11:58:58 | 49.87785 | 8.32551 | 282° | 7km/h | 22538m | 5.3m/s | -53.4°C | 4.1% | 39.4hPa | 2.6V | 03:48:16 | 01:28:38 | 00:00:00 | |
| DJ2DS-15 | 2026-08-30 11:58:56 | 49.87788 | 8.32541 | 305° | 11km/h | 22554m | 5.1m/s | -53.4°C | 4.2% | 39.2hPa | 2.6V | 00:00:00 | 01:28:41 | 00:00:00 | |
| DM0DOS-11 | 2026-08-30 11:58:55 | 49.87785 | 8.32562 | 269° | 13km/h | 22522m | 4m/s | -53.3°C | 4.1% | 39.5hPa | 2.7V | 03:48:19 | 01:28:35 | 00:00:00 | |
| AU51GT2 | 2026-08-30 11:58:55 | 49.87787 | 8.32545 | 300° | 9km/h | 22548m | 5.4m/s | -53.4°C | 1.1% | 39.3hPa | 2.7V | 00:00:00 | 00:00:00 | 00:00:00 | |
| DL1XH-15 | 2026-08-30 11:58:53 | 49.87785 | 8.32572 | 255° | 13km/h | 22512m | 5.9m/s | -53.4°C | 4.1% | 39.5hPa | 2.7V | 03:48:21 | 01:28:33 | 00:00:00 | |
| DL1XH-west | 2026-08-30 11:58:50 | 49.87784 | 8.32562 | 269° | 13km/h | 22522m | 4m/s | -53.3°C | 0.6% | 39.5hPa | 2.7V | 03:48:30 | 01:28:35 | 00:00:00 | |
| DL8DAS-14 | 2026-08-30 11:58:49 | 49.87785 | 8.32567 | 262° | 11km/h | 22517m | 4.8m/s | -53.4°C | 1.1% | 39.5hPa | 2.7V | 00:00:00 | 00:00:00 | 00:00:00 | |
| DL3AQ-11 | 2026-08-30 11:58:48 | 49.87786 | 8.32577 | 257° | 11km/h | 22507m | 4.6m/s | -53.4°C | 1.1% | 39.5hPa | 2.7V | 00:00:00 | 00:00:00 | 00:00:00 | |
| DL1XH1-15 | 2026-08-30 11:58:44 | 49.87783 | 8.32597 | 303° | 15km/h | 22487m | 4.6m/s | -53.4°C | 4.1% | 39.6hPa | 2.7V | 03:48:26 | 01:28:28 | 00:00:00 | |
| BIOWL1-15 | 2026-08-30 11:58:40 | 49.87777 | 8.32606 | 341° | 7km/h | 22471m | 5m/s | -53.2°C | 0.6% | 39.7hPa | 2.6V | 03:48:30 | 01:28:25 | 00:00:00 | |
| DL1XH1-15 | 2026-08-30 11:58:38 | 49.87766 | 8.32621 | 267° | 11km/h | 22436m | 4.4m/s | -53°C | 4.1% | 40hPa | 2.6V | 03:48:36 | 01:28:18 | 00:00:00 | |
| DL1XH-15 | 2026-08-30 11:58:38 | 49.87771 | 8.32608 | 335° | 11km/h | 22456m | 5.2m/s | -53.3°C | 4.1% | 39.9hPa | 2.7V | 03:48:32 | 01:28:22 | 00:00:00 | |
| DL1XH-west | 2026-08-30 11:58:30 | 49.87765 | 8.32637 | 287° | 15km/h | 22420m | 4.6m/s | -53.1°C | 0.6% | 40hPa | 2.6V | 03:49:21 | 01:28:15 | 00:00:00 | |
| DL1XH-15 | 2026-08-30 11:58:28 | 49.87761 | 8.32649 | 318° | 7km/h | 22406m | 5.1m/s | -53.1°C | 4% | 40.2hPa | 2.7V | 03:48:42 | 01:28:12 | 00:00:00 | |
| DL1XH1-15 | 2026-08-30 11:58:28 | 49.87753 | 8.32652 | 354° | 9km/h | 22386m | 4.4m/s | -53°C | 4% | 40.3hPa | 2.7V | 03:48:46 | 01:28:08 | 00:00:00 | |
| BIOWL1-15 | 2026-08-30 11:58:19 | 49.87751 | 8.32652 | 286° | 5km/h | 22354m | 5.4m/s | -53.1°C | 0.6% | 40.5hPa | 2.7V | 03:49:21 | 01:28:02 | 00:00:00 | |
| DL1XH-west | 2026-08-30 11:58:19 | 49.87750 | 8.32650 | 170° | 2km/h | 22365m | 4.8m/s | -53.1°C | 0.6% | 40.4hPa | 2.6V | 03:49:21 | 01:28:04 | 00:00:00 | |
| DM0DOS-11 | 2026-08-30 11:58:18 | 49.87751 | 8.32652 | 285° | 5km/h | 22354m | 5.4m/s | -53.1°C | 4.1% | 40.5hPa | 2.7V | 03:48:52 | 01:28:02 | 00:00:00 | |
| DL1XH-west | 2026-08-30 11:58:09 | 49.87735 | 8.32645 | 30° | 15km/h | 22313m | 4.7m/s | -53°C | 0.5% | 40.8hPa | 2.7V | 03:49:21 | 01:27:54 | 00:00:00 | |
| DL1XH-15 | 2026-08-30 11:58:08 | 49.87730 | 8.32639 | 50° | 11km/h | 22303m | 5.3m/s | -53.1°C | 4% | 40.8hPa | 2.6V | 03:49:02 | 01:27:52 | 00:00:00 | |
| BIOWL1-15 | 2026-08-30 11:58:06 | 49.87729 | 8.32636 | 59° | 7km/h | 22298m | 4.3m/s | -53°C | 0.5% | 40.9hPa | 2.6V | 03:49:21 | 01:27:51 | 00:00:00 | |
| DM3KS-11 | 2026-08-30 11:58:06 | 49.87728 | 8.32634 | 34° | 4km/h | 22293m | 5.0m/s | -53.0°C | 1.1% | 40.8hPa | 2.7V | 00:00:00 | 00:00:00 | 00:00:00 | |
| DL1ZP-14 | 2026-08-30 11:58:05 | 49.87728 | 8.32634 | 34° | 4km/h | 22293m | 5.0m/s | -53.0°C | 1.1% | 40.8hPa | 2.7V | 00:00:00 | 00:00:00 | 00:00:00 | |
| DL8OAI-8 | 2026-08-30 11:58:03 | 49.87727 | 8.32634 | 344° | 5km/h | 22288m | 5.7m/s | -53.0°C | 1.1% | 40.9hPa | 2.6V | 03:49:00 | 00:00:00 | 00:00:00 | |
| DO1YAY-16 | 2026-08-30 11:58:00 | 49.87720 | 8.32641 | 343° | 7km/h | 22268m | 5.3m/s | -52.9°C | 1.1% | 41.0hPa | 2.6V | 00:00:00 | 00:00:00 | 00:00:00 | |
| DF7PN | 2026-08-30 11:57:59 | 49.87718 | 8.32642 | 1° | 9km/h | 22263m | 4.3m/s | -52.9°C | 1.1% | 41.0hPa | 2.6V | 00:00:00 | 00:00:00 | 00:00:00 | |
| DL1XH-15 | 2026-08-30 11:57:58 | 49.87711 | 8.32641 | 8° | 16km/h | 22253m | 6m/s | -52.8°C | 4% | 41.1hPa | 2.6V | 03:49:12 | 01:27:42 | 00:00:00 | |
| DL1XH-west | 2026-08-30 11:57:58 | 49.87715 | 8.32641 | 8° | 13km/h | 22259m | 4.7m/s | -52.9°C | 0.6% | 41.1hPa | 2.6V | 03:49:21 | 01:27:43 | 00:00:00 | |
| BIOWL1-15 | 2026-08-30 11:57:55 | 49.87695 | 8.32635 | 16° | 11km/h | 22232m | 4.9m/s | -53°C | 0.5% | 41.2hPa | 2.6V | 03:49:21 | 01:27:38 | 00:00:00 | |
| DL3AQ-11 | 2026-08-30 11:57:55 | 49.87699 | 8.32636 | 17° | 15km/h | 22238m | 5.7m/s | -53.0°C | 1.0% | 41.2hPa | 2.6V | 00:00:00 | 00:00:00 | 00:00:00 | |
| AU51GT2 | 2026-08-30 11:57:53 | 49.87695 | 8.32635 | 15° | 9km/h | 22232m | 4.9m/s | -53.0°C | 1.0% | 41.2hPa | 2.6V | 00:00:00 | 00:00:00 | 00:00:00 | |
| DL9SK-14 | 2026-08-30 11:57:50 | 49.87689 | 8.32642 | 293° | 9km/h | 22213m | 4.2m/s | -52.8°C | 1.1% | 41.4hPa | 2.6V | 00:00:00 | 00:00:00 | 00:00:00 | |
| DL1XH-15 | 2026-08-30 11:57:49 | 49.87687 | 8.32649 | 301° | 7km/h | 22203m | 5.5m/s | -52.9°C | 4% | 41.5hPa | 2.6V | 03:49:22 | 01:27:32 | 00:00:00 | |
| DL1XH1-15 | 2026-08-30 11:57:48 | 49.87676 | 8.32651 | 4° | 16km/h | 22182m | 4.7m/s | -52.9°C | 4% | 41.6hPa | 2.6V | 03:49:26 | 01:27:28 | 00:00:00 | |
| DL1XH-west | 2026-08-30 11:57:48 | 49.87688 | 8.32645 | 292° | 11km/h | 22208m | 5.2m/s | -52.9°C | 0.6% | 41.4hPa | 2.6V | 03:49:21 | 01:27:33 | 00:00:00 | |
| DL8DAS-14 | 2026-08-30 11:57:47 | 49.87687 | 8.32649 | 301° | 7km/h | 22203m | 5.5m/s | -52.9°C | 1.1% | 41.5hPa | 2.7V | 00:00:00 | 00:00:00 | 00:00:00 | |
| BIOWL1-15 | 2026-08-30 11:57:43 | 49.87662 | 8.32649 | 349° | 11km/h | 22162m | 4.5m/s | -53°C | 0.6% | 41.7hPa | 2.7V | 03:50:12 | 01:27:24 | 00:00:00 | |
| DL8DAS-15 | 2026-08-30 11:57:40 | 49.87668 | 8.32650 | 11° | 15km/h | 22173m | 5.7m/s | -53.1°C | 1.1% | 41.7hPa | 2.7V | 03:50:00 | 00:00:00 | 00:00:00 | |
| CB1BUN | 2026-08-30 11:57:39 | 49.87665 | 8.32649 | 5° | 11km/h | 22167m | 4.9m/s | -53.0°C | 1.1% | 41.7hPa | 2.7V | 03:50:00 | 00:00:00 | 00:00:00 | |
| DL1XH-15 | 2026-08-30 11:57:38 | 49.87656 | 8.32654 | 327° | 15km/h | 22152m | 5m/s | -53°C | 4% | 41.8hPa | 2.7V | 03:49:32 | 01:27:22 | 00:00:00 | |
| DL1XH-west | 2026-08-30 11:57:38 | 49.87659 | 8.32651 | 335° | 13km/h | 22157m | 5.7m/s | -53°C | 0.6% | 41.7hPa | 2.7V | 03:50:12 | 01:27:23 | 00:00:00 | |
| DJ2DS-15 | 2026-08-30 11:57:37 | 49.87653 | 8.32657 | 324° | 15km/h | 22147m | 4.3m/s | -53.1°C | 1.1% | 41.8hPa | 2.7V | 00:00:00 | 00:00:00 | 00:00:00 | |
| DJ2DS-15 | 2026-08-30 11:57:36 | 49.87653 | 8.32657 | 325° | 11km/h | 22147m | 4.3m/s | -53.0°C | 4.0% | 41.8hPa | 2.7V | 00:00:00 | 01:27:21 | 00:00:00 | |
| DL1XH1-15 | 2026-08-30 11:57:34 | 49.87646 | 8.32662 | 358° | 9km/h | 22132m | 4.8m/s | -53°C | 4% | 41.9hPa | 2.7V | 03:49:36 | 01:27:18 | 00:00:00 | |
| BIOWL1-15 | 2026-08-30 11:57:31 | 49.87640 | 8.32661 | 13° | 13km/h | 22122m | 5.9m/s | -53°C | 0.5% | 42hPa | 2.6V | 03:50:12 | 01:27:16 | 00:00:00 | |
| DM0DOS-11 | 2026-08-30 11:57:28 | 49.87626 | 8.32652 | 38° | 13km/h | 22102m | 5.7m/s | -53.1°C | 4% | 42.1hPa | 2.7V | 03:49:42 | 01:27:12 | 00:00:00 | |
| DL1XH1-15 | 2026-08-30 11:57:28 | 49.87621 | 8.32649 | 302° | 7km/h | 22080m | 5m/s | -53.2°C | 4.1% | 42.2hPa | 2.7V | 03:49:46 | 01:27:08 | 00:00:00 | |
| DL1XH-west | 2026-08-30 11:57:27 | 49.87626 | 8.32652 | 39° | 13km/h | 22102m | 5.7m/s | -53.1°C | 0.6% | 42.1hPa | 2.7V | 03:50:12 | 01:27:12 | 00:00:00 | |
| BIOWL1-15 | 2026-08-30 11:57:23 | 49.87619 | 8.32655 | 295° | 9km/h | 22071m | 5.2m/s | -53.2°C | 0.6% | 42.3hPa | 2.6V | 03:50:12 | 01:27:06 | 00:00:00 | |
| AU51GT2 | 2026-08-30 11:57:22 | 49.87620 | 8.32652 | 296° | 9km/h | 22076m | 4.1m/s | -53.2°C | 1.1% | 42.3hPa | 2.6V | 00:00:00 | 00:00:00 | 00:00:00 | |
| DL4BBY-15 | 2026-08-30 11:57:21 | 49.87619 | 8.32655 | 295° | 16km/h | 22072m | 5.1m/s | -54.3°C | 0% | 0hPa | 2.6V | 00:00:00 | 00:00:00 | 00:00:00 | |
| HEMX73-11 | 2026-08-30 11:57:19 | 49.87618 | 8.32658 | 309° | 7km/h | 22066m | 5.6m/s | -53.2°C | 1.1% | 42.3hPa | 2.6V | 03:50:00 | 00:00:00 | 00:00:00 | |
| DL1XH-15 | 2026-08-30 11:57:18 | 49.87610 | 8.32661 | 355° | 16km/h | 22050m | 6m/s | -53.3°C | 4.2% | 42.4hPa | 2.6V | 03:49:52 | 01:27:02 | 00:00:00 | |
| DL1XH-west | 2026-08-30 11:57:16 | 49.87605 | 8.32661 | 2° | 22km/h | 22045m | 5.1m/s | -53.2°C | 0.6% | 42.5hPa | 2.6V | 03:50:12 | 01:27:01 | 00:00:00 | |
| BIOWL1-15 | 2026-08-30 11:57:12 | 49.87573 | 8.32647 | 359° | 18km/h | 22015m | 5.4m/s | -53.3°C | 0.7% | 42.7hPa | 2.6V | 03:50:12 | 01:26:55 | 00:00:00 | |
| DL1XH-15 | 2026-08-30 11:57:08 | 49.87562 | 8.32654 | 321° | 13km/h | 22000m | 5.5m/s | -53.4°C | 4.1% | 42.8hPa | 2.7V | 03:50:02 | 01:26:52 | 00:00:00 | |
| DL1XH1-15 | 2026-08-30 11:57:08 | 49.87555 | 8.32661 | 341° | 9km/h | 21981m | 5.2m/s | -53.2°C | 4.1% | 42.9hPa | 2.6V | 03:50:06 | 01:26:48 | 00:00:00 | |
| DL1XH-west | 2026-08-30 11:57:05 | 49.87559 | 8.32659 | 325° | 7km/h | 21990m | 4.6m/s | -53.3°C | 0.6% | 42.9hPa | 2.7V | 03:50:12 | 01:26:50 | 00:00:00 | |
| DB0ND-19 | 2026-08-30 11:57:05 | 49.87557 | 8.32660 | 337° | 5km/h | 21986m | 4.0m/s | -53.3°C | 1.1% | 42.9hPa | 2.6V | 00:00:00 | 00:00:00 | 00:00:00 | |
| DL3AQ-11 | 2026-08-30 11:57:04 | 49.87555 | 8.32661 | 341° | 9km/h | 21981m | 5.2m/s | -53.2°C | 1.1% | 42.9hPa | 2.6V | 00:00:00 | 00:00:00 | 00:00:00 | |
| DL1ZP-14 | 2026-08-30 11:57:03 | 49.87555 | 8.32661 | 341° | 9km/h | 21981m | 5.2m/s | -53.2°C | 1.1% | 42.9hPa | 2.6V | 00:00:00 | 00:00:00 | 00:00:00 | |
| DJ2DS-15 | 2026-08-30 11:57:01 | 49.87544 | 8.32666 | 345° | 20km/h | 21966m | 4.5m/s | -53.1°C | 1.1% | 43.0hPa | 2.6V | 00:00:00 | 00:00:00 | 00:00:00 | |
| DM0DOS-11 | 2026-08-30 11:57:00 | 49.87534 | 8.32670 | 351° | 20km/h | 21956m | 5.2m/s | -53°C | 4% | 43.1hPa | 2.6V | 03:50:11 | 01:26:43 | 00:00:00 | |
| BIOWL1-15 | 2026-08-30 11:56:59 | 49.87534 | 8.32670 | 352° | 20km/h | 21956m | 5.2m/s | -53°C | 0.5% | 43.1hPa | 2.6V | 03:50:12 | 01:26:43 | 00:00:00 | |
| DL1XH-15 | 2026-08-30 11:56:58 | 49.87528 | 8.32671 | 351° | 22km/h | 21951m | 4.4m/s | -53°C | 4% | 43.1hPa | 2.6V | 03:50:12 | 01:26:42 | 00:00:00 | |
| DL1XH-west | 2026-08-30 11:56:55 | 49.87517 | 8.32675 | 344° | 26km/h | 21940m | 5.7m/s | -52.9°C | 0.6% | 43.2hPa | 2.7V | 03:51:03 | 01:26:40 | 00:00:00 | |
| DB0UT-9 | 2026-08-30 11:56:54 | 49.87517 | 8.32675 | 345° | 26km/h | 21940m | 5.7m/s | -52.9°C | 1.1% | 43.2hPa | 2.6V | 00:00:00 | 00:00:00 | 00:00:00 | |
| DL1XH1-15 | 2026-08-30 11:56:54 | 49.87505 | 8.32681 | 337° | 22km/h | 21929m | 5.5m/s | -53°C | 4% | 43.2hPa | 2.6V | 03:50:16 | 01:26:38 | 00:00:00 | |
| DM0DOS-11 | 2026-08-30 11:56:53 | 49.87484 | 8.32699 | 330° | 20km/h | 21904m | 4.2m/s | -52.8°C | 4% | 43.4hPa | 2.6V | 03:50:21 | 01:26:33 | 00:00:00 | |
| BIOWL1-15 | 2026-08-30 11:56:51 | 49.87489 | 8.32695 | 327° | 20km/h | 21909m | 5.7m/s | -52.9°C | 0.6% | 43.4hPa | 2.6V | 03:51:03 | 01:26:34 | 00:00:00 | |
| DL4BBY-15 | 2026-08-30 11:56:51 | 49.87496 | 8.32687 | 330° | 24km/h | 21919m | 4.2m/s | -54.0°C | 0% | 0hPa | 2.7V | 00:00:00 | 00:00:00 | 00:00:00 | |
| BIOWL7-15 | 2026-08-30 11:56:50 | 49.87496 | 8.32687 | 331° | 18km/h | 21919m | 4.3m/s | -52.8°C | 1.1% | 43.3hPa | 2.7V | 00:00:00 | 00:00:00 | 00:00:00 | |
| DL1XH-15 | 2026-08-30 11:56:48 | 49.87480 | 8.32703 | 335° | 20km/h | 21900m | 4.5m/s | -52.9°C | 4% | 43.5hPa | 2.7V | 03:50:22 | 01:26:32 | 00:00:00 | |
| DL1XH1-15 | 2026-08-30 11:56:48 | 49.87461 | 8.32710 | 346° | 22km/h | 21879m | 5.5m/s | -53°C | 3.9% | 43.6hPa | 2.6V | 03:50:26 | 01:26:28 | 00:00:00 | |
| DL1XH-west | 2026-08-30 11:56:45 | 49.87471 | 8.32707 | 349° | 18km/h | 21889m | 5.2m/s | -53°C | 0.5% | 43.5hPa | 2.6V | 03:51:03 | 01:26:30 | 00:00:00 | |
| DB0UT-7 | 2026-08-30 11:56:45 | 49.87471 | 8.32707 | 349° | 26km/h | 21889m | 5.1m/s | -52.9°C | 3.9% | 43.5hPa | 2.6V | 00:00:00 | 00:00:00 | 00:00:00 | |
| DH7VM-15 | 2026-08-30 11:56:43 | 49.87466 | 8.32708 | 351° | 20km/h | 21884m | 4.8m/s | -52.9°C | 1.1% | 43.6hPa | 2.6V | 00:00:00 | 00:00:00 | 00:00:00 | |
| DM0DOS-11 | 2026-08-30 11:56:40 | 49.87433 | 8.32728 | 331° | 22km/h | 21854m | 4.9m/s | -53°C | 4% | 43.8hPa | 2.6V | 03:50:31 | 01:26:23 | 00:00:00 | |
| BIOWL1-15 | 2026-08-30 11:56:39 | 49.87438 | 8.32724 | 333° | 22km/h | 21859m | 5.4m/s | -52.9°C | 0.5% | 43.7hPa | 2.6V | 03:51:03 | 01:26:24 | 00:00:00 | |
| DL1XH-15 | 2026-08-30 11:56:38 | 49.87428 | 8.32732 | 329° | 22km/h | 21849m | 4.2m/s | -52.9°C | 4% | 43.8hPa | 2.6V | 03:50:32 | 01:26:22 | 00:00:00 | |
| DL1XH-west | 2026-08-30 11:56:34 | 49.87411 | 8.32749 | 329° | 29km/h | 21834m | 3.9m/s | -53°C | 0.6% | 43.9hPa | 2.7V | 03:51:03 | 01:26:19 | 00:00:00 | |
| BIOWL1-15 | 2026-08-30 11:56:29 | 49.87359 | 8.32789 | 333° | 24km/h | 21795m | 5.7m/s | -53.2°C | 0.6% | 44.2hPa | 2.6V | 03:51:03 | 01:26:11 | 00:00:00 | |
| DL1XH1-15 | 2026-08-30 11:56:29 | 49.87346 | 8.32802 | 314° | 20km/h | 21779m | 5.6m/s | -53.3°C | 4% | 44.3hPa | 2.7V | 03:50:46 | 01:26:08 | 00:00:00 | |
| DL1XH-15 | 2026-08-30 11:56:27 | 49.87364 | 8.32785 | 333° | 27km/h | 21800m | 4.7m/s | -53.3°C | 4% | 44.1hPa | 2.6V | 03:50:42 | 01:26:12 | 00:00:00 | |
| DL1XH-west | 2026-08-30 11:56:24 | 49.87350 | 8.32797 | 322° | 18km/h | 21784m | 4.7m/s | -53.3°C | 0.6% | 44.2hPa | 2.7V | 03:51:03 | 01:26:09 | 00:00:00 | |
| DL3AQ-11 | 2026-08-30 11:56:24 | 49.87346 | 8.32802 | 314° | 18km/h | 21779m | 5.6m/s | -53.3°C | 1.1% | 44.3hPa | 2.6V | 00:00:00 | 00:00:00 | 00:00:00 | |
| DM0DOS-11 | 2026-08-30 11:56:23 | 49.87329 | 8.32833 | 317° | 18km/h | 21754m | 4.5m/s | -53.4°C | 4.1% | 44.5hPa | 2.6V | 03:50:51 | 01:26:03 | 00:00:00 | |
| BIOWL1-15 | 2026-08-30 11:56:18 | 49.87330 | 8.32833 | 318° | 18km/h | 21754m | 4.5m/s | -53.4°C | 0.6% | 44.5hPa | 2.6V | 03:51:03 | 01:26:03 | 00:00:00 | |
| DL9SK-14 | 2026-08-30 11:56:17 | 49.87321 | 8.32844 | 323° | 24km/h | 21745m | 5.6m/s | -53.5°C | 1.1% | 44.5hPa | 2.6V | 00:00:00 | 00:00:00 | 00:00:00 | |
| DJ2DS-15 | 2026-08-30 11:56:16 | 49.87321 | 8.32844 | 324° | 20km/h | 21745m | 5.6m/s | -53.5°C | 4.1% | 44.5hPa | 2.6V | 00:00:00 | 01:26:01 | 00:00:00 | |
| DL1XH1-15 | 2026-08-30 11:56:14 | 49.87304 | 8.32859 | 339° | 26km/h | 21730m | 5.7m/s | -53.6°C | 4.2% | 44.6hPa | 2.6V | 03:50:56 | 01:25:58 | 00:00:00 | |
| DL1XH-west | 2026-08-30 11:56:14 | 49.87304 | 8.32859 | 339° | 27km/h | 21730m | 5.7m/s | -53.6°C | 0.7% | 44.6hPa | 2.6V | 03:51:03 | 01:25:58 | 00:00:00 | |
| SSTOLZ84 | 2026-08-30 11:56:13 | 49.87287 | 8.32866 | 339° | 18km/h | 21716m | 5.4m/s | 0°C | -1.0% | -1.0hPa | 2.6V | 00:00:00 | 00:00:00 | 00:00:00 | |
| DO2JMG | 2026-08-30 11:56:13 | 49.87292 | 8.32864 | 346° | 22km/h | 21720m | 4m/s | -53.7°C | 0.6% | 44.7hPa | 2.6V | 03:51:54 | 01:25:56 | 00:00:00 | |
| DL1XH-15 | 2026-08-30 11:56:12 | 49.87277 | 8.32878 | 301° | 13km/h | 21700m | 5.5m/s | -53.5°C | 4.1% | 44.8hPa | 2.6V | 03:51:02 | 01:25:52 | 00:00:00 | |
| DL1XH1-15 | 2026-08-30 11:56:08 | 49.87273 | 8.32899 | 290° | 20km/h | 21680m | 5.3m/s | -53.5°C | 4.1% | 45hPa | 2.7V | 03:51:06 | 01:25:48 | 00:00:00 | |
| BIOWL1-15 | 2026-08-30 11:56:07 | 49.87277 | 8.32878 | 301° | 13km/h | 21700m | 5.5m/s | -53.5°C | 0.6% | 44.8hPa | 2.6V | 03:51:03 | 01:25:52 | 00:00:00 | |
| DM0DOS-11 | 2026-08-30 11:56:02 | 49.87255 | 8.32931 | 324° | 24km/h | 21656m | 4.4m/s | -53.6°C | 4.1% | 45.2hPa | 2.6V | 03:51:11 | 01:25:43 | 00:00:00 | |
| DL1XH-west | 2026-08-30 11:56:02 | 49.87271 | 8.32906 | 298° | 22km/h | 21676m | 3.7m/s | -53.4°C | 0.6% | 45hPa | 2.7V | 03:51:54 | 01:25:47 | 00:00:00 | |
| DL1ZP-14 | 2026-08-30 11:56:01 | 49.87268 | 8.32913 | 306° | 20km/h | 21671m | 4.7m/s | -53.5°C | 1.1% | 45.0hPa | 2.7V | 00:00:00 | 00:00:00 | 00:00:00 | |
| DL8OAI-8 | 2026-08-30 11:56:00 | 49.87268 | 8.32913 | 308° | 22km/h | 21672m | 4.7m/s | -53.5°C | 1.1% | 45.0hPa | 2.7V | 03:51:00 | 00:00:00 | 00:00:00 | |
| DL1XH-15 | 2026-08-30 11:55:58 | 49.87251 | 8.32937 | 321° | 26km/h | 21651m | 4.8m/s | -53.6°C | 4.1% | 45.1hPa | 2.7V | 03:51:12 | 01:25:42 | 00:00:00 | |
| DO2JMG | 2026-08-30 11:55:57 | 49.87251 | 8.32937 | 321° | 26km/h | 21651m | 4.8m/s | -53.6°C | 0.6% | 45.2hPa | 2.7V | 03:51:54 | 01:25:42 | 00:00:00 | |
| BIOWL1-15 | 2026-08-30 11:55:56 | 49.87237 | 8.32959 | 304° | 26km/h | 21637m | 4.1m/s | -53.5°C | 0.6% | 45.3hPa | 2.6V | 03:51:54 | 01:25:39 | 00:00:00 | |
| DO1YAY-16 | 2026-08-30 11:55:56 | 49.87246 | 8.32943 | 315° | 26km/h | 21646m | 5.5m/s | -53.5°C | 1.1% | 45.2hPa | 2.6V | 00:00:00 | 00:00:00 | 00:00:00 | |
| DB0DAN | 2026-08-30 11:55:55 | 49.87241 | 8.32951 | 310° | 26km/h | 21641m | 4.5m/s | -53.5°C | 1.1% | 45.25hPa | 2.6V | 00:00:00 | 00:00:00 | 00:00:00 | |
| DF7PN | 2026-08-30 11:55:55 | 49.87237 | 8.32959 | 304° | 24km/h | 21637m | 4.1m/s | -53.5°C | 1.1% | 45.3hPa | 2.6V | 00:00:00 | 00:00:00 | 00:00:00 | |
| DL1XH1-15 | 2026-08-30 11:55:54 | 49.87234 | 8.32967 | 301° | 22km/h | 21633m | 4.8m/s | -53.5°C | 4.2% | 45.3hPa | 2.6V | 03:51:16 | 01:25:38 | 00:00:00 | |
| DM0DOS-11 | 2026-08-30 11:55:52 | 49.87220 | 8.33002 | 300° | 27km/h | 21608m | 4.4m/s | -53.4°C | 4.2% | 45.5hPa | 2.7V | 03:51:21 | 01:25:33 | 00:00:00 | |
| DL1XH-west | 2026-08-30 11:55:51 | 49.87229 | 8.32980 | 301° | 18km/h | 21623m | 4.6m/s | -53.4°C | 0.7% | 45.4hPa | 2.7V | 03:51:54 | 01:25:36 | 00:00:00 | |
| DL4BBY-15 | 2026-08-30 11:55:51 | 49.87229 | 8.32980 | 301° | 27km/h | 21623m | 4.5m/s | -54.6°C | 0% | 0hPa | 2.7V | 00:00:00 | 00:00:00 | 00:00:00 | |
| DL1XH-15 | 2026-08-30 11:55:50 | 49.87217 | 8.33012 | 303° | 29km/h | 21603m | 4.5m/s | -53.5°C | 4.2% | 45.5hPa | 2.7V | 03:51:22 | 01:25:32 | 00:00:00 | |
| AU51GT2 | 2026-08-30 11:55:49 | 49.87224 | 8.32994 | 299° | 22km/h | 21613m | 5.8m/s | -53.5°C | 1.1% | 45.5hPa | 2.7V | 00:00:00 | 00:00:00 | 00:00:00 | |
| DL1XH1-15 | 2026-08-30 11:55:48 | 49.87199 | 8.33048 | 304° | 33km/h | 21582m | 5.5m/s | -53.4°C | 4.1% | 45.7hPa | 2.7V | 03:51:26 | 01:25:28 | 00:00:00 | |
| BIOWL1-15 | 2026-08-30 11:55:48 | 49.87213 | 8.33021 | 306° | 29km/h | 21598m | 5.9m/s | -53.5°C | 0.6% | 45.6hPa | 2.6V | 03:51:54 | 01:25:31 | 00:00:00 | |
| DL9SK-14 | 2026-08-30 11:55:46 | 49.87208 | 8.33030 | 308° | 27km/h | 21593m | 5.3m/s | -53.4°C | 1.1% | 45.6hPa | 2.7V | 00:00:00 | 00:00:00 | 00:00:00 | |
| DB0UT-7 | 2026-08-30 11:55:45 | 49.87208 | 8.33030 | 309° | 27km/h | 21593m | 5.2m/s | -53.4°C | 4.1% | 45.5hPa | 2.7V | 00:00:00 | 00:00:00 | 00:00:00 | |
| DL3AQ-11 | 2026-08-30 11:55:44 | 49.87199 | 8.33048 | 304° | 31km/h | 21582m | 5.5m/s | -53.4°C | 1.1% | 45.7hPa | 2.7V | 00:00:00 | 00:00:00 | 00:00:00 | |
| DL8DAS-14 | 2026-08-30 11:55:43 | 49.87199 | 8.33048 | 304° | 31km/h | 21582m | 5.5m/s | -53.4°C | 1.1% | 45.7hPa | 2.7V | 00:00:00 | 00:00:00 | 00:00:00 | |
| DM0DOS-11 | 2026-08-30 11:55:42 | 49.87181 | 8.33104 | 290° | 26km/h | 21557m | 5.1m/s | -53.4°C | 4.1% | 45.8hPa | 2.7V | 03:51:31 | 01:25:23 | 00:00:00 | |
| DL1XH-west | 2026-08-30 11:55:41 | 49.87190 | 8.33071 | 296° | 35km/h | 21572m | 4.3m/s | -53.5°C | 0.6% | 45.7hPa | 2.6V | 03:51:54 | 01:25:26 | 00:00:00 | |
| DL8OAI-8 | 2026-08-30 11:55:40 | 49.87190 | 8.33071 | 297° | 35km/h | 21572m | 4.3m/s | -53.5°C | 1.2% | 45.7hPa | 2.7V | 03:51:00 | 00:00:00 | 00:00:00 | |
| DL1XH-15 | 2026-08-30 11:55:38 | 49.87179 | 8.33113 | 289° | 24km/h | 21552m | 4.3m/s | -53.4°C | 4.1% | 45.9hPa | 2.7V | 03:51:32 | 01:25:22 | 00:00:00 | |
| BIOWL1-15 | 2026-08-30 11:55:35 | 49.87175 | 8.33133 | 287° | 29km/h | 21543m | 5.6m/s | -53.3°C | 0.6% | 45.9hPa | 2.6V | 03:51:54 | 01:25:20 | 00:00:00 | |
| DL1XH-west | 2026-08-30 11:55:31 | 49.87165 | 8.33177 | 292° | 26km/h | 21524m | 5.2m/s | -53.3°C | 0.6% | 46.1hPa | 2.7V | 03:51:54 | 01:25:16 | 00:00:00 | |
| DL1XH-15 | 2026-08-30 11:55:30 | 49.87158 | 8.33213 | 282° | 26km/h | 21506m | 5.1m/s | -53.2°C | 4.1% | 46.2hPa | 2.6V | 03:51:42 | 01:25:12 | 00:00:00 | |
| DO2JMG | 2026-08-30 11:55:29 | 49.87161 | 8.33194 | 289° | 22km/h | 21515m | 3.7m/s | -53.3°C | 0.6% | 46.2hPa | 2.7V | 03:51:54 | 01:25:14 | 00:00:00 | |
| BIOWL1-15 | 2026-08-30 11:55:25 | 49.87155 | 8.33234 | 281° | 29km/h | 21497m | 3.8m/s | -53.2°C | 0.6% | 46.3hPa | 2.6V | 03:51:54 | 01:25:10 | 00:00:00 | |
| DL1XH-west | 2026-08-30 11:55:20 | 49.87147 | 8.33279 | 279° | 22km/h | 21474m | 5.2m/s | -53.1°C | 0.6% | 46.5hPa | 2.6V | 03:51:54 | 01:25:05 | 00:00:00 | |
| KANTATE | 2026-08-30 11:55:19 | 49.87147 | 8.33279 | 280° | 22km/h | 21475m | 5.2m/s | -53.1°C | 1.1% | 46.5hPa | 2.7V | 00:00:00 | 00:00:00 | 00:00:00 | |
| DL1XH-15 | 2026-08-30 11:55:18 | 49.87146 | 8.33306 | 271° | 22km/h | 21460m | 3.6m/s | -53.1°C | 4% | 46.6hPa | 2.7V | 03:51:52 | 01:25:02 | 00:00:00 | |
| DO2JMG | 2026-08-30 11:55:18 | 49.87146 | 8.33297 | 271° | 24km/h | 21464m | 4m/s | -53.2°C | 0.6% | 46.5hPa | 2.7V | 03:51:54 | 01:25:03 | 00:00:00 | |
| DL1XH1-15 | 2026-08-30 11:55:17 | 49.87142 | 8.33333 | 288° | 15km/h | 21442m | 3.5m/s | -53.5°C | 4.1% | 46.7hPa | 2.7V | 03:51:56 | 01:24:58 | 00:00:00 | |
| DM0DOS-11 | 2026-08-30 11:55:16 | 49.87146 | 8.33315 | 275° | 20km/h | 21456m | 5.2m/s | -53.2°C | 4% | 46.6hPa | 2.6V | 03:51:53 | 01:25:01 | 00:00:00 | |
| BIOWL1-15 | 2026-08-30 11:55:14 | 49.87141 | 8.33346 | 266° | 18km/h | 21433m | 5.2m/s | -53.5°C | 0.7% | 46.8hPa | 2.7V | 03:52:45 | 01:24:56 | 00:00:00 | |
| DD1CC8 | 2026-08-30 11:55:14 | 49.87143 | 8.33328 | 291° | 15km/h | 21446m | 4.4m/s | -53.3°C | 1.1% | 46.6hPa | 2.7V | 00:00:00 | 00:00:00 | 00:00:00 | |
| DL8DAS-14 | 2026-08-30 11:55:12 | 49.87141 | 8.33339 | 278° | 15km/h | 21438m | 5.1m/s | -53.4°C | 1.1% | 46.7hPa | 2.7V | 00:00:00 | 00:00:00 | 00:00:00 | |
| DM0DOS-11 | 2026-08-30 11:55:11 | 49.87146 | 8.33384 | 257° | 18km/h | 21409m | 4.3m/s | -53.4°C | 4% | 46.9hPa | 2.7V | 03:52:03 | 01:24:51 | 00:00:00 | |
| DL1XH-west | 2026-08-30 11:55:10 | 49.87142 | 8.33354 | 260° | 22km/h | 21428m | 4.4m/s | -53.6°C | 0.7% | 46.8hPa | 2.6V | 03:52:45 | 01:24:55 | 00:00:00 | |
| DL1XH-15 | 2026-08-30 11:55:08 | 49.87146 | 8.33378 | 256° | 18km/h | 21413m | 4.8m/s | -53.5°C | 4.1% | 46.9hPa | 2.6V | 03:52:02 | 01:24:52 | 00:00:00 | |
| DO2JMG | 2026-08-30 11:55:08 | 49.87144 | 8.33370 | 255° | 20km/h | 21418m | 5.3m/s | -53.5°C | 0.6% | 46.8hPa | 2.6V | 03:52:45 | 01:24:53 | 00:00:00 | |
| DL1XH1-15 | 2026-08-30 11:55:07 | 49.87150 | 8.33405 | 251° | 20km/h | 21395m | 4.7m/s | -53.4°C | 4% | 47hPa | 2.6V | 03:52:06 | 01:24:48 | 00:00:00 | |
| BIOWL1-15 | 2026-08-30 11:55:03 | 49.87154 | 8.33424 | 255° | 13km/h | 21381m | 5.6m/s | -53.5°C | 0.6% | 47.1hPa | 2.6V | 03:52:45 | 01:24:45 | 00:00:00 | |
| DL1XH-west | 2026-08-30 11:54:59 | 49.87155 | 8.33429 | 255° | 11km/h | 21376m | 4.6m/s | -53.4°C | 0.5% | 47.2hPa | 2.7V | 03:52:45 | 01:24:44 | 00:00:00 | |
| DL1ZP-14 | 2026-08-30 11:54:59 | 49.87156 | 8.33433 | 249° | 11km/h | 21371m | 4.9m/s | -53.5°C | 1.1% | 47.2hPa | 2.7V | 00:00:00 | 00:00:00 | 00:00:00 | |
| DL1XH-15 | 2026-08-30 11:54:58 | 49.87157 | 8.33437 | 244° | 15km/h | 21366m | 5.3m/s | -53.6°C | 4.1% | 47.2hPa | 2.7V | 03:52:12 | 01:24:42 | 00:00:00 | |
| DL1XH1-15 | 2026-08-30 11:54:57 | 49.87165 | 8.33456 | 232° | 11km/h | 21348m | 5.4m/s | -54°C | 4.2% | 47.4hPa | 2.7V | 03:52:16 | 01:24:38 | 00:00:00 | |
| DO2JMG | 2026-08-30 11:54:57 | 49.87157 | 8.33437 | 245° | 15km/h | 21366m | 5.3m/s | -53.6°C | 0.6% | 47.2hPa | 2.7V | 03:52:45 | 01:24:42 | 00:00:00 | |
| BIOWL1-15 | 2026-08-30 11:54:53 | 49.87170 | 8.33468 | 242° | 15km/h | 21333m | 5.6m/s | -54°C | 0.7% | 47.5hPa | 2.6V | 03:52:45 | 01:24:35 | 00:00:00 | |
| DM0DOS-11 | 2026-08-30 11:54:52 | 49.87172 | 8.33473 | 241° | 16km/h | 21328m | 4.2m/s | -54°C | 4.2% | 47.5hPa | 2.6V | 03:52:20 | 01:24:34 | 00:00:00 | |
| DL1XH-west | 2026-08-30 11:54:49 | 49.87172 | 8.33473 | 241° | 16km/h | 21328m | 4.2m/s | -54°C | 0.7% | 47.5hPa | 2.6V | 03:52:45 | 01:24:34 | 00:00:00 | |
| DL1XH-15 | 2026-08-30 11:54:48 | 49.87176 | 8.33483 | 237° | 13km/h | 21320m | 5.3m/s | -54.1°C | 4.2% | 47.6hPa | 2.7V | 03:52:22 | 01:24:32 | 00:00:00 | |
| DO2JMG | 2026-08-30 11:54:47 | 49.87176 | 8.33483 | 237° | 15km/h | 21320m | 5.3m/s | -54.1°C | 0.7% | 47.6hPa | 2.7V | 03:52:45 | 01:24:32 | 00:00:00 | |
| DB0UT-7 | 2026-08-30 11:54:45 | 49.87179 | 8.33490 | 223° | 5km/h | 21310m | 4.5m/s | -53.9°C | 4.2% | 47.6hPa | 2.6V | 00:00:00 | 00:00:00 | 00:00:00 | |
| DL9SK-14 | 2026-08-30 11:54:44 | 49.87184 | 8.33496 | 219° | 11km/h | 21300m | 4.8m/s | -54.0°C | 1.2% | 47.7hPa | 2.7V | 00:00:00 | 00:00:00 | 00:00:00 | |
| DD1CC8 | 2026-08-30 11:54:43 | 49.87184 | 8.33496 | 219° | 11km/h | 21300m | 4.8m/s | -54.0°C | 1.2% | 47.7hPa | 2.7V | 00:00:00 | 00:00:00 | 00:00:00 | |
| DM0DOS-11 | 2026-08-30 11:54:42 | 49.87197 | 8.33504 | 182° | 15km/h | 21282m | 4.5m/s | -54°C | 4.3% | 47.9hPa | 2.7V | 03:52:30 | 01:24:24 | 00:00:00 | |
| BIOWL1-15 | 2026-08-30 11:54:40 | 49.87193 | 8.33503 | 190° | 15km/h | 21287m | 5.5m/s | -54°C | 0.7% | 47.9hPa | 2.7V | 03:52:45 | 01:24:25 | 00:00:00 | |
| DL1XH-west | 2026-08-30 11:54:39 | 49.87197 | 8.33504 | 182° | 15km/h | 21282m | 4.5m/s | -54°C | 0.7% | 47.9hPa | 2.7V | 03:52:45 | 01:24:24 | 00:00:00 | |
| DL1XH-15 | 2026-08-30 11:54:38 | 49.87204 | 8.33505 | 195° | 13km/h | 21274m | 5.1m/s | -54°C | 4.3% | 48hPa | 2.6V | 03:52:32 | 01:24:22 | 00:00:00 | |
| DO2JMG | 2026-08-30 11:54:36 | 49.87207 | 8.33507 | 212° | 13km/h | 21269m | 4.9m/s | -54°C | 0.7% | 48hPa | 2.6V | 03:52:45 | 01:24:21 | 00:00:00 | |
| BIOWL1-15 | 2026-08-30 11:54:29 | 49.87209 | 8.33513 | 333° | 4km/h | 21236m | 4.9m/s | -53.9°C | 0.7% | 48.2hPa | 2.6V | 03:52:45 | 01:24:14 | 00:00:00 | |
| DL1XH-15 | 2026-08-30 11:54:28 | 49.87208 | 8.33514 | 304° | 0km/h | 21227m | 5.2m/s | -53.9°C | 4.2% | 48.3hPa | 2.7V | 03:52:42 | 01:24:12 | 00:00:00 | |
| DL1XH1-15 | 2026-08-30 11:54:28 | 49.87209 | 8.33515 | 240° | 5km/h | 21206m | 5.2m/s | -53.7°C | 4.2% | 48.5hPa | 2.7V | 03:52:46 | 01:24:08 | 00:00:00 | |
| DL1XH-west | 2026-08-30 11:54:28 | 49.87208 | 8.33514 | 322° | 2km/h | 21232m | 4.4m/s | -53.9°C | 0.7% | 48.2hPa | 2.7V | 03:52:45 | 01:24:13 | 00:00:00 | |
| DO2JMG | 2026-08-30 11:54:23 | 49.87209 | 8.33515 | 241° | 5km/h | 21206m | 5.2m/s | 0°C | 0% | 48.5hPa | 2.7V | 03:53:36 | 01:24:08 | 00:00:00 | |
| BIOWL1-15 | 2026-08-30 11:54:18 | 49.87211 | 8.33520 | 48° | 5km/h | 21183m | 4.6m/s | -53.6°C | 0.6% | 48.6hPa | 2.6V | 03:53:36 | 01:24:03 | 00:00:00 | |
| DL1XH-west | 2026-08-30 11:54:17 | 49.87210 | 8.33519 | 33° | 7km/h | 21178m | 5.6m/s | -53.6°C | 0.6% | 48.7hPa | 2.6V | 03:53:36 | 01:24:02 | 00:00:00 | |
| DH7VM-15 | 2026-08-30 11:54:16 | 49.87210 | 8.33519 | 34° | 7km/h | 21178m | 5.6m/s | -53.6°C | 1.1% | 48.7hPa | 2.6V | 00:00:00 | 00:00:00 | 00:00:00 | |
| DL1XH1-15 | 2026-08-30 11:54:15 | 49.87202 | 8.33512 | 41° | 9km/h | 21159m | 5.2m/s | -53.5°C | 4% | 48.8hPa | 2.6V | 03:52:56 | 01:23:58 | 00:00:00 | |
| DO2JMG | 2026-08-30 11:54:13 | 49.87202 | 8.33512 | 41° | 9km/h | 21159m | 5.2m/s | 0°C | 0% | 48.8hPa | 2.6V | 03:53:36 | 01:23:58 | 00:00:00 | |
| DL9SK-14 | 2026-08-30 11:54:13 | 49.87200 | 8.33510 | 43° | 5km/h | 21154m | 4.2m/s | -53.5°C | 1.1% | 48.9hPa | 2.6V | 00:00:00 | 00:00:00 | 00:00:00 | |
| DD1CC8 | 2026-08-30 11:54:12 | 49.87200 | 8.33510 | 43° | 5km/h | 21154m | 4.2m/s | -53.5°C | 1.1% | 48.9hPa | 2.6V | 00:00:00 | 00:00:00 | 00:00:00 | |
| DL8DAS-14 | 2026-08-30 11:54:10 | 49.87198 | 8.33509 | 320° | 4km/h | 21145m | 5.5m/s | -53.7°C | 1.1% | 48.9hPa | 2.6V | 00:00:00 | 00:00:00 | 00:00:00 | |
| DL8DAS-15 | 2026-08-30 11:54:09 | 49.87198 | 8.33509 | 321° | 4km/h | 21145m | 5.5m/s | -53.7°C | 1.1% | 48.9hPa | 2.6V | 00:00:00 | 00:00:00 | 00:00:00 | |
| DL1XH-15 | 2026-08-30 11:54:08 | 49.87196 | 8.33516 | 298° | 5km/h | 21132m | 4.6m/s | -53.8°C | 4.2% | 49hPa | 2.6V | 03:53:02 | 01:23:52 | 00:00:00 | |
| BIOWL1-15 | 2026-08-30 11:54:07 | 49.87189 | 8.33513 | 10° | 9km/h | 21103m | 4.8m/s | -53.8°C | 0.6% | 49.2hPa | 2.7V | 03:53:36 | 01:23:46 | 00:00:00 | |
| DL1XH-west | 2026-08-30 11:54:07 | 49.87196 | 8.33516 | 298° | 7km/h | 21132m | 4.6m/s | -53.8°C | 0.7% | 49hPa | 2.6V | 03:53:36 | 01:23:52 | 00:00:00 | |
| DB0NH | 2026-08-30 11:54:07 | 49.87196 | 8.33516 | 299° | 5km/h | 21132m | 4.6m/s | 0°C | 0% | 0hPa | 2.6V | 00:00:00 | 01:23:52 | 00:00:00 | |
| DL1XH1-15 | 2026-08-30 11:54:04 | 49.87193 | 8.33515 | 40° | 5km/h | 21113m | 4.6m/s | -53.8°C | 4.2% | 49.1hPa | 2.6V | 03:53:06 | 01:23:48 | 00:00:00 | |
| DO2JMG | 2026-08-30 11:54:02 | 49.87191 | 8.33514 | 23° | 7km/h | 21108m | 5.2m/s | 0°C | 0% | 49.2hPa | 2.6V | 03:53:36 | 01:23:47 | 00:00:00 | |
| DJ2DS-15 | 2026-08-30 11:54:00 | 49.87187 | 8.33512 | 7° | 7km/h | 21099m | 4.1m/s | -53.9°C | 1.1% | 49.3hPa | 2.6V | 00:00:00 | 00:00:00 | 00:00:00 | |
| DL1XH-15 | 2026-08-30 11:53:58 | 49.87181 | 8.33510 | 18° | 5km/h | 21083m | 4.2m/s | -54°C | 4.2% | 49.4hPa | 2.6V | 03:53:12 | 01:23:42 | 00:00:00 | |
| DL1XH1-15 | 2026-08-30 11:53:58 | 49.87174 | 8.33512 | 352° | 7km/h | 21064m | 5m/s | -54°C | 4.2% | 49.5hPa | 2.6V | 03:53:16 | 01:23:38 | 00:00:00 | |
| DL1XH-west | 2026-08-30 11:53:57 | 49.87181 | 8.33510 | 19° | 5km/h | 21083m | 4.2m/s | -54°C | 0.6% | 49.4hPa | 2.6V | 03:53:36 | 01:23:42 | 00:00:00 | |
| BIOWL1-15 | 2026-08-30 11:53:57 | 49.87178 | 8.33510 | 339° | 7km/h | 21073m | 5m/s | -54°C | 0.7% | 49.5hPa | 2.7V | 03:53:36 | 01:23:40 | 00:00:00 | |
| DL1ZP-14 | 2026-08-30 11:53:56 | 49.87180 | 8.33510 | 356° | 5km/h | 21078m | 5.3m/s | -54.0°C | 1.1% | 49.4hPa | 2.7V | 00:00:00 | 00:00:00 | 00:00:00 | |
| DL3AQ-11 | 2026-08-30 11:53:55 | 49.87176 | 8.33512 | 339° | 7km/h | 21069m | 3.8m/s | -54.0°C | 1.1% | 49.5hPa | 2.6V | 00:00:00 | 00:00:00 | 00:00:00 | |
| DO1YAY-16 | 2026-08-30 11:53:52 | 49.87171 | 8.33511 | 21° | 7km/h | 21055m | 4.4m/s | -53.9°C | 1.1% | 49.6hPa | 2.6V | 00:00:00 | 00:00:00 | 00:00:00 | |
| DM0DOS-11 | 2026-08-30 11:53:51 | 49.87160 | 8.33507 | 37° | 9km/h | 21031m | 5.6m/s | -53.9°C | 4.3% | 49.8hPa | 2.6V | 03:53:23 | 01:23:31 | 00:00:00 | |
| DL1XH-west | 2026-08-30 11:53:46 | 49.87160 | 8.33507 | 37° | 9km/h | 21031m | 5.6m/s | -53.9°C | 0.7% | 49.8hPa | 2.6V | 03:53:36 | 01:23:31 | 00:00:00 | |
| BIOWL1-15 | 2026-08-30 11:53:44 | 49.87156 | 8.33501 | 51° | 11km/h | 21021m | 4.7m/s | -53.9°C | 0.7% | 49.9hPa | 2.7V | 03:53:36 | 01:23:29 | 00:00:00 | |
| DL1XH1-15 | 2026-08-30 11:53:44 | 49.87154 | 8.33498 | 42° | 9km/h | 21016m | 5.5m/s | -53.9°C | 4.3% | 49.9hPa | 2.7V | 03:53:26 | 01:23:28 | 00:00:00 | |
| DL3AQ-11 | 2026-08-30 11:53:44 | 49.87154 | 8.33498 | 42° | 9km/h | 21016m | 5.5m/s | -53.9°C | 1.2% | 49.9hPa | 2.6V | 00:00:00 | 00:00:00 | 00:00:00 | |
| DD1CC8 | 2026-08-30 11:53:41 | 49.87150 | 8.33494 | 23° | 9km/h | 21007m | 3.5m/s | -53.8°C | 1.1% | 50.0hPa | 2.6V | 00:00:00 | 00:00:00 | 00:00:00 | |
| CB1BUN | 2026-08-30 11:53:40 | 49.87151 | 8.33494 | 25° | 9km/h | 21007m | 3.5m/s | -53.8°C | 1.1% | 50.0hPa | 2.6V | 00:00:00 | 00:00:00 | 00:00:00 | |
| DM0DOS-11 | 2026-08-30 11:53:39 | 49.87141 | 8.33468 | 75° | 9km/h | 20974m | 4.7m/s | -53.8°C | 4.3% | 50.3hPa | 2.6V | 03:53:35 | 01:23:19 | 00:00:00 | |
| DL8DAS-14 | 2026-08-30 11:53:39 | 49.87147 | 8.33490 | 50° | 9km/h | 20999m | 5.7m/s | -53.9°C | 1.1% | 50.0hPa | 2.6V | 00:00:00 | 00:00:00 | 00:00:00 | |
| DL1XH1-15 | 2026-08-30 11:53:38 | 49.87141 | 8.33464 | 82° | 9km/h | 20969m | 4.8m/s | -53.8°C | 4.3% | 50.3hPa | 2.6V | 03:53:36 | 01:23:18 | 00:00:00 | |
| DL1XH-west | 2026-08-30 11:53:35 | 49.87142 | 8.33472 | 72° | 11km/h | 20979m | 5.4m/s | -54°C | 0.7% | 50.2hPa | 2.7V | 03:53:36 | 01:23:20 | 00:00:00 | |
| BIOWL1-15 | 2026-08-30 11:53:33 | 49.87140 | 8.33460 | 89° | 11km/h | 20964m | 5.5m/s | -53.8°C | 0.8% | 50.3hPa | 2.6V | 03:54:27 | 01:23:17 | 00:00:00 | |
| DO2JMG | 2026-08-30 11:53:33 | 49.87141 | 8.33464 | 82° | 9km/h | 20969m | 4.8m/s | 0°C | 0% | 50.3hPa | 2.6V | 03:53:36 | 01:23:18 | 00:00:00 | |
| HEMX73-11 | 2026-08-30 11:53:33 | 49.87140 | 8.33464 | 83° | 9km/h | 20969m | 4.8m/s | -53.8°C | 1.2% | 50.3hPa | 2.6V | 03:53:00 | 00:00:00 | 00:00:00 | |
| DL0LBS | 2026-08-30 11:53:31 | 49.87140 | 8.33460 | 90° | 11km/h | 20964m | 5.5m/s | -53.8°C | 1.2% | 50.3hPa | 2.6V | 03:54:00 | 00:00:00 | 00:00:00 | |
| DL1XH-15 | 2026-08-30 11:53:28 | 49.87140 | 8.33440 | 77° | 9km/h | 20941m | 4.2m/s | -53.9°C | 4% | 50.5hPa | 2.6V | 03:53:42 | 01:23:12 | 00:00:00 | |
| DB0UT-9 | 2026-08-30 11:53:27 | 49.87140 | 8.33443 | 79° | 7km/h | 20946m | 4.9m/s | -53.8°C | 1.2% | 50.5hPa | 2.7V | 03:54:00 | 00:00:00 | 00:00:00 | |
| DB0DAN | 2026-08-30 11:53:25 | 49.87138 | 8.33432 | 82° | 11km/h | 20931m | 4.9m/s | -53.9°C | 1.1% | 50.59hPa | 2.7V | 00:00:00 | 00:00:00 | 00:00:00 | |
| DL1XH-west | 2026-08-30 11:53:25 | 49.87138 | 8.33432 | 82° | 11km/h | 20931m | 4.9m/s | -53.9°C | 0.6% | 50.6hPa | 2.7V | 03:54:27 | 01:23:10 | 00:00:00 | |
| DO2JMG | 2026-08-30 11:53:23 | 49.87138 | 8.33424 | 89° | 9km/h | 20921m | 5.3m/s | 0°C | 0% | 50.7hPa | 2.6V | 03:54:27 | 01:23:08 | 00:00:00 | |
| BIOWL1-15 | 2026-08-30 11:53:22 | 49.87138 | 8.33421 | 104° | 7km/h | 20916m | 4.5m/s | -53.6°C | 0.7% | 50.7hPa | 2.6V | 03:54:27 | 01:23:07 | 00:00:00 | |
| DL4BBY-15 | 2026-08-30 11:53:21 | 49.87139 | 8.33418 | 130° | 11km/h | 20912m | 3.6m/s | -54.7°C | 0% | 0hPa | 2.7V | 00:00:00 | 00:00:00 | 00:00:00 | |
| DO1YAY-16 | 2026-08-30 11:53:20 | 49.87140 | 8.33416 | 135° | 7km/h | 20908m | 4.6m/s | -53.6°C | 1.1% | 50.8hPa | 2.7V | 00:00:00 | 00:00:00 | 00:00:00 | |
| DL1XH-15 | 2026-08-30 11:53:18 | 49.87146 | 8.33405 | 123° | 13km/h | 20893m | 4.2m/s | -53.8°C | 4.1% | 50.9hPa | 2.7V | 03:53:52 | 01:23:02 | 00:00:00 | |
| DL1XH-west | 2026-08-30 11:53:15 | 49.87148 | 8.33399 | 132° | 5km/h | 20884m | 5.3m/s | -54°C | 0.6% | 51hPa | 2.6V | 03:54:27 | 01:23:00 | 00:00:00 | |
| DL1XH1-15 | 2026-08-30 11:53:14 | 49.87149 | 8.33397 | 101° | 2km/h | 20874m | 5.1m/s | -54°C | 4.2% | 51hPa | 2.6V | 03:53:56 | 01:22:58 | 00:00:00 | |
| BIOWL1-15 | 2026-08-30 11:53:12 | 49.87151 | 8.33391 | 123° | 9km/h | 20860m | 3.4m/s | -53.8°C | 0.6% | 51.2hPa | 2.7V | 03:54:27 | 01:22:55 | 00:00:00 | |
| DB0DAN | 2026-08-30 11:53:10 | 49.87151 | 8.33391 | 123° | 9km/h | 20860m | 3.4m/s | -53.8°C | 1.1% | 51.16hPa | 2.7V | 00:00:00 | 00:00:00 | 00:00:00 | |
| DL1XH-15 | 2026-08-30 11:53:08 | 49.87158 | 8.33384 | 162° | 15km/h | 20846m | 4.4m/s | -53.8°C | 4.1% | 51.3hPa | 2.6V | 03:54:02 | 01:22:52 | 00:00:00 | |
| DO2JMG | 2026-08-30 11:53:08 | 49.87155 | 8.33386 | 155° | 13km/h | 20851m | 5.5m/s | 0°C | 0% | 0hPa | 2.6V | 03:54:27 | 01:22:53 | 00:00:00 | |
| DB0UT-7 | 2026-08-30 11:53:07 | 49.87158 | 8.33384 | 163° | 13km/h | 20846m | 4.3m/s | -53.7°C | 4.1% | 51.2hPa | 2.6V | 03:54:00 | 01:22:52 | 00:00:00 | |
| DB0UT-9 | 2026-08-30 11:53:06 | 49.87158 | 8.33384 | 164° | 15km/h | 20846m | 4.4m/s | -53.8°C | 1.2% | 51.3hPa | 2.6V | 03:54:00 | 00:00:00 | 00:00:00 | |
| DM0DOS-11 | 2026-08-30 11:53:04 | 49.87173 | 8.33375 | 155° | 15km/h | 20827m | 4.5m/s | -54°C | 4.2% | 51.4hPa | 2.6V | 03:54:06 | 01:22:48 | 00:00:00 | |
| DL1XH-west | 2026-08-30 11:53:04 | 49.87169 | 8.33378 | 154° | 16km/h | 20832m | 4.9m/s | -54°C | 0.6% | 51.4hPa | 2.6V | 03:54:27 | 01:22:49 | 00:00:00 | |
| BIOWL1-15 | 2026-08-30 11:53:00 | 49.87182 | 8.33372 | 181° | 9km/h | 20812m | 4m/s | -53.9°C | 0.7% | 51.6hPa | 2.7V | 03:54:27 | 01:22:45 | 00:00:00 | |
| DO2JMG | 2026-08-30 11:52:56 | 49.87188 | 8.33361 | 109° | 16km/h | 20793m | 4m/s | 0°C | 0% | 0hPa | 2.6V | 03:54:27 | 01:22:41 | 00:00:00 | |
| DB0DAN | 2026-08-30 11:52:55 | 49.87190 | 8.33355 | 115° | 16km/h | 20788m | 5.1m/s | -54°C | 1.1% | 51.77hPa | 2.6V | 00:00:00 | 00:00:00 | 00:00:00 | |
| DM3KS-11 | 2026-08-30 11:52:55 | 49.87190 | 8.33355 | 115° | 16km/h | 20788m | 5.1m/s | -54.0°C | 1.1% | 51.8hPa | 2.7V | 00:00:00 | 00:00:00 | 00:00:00 | |
| DL1XH1-15 | 2026-08-30 11:52:54 | 49.87195 | 8.33344 | 136° | 18km/h | 20778m | 4.5m/s | -53.9°C | 4.2% | 51.8hPa | 2.7V | 03:54:16 | 01:22:38 | 00:00:00 | |
| DL1XH-west | 2026-08-30 11:52:53 | 49.87195 | 8.33344 | 136° | 18km/h | 20778m | 4.5m/s | -53.9°C | 0.6% | 51.8hPa | 2.7V | 03:54:27 | 01:22:38 | 00:00:00 | |
| BIOWL1-15 | 2026-08-30 11:52:51 | 49.87209 | 8.33299 | 103° | 16km/h | 20727m | 4.9m/s | -53.9°C | 0.6% | 52.3hPa | 2.6V | 03:54:27 | 01:22:27 | 00:00:00 | |
| BIOWL9-15 | 2026-08-30 11:52:50 | 49.87205 | 8.33330 | 128° | 15km/h | 20765m | 5.0m/s | -53.8°C | 1.2% | 51.9hPa | 2.6V | 00:00:00 | 00:00:00 | 00:00:00 | |
| DO1YAY-16 | 2026-08-30 11:52:49 | 49.87207 | 8.33325 | 117° | 13km/h | 20760m | 4.4m/s | -53.8°C | 1.2% | 52.0hPa | 2.6V | 00:00:00 | 00:00:00 | 00:00:00 | |
| DF7PN | 2026-08-30 11:52:48 | 49.87208 | 8.33321 | 106° | 9km/h | 20756m | 4.3m/s | -53.8°C | 1.1% | 52.0hPa | 2.6V | 00:00:00 | 00:00:00 | 00:00:00 | |
| DL3AQ-11 | 2026-08-30 11:52:47 | 49.87209 | 8.33318 | 94° | 5km/h | 20751m | 5.0m/s | -53.9°C | 1.1% | 52.0hPa | 2.6V | 00:00:00 | 00:00:00 | 00:00:00 | |
| DB0UT-9 | 2026-08-30 11:52:46 | 49.87208 | 8.33318 | 96° | 7km/h | 20751m | 5.0m/s | -53.9°C | 1.2% | 52.0hPa | 2.6V | 03:54:00 | 00:00:00 | 00:00:00 | |
| DM0DOS-11 | 2026-08-30 11:52:44 | 49.87209 | 8.33305 | 96° | 15km/h | 20732m | 5.2m/s | -53.9°C | 4.1% | 52.2hPa | 2.6V | 03:54:26 | 01:22:28 | 00:00:00 | |
| DO2JMG | 2026-08-30 11:52:44 | 49.87208 | 8.33309 | 90° | 11km/h | 20737m | 5.6m/s | 0°C | 0% | 0hPa | 2.6V | 03:54:27 | 01:22:29 | 00:00:00 | |
| DL1XH-west | 2026-08-30 11:52:43 | 49.87209 | 8.33305 | 97° | 15km/h | 20732m | 5.2m/s | -53.9°C | 0.6% | 52.2hPa | 2.6V | 03:54:27 | 01:22:28 | 00:00:00 | |
| DB0DAN | 2026-08-30 11:52:40 | 49.87212 | 8.33286 | 115° | 15km/h | 20717m | 5.4m/s | -53.9°C | 1.1% | 52.31hPa | 2.7V | 00:00:00 | 00:00:00 | 00:00:00 | |
| BIOWL1-15 | 2026-08-30 11:52:39 | 49.87214 | 8.33281 | 118° | 15km/h | 20712m | 5.1m/s | -53.9°C | 0.6% | 52.4hPa | 2.6V | 03:55:18 | 01:22:24 | 00:00:00 | |
| DL1XH-15 | 2026-08-30 11:52:39 | 49.87216 | 8.33272 | 101° | 13km/h | 20703m | 4.7m/s | -53.9°C | 0% | 52.4hPa | 2.6V | 00:00:00 | 01:22:22 | 00:00:00 | |
| DB0UT-7 | 2026-08-30 11:52:37 | 49.87216 | 8.33271 | 102° | 18km/h | 20704m | 4.7m/s | -53.9°C | 4.1% | 52.4hPa | 2.6V | 00:00:00 | 00:00:00 | 00:00:00 | |
| DL8OAI-8 | 2026-08-30 11:52:36 | 49.87216 | 8.33271 | 103° | 13km/h | 20704m | 4.7m/s | -53.9°C | 1.1% | 52.4hPa | 2.6V | 03:55:00 | 00:00:00 | 00:00:00 | |
| DL1XH1-15 | 2026-08-30 11:52:34 | 49.87213 | 8.33248 | 62° | 16km/h | 20683m | 5.6m/s | -54°C | 4.1% | 52.6hPa | 2.6V | 03:54:36 | 01:22:18 | 00:00:00 | |
| DL1XH-west | 2026-08-30 11:52:32 | 49.87211 | 8.33242 | 58° | 15km/h | 20677m | 4.8m/s | -54°C | 0.6% | 52.6hPa | 2.6V | 03:55:18 | 01:22:17 | 00:00:00 | |
| DL1XH-15 | 2026-08-30 11:52:30 | 49.87201 | 8.33210 | 68° | 20km/h | 20654m | 5.5m/s | -54.2°C | 0% | 0hPa | 2.7V | 00:00:00 | 01:22:12 | 00:00:00 | |
| BIOWL1-15 | 2026-08-30 11:52:29 | 49.87205 | 8.33224 | 65° | 20km/h | 20663m | 5m/s | -54.1°C | 0.6% | 52.8hPa | 2.7V | 03:55:18 | 01:22:14 | 00:00:00 | |
| BIOWL1-15 | 2026-08-30 11:52:22 | 49.87159 | 8.33142 | 33° | 24km/h | 20597m | 4m/s | -54.4°C | 0.6% | 53.3hPa | 2.7V | 03:55:18 | 01:22:00 | 00:00:00 | |
| DL1XH-west | 2026-08-30 11:52:21 | 49.87186 | 8.33169 | 47° | 20km/h | 20625m | 5m/s | -54.5°C | 0.8% | 53.1hPa | 2.7V | 03:55:18 | 01:22:06 | 00:00:00 | |
| DJ2KF-10 | 2026-08-30 11:52:21 | 49.87186 | 8.33169 | 47° | 15km/h | 20625m | 4.9m/s | -54.5°C | 4.4% | 53.0hPa | 2.6V | 00:00:00 | 01:22:06 | 00:00:00 | |
| DL1XH-15 | 2026-08-30 11:52:20 | 49.87169 | 8.33152 | 32° | 24km/h | 20605m | 4.9m/s | -54.5°C | 0% | 0hPa | 2.6V | 00:00:00 | 01:22:02 | 00:00:00 | |
| BIOWL9-15 | 2026-08-30 11:52:19 | 49.87179 | 8.33160 | 29° | 18km/h | 20615m | 4.4m/s | -54.5°C | 1.2% | 53.2hPa | 2.7V | 00:00:00 | 00:00:00 | 00:00:00 | |
| DO1YAY-16 | 2026-08-30 11:52:18 | 49.87174 | 8.33156 | 29° | 20km/h | 20610m | 5.2m/s | -54.5°C | 1.2% | 53.2hPa | 2.7V | 00:00:00 | 00:00:00 | 00:00:00 | |
| DF7PN | 2026-08-30 11:52:17 | 49.87169 | 8.33152 | 32° | 22km/h | 20605m | 4.9m/s | -54.5°C | 1.1% | 53.2hPa | 2.7V | 00:00:00 | 00:00:00 | 00:00:00 | |
| DJ2DS-15 | 2026-08-30 11:52:15 | 49.87159 | 8.33142 | 33° | 16km/h | 20597m | 3.9m/s | -54.3°C | 4.2% | 53.2hPa | 2.7V | 00:00:00 | 01:22:00 | 00:00:00 | |
| DL8DAS-15 | 2026-08-30 11:52:14 | 49.87159 | 8.33142 | 34° | 24km/h | 20597m | 4.0m/s | -54.4°C | 1.2% | 53.3hPa | 2.7V | 00:00:00 | 00:00:00 | 00:00:00 | |
| CB1BUN | 2026-08-30 11:52:13 | 49.87154 | 8.33137 | 30° | 22km/h | 20592m | 5.4m/s | -54.4°C | 1.1% | 53.4hPa | 2.7V | 03:55:00 | 00:00:00 | 00:00:00 | |
| DM0DOS-11 | 2026-08-30 11:52:12 | 49.87140 | 8.33120 | 57° | 16km/h | 20573m | 4.7m/s | -54.3°C | 4.2% | 53.5hPa | 2.7V | 03:54:59 | 01:21:55 | 00:00:00 | |
| BIOWL1-15 | 2026-08-30 11:52:10 | 49.87137 | 8.33110 | 61° | 13km/h | 20565m | 4.6m/s | -54.3°C | 0.7% | 53.6hPa | 2.6V | 03:55:18 | 01:21:53 | 00:00:00 | |
| DL1XH-west | 2026-08-30 11:52:10 | 49.87140 | 8.33120 | 57° | 16km/h | 20573m | 4.7m/s | -54.3°C | 0.7% | 53.5hPa | 2.7V | 03:55:18 | 01:21:55 | 00:00:00 | |
| HEMX73-11 | 2026-08-30 11:52:09 | 49.87140 | 8.33120 | 58° | 16km/h | 20574m | 4.7m/s | -54.3°C | 1.2% | 53.5hPa | 2.6V | 03:55:00 | 00:00:00 | 00:00:00 | |
| DL1XH-15 | 2026-08-30 11:52:08 | 49.87135 | 8.33106 | 50° | 11km/h | 20560m | 5.3m/s | -54.4°C | 0% | 0hPa | 2.6V | 00:00:00 | 01:21:52 | 00:00:00 | |
| DL3AQ-11 | 2026-08-30 11:52:08 | 49.87135 | 8.33106 | 50° | 11km/h | 20560m | 5.3m/s | -54.4°C | 1.2% | 53.6hPa | 2.7V | 00:00:00 | 00:00:00 | 00:00:00 | |
| DL1XH1-15 | 2026-08-30 11:52:07 | 49.87123 | 8.33091 | 44° | 20km/h | 20541m | 5.2m/s | -54.7°C | 4.3% | 53.8hPa | 2.7V | 03:55:06 | 01:21:48 | 00:00:00 | |
| DO2JMG | 2026-08-30 11:52:05 | 49.87130 | 8.33100 | 37° | 15km/h | 20551m | 3.9m/s | 0°C | 0% | 0hPa | 2.6V | 18:12:15 | 01:21:50 | 00:00:00 | |
| DB0UT-7 | 2026-08-30 11:52:05 | 49.87130 | 8.33100 | 38° | 13km/h | 20552m | 3.8m/s | -54.4°C | 4.3% | 53.6hPa | 2.7V | 00:00:00 | 01:21:50 | 00:00:00 | |
| DB0UT-9 | 2026-08-30 11:52:04 | 49.87130 | 8.33100 | 38° | 15km/h | 20552m | 3.9m/s | -54.5°C | 1.2% | 53.7hPa | 2.7V | 03:55:00 | 00:00:00 | 00:00:00 | |
| DM0DOS-11 | 2026-08-30 11:52:02 | 49.87106 | 8.33059 | 85° | 13km/h | 20513m | 5.2m/s | -54.5°C | 4.2% | 54hPa | 2.7V | 03:55:12 | 01:21:42 | 00:00:00 | |
| DL1XH-15 | 2026-08-30 11:52:00 | 49.87106 | 8.33054 | 104° | 13km/h | 20508m | 4.4m/s | 0°C | 0% | 0hPa | 2.6V | 00:00:00 | 01:21:41 | 00:00:00 | |
| BIOWL1-15 | 2026-08-30 11:52:00 | 49.87107 | 8.33064 | 64° | 15km/h | 20518m | 4.9m/s | -54.6°C | 0.7% | 54hPa | 2.7V | 03:55:18 | 01:21:43 | 00:00:00 | |
| DL1XH-west | 2026-08-30 11:51:59 | 49.87109 | 8.33069 | 49° | 16km/h | 20522m | 4.2m/s | -54.6°C | 0.7% | 53.9hPa | 2.6V | 03:55:18 | 01:21:44 | 00:00:00 | |
| DL1XH1-15 | 2026-08-30 11:51:58 | 49.87110 | 8.33044 | 133° | 7km/h | 20494m | 4.2m/s | -54.6°C | 4.3% | 54.2hPa | 2.7V | 03:55:16 | 01:21:38 | 00:00:00 | |
| DL3AQ-11 | 2026-08-30 11:51:55 | 49.87109 | 8.33046 | 126° | 9km/h | 20499m | 5.5m/s | -54.7°C | 1.2% | 54.1hPa | 2.6V | 00:00:00 | 00:00:00 | 00:00:00 | |
| DB0ND-19 | 2026-08-30 11:51:54 | 49.87109 | 8.33046 | 126° | 9km/h | 20499m | 5.5m/s | -54.7°C | 1.2% | 54.1hPa | 2.6V | 00:00:00 | 00:00:00 | 00:00:00 | |
| DM3KS-11 | 2026-08-30 11:51:53 | 49.87111 | 8.33042 | 127° | 5km/h | 20490m | 4.2m/s | -54.7°C | 1.2% | 54.2hPa | 2.6V | 00:00:00 | 00:00:00 | 00:00:00 | |
| DM0DOS-11 | 2026-08-30 11:51:52 | 49.87111 | 8.33022 | 62° | 11km/h | 20467m | 4.9m/s | -54.7°C | 4.3% | 54.4hPa | 2.6V | 03:55:22 | 01:21:32 | 00:00:00 | |
| DL1XH-west | 2026-08-30 11:51:49 | 49.87113 | 8.33031 | 84° | 11km/h | 20476m | 3.8m/s | -54.7°C | 0.7% | 54.3hPa | 2.6V | 03:56:09 | 01:21:34 | 00:00:00 | |
| DO2JMG | 2026-08-30 11:51:47 | 49.87111 | 8.33022 | 63° | 11km/h | 20467m | 4.9m/s | 0°C | 0% | 0hPa | 2.6V | 18:12:15 | 01:21:32 | 00:00:00 | |
| DJ2KF-10 | 2026-08-30 11:51:46 | 49.87110 | 8.33018 | 62° | 13km/h | 20463m | 3.4m/s | -54.7°C | 4.3% | 54.4hPa | 2.7V | 00:00:00 | 01:21:31 | 00:00:00 | |
| DL3AQ-11 | 2026-08-30 11:51:44 | 49.87108 | 8.33004 | 92° | 15km/h | 20450m | 5.0m/s | -54.8°C | 1.2% | 54.6hPa | 2.6V | 00:00:00 | 00:00:00 | 00:00:00 | |
| AU51GT2 | 2026-08-30 11:51:40 | 49.87110 | 8.32989 | 123° | 11km/h | 20435m | 4.6m/s | -54.9°C | 1.3% | 54.7hPa | 2.6V | 00:00:00 | 00:00:00 | 00:00:00 | |
| DM0DOS-11 | 2026-08-30 11:51:39 | 49.87116 | 8.32976 | 112° | 15km/h | 20421m | 4.4m/s | -54.6°C | 4.4% | 54.8hPa | 2.6V | 03:55:32 | 01:21:22 | 00:00:00 | |
| DL1XH-west | 2026-08-30 11:51:39 | 49.87112 | 8.32985 | 126° | 13km/h | 20431m | 4.3m/s | -54.8°C | 0.8% | 54.7hPa | 2.7V | 03:56:09 | 01:21:24 | 00:00:00 | |
| DL1XH1-15 | 2026-08-30 11:51:38 | 49.87114 | 8.32959 | 44° | 13km/h | 20401m | 4.6m/s | -54.7°C | 4.3% | 55hPa | 2.7V | 03:55:36 | 01:21:18 | 00:00:00 | |
| DO2JMG | 2026-08-30 11:51:37 | 49.87116 | 8.32976 | 113° | 15km/h | 20421m | 4.4m/s | 0°C | 0% | 0hPa | 2.6V | 18:12:15 | 01:21:22 | 00:00:00 | |
| DJ2DS-15 | 2026-08-30 11:51:36 | 49.87117 | 8.32971 | 99° | 13km/h | 20417m | 4.1m/s | -54.7°C | 1.2% | 54.8hPa | 2.7V | 00:00:00 | 00:00:00 | 00:00:00 | |
| DJ2DS-15 | 2026-08-30 11:51:35 | 49.87117 | 8.32966 | 83° | 13km/h | 20412m | 5.5m/s | -54.7°C | 4.3% | 54.9hPa | 2.7V | 00:00:00 | 01:21:20 | 00:00:00 | |
| DM0DOS-11 | 2026-08-30 11:51:32 | 49.87107 | 8.32934 | 120° | 9km/h | 20373m | 4.1m/s | -54.8°C | 4.3% | 55.2hPa | 2.7V | 03:55:42 | 01:21:12 | 00:00:00 | |
| BIOWL1-15 | 2026-08-30 11:51:29 | 49.87107 | 8.32934 | 120° | 9km/h | 20373m | 4.1m/s | -54.8°C | 0.7% | 55.2hPa | 2.7V | 03:56:09 | 01:21:12 | 00:00:00 | |
| DL1XH1-15 | 2026-08-30 11:51:28 | 49.87117 | 8.32915 | 123° | 18km/h | 20355m | 3.9m/s | -54.8°C | 4.3% | 55.4hPa | 2.6V | 03:55:46 | 01:21:08 | 00:00:00 | |
| DL1XH-west | 2026-08-30 11:51:28 | 49.87107 | 8.32938 | 93° | 9km/h | 20378m | 5.4m/s | -54.8°C | 0.7% | 55.2hPa | 2.7V | 03:56:09 | 01:21:13 | 00:00:00 | |
| DO2JMG | 2026-08-30 11:51:26 | 49.87109 | 8.32931 | 131° | 13km/h | 20369m | 4m/s | 0°C | 0% | 0hPa | 2.7V | 18:12:15 | 01:21:11 | 00:00:00 | |
| DB0UT-9 | 2026-08-30 11:51:24 | 49.87111 | 8.32926 | 131° | 16km/h | 20365m | 5.5m/s | -54.8°C | 1.2% | 55.3hPa | 2.7V | 03:56:00 | 00:00:00 | 00:00:00 | |
| DB0ND-19 | 2026-08-30 11:51:23 | 49.87116 | 8.32915 | 123° | 16km/h | 20355m | 3.9m/s | -54.8°C | 1.2% | 55.4hPa | 2.7V | 00:00:00 | 00:00:00 | 00:00:00 | |
| DM0DOS-11 | 2026-08-30 11:51:22 | 49.87124 | 8.32887 | 99° | 16km/h | 20328m | 4.9m/s | -54.8°C | 4.2% | 55.6hPa | 2.7V | 03:55:52 | 01:21:02 | 00:00:00 | |
| DL1XH-west | 2026-08-30 11:51:17 | 49.87124 | 8.32887 | 99° | 16km/h | 20328m | 4.9m/s | -54.8°C | 0.7% | 55.6hPa | 2.7V | 03:56:09 | 01:21:02 | 00:00:00 | |
| DL1XH1-15 | 2026-08-30 11:51:16 | 49.87130 | 8.32864 | 124° | 15km/h | 20310m | 3.8m/s | -55.2°C | 4.3% | 55.8hPa | 2.6V | 03:55:56 | 01:20:58 | 00:00:00 | |
| DO2JMG | 2026-08-30 11:51:13 | 49.87130 | 8.32864 | 124° | 15km/h | 20310m | 3.8m/s | 0°C | 0% | 0hPa | 2.6V | 18:12:15 | 01:20:58 | 00:00:00 | |
| DM0DOS-11 | 2026-08-30 11:51:12 | 49.87135 | 8.32831 | 69° | 11km/h | 20282m | 4.8m/s | -55.2°C | 4.4% | 56hPa | 2.6V | 03:56:02 | 01:20:52 | 00:00:00 | |
| DC4HF-4 | 2026-08-30 11:51:12 | 49.87132 | 8.32859 | 120° | 15km/h | 20306m | 4.4m/s | -55.3°C | 1.2% | 55.8hPa | 2.7V | 00:00:00 | 00:00:00 | 00:00:00 | |
| KANTATE | 2026-08-30 11:51:11 | 49.87132 | 8.32859 | 122° | 16km/h | 20306m | 4.4m/s | -55.3°C | 1.2% | 55.8hPa | 2.7V | 00:00:00 | 00:00:00 | 00:00:00 | |
| DL8OAI-8 | 2026-08-30 11:51:10 | 49.87134 | 8.32853 | 113° | 16km/h | 20301m | 5.4m/s | -55.3°C | 1.3% | 55.9hPa | 2.7V | 03:56:00 | 00:00:00 | 00:00:00 | |
| AU51GT2 | 2026-08-30 11:51:09 | 49.87135 | 8.32841 | 90° | 15km/h | 20292m | 4.0m/s | -55.3°C | 1.3% | 56.0hPa | 2.7V | 00:00:00 | 00:00:00 | 00:00:00 | |
| DL1XH1-15 | 2026-08-30 11:51:08 | 49.87127 | 8.32812 | 63° | 18km/h | 20264m | 4.1m/s | -55.4°C | 4.5% | 56.2hPa | 2.7V | 03:56:06 | 01:20:48 | 00:00:00 | |
| DL1XH-west | 2026-08-30 11:51:07 | 49.87135 | 8.32831 | 69° | 11km/h | 20282m | 4.8m/s | -55.3°C | 0.7% | 56hPa | 2.6V | 03:56:09 | 01:20:52 | 00:00:00 | |
| BIOWL1-15 | 2026-08-30 11:51:06 | 49.87133 | 8.32827 | 57° | 11km/h | 20278m | 3.3m/s | -55.2°C | 0.8% | 56.1hPa | 2.6V | 03:56:09 | 01:20:51 | 00:00:00 | |
| DB0UT-7 | 2026-08-30 11:51:05 | 49.87132 | 8.32823 | 55° | 24km/h | 20274m | 4.9m/s | -55.2°C | 4.4% | 56.1hPa | 2.6V | 03:56:00 | 01:20:50 | 00:00:00 | |
| DL3AQ-11 | 2026-08-30 11:51:04 | 49.87127 | 8.32812 | 63° | 16km/h | 20264m | 4.1m/s | -55.4°C | 1.2% | 56.2hPa | 2.6V | 00:00:00 | 00:00:00 | 00:00:00 | |
| DL1XH1-15 | 2026-08-30 11:50:58 | 49.87115 | 8.32733 | 61° | 22km/h | 20218m | 4.2m/s | -55.6°C | 4.5% | 56.6hPa | 2.6V | 03:56:16 | 01:20:38 | 00:00:00 | |
| BIOWL1-15 | 2026-08-30 11:50:57 | 49.87119 | 8.32749 | 75° | 22km/h | 20226m | 5m/s | -55.6°C | 0.7% | 56.5hPa | 2.6V | 03:57:00 | 01:20:40 | 00:00:00 | |
| DL1XH-west | 2026-08-30 11:50:56 | 49.87120 | 8.32757 | 78° | 24km/h | 20231m | 4.8m/s | -55.7°C | 0.7% | 56.5hPa | 2.6V | 03:57:00 | 01:20:41 | 00:00:00 | |
| DB0ND-19 | 2026-08-30 11:50:52 | 49.87112 | 8.32725 | 57° | 24km/h | 20213m | 5.9m/s | -55.6°C | 1.3% | 56.6hPa | 2.7V | 00:00:00 | 00:00:00 | 00:00:00 | |
| DM3KS-11 | 2026-08-30 11:50:51 | 49.87108 | 8.32718 | 54° | 24km/h | 20208m | 4.7m/s | -55.6°C | 1.3% | 56.7hPa | 2.7V | 00:00:00 | 00:00:00 | 00:00:00 | |
| DL1ZP-14 | 2026-08-30 11:50:50 | 49.87105 | 8.32710 | 54° | 22km/h | 20203m | 4.4m/s | -55.6°C | 1.3% | 56.7hPa | 2.7V | 00:00:00 | 00:00:00 | 00:00:00 | |
| DL8OAI-8 | 2026-08-30 11:50:49 | 49.87105 | 8.32710 | 56° | 24km/h | 20204m | 4.4m/s | -55.6°C | 1.3% | 56.7hPa | 2.6V | 03:57:00 | 00:00:00 | 00:00:00 | |
| DL1XH1-15 | 2026-08-30 11:50:48 | 49.87088 | 8.32653 | 67° | 26km/h | 20172m | 4.6m/s | -55.6°C | 4.4% | 57hPa | 2.6V | 03:56:26 | 01:20:28 | 00:00:00 | |
| DL3AQ-11 | 2026-08-30 11:50:48 | 49.87097 | 8.32689 | 67° | 20km/h | 20189m | 4.5m/s | -55.5°C | 1.2% | 56.9hPa | 2.7V | 00:00:00 | 00:00:00 | 00:00:00 | |
| HEMX73-11 | 2026-08-30 11:50:47 | 49.87099 | 8.32696 | 62° | 20km/h | 20194m | 4.4m/s | -55.5°C | 1.3% | 56.8hPa | 2.7V | 03:57:00 | 00:00:00 | 00:00:00 | |
| DM0DOS-11 | 2026-08-30 11:50:46 | 49.87082 | 8.32637 | 59° | 24km/h | 20162m | 4.2m/s | -55.6°C | 4.4% | 57.1hPa | 2.7V | 03:56:28 | 01:20:26 | 00:00:00 | |
| DL1XH-west | 2026-08-30 11:50:45 | 49.87093 | 8.32672 | 70° | 26km/h | 20180m | 4.4m/s | -55.5°C | 0.8% | 56.9hPa | 2.7V | 03:57:00 | 01:20:30 | 00:00:00 | |
| BIOWL1-15 | 2026-08-30 11:50:44 | 49.87090 | 8.32663 | 69° | 27km/h | 20176m | 3.6m/s | -55.6°C | 0.7% | 57hPa | 2.6V | 03:57:00 | 01:20:29 | 00:00:00 | |
| DL1XH-west | 2026-08-30 11:50:34 | 49.87048 | 8.32585 | 33° | 27km/h | 20129m | 4m/s | -55.5°C | 0.9% | 57.4hPa | 2.7V | 03:57:00 | 01:20:19 | 00:00:00 | |
| DL1XH1-15 | 2026-08-30 11:50:34 | 49.87042 | 8.32578 | 37° | 29km/h | 20124m | 5.3m/s | -55.5°C | 4.6% | 57.5hPa | 2.7V | 03:56:36 | 01:20:18 | 00:00:00 | |
| DL8DAS-14 | 2026-08-30 11:50:33 | 49.87036 | 8.32571 | 41° | 29km/h | 20120m | 4.3m/s | -55.6°C | 1.3% | 57.5hPa | 2.7V | 00:00:00 | 00:00:00 | 00:00:00 | |
| DM0DOS-11 | 2026-08-30 11:50:31 | 49.87018 | 8.32543 | 47° | 22km/h | 20101m | 4.9m/s | -55.6°C | 4.4% | 57.7hPa | 2.7V | 03:56:41 | 01:20:13 | 00:00:00 | |
| DL8OAI-8 | 2026-08-30 11:50:29 | 49.87026 | 8.32556 | 46° | 26km/h | 20111m | 5.3m/s | -55.6°C | 1.3% | 57.6hPa | 2.7V | 03:57:00 | 00:00:00 | 00:00:00 | |
| DL1XH1-15 | 2026-08-30 11:50:28 | 49.86996 | 8.32508 | 31° | 29km/h | 20077m | 5.4m/s | -55.5°C | 4.5% | 57.9hPa | 2.7V | 03:56:46 | 01:20:08 | 00:00:00 | |
| BIOWL1-15 | 2026-08-30 11:50:23 | 49.86974 | 8.32491 | 28° | 35km/h | 20063m | 5.5m/s | -55.4°C | 0.8% | 58hPa | 2.6V | 03:57:00 | 01:20:05 | 00:00:00 | |
| DL1XH-west | 2026-08-30 11:50:23 | 49.86996 | 8.32508 | 32° | 29km/h | 20077m | 5.4m/s | -55.5°C | 0.8% | 57.9hPa | 2.7V | 03:57:00 | 01:20:08 | 00:00:00 | |
| DL4BBY-15 | 2026-08-30 11:50:21 | 49.86982 | 8.32497 | 27° | 35km/h | 20069m | 4.2m/s | -56.5°C | 0% | 0hPa | 2.6V | 00:00:00 | 00:00:00 | 00:00:00 | |
| DM3KS-11 | 2026-08-30 11:50:20 | 49.86966 | 8.32484 | 31° | 35km/h | 20059m | 4.4m/s | -55.3°C | 1.2% | 58.0hPa | 2.6V | 00:00:00 | 00:00:00 | 00:00:00 | |
| DL1ZP-14 | 2026-08-30 11:50:19 | 49.86966 | 8.32484 | 31° | 35km/h | 20059m | 4.4m/s | -55.3°C | 1.2% | 58.0hPa | 2.6V | 00:00:00 | 00:00:00 | 00:00:00 | |
| KANTATE | 2026-08-30 11:50:16 | 49.86951 | 8.32470 | 32° | 33km/h | 20050m | 4.6m/s | -55.4°C | 1.2% | 58.1hPa | 2.6V | 00:00:00 | 00:00:00 | 00:00:00 | |
| DL1XH1-15 | 2026-08-30 11:50:13 | 49.86888 | 8.32414 | 26° | 33km/h | 20009m | 4.2m/s | -55.4°C | 4.5% | 58.5hPa | 2.6V | 03:57:01 | 01:19:53 | 00:00:00 | |
| DL1XH-west | 2026-08-30 11:50:12 | 49.86916 | 8.32439 | 33° | 33km/h | 20027m | 5.1m/s | -55.4°C | 0.8% | 58.3hPa | 2.6V | 03:57:00 | 01:19:57 | 00:00:00 | |
| DB0DAN | 2026-08-30 11:50:10 | 49.86902 | 8.32426 | 30° | 31km/h | 20018m | 5.3m/s | -55.4°C | 1.2% | 58.39hPa | 2.7V | 00:00:00 | 00:00:00 | 00:00:00 | |
| DJTTGO | 2026-08-30 11:50:09 | 49.86902 | 8.32425 | 31° | 33km/h | 20018m | 5.3m/s | -55.4°C | 1.2% | 58.4hPa | 2.6V | 03:57:00 | 00:00:00 | 00:00:00 | |
| AU51GT2 | 2026-08-30 11:50:08 | 49.86880 | 8.32408 | 27° | 35km/h | 20004m | 5.4m/s | -55.4°C | 1.2% | 58.5hPa | 2.6V | 00:00:00 | 00:00:00 | 00:00:00 | |
| HEMX73-11 | 2026-08-30 11:50:06 | 49.86880 | 8.32408 | 28° | 35km/h | 20004m | 5.4m/s | -55.4°C | 1.2% | 58.6hPa | 2.6V | 03:57:00 | 00:00:00 | 00:00:00 | |
| DL0LBS | 2026-08-30 11:50:05 | 49.86872 | 8.32401 | 31° | 37km/h | 19999m | 4.7m/s | 0°C | 0% | 58.6hPa | 2.6V | 00:00:00 | 00:00:00 | 00:00:00 | |
| DD1CC8 | 2026-08-30 11:50:04 | 49.86848 | 8.32381 | 27° | 33km/h | 19986m | 4.8m/s | -55.3°C | 1.2% | 58.7hPa | 2.6V | 00:00:00 | 00:00:00 | 00:00:00 | |
| DL1XH1-15 | 2026-08-30 11:50:03 | 49.86819 | 8.32353 | 35° | 37km/h | 19966m | 4.8m/s | -55.2°C | 4.5% | 58.9hPa | 2.6V | 03:57:10 | 01:19:44 | 00:00:00 | |
| DL1XH-west | 2026-08-30 11:50:02 | 49.86841 | 8.32375 | 28° | 33km/h | 19981m | 4.4m/s | -55.2°C | 0.9% | 58.8hPa | 2.6V | 03:57:51 | 01:19:47 | 00:00:00 | |
| BIOWL1-15 | 2026-08-30 11:50:02 | 49.86826 | 8.32361 | 34° | 35km/h | 19971m | 5m/s | -55.2°C | 0.8% | 58.8hPa | 2.6V | 03:57:51 | 01:19:45 | 00:00:00 | |
| DC4HF-4 | 2026-08-30 11:50:00 | 49.86826 | 8.32361 | 34° | 33km/h | 19971m | 5.0m/s | -55.2°C | 1.3% | 58.8hPa | 2.6V | 00:00:00 | 00:00:00 | 00:00:00 | |
| DL3AQ-11 | 2026-08-30 11:49:55 | 49.86775 | 8.32320 | 17° | 40km/h | 19944m | 5.0m/s | -55.1°C | 1.2% | 59.1hPa | 2.6V | 00:00:00 | 00:00:00 | 00:00:00 | |
| DM0DOS-11 | 2026-08-30 11:49:51 | 49.86727 | 8.32298 | 13° | 33km/h | 19921m | 4.7m/s | -55°C | 4.4% | 59.3hPa | 2.6V | 03:57:20 | 01:19:34 | 00:00:00 | |
| BIOWL1-15 | 2026-08-30 11:49:51 | 49.86744 | 8.32305 | 16° | 40km/h | 19931m | 3.9m/s | -55°C | 0.7% | 59.2hPa | 2.7V | 03:57:51 | 01:19:36 | 00:00:00 | |
| DB0ND-19 | 2026-08-30 11:49:50 | 49.86735 | 8.32302 | 14° | 37km/h | 19926m | 5.5m/s | -55.0°C | 1.2% | 59.2hPa | 2.6V | 00:00:00 | 00:00:00 | 00:00:00 | |
| DM3KS-11 | 2026-08-30 11:49:49 | 49.86719 | 8.32295 | 17° | 31km/h | 19917m | 3.5m/s | -54.9°C | 1.2% | 59.4hPa | 2.6V | 00:00:00 | 00:00:00 | 00:00:00 | |
| DL1ZP-14 | 2026-08-30 11:49:48 | 49.86719 | 8.32295 | 17° | 31km/h | 19917m | 3.5m/s | -54.9°C | 1.2% | 59.4hPa | 2.6V | 00:00:00 | 00:00:00 | 00:00:00 | |
| DL0LBS | 2026-08-30 11:49:45 | 49.86696 | 8.32279 | 31° | 37km/h | 19904m | 4.2m/s | 0°C | 0% | 0hPa | 2.7V | 00:00:00 | 00:00:00 | 00:00:00 | |
| BIOWL9-15 | 2026-08-30 11:49:44 | 49.86680 | 8.32265 | 26° | 37km/h | 19896m | 4.6m/s | -54.8°C | 1.2% | 59.5hPa | 2.7V | 00:00:00 | 00:00:00 | 00:00:00 | |
| DL1XH1-15 | 2026-08-30 11:49:43 | 49.86647 | 8.32246 | 20° | 31km/h | 19878m | 5.2m/s | -54.7°C | 4.3% | 59.7hPa | 2.7V | 03:57:30 | 01:19:24 | 00:00:00 | |
| BIOWL1-15 | 2026-08-30 11:49:40 | 49.86655 | 8.32250 | 19° | 33km/h | 19882m | 4.1m/s | -54.9°C | 0.7% | 59.7hPa | 2.7V | 03:57:51 | 01:19:25 | 00:00:00 | |
| DM0DOS-11 | 2026-08-30 11:49:38 | 49.86608 | 8.32229 | 9° | 27km/h | 19851m | 4.2m/s | -55°C | 4.4% | 60hPa | 2.7V | 03:57:36 | 01:19:18 | 00:00:00 | |
| DL1XH-west | 2026-08-30 11:49:30 | 49.86585 | 8.32220 | 17° | 37km/h | 19837m | 3.8m/s | -54.9°C | 0.8% | 60.1hPa | 2.6V | 03:57:51 | 01:19:15 | 00:00:00 | |
| BIOWL1-15 | 2026-08-30 11:49:29 | 49.86560 | 8.32211 | 9° | 31km/h | 19824m | 4.5m/s | -54.7°C | 0.7% | 60.2hPa | 2.7V | 03:57:51 | 01:19:12 | 00:00:00 | |
| DM0DOS-11 | 2026-08-30 11:49:28 | 49.86531 | 8.32201 | 16° | 26km/h | 19805m | 4.1m/s | -54.8°C | 4.4% | 60.4hPa | 2.6V | 03:57:46 | 01:19:08 | 00:00:00 | |
| DL8OAI-8 | 2026-08-30 11:49:27 | 49.86568 | 8.32213 | 13° | 33km/h | 19828m | 4.8m/s | -54.7°C | 1.2% | 60.2hPa | 2.6V | 03:57:00 | 00:00:00 | 00:00:00 | |
| DC4HF-4 | 2026-08-30 11:49:24 | 49.86531 | 8.32201 | 16° | 26km/h | 19805m | 4.1m/s | -54.8°C | 1.2% | 60.4hPa | 2.6V | 00:00:00 | 00:00:00 | 00:00:00 | |
| DL1XH1-15 | 2026-08-30 11:49:23 | 49.86508 | 8.32194 | 12° | 22km/h | 19787m | 4.5m/s | -54.7°C | 4.4% | 60.5hPa | 2.6V | 03:57:50 | 01:19:04 | 00:00:00 | |
| DL1XH-west | 2026-08-30 11:49:19 | 49.86508 | 8.32194 | 12° | 22km/h | 19787m | 4.5m/s | -54.7°C | 0.7% | 60.5hPa | 2.6V | 03:57:51 | 01:19:04 | 00:00:00 | |
| DM0DOS-11 | 2026-08-30 11:49:18 | 49.86470 | 8.32180 | 1° | 26km/h | 19758m | 3.6m/s | -54.6°C | 4.2% | 60.8hPa | 2.6V | 03:57:56 | 01:18:58 | 00:00:00 | |
| BIOWL1-15 | 2026-08-30 11:49:16 | 49.86477 | 8.32181 | 5° | 26km/h | 19762m | 4.5m/s | -54.6°C | 0.7% | 60.8hPa | 2.6V | 03:58:42 | 01:18:59 | 00:00:00 | |
| DL1XH-west | 2026-08-30 11:49:09 | 49.86434 | 8.32176 | 359° | 24km/h | 19731m | 4.2m/s | -54.5°C | 0.7% | 61.1hPa | 2.6V | 03:58:42 | 01:18:52 | 00:00:00 | |
| BIOWL1-15 | 2026-08-30 11:49:05 | 49.86422 | 8.32175 | 9° | 24km/h | 19721m | 5.6m/s | -54.5°C | 0.7% | 61.2hPa | 2.7V | 03:58:42 | 01:18:50 | 00:00:00 | |
| DL3AQ-11 | 2026-08-30 11:49:04 | 49.86417 | 8.32173 | 13° | 24km/h | 19716m | 4.5m/s | -54.5°C | 1.2% | 61.2hPa | 2.7V | 00:00:00 | 00:00:00 | 00:00:00 | |
| DL1XH1-15 | 2026-08-30 11:49:02 | 49.86385 | 8.32168 | 2° | 24km/h | 19694m | 4.4m/s | -54.8°C | 4.3% | 61.5hPa | 2.7V | 03:58:10 | 01:18:44 | 00:00:00 | |
| DL1XH-west | 2026-08-30 11:48:56 | 49.86369 | 8.32163 | 19° | 16km/h | 19679m | 4m/s | -55°C | 0.7% | 61.6hPa | 2.6V | 03:58:42 | 01:18:41 | 00:00:00 | |
| BIOWL1-15 | 2026-08-30 11:48:54 | 49.86362 | 8.32160 | 15° | 15km/h | 19669m | 4.6m/s | -54.9°C | 0.8% | 61.7hPa | 2.6V | 03:58:42 | 01:18:39 | 00:00:00 | |
| DL1XH-west | 2026-08-30 11:48:45 | 49.86333 | 8.32148 | 6° | 15km/h | 19627m | 5.4m/s | -54.9°C | 0.7% | 62.1hPa | 2.6V | 03:58:42 | 01:18:30 | 00:00:00 | |
| BIOWL1-15 | 2026-08-30 11:48:43 | 49.86327 | 8.32145 | 17° | 13km/h | 19618m | 3.9m/s | -54.8°C | 0.7% | 62.2hPa | 2.6V | 03:58:42 | 01:18:28 | 00:00:00 | |
| DL1XH-west | 2026-08-30 11:48:34 | 49.86295 | 8.32135 | 358° | 13km/h | 19575m | 4.6m/s | -54.4°C | 0.7% | 62.6hPa | 2.6V | 03:58:42 | 01:18:19 | 00:00:00 | |
| BIOWL1-15 | 2026-08-30 11:48:32 | 49.86289 | 8.32136 | 355° | 9km/h | 19567m | 4.8m/s | -54.3°C | 0.7% | 62.7hPa | 2.6V | 03:58:42 | 01:18:17 | 00:00:00 | |
| DM0DOS-11 | 2026-08-30 11:48:31 | 49.86283 | 8.32135 | 2° | 11km/h | 19552m | 4.9m/s | -54.2°C | 4.2% | 62.8hPa | 2.7V | 03:58:40 | 01:18:14 | 00:00:00 | |
| DL1XH-west | 2026-08-30 11:48:24 | 49.86266 | 8.32135 | 15° | 13km/h | 19527m | 4.9m/s | -54.2°C | 0.6% | 63.1hPa | 2.7V | 03:59:33 | 01:18:09 | 00:00:00 | |
| DL3AQ-11 | 2026-08-30 11:48:24 | 49.86263 | 8.32134 | 14° | 9km/h | 19523m | 4.2m/s | -54.1°C | 1.2% | 63.1hPa | 2.6V | 00:00:00 | 00:00:00 | 00:00:00 | |
| HEMX73-11 | 2026-08-30 11:48:22 | 49.86263 | 8.32134 | 16° | 11km/h | 19523m | 4.2m/s | -54.1°C | 1.2% | 63.1hPa | 2.6V | 03:59:00 | 00:00:00 | 00:00:00 | |
| DM0DOS-11 | 2026-08-30 11:48:21 | 49.86254 | 8.32137 | 331° | 9km/h | 19503m | 5.7m/s | -54°C | 4.1% | 63.3hPa | 2.6V | 03:58:50 | 01:18:04 | 00:00:00 | |
| BIOWL1-15 | 2026-08-30 11:48:21 | 49.86258 | 8.32134 | 347° | 9km/h | 19513m | 5.3m/s | -54.2°C | 0.6% | 63.2hPa | 2.6V | 03:59:33 | 01:18:06 | 00:00:00 | |
| DL1XH-west | 2026-08-30 11:48:13 | 49.86239 | 8.32149 | 338° | 11km/h | 19474m | 4.9m/s | -54°C | 0.6% | 63.6hPa | 2.7V | 03:59:33 | 01:17:58 | 00:00:00 | |
| DL1XH1-15 | 2026-08-30 11:48:12 | 49.86234 | 8.32148 | 14° | 4km/h | 19453m | 6m/s | -54.2°C | 4.1% | 63.8hPa | 2.6V | 03:59:00 | 01:17:54 | 00:00:00 | |
| DC4HF-4 | 2026-08-30 11:48:12 | 49.86235 | 8.32149 | 21° | 4km/h | 19463m | 4.8m/s | -54.1°C | 1.2% | 63.7hPa | 2.6V | 00:00:00 | 00:00:00 | 00:00:00 | |
| DM0DOS-11 | 2026-08-30 11:48:11 | 49.86232 | 8.32148 | 334° | 5km/h | 19447m | 6.4m/s | -54.3°C | 4.1% | 63.9hPa | 2.6V | 03:59:01 | 01:17:53 | 00:00:00 | |
| BIOWL1-15 | 2026-08-30 11:48:10 | 49.86228 | 8.32152 | 336° | 13km/h | 19437m | 4m/s | -54.4°C | 0.6% | 64hPa | 2.7V | 03:59:33 | 01:17:51 | 00:00:00 | |
| DL1XH-west | 2026-08-30 11:48:03 | 49.86215 | 8.32147 | 45° | 16km/h | 19415m | 5.7m/s | -54.4°C | 0.6% | 64.2hPa | 2.7V | 03:59:33 | 01:17:47 | 00:00:00 | |
| DL1XH1-15 | 2026-08-30 11:48:02 | 49.86207 | 8.32131 | 48° | 16km/h | 19399m | 5.3m/s | -54.6°C | 4.4% | 64.3hPa | 2.6V | 03:59:10 | 01:17:44 | 00:00:00 | |
| BIOWL1-15 | 2026-08-30 11:47:57 | 49.86201 | 8.32122 | 44° | 16km/h | 19390m | 4.3m/s | -54.6°C | 0.7% | 64.4hPa | 2.6V | 03:59:33 | 01:17:42 | 00:00:00 | |
| DM0DOS-11 | 2026-08-30 11:47:56 | 49.86176 | 8.32091 | 32° | 24km/h | 19361m | 4m/s | -54.8°C | 4.3% | 64.7hPa | 2.6V | 03:59:18 | 01:17:36 | 00:00:00 | |
| DL1XH-west | 2026-08-30 11:47:51 | 49.86176 | 8.32091 | 33° | 24km/h | 19361m | 4m/s | -54.8°C | 0.7% | 64.7hPa | 2.6V | 03:59:33 | 01:17:36 | 00:00:00 | |
| DL1XH1-15 | 2026-08-30 11:47:50 | 49.86166 | 8.32079 | 44° | 27km/h | 19351m | 4.8m/s | -54.8°C | 4.3% | 64.8hPa | 2.7V | 03:59:20 | 01:17:34 | 00:00:00 | |
| BIOWL1-15 | 2026-08-30 11:47:46 | 49.86141 | 8.32040 | 39° | 22km/h | 19323m | 5.6m/s | -54.9°C | 0.7% | 65.2hPa | 2.7V | 03:59:33 | 01:17:28 | 00:00:00 | |
| DB0ND-19 | 2026-08-30 11:47:46 | 49.86153 | 8.32057 | 46° | 22km/h | 19337m | 4.9m/s | -54.7°C | 1.2% | 65.0hPa | 2.6V | 00:00:00 | 00:00:00 | 00:00:00 | |
| DM3KS-11 | 2026-08-30 11:47:45 | 49.86145 | 8.32046 | 39° | 20km/h | 19328m | 4.5m/s | -54.9°C | 1.2% | 65.1hPa | 2.6V | 00:00:00 | 00:00:00 | 00:00:00 | |
| DL8OAI-8 | 2026-08-30 11:47:43 | 49.86145 | 8.32046 | 40° | 22km/h | 19328m | 4.5m/s | -54.9°C | 1.2% | 65.1hPa | 2.6V | 03:59:00 | 00:00:00 | 00:00:00 | |
| DL1XH1-15 | 2026-08-30 11:47:42 | 49.86123 | 8.32022 | 26° | 16km/h | 19304m | 4.2m/s | -54.9°C | 4.4% | 65.3hPa | 2.6V | 03:59:30 | 01:17:24 | 00:00:00 | |
| DL1XH-west | 2026-08-30 11:47:40 | 49.86127 | 8.32026 | 28° | 20km/h | 19309m | 5.7m/s | -54.9°C | 0.8% | 65.3hPa | 2.6V | 03:59:33 | 01:17:25 | 00:00:00 | |
| BIOWL1-15 | 2026-08-30 11:47:34 | 49.86107 | 8.31996 | 63° | 15km/h | 19275m | 4.1m/s | -55°C | 0.7% | 65.6hPa | 2.7V | 04:00:24 | 01:17:18 | 00:00:00 | |
| DJ2DS-15 | 2026-08-30 11:47:34 | 49.86109 | 8.32001 | 61° | 15km/h | 19280m | 5.4m/s | -55.0°C | 4.3% | 65.5hPa | 2.6V | 00:00:00 | 01:17:19 | 00:00:00 | |
| AU51GT2 | 2026-08-30 11:47:32 | 49.86106 | 8.31991 | 65° | 15km/h | 19271m | 3.7m/s | -55.1°C | 1.2% | 65.7hPa | 2.6V | 00:00:00 | 00:00:00 | 00:00:00 | |
| DB0UT-9 | 2026-08-30 11:47:31 | 49.86106 | 8.31991 | 66° | 15km/h | 19271m | 3.7m/s | -55.1°C | 1.3% | 65.6hPa | 2.6V | 04:00:00 | 00:00:00 | 00:00:00 | |
| DL1XH1-15 | 2026-08-30 11:47:30 | 49.86100 | 8.31973 | 62° | 18km/h | 19257m | 3.8m/s | -55.3°C | 4.5% | 65.8hPa | 2.6V | 03:59:40 | 01:17:14 | 00:00:00 | |
| DL1XH-west | 2026-08-30 11:47:29 | 49.86100 | 8.31973 | 62° | 18km/h | 19257m | 3.8m/s | -55.3°C | 0.8% | 65.8hPa | 2.6V | 04:00:24 | 01:17:14 | 00:00:00 | |
| BIOWL1-15 | 2026-08-30 11:47:23 | 49.86086 | 8.31953 | 26° | 16km/h | 19230m | 4.6m/s | -55.1°C | 0.8% | 66.1hPa | 2.6V | 04:00:24 | 01:17:08 | 00:00:00 | |
| DL1XH1-15 | 2026-08-30 11:47:22 | 49.86072 | 8.31945 | 15° | 13km/h | 19212m | 3.8m/s | -55°C | 4.5% | 66.3hPa | 2.7V | 03:59:50 | 01:17:04 | 00:00:00 | |
| HSKMA3-T | 2026-08-30 11:47:21 | 49.86079 | 8.31948 | 22° | 15km/h | 19221m | 4.5m/s | 0°C | 0% | 0hPa | 2.6V | 18:12:15 | 01:17:06 | 00:00:00 | |
| DL1XH-west | 2026-08-30 11:47:19 | 49.86072 | 8.31945 | 15° | 13km/h | 19212m | 3.8m/s | -55°C | 0.8% | 66.3hPa | 2.7V | 04:00:24 | 01:17:04 | 00:00:00 | |
| BIOWL1-15 | 2026-08-30 11:47:12 | 49.86041 | 8.31925 | 29° | 15km/h | 19170m | 5m/s | -54.7°C | 0.8% | 66.7hPa | 2.6V | 04:00:24 | 01:16:55 | 00:00:00 | |
| DL1XH1-15 | 2026-08-30 11:47:10 | 49.86038 | 8.31923 | 26° | 15km/h | 19166m | 4m/s | -54.6°C | 4.4% | 66.8hPa | 2.7V | 04:00:00 | 01:16:54 | 00:00:00 | |
| DL1XH-west | 2026-08-30 11:47:08 | 49.86035 | 8.31921 | 18° | 13km/h | 19161m | 5.2m/s | -54.6°C | 0.7% | 66.8hPa | 2.7V | 04:00:24 | 01:16:53 | 00:00:00 | |
| DM0DOS-11 | 2026-08-30 11:47:08 | 49.86017 | 8.31918 | 14° | 18km/h | 19137m | 4.4m/s | -54.4°C | 4.4% | 67hPa | 2.7V | 04:00:06 | 01:16:48 | 00:00:00 | |
| DO1YAY-16 | 2026-08-30 11:47:08 | 49.86032 | 8.31920 | 2° | 11km/h | 19156m | 5.0m/s | -54.5°C | 1.3% | 66.9hPa | 2.6V | 00:00:00 | 00:00:00 | 00:00:00 | |
| DF7PN | 2026-08-30 11:47:06 | 49.86029 | 8.31920 | 356° | 13km/h | 19151m | 4.1m/s | -54.5°C | 1.2% | 66.9hPa | 2.6V | 00:00:00 | 00:00:00 | 00:00:00 | |
| DL1XH1-15 | 2026-08-30 11:47:04 | 49.86002 | 8.31912 | 9° | 11km/h | 19119m | 4.2m/s | -54.2°C | 4.3% | 67.2hPa | 2.6V | 04:00:10 | 01:16:44 | 00:00:00 | |
| BIOWL1-15 | 2026-08-30 11:47:01 | 49.86009 | 8.31914 | 19° | 16km/h | 19128m | 4.7m/s | -54.3°C | 0.8% | 67.1hPa | 2.6V | 04:00:24 | 01:16:46 | 00:00:00 | |
| DL1XH-west | 2026-08-30 11:46:57 | 49.85997 | 8.31910 | 10° | 11km/h | 19109m | 5.4m/s | -54.2°C | 0.7% | 67.3hPa | 2.7V | 04:00:24 | 01:16:42 | 00:00:00 | |
| DL8DAS-14 | 2026-08-30 11:46:56 | 49.85991 | 8.31909 | 5° | 11km/h | 19101m | 3.6m/s | -54.1°C | 1.2% | 67.5hPa | 2.6V | 00:00:00 | 00:00:00 | 00:00:00 | |
| DJ2DS-15 | 2026-08-30 11:46:54 | 49.85988 | 8.31908 | 357° | 9km/h | 19096m | 5.1m/s | -54.0°C | 4.3% | 67.4hPa | 2.6V | 00:00:00 | 01:16:39 | 00:00:00 | |
| DL1XH1-15 | 2026-08-30 11:46:53 | 49.85974 | 8.31910 | 18° | 15km/h | 19072m | 4.5m/s | -53.8°C | 4.2% | 67.7hPa | 2.6V | 04:00:20 | 01:16:34 | 00:00:00 | |
| BIOWL1-15 | 2026-08-30 11:46:53 | 49.85980 | 8.31911 | 352° | 11km/h | 19082m | 4.3m/s | -54°C | 0.7% | 67.6hPa | 2.7V | 04:00:24 | 01:16:36 | 00:00:00 | |
| DM0DOS-11 | 2026-08-30 11:46:52 | 49.85977 | 8.31911 | 4° | 13km/h | 19077m | 5.5m/s | -53.9°C | 4.2% | 67.7hPa | 2.7V | 04:00:19 | 01:16:35 | 00:00:00 | |
| HSKMA3-T | 2026-08-30 11:46:52 | 49.85983 | 8.31910 | 345° | 11km/h | 19086m | 4.3m/s | 0°C | 0% | 0hPa | 2.6V | 18:12:15 | 01:16:37 | 00:00:00 | |
| DL1XH-west | 2026-08-30 11:46:47 | 49.85968 | 8.31905 | 42° | 13km/h | 19064m | 4.7m/s | -53.8°C | 0.6% | 67.9hPa | 2.6V | 04:00:24 | 01:16:32 | 00:00:00 | |
| DB0ND-19 | 2026-08-30 11:46:44 | 49.85965 | 8.31896 | 84° | 5km/h | 19050m | 4.7m/s | -53.7°C | 1.2% | 68.0hPa | 2.7V | 00:00:00 | 00:00:00 | 00:00:00 | |
| DL1XH1-15 | 2026-08-30 11:46:42 | 49.85958 | 8.31892 | 339° | 7km/h | 19023m | 4.7m/s | -53.6°C | 4.1% | 68.3hPa | 2.7V | 04:00:30 | 01:16:24 | 00:00:00 | |
| BIOWL1-15 | 2026-08-30 11:46:41 | 49.85962 | 8.31891 | 5° | 7km/h | 19033m | 5.1m/s | -53.6°C | 0.6% | 68.2hPa | 2.6V | 04:01:15 | 01:16:26 | 00:00:00 | |
| DB0DAN | 2026-08-30 11:46:40 | 49.85960 | 8.31891 | 351° | 7km/h | 19028m | 4.9m/s | -53.7°C | 1.1% | 68.22hPa | 2.7V | 00:00:00 | 00:00:00 | 00:00:00 | |
| DL1XH-west | 2026-08-30 11:46:36 | 49.85955 | 8.31892 | 52° | 4km/h | 19009m | 5m/s | -53.4°C | 0.7% | 68.4hPa | 2.6V | 04:01:15 | 01:16:21 | 00:00:00 | |
| DF7PN | 2026-08-30 11:46:35 | 49.85955 | 8.31891 | 59° | 5km/h | 19004m | 4.9m/s | -53.4°C | 1.2% | 68.5hPa | 2.6V | 00:00:00 | 00:00:00 | 00:00:00 | |
| DL1XH1-15 | 2026-08-30 11:46:34 | 49.85941 | 8.31886 | 356° | 13km/h | 18974m | 4.9m/s | -53.4°C | 4.1% | 68.8hPa | 2.6V | 04:00:40 | 01:16:14 | 00:00:00 | |
| BIOWL1-15 | 2026-08-30 11:46:31 | 49.85936 | 8.31888 | 336° | 7km/h | 18965m | 5.4m/s | -53.3°C | 0.6% | 68.9hPa | 2.7V | 04:01:15 | 01:16:12 | 00:00:00 | |
| AU51GT2 | 2026-08-30 11:46:30 | 49.85944 | 8.31886 | 353° | 13km/h | 18979m | 5.3m/s | -53.3°C | 1.2% | 68.7hPa | 2.6V | 00:00:00 | 00:00:00 | 00:00:00 | |
| DB0UT-9 | 2026-08-30 11:46:28 | 49.85940 | 8.31886 | 357° | 13km/h | 18974m | 4.9m/s | -53.4°C | 1.2% | 68.8hPa | 2.6V | 04:01:00 | 00:00:00 | 00:00:00 | |
| DL9SK-14 | 2026-08-30 11:46:27 | 49.85935 | 8.31889 | 302° | 4km/h | 18960m | 5.2m/s | -53.4°C | 1.2% | 68.9hPa | 2.6V | 00:00:00 | 00:00:00 | 00:00:00 | |
| DB0UT-7 | 2026-08-30 11:46:26 | 49.85935 | 8.31889 | 303° | 5km/h | 18960m | 5.2m/s | -53.3°C | 4.2% | 68.9hPa | 2.6V | 00:00:00 | 00:00:00 | 00:00:00 | |
| DL1XH-west | 2026-08-30 11:46:26 | 49.85935 | 8.31889 | 303° | 4km/h | 18960m | 5.2m/s | -53.4°C | 0.6% | 68.9hPa | 2.7V | 04:01:15 | 01:16:11 | 00:00:00 | |
| DL8DAS-14 | 2026-08-30 11:46:24 | 49.85935 | 8.31890 | 166° | 2km/h | 18950m | 5.0m/s | -53.3°C | 1.2% | 69.0hPa | 2.6V | 00:00:00 | 00:00:00 | 00:00:00 | |
| DL8DAS-15 | 2026-08-30 11:46:23 | 49.85935 | 8.31890 | 167° | 4km/h | 18951m | 5.0m/s | -53.3°C | 1.2% | 69.0hPa | 2.6V | 00:00:00 | 00:00:00 | 00:00:00 | |
| DL1XH1-15 | 2026-08-30 11:46:22 | 49.85937 | 8.31881 | 34° | 4km/h | 18927m | 5.1m/s | -53.1°C | 4.2% | 69.3hPa | 2.6V | 04:00:50 | 01:16:04 | 00:00:00 | |
| BIOWL1-15 | 2026-08-30 11:46:19 | 49.85937 | 8.31881 | 34° | 4km/h | 18927m | 5.1m/s | -53.1°C | 0.7% | 69.3hPa | 2.6V | 04:01:15 | 01:16:04 | 00:00:00 | |
| DL1XH-west | 2026-08-30 11:46:15 | 49.85931 | 8.31879 | 13° | 5km/h | 18907m | 3.8m/s | -53°C | 0.7% | 69.5hPa | 2.7V | 04:01:15 | 01:16:00 | 00:00:00 | |
| DM0DOS-11 | 2026-08-30 11:46:14 | 49.85930 | 8.31879 | 341° | 4km/h | 18902m | 5.5m/s | -52.9°C | 4.1% | 69.6hPa | 2.6V | 04:00:55 | 01:15:59 | 00:00:00 | |
| DJ2DS-15 | 2026-08-30 11:46:14 | 49.85930 | 8.31879 | 342° | 5km/h | 18902m | 5.4m/s | -52.9°C | 4.1% | 69.5hPa | 2.7V | 00:00:00 | 01:15:59 | 00:00:00 | |
| DB0ND-19 | 2026-08-30 11:46:13 | 49.85929 | 8.31880 | 262° | 2km/h | 18897m | 5.3m/s | -52.9°C | 1.1% | 69.6hPa | 2.7V | 00:00:00 | 00:00:00 | 00:00:00 | |
| DB0DAN | 2026-08-30 11:46:10 | 49.85931 | 8.31885 | 212° | 4km/h | 18883m | 5.1m/s | -52.7°C | 1.2% | 69.76hPa | 2.7V | 00:00:00 | 00:00:00 | 00:00:00 | |
| DM0DOS-11 | 2026-08-30 11:46:09 | 49.85925 | 8.31894 | 319° | 11km/h | 18856m | 4.1m/s | -52.4°C | 4% | 70.1hPa | 2.7V | 04:01:05 | 01:15:49 | 00:00:00 | |
| BIOWL1-15 | 2026-08-30 11:46:09 | 49.85931 | 8.31885 | 329° | 4km/h | 18874m | 3.9m/s | -52.6°C | 0.5% | 69.8hPa | 2.6V | 04:01:15 | 01:15:53 | 00:00:00 | |
| DL1XH-west | 2026-08-30 11:46:04 | 49.85923 | 8.31897 | 330° | 9km/h | 18851m | 5.6m/s | -52.4°C | 0.5% | 70.1hPa | 2.6V | 04:01:15 | 01:15:48 | 00:00:00 | |
| HSKMA3-T | 2026-08-30 11:46:02 | 49.85922 | 8.31898 | 343° | 7km/h | 18846m | 4.4m/s | 0°C | 0% | 0hPa | 2.6V | 18:12:15 | 01:15:47 | 00:00:00 | |
| BIOWL1-15 | 2026-08-30 11:46:02 | 49.85918 | 8.31903 | 262° | 5km/h | 18828m | 4.3m/s | -52.3°C | 0.5% | 70.4hPa | 2.7V | 04:01:15 | 01:15:43 | 00:00:00 | |
| DL1XH-west | 2026-08-30 11:45:54 | 49.85921 | 8.31907 | 270° | 4km/h | 18810m | 3.9m/s | -52.2°C | 0.5% | 70.6hPa | 2.6V | 04:01:15 | 01:15:39 | 00:00:00 | |
| DM0DOS-11 | 2026-08-30 11:45:53 | 49.85920 | 8.31909 | 292° | 7km/h | 18805m | 5.2m/s | -52.1°C | 3.9% | 70.6hPa | 2.7V | 04:01:16 | 01:15:38 | 00:00:00 | |
| BIOWL1-15 | 2026-08-30 11:45:47 | 49.85912 | 8.31927 | 322° | 4km/h | 18778m | 4.3m/s | -52°C | 0.5% | 70.9hPa | 2.7V | 04:02:06 | 01:15:32 | 00:00:00 | |
| DL1XH-west | 2026-08-30 11:45:43 | 49.85910 | 8.31929 | 5° | 2km/h | 18760m | 3.9m/s | -51.8°C | 0.5% | 71.1hPa | 2.6V | 04:02:06 | 01:15:28 | 00:00:00 | |
| DB0ND-19 | 2026-08-30 11:45:42 | 49.85910 | 8.31929 | 109° | 2km/h | 18755m | 5.5m/s | -51.8°C | 1.1% | 71.2hPa | 2.6V | 00:00:00 | 00:00:00 | 00:00:00 | |
| DM0DOS-11 | 2026-08-30 11:45:38 | 49.85911 | 8.31927 | 290° | 4km/h | 18737m | 4.6m/s | -51.6°C | 3.8% | 71.4hPa | 2.6V | 04:01:31 | 01:15:23 | 00:00:00 | |
| BIOWL1-15 | 2026-08-30 11:45:37 | 49.85910 | 8.31929 | 307° | 5km/h | 18732m | 4.5m/s | -51.6°C | 0.4% | 71.4hPa | 2.7V | 04:02:06 | 01:15:22 | 00:00:00 | |
| DL1XH-west | 2026-08-30 11:45:33 | 49.85905 | 8.31928 | 31° | 9km/h | 18714m | 4m/s | -51.4°C | 0.4% | 71.7hPa | 2.6V | 04:02:06 | 01:15:18 | 00:00:00 | |
| DL1XH1-15 | 2026-08-30 11:45:32 | 49.85896 | 8.31921 | 54° | 7km/h | 18691m | 5m/s | -51.2°C | 3.8% | 71.9hPa | 2.7V | 04:01:41 | 01:15:13 | 00:00:00 | |
| BIOWL1-15 | 2026-08-30 11:45:27 | 49.85895 | 8.31919 | 74° | 7km/h | 18687m | 3.6m/s | -51.2°C | 0.4% | 72hPa | 2.6V | 04:02:06 | 01:15:12 | 00:00:00 | |
| DB0UT-9 | 2026-08-30 11:45:26 | 49.85895 | 8.31919 | 74° | 7km/h | 18687m | 3.6m/s | -51.2°C | 1.1% | 72.0hPa | 2.6V | 04:02:00 | 00:00:00 | 00:00:00 | |
| DB0UT-7 | 2026-08-30 11:45:25 | 49.85894 | 8.31915 | 55° | 7km/h | 18678m | 5.5m/s | -51.1°C | 3.8% | 72.0hPa | 2.6V | 00:00:00 | 00:00:00 | 00:00:00 | |
| DD1CC8 | 2026-08-30 11:45:24 | 49.85894 | 8.31915 | 345° | 0km/h | 18673m | 4.5m/s | -51.1°C | 1.1% | 72.1hPa | 2.7V | 00:00:00 | 00:00:00 | 00:00:00 | |
| DL1XH1-15 | 2026-08-30 11:45:22 | 49.85886 | 8.31910 | 21° | 9km/h | 18646m | 5.6m/s | -50.9°C | 3.7% | 72.4hPa | 2.7V | 04:01:51 | 01:15:03 | 00:00:00 | |
| DL1XH-west | 2026-08-30 11:45:22 | 49.85893 | 8.31915 | 9° | 4km/h | 18664m | 4.9m/s | -51°C | 0.4% | 72.2hPa | 2.6V | 04:02:06 | 01:15:07 | 00:00:00 | |
| BIOWL1-15 | 2026-08-30 11:45:18 | 49.85886 | 8.31878 | 101° | 7km/h | 18594m | 3.6m/s | -50.6°C | 0.3% | 73hPa | 2.7V | 04:02:06 | 01:14:52 | 00:00:00 | |
| DL8OAI-8 | 2026-08-30 11:45:18 | 49.85888 | 8.31911 | 31° | 9km/h | 18651m | 4.4m/s | -50.9°C | 1.1% | 72.3hPa | 2.6V | 04:02:00 | 00:00:00 | 00:00:00 | |
| DJTTGO | 2026-08-30 11:45:17 | 49.85884 | 8.31908 | 20° | 7km/h | 18641m | 4.3m/s | -50.9°C | 0% | 72.4hPa | 2.6V | 00:00:00 | 00:00:00 | 00:00:00 | |
| DL3AQ-11 | 2026-08-30 11:45:15 | 49.85882 | 8.31901 | 95° | 9km/h | 18627m | 4.4m/s | -50.8°C | 1.0% | 72.6hPa | 2.6V | 00:00:00 | 00:00:00 | 00:00:00 | |
| DJ2DS-15 | 2026-08-30 11:45:14 | 49.85882 | 8.31901 | 96° | 9km/h | 18627m | 4.4m/s | -50.7°C | 3.6% | 72.5hPa | 2.6V | 00:00:00 | 01:14:59 | 00:00:00 | |
| DM0DOS-11 | 2026-08-30 11:45:13 | 49.85884 | 8.31887 | 107° | 7km/h | 18607m | 4.2m/s | -50.7°C | 3.6% | 72.8hPa | 2.6V | 04:01:59 | 01:14:55 | 00:00:00 | |
| DL1XH1-15 | 2026-08-30 11:45:12 | 49.85885 | 8.31881 | 106° | 7km/h | 18598m | 4.4m/s | -50.6°C | 3.6% | 72.9hPa | 2.7V | 04:02:01 | 01:14:53 | 00:00:00 | |
| DL1XH-west | 2026-08-30 11:45:12 | 49.85883 | 8.31890 | 107° | 7km/h | 18612m | 4.8m/s | -50.7°C | 0.4% | 72.8hPa | 2.6V | 04:02:06 | 01:14:56 | 00:00:00 | |
| BIOWL1-15 | 2026-08-30 11:45:08 | 49.85886 | 8.31876 | 81° | 4km/h | 18589m | 5.2m/s | -50.6°C | 0.3% | 73hPa | 2.7V | 04:02:06 | 01:14:51 | 00:00:00 | |
| DL1ZP-14 | 2026-08-30 11:45:08 | 49.85885 | 8.31881 | 106° | 7km/h | 18598m | 4.4m/s | -50.6°C | 1.0% | 72.9hPa | 2.7V | 00:00:00 | 00:00:00 | 00:00:00 | |
| DB0UT-9 | 2026-08-30 11:45:05 | 49.85886 | 8.31876 | 82° | 4km/h | 18590m | 5.2m/s | -50.6°C | 1.1% | 73.0hPa | 2.7V | 04:02:00 | 00:00:00 | 00:00:00 | |
| DO1YAY-16 | 2026-08-30 11:45:04 | 49.85884 | 8.31873 | 65° | 5km/h | 18575m | 4.8m/s | -50.5°C | 1.0% | 73.2hPa | 2.7V | 00:00:00 | 00:00:00 | 00:00:00 | |
| DM0DOS-11 | 2026-08-30 11:45:03 | 49.85883 | 8.31860 | 88° | 15km/h | 18562m | 3.6m/s | -50.4°C | 3.4% | 73.3hPa | 2.7V | 04:02:09 | 01:14:45 | 00:00:00 | |
| DL1XH-west | 2026-08-30 11:45:01 | 49.85884 | 8.31866 | 87° | 13km/h | 18566m | 3.4m/s | -50.4°C | 0.2% | 73.3hPa | 2.7V | 04:02:57 | 01:14:46 | 00:00:00 | |
| BIOWL1-15 | 2026-08-30 11:44:55 | 49.85881 | 8.31820 | 31° | 9km/h | 18522m | 4.6m/s | -50.5°C | 0.1% | 73.8hPa | 2.6V | 04:02:57 | 01:14:36 | 00:00:00 | |
| DB0DAN | 2026-08-30 11:44:55 | 49.85883 | 8.31834 | 97° | 13km/h | 18539m | 4.7m/s | -50.3°C | 1% | 73.57hPa | 2.7V | 00:00:00 | 00:00:00 | 00:00:00 | |
| DL9SK-14 | 2026-08-30 11:44:54 | 49.85883 | 8.31825 | 82° | 9km/h | 18532m | 3.6m/s | -50.3°C | 1.0% | 73.7hPa | 2.7V | 00:00:00 | 00:00:00 | 00:00:00 | |
| DD1CC8 | 2026-08-30 11:44:53 | 49.85883 | 8.31825 | 82° | 9km/h | 18532m | 3.6m/s | -50.3°C | 1.0% | 73.7hPa | 2.7V | 00:00:00 | 00:00:00 | 00:00:00 | |
| DL1XH1-15 | 2026-08-30 11:44:52 | 49.85874 | 8.31813 | 46° | 11km/h | 18509m | 3.7m/s | -51.2°C | 3.6% | 73.9hPa | 2.7V | 04:02:21 | 01:14:33 | 00:00:00 | |
| DL1XH-west | 2026-08-30 11:44:50 | 49.85879 | 8.31818 | 25° | 11km/h | 18518m | 3.6m/s | -50.7°C | 0.2% | 73.8hPa | 2.7V | 04:02:57 | 01:14:35 | 00:00:00 | |
| DL3AQ-11 | 2026-08-30 11:44:48 | 49.85872 | 8.31810 | 54° | 11km/h | 18506m | 3.3m/s | -51.3°C | 1.1% | 74.0hPa | 2.7V | 00:00:00 | 00:00:00 | 00:00:00 | |
| BIOWL1-15 | 2026-08-30 11:44:43 | 49.85866 | 8.31791 | 80° | 15km/h | 18488m | 3.9m/s | -51.7°C | 0.3% | 74.2hPa | 2.7V | 04:02:57 | 01:14:28 | 00:00:00 | |
| DL1XH1-15 | 2026-08-30 11:44:42 | 49.85868 | 8.31754 | 86° | 15km/h | 18467m | 4.9m/s | -52.1°C | 3.6% | 74.4hPa | 2.7V | 04:02:31 | 01:14:23 | 00:00:00 | |
| DL1XH-west | 2026-08-30 11:44:39 | 49.85868 | 8.31761 | 94° | 20km/h | 18471m | 4.5m/s | -52°C | 0.3% | 74.4hPa | 2.7V | 04:02:57 | 01:14:24 | 00:00:00 | |
| DM3KS-11 | 2026-08-30 11:44:38 | 49.85868 | 8.31754 | 86° | 15km/h | 18467m | 4.9m/s | -52.1°C | 1.0% | 74.4hPa | 2.7V | 00:00:00 | 00:00:00 | 00:00:00 | |
| DL1ZP-14 | 2026-08-30 11:44:37 | 49.85867 | 8.31749 | 63° | 11km/h | 18462m | 4.0m/s | -52.3°C | 1.1% | 74.5hPa | 2.7V | 00:00:00 | 00:00:00 | 00:00:00 | |
| DC4HF-4 | 2026-08-30 11:44:35 | 49.85863 | 8.31743 | 36° | 11km/h | 18454m | 5.1m/s | -52.6°C | 1.1% | 74.6hPa | 2.7V | 00:00:00 | 00:00:00 | 00:00:00 | |
| HEMX73-11 | 2026-08-30 11:44:34 | 49.85863 | 8.31743 | 38° | 11km/h | 18454m | 5.1m/s | -52.6°C | 1.1% | 74.6hPa | 2.7V | 04:02:00 | 00:00:00 | 00:00:00 | |
| DM0DOS-11 | 2026-08-30 11:44:33 | 49.85854 | 8.31730 | 50° | 20km/h | 18439m | 4.1m/s | -52.6°C | 3.7% | 74.7hPa | 2.7V | 04:02:37 | 01:14:17 | 00:00:00 | |
| BIOWL1-15 | 2026-08-30 11:44:33 | 49.85854 | 8.31730 | 51° | 20km/h | 18439m | 4.1m/s | -52.6°C | 0.4% | 74.7hPa | 2.7V | 04:02:57 | 01:14:17 | 00:00:00 | |
| DL1XH1-15 | 2026-08-30 11:44:33 | 49.85840 | 8.31697 | 54° | 29km/h | 18421m | 5.4m/s | -52.7°C | 3.8% | 75hPa | 2.6V | 04:02:41 | 01:14:13 | 00:00:00 | |
| DL1XH-west | 2026-08-30 11:44:28 | 49.85840 | 8.31697 | 55° | 29km/h | 18421m | 5.4m/s | -52.7°C | 0.5% | 75hPa | 2.6V | 04:02:57 | 01:14:13 | 00:00:00 | |
| DB0DAN | 2026-08-30 11:44:25 | 49.85823 | 8.31667 | 48° | 35km/h | 18407m | 3.8m/s | -52.9°C | 1.1% | 75.1hPa | 2.7V | 00:00:00 | 00:00:00 | 00:00:00 | |
| DB0UT-7 | 2026-08-30 11:44:25 | 49.85823 | 8.31667 | 49° | 37km/h | 18407m | 3.8m/s | -52.8°C | 3.7% | 75.0hPa | 2.6V | 00:00:00 | 00:00:00 | 00:00:00 | |
| DL3AQ-11 | 2026-08-30 11:44:24 | 49.85812 | 8.31644 | 53° | 37km/h | 18398m | 4.1m/s | -53.2°C | 1.1% | 75.2hPa | 2.6V | 00:00:00 | 00:00:00 | 00:00:00 | |
| DM0DOS-11 | 2026-08-30 11:44:22 | 49.85780 | 8.31590 | 48° | 35km/h | 18376m | 4.6m/s | -54°C | 4.2% | 75.5hPa | 2.6V | 04:02:51 | 01:14:03 | 00:00:00 | |
| BIOWL1-15 | 2026-08-30 11:44:21 | 49.85792 | 8.31610 | 45° | 38km/h | 18384m | 4m/s | -53.8°C | 0.6% | 75.3hPa | 2.7V | 04:02:57 | 01:14:05 | 00:00:00 | |
| DL1XH-west | 2026-08-30 11:44:18 | 49.85780 | 8.31590 | 49° | 35km/h | 18376m | 4.6m/s | -54°C | 0.7% | 75.5hPa | 2.6V | 04:02:57 | 01:14:03 | 00:00:00 | |
| BIOWL1-15 | 2026-08-30 11:44:12 | 49.85743 | 8.31503 | 60° | 37km/h | 18341m | 3.7m/s | -53.9°C | 0.7% | 75.9hPa | 2.7V | 04:03:48 | 01:13:55 | 00:00:00 | |
| DL1XH1-15 | 2026-08-30 11:44:12 | 49.85733 | 8.31478 | 55° | 38km/h | 18333m | 4.9m/s | -53.9°C | 4.2% | 76hPa | 2.7V | 04:03:01 | 01:13:53 | 00:00:00 | |
| DL1XH-west | 2026-08-30 11:44:07 | 49.85728 | 8.31467 | 52° | 37km/h | 18328m | 4.6m/s | -53.8°C | 0.7% | 76hPa | 2.6V | 04:03:48 | 01:13:52 | 00:00:00 | |
| DM3KS-11 | 2026-08-30 11:44:07 | 49.85728 | 8.31467 | 51° | 35km/h | 18328m | 4.6m/s | -53.8°C | 1.3% | 76.0hPa | 2.6V | 00:00:00 | 00:00:00 | 00:00:00 | |
| DL1ZP-14 | 2026-08-30 11:44:06 | 49.85722 | 8.31456 | 50° | 35km/h | 18324m | 3.4m/s | -53.8°C | 1.2% | 76.1hPa | 2.6V | 00:00:00 | 00:00:00 | 00:00:00 | |
| DL8DAS-15 | 2026-08-30 11:44:04 | 49.85717 | 8.31445 | 56° | 37km/h | 18321m | 4.8m/s | -53.8°C | 1.2% | 76.2hPa | 2.7V | 00:00:00 | 00:00:00 | 00:00:00 | |
| DL1XH1-15 | 2026-08-30 11:44:02 | 49.85683 | 8.31358 | 60° | 42km/h | 18287m | 4.1m/s | -53.7°C | 4% | 76.5hPa | 2.7V | 04:03:11 | 01:13:43 | 00:00:00 | |
| BIOWL1-15 | 2026-08-30 11:44:00 | 49.85688 | 8.31372 | 61° | 40km/h | 18291m | 5.1m/s | -53.7°C | 0.6% | 76.5hPa | 2.7V | 04:03:48 | 01:13:44 | 00:00:00 | |
| DL1XH-west | 2026-08-30 11:43:56 | 49.85672 | 8.31330 | 55° | 44km/h | 18279m | 4.9m/s | -53.8°C | 0.6% | 76.6hPa | 2.6V | 04:03:48 | 01:13:41 | 00:00:00 | |
| DL3AQ-11 | 2026-08-30 11:43:55 | 49.85658 | 8.31303 | 46° | 44km/h | 18270m | 3.9m/s | -53.7°C | 1.2% | 76.8hPa | 2.6V | 00:00:00 | 00:00:00 | 00:00:00 | |
| DJ2DS-15 | 2026-08-30 11:43:54 | 49.85658 | 8.31303 | 47° | 42km/h | 18270m | 3.8m/s | -53.7°C | 4.0% | 76.7hPa | 2.6V | 00:00:00 | 01:13:39 | 00:00:00 | |
| HEMX73-11 | 2026-08-30 11:43:53 | 49.85658 | 8.31303 | 48° | 44km/h | 18270m | 3.9m/s | -53.7°C | 1.2% | 76.8hPa | 2.6V | 04:03:00 | 00:00:00 | 00:00:00 | |
| DL1XH1-15 | 2026-08-30 11:43:52 | 49.85621 | 8.31228 | 54° | 37km/h | 18243m | 5.1m/s | -54°C | 4.1% | 77hPa | 2.6V | 04:03:21 | 01:13:33 | 00:00:00 | |
| BIOWL1-15 | 2026-08-30 11:43:49 | 49.85626 | 8.31240 | 58° | 37km/h | 18247m | 4.4m/s | -54°C | 0.6% | 77hPa | 2.6V | 04:03:48 | 01:13:34 | 00:00:00 | |
| DL1XH-west | 2026-08-30 11:43:45 | 49.85604 | 8.31191 | 56° | 42km/h | 18230m | 5.4m/s | -54.2°C | 0.6% | 77.2hPa | 2.7V | 04:03:48 | 01:13:30 | 00:00:00 | |
| BIOWL1-15 | 2026-08-30 11:43:38 | 49.85559 | 8.31093 | 54° | 42km/h | 18198m | 5m/s | -55°C | 0.8% | 77.6hPa | 2.6V | 04:03:48 | 01:13:23 | 00:00:00 | |
| DL1XH-west | 2026-08-30 11:43:34 | 49.85531 | 8.31049 | 37° | 40km/h | 18180m | 3.7m/s | -55.1°C | 0.7% | 77.8hPa | 2.7V | 04:03:48 | 01:13:19 | 00:00:00 | |
| BIOWL1-15 | 2026-08-30 11:43:27 | 49.85403 | 8.30890 | 27° | 51km/h | 18121m | 4m/s | -54.7°C | 0.8% | 78.5hPa | 2.6V | 04:03:48 | 01:13:06 | 00:00:00 | |
| DB0DAN | 2026-08-30 11:43:25 | 49.85445 | 8.30936 | 43° | 51km/h | 18138m | 4.6m/s | -54.9°C | 1.3% | 78.31hPa | 2.6V | 00:00:00 | 00:00:00 | 00:00:00 | |
| DL1XH-west | 2026-08-30 11:43:23 | 49.85425 | 8.30910 | 36° | 51km/h | 18130m | 5m/s | -54.9°C | 0.8% | 78.4hPa | 2.7V | 04:03:48 | 01:13:08 | 00:00:00 | |
| DL1XH1-15 | 2026-08-30 11:43:22 | 49.85369 | 8.30863 | 29° | 49km/h | 18107m | 4.8m/s | -54.6°C | 4.4% | 78.7hPa | 2.7V | 04:03:51 | 01:13:03 | 00:00:00 | |
| BIOWL1-15 | 2026-08-30 11:43:15 | 49.85337 | 8.30832 | 31° | 53km/h | 18093m | 5m/s | -54.5°C | 0.8% | 78.9hPa | 2.6V | 04:04:39 | 01:13:00 | 00:00:00 | |
| DL1XH-west | 2026-08-30 11:43:13 | 49.85314 | 8.30811 | 31° | 53km/h | 18084m | 3.7m/s | -54.5°C | 0.8% | 79hPa | 2.7V | 04:04:39 | 01:12:58 | 00:00:00 | |
| BIOWL1-15 | 2026-08-30 11:43:04 | 49.85223 | 8.30720 | 32° | 46km/h | 18042m | 4.3m/s | -54.2°C | 0.7% | 79.5hPa | 2.6V | 04:04:39 | 01:12:49 | 00:00:00 | |
| DL1XH-west | 2026-08-30 11:43:02 | 49.85202 | 8.30701 | 29° | 51km/h | 18033m | 5.7m/s | -54.1°C | 0.6% | 79.6hPa | 2.7V | 04:04:39 | 01:12:47 | 00:00:00 | |
| BIOWL9-15 | 2026-08-30 11:43:00 | 49.85179 | 8.30681 | 29° | 51km/h | 18024m | 3.9m/s | -54.1°C | 1.3% | 79.7hPa | 2.7V | 00:00:00 | 00:00:00 | 00:00:00 | |
| DO1YAY-16 | 2026-08-30 11:42:59 | 49.85168 | 8.30671 | 31° | 51km/h | 18020m | 5.2m/s | -54.0°C | 1.3% | 79.8hPa | 2.7V | 00:00:00 | 00:00:00 | 00:00:00 | |
| DF7PN | 2026-08-30 11:42:58 | 49.85157 | 8.30660 | 32° | 47km/h | 18015m | 4.7m/s | -53.8°C | 1.3% | 79.9hPa | 2.7V | 00:00:00 | 00:00:00 | 00:00:00 | |
| DM0DOS-11 | 2026-08-30 11:42:57 | 49.85137 | 8.30640 | 32° | 46km/h | 18007m | 3.1m/s | -53.7°C | 4.2% | 80hPa | 2.7V | 04:04:13 | 01:12:41 | 00:00:00 | |
| BIOWL1-15 | 2026-08-30 11:42:53 | 49.85106 | 8.30614 | 25° | 47km/h | 17992m | 4.9m/s | -53.7°C | 0.7% | 80.2hPa | 2.6V | 04:04:39 | 01:12:38 | 00:00:00 | |
| DL8OAI-8 | 2026-08-30 11:42:52 | 49.85106 | 8.30614 | 26° | 47km/h | 17992m | 4.9m/s | -53.7°C | 0% | 80.2hPa | 2.6V | 04:04:00 | 00:00:00 | 00:00:00 | |
| DL4BBY-15 | 2026-08-30 11:42:51 | 49.85084 | 8.30599 | 27° | 44km/h | 17982m | 5.6m/s | -54.7°C | 0% | 0hPa | 2.6V | 00:00:00 | 00:00:00 | 00:00:00 | |
| DL1XH-west | 2026-08-30 11:42:51 | 49.85084 | 8.30599 | 26° | 46km/h | 17982m | 5.6m/s | -53.6°C | 0.7% | 80.3hPa | 2.7V | 04:04:39 | 01:12:36 | 00:00:00 | |
| DL1XH1-15 | 2026-08-30 11:42:49 | 49.85054 | 8.30574 | 27° | 46km/h | 17968m | 5.8m/s | -53.5°C | 4.2% | 80.5hPa | 2.6V | 04:04:21 | 01:12:33 | 00:00:00 | |
| DD1CC8 | 2026-08-30 11:42:49 | 49.85064 | 8.30582 | 28° | 44km/h | 17973m | 3.9m/s | -53.5°C | 1.3% | 80.4hPa | 2.6V | 00:00:00 | 00:00:00 | 00:00:00 | |
| DC4HF-4 | 2026-08-30 11:42:47 | 49.85044 | 8.30565 | 27° | 47km/h | 17962m | 5.2m/s | -53.4°C | 1.2% | 80.5hPa | 2.6V | 00:00:00 | 00:00:00 | 00:00:00 | |
| DL1XH1-15 | 2026-08-30 11:42:43 | 49.84956 | 8.30477 | 24° | 42km/h | 17916m | 5.4m/s | -53°C | 4.1% | 81.1hPa | 2.6V | 04:04:31 | 01:12:23 | 00:00:00 | |
| BIOWL1-15 | 2026-08-30 11:42:43 | 49.85002 | 8.30525 | 40° | 47km/h | 17943m | 5.5m/s | -53.2°C | 0.7% | 80.8hPa | 2.6V | 04:04:39 | 01:12:28 | 00:00:00 | |
| DL1XH-west | 2026-08-30 11:42:40 | 49.84975 | 8.30492 | 32° | 42km/h | 17927m | 6.4m/s | -53.1°C | 0.7% | 81hPa | 2.7V | 04:04:39 | 01:12:25 | 00:00:00 | |
| DB0ND-19 | 2026-08-30 11:42:36 | 49.84927 | 8.30454 | 33° | 46km/h | 17900m | 4.9m/s | -52.9°C | 1.2% | 81.3hPa | 2.6V | 00:00:00 | 00:00:00 | 00:00:00 | |
| DJ2DS-15 | 2026-08-30 11:42:35 | 49.84927 | 8.30454 | 33° | 46km/h | 17900m | 4.9m/s | -52.9°C | 1.2% | 81.3hPa | 2.6V | 00:00:00 | 00:00:00 | 00:00:00 | |
| DM0DOS-11 | 2026-08-30 11:42:32 | 49.84897 | 8.30422 | 33° | 47km/h | 17884m | 4.9m/s | -52.8°C | 4.1% | 81.5hPa | 2.6V | 04:04:37 | 01:12:17 | 00:00:00 | |
| DL1XH1-15 | 2026-08-30 11:42:32 | 49.84861 | 8.30381 | 41° | 40km/h | 17866m | 5.5m/s | -52.7°C | 4.1% | 81.7hPa | 2.7V | 04:04:41 | 01:12:13 | 00:00:00 | |
| DL1XH-west | 2026-08-30 11:42:29 | 49.84869 | 8.30391 | 39° | 42km/h | 17871m | 5.7m/s | -52.8°C | 0.6% | 81.6hPa | 2.7V | 04:05:30 | 01:12:14 | 00:00:00 | |
| DO1YAY-16 | 2026-08-30 11:42:28 | 49.84861 | 8.30381 | 41° | 40km/h | 17866m | 5.5m/s | -52.7°C | 1.2% | 81.7hPa | 2.6V | 00:00:00 | 00:00:00 | 00:00:00 | |
| DF7PN | 2026-08-30 11:42:27 | 49.84846 | 8.30361 | 37° | 37km/h | 17857m | 4.4m/s | -52.6°C | 1.2% | 81.8hPa | 2.6V | 00:00:00 | 00:00:00 | 00:00:00 | |
| DB0UT-7 | 2026-08-30 11:42:25 | 49.84838 | 8.30353 | 28° | 38km/h | 17852m | 6.2m/s | -52.5°C | 4.0% | 81.8hPa | 2.6V | 00:00:00 | 00:00:00 | 00:00:00 | |
| DL3AQ-11 | 2026-08-30 11:42:24 | 49.84829 | 8.30347 | 20° | 38km/h | 17846m | 4.6m/s | -52.5°C | 1.2% | 82.0hPa | 2.7V | 00:00:00 | 00:00:00 | 00:00:00 | |
| DM0DOS-11 | 2026-08-30 11:42:22 | 49.84771 | 8.30303 | 34° | 44km/h | 17817m | 6m/s | -52.4°C | 3.9% | 82.3hPa | 2.7V | 04:04:51 | 01:12:03 | 00:00:00 | |
| BIOWL1-15 | 2026-08-30 11:42:21 | 49.84800 | 8.30329 | 25° | 42km/h | 17832m | 5.6m/s | -52.4°C | 0.5% | 82.2hPa | 2.6V | 04:05:30 | 01:12:06 | 00:00:00 | |
| DL1XH-west | 2026-08-30 11:42:19 | 49.84781 | 8.30313 | 34° | 44km/h | 17822m | 5.2m/s | -52.4°C | 0.5% | 82.3hPa | 2.6V | 04:05:30 | 01:12:04 | 00:00:00 | |
| BIOWL1-15 | 2026-08-30 11:42:13 | 49.84726 | 8.30214 | 49° | 37km/h | 17777m | 6.7m/s | -52.7°C | 0.6% | 82.8hPa | 2.7V | 04:05:30 | 01:11:56 | 00:00:00 | |
| DL1XH1-15 | 2026-08-30 11:42:12 | 49.84707 | 8.30193 | 21° | 29km/h | 17758m | 6.7m/s | -52.5°C | 3.8% | 83.1hPa | 2.6V | 04:05:01 | 01:11:53 | 00:00:00 | |
| DL1XH-west | 2026-08-30 11:42:09 | 49.84714 | 8.30198 | 29° | 31km/h | 17765m | 6.8m/s | -52.5°C | 0.5% | 83hPa | 2.6V | 04:05:30 | 01:11:54 | 00:00:00 | |
| DL3AQ-11 | 2026-08-30 11:42:08 | 49.84707 | 8.30193 | 21° | 27km/h | 17758m | 6.7m/s | -52.5°C | 1.2% | 83.1hPa | 2.6V | 00:00:00 | 00:00:00 | 00:00:00 | |
| DL8OAI-8 | 2026-08-30 11:42:07 | 49.84707 | 8.30193 | 23° | 29km/h | 17758m | 6.7m/s | -52.5°C | 0% | 83.1hPa | 2.6V | 00:00:00 | 00:00:00 | 00:00:00 | |
| BEGRI65-1 | 2026-08-30 11:42:06 | 49.84700 | 8.30189 | 20° | 27km/h | 17752m | 6.4m/s | -52.6°C | 1.2% | 83.2hPa | 2.6V | 04:05:00 | 00:00:00 | 00:00:00 | |
| DH7VM-15 | 2026-08-30 11:42:05 | 49.84686 | 8.30180 | 27° | 33km/h | 17741m | 6.1m/s | -52.9°C | 1.2% | 83.3hPa | 2.6V | 00:00:00 | 00:00:00 | 00:00:00 | |
| DM3KS-11 | 2026-08-30 11:42:03 | 49.84671 | 8.30163 | 46° | 40km/h | 17729m | 5.0m/s | -52.9°C | 1.2% | 83.5hPa | 2.6V | 00:00:00 | 00:00:00 | 00:00:00 | |
| DL1XH1-15 | 2026-08-30 11:42:02 | 49.84655 | 8.30087 | 85° | 38km/h | 17702m | 6.8m/s | -52.9°C | 3.7% | 83.8hPa | 2.6V | 04:05:11 | 01:11:43 | 00:00:00 | |
| BIOWL1-15 | 2026-08-30 11:42:01 | 49.84660 | 8.30134 | 69° | 44km/h | 17719m | 6.3m/s | -52.8°C | 0.4% | 83.6hPa | 2.7V | 04:05:30 | 01:11:46 | 00:00:00 | |
| DL1XH-west | 2026-08-30 11:41:58 | 49.84655 | 8.30086 | 86° | 38km/h | 17703m | 6.8m/s | -52.9°C | 0.4% | 83.8hPa | 2.6V | 04:05:30 | 01:11:43 | 00:00:00 | |
| DM0DOS-11 | 2026-08-30 11:41:57 | 49.84654 | 8.30072 | 80° | 37km/h | 17695m | 7.4m/s | -53°C | 3.7% | 83.9hPa | 2.6V | 04:05:12 | 01:11:42 | 00:00:00 | |
| DF7PN | 2026-08-30 11:41:56 | 49.84649 | 8.30046 | 65° | 35km/h | 17682m | 6.4m/s | -53.1°C | 1.1% | 84.1hPa | 2.6V | 00:00:00 | 00:00:00 | 00:00:00 | |
| DL3AQ-11 | 2026-08-30 11:41:55 | 49.84645 | 8.30033 | 60° | 35km/h | 17675m | 7.4m/s | -53.1°C | 1.1% | 84.2hPa | 2.6V | 00:00:00 | 00:00:00 | 00:00:00 | |
| DB0UT-9 | 2026-08-30 11:41:54 | 49.84645 | 8.30033 | 62° | 37km/h | 17675m | 7.4m/s | -53.1°C | 1.2% | 84.2hPa | 2.6V | 04:05:00 | 00:00:00 | 00:00:00 | |
| DB0UT-7 | 2026-08-30 11:41:53 | 49.84640 | 8.30021 | 60° | 42km/h | 17668m | 6.6m/s | -53.2°C | 3.8% | 84.2hPa | 2.6V | 00:00:00 | 01:11:38 | 00:00:00 | |
| DL1XH1-15 | 2026-08-30 11:41:52 | 49.84624 | 8.29954 | 77° | 40km/h | 17642m | 4.9m/s | -54.9°C | 4.3% | 84.6hPa | 2.6V | 04:05:21 | 01:11:33 | 00:00:00 | |
| BIOWL1-15 | 2026-08-30 11:41:50 | 49.84628 | 8.29982 | 74° | 37km/h | 17651m | 5m/s | -54°C | 0.6% | 84.5hPa | 2.7V | 04:05:30 | 01:11:35 | 00:00:00 | |
| DL1XH-west | 2026-08-30 11:41:48 | 49.84624 | 8.29954 | 78° | 40km/h | 17642m | 4.9m/s | -54.9°C | 0.8% | 84.6hPa | 2.6V | 04:05:30 | 01:11:33 | 00:00:00 | |
| DM0DOS-11 | 2026-08-30 11:41:47 | 49.84622 | 8.29939 | 77° | 40km/h | 17637m | 4.8m/s | -55.1°C | 4.4% | 84.7hPa | 2.6V | 04:05:22 | 01:11:32 | 00:00:00 | |
| DL8DAS-14 | 2026-08-30 11:41:45 | 49.84617 | 8.29908 | 76° | 38km/h | 17628m | 5.5m/s | -55.3°C | 1.4% | 84.8hPa | 2.6V | 00:00:00 | 00:00:00 | 00:00:00 | |
| DL3AQ-11 | 2026-08-30 11:41:44 | 49.84613 | 8.29880 | 72° | 35km/h | 17618m | 3.7m/s | -55.4°C | 1.4% | 85.0hPa | 2.6V | 00:00:00 | 00:00:00 | 00:00:00 | |
| DM0DOS-11 | 2026-08-30 11:41:42 | 49.84591 | 8.29801 | 69° | 38km/h | 17590m | 5m/s | -55.3°C | 4.5% | 85.3hPa | 2.6V | 04:05:32 | 01:11:22 | 00:00:00 | |
| DL1XH1-15 | 2026-08-30 11:41:42 | 49.84595 | 8.29815 | 68° | 37km/h | 17595m | 4.5m/s | 0°C | 0% | 0hPa | 2.7V | 04:05:31 | 01:11:23 | 00:00:00 | |
| BIOWL1-15 | 2026-08-30 11:41:40 | 49.84602 | 8.29841 | 65° | 37km/h | 17605m | 4.5m/s | -55.4°C | 0.9% | 85.1hPa | 2.7V | 04:05:30 | 01:11:25 | 00:00:00 | |
| DL1XH-west | 2026-08-30 11:41:38 | 49.84595 | 8.29815 | 68° | 37km/h | 17595m | 4.5m/s | -55.4°C | 0.9% | 85.2hPa | 2.7V | 04:06:21 | 01:11:23 | 00:00:00 | |
| DC4HF-4 | 2026-08-30 11:41:35 | 49.84580 | 8.29754 | 73° | 46km/h | 17575m | 4.7m/s | -55.3°C | 1.4% | 85.5hPa | 2.7V | 00:00:00 | 00:00:00 | 00:00:00 | |
| DB0ND-19 | 2026-08-30 11:41:34 | 49.84577 | 8.29736 | 75° | 46km/h | 17570m | 5.6m/s | -55.4°C | 1.4% | 85.6hPa | 2.7V | 00:00:00 | 00:00:00 | 00:00:00 | |
| DL1XH1-15 | 2026-08-30 11:41:32 | 49.84562 | 8.29638 | 73° | 53km/h | 17546m | 4.2m/s | -55.3°C | 4.5% | 85.9hPa | 2.7V | 04:05:41 | 01:11:13 | 00:00:00 | |
| DM3KS-11 | 2026-08-30 11:41:32 | 49.84574 | 8.29718 | 77° | 47km/h | 17565m | 4.7m/s | -55.3°C | 1.4% | 85.6hPa | 2.6V | 00:00:00 | 00:00:00 | 00:00:00 | |
| BIOWL1-15 | 2026-08-30 11:41:32 | 49.84569 | 8.29679 | 76° | 53km/h | 17556m | 5.5m/s | -55.2°C | 0.9% | 85.8hPa | 2.6V | 04:06:21 | 01:11:15 | 00:00:00 | |
| DL1ZP-14 | 2026-08-30 11:41:31 | 49.84569 | 8.29679 | 76° | 53km/h | 17556m | 5.5m/s | -55.2°C | 1.4% | 85.8hPa | 2.6V | 00:00:00 | 00:00:00 | 00:00:00 | |
| HEMX73-11 | 2026-08-30 11:41:29 | 49.84569 | 8.29679 | 77° | 53km/h | 17556m | 5.5m/s | -55.2°C | 1.4% | 85.8hPa | 2.7V | 04:06:00 | 00:00:00 | 00:00:00 | |
| DM0DOS-11 | 2026-08-30 11:41:27 | 49.84558 | 8.29619 | 73° | 51km/h | 17542m | 5.3m/s | -55.3°C | 4.5% | 86hPa | 2.7V | 04:05:42 | 01:11:12 | 00:00:00 | |
| DL1XH-west | 2026-08-30 11:41:27 | 49.84558 | 8.29619 | 73° | 51km/h | 17542m | 5.3m/s | -55.3°C | 0.9% | 86hPa | 2.7V | 04:06:21 | 01:11:12 | 00:00:00 | |
| BIOWL1-15 | 2026-08-30 11:41:20 | 49.84502 | 8.29382 | 66° | 55km/h | 17481m | 4.7m/s | -55.5°C | 0.8% | 86.8hPa | 2.7V | 04:06:21 | 01:10:59 | 00:00:00 | |
| DL1XH-west | 2026-08-30 11:41:16 | 49.84513 | 8.29422 | 70° | 55km/h | 17491m | 5.5m/s | -55.4°C | 0.9% | 86.6hPa | 2.6V | 04:06:21 | 01:11:01 | 00:00:00 | |
| DD1CC8 | 2026-08-30 11:41:16 | 49.84513 | 8.29422 | 70° | 53km/h | 17491m | 5.5m/s | -55.4°C | 1.4% | 86.6hPa | 2.6V | 00:00:00 | 00:00:00 | 00:00:00 | |
| DL3AQ-11 | 2026-08-30 11:41:15 | 49.84502 | 8.29382 | 66° | 55km/h | 17481m | 4.7m/s | -55.5°C | 1.4% | 86.8hPa | 2.6V | 00:00:00 | 00:00:00 | 00:00:00 | |
| DJ2DS-15 | 2026-08-30 11:41:14 | 49.84502 | 8.29382 | 67° | 55km/h | 17481m | 4.7m/s | -55.4°C | 4.6% | 86.7hPa | 2.6V | 00:00:00 | 01:10:59 | 00:00:00 | |
| DL1XH1-15 | 2026-08-30 11:41:12 | 49.84472 | 8.29265 | 67° | 57km/h | 17453m | 4.2m/s | -55.1°C | 4.6% | 87.2hPa | 2.6V | 04:06:01 | 01:10:53 | 00:00:00 | |
| DL1XH-west | 2026-08-30 11:41:06 | 49.84461 | 8.29224 | 68° | 57km/h | 17445m | 5.3m/s | -55.1°C | 0.9% | 87.3hPa | 2.7V | 04:06:21 | 01:10:51 | 00:00:00 | |
| BIOWL1-15 | 2026-08-30 11:41:06 | 49.84443 | 8.29162 | 64° | 60km/h | 17431m | 5.4m/s | -55.1°C | 0.9% | 87.5hPa | 2.6V | 04:06:21 | 01:10:48 | 00:00:00 | |
| DL8OAI-8 | 2026-08-30 11:41:05 | 49.84461 | 8.29223 | 69° | 57km/h | 17445m | 5.3m/s | -55.1°C | 0% | 0hPa | 2.6V | 00:00:00 | 00:00:00 | 00:00:00 | |
| DL3AQ-11 | 2026-08-30 11:41:03 | 49.84443 | 8.29162 | 63° | 58km/h | 17432m | 5.4m/s | -55.1°C | 1.4% | 87.5hPa | 2.6V | 00:00:00 | 00:00:00 | 00:00:00 | |
| DL1XH1-15 | 2026-08-30 11:41:02 | 49.84409 | 8.29065 | 61° | 49km/h | 17410m | 3.1m/s | -54.9°C | 4.3% | 87.8hPa | 2.6V | 04:06:11 | 01:10:43 | 00:00:00 | |
| DL1XH-west | 2026-08-30 11:40:55 | 49.84391 | 8.29011 | 63° | 55km/h | 17397m | 4.1m/s | -54.9°C | 0.8% | 88hPa | 2.6V | 04:06:21 | 01:10:40 | 00:00:00 | |
| BIOWL1-15 | 2026-08-30 11:40:53 | 49.84372 | 8.28955 | 62° | 53km/h | 17384m | 4.6m/s | -54.9°C | 0.8% | 88.2hPa | 2.8V | 04:06:21 | 01:10:37 | 00:00:00 | |
| DM0DOS-11 | 2026-08-30 11:40:52 | 49.84344 | 8.28881 | 59° | 58km/h | 17368m | 3.7m/s | -55.1°C | 4.3% | 88.4hPa | 2.6V | 04:06:21 | 01:10:33 | 00:00:00 | |
| AU51GT2 | 2026-08-30 11:40:49 | 49.84352 | 8.28900 | 59° | 57km/h | 17372m | 4.9m/s | -55.1°C | 1.3% | 88.3hPa | 2.6V | 00:00:00 | 00:00:00 | 00:00:00 | |
| DJ2DS-15 | 2026-08-30 11:40:47 | 49.84324 | 8.28823 | 64° | 51km/h | 17356m | 4.3m/s | -55.3°C | 1.4% | 88.5hPa | 2.6V | 00:00:00 | 00:00:00 | 00:00:00 | |
| DD1CC8 | 2026-08-30 11:40:45 | 49.84324 | 8.28823 | 64° | 51km/h | 17356m | 4.3m/s | -55.3°C | 1.4% | 88.5hPa | 2.6V | 00:00:00 | 00:00:00 | 00:00:00 | |
| DL1XH-west | 2026-08-30 11:40:44 | 49.84319 | 8.28805 | 65° | 51km/h | 17352m | 3.3m/s | -55.6°C | 0.8% | 88.6hPa | 2.6V | 04:07:12 | 01:10:29 | 00:00:00 | |
| BIOWL1-15 | 2026-08-30 11:40:41 | 49.84303 | 8.28751 | 65° | 51km/h | 17340m | 3.1m/s | -56.1°C | 1% | 88.7hPa | 2.7V | 04:07:12 | 01:10:26 | 00:00:00 | |
| DB0DAN | 2026-08-30 11:40:40 | 49.84298 | 8.28734 | 67° | 47km/h | 17336m | 4.9m/s | -56.3°C | 1.5% | 88.79hPa | 2.7V | 00:00:00 | 00:00:00 | 00:00:00 | |
| DL1XH-west | 2026-08-30 11:40:34 | 49.84260 | 8.28631 | 52° | 55km/h | 17311m | 2.8m/s | -56.4°C | 0.9% | 89.1hPa | 2.7V | 04:07:12 | 01:10:19 | 00:00:00 | |
| BIOWL1-15 | 2026-08-30 11:40:33 | 49.84210 | 8.28523 | 57° | 46km/h | 17282m | 3.9m/s | -56.1°C | 1% | 89.6hPa | 2.6V | 04:07:12 | 01:10:12 | 00:00:00 | |
| DL1XH1-15 | 2026-08-30 11:40:31 | 49.84216 | 8.28538 | 56° | 47km/h | 17286m | 3.9m/s | -56.2°C | 4.9% | 89.5hPa | 2.7V | 04:06:41 | 01:10:13 | 00:00:00 | |
| DL1XH-west | 2026-08-30 11:40:24 | 49.84185 | 8.28470 | 49° | 42km/h | 17264m | 5m/s | -56°C | 1% | 89.8hPa | 2.7V | 04:07:12 | 01:10:08 | 00:00:00 | |
| BIOWL1-15 | 2026-08-30 11:40:24 | 49.84142 | 8.28396 | 50° | 40km/h | 17237m | 5.3m/s | -55.9°C | 0.9% | 90.2hPa | 2.7V | 04:07:12 | 01:10:02 | 00:00:00 | |
| DF7PN | 2026-08-30 11:40:23 | 49.84177 | 8.28457 | 47° | 44km/h | 17260m | 4.4m/s | -56.0°C | 1.5% | 89.9hPa | 2.8V | 00:00:00 | 00:00:00 | 00:00:00 | |
| DJ2KF-10 | 2026-08-30 11:40:22 | 49.84177 | 8.28457 | 48° | 38km/h | 17260m | 4.3m/s | -55.9°C | 4.7% | 89.8hPa | 2.8V | 00:00:00 | 01:10:07 | 00:00:00 | |
| DL1XH1-15 | 2026-08-30 11:40:20 | 49.84148 | 8.28408 | 48° | 40km/h | 17242m | 3.6m/s | -56°C | 4.7% | 90.1hPa | 2.8V | 04:06:51 | 01:10:03 | 00:00:00 | |
| DL1XH-west | 2026-08-30 11:40:13 | 49.84110 | 8.28337 | 50° | 33km/h | 17214m | 3.4m/s | -55.6°C | 1% | 90.5hPa | 2.7V | 04:07:12 | 01:09:57 | 00:00:00 | |
| DM0DOS-11 | 2026-08-30 11:40:12 | 49.84086 | 8.28294 | 46° | 40km/h | 17197m | 4.4m/s | -55.6°C | 4.7% | 90.8hPa | 2.7V | 04:07:01 | 01:09:53 | 00:00:00 | |
| DB0DAN | 2026-08-30 11:40:10 | 49.84099 | 8.28317 | 49° | 35km/h | 17207m | 5.2m/s | -55.6°C | 1.4% | 90.65hPa | 2.6V | 00:00:00 | 00:00:00 | 00:00:00 | |
| BIOWL1-15 | 2026-08-30 11:40:06 | 49.84072 | 8.28272 | 43° | 38km/h | 17188m | 4.5m/s | -55.4°C | 1% | 90.9hPa | 2.6V | 04:07:12 | 01:09:51 | 00:00:00 | |
| DL1XH1-15 | 2026-08-30 11:40:04 | 49.84050 | 8.28240 | 47° | 40km/h | 17175m | 4.5m/s | -55.4°C | 4.6% | 91.1hPa | 2.7V | 04:07:06 | 01:09:48 | 00:00:00 | |
| DB0UT-9 | 2026-08-30 11:40:03 | 49.84057 | 8.28251 | 46° | 40km/h | 17180m | 4.9m/s | -55.4°C | 1.4% | 91.0hPa | 2.8V | 04:07:00 | 00:00:00 | 00:00:00 | |
| DM0DOS-11 | 2026-08-30 11:40:02 | 49.84020 | 8.28186 | 50° | 37km/h | 17155m | 4.2m/s | -55.3°C | 4.5% | 91.4hPa | 2.8V | 04:07:11 | 01:09:43 | 00:00:00 | |
| DL1XH-west | 2026-08-30 11:40:01 | 49.84037 | 8.28218 | 50° | 37km/h | 17167m | 4.6m/s | -55.3°C | 0.8% | 91.2hPa | 2.6V | 04:07:12 | 01:09:46 | 00:00:00 | |
| DB0ND-19 | 2026-08-30 11:40:00 | 49.84032 | 8.28207 | 49° | 33km/h | 17162m | 4.4m/s | -55.3°C | 1.4% | 91.3hPa | 2.8V | 00:00:00 | 00:00:00 | 00:00:00 | |
| DM3KS-11 | 2026-08-30 11:39:59 | 49.84026 | 8.28197 | 49° | 33km/h | 17159m | 3.2m/s | -55.3°C | 1.4% | 91.3hPa | 2.8V | 00:00:00 | 00:00:00 | 00:00:00 | |
| DL1XH1-15 | 2026-08-30 11:39:58 | 49.83981 | 8.28118 | 45° | 35km/h | 17129m | 3.3m/s | -55°C | 4.7% | 91.8hPa | 2.8V | 04:07:17 | 01:09:37 | 00:00:00 | |
| BIOWL1-15 | 2026-08-30 11:39:56 | 49.84008 | 8.28163 | 50° | 42km/h | 17146m | 4.1m/s | -55.2°C | 0.9% | 91.5hPa | 2.6V | 04:08:03 | 01:09:41 | 00:00:00 | |
| DB0DAN | 2026-08-30 11:39:55 | 49.84001 | 8.28150 | 48° | 40km/h | 17142m | 3.8m/s | -55.1°C | 1.4% | 91.54hPa | 2.6V | 00:00:00 | 00:00:00 | 00:00:00 | |
| DL1XH-west | 2026-08-30 11:39:50 | 49.83969 | 8.28099 | 51° | 35km/h | 17121m | 4.7m/s | -55°C | 1% | 91.8hPa | 2.6V | 04:08:03 | 01:09:35 | 00:00:00 | |
| BIOWL1-15 | 2026-08-30 11:39:46 | 49.83943 | 8.28056 | 41° | 42km/h | 17103m | 4m/s | -54.9°C | 0.9% | 92.2hPa | 2.7V | 04:08:03 | 01:09:31 | 00:00:00 | |
| HEMX73-11 | 2026-08-30 11:39:45 | 49.83943 | 8.28056 | 42° | 42km/h | 17103m | 4.0m/s | -54.9°C | 1.4% | 92.2hPa | 2.7V | 04:08:00 | 00:00:00 | 00:00:00 | |
| DL1XH1-15 | 2026-08-30 11:39:44 | 49.83919 | 8.28022 | 45° | 44km/h | 17089m | 4.8m/s | -54.8°C | 4.4% | 92.3hPa | 2.7V | 04:07:26 | 01:09:28 | 00:00:00 | |
| DL3AQ-11 | 2026-08-30 11:39:44 | 49.83919 | 8.28022 | 45° | 42km/h | 17089m | 4.8m/s | -54.8°C | 1.4% | 92.3hPa | 2.8V | 00:00:00 | 00:00:00 | 00:00:00 | |
| DD1CC8 | 2026-08-30 11:39:43 | 49.83919 | 8.28022 | 45° | 42km/h | 17089m | 4.8m/s | -54.8°C | 1.4% | 92.3hPa | 2.8V | 00:00:00 | 00:00:00 | 00:00:00 | |
| DM0DOS-11 | 2026-08-30 11:39:41 | 49.83868 | 8.27951 | 43° | 37km/h | 17056m | 4.9m/s | -54.4°C | 4.4% | 92.8hPa | 2.8V | 04:07:33 | 01:09:21 | 00:00:00 | |
| DL1XH-west | 2026-08-30 11:39:40 | 49.83897 | 8.27988 | 41° | 38km/h | 17076m | 5.3m/s | -54.6°C | 0.8% | 92.5hPa | 2.7V | 04:08:03 | 01:09:25 | 00:00:00 | |
| DB0DAN | 2026-08-30 11:39:40 | 49.83897 | 8.27988 | 41° | 37km/h | 17076m | 5.3m/s | -54.6°C | 1.4% | 92.55hPa | 2.7V | 00:00:00 | 00:00:00 | 00:00:00 | |
| DL1XH1-15 | 2026-08-30 11:39:39 | 49.83848 | 8.27923 | 40° | 35km/h | 17042m | 4.7m/s | -54.4°C | 4.4% | 93hPa | 2.7V | 04:07:36 | 01:09:18 | 00:00:00 | |
| BIOWL1-15 | 2026-08-30 11:39:35 | 49.83855 | 8.27932 | 41° | 37km/h | 17047m | 5.6m/s | -54.4°C | 0.7% | 92.9hPa | 2.6V | 04:08:03 | 01:09:19 | 00:00:00 | |
| DJ2DS-15 | 2026-08-30 11:39:35 | 49.83855 | 8.27932 | 41° | 37km/h | 17047m | 5.6m/s | -54.4°C | 1.3% | 92.9hPa | 2.7V | 00:00:00 | 00:00:00 | 00:00:00 | |
| DJ2DS-15 | 2026-08-30 11:39:34 | 49.83855 | 8.27932 | 42° | 33km/h | 17047m | 5.6m/s | -54.3°C | 4.3% | 92.9hPa | 2.7V | 00:00:00 | 01:09:19 | 00:00:00 | |
| DM0DOS-11 | 2026-08-30 11:39:31 | 49.83802 | 8.27858 | 35° | 35km/h | 17008m | 4.2m/s | -54.3°C | 4.5% | 93.5hPa | 2.7V | 04:07:43 | 01:09:11 | 00:00:00 | |
| DL1XH-west | 2026-08-30 11:39:30 | 49.83828 | 8.27895 | 46° | 35km/h | 17027m | 4.9m/s | -54.3°C | 0.9% | 93.2hPa | 2.6V | 04:08:03 | 01:09:15 | 00:00:00 | |
| DB0ND-19 | 2026-08-30 11:39:29 | 49.83822 | 8.27885 | 46° | 35km/h | 17023m | 4.0m/s | -54.3°C | 1.4% | 93.3hPa | 2.6V | 00:00:00 | 00:00:00 | 00:00:00 | |
| DL3AQ-11 | 2026-08-30 11:39:28 | 49.83809 | 8.27866 | 38° | 35km/h | 17014m | 5.7m/s | -54.3°C | 1.4% | 93.4hPa | 2.6V | 00:00:00 | 00:00:00 | 00:00:00 | |
| DL1XH1-15 | 2026-08-30 11:39:26 | 49.83782 | 8.27833 | 42° | 33km/h | 16995m | 5m/s | -54.2°C | 4.4% | 93.7hPa | 2.6V | 04:07:46 | 01:09:08 | 00:00:00 | |
| BIOWL1-15 | 2026-08-30 11:39:24 | 49.83788 | 8.27842 | 39° | 33km/h | 17000m | 5.7m/s | -54.2°C | 0.8% | 93.6hPa | 2.6V | 04:08:03 | 01:09:09 | 00:00:00 | |
| DB0UT-7 | 2026-08-30 11:39:23 | 49.83782 | 8.27833 | 43° | 31km/h | 16995m | 5.0m/s | -54.1°C | 4.4% | 93.7hPa | 2.6V | 00:00:00 | 00:00:00 | 00:00:00 | |
| DJ2KF-10 | 2026-08-30 11:39:22 | 49.83775 | 8.27824 | 43° | 31km/h | 16990m | 3.9m/s | -54.1°C | 4.3% | 93.7hPa | 2.7V | 04:07:00 | 01:09:07 | 00:00:00 | |
| DM0DOS-11 | 2026-08-30 11:39:21 | 49.83736 | 8.27782 | 35° | 31km/h | 16960m | 4.8m/s | -53.9°C | 4.3% | 94.2hPa | 2.8V | 04:07:53 | 01:09:01 | 00:00:00 | |
| DL1XH-west | 2026-08-30 11:39:19 | 49.83756 | 8.27801 | 31° | 33km/h | 16974m | 5.1m/s | -54°C | 0.7% | 94hPa | 2.6V | 04:08:03 | 01:09:04 | 00:00:00 | |
| BIOWL1-15 | 2026-08-30 11:39:13 | 49.83711 | 8.27759 | 27° | 27km/h | 16941m | 3.5m/s | -53.6°C | 0.8% | 94.5hPa | 2.6V | 04:08:03 | 01:08:57 | 00:00:00 | |
| DD1CC8 | 2026-08-30 11:39:12 | 49.83711 | 8.27759 | 27° | 26km/h | 16941m | 3.5m/s | -53.6°C | 1.3% | 94.5hPa | 2.7V | 00:00:00 | 00:00:00 | 00:00:00 | |
| DM0DOS-11 | 2026-08-30 11:39:11 | 49.83673 | 8.27721 | 30° | 35km/h | 16912m | 3.9m/s | -53.3°C | 4.3% | 94.9hPa | 2.7V | 04:08:03 | 01:08:51 | 00:00:00 | |
| DL1XH-west | 2026-08-30 11:39:09 | 49.83694 | 8.27742 | 37° | 29km/h | 16927m | 4m/s | -53.5°C | 0.7% | 94.7hPa | 2.7V | 04:08:03 | 01:08:54 | 00:00:00 | |
| BIOWL1-15 | 2026-08-30 11:39:04 | 49.83646 | 8.27690 | 43° | 31km/h | 16892m | 4.3m/s | -53.2°C | 0.7% | 95.2hPa | 2.6V | 04:08:54 | 01:08:47 | 00:00:00 | |
| HEMX73-11 | 2026-08-30 11:39:03 | 49.83659 | 8.27706 | 38° | 35km/h | 16903m | 5.9m/s | -53.4°C | 1.3% | 95.1hPa | 2.6V | 04:08:00 | 00:00:00 | 00:00:00 | |
| DB0UT-9 | 2026-08-30 11:39:02 | 49.83652 | 8.27698 | 42° | 33km/h | 16897m | 5.8m/s | -53.3°C | 1.3% | 95.2hPa | 2.6V | 04:08:00 | 00:00:00 | 00:00:00 | |
| DJ2DS-15 | 2026-08-30 11:38:59 | 49.83622 | 8.27664 | 28° | 29km/h | 16871m | 4.6m/s | -53.1°C | 1.3% | 95.5hPa | 2.6V | 00:00:00 | 00:00:00 | 00:00:00 | |
| DL1XH1-15 | 2026-08-30 11:38:58 | 49.83590 | 8.27634 | 27° | 29km/h | 16844m | 6m/s | -52.8°C | 4.1% | 95.9hPa | 2.6V | 04:08:16 | 01:08:38 | 00:00:00 | |
| DL1XH-west | 2026-08-30 11:38:58 | 49.83622 | 8.27664 | 28° | 29km/h | 16871m | 4.6m/s | -53.1°C | 0.7% | 95.5hPa | 2.7V | 04:08:54 | 01:08:43 | 00:00:00 | |
| BIOWL1-15 | 2026-08-30 11:38:55 | 49.83571 | 8.27616 | 37° | 29km/h | 16827m | 5.4m/s | -52.7°C | 0.7% | 96.2hPa | 2.8V | 04:08:54 | 01:08:35 | 00:00:00 | |
| DL1XH-west | 2026-08-30 11:38:48 | 49.83559 | 8.27602 | 37° | 31km/h | 16819m | 5.4m/s | -52.5°C | 0.7% | 96.3hPa | 2.7V | 04:08:54 | 01:08:33 | 00:00:00 | |
| DL3AQ-11 | 2026-08-30 11:38:48 | 49.83553 | 8.27595 | 34° | 31km/h | 16813m | 5.6m/s | -52.5°C | 1.3% | 96.4hPa | 2.6V | 00:00:00 | 00:00:00 | 00:00:00 | |
| DK5PH-5 | 2026-08-30 11:38:47 | 49.83553 | 8.27595 | 35° | 29km/h | 16813m | 5.6m/s | -52.4°C | 4.1% | 96.4hPa | 2.6V | 04:08:00 | 01:08:32 | 00:00:00 | |
| DL1XH1-15 | 2026-08-30 11:38:46 | 49.83526 | 8.27565 | 39° | 33km/h | 16792m | 4.3m/s | -52.2°C | 4% | 96.7hPa | 2.7V | 04:08:26 | 01:08:28 | 00:00:00 | |
| AU51GT2 | 2026-08-30 11:38:45 | 49.83539 | 8.27581 | 34° | 31km/h | 16803m | 5.2m/s | -52.4°C | 1.3% | 96.5hPa | 2.6V | 00:00:00 | 00:00:00 | 00:00:00 | |
| BIOWL1-15 | 2026-08-30 11:38:41 | 49.83513 | 8.27550 | 33° | 35km/h | 16782m | 5.6m/s | -52.3°C | 0.6% | 96.8hPa | 2.6V | 04:08:54 | 01:08:26 | 00:00:00 | |
| DB0UT-9 | 2026-08-30 11:38:40 | 49.83513 | 8.27549 | 34° | 35km/h | 16782m | 5.6m/s | -52.3°C | 1.3% | 96.8hPa | 2.8V | 04:08:00 | 00:00:00 | 00:00:00 | |
| DL8DAS-14 | 2026-08-30 11:38:39 | 49.83498 | 8.27537 | 25° | 31km/h | 16770m | 6.8m/s | -52.2°C | 1.2% | 97.0hPa | 2.8V | 00:00:00 | 00:00:00 | 00:00:00 | |
| DL1XH1-15 | 2026-08-30 11:38:38 | 49.83461 | 8.27496 | 44° | 31km/h | 16739m | 3.9m/s | -51.9°C | 3.9% | 97.5hPa | 2.8V | 04:08:36 | 01:08:18 | 00:00:00 | |
| DL1XH-west | 2026-08-30 11:38:37 | 49.83485 | 8.27527 | 30° | 27km/h | 16758m | 5.7m/s | -52.1°C | 0.5% | 97.2hPa | 2.7V | 04:08:54 | 01:08:22 | 00:00:00 | |
| BIOWL1-15 | 2026-08-30 11:38:31 | 49.83450 | 8.27480 | 44° | 27km/h | 16729m | 5.4m/s | -51.8°C | 0.6% | 97.7hPa | 2.6V | 04:08:54 | 01:08:16 | 00:00:00 | |
| DM0DOS-11 | 2026-08-30 11:38:29 | 49.83416 | 8.27431 | 42° | 24km/h | 16696m | 4m/s | -51.5°C | 3.9% | 98.2hPa | 2.6V | 04:08:45 | 01:08:09 | 00:00:00 | |
| DL1XH-west | 2026-08-30 11:38:26 | 49.83425 | 8.27444 | 43° | 27km/h | 16705m | 4.7m/s | -51.6°C | 0.6% | 98hPa | 2.7V | 04:08:54 | 01:08:11 | 00:00:00 | |
| DL1XH1-15 | 2026-08-30 11:38:26 | 49.83411 | 8.27424 | 41° | 26km/h | 16692m | 3.3m/s | -51.5°C | 3.9% | 98.2hPa | 2.7V | 04:08:46 | 01:08:08 | 00:00:00 | |
| BIOWL1-15 | 2026-08-30 11:38:21 | 49.83401 | 8.27409 | 45° | 29km/h | 16682m | 6.1m/s | -51.6°C | 0.5% | 98.4hPa | 2.8V | 04:08:54 | 01:08:06 | 00:00:00 | |
| DJ2KF-10 | 2026-08-30 11:38:21 | 49.83401 | 8.27409 | 46° | 33km/h | 16682m | 6.0m/s | -51.5°C | 3.8% | 98.4hPa | 2.7V | 00:00:00 | 01:08:06 | 00:00:00 | |
| DO1YAY-16 | 2026-08-30 11:38:20 | 49.83390 | 8.27392 | 44° | 27km/h | 16671m | 5.6m/s | -51.6°C | 1.2% | 98.5hPa | 2.7V | 00:00:00 | 00:00:00 | 00:00:00 | |
| DM0DOS-11 | 2026-08-30 11:38:19 | 49.83366 | 8.27358 | 47° | 29km/h | 16643m | 5.4m/s | -51.4°C | 3.8% | 98.9hPa | 2.7V | 04:08:55 | 01:07:59 | 00:00:00 | |
| DL1XH1-15 | 2026-08-30 11:38:18 | 49.83356 | 8.27341 | 43° | 29km/h | 16633m | 6.5m/s | -51.4°C | 3.8% | 99.1hPa | 2.8V | 04:08:57 | 01:07:57 | 00:00:00 | |
| DL1XH-west | 2026-08-30 11:38:15 | 49.83371 | 8.27365 | 45° | 26km/h | 16649m | 5.8m/s | -51.5°C | 0.5% | 98.8hPa | 2.7V | 04:08:54 | 01:08:00 | 00:00:00 | |
| BIOWL1-15 | 2026-08-30 11:38:10 | 49.83345 | 8.27325 | 42° | 31km/h | 16622m | 5.1m/s | -51.3°C | 0.4% | 99.3hPa | 2.6V | 04:09:45 | 01:07:55 | 00:00:00 | |
| DD1CC8 | 2026-08-30 11:38:10 | 49.83339 | 8.27316 | 44° | 31km/h | 16616m | 6.1m/s | -51.2°C | 1.2% | 99.3hPa | 2.7V | 00:00:00 | 00:00:00 | 00:00:00 | |
| DL3AQ-11 | 2026-08-30 11:38:08 | 49.83327 | 8.27298 | 43° | 33km/h | 16606m | 3.9m/s | -51.1°C | 1.2% | 99.5hPa | 2.7V | 00:00:00 | 00:00:00 | 00:00:00 | |
| DL4BBY-15 | 2026-08-30 11:38:07 | 49.83327 | 8.27298 | 44° | 33km/h | 16606m | 3.9m/s | -52.3°C | 0% | 0hPa | 2.7V | 00:00:00 | 00:00:00 | 00:00:00 | |
| DL1XH1-15 | 2026-08-30 11:38:05 | 49.83305 | 8.27267 | 38° | 29km/h | 16585m | 5.8m/s | -51.1°C | 3.7% | 99.8hPa | 2.7V | 04:09:06 | 01:07:48 | 00:00:00 | |
| DL1XH-west | 2026-08-30 11:38:05 | 49.83316 | 8.27282 | 41° | 29km/h | 16595m | 5.1m/s | -51.1°C | 0.4% | 99.7hPa | 2.6V | 04:09:45 | 01:07:50 | 00:00:00 | |
| BIOWL1-15 | 2026-08-30 11:38:00 | 49.83271 | 8.27225 | 41° | 31km/h | 16558m | 5.1m/s | -51.2°C | 0.5% | 100.3hPa | 2.7V | 04:09:45 | 01:07:42 | 00:00:00 | |
| DM0DOS-11 | 2026-08-30 11:37:59 | 49.83251 | 8.27198 | 38° | 38km/h | 16545m | 5.4m/s | -51.3°C | 3.7% | 100.5hPa | 2.6V | 04:09:15 | 01:07:39 | 00:00:00 | |
| DL1XH1-15 | 2026-08-30 11:37:58 | 49.83243 | 8.27189 | 34° | 37km/h | 16539m | 6.2m/s | -51.3°C | 3.7% | 100.6hPa | 2.7V | 04:09:16 | 01:07:38 | 00:00:00 | |
| DB0ND-19 | 2026-08-30 11:37:56 | 49.83265 | 8.27216 | 41° | 35km/h | 16553m | 4.1m/s | -51.2°C | 1.2% | 100.3hPa | 2.8V | 00:00:00 | 00:00:00 | 00:00:00 | |
| DB0DAN | 2026-08-30 11:37:55 | 49.83258 | 8.27207 | 41° | 37km/h | 16549m | 3.8m/s | -51.3°C | 1.2% | 100.44hPa | 2.8V | 00:00:00 | 00:00:00 | 00:00:00 | |
| DL1XH-west | 2026-08-30 11:37:54 | 49.83251 | 8.27198 | 39° | 38km/h | 16545m | 5.4m/s | -51.3°C | 0.5% | 100.5hPa | 2.6V | 04:09:45 | 01:07:39 | 00:00:00 | |
| DL1ZP-14 | 2026-08-30 11:37:53 | 49.83243 | 8.27189 | 34° | 35km/h | 16539m | 6.2m/s | -51.3°C | 1.2% | 100.6hPa | 2.7V | 00:00:00 | 00:00:00 | 00:00:00 | |
| BIOWL9-15 | 2026-08-30 11:37:50 | 49.83213 | 8.27159 | 33° | 35km/h | 16518m | 4.3m/s | -51.2°C | 1.2% | 100.9hPa | 2.8V | 00:00:00 | 00:00:00 | 00:00:00 | |
| DM0DOS-11 | 2026-08-30 11:37:49 | 49.83182 | 8.27115 | 46° | 38km/h | 16494m | 5.5m/s | -51.2°C | 3.7% | 101.2hPa | 2.8V | 04:09:25 | 01:07:29 | 00:00:00 | |
| BIOWL1-15 | 2026-08-30 11:37:49 | 49.83213 | 8.27159 | 33° | 35km/h | 16518m | 4.3m/s | -51.2°C | 0.5% | 100.9hPa | 2.7V | 04:09:45 | 01:07:34 | 00:00:00 | |
| DO1YAY-16 | 2026-08-30 11:37:49 | 49.83206 | 8.27152 | 37° | 31km/h | 16513m | 5.7m/s | -51.2°C | 1.2% | 100.9hPa | 2.8V | 00:00:00 | 00:00:00 | 00:00:00 | |
| DF7PN | 2026-08-30 11:37:47 | 49.83200 | 8.27144 | 42° | 31km/h | 16508m | 4.9m/s | -51.2°C | 1.2% | 101.0hPa | 2.8V | 00:00:00 | 00:00:00 | 00:00:00 | |
| DL1XH-west | 2026-08-30 11:37:44 | 49.83182 | 8.27115 | 47° | 38km/h | 16494m | 5.5m/s | -51.2°C | 0.5% | 101.2hPa | 2.8V | 04:09:45 | 01:07:29 | 00:00:00 | |
| DL3AQ-11 | 2026-08-30 11:37:44 | 49.83175 | 8.27104 | 46° | 40km/h | 16490m | 3.7m/s | -51.2°C | 1.2% | 101.3hPa | 2.6V | 00:00:00 | 00:00:00 | 00:00:00 | |
| AU51GT2 | 2026-08-30 11:37:43 | 49.83168 | 8.27092 | 47° | 40km/h | 16486m | 4.4m/s | -51.2°C | 1.2% | 101.4hPa | 2.6V | 00:00:00 | 00:00:00 | 00:00:00 | |
| DL1XH1-15 | 2026-08-30 11:37:42 | 49.83134 | 8.27042 | 38° | 35km/h | 16460m | 4.9m/s | -51.2°C | 3.8% | 101.8hPa | 2.6V | 04:09:32 | 01:07:22 | 00:00:00 | |
| DB0DAN | 2026-08-30 11:37:40 | 49.83154 | 8.27069 | 45° | 37km/h | 16475m | 5.1m/s | -51.2°C | 1.2% | 101.55hPa | 2.8V | 00:00:00 | 00:00:00 | 00:00:00 | |
| BIOWL1-15 | 2026-08-30 11:37:39 | 49.83120 | 8.27023 | 43° | 38km/h | 16452m | 3.8m/s | -51.2°C | 0.5% | 101.9hPa | 2.7V | 04:09:45 | 01:07:20 | 00:00:00 | |
| DD1CC8 | 2026-08-30 11:37:39 | 49.83141 | 8.27051 | 39° | 33km/h | 16465m | 4.8m/s | -51.2°C | 1.2% | 101.7hPa | 2.7V | 00:00:00 | 00:00:00 | 00:00:00 | |
| DM0DOS-11 | 2026-08-30 11:37:37 | 49.83104 | 8.26990 | 60° | 33km/h | 16438m | 5.3m/s | -51.3°C | 3.7% | 102.1hPa | 2.7V | 04:09:37 | 01:07:17 | 00:00:00 | |
| DL1XH-west | 2026-08-30 11:37:34 | 49.83113 | 8.27013 | 52° | 37km/h | 16448m | 4m/s | -51.2°C | 0.5% | 102hPa | 2.8V | 04:09:45 | 01:07:19 | 00:00:00 | |
| DJ2DS-15 | 2026-08-30 11:37:34 | 49.83113 | 8.27013 | 52° | 37km/h | 16448m | 3.9m/s | -51.2°C | 3.7% | 101.9hPa | 2.7V | 04:09:00 | 01:07:19 | 00:00:00 | |
| DL1XH1-15 | 2026-08-30 11:37:32 | 49.83086 | 8.26940 | 54° | 31km/h | 16417m | 4.3m/s | -51.8°C | 3.9% | 102.5hPa | 2.7V | 04:09:42 | 01:07:12 | 00:00:00 | |
| BIOWL1-15 | 2026-08-30 11:37:27 | 49.83076 | 8.26919 | 55° | 35km/h | 16407m | 5.5m/s | -51.7°C | 0.6% | 102.6hPa | 2.8V | 04:09:45 | 01:07:10 | 00:00:00 | |
| DL8DAS-15 | 2026-08-30 11:37:27 | 49.83090 | 8.26950 | 57° | 29km/h | 16421m | 4.3m/s | -51.7°C | 0% | 102.5hPa | 2.8V | 04:09:00 | 00:00:00 | 00:00:00 | |
| DB0DAN | 2026-08-30 11:37:25 | 49.83076 | 8.26919 | 55° | 35km/h | 16407m | 5.5m/s | -51.7°C | 1.3% | 102.64hPa | 2.8V | 00:00:00 | 00:00:00 | 00:00:00 | |
| DL1XH-west | 2026-08-30 11:37:24 | 49.83071 | 8.26907 | 55° | 37km/h | 16402m | 4.6m/s | -51.7°C | 0.6% | 102.7hPa | 2.8V | 04:09:45 | 01:07:09 | 00:00:00 | |
| DM3KS-11 | 2026-08-30 11:37:23 | 49.83065 | 8.26895 | 51° | 37km/h | 16397m | 6.0m/s | -51.7°C | 1.3% | 102.8hPa | 2.7V | 00:00:00 | 00:00:00 | 00:00:00 | |
| DL1ZP-14 | 2026-08-30 11:37:22 | 49.83059 | 8.26884 | 51° | 37km/h | 16392m | 4.6m/s | -51.7°C | 1.2% | 102.9hPa | 2.7V | 00:00:00 | 00:00:00 | 00:00:00 | |
| DL1XH1-15 | 2026-08-30 11:37:22 | 49.83029 | 8.26819 | 57° | 42km/h | 16369m | 5m/s | -51.7°C | 3.9% | 103.2hPa | 2.7V | 04:09:52 | 01:07:02 | 00:00:00 | |
| HEMX73-11 | 2026-08-30 11:37:21 | 49.83059 | 8.26884 | 52° | 38km/h | 16392m | 4.6m/s | -51.7°C | 1.2% | 102.9hPa | 2.8V | 04:10:00 | 00:00:00 | 00:00:00 | |
| BIOWL9-15 | 2026-08-30 11:37:19 | 49.83035 | 8.26833 | 56° | 40km/h | 16374m | 4.4m/s | -51.7°C | 1.3% | 103.2hPa | 2.8V | 00:00:00 | 00:00:00 | 00:00:00 | |
| DM0DOS-11 | 2026-08-30 11:37:18 | 49.83006 | 8.26761 | 59° | 49km/h | 16349m | 5.6m/s | -51.6°C | 3.8% | 103.6hPa | 2.8V | 04:09:56 | 01:06:58 | 00:00:00 | |
| DL1XH-west | 2026-08-30 11:37:13 | 49.83006 | 8.26761 | 59° | 49km/h | 16349m | 5.6m/s | -51.6°C | 0.6% | 103.6hPa | 2.8V | 04:10:36 | 01:06:58 | 00:00:00 | |
| DB0DAN | 2026-08-30 11:37:10 | 49.82985 | 8.26711 | 56° | 47km/h | 16336m | 5.4m/s | -51.6°C | 1.3% | 103.76hPa | 2.7V | 00:00:00 | 00:00:00 | 00:00:00 | |
| DL1XH-west | 2026-08-30 11:37:03 | 49.82941 | 8.26603 | 64° | 44km/h | 16303m | 4.2m/s | -51.6°C | 0.6% | 104.3hPa | 2.8V | 04:10:36 | 01:06:48 | 00:00:00 | |
| DM0DOS-11 | 2026-08-30 11:37:02 | 49.82931 | 8.26570 | 63° | 47km/h | 16293m | 5.3m/s | -51.6°C | 3.9% | 104.4hPa | 2.8V | 04:10:08 | 01:06:46 | 00:00:00 | |
| CB1BUN | 2026-08-30 11:37:02 | 49.82941 | 8.26603 | 65° | 44km/h | 16303m | 4.2m/s | -51.6°C | 1.3% | 104.3hPa | 2.7V | 04:10:00 | 00:00:00 | 00:00:00 | |
| DJ3KS | 2026-08-30 11:37:01 | 49.82936 | 8.26587 | 66° | 46km/h | 16299m | 4.4m/s | -51.6°C | 0% | 104.3hPa | 2.7V | 04:10:00 | 00:00:00 | 00:00:00 | |
| DJ2KF-10 | 2026-08-30 11:36:58 | 49.82913 | 8.26519 | 59° | 47km/h | 16280m | 5.0m/s | -51.8°C | 3.9% | 104.5hPa | 2.7V | 00:00:00 | 01:06:43 | 00:00:00 | |
| DB0DAN | 2026-08-30 11:36:55 | 49.82894 | 8.26472 | 59° | 42km/h | 16267m | 4.9m/s | -51.8°C | 1.3% | 104.82hPa | 2.7V | 00:00:00 | 00:00:00 | 00:00:00 | |
| DL1XH-west | 2026-08-30 11:36:52 | 49.82879 | 8.26427 | 67° | 40km/h | 16253m | 5.2m/s | -51.9°C | 0.7% | 105hPa | 2.8V | 04:10:36 | 01:06:37 | 00:00:00 | |
| DL1XH1-15 | 2026-08-30 11:36:52 | 49.82865 | 8.26350 | 73° | 47km/h | 16233m | 4.2m/s | -52°C | 4% | 105.4hPa | 2.8V | 04:10:22 | 01:06:32 | 00:00:00 | |
| BIOWL1-15 | 2026-08-30 11:36:52 | 49.82876 | 8.26413 | 73° | 38km/h | 16249m | 3.7m/s | -51.9°C | 0.6% | 105.1hPa | 2.7V | 04:10:36 | 01:06:36 | 00:00:00 | |
| DL1ZP-14 | 2026-08-30 11:36:51 | 49.82876 | 8.26413 | 73° | 38km/h | 16249m | 3.7m/s | -51.9°C | 1.3% | 105.1hPa | 2.7V | 00:00:00 | 00:00:00 | 00:00:00 | |
| BIOWL9-15 | 2026-08-30 11:36:48 | 49.82865 | 8.26350 | 73° | 46km/h | 16233m | 4.2m/s | -52.0°C | 1.4% | 105.4hPa | 2.8V | 00:00:00 | 00:00:00 | 00:00:00 | |
| DO1YAY-16 | 2026-08-30 11:36:47 | 49.82862 | 8.26332 | 70° | 46km/h | 16229m | 3.6m/s | -52.0°C | 1.4% | 105.4hPa | 2.8V | 00:00:00 | 00:00:00 | 00:00:00 | |
| DC4HF-4 | 2026-08-30 11:36:46 | 49.82862 | 8.26332 | 70° | 46km/h | 16229m | 3.6m/s | -52.0°C | 1.4% | 105.4hPa | 2.8V | 00:00:00 | 00:00:00 | 00:00:00 | |
| DL1XH-west | 2026-08-30 11:36:42 | 49.82835 | 8.26251 | 56° | 47km/h | 16209m | 4.7m/s | -52.4°C | 0.8% | 105.8hPa | 2.8V | 04:10:36 | 01:06:26 | 00:00:00 | |
| DL1XH1-15 | 2026-08-30 11:36:42 | 49.82813 | 8.26186 | 73° | 42km/h | 16191m | 3.9m/s | -52.6°C | 4.1% | 106.1hPa | 2.8V | 04:10:32 | 01:06:22 | 00:00:00 | |
| BIOWL1-15 | 2026-08-30 11:36:42 | 49.82841 | 8.26266 | 60° | 47km/h | 16213m | 3.8m/s | -52.3°C | 0.8% | 105.7hPa | 2.8V | 04:10:36 | 01:06:27 | 00:00:00 | |
| DB0DAN | 2026-08-30 11:36:40 | 49.82828 | 8.26235 | 58° | 47km/h | 16204m | 3.7m/s | -52.4°C | 1.4% | 105.85hPa | 2.6V | 00:00:00 | 00:00:00 | 00:00:00 | |
| DL9SK-14 | 2026-08-30 11:36:38 | 49.82811 | 8.26170 | 80° | 42km/h | 16188m | 3.0m/s | -52.6°C | 1.4% | 106.1hPa | 2.8V | 00:00:00 | 00:00:00 | 00:00:00 | |
| DD1CC8 | 2026-08-30 11:36:37 | 49.82811 | 8.26170 | 80° | 42km/h | 16188m | 3.0m/s | -52.6°C | 1.4% | 106.1hPa | 2.8V | 00:00:00 | 00:00:00 | 00:00:00 | |
| DL3AQ-11 | 2026-08-30 11:36:35 | 49.82808 | 8.26136 | 84° | 47km/h | 16180m | 5.2m/s | -52.5°C | 1.4% | 106.2hPa | 2.8V | 00:00:00 | 00:00:00 | 00:00:00 | |
| DJ2DS-15 | 2026-08-30 11:36:34 | 49.82808 | 8.26136 | 85° | 55km/h | 16180m | 5.1m/s | -52.5°C | 4.0% | 106.2hPa | 2.8V | 00:00:00 | 01:06:19 | 00:00:00 | |
| DL1XH1-15 | 2026-08-30 11:36:32 | 49.82779 | 8.25993 | 66° | 60km/h | 16149m | 4.5m/s | -52.6°C | 4.1% | 106.8hPa | 2.8V | 04:10:42 | 01:06:12 | 00:00:00 | |
| BIOWL1-15 | 2026-08-30 11:36:31 | 49.82800 | 8.26076 | 73° | 55km/h | 16167m | 5.1m/s | -52.5°C | 0.8% | 106.5hPa | 2.8V | 04:11:27 | 01:06:16 | 00:00:00 | |
| DL1XH-west | 2026-08-30 11:36:30 | 49.82796 | 8.26056 | 70° | 55km/h | 16162m | 5.2m/s | -52.4°C | 0.8% | 106.5hPa | 2.8V | 04:11:27 | 01:06:15 | 00:00:00 | |
| DJ3KS | 2026-08-30 11:36:29 | 49.82796 | 8.26056 | 71° | 55km/h | 16162m | 5.2m/s | -52.4°C | 0% | 106.5hPa | 2.7V | 00:00:00 | 00:00:00 | 00:00:00 | |
| DB0DAN | 2026-08-30 11:36:25 | 49.82768 | 8.25951 | 65° | 55km/h | 16141m | 3.6m/s | -52.7°C | 0% | 106.86hPa | 2.7V | 00:00:00 | 00:00:00 | 00:00:00 | |
| DL3AQ-11 | 2026-08-30 11:36:24 | 49.82756 | 8.25912 | 65° | 53km/h | 16132m | 3.5m/s | -52.8°C | 1.5% | 107.0hPa | 2.7V | 00:00:00 | 00:00:00 | 00:00:00 | |
| DB0ND-19 | 2026-08-30 11:36:23 | 49.82756 | 8.25912 | 65° | 53km/h | 16132m | 3.5m/s | -52.8°C | 1.5% | 107.0hPa | 2.7V | 00:00:00 | 00:00:00 | 00:00:00 | |
| DL1XH1-15 | 2026-08-30 11:36:22 | 49.82727 | 8.25798 | 65° | 51km/h | 16111m | 3.6m/s | -53°C | 4.3% | 107.4hPa | 2.7V | 04:10:52 | 01:06:02 | 00:00:00 | |
| BIOWL1-15 | 2026-08-30 11:36:21 | 49.82746 | 8.25873 | 69° | 55km/h | 16125m | 3.6m/s | -52.9°C | 0.9% | 107.2hPa | 2.8V | 04:11:27 | 01:06:06 | 00:00:00 | |
| DL1XH-west | 2026-08-30 11:36:19 | 49.82737 | 8.25835 | 69° | 51km/h | 16119m | 3.8m/s | -53°C | 1% | 107.3hPa | 2.7V | 04:11:27 | 01:06:04 | 00:00:00 | |
| BIOWL1-15 | 2026-08-30 11:36:10 | 49.82682 | 8.25632 | 69° | 53km/h | 16078m | 2.7m/s | -53.5°C | 1% | 108hPa | 2.7V | 04:11:27 | 01:05:53 | 00:00:00 | |
| DB0DAN | 2026-08-30 11:36:10 | 49.82691 | 8.25668 | 67° | 46km/h | 16086m | 4m/s | -53.2°C | 0% | 0hPa | 2.8V | 00:00:00 | 00:00:00 | 00:00:00 | |
| DL1XH-west | 2026-08-30 11:36:09 | 49.82633 | 8.25468 | 61° | 68km/h | 16047m | 4.7m/s | -53.5°C | 1% | 108.5hPa | 2.8V | 04:11:27 | 01:05:45 | 00:00:00 | |
| BIOWL1-15 | 2026-08-30 11:35:57 | 49.82559 | 8.25291 | 55° | 64km/h | 16015m | 2.7m/s | -53.9°C | 1.1% | 109.1hPa | 2.7V | 04:11:27 | 01:05:37 | 00:00:00 | |
| DL1XH-west | 2026-08-30 11:35:55 | 49.82586 | 8.25355 | 60° | 68km/h | 16026m | 3.3m/s | -53.6°C | 1% | 108.9hPa | 2.8V | 04:11:27 | 01:05:40 | 00:00:00 | |
| BIOWL1-15 | 2026-08-30 11:35:47 | 49.82513 | 8.25181 | 57° | 71km/h | 15997m | 3.6m/s | -54.1°C | 1.1% | 109.3hPa | 2.7V | 04:11:27 | 01:05:32 | 00:00:00 | |
| DL1XH-west | 2026-08-30 11:35:45 | 49.82492 | 8.25135 | 54° | 73km/h | 15990m | 2.9m/s | -54.2°C | 1.1% | 109.5hPa | 2.8V | 04:11:27 | 01:05:30 | 00:00:00 | |
| DL1XH1-15 | 2026-08-30 11:35:42 | 49.82457 | 8.25065 | 50° | 75km/h | 15980m | 2.8m/s | -54.1°C | 4.6% | 109.7hPa | 2.7V | 04:11:27 | 01:05:27 | 00:00:00 | |
| BIOWL1-15 | 2026-08-30 11:35:37 | 49.82397 | 8.24962 | 50° | 69km/h | 15963m | 3.7m/s | -54.1°C | 1.2% | 110hPa | 2.7V | 04:12:18 | 01:05:22 | 00:00:00 | |
| DL1XH1-15 | 2026-08-30 11:35:36 | 49.82343 | 8.24865 | 48° | 64km/h | 15942m | 4.5m/s | -54°C | 4.5% | 110.3hPa | 2.7V | 04:11:37 | 01:05:17 | 00:00:00 | |
| DL1XH-west | 2026-08-30 11:35:35 | 49.82375 | 8.24922 | 50° | 68km/h | 15955m | 4.2m/s | -54.1°C | 1.2% | 110.1hPa | 2.8V | 04:12:18 | 01:05:20 | 00:00:00 | |
| BIOWL1-15 | 2026-08-30 11:35:28 | 49.82280 | 8.24756 | 46° | 62km/h | 15917m | 4.9m/s | -54°C | 1.1% | 110.7hPa | 2.7V | 04:12:18 | 01:05:11 | 00:00:00 | |
| DL1XH-west | 2026-08-30 11:35:25 | 49.82269 | 8.24738 | 47° | 64km/h | 15912m | 4.5m/s | -54°C | 1.1% | 110.8hPa | 2.7V | 04:12:18 | 01:05:10 | 00:00:00 | |
| DJ2KF-10 | 2026-08-30 11:35:23 | 49.82247 | 8.24702 | 46° | 58km/h | 15906m | 3.9m/s | -54.0°C | 4.6% | 110.9hPa | 2.7V | 00:00:00 | 01:05:08 | 00:00:00 | |
| DK5PH-5 | 2026-08-30 11:35:21 | 49.82225 | 8.24667 | 47° | 58km/h | 15898m | 4.1m/s | -54.1°C | 4.6% | 111.0hPa | 2.7V | 00:00:00 | 01:05:06 | 00:00:00 | |
| CB1BUN | 2026-08-30 11:35:20 | 49.82225 | 8.24667 | 47° | 64km/h | 15898m | 4.1m/s | -54.1°C | 1.6% | 111.1hPa | 2.7V | 04:12:00 | 00:00:00 | 00:00:00 | |
| DM3KS-11 | 2026-08-30 11:35:19 | 49.82203 | 8.24630 | 46° | 66km/h | 15889m | 4.0m/s | -54.1°C | 1.7% | 111.3hPa | 2.7V | 00:00:00 | 00:00:00 | 00:00:00 | |
| DL1ZP-14 | 2026-08-30 11:35:18 | 49.82180 | 8.24593 | 45° | 62km/h | 15882m | 4.4m/s | -54.1°C | 1.7% | 111.4hPa | 2.7V | 00:00:00 | 00:00:00 | 00:00:00 | |
| DB0UT-7 | 2026-08-30 11:35:17 | 49.82180 | 8.24593 | 46° | 57km/h | 15882m | 4.3m/s | -54.1°C | 4.7% | 111.3hPa | 2.8V | 00:00:00 | 00:00:00 | 00:00:00 | |
| DL1XH1-15 | 2026-08-30 11:35:15 | 49.82151 | 8.24544 | 48° | 53km/h | 15870m | 4.7m/s | -54°C | 4.7% | 111.5hPa | 2.8V | 04:11:55 | 01:04:59 | 00:00:00 | |
| BIOWL1-15 | 2026-08-30 11:35:15 | 49.82160 | 8.24560 | 48° | 53km/h | 15874m | 4.1m/s | -54.1°C | 1.3% | 111.5hPa | 2.8V | 04:12:18 | 01:05:00 | 00:00:00 | |
| DL1XH-west | 2026-08-30 11:35:14 | 49.82151 | 8.24544 | 48° | 53km/h | 15870m | 4.7m/s | -54°C | 1.3% | 111.5hPa | 2.8V | 04:12:18 | 01:04:59 | 00:00:00 | |
| BIOWL1-15 | 2026-08-30 11:35:05 | 49.82060 | 8.24371 | 53° | 60km/h | 15830m | 3.6m/s | -53.8°C | 1.2% | 112.3hPa | 2.8V | 04:12:18 | 01:04:49 | 00:00:00 | |
| DL1XH-west | 2026-08-30 11:35:04 | 49.82042 | 8.24335 | 49° | 58km/h | 15822m | 4.2m/s | -53.7°C | 1.2% | 112.4hPa | 2.7V | 04:12:18 | 01:04:47 | 00:00:00 | |
| DL3AQ-11 | 2026-08-30 11:35:04 | 49.82051 | 8.24352 | 52° | 58km/h | 15826m | 4.5m/s | 0°C | -1.0% | -1.0hPa | 2.8V | 00:00:00 | 00:00:00 | 00:00:00 | |
| DD1CC8 | 2026-08-30 11:35:03 | 49.82051 | 8.24352 | 52° | 58km/h | 15826m | 4.5m/s | -53.8°C | 1.6% | 112.3hPa | 2.8V | 00:00:00 | 00:00:00 | 00:00:00 | |
| DC4HF-4 | 2026-08-30 11:34:58 | 49.82003 | 8.24266 | 51° | 53km/h | 15805m | 4.0m/s | -53.6°C | 1.6% | 112.7hPa | 2.8V | 00:00:00 | 00:00:00 | 00:00:00 | |
| DL1XH1-15 | 2026-08-30 11:34:57 | 49.81971 | 8.24205 | 51° | 49km/h | 15790m | 3.9m/s | -53.5°C | 4.4% | 113hPa | 2.8V | 04:12:15 | 01:04:39 | 00:00:00 | |
| BIOWL1-15 | 2026-08-30 11:34:53 | 49.81926 | 8.24124 | 48° | 57km/h | 15769m | 3.5m/s | -54.3°C | 1.3% | 113.4hPa | 2.8V | 18:12:15 | 01:04:34 | 00:00:00 | |
| DL1XH-west | 2026-08-30 11:34:52 | 49.81954 | 8.24174 | 52° | 55km/h | 15781m | 4m/s | -53.7°C | 1.2% | 113.2hPa | 2.7V | 04:12:18 | 01:04:37 | 00:00:00 | |
| DB0ND-19 | 2026-08-30 11:34:50 | 49.81936 | 8.24140 | 49° | 57km/h | 15773m | 4.6m/s | -54.2°C | 1.7% | 113.3hPa | 2.8V | 00:00:00 | 00:00:00 | 00:00:00 | |
| DM3KS-11 | 2026-08-30 11:34:48 | 49.81917 | 8.24107 | 49° | 57km/h | 15765m | 4.0m/s | -54.3°C | 1.7% | 113.4hPa | 2.8V | 00:00:00 | 00:00:00 | 00:00:00 | |
| DL1XH1-15 | 2026-08-30 11:34:47 | 49.81882 | 8.24042 | 47° | 49km/h | 15748m | 5m/s | -54.4°C | 4.5% | 113.7hPa | 2.8V | 04:12:25 | 01:04:29 | 00:00:00 | |
| DL1ZP-14 | 2026-08-30 11:34:47 | 49.81899 | 8.24073 | 51° | 55km/h | 15757m | 3.9m/s | -54.3°C | 1.7% | 113.5hPa | 2.7V | 00:00:00 | 00:00:00 | 00:00:00 | |
| BIOWL1-15 | 2026-08-30 11:34:42 | 49.81866 | 8.24014 | 51° | 47km/h | 15740m | 3.7m/s | -54.4°C | 1.3% | 0hPa | 2.7V | 18:12:15 | 01:04:27 | 00:00:00 | |
| DL1XH-west | 2026-08-30 11:34:41 | 49.81858 | 8.23999 | 55° | 47km/h | 15736m | 4.9m/s | -54.5°C | 1.3% | 113.9hPa | 2.7V | 04:13:09 | 01:04:26 | 00:00:00 | |
| CB1BUN | 2026-08-30 11:34:40 | 49.81851 | 8.23983 | 60° | 51km/h | 15732m | 3.8m/s | -54.5°C | 1.7% | 114.0hPa | 2.8V | 04:13:00 | 00:00:00 | 00:00:00 | |
| DJ3KS | 2026-08-30 11:34:39 | 49.81851 | 8.23983 | 60° | 51km/h | 15732m | 3.8m/s | -54.5°C | 0% | 114.0hPa | 2.8V | 00:00:00 | 00:00:00 | 00:00:00 | |
| DL8DAS-15 | 2026-08-30 11:34:38 | 49.81845 | 8.23965 | 63° | 55km/h | 15728m | 3.2m/s | -54.5°C | 0% | 114.0hPa | 2.8V | 00:00:00 | 00:00:00 | 00:00:00 | |
| DL1XH1-15 | 2026-08-30 11:34:37 | 49.81808 | 8.23864 | 61° | 60km/h | 15710m | 4.1m/s | -54.8°C | 4.9% | 114.4hPa | 2.8V | 04:12:35 | 01:04:19 | 00:00:00 | |
| DL1XH-west | 2026-08-30 11:34:31 | 49.81786 | 8.23806 | 56° | 53km/h | 15698m | 3.8m/s | -55.1°C | 1.6% | 114.7hPa | 2.7V | 04:13:09 | 01:04:16 | 00:00:00 | |
| DL8DAS-14 | 2026-08-30 11:34:31 | 49.81786 | 8.23806 | 55° | 53km/h | 15698m | 3.8m/s | -55.1°C | 1.9% | 114.7hPa | 2.8V | 00:00:00 | 00:00:00 | 00:00:00 | |
| DB0UT-9 | 2026-08-30 11:34:29 | 49.81779 | 8.23789 | 58° | 51km/h | 15695m | 2.6m/s | -55.2°C | 1.9% | 114.7hPa | 2.8V | 04:13:00 | 00:00:00 | 00:00:00 | |
| DL1XH1-15 | 2026-08-30 11:34:27 | 49.81744 | 8.23672 | 65° | 64km/h | 15671m | 4.1m/s | -55°C | 4.9% | 115.1hPa | 2.8V | 04:12:45 | 01:04:09 | 00:00:00 | |
| DB0DAN | 2026-08-30 11:34:25 | 49.81750 | 8.23694 | 68° | 58km/h | 15676m | 4.4m/s | -55.1°C | 0% | 0hPa | 2.7V | 00:00:00 | 00:00:00 | 00:00:00 | |
| DL1XH-west | 2026-08-30 11:34:21 | 49.81722 | 8.23603 | 62° | 64km/h | 15659m | 4.7m/s | -55.1°C | 1.6% | 115.3hPa | 2.7V | 04:13:09 | 01:04:06 | 00:00:00 | |
| DK5PH-5 | 2026-08-30 11:34:21 | 49.81722 | 8.23603 | 63° | 66km/h | 15659m | 4.7m/s | -55.0°C | 5.0% | 115.3hPa | 2.8V | 00:00:00 | 01:04:06 | 00:00:00 | |
| DB0ND-19 | 2026-08-30 11:34:19 | 49.81707 | 8.23561 | 58° | 58km/h | 15651m | 4.1m/s | -54.9°C | 1.9% | 115.5hPa | 2.8V | 00:00:00 | 00:00:00 | 00:00:00 | |
| DB0UT-7 | 2026-08-30 11:34:17 | 49.81690 | 8.23523 | 54° | 57km/h | 15643m | 3.3m/s | -54.8°C | 5.0% | 115.6hPa | 2.8V | 00:00:00 | 00:00:00 | 00:00:00 | |
| DL1XH1-15 | 2026-08-30 11:34:16 | 49.81666 | 8.23470 | 58° | 53km/h | 15631m | 4m/s | -54.9°C | 5.2% | 115.8hPa | 2.8V | 04:12:55 | 01:03:59 | 00:00:00 | |
| BIOWL1-15 | 2026-08-30 11:34:13 | 49.81645 | 8.23413 | 61° | 60km/h | 15619m | 4.5m/s | -54.8°C | 1.7% | 0hPa | 2.7V | 18:12:15 | 01:03:56 | 00:00:00 | |
| DM0DOS-11 | 2026-08-30 11:34:12 | 49.81622 | 8.23352 | 59° | 58km/h | 15607m | 4.8m/s | -54.8°C | 5% | 116.3hPa | 2.8V | 04:13:01 | 01:03:53 | 00:00:00 | |
| DB0DAN | 2026-08-30 11:34:10 | 49.81637 | 8.23392 | 60° | 58km/h | 15616m | 3m/s | -54.8°C | 0% | 0hPa | 2.7V | 00:00:00 | 00:00:00 | 00:00:00 | |
| DL1XH-west | 2026-08-30 11:34:10 | 49.81637 | 8.23392 | 60° | 62km/h | 15616m | 3m/s | -54.8°C | 1.7% | 116.2hPa | 2.7V | 04:13:09 | 01:03:55 | 00:00:00 | |
| BIOWL1-15 | 2026-08-30 11:34:01 | 49.81573 | 8.23220 | 67° | 49km/h | 15577m | 4.6m/s | 0°C | 0% | 0hPa | 2.7V | 18:12:15 | 01:03:46 | 00:00:00 | |
| DL1XH-west | 2026-08-30 11:34:00 | 49.81568 | 8.23202 | 69° | 51km/h | 15572m | 5m/s | -54.6°C | 1.8% | 116.9hPa | 2.8V | 04:13:09 | 01:03:45 | 00:00:00 | |
| DL1XH-west | 2026-08-30 11:33:49 | 49.81507 | 8.22997 | 58° | 62km/h | 15516m | 5.2m/s | -54.3°C | 2% | 118hPa | 2.7V | 04:14:00 | 01:03:34 | 00:00:00 | |
| DB0ND-19 | 2026-08-30 11:33:48 | 49.81499 | 8.22976 | 59° | 64km/h | 15510m | 6.3m/s | -54.4°C | 2.1% | 118.0hPa | 2.7V | 00:00:00 | 00:00:00 | 00:00:00 | |
| DB0UT-7 | 2026-08-30 11:33:47 | 49.81491 | 8.22953 | 64° | 69km/h | 15503m | 7.0m/s | -54.5°C | 5.1% | 118.1hPa | 2.7V | 00:00:00 | 01:03:32 | 00:00:00 | |
| DL1XH1-15 | 2026-08-30 11:33:46 | 49.81472 | 8.22884 | 67° | 62km/h | 15480m | 10.4m/s | 0°C | 0% | 0hPa | 2.7V | 00:00:00 | 01:03:29 | 00:00:00 | |
| DC4HF-4 | 2026-08-30 11:33:46 | 49.81478 | 8.22907 | 67° | 64km/h | 15490m | 8.8m/s | -54.9°C | 2.1% | 118.4hPa | 2.8V | 00:00:00 | 00:00:00 | 00:00:00 | |
| DO2JMG | 2026-08-30 11:33:41 | 49.81459 | 8.22819 | 81° | 57km/h | 15453m | 7.1m/s | -54.9°C | 2.2% | 119.1hPa | 2.8V | 04:16:33 | 01:03:26 | 00:00:00 | |
| DB0DAN | 2026-08-30 11:33:40 | 49.81457 | 8.22796 | 85° | 55km/h | 15446m | 6.1m/s | 0°C | 0% | 0hPa | 2.7V | 00:00:00 | 00:00:00 | 00:00:00 | |
| DL1XH-west | 2026-08-30 11:33:39 | 49.81456 | 8.22773 | 87° | 60km/h | 15441m | 5.3m/s | -54.8°C | 2.2% | 119.3hPa | 2.7V | 04:14:00 | 01:03:24 | 00:00:00 | |
| CB1BUN | 2026-08-30 11:33:37 | 49.81455 | 8.22749 | 87° | 62km/h | 15435m | 5.4m/s | -54.8°C | 2.3% | 119.5hPa | 2.7V | 00:00:00 | 00:00:00 | 00:00:00 | |
| DL1XH1-15 | 2026-08-30 11:33:34 | 49.81451 | 8.22651 | 87° | 62km/h | 15418m | 5.6m/s | 0°C | 0% | 0hPa | 2.7V | 00:00:00 | 01:03:19 | 00:00:00 | |
| BIOWL1-15 | 2026-08-30 11:33:33 | 49.81449 | 8.22578 | 86° | 64km/h | 15404m | 4.6m/s | -54.7°C | 2.5% | 120hPa | 2.8V | 04:14:00 | 01:03:16 | 00:00:00 | |
| DJ2DS-15 | 2026-08-30 11:33:32 | 49.81450 | 8.22603 | 88° | 68km/h | 15409m | 4.1m/s | -54.7°C | 5.4% | 119.9hPa | 2.7V | 00:00:00 | 01:03:17 | 00:00:00 | |
| DJ3KS | 2026-08-30 11:33:30 | 49.81449 | 8.22578 | 87° | 64km/h | 15404m | 4.6m/s | -54.7°C | 0% | 120.0hPa | 2.7V | 00:00:00 | 00:00:00 | 00:00:00 | |
| DL1XH1-15 | 2026-08-30 11:33:29 | 49.81438 | 8.22402 | 85° | 69km/h | 15376m | 5.1m/s | 0°C | 0% | 0hPa | 2.7V | 00:00:00 | 01:03:09 | 00:00:00 | |
| DL1XH-west | 2026-08-30 11:33:28 | 49.81444 | 8.22504 | 83° | 64km/h | 15392m | 4.6m/s | -54.7°C | 2.5% | 120.2hPa | 2.7V | 04:14:00 | 01:03:13 | 00:00:00 | |
| DB0DAN | 2026-08-30 11:33:25 | 49.81440 | 8.22428 | 86° | 64km/h | 15381m | 5.1m/s | 0°C | 0% | 0hPa | 2.7V | 00:00:00 | 00:00:00 | 00:00:00 | |
| DO2JMG | 2026-08-30 11:33:21 | 49.81433 | 8.22324 | 84° | 64km/h | 15362m | 4m/s | -55.1°C | 2.8% | 120.8hPa | 2.8V | 04:16:33 | 01:03:06 | 00:00:00 | |
| DL1XH-west | 2026-08-30 11:33:18 | 49.81430 | 8.22246 | 88° | 68km/h | 15349m | 4.2m/s | -55.4°C | 2.9% | 121hPa | 2.7V | 04:14:00 | 01:03:03 | 00:00:00 | |
| DB0ND-19 | 2026-08-30 11:33:17 | 49.81430 | 8.22219 | 91° | 71km/h | 15345m | 3.6m/s | -55.4°C | 2.6% | 121.1hPa | 2.7V | 00:00:00 | 00:00:00 | 00:00:00 | |
| DM0DOS-11 | 2026-08-30 11:33:17 | 49.81432 | 8.22109 | 91° | 71km/h | 15332m | 3.7m/s | -55.7°C | 5.9% | 121.4hPa | 2.7V | 04:13:56 | 01:02:58 | 00:00:00 | |
| CB1BUN | 2026-08-30 11:33:16 | 49.81430 | 8.22219 | 92° | 71km/h | 15345m | 3.6m/s | -55.4°C | 2.6% | 121.1hPa | 2.7V | 00:00:00 | 00:00:00 | 00:00:00 | |
| DM3KS-11 | 2026-08-30 11:33:15 | 49.81431 | 8.22164 | 90° | 68km/h | 15337m | 3.3m/s | -55.6°C | 2.6% | 121.2hPa | 2.7V | 00:00:00 | 00:00:00 | 00:00:00 | |
| DL1ZP-14 | 2026-08-30 11:33:14 | 49.81432 | 8.22109 | 91° | 71km/h | 15332m | 3.7m/s | -55.7°C | 2.7% | 121.4hPa | 2.7V | 00:00:00 | 00:00:00 | 00:00:00 | |
| DB0DAN | 2026-08-30 11:33:10 | 49.81431 | 8.22022 | 86° | 68km/h | 15324m | 3.6m/s | 0°C | 0% | 0hPa | 2.8V | 00:00:00 | 00:00:00 | 00:00:00 | |
| DO2JMG | 2026-08-30 11:33:08 | 49.81429 | 8.21969 | 87° | 68km/h | 15317m | 3.3m/s | -56.6°C | 3.1% | 121.7hPa | 2.7V | 04:16:33 | 01:02:53 | 00:00:00 | |
| DL1XH-west | 2026-08-30 11:33:07 | 49.81428 | 8.21942 | 85° | 68km/h | 15314m | 3m/s | 0°C | 0% | 121.8hPa | 2.7V | 18:12:15 | 01:02:52 | 00:00:00 | |
| BIOWL1-15 | 2026-08-30 11:32:57 | 49.81402 | 8.21538 | 59° | 86km/h | 15267m | 7.1m/s | -56.9°C | 3% | 122.7hPa | 2.8V | 04:14:51 | 01:02:39 | 00:00:00 | |
| DL1XH-west | 2026-08-30 11:32:56 | 49.81421 | 8.21600 | 73° | 91km/h | 15280m | 5.5m/s | 0°C | 0% | 0hPa | 2.7V | 18:12:15 | 01:02:41 | 00:00:00 | |
| DB0DAN | 2026-08-30 11:32:55 | 49.81413 | 8.21568 | 65° | 82km/h | 15274m | 7.2m/s | 0°C | 0% | 0hPa | 2.8V | 00:00:00 | 00:00:00 | 00:00:00 | |
| DO2JMG | 2026-08-30 11:32:53 | 49.81391 | 8.21510 | 58° | 86km/h | 15260m | 6.9m/s | -56.9°C | 3% | 122.9hPa | 2.8V | 04:16:33 | 01:02:38 | 00:00:00 | |
| BIOWL1-15 | 2026-08-30 11:32:47 | 49.81360 | 8.21287 | 80° | 73km/h | 15204m | 8.8m/s | -56.6°C | 3% | 123.9hPa | 2.8V | 04:14:51 | 01:02:30 | 00:00:00 | |
| DL1XH-west | 2026-08-30 11:32:46 | 49.81362 | 8.21315 | 88° | 73km/h | 15213m | 8.2m/s | 0°C | 0% | 0hPa | 2.7V | 18:12:15 | 01:02:31 | 00:00:00 | |
| BIOWL1-15 | 2026-08-30 11:32:34 | 49.81266 | 8.21018 | 83° | 60km/h | 15118m | 9.1m/s | -56°C | 2.7% | 125.5hPa | 2.8V | 04:14:51 | 01:02:19 | 00:00:00 | |
| BIOWL1-15 | 2026-08-30 11:32:23 | 49.81183 | 8.20760 | 57° | 71km/h | 15046m | 5.7m/s | -55.6°C | 2.6% | 127hPa | 2.8V | 04:14:51 | 01:02:08 | 00:00:00 | |
| BIOWL1-15 | 2026-08-30 11:32:12 | 49.81069 | 8.20524 | 56° | 73km/h | 14996m | 4.4m/s | -55.4°C | 2.2% | 128hPa | 2.7V | 04:15:42 | 01:01:57 | 00:00:00 | |
| BIOWL1-15 | 2026-08-30 11:32:03 | 49.80960 | 8.20305 | 51° | 64km/h | 14957m | 4.4m/s | -55.2°C | 2.3% | 128.8hPa | 2.7V | 04:15:42 | 01:01:47 | 00:00:00 | |
| BIOWL1-15 | 2026-08-30 11:31:51 | 49.80844 | 8.20052 | 45° | 57km/h | 14907m | 3.8m/s | -55.4°C | 2.3% | 129.8hPa | 2.7V | 04:15:42 | 01:01:35 | 00:00:00 | |
| DM0DOS-11 | 2026-08-30 11:31:51 | 49.80854 | 8.20068 | 46° | 60km/h | 14911m | 4.6m/s | -55.5°C | 5.5% | 129.7hPa | 2.7V | 04:15:18 | 01:01:36 | 00:00:00 | |
| DJ2DS-15 | 2026-08-30 11:31:46 | 49.80803 | 8.19985 | 50° | 62km/h | 14892m | 3.8m/s | -55.3°C | 2.3% | 130.2hPa | 2.7V | 00:00:00 | 00:00:00 | 00:00:00 | |
| BIOWL1-15 | 2026-08-30 11:31:41 | 49.80759 | 8.19883 | 58° | 66km/h | 14871m | 3.7m/s | -55.2°C | 2.2% | 130.6hPa | 2.7V | 04:15:42 | 01:01:26 | 00:00:00 | |
| BIOWL1-15 | 2026-08-30 11:31:31 | 49.80673 | 8.19688 | 59° | 60km/h | 14835m | 4.5m/s | -55.3°C | 2.4% | 131.3hPa | 2.7V | 04:15:42 | 01:01:16 | 00:00:00 | |
| DO2JMG | 2026-08-30 11:31:28 | 49.80652 | 8.19629 | 61° | 57km/h | 14824m | 3.8m/s | -55.3°C | 2.3% | 131.6hPa | 2.8V | 04:16:33 | 01:01:13 | 00:00:00 | |
| CB1BUN | 2026-08-30 11:31:27 | 49.80652 | 8.19629 | 62° | 57km/h | 14825m | 3.8m/s | -55.3°C | 2.4% | 131.6hPa | 2.7V | 00:00:00 | 00:00:00 | 00:00:00 | |
| DD1CC8 | 2026-08-30 11:31:26 | 49.80637 | 8.19592 | 54° | 57km/h | 14817m | 3.2m/s | -55.3°C | 2.4% | 131.7hPa | 2.7V | 00:00:00 | 00:00:00 | 00:00:00 | |
| DM0DOS-11 | 2026-08-30 11:31:24 | 49.80611 | 8.19542 | 47° | 53km/h | 14805m | 4m/s | -55.4°C | 5.4% | 132hPa | 2.7V | 04:15:46 | 01:01:08 | 00:00:00 | |
| BIOWL1-15 | 2026-08-30 11:31:20 | 49.80583 | 8.19494 | 50° | 58km/h | 14793m | 4.2m/s | -55.5°C | 2.1% | 132.2hPa | 2.7V | 04:16:33 | 01:01:05 | 00:00:00 | |
| DO2JMG | 2026-08-30 11:31:16 | 49.80547 | 8.19419 | 55° | 60km/h | 14776m | 3.6m/s | -55.4°C | 2.1% | 132.6hPa | 2.7V | 04:16:33 | 01:01:01 | 00:00:00 | |
| BIOWL1-15 | 2026-08-30 11:31:10 | 49.80495 | 8.19305 | 57° | 55km/h | 14752m | 3.9m/s | -55.1°C | 2% | 133hPa | 2.7V | 04:16:33 | 01:00:55 | 00:00:00 | |
| DL1ZP-14 | 2026-08-30 11:31:09 | 49.80487 | 8.19286 | 59° | 57km/h | 14747m | 4.7m/s | -55.1°C | 2.3% | 133.1hPa | 2.8V | 00:00:00 | 00:00:00 | 00:00:00 | |
| BIOWL9-15 | 2026-08-30 11:31:06 | 49.80467 | 8.19225 | 66° | 58km/h | 14733m | 2.2m/s | -55.0°C | 2.3% | 133.4hPa | 2.7V | 00:00:00 | 00:00:00 | 00:00:00 | |
| DM0DOS-11 | 2026-08-30 11:31:05 | 49.80440 | 8.19106 | 68° | 49km/h | 14707m | 1.2m/s | -54.7°C | 5.2% | 133.9hPa | 2.7V | 04:16:09 | 01:00:45 | 00:00:00 | |
| DO2JMG | 2026-08-30 11:31:04 | 49.80456 | 8.19183 | 70° | 57km/h | 14725m | 4.5m/s | -54.9°C | 2% | 133.6hPa | 2.7V | 04:16:33 | 01:00:49 | 00:00:00 | |
| BIOWL1-15 | 2026-08-30 11:31:00 | 49.80394 | 8.19000 | 61° | 62km/h | 14678m | 5.4m/s | -54.7°C | 1.9% | 134.6hPa | 2.7V | 04:16:33 | 01:00:39 | 00:00:00 | |
| AU51GT2 | 2026-08-30 11:30:59 | 49.80435 | 8.19089 | 63° | 47km/h | 14704m | 5.5m/s | -54.8°C | 2.1% | 134.0hPa | 2.8V | 00:00:00 | 00:00:00 | 00:00:00 | |
| DF3TZ-5 | 2026-08-30 11:30:58 | 49.80429 | 8.19073 | 56° | 47km/h | 14698m | 6.5m/s | -54.8°C | 2.1% | 134.1hPa | 2.8V | 00:00:00 | 00:00:00 | 00:00:00 | |
| DB0UT-9 | 2026-08-30 11:30:57 | 49.80429 | 8.19073 | 58° | 49km/h | 14698m | 6.5m/s | -54.8°C | 2.1% | 134.1hPa | 2.8V | 04:16:00 | 00:00:00 | 00:00:00 | |
| DB0DAN | 2026-08-30 11:30:55 | 49.80402 | 8.19020 | 55° | 60km/h | 14683m | 4m/s | -54.7°C | 2.1% | 134.41hPa | 2.8V | 00:00:00 | 00:00:00 | 00:00:00 | |
| DO2JMG | 2026-08-30 11:30:53 | 49.80387 | 8.18978 | 69° | 60km/h | 14673m | 5m/s | -54.7°C | 1.9% | 134.7hPa | 2.7V | 04:16:33 | 01:00:38 | 00:00:00 | |
| DJ2KF-10 | 2026-08-30 11:30:53 | 49.80387 | 8.18978 | 70° | 60km/h | 14673m | 4.9m/s | -54.7°C | 5.2% | 134.6hPa | 2.7V | 04:16:00 | 01:00:38 | 00:00:00 | |
| HEMX73-11 | 2026-08-30 11:30:52 | 49.80383 | 8.18957 | 76° | 57km/h | 14668m | 6.2m/s | -54.7°C | 2.2% | 134.8hPa | 2.8V | 04:16:00 | 00:00:00 | 00:00:00 | |
| DM0DOS-11 | 2026-08-30 11:30:46 | 49.80344 | 8.18782 | 62° | 77km/h | 14625m | 5.3m/s | -54.3°C | 4.9% | 135.6hPa | 2.8V | 04:16:25 | 01:00:29 | 00:00:00 | |
| DO2JMG | 2026-08-30 11:30:42 | 49.80325 | 8.18732 | 56° | 69km/h | 14615m | 4.6m/s | -54.5°C | 1.8% | 135.9hPa | 2.7V | 04:16:33 | 01:00:27 | 00:00:00 | |
| DM3KS-11 | 2026-08-30 11:30:40 | 49.80308 | 8.18691 | 59° | 55km/h | 14607m | 4.7m/s | -54.6°C | 2.0% | 136.1hPa | 2.8V | 00:00:00 | 00:00:00 | 00:00:00 | |
| DL1ZP-14 | 2026-08-30 11:30:38 | 49.80297 | 8.18655 | 69° | 47km/h | 14594m | 7.2m/s | -54.7°C | 2.0% | 136.3hPa | 2.8V | 00:00:00 | 00:00:00 | 00:00:00 | |
| DM0DOS-11 | 2026-08-30 11:30:37 | 49.80283 | 8.18558 | 77° | 57km/h | 14562m | 6m/s | -54.9°C | 5% | 137hPa | 2.7V | 04:16:36 | 01:00:18 | 00:00:00 | |
| BIOWL1-15 | 2026-08-30 11:30:32 | 49.80280 | 8.18536 | 77° | 60km/h | 14557m | 3.8m/s | -54.8°C | 1.7% | 137.1hPa | 2.7V | 04:17:24 | 01:00:17 | 00:00:00 | |
| DO2JMG | 2026-08-30 11:30:31 | 49.80277 | 8.18513 | 79° | 62km/h | 14552m | 5.9m/s | -54.9°C | 1.8% | 137.2hPa | 2.8V | 04:17:24 | 01:00:16 | 00:00:00 | |
| HEMX73-11 | 2026-08-30 11:30:31 | 49.80276 | 8.18512 | 80° | 62km/h | 14552m | 5.9m/s | -54.9°C | 2.0% | 137.2hPa | 2.8V | 04:17:00 | 00:00:00 | 00:00:00 | |
| AU51GT2 | 2026-08-30 11:30:28 | 49.80269 | 8.18440 | 80° | 62km/h | 14536m | 5.0m/s | -54.8°C | 2.1% | 137.6hPa | 2.8V | 00:00:00 | 00:00:00 | 00:00:00 | |
| DF3TZ-5 | 2026-08-30 11:30:27 | 49.80266 | 8.18416 | 78° | 60km/h | 14532m | 4.0m/s | -54.8°C | 2.1% | 137.7hPa | 2.8V | 00:00:00 | 00:00:00 | 00:00:00 | |
| DM0DOS-11 | 2026-08-30 11:30:25 | 49.80255 | 8.18323 | 78° | 60km/h | 14515m | 4.5m/s | -55°C | 5.2% | 138hPa | 2.8V | 04:16:46 | 01:00:08 | 00:00:00 | |
| DB0DAN | 2026-08-30 11:30:25 | 49.80260 | 8.18369 | 80° | 58km/h | 14523m | 5m/s | -55°C | 2.1% | 137.85hPa | 2.7V | 00:00:00 | 00:00:00 | 00:00:00 | |
| BIOWL1-15 | 2026-08-30 11:30:22 | 49.80252 | 8.18299 | 77° | 62km/h | 14511m | 4.1m/s | -54.9°C | 1.9% | 138.1hPa | 2.8V | 04:17:24 | 01:00:07 | 00:00:00 | |
| DO2JMG | 2026-08-30 11:30:20 | 49.80245 | 8.18252 | 78° | 64km/h | 14503m | 4.3m/s | -55°C | 1.9% | 138.3hPa | 2.7V | 04:17:24 | 01:00:05 | 00:00:00 | |
| DM0DOS-11 | 2026-08-30 11:30:17 | 49.80219 | 8.18071 | 79° | 58km/h | 14472m | 3.6m/s | -55°C | 5.1% | 139hPa | 2.8V | 04:16:57 | 00:59:57 | 00:00:00 | |
| BIOWL1-15 | 2026-08-30 11:30:14 | 49.80197 | 8.17932 | 77° | 62km/h | 14446m | 4.3m/s | -55.1°C | 1.9% | 139.6hPa | 2.8V | 04:17:24 | 00:59:51 | 00:00:00 | |
| DH7VM-15 | 2026-08-30 11:30:12 | 49.80222 | 8.18093 | 79° | 57km/h | 14476m | 4.5m/s | -55.0°C | 2.2% | 138.9hPa | 2.8V | 00:00:00 | 00:00:00 | 00:00:00 | |
| DB0DAN | 2026-08-30 11:30:10 | 49.80213 | 8.18025 | 75° | 58km/h | 14463m | 4.4m/s | -55.1°C | 2.1% | 139.17hPa | 2.8V | 00:00:00 | 00:00:00 | 00:00:00 | |
| DO2JMG | 2026-08-30 11:30:10 | 49.80213 | 8.18025 | 75° | 62km/h | 14463m | 4.4m/s | -55.1°C | 1.9% | 139.2hPa | 2.8V | 04:17:24 | 00:59:55 | 00:00:00 | |
| DM3KS-11 | 2026-08-30 11:30:09 | 49.80209 | 8.18002 | 73° | 62km/h | 14459m | 3.3m/s | -55.0°C | 2.1% | 139.2hPa | 2.7V | 00:00:00 | 00:00:00 | 00:00:00 | |
| DL1ZP-14 | 2026-08-30 11:30:07 | 49.80200 | 8.17955 | 75° | 60km/h | 14451m | 5.0m/s | -55.0°C | 2.1% | 139.4hPa | 2.7V | 00:00:00 | 00:00:00 | 00:00:00 | |
| DM0DOS-11 | 2026-08-30 11:30:05 | 49.80181 | 8.17833 | 76° | 68km/h | 14430m | 4m/s | -55°C | 5.2% | 139.9hPa | 2.7V | 04:17:07 | 00:59:47 | 00:00:00 | |
| DO2JMG | 2026-08-30 11:29:59 | 49.80170 | 8.17758 | 77° | 68km/h | 14417m | 4.1m/s | -55°C | 2% | 140.2hPa | 2.8V | 04:17:24 | 00:59:44 | 00:00:00 | |
| DJ2DS-15 | 2026-08-30 11:29:58 | 49.80162 | 8.17706 | 76° | 68km/h | 14409m | 3.6m/s | -54.9°C | 2.2% | 140.3hPa | 2.8V | 00:00:00 | 00:00:00 | 00:00:00 | |
| AU51GT2 | 2026-08-30 11:29:57 | 49.80162 | 8.17706 | 76° | 68km/h | 14409m | 3.6m/s | -54.9°C | 2.2% | 140.3hPa | 2.8V | 00:00:00 | 00:00:00 | 00:00:00 | |
| DB0UT-9 | 2026-08-30 11:29:56 | 49.80158 | 8.17681 | 77° | 66km/h | 14405m | 5.2m/s | -54.9°C | 2.3% | 140.4hPa | 2.8V | 04:17:00 | 00:00:00 | 00:00:00 | |
| DM0DOS-11 | 2026-08-30 11:29:55 | 49.80141 | 8.17578 | 73° | 71km/h | 14387m | 4.1m/s | -55°C | 5.3% | 140.8hPa | 2.8V | 04:17:17 | 00:59:37 | 00:00:00 | |
| DB0DAN | 2026-08-30 11:29:55 | 49.80154 | 8.17656 | 76° | 62km/h | 14400m | 3.9m/s | -54.9°C | 2.2% | 140.55hPa | 2.7V | 00:00:00 | 00:00:00 | 00:00:00 | |
| DO2JMG | 2026-08-30 11:29:49 | 49.80126 | 8.17499 | 74° | 69km/h | 14375m | 3.9m/s | -55.1°C | 2% | 141.1hPa | 2.7V | 04:17:24 | 00:59:34 | 00:00:00 | |
| BIOWL1-15 | 2026-08-30 11:29:48 | 49.80121 | 8.17473 | 74° | 69km/h | 14371m | 4.3m/s | -55.1°C | 1.9% | 141.2hPa | 2.8V | 04:17:24 | 00:59:33 | 00:00:00 | |
| DB0DAN | 2026-08-30 11:29:40 | 49.80087 | 8.17254 | 79° | 73km/h | 14338m | 3.7m/s | -54.9°C | 2.2% | 141.91hPa | 2.8V | 00:00:00 | 00:00:00 | 00:00:00 | |
| DO2JMG | 2026-08-30 11:29:38 | 49.80080 | 8.17197 | 78° | 75km/h | 14329m | 3.8m/s | -55°C | 2% | 142.1hPa | 2.7V | 04:18:15 | 00:59:23 | 00:00:00 | |
| BIOWL1-15 | 2026-08-30 11:29:37 | 49.80066 | 8.17111 | 74° | 77km/h | 14316m | 4.2m/s | -55°C | 2% | 142.4hPa | 2.8V | 04:18:15 | 00:59:20 | 00:00:00 | |
| DL1ZP-14 | 2026-08-30 11:29:36 | 49.80071 | 8.17140 | 75° | 75km/h | 14321m | 5.4m/s | -54.9°C | 2.2% | 142.3hPa | 2.8V | 00:00:00 | 00:00:00 | 00:00:00 | |
| DM0DOS-11 | 2026-08-30 11:29:35 | 49.80051 | 8.17024 | 76° | 77km/h | 14304m | 5.3m/s | -54.9°C | 5.3% | 142.7hPa | 2.7V | 04:17:37 | 00:59:17 | 00:00:00 | |
| BIOWL1-15 | 2026-08-30 11:29:28 | 49.80012 | 8.16740 | 76° | 86km/h | 14266m | 4.7m/s | -54.9°C | 2% | 143.5hPa | 2.8V | 04:18:15 | 00:59:08 | 00:00:00 | |
| DO2JMG | 2026-08-30 11:29:27 | 49.80031 | 8.16871 | 78° | 86km/h | 14283m | 3.9m/s | -54.9°C | 2% | 143.2hPa | 2.7V | 04:18:15 | 00:59:12 | 00:00:00 | |
| DB0DAN | 2026-08-30 11:29:25 | 49.80022 | 8.16806 | 78° | 82km/h | 14273m | 4.1m/s | -54.9°C | 2.2% | 143.37hPa | 2.7V | 00:00:00 | 00:00:00 | 00:00:00 | |
| DJ2KF-10 | 2026-08-30 11:29:23 | 49.80012 | 8.16740 | 76° | 80km/h | 14266m | 4.6m/s | -54.8°C | 5.2% | 143.5hPa | 2.7V | 00:00:00 | 00:59:08 | 00:00:00 | |
| DL9SK-14 | 2026-08-30 11:29:22 | 49.80001 | 8.16676 | 75° | 82km/h | 14259m | 3.3m/s | -54.8°C | 2.2% | 143.8hPa | 2.7V | 00:00:00 | 00:00:00 | 00:00:00 | |
| CB1BUN | 2026-08-30 11:29:21 | 49.80001 | 8.16676 | 76° | 84km/h | 14259m | 3.3m/s | -54.8°C | 2.2% | 143.8hPa | 2.7V | 00:00:00 | 00:00:00 | 00:00:00 | |
| DL9PN | 2026-08-30 11:29:20 | 49.79996 | 8.16645 | 76° | 80km/h | 14254m | 4.7m/s | -54.7°C | 2.2% | 143.8hPa | 2.7V | 00:00:00 | 00:00:00 | 00:00:00 | |
| DM0DOS-11 | 2026-08-30 11:29:19 | 49.79968 | 8.16459 | 75° | 80km/h | 14231m | 4.8m/s | -54.6°C | 5.3% | 144.3hPa | 2.7V | 04:17:55 | 00:58:59 | 00:00:00 | |
| DO2JMG | 2026-08-30 11:29:16 | 49.79978 | 8.16521 | 77° | 82km/h | 14239m | 3.7m/s | -54.6°C | 2.1% | 144.2hPa | 2.8V | 04:18:15 | 00:59:01 | 00:00:00 | |
| BIOWL1-15 | 2026-08-30 11:29:14 | 49.79968 | 8.16459 | 76° | 80km/h | 14231m | 4.8m/s | -54.6°C | 2.1% | 144.3hPa | 2.7V | 04:18:15 | 00:58:59 | 00:00:00 | |
| DB0DAN | 2026-08-30 11:29:10 | 49.79948 | 8.16336 | 76° | 80km/h | 14215m | 3.7m/s | -54.6°C | 2.3% | 144.69hPa | 2.8V | 00:00:00 | 00:00:00 | 00:00:00 | |
| HEMX73-11 | 2026-08-30 11:29:08 | 49.79942 | 8.16304 | 76° | 84km/h | 14212m | 3.4m/s | -54.7°C | 2.3% | 144.8hPa | 2.8V | 04:18:00 | 00:00:00 | 00:00:00 | |
| DM0DOS-11 | 2026-08-30 11:29:06 | 49.79917 | 8.16154 | 76° | 78km/h | 14191m | 4.7m/s | -54.6°C | 5.4% | 145.2hPa | 2.8V | 04:18:05 | 00:58:49 | 00:00:00 | |
| DO2JMG | 2026-08-30 11:29:05 | 49.79921 | 8.16184 | 76° | 77km/h | 14195m | 3.9m/s | -54.6°C | 2.1% | 145.2hPa | 2.8V | 04:18:15 | 00:58:50 | 00:00:00 | |
| BIOWL1-15 | 2026-08-30 11:29:03 | 49.79912 | 8.16124 | 78° | 80km/h | 14187m | 3.3m/s | -54.6°C | 2.1% | 145.3hPa | 2.7V | 04:18:15 | 00:58:48 | 00:00:00 | |
| BIOWL9-15 | 2026-08-30 11:29:02 | 49.79908 | 8.16094 | 77° | 78km/h | 14184m | 3.3m/s | -54.6°C | 2.3% | 145.4hPa | 2.8V | 00:00:00 | 00:00:00 | 00:00:00 | |
| DF7PN | 2026-08-30 11:28:59 | 49.79894 | 8.16004 | 75° | 78km/h | 14171m | 3.7m/s | -54.7°C | 2.2% | 145.7hPa | 2.8V | 00:00:00 | 00:00:00 | 00:00:00 | |
| DC4HF-4 | 2026-08-30 11:28:57 | 49.79884 | 8.15943 | 75° | 80km/h | 14163m | 3.9m/s | 0°C | -1.0% | 145.9hPa | 2.8V | 00:00:00 | 00:00:00 | 00:00:00 | |
| DM0DOS-11 | 2026-08-30 11:28:56 | 49.79869 | 8.15851 | 77° | 78km/h | 14150m | 3.1m/s | -54.5°C | 5.3% | 146.2hPa | 2.8V | 04:18:15 | 00:58:39 | 00:00:00 | |
| DO2JMG | 2026-08-30 11:28:55 | 49.79874 | 8.15881 | 77° | 80km/h | 14154m | 4.3m/s | -54.5°C | 2.1% | 146.1hPa | 2.7V | 04:18:15 | 00:58:40 | 00:00:00 | |
| DB0DAN | 2026-08-30 11:28:55 | 49.79874 | 8.15881 | 77° | 75km/h | 14154m | 4.3m/s | -54.5°C | 2.3% | 146.11hPa | 2.7V | 00:00:00 | 00:00:00 | 00:00:00 | |
| BIOWL1-15 | 2026-08-30 11:28:53 | 49.79862 | 8.15789 | 80° | 82km/h | 14142m | 4.4m/s | -54.5°C | 2.2% | 146.4hPa | 2.8V | 04:19:06 | 00:58:37 | 00:00:00 | |
| DL9SK-14 | 2026-08-30 11:28:51 | 49.79855 | 8.15726 | 81° | 80km/h | 14134m | 4.5m/s | -54.5°C | 2.4% | 146.6hPa | 2.7V | 00:00:00 | 00:00:00 | 00:00:00 | |
| DL8DAS-14 | 2026-08-30 11:28:50 | 49.79852 | 8.15695 | 80° | 78km/h | 14130m | 4.2m/s | -54.5°C | 2.4% | 146.7hPa | 2.7V | 00:00:00 | 00:00:00 | 00:00:00 | |
| HEMX73-11 | 2026-08-30 11:28:48 | 49.79848 | 8.15664 | 81° | 80km/h | 14126m | 3.7m/s | -54.4°C | 2.4% | 146.7hPa | 2.7V | 04:19:00 | 00:00:00 | 00:00:00 | |
| DM0DOS-11 | 2026-08-30 11:28:46 | 49.79829 | 8.15535 | 73° | 88km/h | 14110m | 4m/s | -54.5°C | 5.4% | 147.1hPa | 2.7V | 04:18:25 | 00:58:29 | 00:00:00 | |
| DO2JMG | 2026-08-30 11:28:45 | 49.79835 | 8.15568 | 76° | 88km/h | 14113m | 3.5m/s | -54.5°C | 2.3% | 147hPa | 2.7V | 04:19:06 | 00:58:30 | 00:00:00 | |
| BIOWL1-15 | 2026-08-30 11:28:42 | 49.79817 | 8.15470 | 74° | 86km/h | 14102m | 3.8m/s | -54.5°C | 2.3% | 147.3hPa | 2.8V | 04:19:06 | 00:58:27 | 00:00:00 | |
| DL8DAS-15 | 2026-08-30 11:28:41 | 49.79817 | 8.15469 | 74° | 86km/h | 14102m | 3.8m/s | -54.5°C | 0% | 147.3hPa | 2.7V | 00:00:00 | 00:00:00 | 00:00:00 | |
| DB0ND-19 | 2026-08-30 11:28:38 | 49.79789 | 8.15305 | 76° | 84km/h | 14081m | 4.4m/s | -54.5°C | 2.5% | 147.8hPa | 2.7V | 00:00:00 | 00:00:00 | 00:00:00 | |
| DM0DOS-11 | 2026-08-30 11:28:36 | 49.79768 | 8.15179 | 74° | 86km/h | 14064m | 4.3m/s | -54.6°C | 5.6% | 148.2hPa | 2.7V | 04:18:36 | 00:58:18 | 00:00:00 | |
| DO2JMG | 2026-08-30 11:28:34 | 49.79773 | 8.15211 | 75° | 84km/h | 14068m | 5m/s | -54.6°C | 2.5% | 148.1hPa | 2.8V | 04:19:06 | 00:58:19 | 00:00:00 | |
| BIOWL1-15 | 2026-08-30 11:28:32 | 49.79751 | 8.15083 | 75° | 84km/h | 14051m | 5m/s | -54.6°C | 2.5% | 148.5hPa | 2.8V | 04:19:06 | 00:58:15 | 00:00:00 | |
| DO2JMG | 2026-08-30 11:28:20 | 49.79706 | 8.14784 | 80° | 82km/h | 14008m | 4.5m/s | -54.3°C | 2.6% | 149.5hPa | 2.7V | 04:19:06 | 00:58:05 | 00:00:00 | |
| BIOWL1-15 | 2026-08-30 11:28:20 | 49.79702 | 8.14752 | 81° | 86km/h | 14003m | 5.1m/s | -54.4°C | 2.6% | 149.6hPa | 2.7V | 04:19:06 | 00:58:04 | 00:00:00 | |
| DO2JMG | 2026-08-30 11:28:09 | 49.79665 | 8.14409 | 77° | 93km/h | 13956m | 5.4m/s | -54.5°C | 2.7% | 150.7hPa | 2.7V | 04:19:06 | 00:57:54 | 00:00:00 | |
| BIOWL1-15 | 2026-08-30 11:28:08 | 49.79616 | 8.14083 | 77° | 99km/h | 13914m | 4m/s | -54.6°C | 2.9% | 151.7hPa | 2.8V | 04:19:57 | 00:57:45 | 00:00:00 | |
| DO2JMG | 2026-08-30 11:27:59 | 49.79610 | 8.14045 | 77° | 100km/h | 13910m | 5.3m/s | -54.6°C | 2.9% | 151.8hPa | 2.8V | 04:23:21 | 00:57:44 | 00:00:00 | |
| DF7PN | 2026-08-30 11:27:57 | 49.79598 | 8.13969 | 76° | 100km/h | 13901m | 5.1m/s | -54.5°C | 2.8% | 152.0hPa | 2.7V | 00:00:00 | 00:00:00 | 00:00:00 | |
| DB0DAN | 2026-08-30 11:27:55 | 49.79587 | 8.13894 | 77° | 95km/h | 13892m | 3.1m/s | -54.5°C | 2.8% | 152.2hPa | 2.7V | 00:00:00 | 00:00:00 | 00:00:00 | |
| BIOWL1-15 | 2026-08-30 11:27:51 | 49.79564 | 8.13742 | 76° | 97km/h | 13874m | 4.6m/s | -54.4°C | 2.9% | 152.6hPa | 2.7V | 04:19:57 | 00:57:36 | 00:00:00 | |
| DO2JMG | 2026-08-30 11:27:48 | 49.79545 | 8.13636 | 74° | 93km/h | 13861m | 4.8m/s | -54.3°C | 3% | 152.9hPa | 2.8V | 04:23:21 | 00:57:33 | 00:00:00 | |
| DL8DAS-14 | 2026-08-30 11:27:48 | 49.79538 | 8.13601 | 72° | 91km/h | 13857m | 4.1m/s | -54.3°C | 2.8% | 153.0hPa | 2.8V | 00:00:00 | 00:00:00 | 00:00:00 | |
| DL9PN | 2026-08-30 11:27:47 | 49.79538 | 8.13601 | 72° | 91km/h | 13857m | 4.1m/s | -54.3°C | 2.8% | 153.0hPa | 2.8V | 00:00:00 | 00:00:00 | 00:00:00 | |
| CB1BUN | 2026-08-30 11:27:46 | 49.79532 | 8.13567 | 74° | 91km/h | 13853m | 4.4m/s | -54.3°C | 2.8% | 153.1hPa | 2.8V | 04:19:00 | 00:00:00 | 00:00:00 | |
| DB0DAN | 2026-08-30 11:27:40 | 49.79493 | 8.13364 | 74° | 89km/h | 13827m | 4.3m/s | -54.2°C | 2.6% | 153.78hPa | 2.8V | 00:00:00 | 00:00:00 | 00:00:00 | |
| DO2JMG | 2026-08-30 11:27:38 | 49.79481 | 8.13293 | 76° | 91km/h | 13817m | 3.9m/s | -54.1°C | 2.9% | 154hPa | 2.7V | 04:23:21 | 00:57:23 | 00:00:00 | |
| DO2JMG | 2026-08-30 11:27:27 | 49.79417 | 8.12929 | 75° | 86km/h | 13770m | 5.7m/s | -54.1°C | 3% | 155.1hPa | 2.7V | 04:23:21 | 00:57:12 | 00:00:00 | |
| DB0DAN | 2026-08-30 11:27:25 | 49.79406 | 8.12865 | 76° | 78km/h | 13761m | 3.2m/s | -54.3°C | 2.7% | 155.33hPa | 2.7V | 00:00:00 | 00:00:00 | 00:00:00 | |
| BIOWL1-15 | 2026-08-30 11:27:17 | 49.79365 | 8.12614 | 76° | 82km/h | 13725m | 4.3m/s | -54.3°C | 2.9% | 156.2hPa | 2.8V | 04:19:57 | 00:57:02 | 00:00:00 | |
| DO2JMG | 2026-08-30 11:27:16 | 49.79360 | 8.12583 | 77° | 80km/h | 13721m | 4.8m/s | -54.3°C | 2.9% | 156.3hPa | 2.8V | 04:23:21 | 00:57:01 | 00:00:00 | |
| BIOWL1-15 | 2026-08-30 11:27:06 | 49.79319 | 8.12290 | 77° | 75km/h | 13676m | 3.9m/s | -54.9°C | 3% | 157.4hPa | 2.8V | 04:20:48 | 00:56:51 | 00:00:00 | |
| DO2JMG | 2026-08-30 11:27:03 | 49.79308 | 8.12204 | 81° | 75km/h | 13662m | 3.4m/s | -55.1°C | 3.1% | 157.8hPa | 2.8V | 04:23:21 | 00:56:48 | 00:00:00 | |
| BIOWL1-15 | 2026-08-30 11:26:55 | 49.79282 | 8.11963 | 80° | 80km/h | 13627m | 4.4m/s | -54.9°C | 3.1% | 158.6hPa | 2.8V | 04:20:48 | 00:56:40 | 00:00:00 | |
| DO2JMG | 2026-08-30 11:26:51 | 49.79272 | 8.11844 | 84° | 75km/h | 13610m | 4.7m/s | -54.9°C | 3.1% | 159.1hPa | 2.8V | 04:23:21 | 00:56:36 | 00:00:00 | |
| DF3TZ-5 | 2026-08-30 11:26:50 | 49.79269 | 8.11783 | 86° | 80km/h | 13601m | 4.0m/s | -54.8°C | 3.0% | 159.3hPa | 2.7V | 00:00:00 | 00:00:00 | 00:00:00 | |
| DD1CC8 | 2026-08-30 11:26:47 | 49.79267 | 8.11683 | 89° | 89km/h | 13587m | 4.2m/s | -54.8°C | 2.9% | 159.7hPa | 2.7V | 00:00:00 | 00:00:00 | 00:00:00 | |
| DL8DAS-14 | 2026-08-30 11:26:46 | 49.79267 | 8.11647 | 88° | 91km/h | 13582m | 5.8m/s | -54.9°C | 3.0% | 159.8hPa | 2.7V | 00:00:00 | 00:00:00 | 00:00:00 | |
| DL9PN | 2026-08-30 11:26:45 | 49.79267 | 8.11647 | 88° | 91km/h | 13582m | 5.8m/s | -54.9°C | 3.0% | 159.8hPa | 2.7V | 00:00:00 | 00:00:00 | 00:00:00 | |
| BIOWL1-15 | 2026-08-30 11:26:44 | 49.79260 | 8.11510 | 85° | 82km/h | 13562m | 5.3m/s | -55°C | 3.1% | 160.2hPa | 2.7V | 04:20:48 | 00:56:26 | 00:00:00 | |
| DO2JMG | 2026-08-30 11:26:40 | 49.79258 | 8.11479 | 87° | 80km/h | 13558m | 3.7m/s | -55°C | 3.1% | 160.4hPa | 2.7V | 04:23:21 | 00:56:25 | 00:00:00 | |
| BIOWL1-15 | 2026-08-30 11:26:31 | 49.79256 | 8.11181 | 87° | 91km/h | 13517m | 4.6m/s | -54.7°C | 3.3% | 161.4hPa | 2.8V | 04:20:48 | 00:56:16 | 00:00:00 | |
| DO2JMG | 2026-08-30 11:26:30 | 49.79255 | 8.11145 | 87° | 91km/h | 13513m | 4m/s | -54.7°C | 3.3% | 161.5hPa | 2.7V | 04:23:21 | 00:56:15 | 00:00:00 | |
| BIOWL1-15 | 2026-08-30 11:26:20 | 49.79239 | 8.10790 | 85° | 93km/h | 13468m | 4.9m/s | -54.4°C | 3.4% | 162.7hPa | 2.7V | 04:21:39 | 00:56:05 | 00:00:00 | |
| BIOWL1-15 | 2026-08-30 11:26:12 | 49.79214 | 8.10432 | 87° | 89km/h | 13423m | 4.1m/s | -54.3°C | 3.4% | 163.8hPa | 2.7V | 04:21:39 | 00:55:55 | 00:00:00 | |
| DO2JMG | 2026-08-30 11:26:06 | 49.79205 | 8.10287 | 82° | 93km/h | 13406m | 5.3m/s | -54.3°C | 3.6% | 164.2hPa | 2.8V | 04:23:21 | 00:55:51 | 00:00:00 | |
| BIOWL1-15 | 2026-08-30 11:25:59 | 49.79181 | 8.10035 | 81° | 93km/h | 13375m | 4.6m/s | -54.3°C | 3.8% | 165hPa | 2.7V | 04:21:39 | 00:55:44 | 00:00:00 | |
| DO2JMG | 2026-08-30 11:25:55 | 49.79168 | 8.09890 | 82° | 91km/h | 13357m | 4.9m/s | -54.4°C | 4% | 165.4hPa | 2.8V | 04:23:21 | 00:55:40 | 00:00:00 | |
| DB0DAN | 2026-08-30 11:25:55 | 49.79168 | 8.09890 | 82° | 88km/h | 13357m | 4.9m/s | -54.4°C | 3.4% | 165.43hPa | 2.8V | 00:00:00 | 00:00:00 | 00:00:00 | |
| DO1YAY-16 | 2026-08-30 11:25:55 | 49.79165 | 8.09855 | 81° | 89km/h | 13352m | 3.9m/s | -54.5°C | 3.4% | 165.5hPa | 2.8V | 00:00:00 | 00:00:00 | 00:00:00 | |
| DM0DOS-11 | 2026-08-30 11:25:53 | 49.79151 | 8.09713 | 80° | 97km/h | 13335m | 3.5m/s | -54.5°C | 6.8% | 166hPa | 2.8V | 04:21:19 | 00:55:35 | 00:00:00 | |
| BIOWL1-15 | 2026-08-30 11:25:50 | 49.79142 | 8.09638 | 80° | 97km/h | 13328m | 4.6m/s | -54.5°C | 4.1% | 166.2hPa | 2.7V | 04:21:39 | 00:55:33 | 00:00:00 | |
| AU51GT2 | 2026-08-30 11:25:49 | 49.79147 | 8.09675 | 80° | 97km/h | 13332m | 3.4m/s | -54.6°C | 3.6% | 166.1hPa | 2.7V | 00:00:00 | 00:00:00 | 00:00:00 | |
| DF3TZ-5 | 2026-08-30 11:25:47 | 49.79138 | 8.09601 | 79° | 95km/h | 13324m | 4.2m/s | -54.5°C | 3.6% | 166.3hPa | 2.7V | 00:00:00 | 00:00:00 | 00:00:00 | |
| DB0UT-9 | 2026-08-30 11:25:44 | 49.79129 | 8.09527 | 82° | 99km/h | 13316m | 4.7m/s | -54.4°C | 3.7% | 166.5hPa | 2.7V | 04:21:00 | 00:00:00 | 00:00:00 | |
| DL9PN | 2026-08-30 11:25:43 | 49.79120 | 8.09413 | 83° | 97km/h | 13303m | 4.6m/s | -54.4°C | 3.6% | 166.8hPa | 2.7V | 00:00:00 | 00:00:00 | 00:00:00 | |
| DM0DOS-11 | 2026-08-30 11:25:42 | 49.79108 | 8.09258 | 81° | 100km/h | 13286m | 3.8m/s | -54.4°C | 6.7% | 167.3hPa | 2.7V | 04:21:31 | 00:55:23 | 00:00:00 | |
| DB0DAN | 2026-08-30 11:25:40 | 49.79114 | 8.09336 | 83° | 95km/h | 13294m | 5.2m/s | -54.4°C | 0% | 167.05hPa | 2.7V | 00:00:00 | 00:00:00 | 00:00:00 | |
| BIOWL1-15 | 2026-08-30 11:25:38 | 49.79108 | 8.09258 | 82° | 100km/h | 13286m | 3.8m/s | -54.4°C | 4.3% | 167.3hPa | 2.7V | 04:21:39 | 00:55:23 | 00:00:00 | |
| DB0UT-7 | 2026-08-30 11:25:34 | 49.79092 | 8.09106 | 82° | 102km/h | 13270m | 4.9m/s | -54.5°C | 7.1% | 167.7hPa | 2.7V | 04:21:00 | 00:55:19 | 00:00:00 | |
| DJ2DS-15 | 2026-08-30 11:25:32 | 49.79086 | 8.09030 | 84° | 102km/h | 13262m | 3.7m/s | -54.4°C | 7.2% | 167.9hPa | 2.7V | 00:00:00 | 00:55:17 | 00:00:00 | |
| DK5PH-5 | 2026-08-30 11:25:31 | 49.79083 | 8.08991 | 84° | 102km/h | 13258m | 4.5m/s | -54.5°C | 7.2% | 168.0hPa | 2.7V | 00:00:00 | 00:55:16 | 00:00:00 | |
| DM0DOS-11 | 2026-08-30 11:25:30 | 49.79076 | 8.08872 | 85° | 106km/h | 13244m | 4.5m/s | -54.6°C | 7.3% | 168.4hPa | 2.7V | 04:21:41 | 00:55:13 | 00:00:00 | |
| BIOWL1-15 | 2026-08-30 11:25:29 | 49.79074 | 8.08831 | 86° | 106km/h | 13240m | 3.9m/s | -54.5°C | 4.8% | 168.4hPa | 2.7V | 04:22:30 | 00:55:12 | 00:00:00 | |
| DO2JMG | 2026-08-30 11:25:28 | 49.79076 | 8.08872 | 86° | 106km/h | 13244m | 4.5m/s | -54.6°C | 4.7% | 168.4hPa | 2.7V | 04:23:21 | 00:55:13 | 00:00:00 | |
| DB0DAN | 2026-08-30 11:25:25 | 49.79070 | 8.08750 | 85° | 99km/h | 13232m | 4m/s | -54.4°C | 0% | 168.73hPa | 2.8V | 00:00:00 | 00:00:00 | 00:00:00 | |
| DL8DAS-15 | 2026-08-30 11:25:24 | 49.79069 | 8.08749 | 86° | 102km/h | 13232m | 4.0m/s | -54.4°C | 0% | 168.7hPa | 2.7V | 04:22:00 | 00:00:00 | 00:00:00 | |
| DM0DOS-11 | 2026-08-30 11:25:23 | 49.79049 | 8.08470 | 83° | 100km/h | 13204m | 4.5m/s | -54.4°C | 7.1% | 169.4hPa | 2.7V | 04:21:51 | 00:55:03 | 00:00:00 | |
| BIOWL1-15 | 2026-08-30 11:25:17 | 49.79047 | 8.08431 | 83° | 100km/h | 13200m | 4m/s | -54.4°C | 4.9% | 169.5hPa | 2.7V | 04:22:30 | 00:55:02 | 00:00:00 | |
| DF3TZ-5 | 2026-08-30 11:25:16 | 49.79044 | 8.08392 | 83° | 100km/h | 13195m | 4.4m/s | -54.4°C | 3.9% | 169.7hPa | 2.8V | 00:00:00 | 00:00:00 | 00:00:00 | |
| DD1CC8 | 2026-08-30 11:25:14 | 49.79034 | 8.08272 | 81° | 100km/h | 13183m | 4.9m/s | -54.4°C | 4.0% | 170.0hPa | 2.8V | 00:00:00 | 00:00:00 | 00:00:00 | |
| DL9SK-14 | 2026-08-30 11:25:13 | 49.79034 | 8.08272 | 81° | 100km/h | 13183m | 4.9m/s | -54.4°C | 4.0% | 170.0hPa | 2.8V | 00:00:00 | 00:00:00 | 00:00:00 | |
| DB0DAN | 2026-08-30 11:25:10 | 49.79022 | 8.08155 | 81° | 97km/h | 13169m | 5.2m/s | -54.5°C | 0% | 170.35hPa | 2.8V | 00:00:00 | 00:00:00 | 00:00:00 | |
| DM0DOS-11 | 2026-08-30 11:25:09 | 49.79015 | 8.08076 | 80° | 102km/h | 13161m | 2.5m/s | -54.5°C | 7.4% | 170.6hPa | 2.8V | 04:22:01 | 00:54:53 | 00:00:00 | |
| BIOWL1-15 | 2026-08-30 11:25:09 | 49.78976 | 8.07771 | 79° | 99km/h | 13128m | 3.7m/s | -54.6°C | 5.4% | 171.5hPa | 2.8V | 04:22:30 | 00:54:45 | 00:00:00 | |
| DJ2KF-10 | 2026-08-30 11:25:08 | 49.79014 | 8.08077 | 81° | 100km/h | 13161m | 2.5m/s | -54.4°C | 7.4% | 170.5hPa | 2.7V | 04:22:00 | 00:54:53 | 00:00:00 | |
| DB0UT-7 | 2026-08-30 11:25:04 | 49.78997 | 8.07922 | 79° | 102km/h | 13145m | 4.6m/s | -54.5°C | 7.5% | 171.0hPa | 2.7V | 00:00:00 | 00:00:00 | 00:00:00 | |
| DM0DOS-11 | 2026-08-30 11:25:03 | 49.78966 | 8.07693 | 79° | 104km/h | 13119m | 3.4m/s | -54.6°C | 7.8% | 171.7hPa | 2.7V | 04:22:11 | 00:54:43 | 00:00:00 | |
| DB0UT-9 | 2026-08-30 11:25:03 | 49.78997 | 8.07922 | 80° | 100km/h | 13145m | 4.6m/s | -54.5°C | 4.3% | 171.0hPa | 2.7V | 04:22:00 | 00:00:00 | 00:00:00 | |
| HEMX73-11 | 2026-08-30 11:25:02 | 49.78992 | 8.07884 | 79° | 100km/h | 13141m | 3.5m/s | -54.5°C | 4.2% | 171.1hPa | 2.7V | 04:22:00 | 00:00:00 | 00:00:00 | |
| DB0ND-19 | 2026-08-30 11:25:01 | 49.78976 | 8.07771 | 78° | 99km/h | 13128m | 3.7m/s | -54.6°C | 4.4% | 171.5hPa | 2.7V | 00:00:00 | 00:00:00 | 00:00:00 | |
| DM3KS-11 | 2026-08-30 11:24:58 | 49.78966 | 8.07693 | 79° | 102km/h | 13119m | 3.4m/s | -54.6°C | 4.4% | 171.7hPa | 2.7V | 00:00:00 | 00:00:00 | 00:00:00 | |
| DL1ZP-14 | 2026-08-30 11:24:56 | 49.78956 | 8.07614 | 78° | 100km/h | 13112m | 4.5m/s | -54.6°C | 4.4% | 171.8hPa | 2.7V | 00:00:00 | 00:00:00 | 00:00:00 | |
| BIOWL9-15 | 2026-08-30 11:24:53 | 49.78939 | 8.07499 | 76° | 100km/h | 13101m | 4.9m/s | -54.6°C | 4.3% | 172.2hPa | 2.8V | 00:00:00 | 00:00:00 | 00:00:00 | |
| DM0DOS-11 | 2026-08-30 11:24:52 | 49.78902 | 8.07273 | 76° | 97km/h | 13077m | 4.5m/s | -54.6°C | 7.8% | 172.8hPa | 2.8V | 04:22:22 | 00:54:32 | 00:00:00 | |
| BIOWL1-15 | 2026-08-30 11:24:49 | 49.78902 | 8.07273 | 77° | 99km/h | 13077m | 4.5m/s | -54.6°C | 5.6% | 172.8hPa | 2.8V | 04:22:30 | 00:54:32 | 00:00:00 | |
| AU51GT2 | 2026-08-30 11:24:47 | 49.78902 | 8.07273 | 76° | 97km/h | 13077m | 4.5m/s | -54.6°C | 4.4% | 172.8hPa | 2.7V | 00:00:00 | 00:00:00 | 00:00:00 | |
| DF3TZ-5 | 2026-08-30 11:24:46 | 49.78891 | 8.07197 | 77° | 100km/h | 13069m | 3.6m/s | -54.5°C | 4.5% | 173.1hPa | 2.7V | 00:00:00 | 00:00:00 | 00:00:00 | |
| DB0UT-9 | 2026-08-30 11:24:42 | 49.78880 | 8.07120 | 78° | 100km/h | 13061m | 4.5m/s | -54.5°C | 4.5% | 173.3hPa | 2.7V | 04:22:00 | 00:00:00 | 00:00:00 | |
| DB0DAN | 2026-08-30 11:24:40 | 49.78863 | 8.07004 | 78° | 100km/h | 13048m | 4.4m/s | 0°C | 0% | 173.58hPa | 2.7V | 00:00:00 | 00:00:00 | 00:00:00 | |
| BIOWL1-15 | 2026-08-30 11:24:39 | 49.78846 | 8.06881 | 76° | 108km/h | 13037m | 5.2m/s | -54.5°C | 5.8% | 173.9hPa | 2.8V | 04:23:21 | 00:54:22 | 00:00:00 | |
| DO2JMG | 2026-08-30 11:24:36 | 49.78839 | 8.06841 | 75° | 106km/h | 13032m | 4.4m/s | -54.5°C | 5.8% | 174.1hPa | 2.8V | 04:23:21 | 00:54:21 | 00:00:00 | |
| BIOWL1-15 | 2026-08-30 11:24:29 | 49.78798 | 8.06560 | 78° | 108km/h | 13004m | 3.8m/s | -54.7°C | 6.3% | 174.8hPa | 2.7V | 04:23:21 | 00:54:14 | 00:00:00 | |
| DB0DAN | 2026-08-30 11:24:25 | 49.78773 | 8.06390 | 75° | 108km/h | 12988m | 4.2m/s | 0°C | 0% | 0hPa | 2.7V | 00:00:00 | 00:00:00 | 00:00:00 | |
| DO2JMG | 2026-08-30 11:24:22 | 49.78751 | 8.06264 | 76° | 110km/h | 12976m | 4.2m/s | -54.8°C | 6.3% | 175.6hPa | 2.8V | 04:23:21 | 00:54:07 | 00:00:00 | |
| BIOWL1-15 | 2026-08-30 11:24:19 | 49.78724 | 8.06103 | 75° | 106km/h | 12960m | 3.1m/s | -54.7°C | 6.3% | 176hPa | 2.7V | 04:23:21 | 00:54:03 | 00:00:00 | |
| DO2JMG | 2026-08-30 11:24:12 | 49.78683 | 8.05862 | 75° | 108km/h | 12937m | 2.8m/s | -54.6°C | 6.1% | 176.7hPa | 2.8V | 04:23:21 | 00:53:57 | 00:00:00 | |
| BIOWL1-15 | 2026-08-30 11:24:08 | 49.78658 | 8.05695 | 77° | 113km/h | 12921m | 4.9m/s | -54.7°C | 6% | 177.2hPa | 2.8V | 04:23:21 | 00:53:53 | 00:00:00 | |
| DO2JMG | 2026-08-30 11:24:01 | 49.78613 | 8.05391 | 77° | 111km/h | 12892m | 3.5m/s | -54.7°C | 5.8% | 177.9hPa | 2.8V | 04:23:21 | 00:53:46 | 00:00:00 | |
| BIOWL1-15 | 2026-08-30 11:23:58 | 49.78583 | 8.05183 | 75° | 111km/h | 12871m | 3.3m/s | -54.6°C | 5.7% | 178.5hPa | 2.8V | 04:23:21 | 00:53:41 | 00:00:00 | |
| DO2JMG | 2026-08-30 11:23:51 | 49.78549 | 8.04965 | 78° | 119km/h | 12852m | 3.4m/s | -54.7°C | 5.7% | 179hPa | 2.8V | 04:23:21 | 00:53:36 | 00:00:00 | |
| BIOWL1-15 | 2026-08-30 11:23:45 | 49.78510 | 8.04699 | 79° | 113km/h | 12828m | 3.1m/s | 0°C | 0% | 179.7hPa | 2.8V | 18:12:15 | 00:53:30 | 00:00:00 | |
| DO2JMG | 2026-08-30 11:23:41 | 49.78484 | 8.04525 | 75° | 115km/h | 12812m | 5m/s | -54.7°C | 5.9% | 180.2hPa | 2.8V | 04:24:12 | 00:53:26 | 00:00:00 | |
| BIOWL1-15 | 2026-08-30 11:23:34 | 49.78428 | 8.04217 | 75° | 115km/h | 12782m | 2.9m/s | 0°C | 0% | 0hPa | 2.8V | 18:12:15 | 00:53:19 | 00:00:00 | |
| DO2JMG | 2026-08-30 11:23:30 | 49.78397 | 8.04044 | 76° | 113km/h | 12766m | 4.4m/s | -54.4°C | 5.9% | 0hPa | 2.8V | 04:24:12 | 00:53:15 | 00:00:00 | |
| BIOWL1-15 | 2026-08-30 11:23:23 | 49.78334 | 8.03702 | 76° | 113km/h | 12735m | 3.4m/s | 0°C | 0% | 0hPa | 2.7V | 18:12:15 | 00:53:07 | 00:00:00 | |
| DO2JMG | 2026-08-30 11:23:20 | 49.78320 | 8.03617 | 76° | 113km/h | 12727m | 3.5m/s | -54.4°C | 5.9% | 0hPa | 2.8V | 04:24:12 | 00:53:05 | 00:00:00 | |
| DO1YAY-16 | 2026-08-30 11:23:19 | 49.78314 | 8.03574 | 76° | 111km/h | 12723m | 3.4m/s | -54.3°C | 4.8% | 182.7hPa | 2.8V | 00:00:00 | 00:00:00 | 00:00:00 | |
| CB1BUN | 2026-08-30 11:23:18 | 49.78313 | 8.03574 | 78° | 113km/h | 12723m | 3.4m/s | -54.3°C | 4.8% | 182.7hPa | 2.8V | 04:24:00 | 00:00:00 | 00:00:00 | |
| DM0DOS-11 | 2026-08-30 11:23:16 | 49.78296 | 8.03445 | 78° | 110km/h | 12711m | 4.5m/s | -54.2°C | 8.1% | 183hPa | 2.8V | 04:23:53 | 00:53:01 | 00:00:00 | |
| AU51GT2 | 2026-08-30 11:23:14 | 49.78268 | 8.03282 | 72° | 110km/h | 12694m | 4.4m/s | -54.1°C | 4.7% | 183.5hPa | 2.7V | 00:00:00 | 00:00:00 | 00:00:00 | |
| DJ2DS-15 | 2026-08-30 11:23:12 | 49.78268 | 8.03282 | 73° | 111km/h | 12694m | 4.4m/s | -54.0°C | 8.1% | 183.5hPa | 2.7V | 00:00:00 | 00:52:57 | 00:00:00 | |
| DM0DOS-11 | 2026-08-30 11:23:11 | 49.78219 | 8.03032 | 75° | 111km/h | 12669m | 4.4m/s | -54°C | 7.9% | 184.2hPa | 2.7V | 04:24:03 | 00:52:51 | 00:00:00 | |
| BIOWL1-15 | 2026-08-30 11:23:11 | 49.78260 | 8.03240 | 72° | 113km/h | 12690m | 4m/s | 0°C | 0% | 0hPa | 2.7V | 18:12:15 | 00:52:56 | 00:00:00 | |
| DO2JMG | 2026-08-30 11:23:10 | 49.78251 | 8.03198 | 73° | 113km/h | 12686m | 3.9m/s | -54.1°C | 5.9% | 0hPa | 2.8V | 04:24:12 | 00:52:55 | 00:00:00 | |
| DO2JMG | 2026-08-30 11:22:59 | 49.78169 | 8.02739 | 73° | 113km/h | 12641m | 4.4m/s | 0°C | 0% | 0hPa | 2.8V | 04:24:12 | 00:52:44 | 00:00:00 | |
| DM0DOS-11 | 2026-08-30 11:22:58 | 49.78138 | 8.02573 | 73° | 108km/h | 12625m | 3.2m/s | -54°C | 8.5% | 185.5hPa | 2.7V | 04:24:14 | 00:52:40 | 00:00:00 | |
| DO2JMG | 2026-08-30 11:22:49 | 49.78096 | 8.02331 | 77° | 108km/h | 12601m | 4.5m/s | 0°C | 0% | 0hPa | 2.7V | 18:12:15 | 00:52:34 | 00:00:00 | |
| DO1YAY-16 | 2026-08-30 11:22:48 | 49.78089 | 8.02289 | 76° | 108km/h | 12597m | 4.3m/s | -53.9°C | 5.3% | 186.3hPa | 2.7V | 00:00:00 | 00:00:00 | 00:00:00 | |
| DM0DOS-11 | 2026-08-30 11:22:47 | 49.78070 | 8.02167 | 76° | 106km/h | 12585m | 4.1m/s | -53.7°C | 8.8% | 186.6hPa | 2.7V | 04:24:24 | 00:52:30 | 00:00:00 | |
| DF7PN | 2026-08-30 11:22:46 | 49.78076 | 8.02207 | 75° | 106km/h | 12589m | 4.2m/s | -53.7°C | 5.4% | 186.5hPa | 2.7V | 00:00:00 | 00:00:00 | 00:00:00 | |
| BIOWL1-15 | 2026-08-30 11:22:41 | 49.78030 | 8.01922 | 76° | 108km/h | 12561m | 3.6m/s | -53.8°C | 7.4% | 187.3hPa | 2.7V | 04:25:03 | 00:52:24 | 00:00:00 | |
| DB0UT-9 | 2026-08-30 11:22:40 | 49.78043 | 8.02004 | 77° | 110km/h | 12570m | 3.7m/s | -53.8°C | 5.5% | 187.1hPa | 2.7V | 04:25:00 | 00:00:00 | 00:00:00 | |
| HEMX73-11 | 2026-08-30 11:22:39 | 49.78036 | 8.01962 | 77° | 108km/h | 12565m | 4.8m/s | -53.8°C | 5.6% | 187.2hPa | 2.7V | 04:25:00 | 00:00:00 | 00:00:00 | |
| DJ2KF-10 | 2026-08-30 11:22:38 | 49.78023 | 8.01881 | 76° | 104km/h | 12557m | 4.4m/s | -53.9°C | 9.0% | 187.4hPa | 2.7V | 04:24:00 | 00:52:23 | 00:00:00 | |
| DM0DOS-11 | 2026-08-30 11:22:37 | 49.78003 | 8.01761 | 76° | 104km/h | 12546m | 4.7m/s | -53.9°C | 9.2% | 187.8hPa | 2.8V | 04:24:34 | 00:52:20 | 00:00:00 | |
| BIOWL1-15 | 2026-08-30 11:22:28 | 49.77942 | 8.01367 | 77° | 104km/h | 12507m | 4.7m/s | -54°C | 8.8% | 188.9hPa | 2.8V | 04:25:03 | 00:52:10 | 00:00:00 | |
| DM0DOS-11 | 2026-08-30 11:22:27 | 49.77942 | 8.01367 | 76° | 104km/h | 12507m | 4.7m/s | -54°C | 10.2% | 188.9hPa | 2.8V | 04:24:44 | 00:52:10 | 00:00:00 | |
| BIOWL1-15 | 2026-08-30 11:22:17 | 49.77869 | 8.00890 | 77° | 104km/h | 12460m | 4.6m/s | -54.1°C | 10.6% | 190.4hPa | 2.8V | 04:25:03 | 00:51:58 | 00:00:00 | |
| DM0DOS-11 | 2026-08-30 11:22:17 | 49.77880 | 8.00969 | 78° | 104km/h | 12467m | 3.2m/s | -54.1°C | 11.1% | 190.1hPa | 2.7V | 04:24:54 | 00:52:00 | 00:00:00 | |
| BIOWL1-15 | 2026-08-30 11:22:13 | 49.77829 | 8.00610 | 77° | 110km/h | 12433m | 3.1m/s | -54.4°C | 12.4% | 191.1hPa | 2.8V | 04:25:03 | 00:51:51 | 00:00:00 | |
| AU51GT2 | 2026-08-30 11:22:12 | 49.77858 | 8.00811 | 77° | 102km/h | 12452m | 4.6m/s | -54.1°C | 7.9% | 190.6hPa | 2.8V | 00:00:00 | 00:00:00 | 00:00:00 | |
| DF3TZ-5 | 2026-08-30 11:22:10 | 49.77852 | 8.00772 | 78° | 102km/h | 12448m | 3.7m/s | -54.1°C | 8.1% | 190.7hPa | 2.8V | 00:00:00 | 00:00:00 | 00:00:00 | |
| DJ2DS-15 | 2026-08-30 11:22:09 | 49.77847 | 8.00732 | 77° | 104km/h | 12444m | 3.3m/s | -54.2°C | 8.1% | 190.8hPa | 2.8V | 00:00:00 | 00:00:00 | 00:00:00 | |
| DJ2KF-10 | 2026-08-30 11:22:08 | 49.77841 | 8.00692 | 78° | 108km/h | 12441m | 4.4m/s | -54.3°C | 12.3% | 190.9hPa | 2.8V | 00:00:00 | 00:51:53 | 00:00:00 | |
| DM0DOS-11 | 2026-08-30 11:22:06 | 49.77823 | 8.00568 | 77° | 108km/h | 12429m | 4.2m/s | -54.5°C | 13.5% | 191.2hPa | 2.8V | 04:25:04 | 00:51:50 | 00:00:00 | |
| DL9PN | 2026-08-30 11:22:05 | 49.77823 | 8.00568 | 77° | 108km/h | 12429m | 4.2m/s | -54.5°C | 9.4% | 191.2hPa | 2.8V | 00:00:00 | 00:00:00 | 00:00:00 | |
| DB0UT-7 | 2026-08-30 11:22:03 | 49.77813 | 8.00486 | 81° | 108km/h | 12421m | 3.8m/s | -54.5°C | 14.1% | 191.4hPa | 2.8V | 00:00:00 | 00:00:00 | 00:00:00 | |
| DK5PH-5 | 2026-08-30 11:22:01 | 49.77804 | 8.00406 | 80° | 111km/h | 12413m | 4.6m/s | -54.5°C | 14.6% | 191.7hPa | 2.8V | 00:00:00 | 00:51:46 | 00:00:00 | |
| DH7VM-15 | 2026-08-30 11:22:00 | 49.77804 | 8.00406 | 81° | 102km/h | 12413m | 4.7m/s | -54.6°C | 10.3% | 191.7hPa | 2.8V | 00:00:00 | 00:00:00 | 00:00:00 | |
| DB0UT-9 | 2026-08-30 11:21:59 | 49.77799 | 8.00367 | 80° | 102km/h | 12409m | 3.4m/s | -54.6°C | 10.4% | 191.9hPa | 2.8V | 04:25:00 | 00:00:00 | 00:00:00 | |
| HEMX73-11 | 2026-08-30 11:21:58 | 49.77795 | 8.00328 | 81° | 102km/h | 12405m | 4.2m/s | -54.6°C | 10.5% | 192.0hPa | 2.8V | 04:25:00 | 00:00:00 | 00:00:00 | |
| DL8DAS-15 | 2026-08-30 11:21:57 | 49.77790 | 8.00288 | 81° | 102km/h | 12400m | 4.6m/s | -54.6°C | 0% | 192.1hPa | 2.8V | 00:00:00 | 00:00:00 | 00:00:00 | |
| DM0DOS-11 | 2026-08-30 11:21:56 | 49.77775 | 8.00173 | 75° | 100km/h | 12389m | 4.3m/s | -54.7°C | 15.3% | 192.4hPa | 2.8V | 04:25:14 | 00:51:40 | 00:00:00 | |
| BIOWL1-15 | 2026-08-30 11:21:56 | 49.77781 | 8.00211 | 78° | 100km/h | 12393m | 4.4m/s | -54.7°C | 15.5% | 192.3hPa | 2.8V | 04:25:54 | 00:51:41 | 00:00:00 | |
| DB0ND-19 | 2026-08-30 11:21:54 | 49.77769 | 8.00135 | 74° | 100km/h | 12385m | 3.3m/s | -54.8°C | 11.1% | 192.6hPa | 2.8V | 00:00:00 | 00:00:00 | 00:00:00 | |
| DM3KS-11 | 2026-08-30 11:21:52 | 49.77755 | 8.00057 | 75° | 104km/h | 12378m | 3.9m/s | -55.1°C | 11.8% | 192.7hPa | 2.8V | 00:00:00 | 00:00:00 | 00:00:00 | |
| DL1ZP-14 | 2026-08-30 11:21:50 | 49.77743 | 7.99976 | 79° | 104km/h | 12369m | 6.1m/s | -55.3°C | 12.6% | 193.0hPa | 2.8V | 00:00:00 | 00:00:00 | 00:00:00 | |
| BIOWL9-15 | 2026-08-30 11:21:47 | 49.77731 | 7.99852 | 81° | 110km/h | 12352m | 5.6m/s | -55.2°C | 13.5% | 193.5hPa | 2.8V | 00:00:00 | 00:00:00 | 00:00:00 | |
| DM0DOS-11 | 2026-08-30 11:21:46 | 49.77722 | 7.99765 | 79° | 113km/h | 12341m | 6m/s | -55.3°C | 19.1% | 193.9hPa | 2.8V | 04:25:24 | 00:51:30 | 00:00:00 | |
| BIOWL1-15 | 2026-08-30 11:21:45 | 49.77722 | 7.99765 | 80° | 113km/h | 12341m | 6.1m/s | -55.3°C | 20% | 193.9hPa | 2.8V | 04:25:54 | 00:51:30 | 00:00:00 | |
| DF7PN | 2026-08-30 11:21:44 | 49.77716 | 7.99722 | 78° | 111km/h | 12335m | 5.7m/s | -55.3°C | 14.6% | 194.0hPa | 2.8V | 00:00:00 | 00:00:00 | 00:00:00 | |
| AU51GT2 | 2026-08-30 11:21:41 | 49.77693 | 7.99544 | 78° | 122km/h | 12315m | 3.3m/s | -55.8°C | 17.3% | 194.7hPa | 2.8V | 00:00:00 | 00:00:00 | 00:00:00 | |
| DF3TZ-5 | 2026-08-30 11:21:39 | 49.77686 | 7.99497 | 77° | 124km/h | 12311m | 4.5m/s | -55.9°C | 17.7% | 194.8hPa | 2.8V | 00:00:00 | 00:00:00 | 00:00:00 | |
| DJ2KF-10 | 2026-08-30 11:21:38 | 49.77680 | 7.99449 | 79° | 115km/h | 12307m | 4.7m/s | -56.0°C | 24.4% | 194.8hPa | 2.8V | 00:00:00 | 00:51:23 | 00:00:00 | |
| DB0UT-9 | 2026-08-30 11:21:37 | 49.77680 | 7.99449 | 79° | 124km/h | 12307m | 4.7m/s | -56.0°C | 18.5% | 194.9hPa | 2.8V | 04:25:00 | 00:00:00 | 00:00:00 | |
| DM0DOS-11 | 2026-08-30 11:21:36 | 49.77661 | 7.99310 | 77° | 119km/h | 12293m | 4.5m/s | -56.4°C | 26% | 195.3hPa | 2.8V | 04:25:34 | 00:51:20 | 00:00:00 | |
| BIOWL1-15 | 2026-08-30 11:21:35 | 49.77661 | 7.99310 | 78° | 119km/h | 12293m | 4.5m/s | -56.5°C | 26% | 195.3hPa | 2.8V | 04:25:54 | 00:51:20 | 00:00:00 | |
| DL9PN | 2026-08-30 11:21:34 | 49.77654 | 7.99265 | 76° | 117km/h | 12288m | 5.5m/s | -56.5°C | 19.8% | 195.4hPa | 2.7V | 00:00:00 | 00:00:00 | 00:00:00 | |
| DB0UT-7 | 2026-08-30 11:21:33 | 49.77647 | 7.99221 | 75° | 115km/h | 12284m | 4.0m/s | -56.5°C | 26.3% | 195.6hPa | 2.7V | 00:00:00 | 00:51:18 | 00:00:00 | |
| DJ2DS-15 | 2026-08-30 11:21:32 | 49.77639 | 7.99177 | 75° | 115km/h | 12280m | 4.2m/s | -56.6°C | 26.6% | 195.7hPa | 2.7V | 00:00:00 | 00:51:17 | 00:00:00 | |
| DK5PH-5 | 2026-08-30 11:21:31 | 49.77631 | 7.99134 | 76° | 115km/h | 12276m | 4.2m/s | -56.7°C | 27.3% | 195.8hPa | 2.7V | 00:00:00 | 00:51:16 | 00:00:00 | |
| DJ3KS | 2026-08-30 11:21:30 | 49.77631 | 7.99134 | 76° | 113km/h | 12276m | 4.2m/s | -56.8°C | 0% | 195.9hPa | 2.7V | 00:00:00 | 00:00:00 | 00:00:00 | |
| DM0DOS-11 | 2026-08-30 11:21:26 | 49.77599 | 7.98870 | 83° | 115km/h | 12246m | 6.3m/s | -57.2°C | 31.2% | 196.8hPa | 2.7V | 04:25:44 | 00:51:10 | 00:00:00 | |
| BIOWL1-15 | 2026-08-30 11:21:25 | 49.77599 | 7.98870 | 84° | 115km/h | 12246m | 6.4m/s | -57.2°C | 30.6% | 196.8hPa | 2.7V | 04:25:54 | 00:51:10 | 00:00:00 | |
| DB0ND-19 | 2026-08-30 11:21:23 | 49.77593 | 7.98781 | 83° | 115km/h | 12236m | 5.0m/s | -57.2°C | 24.6% | 197.1hPa | 2.8V | 00:00:00 | 00:00:00 | 00:00:00 | |
| DM3KS-11 | 2026-08-30 11:21:21 | 49.77582 | 7.98644 | 82° | 117km/h | 12223m | 3.6m/s | -57.2°C | 26.2% | 197.6hPa | 2.8V | 00:00:00 | 00:00:00 | 00:00:00 | |
| DL1ZP-14 | 2026-08-30 11:21:19 | 49.77578 | 7.98599 | 83° | 113km/h | 12219m | 4.7m/s | -57.2°C | 26.9% | 197.7hPa | 2.8V | 00:00:00 | 00:00:00 | 00:00:00 | |
| DM0DOS-11 | 2026-08-30 11:21:16 | 49.77573 | 7.98424 | 89° | 110km/h | 12200m | 5.8m/s | -57.1°C | 35.8% | 198.2hPa | 2.8V | 04:25:54 | 00:51:00 | 00:00:00 | |
| BIOWL1-15 | 2026-08-30 11:21:14 | 49.77573 | 7.98381 | 90° | 111km/h | 12194m | 5m/s | -57.1°C | 35.4% | 198.4hPa | 2.8V | 04:26:45 | 00:50:59 | 00:00:00 | |
| DF7PN | 2026-08-30 11:21:13 | 49.77572 | 7.98293 | 89° | 111km/h | 12185m | 5.5m/s | -57.2°C | 29.6% | 198.7hPa | 2.7V | 00:00:00 | 00:00:00 | 00:00:00 | |
| DJ2DS-15 | 2026-08-30 11:21:12 | 49.77572 | 7.98293 | 90° | 117km/h | 12186m | 5.5m/s | -57.1°C | 37.4% | 198.6hPa | 2.7V | 00:00:00 | 00:50:57 | 00:00:00 | |
| AU51GT2 | 2026-08-30 11:21:10 | 49.77572 | 7.98156 | 89° | 122km/h | 12171m | 4.4m/s | -57.1°C | 30.6% | 199.2hPa | 2.7V | 00:00:00 | 00:00:00 | 00:00:00 | |
| DJ2KF-10 | 2026-08-30 11:21:08 | 49.77571 | 7.98108 | 88° | 126km/h | 12166m | 5.7m/s | -57.1°C | 38.6% | 199.2hPa | 2.7V | 00:00:00 | 00:50:53 | 00:00:00 | |
| DM0DOS-11 | 2026-08-30 11:21:06 | 49.77567 | 7.97969 | 89° | 115km/h | 12150m | 4.9m/s | -57.2°C | 41.7% | 199.8hPa | 2.8V | 04:26:04 | 00:50:50 | 00:00:00 | |
| BIOWL1-15 | 2026-08-30 11:21:04 | 49.77567 | 7.97924 | 91° | 115km/h | 12144m | 6.2m/s | -57.1°C | 40.9% | 200hPa | 2.7V | 04:26:45 | 00:50:49 | 00:00:00 | |
| DL9PN | 2026-08-30 11:21:03 | 49.77568 | 7.97879 | 93° | 117km/h | 12139m | 4.5m/s | -57.1°C | 35.1% | 200.2hPa | 2.8V | 00:00:00 | 00:00:00 | 00:00:00 | |
| DJ2DS-15 | 2026-08-30 11:20:57 | 49.77582 | 7.97603 | 93° | 115km/h | 12111m | 3.9m/s | -57.3°C | 36.5% | 201.0hPa | 2.8V | 00:00:00 | 00:00:00 | 00:00:00 | |
| DM0DOS-11 | 2026-08-30 11:20:56 | 49.77586 | 7.97513 | 94° | 117km/h | 12102m | 4.7m/s | -57.1°C | 45.9% | 201.3hPa | 2.8V | 04:26:14 | 00:50:40 | 00:00:00 | |
| BIOWL1-15 | 2026-08-30 11:20:55 | 49.77590 | 7.97421 | 94° | 119km/h | 12092m | 4.8m/s | -57.1°C | 47.2% | 201.7hPa | 2.8V | 04:26:45 | 00:50:38 | 00:00:00 | |
| DB0ND-19 | 2026-08-30 11:20:52 | 49.77592 | 7.97374 | 93° | 122km/h | 12087m | 4.8m/s | -57.1°C | 39.6% | 201.8hPa | 2.8V | 00:00:00 | 00:00:00 | 00:00:00 | |
| DM3KS-11 | 2026-08-30 11:20:50 | 49.77597 | 7.97223 | 93° | 137km/h | 12071m | 6.4m/s | -57.3°C | 43.1% | 202.3hPa | 2.8V | 00:00:00 | 00:00:00 | 00:00:00 | |
| DL1ZP-14 | 2026-08-30 11:20:48 | 49.77603 | 7.97112 | 95° | 144km/h | 12060m | 3.4m/s | -57.3°C | 45.1% | 202.7hPa | 2.8V | 00:00:00 | 00:00:00 | 00:00:00 | |
| DM0DOS-11 | 2026-08-30 11:20:45 | 49.77612 | 7.96736 | 91° | 131km/h | 12014m | 8.5m/s | -57.9°C | 60% | 204hPa | 2.8V | 04:26:29 | 00:50:25 | 00:00:00 | |
| BIOWL1-15 | 2026-08-30 11:20:43 | 49.77612 | 7.96890 | 90° | 135km/h | 12037m | 5.2m/s | -57.6°C | 55.2% | 203.4hPa | 2.7V | 04:26:45 | 00:50:28 | 00:00:00 | |
| BIOWL1-15 | 2026-08-30 11:20:32 | 49.77618 | 7.96316 | 84° | 139km/h | 11969m | 8.9m/s | -58.2°C | 56.8% | 205.6hPa | 2.9V | 04:26:45 | 00:50:17 | 00:00:00 | |
| BIOWL1-15 | 2026-08-30 11:20:22 | 49.77592 | 7.95745 | 86° | 144km/h | 11908m | 5.7m/s | 0°C | 0% | 207.6hPa | 2.8V | 18:12:15 | 00:50:07 | 00:00:00 | |
| DO2JMG | 2026-08-30 11:20:21 | 49.77590 | 7.95688 | 86° | 146km/h | 11903m | 4.1m/s | 0°C | 0% | 207.8hPa | 2.8V | 18:12:15 | 00:50:06 | 00:00:00 | |
| BIOWL1-15 | 2026-08-30 11:20:12 | 49.77549 | 7.95171 | 82° | 148km/h | 11864m | 4.6m/s | 0°C | 0% | 0hPa | 2.8V | 18:12:15 | 00:49:57 | 00:00:00 | |
| DO2JMG | 2026-08-30 11:20:10 | 49.77539 | 7.95058 | 83° | 146km/h | 11856m | 3.1m/s | 0°C | 0% | 209.4hPa | 2.9V | 18:12:15 | 00:49:55 | 00:00:00 | |
| BIOWL1-15 | 2026-08-30 11:20:01 | 49.77492 | 7.94370 | 83° | 144km/h | 11805m | 5.4m/s | 0°C | 0% | 0hPa | 2.8V | 18:12:15 | 00:49:43 | 00:00:00 | |
| BIOWL1-15 | 2026-08-30 11:19:48 | 49.77444 | 7.93796 | 84° | 146km/h | 11761m | 4.1m/s | 0°C | 0% | 0hPa | 2.8V | 18:12:15 | 00:49:33 | 00:00:00 | |
| DL1ZP-14 | 2026-08-30 11:19:46 | 49.77433 | 7.93628 | 83° | 141km/h | 11747m | 4.8m/s | -56.8°C | 52.5% | 213.0hPa | 2.9V | 00:00:00 | 00:00:00 | 00:00:00 | |
| DJ2DS-15 | 2026-08-30 11:19:45 | 49.77429 | 7.93574 | 82° | 137km/h | 11742m | 4.9m/s | -56.7°C | 52.0% | 213.2hPa | 2.7V | 00:00:00 | 00:00:00 | 00:00:00 | |
| BIOWL9-15 | 2026-08-30 11:19:43 | 49.77425 | 7.93520 | 82° | 137km/h | 11738m | 3.6m/s | -56.7°C | 51.6% | 213.4hPa | 2.7V | 00:00:00 | 00:00:00 | 00:00:00 | |
| DO1YAY-16 | 2026-08-30 11:19:42 | 49.77421 | 7.93466 | 83° | 139km/h | 11733m | 5.2m/s | -56.7°C | 51.3% | 213.5hPa | 2.7V | 00:00:00 | 00:00:00 | 00:00:00 | |
| DF7PN | 2026-08-30 11:19:40 | 49.77413 | 7.93357 | 84° | 142km/h | 11724m | 4.0m/s | -56.6°C | 52.2% | 213.8hPa | 2.7V | 00:00:00 | 00:00:00 | 00:00:00 | |
| DJ2KF-10 | 2026-08-30 11:19:38 | 49.77406 | 7.93245 | 84° | 144km/h | 11716m | 5.2m/s | -56.4°C | 62.1% | 214.0hPa | 2.7V | 00:00:00 | 00:49:23 | 00:00:00 | |
| AU51GT2 | 2026-08-30 11:19:36 | 49.77397 | 7.93131 | 83° | 146km/h | 11706m | 4.2m/s | -56.4°C | 53.3% | 214.4hPa | 2.9V | 00:00:00 | 00:00:00 | 00:00:00 | |
| HEMX73-11 | 2026-08-30 11:19:34 | 49.77392 | 7.93074 | 85° | 148km/h | 11702m | 4.7m/s | -56.3°C | 54.1% | 214.6hPa | 2.9V | 04:27:00 | 00:00:00 | 00:00:00 | |
| BIOWL1-15 | 2026-08-30 11:19:20 | 49.77326 | 7.92058 | 85° | 144km/h | 11624m | 5.7m/s | -55.9°C | 60% | 217.2hPa | 2.9V | 04:28:27 | 00:49:02 | 00:00:00 | |
| BIOWL1-15 | 2026-08-30 11:19:09 | 49.77294 | 7.91612 | 84° | 151km/h | 11588m | 4.2m/s | -55.5°C | 59.3% | 218.4hPa | 2.8V | 04:28:27 | 00:48:54 | 00:00:00 | |
| BIOWL1-15 | 2026-08-30 11:18:56 | 49.77241 | 7.90879 | 84° | 146km/h | 11530m | 5m/s | -55°C | 61.3% | 220.4hPa | 2.9V | 04:28:27 | 00:48:41 | 00:00:00 | |
| BIOWL1-15 | 2026-08-30 11:18:46 | 49.77202 | 7.90324 | 83° | 144km/h | 11484m | 4.3m/s | -54.6°C | 62.1% | 222hPa | 2.9V | 04:28:27 | 00:48:31 | 00:00:00 | |
| DM3KS-11 | 2026-08-30 11:18:46 | 49.77197 | 7.90268 | 82° | 146km/h | 11479m | 5.1m/s | -54.6°C | 56.5% | 222.2hPa | 2.9V | 00:00:00 | 00:00:00 | 00:00:00 | |
| DO2JMG | 2026-08-30 11:18:40 | 49.77175 | 7.89987 | 84° | 141km/h | 11457m | 3.5m/s | 0°C | 0% | 222.9hPa | 2.9V | 18:12:15 | 00:48:25 | 00:00:00 | |
| BIOWL1-15 | 2026-08-30 11:18:35 | 49.77139 | 7.89543 | 82° | 148km/h | 11423m | 4.6m/s | -54.2°C | 62% | 224.1hPa | 2.8V | 04:29:18 | 00:48:17 | 00:00:00 | |
| DO2JMG | 2026-08-30 11:18:28 | 49.77118 | 7.89315 | 81° | 146km/h | 11406m | 4.4m/s | 0°C | 0% | 0hPa | 2.9V | 18:12:15 | 00:48:13 | 00:00:00 | |
| BIOWL1-15 | 2026-08-30 11:18:22 | 49.77087 | 7.88974 | 83° | 146km/h | 11378m | 4.4m/s | -53.9°C | 62% | 225.7hPa | 2.8V | 04:29:18 | 00:48:07 | 00:00:00 | |
| DO2JMG | 2026-08-30 11:18:18 | 49.77069 | 7.88746 | 83° | 146km/h | 11361m | 5.6m/s | 0°C | 0% | 0hPa | 2.9V | 18:12:15 | 00:48:03 | 00:00:00 | |
| BIOWL1-15 | 2026-08-30 11:18:14 | 49.77039 | 7.88410 | 82° | 142km/h | 11333m | 5.2m/s | -53.6°C | 62.7% | 227.3hPa | 2.9V | 04:29:18 | 00:47:57 | 00:00:00 | |
| BIOWL1-15 | 2026-08-30 11:18:01 | 49.76983 | 7.87807 | 83° | 139km/h | 11279m | 3.1m/s | -53.1°C | 62.7% | 229.2hPa | 2.9V | 04:29:18 | 00:47:46 | 00:00:00 | |
| BIOWL1-15 | 2026-08-30 11:17:53 | 49.76936 | 7.87261 | 84° | 142km/h | 11232m | 5.1m/s | -52.8°C | 62.2% | 230.8hPa | 2.9V | 04:29:18 | 00:47:36 | 00:00:00 | |
| DM0DOS-11 | 2026-08-30 11:17:52 | 49.76921 | 7.87045 | 84° | 139km/h | 11215m | 3.4m/s | -52.6°C | 66.7% | 231.5hPa | 2.9V | 04:29:22 | 00:47:32 | 00:00:00 | |
| DB0ND-19 | 2026-08-30 11:17:46 | 49.76918 | 7.86990 | 84° | 141km/h | 11210m | 5.4m/s | -52.6°C | 57.3% | 231.6hPa | 2.9V | 00:00:00 | 00:00:00 | 00:00:00 | |
| BIOWL1-15 | 2026-08-30 11:17:40 | 49.76897 | 7.86657 | 84° | 144km/h | 11185m | 4.6m/s | -52.4°C | 62.4% | 232.6hPa | 2.9V | 04:30:09 | 00:47:25 | 00:00:00 | |
| DM0DOS-11 | 2026-08-30 11:17:40 | 49.76881 | 7.86442 | 83° | 131km/h | 11168m | 3.4m/s | -52.2°C | 70.1% | 233.2hPa | 2.9V | 04:29:33 | 00:47:21 | 00:00:00 | |
| BIOWL1-15 | 2026-08-30 11:17:29 | 49.76853 | 7.86006 | 87° | 144km/h | 11128m | 6.4m/s | -52°C | 63.5% | 234.6hPa | 2.9V | 04:30:09 | 00:47:13 | 00:00:00 | |
| BIOWL1-15 | 2026-08-30 11:17:17 | 49.76822 | 7.85408 | 84° | 139km/h | 11071m | 4.9m/s | -51.5°C | 65.1% | 236.7hPa | 2.9V | 04:30:09 | 00:47:02 | 00:00:00 | |
| DM0DOS-11 | 2026-08-30 11:17:15 | 49.76801 | 7.85086 | 85° | 142km/h | 11041m | 5.4m/s | -51.2°C | 70.4% | 237.7hPa | 2.9V | 04:29:58 | 00:46:56 | 00:00:00 | |
| BIOWL1-15 | 2026-08-30 11:17:08 | 49.76792 | 7.84814 | 87° | 141km/h | 11016m | 5m/s | -51°C | 65.2% | 238.7hPa | 2.9V | 04:30:09 | 00:46:51 | 00:00:00 | |
| BIOWL9-15 | 2026-08-30 11:17:08 | 49.76793 | 7.84868 | 87° | 137km/h | 11021m | 4.6m/s | -51.1°C | -1.0% | 238.4hPa | 2.9V | 00:00:00 | 00:00:00 | 00:00:00 | |
| DJ2KF-10 | 2026-08-30 11:17:07 | 49.76793 | 7.84868 | 88° | 142km/h | 11021m | 4.6m/s | 0°C | 0% | 0hPa | 2.9V | 00:00:00 | 00:46:52 | 00:00:00 | |
| DM0DOS-11 | 2026-08-30 11:17:06 | 49.76779 | 7.84542 | 84° | 141km/h | 10994m | 4.1m/s | -50.8°C | 70.9% | 239.5hPa | 2.9V | 04:30:08 | 00:46:46 | 00:00:00 | |
| BIOWL1-15 | 2026-08-30 11:16:55 | 49.76756 | 7.84209 | 85° | 142km/h | 10968m | 4.3m/s | -50.6°C | 65.9% | 240.4hPa | 2.9V | 04:31:00 | 00:46:40 | 00:00:00 | |
| DL9PN | 2026-08-30 11:16:55 | 49.76753 | 7.84154 | 86° | 141km/h | 10964m | 3.9m/s | -50.6°C | 61.7% | 240.6hPa | 2.9V | 00:00:00 | 00:00:00 | 00:00:00 | |
| DM0DOS-11 | 2026-08-30 11:16:54 | 49.76748 | 7.83987 | 86° | 142km/h | 10951m | 4.9m/s | -50.5°C | 70.8% | 241.1hPa | 2.9V | 04:30:18 | 00:46:36 | 00:00:00 | |
| DJ2DS-15 | 2026-08-30 11:16:51 | 49.76747 | 7.83987 | 87° | 141km/h | 10951m | 4.9m/s | 0°C | 0% | 0hPa | 2.8V | 00:00:00 | 00:46:36 | 00:00:00 | |
| CB1BUN | 2026-08-30 11:16:48 | 49.76742 | 7.83876 | 87° | 144km/h | 10942m | 4.3m/s | -50.4°C | 61.2% | 241.4hPa | 2.8V | 04:31:00 | 00:00:00 | 00:00:00 | |
| DM0DOS-11 | 2026-08-30 11:16:46 | 49.76720 | 7.83436 | 84° | 146km/h | 10904m | 4.6m/s | -50.3°C | 71.8% | 242.8hPa | 2.8V | 04:30:28 | 00:46:26 | 00:00:00 | |
| BIOWL1-15 | 2026-08-30 11:16:45 | 49.76733 | 7.83657 | 86° | 137km/h | 10922m | 4.2m/s | -50.3°C | 66.3% | 242.1hPa | 2.9V | 04:31:00 | 00:46:30 | 00:00:00 | |
| BIOWL1-15 | 2026-08-30 11:16:34 | 49.76678 | 7.82723 | 83° | 141km/h | 10842m | 5.6m/s | -49.9°C | 66.7% | 245.2hPa | 2.8V | 04:31:00 | 00:46:13 | 00:00:00 | |
| DM0DOS-11 | 2026-08-30 11:16:34 | 49.76687 | 7.82886 | 86° | 141km/h | 10856m | 4m/s | -50°C | 73.3% | 244.6hPa | 2.9V | 04:30:38 | 00:46:16 | 00:00:00 | |
| DF7PN | 2026-08-30 11:16:33 | 49.76692 | 7.82994 | 86° | 137km/h | 10866m | 5.0m/s | -50.0°C | 63.6% | 244.3hPa | 2.9V | 00:00:00 | 00:00:00 | 00:00:00 | |
| DJ2DS-15 | 2026-08-30 11:16:31 | 49.76687 | 7.82886 | 87° | 135km/h | 10857m | 4.0m/s | 0°C | 0% | 0hPa | 2.9V | 00:00:00 | 00:46:16 | 00:00:00 | |
| DK5PH-5 | 2026-08-30 11:16:30 | 49.76685 | 7.82832 | 86° | 142km/h | 10853m | 3.8m/s | -49.9°C | 72.4% | 244.7hPa | 2.9V | 00:00:00 | 00:46:15 | 00:00:00 | |
| DM0DOS-11 | 2026-08-30 11:16:27 | 49.76649 | 7.82340 | 85° | 144km/h | 10806m | 5.2m/s | -49.6°C | 70% | 246.5hPa | 2.9V | 04:30:48 | 00:46:06 | 00:00:00 | |
| BIOWL1-15 | 2026-08-30 11:16:24 | 49.76660 | 7.82508 | 83° | 141km/h | 10821m | 5.5m/s | -49.7°C | 66.7% | 246hPa | 2.9V | 04:31:00 | 00:46:09 | 00:00:00 | |
| BIOWL1-15 | 2026-08-30 11:16:15 | 49.76618 | 7.81895 | 83° | 141km/h | 10768m | 5.5m/s | -49.3°C | 65.2% | 247.9hPa | 2.9V | 04:31:00 | 00:45:58 | 00:00:00 | |
| DM0DOS-11 | 2026-08-30 11:16:14 | 49.76609 | 7.81787 | 82° | 139km/h | 10758m | 4.7m/s | -49.2°C | 70.9% | 248.3hPa | 2.8V | 04:30:58 | 00:45:56 | 00:00:00 | |
| DB0ND-19 | 2026-08-30 11:16:13 | 49.76618 | 7.81895 | 83° | 141km/h | 10768m | 5.5m/s | -49.3°C | 61.0% | 247.9hPa | 2.9V | 00:00:00 | 00:00:00 | 00:00:00 | |
| DM3KS-11 | 2026-08-30 11:16:10 | 49.76605 | 7.81733 | 83° | 137km/h | 10754m | 4.4m/s | -49.1°C | 62.7% | 248.4hPa | 2.9V | 00:00:00 | 00:00:00 | 00:00:00 | |
| DL1ZP-14 | 2026-08-30 11:16:08 | 49.76598 | 7.81626 | 84° | 137km/h | 10745m | 5.5m/s | -49.1°C | 63.2% | 248.8hPa | 2.9V | 00:00:00 | 00:00:00 | 00:00:00 | |
| DJ2KF-10 | 2026-08-30 11:16:07 | 49.76595 | 7.81571 | 85° | 139km/h | 10741m | 4.8m/s | 0°C | 0% | 0hPa | 2.9V | 00:00:00 | 00:45:52 | 00:00:00 | |
| DM0DOS-11 | 2026-08-30 11:16:06 | 49.76580 | 7.81233 | 85° | 144km/h | 10713m | 5.2m/s | -48.9°C | 73.9% | 249.9hPa | 2.9V | 04:31:08 | 00:45:46 | 00:00:00 | |
| BIOWL1-15 | 2026-08-30 11:16:02 | 49.76583 | 7.81290 | 87° | 150km/h | 10718m | 4.1m/s | -49°C | 67.6% | 249.8hPa | 2.9V | 04:31:51 | 00:45:47 | 00:00:00 | |
| AU51GT2 | 2026-08-30 11:15:59 | 49.76570 | 7.81123 | 79° | 137km/h | 10705m | 3.5m/s | -48.9°C | 63.1% | 250.3hPa | 2.9V | 00:00:00 | 00:00:00 | 00:00:00 | |
| DL8DAS-15 | 2026-08-30 11:15:57 | 49.76564 | 7.81071 | 81° | 133km/h | 10701m | 6.6m/s | -48.9°C | 0% | 250.4hPa | 2.9V | 00:00:00 | 00:00:00 | 00:00:00 | |
| DM0DOS-11 | 2026-08-30 11:15:55 | 49.76532 | 7.80708 | 90° | 141km/h | 10663m | 5.5m/s | -48.6°C | 75.3% | 251.8hPa | 2.9V | 04:31:18 | 00:45:36 | 00:00:00 | |
| BIOWL1-15 | 2026-08-30 11:15:53 | 49.76532 | 7.80708 | 90° | 141km/h | 10663m | 5.5m/s | -48.6°C | 68.5% | 251.8hPa | 2.9V | 04:31:51 | 00:45:36 | 00:00:00 | |
| DL9PN | 2026-08-30 11:15:52 | 49.76532 | 7.80708 | 90° | 141km/h | 10663m | 5.5m/s | -48.6°C | 66.3% | 251.8hPa | 2.8V | 00:00:00 | 00:00:00 | 00:00:00 | |
| HEMX73-11 | 2026-08-30 11:15:50 | 49.76532 | 7.80708 | 91° | 141km/h | 10663m | 5.5m/s | -48.6°C | 66.3% | 251.8hPa | 2.8V | 04:31:00 | 00:00:00 | 00:00:00 | |
| DM0DOS-11 | 2026-08-30 11:15:46 | 49.76490 | 7.80118 | 85° | 135km/h | 10588m | 6.9m/s | -48.2°C | 73.7% | 254.8hPa | 2.8V | 04:31:29 | 00:45:25 | 00:00:00 | |
| BIOWL1-15 | 2026-08-30 11:15:40 | 49.76490 | 7.80118 | 85° | 135km/h | 10588m | 6.9m/s | -48.2°C | 69.9% | 254.8hPa | 2.8V | 04:31:51 | 00:45:25 | 00:00:00 | |
| DM3KS-11 | 2026-08-30 11:15:40 | 49.76487 | 7.80066 | 84° | 131km/h | 10581m | 7.0m/s | -48.2°C | 65.0% | 255.0hPa | 2.9V | 00:00:00 | 00:00:00 | 00:00:00 | |
| DJ3KS | 2026-08-30 11:15:38 | 49.76487 | 7.80066 | 86° | 133km/h | 10581m | 7.0m/s | -48.2°C | 0% | 255.0hPa | 2.9V | 00:00:00 | 00:00:00 | 00:00:00 | |
| DJ2KF-10 | 2026-08-30 11:15:37 | 49.76480 | 7.79962 | 84° | 131km/h | 10568m | 5.9m/s | 0°C | 0% | 0hPa | 2.9V | 00:00:00 | 00:45:22 | 00:00:00 | |
| DM0DOS-11 | 2026-08-30 11:15:35 | 49.76462 | 7.79659 | 86° | 126km/h | 10541m | 5.1m/s | -47.8°C | 76.4% | 256.6hPa | 2.9V | 04:31:38 | 00:45:16 | 00:00:00 | |
| BIOWL1-15 | 2026-08-30 11:15:31 | 49.76431 | 7.79265 | 83° | 135km/h | 10506m | 4.2m/s | -47.5°C | 70% | 258hPa | 2.9V | 04:31:51 | 00:45:08 | 00:00:00 | |
| DK5PH-5 | 2026-08-30 11:15:30 | 49.76460 | 7.79610 | 86° | 128km/h | 10536m | 3.9m/s | -47.7°C | 77.0% | 256.7hPa | 2.8V | 00:00:00 | 00:45:15 | 00:00:00 | |
| HEMX73-11 | 2026-08-30 11:15:29 | 49.76460 | 7.79610 | 86° | 126km/h | 10536m | 3.9m/s | -47.7°C | 68.1% | 256.8hPa | 2.8V | 04:31:00 | 00:00:00 | 00:00:00 | |
| AU51GT2 | 2026-08-30 11:15:28 | 49.76453 | 7.79514 | 83° | 122km/h | 10528m | 5.3m/s | -47.7°C | 67.1% | 257.1hPa | 2.8V | 00:00:00 | 00:00:00 | 00:00:00 | |
| CB1BUN | 2026-08-30 11:15:25 | 49.76445 | 7.79418 | 83° | 128km/h | 10519m | 4.2m/s | -47.6°C | 67.2% | 257.4hPa | 2.8V | 04:31:00 | 00:00:00 | 00:00:00 | |
| DM0DOS-11 | 2026-08-30 11:15:24 | 49.76423 | 7.79160 | 84° | 131km/h | 10497m | 4.8m/s | -47.4°C | 77.1% | 258.3hPa | 2.8V | 04:31:48 | 00:45:06 | 00:00:00 | |
| DD1CC8 | 2026-08-30 11:15:24 | 49.76435 | 7.79317 | 82° | 133km/h | 10510m | 3.8m/s | -47.5°C | 67.4% | 257.8hPa | 2.9V | 00:00:00 | 00:00:00 | 00:00:00 | |
| DB0UT-7 | 2026-08-30 11:15:23 | 49.76430 | 7.79264 | 83° | 128km/h | 10506m | 4.2m/s | -47.4°C | 76.2% | 257.9hPa | 2.9V | 04:31:00 | 00:45:08 | 00:00:00 | |
| DL9PN | 2026-08-30 11:15:21 | 49.76420 | 7.79109 | 86° | 130km/h | 10493m | 4.0m/s | -47.4°C | 68.0% | 258.4hPa | 2.9V | 00:00:00 | 00:00:00 | 00:00:00 | |
| DM0DOS-11 | 2026-08-30 11:15:16 | 49.76391 | 7.78665 | 85° | 130km/h | 10448m | 4.5m/s | -47°C | 77.9% | 260.2hPa | 2.9V | 04:31:58 | 00:44:56 | 00:00:00 | |
| BIOWL1-15 | 2026-08-30 11:15:12 | 49.76378 | 7.78462 | 83° | 130km/h | 10428m | 4.5m/s | -46.8°C | 72.4% | 261hPa | 2.8V | 04:32:42 | 00:44:52 | 00:00:00 | |
| BIOWL1-15 | 2026-08-30 11:14:59 | 49.76348 | 7.78072 | 86° | 122km/h | 10390m | 3m/s | -46.5°C | 71.6% | 262.5hPa | 2.9V | 04:32:42 | 00:44:44 | 00:00:00 | |
| BIOWL1-15 | 2026-08-30 11:14:48 | 49.76302 | 7.77535 | 80° | 124km/h | 10342m | 3.9m/s | -46.2°C | 71.1% | 264.4hPa | 2.8V | 04:32:42 | 00:44:33 | 00:00:00 | |
| BIOWL1-15 | 2026-08-30 11:14:38 | 49.76257 | 7.77055 | 81° | 130km/h | 10282m | 5.5m/s | -45.8°C | 70.2% | 266.9hPa | 2.9V | 04:32:42 | 00:44:23 | 00:00:00 | |
| BIOWL1-15 | 2026-08-30 11:14:29 | 49.76221 | 7.76533 | 87° | 126km/h | 10214m | 6.4m/s | -45.3°C | 70.5% | 269.6hPa | 2.9V | 04:32:42 | 00:44:12 | 00:00:00 | |
| BIOWL1-15 | 2026-08-30 11:14:16 | 49.76182 | 7.76037 | 84° | 113km/h | 10141m | 7.8m/s | -44.8°C | 70.7% | 272.5hPa | 2.9V | 04:33:33 | 00:44:01 | 00:00:00 | |
| BIOWL1-15 | 2026-08-30 11:14:06 | 49.76144 | 7.75601 | 79° | 102km/h | 10073m | 4.6m/s | -44.2°C | 70.5% | 275.4hPa | 2.9V | 04:33:33 | 00:43:51 | 00:00:00 | |
| BIOWL1-15 | 2026-08-30 11:13:56 | 49.76101 | 7.75174 | 80° | 111km/h | 10015m | 3.1m/s | -43.8°C | 71.8% | 277.8hPa | 2.9V | 04:33:33 | 00:43:41 | 00:00:00 | |
| BIOWL1-15 | 2026-08-30 11:13:46 | 49.76060 | 7.74754 | 81° | 106km/h | 9954m | 6.1m/s | -43.3°C | 72.3% | 280.3hPa | 2.8V | 04:33:33 | 00:43:31 | 00:00:00 | |
| BIOWL1-15 | 2026-08-30 11:13:36 | 49.76011 | 7.74289 | 82° | 108km/h | 9896m | 4.5m/s | -42.9°C | 71.3% | 282.7hPa | 2.9V | 04:34:24 | 00:43:20 | 00:00:00 | |
| BIOWL1-15 | 2026-08-30 11:13:26 | 49.75980 | 7.73848 | 86° | 110km/h | 9851m | 5.2m/s | -42.5°C | 73.3% | 284.6hPa | 2.8V | 04:34:24 | 00:43:10 | 00:00:00 | |
| BIOWL1-15 | 2026-08-30 11:13:14 | 49.75939 | 7.73390 | 83° | 110km/h | 9775m | 6.6m/s | -42°C | 72.9% | 287.8hPa | 2.9V | 04:34:24 | 00:42:59 | 00:00:00 | |
| DM0DOS-11 | 2026-08-30 11:13:05 | 49.75897 | 7.72977 | 80° | 108km/h | 9716m | 7.1m/s | -41.5°C | 80% | 290.3hPa | 2.9V | 04:34:05 | 00:42:49 | 00:00:00 | |
| BIOWL1-15 | 2026-08-30 11:13:03 | 49.75893 | 7.72935 | 80° | 106km/h | 9709m | 6.1m/s | -41.4°C | 74% | 290.6hPa | 2.8V | 04:34:24 | 00:42:48 | 00:00:00 | |
| CB1BUN | 2026-08-30 11:13:03 | 49.75892 | 7.72935 | 81° | 106km/h | 9709m | 6.1m/s | -41.4°C | 72.1% | 290.6hPa | 2.9V | 04:34:00 | 00:00:00 | 00:00:00 | |
| DL1ZP-14 | 2026-08-30 11:13:02 | 49.75883 | 7.72854 | 79° | 104km/h | 9696m | 4.0m/s | -41.3°C | 71.7% | 291.2hPa | 2.9V | 00:00:00 | 00:00:00 | 00:00:00 | |
| DK5PH-5 | 2026-08-30 11:13:00 | 49.75878 | 7.72814 | 80° | 104km/h | 9690m | 7.8m/s | -41.2°C | 78.9% | 291.4hPa | 2.9V | 00:00:00 | 00:42:45 | 00:00:00 | |
| DM0DOS-11 | 2026-08-30 11:12:59 | 49.75850 | 7.72566 | 80° | 111km/h | 9657m | 5m/s | -40.9°C | 81.4% | 292.9hPa | 2.9V | 04:34:15 | 00:42:39 | 00:00:00 | |
| BIOWL1-15 | 2026-08-30 11:12:53 | 49.75845 | 7.72524 | 80° | 110km/h | 9653m | 4m/s | -40.9°C | 73.2% | 293.1hPa | 2.9V | 04:34:24 | 00:42:38 | 00:00:00 | |
| DD1CC8 | 2026-08-30 11:12:49 | 49.75820 | 7.72325 | 80° | 102km/h | 9629m | 6.3m/s | -40.7°C | 74.4% | 294.1hPa | 2.8V | 00:00:00 | 00:00:00 | 00:00:00 | |
| DL9SK-14 | 2026-08-30 11:12:48 | 49.75817 | 7.72285 | 82° | 102km/h | 9624m | 4.6m/s | -40.7°C | 74.3% | 294.3hPa | 2.8V | 00:00:00 | 00:00:00 | 00:00:00 | |
| DL9PN | 2026-08-30 11:12:46 | 49.75813 | 7.72245 | 81° | 102km/h | 9619m | 4.7m/s | -40.7°C | 73.6% | 294.6hPa | 2.8V | 00:00:00 | 00:00:00 | 00:00:00 | |
| DM0DOS-11 | 2026-08-30 11:12:45 | 49.75805 | 7.72167 | 79° | 99km/h | 9606m | 6.4m/s | -40.6°C | 80.5% | 295.1hPa | 2.8V | 04:34:25 | 00:42:29 | 00:00:00 | |
| BIOWL1-15 | 2026-08-30 11:12:42 | 49.75795 | 7.72091 | 78° | 100km/h | 9597m | 6m/s | -40.5°C | 73.9% | 295.5hPa | 2.9V | 04:35:15 | 00:42:27 | 00:00:00 | |
| CB1BUN | 2026-08-30 11:12:41 | 49.75795 | 7.72091 | 79° | 100km/h | 9597m | 6.0m/s | -40.5°C | 72.9% | 295.5hPa | 2.9V | 04:35:00 | 00:00:00 | 00:00:00 | |
| DM0DOS-11 | 2026-08-30 11:12:38 | 49.75751 | 7.71774 | 79° | 104km/h | 9557m | 5.7m/s | -40.1°C | 78.9% | 297.2hPa | 2.9V | 04:34:35 | 00:42:19 | 00:00:00 | |
| BIOWL1-15 | 2026-08-30 11:12:31 | 49.75736 | 7.71652 | 80° | 106km/h | 9542m | 6m/s | -40°C | 71.4% | 297.8hPa | 2.9V | 04:35:15 | 00:42:16 | 00:00:00 | |
| BIOWL1-15 | 2026-08-30 11:12:21 | 49.75677 | 7.71253 | 83° | 97km/h | 9496m | 4.1m/s | -39.6°C | 71.7% | 299.8hPa | 2.9V | 04:35:15 | 00:42:06 | 00:00:00 | |
| DB0UT-7 | 2026-08-30 11:12:20 | 49.75674 | 7.71215 | 85° | 106km/h | 9492m | 4.3m/s | -39.5°C | 81.0% | 299.9hPa | 2.9V | 00:00:00 | 00:42:05 | 00:00:00 | |
| DM0DOS-11 | 2026-08-30 11:12:18 | 49.75644 | 7.70970 | 76° | 110km/h | 9462m | 5.8m/s | -39.3°C | 82.1% | 301.3hPa | 2.9V | 04:34:55 | 00:41:59 | 00:00:00 | |
| BIOWL1-15 | 2026-08-30 11:12:11 | 49.75619 | 7.70777 | 80° | 97km/h | 9432m | 5.1m/s | -39.1°C | 75.9% | 302.6hPa | 2.8V | 04:35:15 | 00:41:54 | 00:00:00 | |
| DM0DOS-11 | 2026-08-30 11:12:05 | 49.75580 | 7.70491 | 73° | 110km/h | 9396m | 2.9m/s | -38.7°C | 83.3% | 304.2hPa | 2.9V | 04:35:07 | 00:41:47 | 00:00:00 | |
| BIOWL1-15 | 2026-08-30 11:12:03 | 49.75572 | 7.70450 | 73° | 110km/h | 9391m | 6.6m/s | -38.7°C | 75.4% | 304.4hPa | 2.8V | 04:35:15 | 00:41:46 | 00:00:00 | |
| BIOWL1-15 | 2026-08-30 11:11:51 | 49.75512 | 7.70035 | 82° | 115km/h | 9338m | 6.7m/s | -38.2°C | 74.2% | 306.8hPa | 2.9V | 04:36:06 | 00:41:36 | 00:00:00 | |
| DL9SK-14 | 2026-08-30 11:11:46 | 49.75477 | 7.69798 | 74° | 97km/h | 9305m | 7.0m/s | -37.9°C | 74.4% | 308.3hPa | 2.9V | 00:00:00 | 00:00:00 | 00:00:00 | |
| BIOWL1-15 | 2026-08-30 11:11:40 | 49.75443 | 7.69591 | 78° | 111km/h | 9274m | 6.3m/s | -37.6°C | 73.8% | 309.6hPa | 2.9V | 04:36:06 | 00:41:25 | 00:00:00 | |
| DM0DOS-11 | 2026-08-30 11:11:39 | 49.75424 | 7.69431 | 79° | 102km/h | 9254m | 4.5m/s | -37.4°C | 80% | 310.6hPa | 2.9V | 04:35:33 | 00:41:21 | 00:00:00 | |
| BIOWL1-15 | 2026-08-30 11:11:31 | 49.75384 | 7.69075 | 82° | 106km/h | 9205m | 5.5m/s | -37°C | 77% | 312.8hPa | 2.9V | 04:36:06 | 00:41:12 | 00:00:00 | |
| DM3KS-11 | 2026-08-30 11:11:31 | 49.75395 | 7.69197 | 82° | 102km/h | 9222m | 5.9m/s | -37.1°C | 72.9% | 312.1hPa | 2.9V | 00:00:00 | 00:00:00 | 00:00:00 | |
| DK5PH-5 | 2026-08-30 11:11:30 | 49.75395 | 7.69197 | 83° | 106km/h | 9222m | 5.9m/s | -37.1°C | 79.4% | 312.0hPa | 2.9V | 00:00:00 | 00:41:15 | 00:00:00 | |
| DL1ZP-14 | 2026-08-30 11:11:28 | 49.75388 | 7.69116 | 82° | 106km/h | 9211m | 6.6m/s | -37.0°C | 74.7% | 312.6hPa | 2.9V | 00:00:00 | 00:00:00 | 00:00:00 | |
| BIOWL9-15 | 2026-08-30 11:11:26 | 49.75380 | 7.69034 | 81° | 102km/h | 9199m | 5.8m/s | -37.0°C | 79.2% | 313.1hPa | 2.9V | 00:00:00 | 00:00:00 | 00:00:00 | |
| DM0DOS-11 | 2026-08-30 11:11:25 | 49.75351 | 7.68823 | 74° | 115km/h | 9176m | 5.1m/s | -37°C | 86.3% | 314.2hPa | 2.9V | 04:35:48 | 00:41:06 | 00:00:00 | |
| BIOWL1-15 | 2026-08-30 11:11:19 | 49.75294 | 7.68530 | 74° | 106km/h | 9141m | 8.6m/s | -36.9°C | 78.3% | 315.8hPa | 2.9V | 04:36:06 | 00:40:59 | 00:00:00 | |
| BIOWL1-15 | 2026-08-30 11:11:09 | 49.75261 | 7.68329 | 75° | 108km/h | 9106m | 5.9m/s | -36.6°C | 75.3% | 317.4hPa | 2.9V | 04:36:06 | 00:40:54 | 00:00:00 | |
| DM0DOS-11 | 2026-08-30 11:11:05 | 49.75222 | 7.68023 | 77° | 99km/h | 9066m | 5.2m/s | -36.4°C | 80.5% | 319.2hPa | 2.9V | 04:36:08 | 00:40:46 | 00:00:00 | |
| BIOWL1-15 | 2026-08-30 11:10:58 | 49.75185 | 7.67838 | 72° | 99km/h | 9039m | 5.9m/s | -36.2°C | 71.6% | 320.5hPa | 2.9V | 04:36:57 | 00:40:41 | 00:00:00 | |
| DL1ZP-14 | 2026-08-30 11:10:57 | 49.75193 | 7.67875 | 71° | 99km/h | 9045m | 6.1m/s | -36.2°C | 71.6% | 320.2hPa | 2.8V | 00:00:00 | 00:00:00 | 00:00:00 | |
| BIOWL9-15 | 2026-08-30 11:10:56 | 49.75178 | 7.67801 | 75° | 99km/h | 9033m | 7.7m/s | -36.2°C | 71.1% | 320.7hPa | 2.9V | 00:00:00 | 00:00:00 | 00:00:00 | |
| DM0DOS-11 | 2026-08-30 11:10:54 | 49.75155 | 7.67646 | 77° | 100km/h | 9008m | 6m/s | -36°C | 76.8% | 321.9hPa | 2.9V | 04:36:18 | 00:40:36 | 00:00:00 | |
| BIOWL1-15 | 2026-08-30 11:10:48 | 49.75140 | 7.67539 | 79° | 89km/h | 8988m | 7.8m/s | -35.9°C | 71.5% | 322.9hPa | 2.8V | 04:36:57 | 00:40:33 | 00:00:00 | |
| DB0UT-7 | 2026-08-30 11:10:48 | 49.75140 | 7.67539 | 80° | 95km/h | 8989m | 7.8m/s | -35.9°C | 75.9% | 322.8hPa | 2.9V | 00:00:00 | 00:00:00 | 00:00:00 | |
| DM0DOS-11 | 2026-08-30 11:10:45 | 49.75103 | 7.67272 | 75° | 99km/h | 8950m | 5.1m/s | -35.6°C | 76.4% | 324.6hPa | 2.9V | 04:36:28 | 00:40:26 | 00:00:00 | |
| BIOWL1-15 | 2026-08-30 11:10:38 | 49.75083 | 7.67165 | 74° | 91km/h | 8933m | 5.1m/s | -35.5°C | 70.5% | 325.4hPa | 2.9V | 04:36:57 | 00:40:23 | 00:00:00 | |
| DM0DOS-11 | 2026-08-30 11:10:33 | 49.75039 | 7.66919 | 71° | 95km/h | 8896m | 5.4m/s | -35.2°C | 74.8% | 327.1hPa | 2.8V | 04:36:38 | 00:40:16 | 00:00:00 | |
| BIOWL1-15 | 2026-08-30 11:10:28 | 49.75019 | 7.66811 | 76° | 97km/h | 8880m | 5.8m/s | -35.1°C | 69.9% | 327.9hPa | 2.9V | 04:36:57 | 00:40:13 | 00:00:00 | |
| BIOWL9-15 | 2026-08-30 11:10:24 | 49.74994 | 7.66665 | 74° | 93km/h | 8860m | 4.8m/s | -34.9°C | 71.8% | 328.9hPa | 2.9V | 00:00:00 | 00:00:00 | 00:00:00 | |
| DO1YAY-16 | 2026-08-30 11:10:23 | 49.74988 | 7.66630 | 76° | 89km/h | 8854m | 6.7m/s | -34.9°C | 72.1% | 329.2hPa | 2.9V | 00:00:00 | 00:00:00 | 00:00:00 | |
| HEMX73-11 | 2026-08-30 11:10:21 | 49.74983 | 7.66596 | 77° | 91km/h | 8848m | 6.1m/s | -34.8°C | 72.1% | 329.5hPa | 2.9V | 04:36:00 | 00:00:00 | 00:00:00 | |
| DM0DOS-11 | 2026-08-30 11:10:19 | 49.74965 | 7.66493 | 72° | 89km/h | 8829m | 6.2m/s | -34.7°C | 77.3% | 330.3hPa | 2.9V | 04:36:50 | 00:40:04 | 00:00:00 | |
| BIOWL1-15 | 2026-08-30 11:10:18 | 49.74958 | 7.66460 | 70° | 89km/h | 8823m | 6.2m/s | -34.6°C | 72.6% | 330.7hPa | 2.9V | 04:36:57 | 00:40:03 | 00:00:00 | |
| DB0UT-7 | 2026-08-30 11:10:18 | 49.74958 | 7.66460 | 70° | 93km/h | 8823m | 6.2m/s | -34.6°C | 77.0% | 330.6hPa | 2.9V | 04:36:00 | 00:40:03 | 00:00:00 | |
| DM0DOS-11 | 2026-08-30 11:10:13 | 49.74905 | 7.66151 | 77° | 89km/h | 8774m | 6.6m/s | -34.3°C | 78.5% | 333hPa | 2.9V | 04:37:00 | 00:39:54 | 00:00:00 | |
| BIOWL1-15 | 2026-08-30 11:10:09 | 49.74893 | 7.66083 | 74° | 91km/h | 8762m | 5.9m/s | -34.2°C | 72.3% | 333.6hPa | 2.9V | 04:37:48 | 00:39:52 | 00:00:00 | |
| BIOWL1-15 | 2026-08-30 11:10:00 | 49.74829 | 7.65701 | 72° | 89km/h | 8701m | 7.1m/s | -33.6°C | 67.2% | 336.6hPa | 2.8V | 04:37:48 | 00:39:41 | 00:00:00 | |
| DM0DOS-11 | 2026-08-30 11:09:59 | 49.74847 | 7.65802 | 77° | 91km/h | 8719m | 6m/s | -33.8°C | 75.2% | 335.8hPa | 2.9V | 04:37:10 | 00:39:44 | 00:00:00 | |
| DM3KS-11 | 2026-08-30 11:09:58 | 49.74835 | 7.65735 | 74° | 89km/h | 8708m | 6.3m/s | -33.7°C | 66.8% | 336.3hPa | 2.9V | 00:00:00 | 00:00:00 | 00:00:00 | |
| DL1ZP-14 | 2026-08-30 11:09:55 | 49.74822 | 7.65667 | 74° | 89km/h | 8696m | 4.7m/s | -33.6°C | 65.5% | 336.9hPa | 2.9V | 00:00:00 | 00:00:00 | 00:00:00 | |
| DM0DOS-11 | 2026-08-30 11:09:54 | 49.74791 | 7.65456 | 76° | 95km/h | 8658m | 6.7m/s | -33.2°C | 72.2% | 338.7hPa | 2.9V | 04:37:20 | 00:39:34 | 00:00:00 | |
| BIOWL1-15 | 2026-08-30 11:09:46 | 49.74774 | 7.65346 | 78° | 95km/h | 8643m | 4m/s | -33.1°C | 68.2% | 339.4hPa | 2.8V | 04:37:48 | 00:39:31 | 00:00:00 | |
| BIOWL1-15 | 2026-08-30 11:09:35 | 49.74715 | 7.64965 | 75° | 93km/h | 8586m | 5.3m/s | -32.7°C | 68% | 342.1hPa | 2.9V | 04:37:48 | 00:39:20 | 00:00:00 | |
| BIOWL1-15 | 2026-08-30 11:09:26 | 49.74661 | 7.64607 | 79° | 88km/h | 8529m | 4.9m/s | -32.2°C | 65.8% | 344.9hPa | 2.9V | 04:37:48 | 00:39:09 | 00:00:00 | |
| DL1ZP-14 | 2026-08-30 11:09:24 | 49.74661 | 7.64607 | 78° | 86km/h | 8529m | 4.9m/s | -32.2°C | 65.7% | 344.9hPa | 2.9V | 00:00:00 | 00:00:00 | 00:00:00 | |
| DM0DOS-11 | 2026-08-30 11:09:23 | 49.74630 | 7.64416 | 75° | 77km/h | 8500m | 3.2m/s | -32°C | 71.2% | 346.3hPa | 2.8V | 04:37:51 | 00:39:03 | 00:00:00 | |
| BIOWL1-15 | 2026-08-30 11:09:14 | 49.74609 | 7.64288 | 77° | 93km/h | 8479m | 7.9m/s | -31.9°C | 67.3% | 347.2hPa | 2.9V | 04:38:39 | 00:38:59 | 00:00:00 | |
| DM0DOS-11 | 2026-08-30 11:09:09 | 49.74573 | 7.64076 | 73° | 88km/h | 8442m | 4.9m/s | -31.5°C | 72.6% | 349.2hPa | 2.8V | 04:38:01 | 00:38:53 | 00:00:00 | |
| BIOWL1-15 | 2026-08-30 11:09:03 | 49.74531 | 7.63853 | 74° | 86km/h | 8393m | 6.9m/s | -31.1°C | 68.4% | 351.4hPa | 2.8V | 04:38:39 | 00:38:46 | 00:00:00 | |
| DM0DOS-11 | 2026-08-30 11:09:03 | 49.74515 | 7.63758 | 79° | 82km/h | 8373m | 6.5m/s | -30.9°C | 70.1% | 352.5hPa | 2.9V | 04:38:11 | 00:38:43 | 00:00:00 | |
| BIOWL1-15 | 2026-08-30 11:08:50 | 49.74477 | 7.63498 | 75° | 86km/h | 8329m | 5.3m/s | -30.6°C | 65.5% | 354.7hPa | 2.9V | 04:38:39 | 00:38:35 | 00:00:00 | |
| DO1YAY-16 | 2026-08-30 11:08:50 | 49.74471 | 7.63466 | 75° | 86km/h | 8324m | 5.1m/s | -30.5°C | 64.9% | 354.9hPa | 2.9V | 00:00:00 | 00:00:00 | 00:00:00 | |
| DB0UT-9 | 2026-08-30 11:08:47 | 49.74466 | 7.63433 | 78° | 84km/h | 8319m | 5.7m/s | -30.5°C | 64.1% | 355.2hPa | 2.9V | 04:38:00 | 00:00:00 | 00:00:00 | |
| DB0UT-7 | 2026-08-30 11:08:46 | 49.74456 | 7.63369 | 75° | 84km/h | 8307m | 6.3m/s | -30.4°C | 65.8% | 355.7hPa | 2.9V | 00:00:00 | 00:00:00 | 00:00:00 | |
| DM0DOS-11 | 2026-08-30 11:08:41 | 49.74403 | 7.63064 | 78° | 86km/h | 8249m | 5.2m/s | -30.2°C | 62.4% | 358.6hPa | 2.8V | 04:38:33 | 00:38:21 | 00:00:00 | |
| BIOWL1-15 | 2026-08-30 11:08:39 | 49.74416 | 7.63160 | 77° | 80km/h | 8263m | 4.5m/s | -30.3°C | 59.1% | 357.9hPa | 2.9V | 04:38:39 | 00:38:24 | 00:00:00 | |
| BIOWL1-15 | 2026-08-30 11:08:28 | 49.74348 | 7.62743 | 78° | 89km/h | 8188m | 4.5m/s | -29.7°C | 59.2% | 361.8hPa | 2.9V | 04:39:30 | 00:38:11 | 00:00:00 | |
| DM0DOS-11 | 2026-08-30 11:08:27 | 49.74327 | 7.62608 | 75° | 84km/h | 8171m | 3.7m/s | -29.5°C | 60.5% | 362.6hPa | 2.9V | 04:38:47 | 00:38:07 | 00:00:00 | |
| BIOWL1-15 | 2026-08-30 11:08:20 | 49.74306 | 7.62483 | 74° | 82km/h | 8154m | 4.4m/s | -29.3°C | 57.5% | 363.5hPa | 2.9V | 04:39:30 | 00:38:03 | 00:00:00 | |
| BIOWL1-15 | 2026-08-30 11:08:10 | 49.74250 | 7.62150 | 74° | 84km/h | 8113m | 3.9m/s | -29°C | 57.1% | 365.6hPa | 2.9V | 04:39:30 | 00:37:53 | 00:00:00 | |
| DL8DAS-14 | 2026-08-30 11:08:09 | 49.74250 | 7.62150 | 74° | 82km/h | 8113m | 3.9m/s | -29.0°C | 55.3% | 365.6hPa | 2.9V | 00:00:00 | 00:00:00 | 00:00:00 | |
| DL9SK-14 | 2026-08-30 11:08:08 | 49.74244 | 7.62119 | 73° | 84km/h | 8108m | 4.3m/s | -29.0°C | 55.4% | 365.8hPa | 2.9V | 00:00:00 | 00:00:00 | 00:00:00 | |
| DL9PN | 2026-08-30 11:08:06 | 49.74238 | 7.62087 | 73° | 86km/h | 8104m | 5.3m/s | -29.0°C | 54.8% | 366.0hPa | 2.9V | 00:00:00 | 00:00:00 | 00:00:00 | |
| DM0DOS-11 | 2026-08-30 11:08:05 | 49.74213 | 7.61959 | 72° | 86km/h | 8081m | 7.2m/s | -28.8°C | 51.5% | 367.2hPa | 2.9V | 04:39:07 | 00:37:47 | 00:00:00 | |
| BIOWL1-15 | 2026-08-30 11:07:57 | 49.74180 | 7.61803 | 72° | 84km/h | 8052m | 3.6m/s | -28.6°C | 43.7% | 368.8hPa | 2.9V | 04:39:30 | 00:37:42 | 00:00:00 | |
| DB0ND-19 | 2026-08-30 11:07:56 | 49.74173 | 7.61771 | 74° | 86km/h | 8047m | 5.8m/s | -28.5°C | 41.6% | 369.0hPa | 2.9V | 00:00:00 | 00:00:00 | 00:00:00 | |
| DM0DOS-11 | 2026-08-30 11:07:55 | 49.74156 | 7.61637 | 79° | 91km/h | 8028m | 5m/s | -28.4°C | 48% | 369.9hPa | 2.9V | 04:39:17 | 00:37:37 | 00:00:00 | |
| BIOWL1-15 | 2026-08-30 11:07:47 | 49.74127 | 7.61391 | 77° | 89km/h | 7988m | 5m/s | -28.2°C | 44% | 372hPa | 2.9V | 04:39:30 | 00:37:30 | 00:00:00 | |
| DM0DOS-11 | 2026-08-30 11:07:45 | 49.74107 | 7.61288 | 68° | 91km/h | 7969m | 5.7m/s | -28°C | 41.3% | 372.9hPa | 2.9V | 04:39:27 | 00:37:27 | 00:00:00 | |
| DB0UT-7 | 2026-08-30 11:07:45 | 49.74127 | 7.61391 | 78° | 80km/h | 7988m | 4.9m/s | -28.1°C | 44.4% | 371.9hPa | 2.9V | 04:39:00 | 00:00:00 | 00:00:00 | |
| DL8DAS-14 | 2026-08-30 11:07:38 | 49.74075 | 7.61140 | 77° | 73km/h | 7935m | 7.9m/s | -27.8°C | 25.6% | 374.7hPa | 2.9V | 00:00:00 | 00:00:00 | 00:00:00 | |
| DL9SK-14 | 2026-08-30 11:07:37 | 49.74075 | 7.61140 | 77° | 73km/h | 7935m | 7.9m/s | -27.8°C | 25.6% | 374.7hPa | 2.9V | 00:00:00 | 00:00:00 | 00:00:00 | |
| DM0DOS-11 | 2026-08-30 11:07:35 | 49.74053 | 7.60995 | 71° | 75km/h | 7905m | 4.9m/s | -27.5°C | 24.6% | 376.2hPa | 2.9V | 04:39:37 | 00:37:17 | 00:00:00 | |
| BIOWL1-15 | 2026-08-30 11:07:35 | 49.74068 | 7.61081 | 78° | 78km/h | 7923m | 4.9m/s | -27.7°C | 26.8% | 375.3hPa | 2.9V | 04:40:21 | 00:37:20 | 00:00:00 | |
| CB1BUN | 2026-08-30 11:07:34 | 49.74068 | 7.61081 | 79° | 78km/h | 7923m | 4.9m/s | -27.7°C | 23.3% | 375.3hPa | 2.9V | 04:40:00 | 00:00:00 | 00:00:00 | |
| BIOWL7-15 | 2026-08-30 11:07:33 | 49.74063 | 7.61051 | 78° | 77km/h | 7918m | 5.9m/s | 0°C | 0% | 375.6hPa | 2.9V | 00:00:00 | 00:00:00 | 00:00:00 | |
| DM0DOS-11 | 2026-08-30 11:07:27 | 49.73984 | 7.60698 | 74° | 69km/h | 7853m | 6.3m/s | -27.1°C | 23.9% | 379.1hPa | 2.9V | 04:39:47 | 00:37:07 | 00:00:00 | |
| BIOWL1-15 | 2026-08-30 11:07:27 | 49.74001 | 7.60782 | 71° | 84km/h | 7870m | 6.2m/s | -27.2°C | 25.9% | 378.2hPa | 2.9V | 04:40:21 | 00:37:10 | 00:00:00 | |
| DB0ND-19 | 2026-08-30 11:07:25 | 49.74001 | 7.60782 | 70° | 84km/h | 7870m | 6.2m/s | -27.2°C | 22.2% | 378.2hPa | 2.9V | 00:00:00 | 00:00:00 | 00:00:00 | |
| DM3KS-11 | 2026-08-30 11:07:22 | 49.73984 | 7.60698 | 74° | 68km/h | 7853m | 6.3m/s | -27.1°C | 21.9% | 379.1hPa | 2.9V | 00:00:00 | 00:00:00 | 00:00:00 | |
| DL1ZP-14 | 2026-08-30 11:07:20 | 49.73966 | 7.60619 | 69° | 77km/h | 7839m | 3.8m/s | -27.0°C | 23.3% | 379.8hPa | 2.9V | 00:00:00 | 00:00:00 | 00:00:00 | |
| BIOWL9-15 | 2026-08-30 11:07:18 | 49.73951 | 7.60558 | 70° | 86km/h | 7830m | 6.0m/s | -27.0°C | 24.1% | 380.3hPa | 2.9V | 00:00:00 | 00:00:00 | 00:00:00 | |
| DO1YAY-16 | 2026-08-30 11:07:17 | 49.73944 | 7.60525 | 72° | 88km/h | 7824m | 6.2m/s | -26.9°C | 24.6% | 380.6hPa | 2.9V | 00:00:00 | 00:00:00 | 00:00:00 | |
| DM0DOS-11 | 2026-08-30 11:07:15 | 49.73917 | 7.60389 | 71° | 93km/h | 7799m | 5.6m/s | -26.8°C | 28.4% | 381.9hPa | 2.9V | 04:39:57 | 00:36:57 | 00:00:00 | |
| BIOWL1-15 | 2026-08-30 11:07:14 | 49.73931 | 7.60458 | 74° | 91km/h | 7811m | 6.8m/s | -26.9°C | 29.5% | 381.3hPa | 2.9V | 04:40:21 | 00:36:59 | 00:00:00 | |
| HEMX73-6 | 2026-08-30 11:07:13 | 49.73924 | 7.60423 | 73° | 62km/h | 7805m | 5.2m/s | -26.8°C | 28.3% | 381.6hPa | 2.9V | 04:39:00 | 00:36:58 | 00:00:00 | |
| DB0UT-7 | 2026-08-30 11:07:12 | 49.73917 | 7.60388 | 72° | 84km/h | 7800m | 5.6m/s | -26.8°C | 28.4% | 381.8hPa | 2.9V | 00:00:00 | 00:36:57 | 00:00:00 | |
| DL8DAS-14 | 2026-08-30 11:07:07 | 49.73872 | 7.60213 | 68° | 75km/h | 7772m | 4.6m/s | -26.6°C | 27.7% | 383.4hPa | 2.8V | 00:00:00 | 00:00:00 | 00:00:00 | |
| DL9SK-14 | 2026-08-30 11:07:06 | 49.73866 | 7.60185 | 71° | 77km/h | 7768m | 3.4m/s | -26.6°C | 27.8% | 383.6hPa | 2.8V | 00:00:00 | 00:00:00 | 00:00:00 | |
| DM0DOS-11 | 2026-08-30 11:07:05 | 49.73848 | 7.60093 | 74° | 84km/h | 7753m | 5.9m/s | -26.5°C | 29% | 384.3hPa | 2.8V | 04:40:07 | 00:36:47 | 00:00:00 | |
| BIOWL1-15 | 2026-08-30 11:07:04 | 49.73854 | 7.60125 | 75° | 82km/h | 7759m | 5.7m/s | -26.5°C | 31.1% | 384.1hPa | 2.9V | 04:40:21 | 00:36:48 | 00:00:00 | |
| DM0DOS-11 | 2026-08-30 11:06:55 | 49.73779 | 7.59777 | 68° | 77km/h | 7703m | 3.6m/s | -26°C | 21.3% | 387hPa | 2.9V | 04:40:17 | 00:36:37 | 00:00:00 | |
| BIOWL1-15 | 2026-08-30 11:06:52 | 49.73755 | 7.59662 | 75° | 84km/h | 7687m | 6m/s | -25.9°C | 20.3% | 387.9hPa | 2.8V | 04:40:21 | 00:36:33 | 00:00:00 | |
| DM3KS-11 | 2026-08-30 11:06:52 | 49.73772 | 7.59749 | 70° | 75km/h | 7699m | 4.2m/s | -26.0°C | 18.5% | 387.2hPa | 2.8V | 00:00:00 | 00:00:00 | 00:00:00 | |
| DL1ZP-14 | 2026-08-30 11:06:49 | 49.73755 | 7.59662 | 74° | 82km/h | 7687m | 6.0m/s | -25.9°C | 17.5% | 387.9hPa | 2.8V | 00:00:00 | 00:00:00 | 00:00:00 | |
| BIOWL9-15 | 2026-08-30 11:06:47 | 49.73743 | 7.59597 | 74° | 88km/h | 7679m | 5.2m/s | -25.8°C | 16.0% | 388.3hPa | 2.9V | 00:00:00 | 00:00:00 | 00:00:00 | |
| DM0DOS-11 | 2026-08-30 11:06:45 | 49.73716 | 7.59464 | 69° | 82km/h | 7661m | 4.3m/s | -25.7°C | 15.6% | 389.2hPa | 2.9V | 04:40:27 | 00:36:27 | 00:00:00 | |
| BIOWL1-15 | 2026-08-30 11:06:37 | 49.73657 | 7.59198 | 73° | 82km/h | 7623m | 5.5m/s | -25.4°C | 13.6% | 391.3hPa | 2.9V | 04:41:12 | 00:36:18 | 00:00:00 | |
| DM0DOS-11 | 2026-08-30 11:06:35 | 49.73650 | 7.59168 | 72° | 80km/h | 7618m | 5.3m/s | -25.3°C | 11.3% | 391.6hPa | 2.9V | 04:40:37 | 00:36:17 | 00:00:00 | |
| BIOWL1-15 | 2026-08-30 11:06:28 | 49.73611 | 7.58985 | 72° | 84km/h | 7592m | 4.5m/s | -25.1°C | 9.5% | 393.1hPa | 2.9V | 04:41:12 | 00:36:11 | 00:00:00 | |
| BIOWL1-15 | 2026-08-30 11:06:15 | 49.73548 | 7.58652 | 68° | 78km/h | 7545m | 5.3m/s | -24.8°C | 9.7% | 395.6hPa | 2.9V | 04:41:12 | 00:36:00 | 00:00:00 | |
| DM0DOS-11 | 2026-08-30 11:06:15 | 49.73512 | 7.58496 | 72° | 84km/h | 7524m | 6.9m/s | -24.7°C | 9.2% | 396.7hPa | 2.9V | 04:40:59 | 00:35:55 | 00:00:00 | |
| BIOWL1-15 | 2026-08-30 11:06:05 | 49.73487 | 7.58350 | 75° | 78km/h | 7497m | 4.4m/s | -24.5°C | 9.5% | 398.2hPa | 2.9V | 04:41:12 | 00:35:50 | 00:00:00 | |
| DL8DAS-14 | 2026-08-30 11:06:05 | 49.73482 | 7.58320 | 73° | 78km/h | 7493m | 3.8m/s | -24.4°C | 8.7% | 398.4hPa | 2.9V | 00:00:00 | 00:00:00 | 00:00:00 | |
| DL9SK-14 | 2026-08-30 11:06:04 | 49.73476 | 7.58289 | 73° | 84km/h | 7489m | 4.2m/s | -24.4°C | 8.9% | 398.6hPa | 2.9V | 00:00:00 | 00:00:00 | 00:00:00 | |
| DM0DOS-11 | 2026-08-30 11:06:02 | 49.73434 | 7.58086 | 71° | 95km/h | 7467m | 4m/s | -24.3°C | 10.8% | 399.8hPa | 2.9V | 04:41:12 | 00:35:42 | 00:00:00 | |
| BIOWL1-15 | 2026-08-30 11:05:54 | 49.73403 | 7.57922 | 75° | 77km/h | 7447m | 4.4m/s | -24.1°C | 11.8% | 400.9hPa | 2.9V | 04:42:03 | 00:35:37 | 00:00:00 | |
| HEMX73-11 | 2026-08-30 11:05:53 | 49.73414 | 7.57984 | 75° | 86km/h | 7456m | 4.3m/s | -24.2°C | 10.2% | 400.4hPa | 2.9V | 04:42:00 | 00:00:00 | 00:00:00 | |
| DM0DOS-11 | 2026-08-30 11:05:52 | 49.73384 | 7.57765 | 78° | 91km/h | 7419m | 5.3m/s | -23.9°C | 11.1% | 402.4hPa | 2.9V | 04:41:22 | 00:35:32 | 00:00:00 | |
| DM3KS-11 | 2026-08-30 11:05:49 | 49.73392 | 7.57833 | 82° | 82km/h | 7430m | 6.4m/s | -24.0°C | 10.1% | 401.8hPa | 2.9V | 00:00:00 | 00:00:00 | 00:00:00 | |
| DL1ZP-14 | 2026-08-30 11:05:47 | 49.73380 | 7.57730 | 79° | 91km/h | 7414m | 6.0m/s | -23.9°C | 10.0% | 402.7hPa | 2.9V | 00:00:00 | 00:00:00 | 00:00:00 | |
| BIOWL1-15 | 2026-08-30 11:05:41 | 49.73360 | 7.57559 | 76° | 88km/h | 7383m | 5.7m/s | -23.6°C | 11.6% | 404.4hPa | 2.9V | 04:42:03 | 00:35:26 | 00:00:00 | |
| DM0DOS-11 | 2026-08-30 11:05:41 | 49.73338 | 7.57398 | 77° | 82km/h | 7348m | 6.3m/s | -23.4°C | 10.5% | 406.3hPa | 2.9V | 04:41:33 | 00:35:21 | 00:00:00 | |
| BIOWL1-15 | 2026-08-30 11:05:31 | 49.73312 | 7.57236 | 74° | 84km/h | 7321m | 5.4m/s | -23.2°C | 10.5% | 407.7hPa | 2.9V | 04:42:03 | 00:35:16 | 00:00:00 | |
| DL8DAS-15 | 2026-08-30 11:05:28 | 49.73300 | 7.57174 | 72° | 82km/h | 7310m | 5.3m/s | 0°C | 0% | 0hPa | 2.9V | 00:00:00 | 00:00:00 | 00:00:00 | |
| DM0DOS-11 | 2026-08-30 11:05:26 | 49.73279 | 7.57083 | 72° | 80km/h | 7296m | 5.1m/s | -23.1°C | 10% | 409.2hPa | 2.9V | 04:41:43 | 00:35:11 | 00:00:00 | |
| BIOWL1-15 | 2026-08-30 11:05:22 | 49.73218 | 7.56817 | 73° | 84km/h | 7255m | 4.6m/s | -22.7°C | 9.8% | 411.6hPa | 2.9V | 04:42:03 | 00:35:02 | 00:00:00 | |
| DM0DOS-11 | 2026-08-30 11:05:21 | 49.73212 | 7.56785 | 74° | 86km/h | 7250m | 3.8m/s | -22.7°C | 9.5% | 411.9hPa | 2.9V | 04:41:53 | 00:35:01 | 00:00:00 | |
| DM3KS-11 | 2026-08-30 11:05:18 | 49.73224 | 7.56848 | 68° | 78km/h | 7259m | 3.6m/s | -22.8°C | 8.8% | 411.4hPa | 2.8V | 00:00:00 | 00:00:00 | 00:00:00 | |
| DH7VM-15 | 2026-08-30 11:05:15 | 49.73212 | 7.56785 | 76° | 88km/h | 7251m | 3.8m/s | -22.7°C | 8.6% | 411.9hPa | 2.8V | 00:00:00 | 00:00:00 | 00:00:00 | |
| BIOWL9-15 | 2026-08-30 11:05:13 | 49.73195 | 7.56684 | 75° | 91km/h | 7239m | 4.3m/s | -22.6°C | 8.5% | 412.5hPa | 2.8V | 00:00:00 | 00:00:00 | 00:00:00 | |
| DB0UT-7 | 2026-08-30 11:05:12 | 49.73189 | 7.56649 | 76° | 82km/h | 7235m | 3.0m/s | -22.5°C | 9.4% | 412.8hPa | 2.8V | 04:41:00 | 00:34:57 | 00:00:00 | |
| DM0DOS-11 | 2026-08-30 11:05:11 | 49.73151 | 7.56458 | 72° | 78km/h | 7204m | 5.2m/s | -22.4°C | 9% | 414.5hPa | 2.8V | 04:42:03 | 00:34:51 | 00:00:00 | |
| BIOWL1-15 | 2026-08-30 11:05:06 | 49.73145 | 7.56429 | 73° | 82km/h | 7199m | 6.1m/s | -22.4°C | 8.8% | 414.8hPa | 2.9V | 04:42:54 | 00:34:50 | 00:00:00 | |
| DL9SK-14 | 2026-08-30 11:05:02 | 49.73116 | 7.56300 | 68° | 93km/h | 7182m | 3.3m/s | -22.2°C | 8.2% | 415.8hPa | 2.9V | 00:00:00 | 00:00:00 | 00:00:00 | |
| DL9PN | 2026-08-30 11:05:00 | 49.73100 | 7.56232 | 69° | 89km/h | 7176m | 3.8m/s | -22.2°C | 8.3% | 416.1hPa | 2.9V | 00:00:00 | 00:00:00 | 00:00:00 | |
| DM0DOS-11 | 2026-08-30 11:04:57 | 49.73077 | 7.56140 | 68° | 80km/h | 7163m | 5.6m/s | -22.1°C | 9.1% | 416.8hPa | 2.9V | 04:42:13 | 00:34:41 | 00:00:00 | |
| BIOWL1-15 | 2026-08-30 11:04:56 | 49.73077 | 7.56140 | 69° | 80km/h | 7164m | 5.6m/s | -22.1°C | 9.1% | 416.8hPa | 2.9V | 04:42:54 | 00:34:41 | 00:00:00 | |
| DM0DOS-11 | 2026-08-30 11:04:51 | 49.73018 | 7.55857 | 73° | 78km/h | 7105m | 5.6m/s | -21.6°C | 8.9% | 420.1hPa | 2.9V | 04:42:23 | 00:34:31 | 00:00:00 | |
| DB0ND-19 | 2026-08-30 11:04:50 | 49.73037 | 7.55967 | 71° | 71km/h | 7125m | 6.3m/s | -21.8°C | 7.7% | 418.9hPa | 2.9V | 00:00:00 | 00:00:00 | 00:00:00 | |
| DM3KS-11 | 2026-08-30 11:04:47 | 49.73023 | 7.55886 | 75° | 75km/h | 7110m | 4.1m/s | -21.6°C | 8.0% | 419.8hPa | 2.9V | 00:00:00 | 00:00:00 | 00:00:00 | |
| BIOWL1-15 | 2026-08-30 11:04:45 | 49.73005 | 7.55798 | 70° | 80km/h | 7093m | 6.7m/s | -21.5°C | 9.9% | 420.7hPa | 2.9V | 04:42:54 | 00:34:29 | 00:00:00 | |
| BIOWL7-15 | 2026-08-30 11:04:44 | 49.73012 | 7.55827 | 73° | 80km/h | 7100m | 6.0m/s | 0°C | 0% | 420.4hPa | 2.9V | 00:00:00 | 00:00:00 | 00:00:00 | |
| DB0UT-7 | 2026-08-30 11:04:42 | 49.72991 | 7.55741 | 71° | 77km/h | 7081m | 6.1m/s | -21.3°C | 10.8% | 421.3hPa | 2.9V | 00:00:00 | 00:00:00 | 00:00:00 | |
| DM0DOS-11 | 2026-08-30 11:04:41 | 49.72963 | 7.55573 | 73° | 73km/h | 7042m | 6.3m/s | -21°C | 10.6% | 423.7hPa | 2.9V | 04:42:33 | 00:34:21 | 00:00:00 | |
| BIOWL1-15 | 2026-08-30 11:04:34 | 49.72954 | 7.55519 | 78° | 73km/h | 7029m | 6m/s | -20.9°C | 10.9% | 424.3hPa | 2.9V | 04:42:54 | 00:34:19 | 00:00:00 | |
| DL9SK-14 | 2026-08-30 11:04:31 | 49.72936 | 7.55395 | 75° | 82km/h | 7008m | 5.9m/s | -20.7°C | 9.6% | 425.5hPa | 2.9V | 00:00:00 | 00:00:00 | 00:00:00 | |
| DL9PN | 2026-08-30 11:04:29 | 49.72931 | 7.55364 | 74° | 77km/h | 7002m | 4.9m/s | -20.7°C | 9.7% | 425.8hPa | 2.9V | 00:00:00 | 00:00:00 | 00:00:00 | |
| DM0DOS-11 | 2026-08-30 11:04:27 | 49.72915 | 7.55281 | 72° | 73km/h | 6989m | 5.2m/s | -20.6°C | 10.4% | 426.6hPa | 2.9V | 04:42:43 | 00:34:11 | 00:00:00 | |
| BIOWL1-15 | 2026-08-30 11:04:24 | 49.72904 | 7.55224 | 75° | 78km/h | 6981m | 3.8m/s | -20.5°C | 9.7% | 427.2hPa | 2.9V | 04:42:54 | 00:34:09 | 00:00:00 | |
| DM0DOS-11 | 2026-08-30 11:04:21 | 49.72860 | 7.54971 | 78° | 82km/h | 6947m | 2.5m/s | -20.2°C | 9.4% | 429.2hPa | 2.9V | 04:42:53 | 00:34:01 | 00:00:00 | |
| BIOWL1-15 | 2026-08-30 11:04:14 | 49.72851 | 7.54910 | 74° | 75km/h | 6938m | 4.2m/s | -20.2°C | 8.6% | 429.6hPa | 2.9V | 04:43:45 | 00:33:59 | 00:00:00 | |
| DL1ZP-14 | 2026-08-30 11:04:13 | 49.72846 | 7.54883 | 71° | 68km/h | 6935m | 3.1m/s | -20.2°C | 7.6% | 429.9hPa | 2.9V | 00:00:00 | 00:00:00 | 00:00:00 | |
| DB0UT-7 | 2026-08-30 11:04:12 | 49.72840 | 7.54858 | 69° | 80km/h | 6931m | 4.6m/s | -20.1°C | 7.9% | 430.0hPa | 2.9V | 00:00:00 | 00:33:57 | 00:00:00 | |
| DM0DOS-11 | 2026-08-30 11:04:11 | 49.72794 | 7.54698 | 70° | 89km/h | 6908m | 5.6m/s | -20.1°C | 6.5% | 431.5hPa | 2.9V | 04:43:03 | 00:33:51 | 00:00:00 | |
| BIOWL1-15 | 2026-08-30 11:04:03 | 49.72774 | 7.54592 | 75° | 95km/h | 6890m | 6m/s | -20°C | 5.3% | 432.5hPa | 2.9V | 04:43:45 | 00:33:48 | 00:00:00 | |
| DL9SK-14 | 2026-08-30 11:04:00 | 49.72748 | 7.54461 | 68° | 75km/h | 6868m | 5.3m/s | -19.8°C | 5.6% | 433.8hPa | 2.9V | 00:00:00 | 00:00:00 | 00:00:00 | |
| DL9PN | 2026-08-30 11:03:58 | 49.72733 | 7.54408 | 62° | 69km/h | 6857m | 5.4m/s | -19.8°C | 5.5% | 434.4hPa | 2.9V | 00:00:00 | 00:00:00 | 00:00:00 | |
| DM0DOS-11 | 2026-08-30 11:03:55 | 49.72720 | 7.54360 | 70° | 64km/h | 6845m | 5.2m/s | -19.6°C | 6.1% | 435.1hPa | 2.9V | 04:43:14 | 00:33:40 | 00:00:00 | |
| BIOWL1-15 | 2026-08-30 11:03:54 | 49.72711 | 7.54280 | 85° | 75km/h | 6830m | 5.4m/s | -19.5°C | 5.2% | 435.9hPa | 2.9V | 04:43:45 | 00:33:37 | 00:00:00 | |
| DM0DOS-11 | 2026-08-30 11:03:50 | 49.72673 | 7.54058 | 71° | 86km/h | 6791m | 6.9m/s | -19.2°C | 6% | 438.3hPa | 2.9V | 04:43:24 | 00:33:30 | 00:00:00 | |
| DB0ND-19 | 2026-08-30 11:03:48 | 49.72695 | 7.54154 | 72° | 86km/h | 6808m | 5.5m/s | -19.3°C | 5.4% | 437.3hPa | 2.9V | 00:00:00 | 00:00:00 | 00:00:00 | |
| BIOWL1-15 | 2026-08-30 11:03:46 | 49.72658 | 7.53969 | 78° | 73km/h | 6772m | 5m/s | -19.1°C | 5.2% | 439.4hPa | 2.9V | 04:43:45 | 00:33:27 | 00:00:00 | |
| DM3KS-11 | 2026-08-30 11:03:45 | 49.72674 | 7.54058 | 71° | 84km/h | 6791m | 6.9m/s | -19.2°C | 5.4% | 438.3hPa | 2.9V | 00:00:00 | 00:00:00 | 00:00:00 | |
| DB0UT-7 | 2026-08-30 11:03:42 | 49.72658 | 7.53969 | 79° | 78km/h | 6772m | 5.0m/s | -19.0°C | 6.0% | 439.3hPa | 2.9V | 00:00:00 | 00:00:00 | 00:00:00 | |
| DM0DOS-11 | 2026-08-30 11:03:40 | 49.72635 | 7.53754 | 82° | 86km/h | 6739m | 3.7m/s | -18.8°C | 6.1% | 441.3hPa | 2.9V | 04:43:34 | 00:33:20 | 00:00:00 | |
| BIOWL1-15 | 2026-08-30 11:03:34 | 49.72628 | 7.53659 | 81° | 77km/h | 6724m | 4m/s | -18.8°C | 5.3% | 442.1hPa | 2.9V | 04:43:45 | 00:33:17 | 00:00:00 | |
| DL9SK-14 | 2026-08-30 11:03:29 | 49.72614 | 7.53548 | 79° | 71km/h | 6706m | 5.7m/s | -18.6°C | 5.4% | 443.4hPa | 2.9V | 00:00:00 | 00:00:00 | 00:00:00 | |
| DM0DOS-11 | 2026-08-30 11:03:27 | 49.72602 | 7.53457 | 77° | 86km/h | 6689m | 5.8m/s | -18.5°C | 5.9% | 444.4hPa | 2.9V | 04:43:44 | 00:33:10 | 00:00:00 | |
| BIOWL1-15 | 2026-08-30 11:03:22 | 49.72586 | 7.53358 | 75° | 89km/h | 6676m | 4m/s | -18.4°C | 4.9% | 445.2hPa | 2.9V | 04:44:36 | 00:33:07 | 00:00:00 | |
| DM0DOS-11 | 2026-08-30 11:03:17 | 49.72550 | 7.53156 | 83° | 75km/h | 6646m | 5.6m/s | -18.2°C | 5.9% | 446.8hPa | 2.9V | 04:43:54 | 00:33:00 | 00:00:00 | |
| BIOWL1-15 | 2026-08-30 11:03:14 | 49.72541 | 7.53060 | 79° | 89km/h | 6629m | 7.1m/s | -18.1°C | 5% | 447.9hPa | 2.9V | 04:44:36 | 00:32:57 | 00:00:00 | |
| BIOWL1-15 | 2026-08-30 11:03:03 | 49.72494 | 7.52731 | 86° | 77km/h | 6565m | 4.2m/s | -17.8°C | 6.2% | 451.6hPa | 2.9V | 04:44:36 | 00:32:46 | 00:00:00 | |
| DL8DAS-14 | 2026-08-30 11:02:59 | 49.72485 | 7.52640 | 74° | 82km/h | 6550m | 5.4m/s | 0°C | -1.0% | -1.0hPa | 2.9V | 00:00:00 | 00:00:00 | 00:00:00 | |
| DL9SK-14 | 2026-08-30 11:02:58 | 49.72479 | 7.52608 | 72° | 84km/h | 6545m | 4.7m/s | -17.7°C | 6.2% | 452.8hPa | 2.9V | 00:00:00 | 00:00:00 | 00:00:00 | |
| DM0DOS-11 | 2026-08-30 11:02:57 | 49.72465 | 7.52546 | 71° | 82km/h | 6533m | 6.7m/s | -17.6°C | 6.7% | 453.6hPa | 2.9V | 04:44:14 | 00:32:40 | 00:00:00 | |
| BIOWL1-15 | 2026-08-30 11:02:50 | 49.72439 | 7.52398 | 78° | 80km/h | 6507m | 4.6m/s | -17.4°C | 6.4% | 455.2hPa | 2.9V | 04:44:36 | 00:32:35 | 00:00:00 | |
| HEMX73-11 | 2026-08-30 11:02:48 | 49.72435 | 7.52366 | 80° | 86km/h | 6502m | 6.4m/s | -17.3°C | 6.2% | 455.6hPa | 2.9V | 04:44:00 | 00:00:00 | 00:00:00 | |
| DM0DOS-11 | 2026-08-30 11:02:47 | 49.72414 | 7.52212 | 76° | 73km/h | 6471m | 6m/s | -17.1°C | 7.4% | 457.4hPa | 2.9V | 04:44:25 | 00:32:29 | 00:00:00 | |
| DB0ND-19 | 2026-08-30 11:02:46 | 49.72422 | 7.52269 | 77° | 78km/h | 6483m | 6.7m/s | -17.2°C | 6.5% | 456.7hPa | 2.9V | 00:00:00 | 00:00:00 | 00:00:00 | |
| BIOWL1-15 | 2026-08-30 11:02:39 | 49.72387 | 7.52066 | 76° | 86km/h | 6448m | 3.6m/s | -17.1°C | 9.6% | 458.9hPa | 2.9V | 04:44:36 | 00:32:24 | 00:00:00 | |
| DK5PH-5 | 2026-08-30 11:02:38 | 49.72383 | 7.52033 | 79° | 77km/h | 6444m | 3.5m/s | -17.0°C | 10.1% | 459.1hPa | 2.9V | 00:00:00 | 00:32:23 | 00:00:00 | |
| DM0DOS-11 | 2026-08-30 11:02:37 | 49.72368 | 7.51913 | 76° | 77km/h | 6425m | 5.5m/s | -17°C | 13.9% | 460.2hPa | 2.9V | 04:44:35 | 00:32:19 | 00:00:00 | |
| BIOWL1-15 | 2026-08-30 11:02:28 | 49.72333 | 7.51712 | 75° | 80km/h | 6383m | 6.1m/s | -16.8°C | 15.7% | 462.9hPa | 2.9V | 04:45:27 | 00:32:12 | 00:00:00 | |
| DM0DOS-11 | 2026-08-30 11:02:27 | 49.72321 | 7.51617 | 81° | 84km/h | 6366m | 6.2m/s | -16.7°C | 14% | 463.9hPa | 2.9V | 04:44:45 | 00:32:09 | 00:00:00 | |
| BIOWL1-15 | 2026-08-30 11:02:18 | 49.72300 | 7.51445 | 82° | 69km/h | 6327m | 6.2m/s | -16.4°C | 14.3% | 466.2hPa | 2.9V | 04:45:27 | 00:32:03 | 00:00:00 | |
| DM0DOS-11 | 2026-08-30 11:02:17 | 49.72284 | 7.51331 | 71° | 77km/h | 6305m | 5.4m/s | -16.3°C | 14.1% | 467.7hPa | 2.9V | 04:44:55 | 00:31:59 | 00:00:00 | |
| BIOWL1-15 | 2026-08-30 11:02:10 | 49.72239 | 7.51060 | 76° | 71km/h | 6247m | 4.9m/s | -15.9°C | 15.9% | 471.3hPa | 2.9V | 04:45:27 | 00:31:49 | 00:00:00 | |
| DL1ZP-14 | 2026-08-30 11:02:09 | 49.72261 | 7.51197 | 80° | 71km/h | 6276m | 5.4m/s | -16.1°C | 13.5% | 469.5hPa | 2.9V | 00:00:00 | 00:00:00 | 00:00:00 | |
| DK5PH-5 | 2026-08-30 11:02:08 | 49.72258 | 7.51169 | 79° | 77km/h | 6271m | 6.5m/s | -16.0°C | 14.9% | 469.7hPa | 2.9V | 04:45:00 | 00:31:53 | 00:00:00 | |
| DM0DOS-11 | 2026-08-30 11:02:07 | 49.72239 | 7.51060 | 75° | 71km/h | 6247m | 4.9m/s | -15.9°C | 14.9% | 471.3hPa | 2.9V | 04:45:05 | 00:31:49 | 00:00:00 | |
| DF7PN | 2026-08-30 11:02:04 | 49.72235 | 7.51032 | 76° | 75km/h | 6241m | 6.7m/s | -15.8°C | 14.1% | 471.7hPa | 2.9V | 00:00:00 | 00:00:00 | 00:00:00 | |
| DH7VM-15 | 2026-08-30 11:02:03 | 49.72235 | 7.51032 | 78° | 77km/h | 6241m | 6.7m/s | -15.8°C | 14.1% | 471.7hPa | 2.9V | 00:00:00 | 00:00:00 | 00:00:00 | |
| DB0UT-9 | 2026-08-30 11:02:02 | 49.72235 | 7.51032 | 78° | 77km/h | 6241m | 6.7m/s | -15.8°C | 14.2% | 471.7hPa | 2.9V | 04:45:00 | 00:00:00 | 00:00:00 | |
| DM0DOS-11 | 2026-08-30 11:01:57 | 49.72186 | 7.50761 | 75° | 71km/h | 6201m | 4.8m/s | -15.6°C | 15.8% | 474.2hPa | 2.9V | 04:45:15 | 00:31:39 | 00:00:00 | |
| BIOWL1-15 | 2026-08-30 11:01:56 | 49.72186 | 7.50761 | 76° | 71km/h | 6201m | 4.8m/s | -15.6°C | 17.1% | 474.2hPa | 2.9V | 04:45:27 | 00:31:39 | 00:00:00 | |
| DL9PN | 2026-08-30 11:01:54 | 49.72177 | 7.50707 | 74° | 73km/h | 6186m | 6.7m/s | -15.5°C | 15.0% | 475.1hPa | 3V | 00:00:00 | 00:00:00 | 00:00:00 | |
| DM0DOS-11 | 2026-08-30 11:01:46 | 49.72129 | 7.50477 | 76° | 73km/h | 6140m | 3.1m/s | -15°C | 15.8% | 478.1hPa | 3V | 04:45:25 | 00:31:29 | 00:00:00 | |
| BIOWL1-15 | 2026-08-30 11:01:43 | 49.72121 | 7.50421 | 79° | 75km/h | 6129m | 5.9m/s | -15°C | 17.1% | 478.7hPa | 3V | 04:45:27 | 00:31:27 | 00:00:00 | |
| DB0UT-7 | 2026-08-30 11:01:42 | 49.72121 | 7.50421 | 79° | 77km/h | 6129m | 5.8m/s | -14.9°C | 15.8% | 478.7hPa | 2.9V | 00:00:00 | 00:00:00 | 00:00:00 | |
| DM3KS-11 | 2026-08-30 11:01:41 | 49.72118 | 7.50392 | 79° | 73km/h | 6123m | 6.6m/s | -14.9°C | 15.0% | 479.2hPa | 2.9V | 00:00:00 | 00:00:00 | 00:00:00 | |
| DK5PH-5 | 2026-08-30 11:01:38 | 49.72105 | 7.50302 | 78° | 75km/h | 6105m | 5.2m/s | -14.7°C | 15.8% | 480.3hPa | 2.9V | 00:00:00 | 00:31:23 | 00:00:00 | |
| BIOWL9-15 | 2026-08-30 11:01:36 | 49.72096 | 7.50240 | 77° | 78km/h | 6094m | 4.0m/s | -14.6°C | 15.1% | 481.0hPa | 2.9V | 00:00:00 | 00:00:00 | 00:00:00 | |
| DM0DOS-11 | 2026-08-30 11:01:35 | 49.72083 | 7.50152 | 74° | 77km/h | 6079m | 5.9m/s | -14.5°C | 15.8% | 481.9hPa | 2.9V | 04:45:36 | 00:31:18 | 00:00:00 | |
| BIOWL1-15 | 2026-08-30 11:01:31 | 49.72070 | 7.50094 | 70° | 77km/h | 6067m | 4m/s | -14.5°C | 17.9% | 482.6hPa | 2.9V | 04:46:18 | 00:31:16 | 00:00:00 | |
| DM0DOS-11 | 2026-08-30 11:01:25 | 49.72034 | 7.49848 | 81° | 80km/h | 6029m | 4.5m/s | -14.2°C | 18.1% | 485.2hPa | 3V | 04:45:46 | 00:31:08 | 00:00:00 | |
| BIOWL1-15 | 2026-08-30 11:01:23 | 49.72026 | 7.49787 | 76° | 80km/h | 6018m | 5.6m/s | -14.1°C | 19.9% | 485.8hPa | 3V | 04:46:18 | 00:31:06 | 00:00:00 | |
| DL9PN | 2026-08-30 11:01:23 | 49.72031 | 7.49817 | 80° | 78km/h | 6024m | 6.1m/s | -14.1°C | 17.3% | 485.5hPa | 3V | 00:00:00 | 00:00:00 | 00:00:00 | |
| DB0UT-9 | 2026-08-30 11:01:19 | 49.72021 | 7.49757 | 75° | 77km/h | 6013m | 5.2m/s | -14.0°C | 17.5% | 486.2hPa | 3V | 04:46:00 | 00:00:00 | 00:00:00 | |
| DM0DOS-11 | 2026-08-30 11:01:15 | 49.71996 | 7.49567 | 77° | 66km/h | 5970m | 4.5m/s | -13.7°C | 17.8% | 488.9hPa | 3V | 04:45:56 | 00:30:58 | 00:00:00 | |
| BIOWL1-15 | 2026-08-30 11:01:13 | 49.71990 | 7.49517 | 81° | 64km/h | 5962m | 4.5m/s | -13.6°C | 18.9% | 489.4hPa | 3V | 04:46:18 | 00:30:56 | 00:00:00 | |
| DF1GD-15 | 2026-08-30 11:01:11 | 49.71992 | 7.49542 | 80° | 66km/h | 5966m | 4.0m/s | -13.6°C | 16.8% | 489.2hPa | 3.0V | 04:46:00 | 00:00:00 | 00:00:00 | |
| DB0UT-7 | 2026-08-30 11:01:10 | 49.71988 | 7.49492 | 85° | 71km/h | 5957m | 6.2m/s | -13.5°C | 17.2% | 489.7hPa | 3.0V | 00:00:00 | 00:30:55 | 00:00:00 | |
| DL1ZP-14 | 2026-08-30 11:01:07 | 49.71983 | 7.49412 | 85° | 69km/h | 5941m | 4.3m/s | -13.4°C | 16.1% | 490.7hPa | 3.0V | 00:00:00 | 00:00:00 | 00:00:00 | |
| DK5PH-5 | 2026-08-30 11:01:06 | 49.71982 | 7.49384 | 86° | 71km/h | 5937m | 5.9m/s | -13.4°C | 17.1% | 490.9hPa | 2.9V | 00:00:00 | 00:30:51 | 00:00:00 | |
| DM0DOS-11 | 2026-08-30 11:01:05 | 49.71975 | 7.49307 | 77° | 60km/h | 5920m | 4.4m/s | -13.3°C | 17.1% | 492.1hPa | 2.9V | 04:46:06 | 00:30:48 | 00:00:00 | |
| BIOWL1-15 | 2026-08-30 11:01:02 | 49.71962 | 7.49233 | 73° | 71km/h | 5908m | 4.4m/s | -13.2°C | 18.8% | 492.9hPa | 3V | 04:46:18 | 00:30:45 | 00:00:00 | |
| BIOWL1-15 | 2026-08-30 11:00:49 | 49.71927 | 7.48934 | 87° | 68km/h | 5841m | 6.3m/s | -12.7°C | 16.9% | 497.1hPa | 3V | 04:48:00 | 00:30:34 | 00:00:00 | |
| BIOWL1-15 | 2026-08-30 11:00:38 | 49.71889 | 7.48630 | 85° | 73km/h | 5775m | 6.1m/s | -12.1°C | 16.9% | 501.5hPa | 3V | 04:48:00 | 00:30:23 | 00:00:00 | |
| DK5PH-5 | 2026-08-30 11:00:36 | 49.71885 | 7.48571 | 85° | 69km/h | 5764m | 4.9m/s | -11.9°C | 15.6% | 502.2hPa | 2.9V | 00:00:00 | 00:30:21 | 00:00:00 | |
| DM0DOS-11 | 2026-08-30 11:00:34 | 49.71876 | 7.48483 | 78° | 73km/h | 5752m | 4.4m/s | -11.9°C | 14.9% | 503hPa | 2.9V | 04:46:36 | 00:30:18 | 00:00:00 | |
| BIOWL1-15 | 2026-08-30 11:00:32 | 49.71862 | 7.48348 | 83° | 71km/h | 5725m | 6.6m/s | -11.7°C | 14.5% | 504.7hPa | 3V | 04:48:00 | 00:30:13 | 00:00:00 | |
| DF1GD-15 | 2026-08-30 11:00:30 | 49.71869 | 7.48429 | 81° | 68km/h | 5743m | 5.7m/s | -11.8°C | 14.2% | 503.6hPa | 3V | 00:00:00 | 00:00:00 | 00:00:00 | |
| DM0DOS-11 | 2026-08-30 11:00:23 | 49.71851 | 7.48220 | 87° | 64km/h | 5695m | 6.3m/s | -11.4°C | 12% | 506.7hPa | 3V | 04:46:46 | 00:30:08 | 00:00:00 | |
| Es werden nur die letzten 3500 von 3796 Frames angezeigt. GPX/KML und Diagramme bleiben verfügbar. | |||||||||||||||